<?xml version='1.0' encoding='UTF-8'?><gpx version="1.1" creator="JPX - https://github.com/jenetics/jpx" xmlns="http://www.topografix.com/GPX/1/1"><trk><trkseg><trkpt lat="41.056950027001946" lon="8.950359337249653"><ele>62.00000000000001</ele><time>2026-05-02T06:25:47Z</time></trkpt><trkpt lat="41.056879570292" lon="8.950351396959405"><ele>62.0</ele><time>2026-05-02T06:25:49Z</time></trkpt><trkpt lat="41.056794225589506" lon="8.950338513407164"><ele>62.0</ele><time>2026-05-02T06:25:51Z</time></trkpt><trkpt lat="41.056709186158706" lon="8.950313924225872"><ele>62.0</ele><time>2026-05-02T06:25:53Z</time></trkpt><trkpt lat="41.05662633648044" lon="8.950281999248189"><ele>62.00000000000001</ele><time>2026-05-02T06:25:55Z</time></trkpt><trkpt lat="41.05655273745311" lon="8.950280244398394"><ele>62.0</ele><time>2026-05-02T06:26:42Z</time></trkpt><trkpt lat="41.05649426655919" lon="8.950325599781518"><ele>62.400000000000006</ele><time>2026-05-02T06:26:45Z</time></trkpt><trkpt lat="41.05639535262978" lon="8.95029183558751"><ele>62.800000000000004</ele><time>2026-05-02T06:26:47Z</time></trkpt><trkpt lat="41.05632999721083" lon="8.950280865014975"><ele>63.2</ele><time>2026-05-02T06:26:48Z</time></trkpt><trkpt lat="41.05620707421087" lon="8.95025415375531"><ele>63.6</ele><time>2026-05-02T06:26:50Z</time></trkpt><trkpt lat="41.056086520937" lon="8.950301448490345"><ele>64.0</ele><time>2026-05-02T06:26:52Z</time></trkpt><trkpt lat="41.055977091544" lon="8.950372019441184"><ele>64.0</ele><time>2026-05-02T06:26:54Z</time></trkpt><trkpt lat="41.05587970200052" lon="8.950457609368412"><ele>64.0</ele><time>2026-05-02T06:26:56Z</time></trkpt><trkpt lat="41.05579070600485" lon="8.950582879491646"><ele>64.0</ele><time>2026-05-02T06:26:58Z</time></trkpt><trkpt lat="41.055705597472944" lon="8.95069703511586"><ele>64.0</ele><time>2026-05-02T06:27:00Z</time></trkpt><trkpt lat="41.055604296734124" lon="8.950759338025579"><ele>65.2</ele><time>2026-05-02T06:27:02Z</time></trkpt><trkpt lat="41.05551999048363" lon="8.950730749245102"><ele>66.4</ele><time>2026-05-02T06:27:04Z</time></trkpt><trkpt lat="41.055508589013016" lon="8.950645040881536"><ele>67.6</ele><time>2026-05-02T06:27:05Z</time></trkpt><trkpt lat="41.05551717411079" lon="8.950496331108134"><ele>68.8</ele><time>2026-05-02T06:27:07Z</time></trkpt><trkpt lat="41.055545457179335" lon="8.950321228418954"><ele>70.0</ele><time>2026-05-02T06:27:09Z</time></trkpt><trkpt lat="41.055575159503796" lon="8.950222932409282"><ele>70.0</ele><time>2026-05-02T06:27:10Z</time></trkpt><trkpt lat="41.05560738004512" lon="8.95011748972023"><ele>70.0</ele><time>2026-05-02T06:27:11Z</time></trkpt><trkpt lat="41.05563977883393" lon="8.949990947254918"><ele>70.0</ele><time>2026-05-02T06:27:12Z</time></trkpt><trkpt lat="41.05566219701455" lon="8.949882188129234"><ele>70.0</ele><time>2026-05-02T06:27:13Z</time></trkpt><trkpt lat="41.05567431661722" lon="8.949779743116945"><ele>70.0</ele><time>2026-05-02T06:27:14Z</time></trkpt><trkpt lat="41.05568354410431" lon="8.949681393462612"><ele>70.0</ele><time>2026-05-02T06:27:15Z</time></trkpt><trkpt lat="41.0556885382135" lon="8.949590905366357"><ele>68.0</ele><time>2026-05-02T06:27:16Z</time></trkpt><trkpt lat="41.05569328745956" lon="8.949504615044802"><ele>66.0</ele><time>2026-05-02T06:27:17Z</time></trkpt><trkpt lat="41.05569674203415" lon="8.949335505709989"><ele>64.0</ele><time>2026-05-02T06:27:19Z</time></trkpt><trkpt lat="41.05569684823193" lon="8.949248112323"><ele>62.0</ele><time>2026-05-02T06:27:20Z</time></trkpt><trkpt lat="41.055707878799055" lon="8.949092917928233"><ele>60.0</ele><time>2026-05-02T06:27:22Z</time></trkpt><trkpt lat="41.05570181911148" lon="8.948954850562979"><ele>58.2</ele><time>2026-05-02T06:27:24Z</time></trkpt><trkpt lat="41.05566183330212" lon="8.94880425217673"><ele>56.4</ele><time>2026-05-02T06:27:26Z</time></trkpt><trkpt lat="41.05560839930155" lon="8.948752432342774"><ele>54.599999999999994</ele><time>2026-05-02T06:27:27Z</time></trkpt><trkpt lat="41.055531966624976" lon="8.94864071424236"><ele>52.8</ele><time>2026-05-02T06:27:29Z</time></trkpt><trkpt lat="41.05540635851724" lon="8.948581770593002"><ele>51.0</ele><time>2026-05-02T06:27:31Z</time></trkpt><trkpt lat="41.05531454823812" lon="8.948581872738906"><ele>51.0</ele><time>2026-05-02T06:27:32Z</time></trkpt><trkpt lat="41.055225786120666" lon="8.94855036206219"><ele>51.0</ele><time>2026-05-02T06:27:33Z</time></trkpt><trkpt lat="41.05513595077918" lon="8.948502080657335"><ele>51.0</ele><time>2026-05-02T06:27:34Z</time></trkpt><trkpt lat="41.05507042704103" lon="8.948419302838829"><ele>51.0</ele><time>2026-05-02T06:27:35Z</time></trkpt><trkpt lat="41.05502412511978" lon="8.948337995742195"><ele>51.0</ele><time>2026-05-02T06:27:36Z</time></trkpt><trkpt lat="41.05497478153937" lon="8.948245181528732"><ele>51.0</ele><time>2026-05-02T06:27:37Z</time></trkpt><trkpt lat="41.054909930083795" lon="8.94812171246428"><ele>51.8</ele><time>2026-05-02T06:27:39Z</time></trkpt><trkpt lat="41.05484722086227" lon="8.947993804213628"><ele>52.599999999999994</ele><time>2026-05-02T06:27:41Z</time></trkpt><trkpt lat="41.05479099583681" lon="8.947879122233058"><ele>53.4</ele><time>2026-05-02T06:27:43Z</time></trkpt><trkpt lat="41.0547323258894" lon="8.947760990568536"><ele>54.2</ele><time>2026-05-02T06:27:45Z</time></trkpt><trkpt lat="41.05469660664897" lon="8.947690668280352"><ele>55.0</ele><time>2026-05-02T06:27:46Z</time></trkpt><trkpt lat="41.05463821661901" lon="8.947627862582817"><ele>53.49999999999999</ele><time>2026-05-02T06:27:47Z</time></trkpt><trkpt lat="41.054587090279036" lon="8.947521633854258"><ele>52.0</ele><time>2026-05-02T06:27:48Z</time></trkpt><trkpt lat="41.054530894357654" lon="8.947424567079238"><ele>50.5</ele><time>2026-05-02T06:27:49Z</time></trkpt><trkpt lat="41.0544865986632" lon="8.947335772135595"><ele>49.0</ele><time>2026-05-02T06:27:50Z</time></trkpt><trkpt lat="41.054439561976906" lon="8.947253292087456"><ele>47.5</ele><time>2026-05-02T06:27:51Z</time></trkpt><trkpt lat="41.05440591786087" lon="8.947177636983467"><ele>46.0</ele><time>2026-05-02T06:27:52Z</time></trkpt><trkpt lat="41.05434389863398" lon="8.947042929136526"><ele>46.0</ele><time>2026-05-02T06:27:54Z</time></trkpt><trkpt lat="41.054298488541754" lon="8.946905632766923"><ele>46.0</ele><time>2026-05-02T06:27:56Z</time></trkpt><trkpt lat="41.05423474506828" lon="8.946773585071545"><ele>46.0</ele><time>2026-05-02T06:27:58Z</time></trkpt><trkpt lat="41.05419482861547" lon="8.94666377489478"><ele>46.0</ele><time>2026-05-02T06:28:00Z</time></trkpt><trkpt lat="41.05434975941453" lon="8.946657187852784"><ele>46.0</ele><time>2026-05-02T06:28:03Z</time></trkpt><trkpt lat="41.054412614130285" lon="8.946643156843727"><ele>46.0</ele><time>2026-05-02T06:28:04Z</time></trkpt><trkpt lat="41.05447927897813" lon="8.946661153750721"><ele>46.0</ele><time>2026-05-02T06:28:05Z</time></trkpt><trkpt lat="41.05454741927631" lon="8.946682413088336"><ele>46.0</ele><time>2026-05-02T06:28:06Z</time></trkpt><trkpt lat="41.054628170362655" lon="8.946697428397496"><ele>46.0</ele><time>2026-05-02T06:28:08Z</time></trkpt><trkpt lat="41.054707788532234" lon="8.946728968314478"><ele>46.0</ele><time>2026-05-02T06:28:13Z</time></trkpt><trkpt lat="41.05476915595192" lon="8.946763995271342"><ele>46.0</ele><time>2026-05-02T06:28:15Z</time></trkpt><trkpt lat="41.05481359485614" lon="8.946670950684123"><ele>44.66666666666667</ele><time>2026-05-02T06:28:18Z</time></trkpt><trkpt lat="41.05478531413018" lon="8.946572155915192"><ele>43.333333333333336</ele><time>2026-05-02T06:28:20Z</time></trkpt><trkpt lat="41.05475865520711" lon="8.946462461245343"><ele>42.0</ele><time>2026-05-02T06:28:22Z</time></trkpt><trkpt lat="41.0547521130036" lon="8.946367351769162"><ele>40.666666666666664</ele><time>2026-05-02T06:28:24Z</time></trkpt><trkpt lat="41.05486045574029" lon="8.94626901993636"><ele>39.33333333333333</ele><time>2026-05-02T06:31:41Z</time></trkpt><trkpt lat="41.05492948935078" lon="8.946232946065933"><ele>38.0</ele><time>2026-05-02T06:31:49Z</time></trkpt><trkpt lat="41.054978001874524" lon="8.946175956196571"><ele>36.14285714285714</ele><time>2026-05-02T06:31:57Z</time></trkpt><trkpt lat="41.05505231508763" lon="8.946174597810412"><ele>34.28571428571429</ele><time>2026-05-02T06:32:07Z</time></trkpt><trkpt lat="41.05512145591542" lon="8.946218373838766"><ele>32.42857142857143</ele><time>2026-05-02T06:32:16Z</time></trkpt><trkpt lat="41.05518517287609" lon="8.946256340888823"><ele>30.57142857142857</ele><time>2026-05-02T06:32:24Z</time></trkpt><trkpt lat="41.055233222863436" lon="8.946311756661352"><ele>28.714285714285715</ele><time>2026-05-02T06:32:33Z</time></trkpt><trkpt lat="41.05527486727534" lon="8.946384093804168"><ele>26.85714285714286</ele><time>2026-05-02T06:32:41Z</time></trkpt><trkpt lat="41.055221783090246" lon="8.946329496372194"><ele>25.0</ele><time>2026-05-02T06:49:56Z</time></trkpt><trkpt lat="41.05517262678629" lon="8.946275459892336"><ele>25.000000000000004</ele><time>2026-05-02T06:50:04Z</time></trkpt><trkpt lat="41.055116680426885" lon="8.94623268079757"><ele>25.0</ele><time>2026-05-02T06:50:15Z</time></trkpt><trkpt lat="41.05505595726032" lon="8.946201618986608"><ele>25.0</ele><time>2026-05-02T06:50:23Z</time></trkpt><trkpt lat="41.05499119346392" lon="8.946205128488971"><ele>25.0</ele><time>2026-05-02T06:50:33Z</time></trkpt><trkpt lat="41.054943139516546" lon="8.946263908259473"><ele>25.0</ele><time>2026-05-02T06:50:41Z</time></trkpt><trkpt lat="41.05487631867281" lon="8.946298996318369"><ele>25.000000000000004</ele><time>2026-05-02T06:50:49Z</time></trkpt><trkpt lat="41.05481311877024" lon="8.946279693427309"><ele>25.0</ele><time>2026-05-02T06:50:58Z</time></trkpt><trkpt lat="41.05475114909356" lon="8.946301797592936"><ele>26.0</ele><time>2026-05-02T06:51:08Z</time></trkpt><trkpt lat="41.05469605507485" lon="8.946349336713284"><ele>27.0</ele><time>2026-05-02T06:51:18Z</time></trkpt><trkpt lat="41.0547350558615" lon="8.94627223583886"><ele>28.0</ele><time>2026-05-02T06:55:45Z</time></trkpt><trkpt lat="41.054721423004075" lon="8.946174494415196"><ele>29.0</ele><time>2026-05-02T06:55:48Z</time></trkpt><trkpt lat="41.05467245629535" lon="8.946099845218244"><ele>29.999999999999996</ele><time>2026-05-02T06:56:12Z</time></trkpt><trkpt lat="41.05463200101696" lon="8.946019270366497"><ele>31.0</ele><time>2026-05-02T06:56:14Z</time></trkpt><trkpt lat="41.05459077586263" lon="8.945944193001965"><ele>32.0</ele><time>2026-05-02T06:56:16Z</time></trkpt><trkpt lat="41.05454307648702" lon="8.94586657603989"><ele>31.999999999999996</ele><time>2026-05-02T06:56:18Z</time></trkpt><trkpt lat="41.05450000726285" lon="8.945778312504386"><ele>32.0</ele><time>2026-05-02T06:56:20Z</time></trkpt><trkpt lat="41.05445854576887" lon="8.945689756255957"><ele>32.0</ele><time>2026-05-02T06:56:22Z</time></trkpt><trkpt lat="41.05441949513804" lon="8.945621736230763"><ele>32.0</ele><time>2026-05-02T06:56:24Z</time></trkpt><trkpt lat="41.05438366163592" lon="8.945552256542792"><ele>31.999999999999996</ele><time>2026-05-02T06:56:27Z</time></trkpt><trkpt lat="41.05433512703039" lon="8.945461534388185"><ele>32.0</ele><time>2026-05-02T06:56:29Z</time></trkpt><trkpt lat="41.05426830756118" lon="8.94536516882959"><ele>31.999999999999996</ele><time>2026-05-02T06:56:31Z</time></trkpt><trkpt lat="41.05420853349269" lon="8.945263247375596"><ele>32.0</ele><time>2026-05-02T06:56:33Z</time></trkpt><trkpt lat="41.0541581982808" lon="8.945166206031423"><ele>32.0</ele><time>2026-05-02T06:56:35Z</time></trkpt><trkpt lat="41.05410812902314" lon="8.945070520691363"><ele>32.0</ele><time>2026-05-02T06:56:37Z</time></trkpt><trkpt lat="41.05406785351177" lon="8.944974622297222"><ele>31.999999999999996</ele><time>2026-05-02T06:56:39Z</time></trkpt><trkpt lat="41.054032050789765" lon="8.944868843419153"><ele>32.0</ele><time>2026-05-02T06:56:41Z</time></trkpt><trkpt lat="41.0539779748491" lon="8.944737080212821"><ele>32.5</ele><time>2026-05-02T06:56:43Z</time></trkpt><trkpt lat="41.053902793292956" lon="8.944590571201058"><ele>33.0</ele><time>2026-05-02T06:56:45Z</time></trkpt><trkpt lat="41.05383742726244" lon="8.944555985168119"><ele>33.5</ele><time>2026-05-02T06:56:46Z</time></trkpt><trkpt lat="41.053777828782565" lon="8.944522307348118"><ele>34.0</ele><time>2026-05-02T06:56:47Z</time></trkpt><trkpt lat="41.05367399308477" lon="8.94446787455595"><ele>34.5</ele><time>2026-05-02T06:56:49Z</time></trkpt><trkpt lat="41.053609618187735" lon="8.944438871326602"><ele>35.0</ele><time>2026-05-02T06:57:03Z</time></trkpt><trkpt lat="41.05354067774831" lon="8.944438301036154"><ele>35.0</ele><time>2026-05-02T06:57:06Z</time></trkpt><trkpt lat="41.05343768525272" lon="8.944345313425009"><ele>35.0</ele><time>2026-05-02T06:57:08Z</time></trkpt><trkpt lat="41.05336721603285" lon="8.944294372890775"><ele>35.0</ele><time>2026-05-02T06:57:09Z</time></trkpt><trkpt lat="41.05329170751358" lon="8.944247437334015"><ele>35.0</ele><time>2026-05-02T06:57:10Z</time></trkpt><trkpt lat="41.053214723538595" lon="8.944210421828275"><ele>35.0</ele><time>2026-05-02T06:57:11Z</time></trkpt><trkpt lat="41.05312552252065" lon="8.944179045651465"><ele>36.0</ele><time>2026-05-02T06:57:13Z</time></trkpt><trkpt lat="41.053117719909075" lon="8.944047828984877"><ele>37.0</ele><time>2026-05-02T06:57:14Z</time></trkpt><trkpt lat="41.05307879642784" lon="8.94397230910886"><ele>38.0</ele><time>2026-05-02T06:57:15Z</time></trkpt><trkpt lat="41.053035297316164" lon="8.943890934564463"><ele>39.0</ele><time>2026-05-02T06:57:16Z</time></trkpt><trkpt lat="41.052979666031824" lon="8.943820856067301"><ele>40.0</ele><time>2026-05-02T06:57:17Z</time></trkpt><trkpt lat="41.05293602672943" lon="8.9437404654277"><ele>41.0</ele><time>2026-05-02T06:57:18Z</time></trkpt><trkpt lat="41.05288916375921" lon="8.943662508224065"><ele>41.0</ele><time>2026-05-02T06:57:19Z</time></trkpt><trkpt lat="41.05284412678672" lon="8.943584399249174"><ele>41.0</ele><time>2026-05-02T06:57:20Z</time></trkpt><trkpt lat="41.05280080860663" lon="8.94350610922598"><ele>41.0</ele><time>2026-05-02T06:57:21Z</time></trkpt><trkpt lat="41.052755591432245" lon="8.943431135185104"><ele>41.0</ele><time>2026-05-02T06:57:22Z</time></trkpt><trkpt lat="41.05269406841129" lon="8.943372531675578"><ele>41.0</ele><time>2026-05-02T06:57:23Z</time></trkpt><trkpt lat="41.05264061139333" lon="8.94329637991302"><ele>41.0</ele><time>2026-05-02T06:57:24Z</time></trkpt><trkpt lat="41.052570534874185" lon="8.943240729107153"><ele>41.285714285714285</ele><time>2026-05-02T06:57:25Z</time></trkpt><trkpt lat="41.05250210646072" lon="8.943192000543414"><ele>41.57142857142857</ele><time>2026-05-02T06:57:26Z</time></trkpt><trkpt lat="41.052438323630874" lon="8.943139408973929"><ele>41.85714285714286</ele><time>2026-05-02T06:57:27Z</time></trkpt><trkpt lat="41.052376346626644" lon="8.94308485734508"><ele>42.14285714285714</ele><time>2026-05-02T06:57:28Z</time></trkpt><trkpt lat="41.05231473688519" lon="8.943026883395902"><ele>42.42857142857143</ele><time>2026-05-02T06:57:29Z</time></trkpt><trkpt lat="41.052266818446306" lon="8.942963472653139"><ele>42.714285714285715</ele><time>2026-05-02T06:57:30Z</time></trkpt><trkpt lat="41.05222110826183" lon="8.942895086368686"><ele>43.0</ele><time>2026-05-02T06:57:31Z</time></trkpt><trkpt lat="41.05217882001823" lon="8.942829965436248"><ele>43.00000000000001</ele><time>2026-05-02T06:57:32Z</time></trkpt><trkpt lat="41.05215695063113" lon="8.942743112307413"><ele>43.0</ele><time>2026-05-02T06:57:33Z</time></trkpt><trkpt lat="41.05213755018803" lon="8.942653429856342"><ele>43.0</ele><time>2026-05-02T06:57:34Z</time></trkpt><trkpt lat="41.0521166575778" lon="8.94255994634237"><ele>43.0</ele><time>2026-05-02T06:57:35Z</time></trkpt><trkpt lat="41.052110432142705" lon="8.942457910619614"><ele>43.0</ele><time>2026-05-02T06:57:36Z</time></trkpt><trkpt lat="41.05208942863401" lon="8.942357178114312"><ele>43.00000000000001</ele><time>2026-05-02T06:57:37Z</time></trkpt><trkpt lat="41.05206742995062" lon="8.942258863086918"><ele>43.0</ele><time>2026-05-02T06:57:38Z</time></trkpt><trkpt lat="41.05203768946147" lon="8.942162704322408"><ele>42.0</ele><time>2026-05-02T06:57:39Z</time></trkpt><trkpt lat="41.05199958595046" lon="8.942073680389203"><ele>41.0</ele><time>2026-05-02T06:57:40Z</time></trkpt><trkpt lat="41.05195444263912" lon="8.941996097631831"><ele>40.0</ele><time>2026-05-02T06:57:41Z</time></trkpt><trkpt lat="41.05190760676574" lon="8.94193063423503"><ele>39.0</ele><time>2026-05-02T06:57:42Z</time></trkpt><trkpt lat="41.05185611278294" lon="8.941872569056683"><ele>38.0</ele><time>2026-05-02T06:57:43Z</time></trkpt><trkpt lat="41.05176403767162" lon="8.94177414987787"><ele>37.0</ele><time>2026-05-02T06:57:45Z</time></trkpt><trkpt lat="41.05170059726343" lon="8.94173138098906"><ele>36.0</ele><time>2026-05-02T06:57:47Z</time></trkpt><trkpt lat="41.0517039037635" lon="8.941608817079244"><ele>35.0</ele><time>2026-05-02T06:57:51Z</time></trkpt><trkpt lat="41.0517528089452" lon="8.9415320820659"><ele>34.0</ele><time>2026-05-02T06:57:54Z</time></trkpt><trkpt lat="41.05177705159842" lon="8.94145184396691"><ele>33.0</ele><time>2026-05-02T06:57:56Z</time></trkpt><trkpt lat="41.05180125446845" lon="8.94136650242976"><ele>32.0</ele><time>2026-05-02T06:57:59Z</time></trkpt><trkpt lat="41.05184248396854" lon="8.941279521196417"><ele>31.0</ele><time>2026-05-02T06:58:03Z</time></trkpt><trkpt lat="41.051902040865436" lon="8.941204301220592"><ele>31.000000000000004</ele><time>2026-05-02T06:58:06Z</time></trkpt><trkpt lat="41.05194005728509" lon="8.941089157962777"><ele>31.0</ele><time>2026-05-02T06:58:08Z</time></trkpt><trkpt lat="41.05199559741197" lon="8.940947229851915"><ele>31.0</ele><time>2026-05-02T06:58:10Z</time></trkpt><trkpt lat="41.052014637605524" lon="8.940865028911965"><ele>31.0</ele><time>2026-05-02T06:58:11Z</time></trkpt><trkpt lat="41.05201354196085" lon="8.940773966240988"><ele>31.000000000000004</ele><time>2026-05-02T06:58:12Z</time></trkpt><trkpt lat="41.051993184318945" lon="8.940683463920474"><ele>31.0</ele><time>2026-05-02T06:58:13Z</time></trkpt><trkpt lat="41.05195942536796" lon="8.94059456638944"><ele>30.42857142857143</ele><time>2026-05-02T06:58:14Z</time></trkpt><trkpt lat="41.05191977408194" lon="8.94050995772609"><ele>29.85714285714286</ele><time>2026-05-02T06:58:15Z</time></trkpt><trkpt lat="41.05189454831544" lon="8.940417245781727"><ele>29.285714285714285</ele><time>2026-05-02T06:58:16Z</time></trkpt><trkpt lat="41.051858269650864" lon="8.94032951661256"><ele>28.714285714285715</ele><time>2026-05-02T06:58:17Z</time></trkpt><trkpt lat="41.05182177451425" lon="8.940246493541299"><ele>28.142857142857142</ele><time>2026-05-02T06:58:18Z</time></trkpt><trkpt lat="41.05178603835699" lon="8.940167411698035"><ele>27.57142857142857</ele><time>2026-05-02T06:58:19Z</time></trkpt><trkpt lat="41.051752158061056" lon="8.940092436779572"><ele>27.0</ele><time>2026-05-02T06:58:20Z</time></trkpt><trkpt lat="41.05170598154063" lon="8.940031842623773"><ele>26.200000000000003</ele><time>2026-05-02T06:58:21Z</time></trkpt><trkpt lat="41.05164882005042" lon="8.93989180982218"><ele>25.400000000000002</ele><time>2026-05-02T06:58:23Z</time></trkpt><trkpt lat="41.05158771151168" lon="8.939759447552882"><ele>24.6</ele><time>2026-05-02T06:58:25Z</time></trkpt><trkpt lat="41.05152353318007" lon="8.939618643497054"><ele>23.799999999999997</ele><time>2026-05-02T06:58:27Z</time></trkpt><trkpt lat="41.051492487626774" lon="8.939541705887345"><ele>23.0</ele><time>2026-05-02T06:58:28Z</time></trkpt><trkpt lat="41.051462218710405" lon="8.939459148168869"><ele>23.799999999999997</ele><time>2026-05-02T06:58:29Z</time></trkpt><trkpt lat="41.051433599598255" lon="8.939369581663772"><ele>24.6</ele><time>2026-05-02T06:58:30Z</time></trkpt><trkpt lat="41.05140978040532" lon="8.939274656840396"><ele>25.400000000000002</ele><time>2026-05-02T06:58:31Z</time></trkpt><trkpt lat="41.05137688404302" lon="8.939135191585208"><ele>26.200000000000003</ele><time>2026-05-02T06:58:33Z</time></trkpt><trkpt lat="41.05135238553918" lon="8.93900287949796"><ele>27.0</ele><time>2026-05-02T06:58:35Z</time></trkpt><trkpt lat="41.051338885502204" lon="8.938865536575136"><ele>27.0</ele><time>2026-05-02T06:58:37Z</time></trkpt><trkpt lat="41.05131504125773" lon="8.938748660812072"><ele>27.0</ele><time>2026-05-02T06:58:39Z</time></trkpt><trkpt lat="41.05129249636039" lon="8.938660663103557"><ele>27.0</ele><time>2026-05-02T06:58:41Z</time></trkpt><trkpt lat="41.051224142686195" lon="8.938586086925765"><ele>27.0</ele><time>2026-05-02T06:58:44Z</time></trkpt><trkpt lat="41.05113492131363" lon="8.938594307495697"><ele>27.0</ele><time>2026-05-02T06:58:48Z</time></trkpt><trkpt lat="41.05110367000653" lon="8.938496667573983"><ele>27.0</ele><time>2026-05-02T06:58:52Z</time></trkpt><trkpt lat="41.0511370382083" lon="8.93842306312786"><ele>22.6</ele><time>2026-05-02T06:58:56Z</time></trkpt><trkpt lat="41.050917511292525" lon="8.938316287982568"><ele>18.200000000000003</ele><time>2026-05-02T07:00:00Z</time></trkpt><trkpt lat="41.05085731462365" lon="8.938350302584993"><ele>13.8</ele><time>2026-05-02T07:00:02Z</time></trkpt><trkpt lat="41.05092197631288" lon="8.93833171573031"><ele>9.4</ele><time>2026-05-02T07:00:10Z</time></trkpt><trkpt lat="41.05098733072873" lon="8.93832614340362"><ele>5.0</ele><time>2026-05-02T07:00:12Z</time></trkpt><trkpt lat="41.051072267763864" lon="8.938331435816544"><ele>5.0</ele><time>2026-05-02T07:00:14Z</time></trkpt><trkpt lat="41.05116084179142" lon="8.938338230218314"><ele>5.0</ele><time>2026-05-02T07:00:17Z</time></trkpt><trkpt lat="41.05123680782927" lon="8.938344130440015"><ele>5.0</ele><time>2026-05-02T07:00:20Z</time></trkpt><trkpt lat="41.0513267497754" lon="8.938917914544144"><ele>9.4</ele><time>2026-05-02T07:00:40Z</time></trkpt><trkpt lat="41.051337917756975" lon="8.939017175395346"><ele>13.8</ele><time>2026-05-02T07:00:41Z</time></trkpt><trkpt lat="41.0513457963927" lon="8.939116051234357"><ele>18.200000000000003</ele><time>2026-05-02T07:00:42Z</time></trkpt><trkpt lat="41.05139925768868" lon="8.939259078560996"><ele>22.6</ele><time>2026-05-02T07:00:44Z</time></trkpt><trkpt lat="41.05144398940635" lon="8.939407284189137"><ele>27.0</ele><time>2026-05-02T07:00:46Z</time></trkpt><trkpt lat="41.0514896807139" lon="8.939564257087063"><ele>27.0</ele><time>2026-05-02T07:00:48Z</time></trkpt><trkpt lat="41.051517948347076" lon="8.939639285371232"><ele>27.000000000000004</ele><time>2026-05-02T07:00:49Z</time></trkpt><trkpt lat="41.051583662363754" lon="8.939779753986212"><ele>27.000000000000004</ele><time>2026-05-02T07:00:51Z</time></trkpt><trkpt lat="41.051639289967085" lon="8.939895735358862"><ele>27.0</ele><time>2026-05-02T07:00:53Z</time></trkpt><trkpt lat="41.05168606700052" lon="8.940002778276101"><ele>27.0</ele><time>2026-05-02T07:00:55Z</time></trkpt><trkpt lat="41.05173903507853" lon="8.940120509182995"><ele>27.0</ele><time>2026-05-02T07:00:57Z</time></trkpt><trkpt lat="41.05180157232543" lon="8.940255885278022"><ele>27.0</ele><time>2026-05-02T07:00:59Z</time></trkpt><trkpt lat="41.051833141805574" lon="8.940335143208907"><ele>27.0</ele><time>2026-05-02T07:01:00Z</time></trkpt><trkpt lat="41.051867455051486" lon="8.940419713922346"><ele>27.0</ele><time>2026-05-02T07:01:01Z</time></trkpt><trkpt lat="41.051903990851535" lon="8.940503752537177"><ele>27.0</ele><time>2026-05-02T07:01:02Z</time></trkpt><trkpt lat="41.05194234826557" lon="8.940588246936175"><ele>27.0</ele><time>2026-05-02T07:01:03Z</time></trkpt><trkpt lat="41.051975773962255" lon="8.940677446238675"><ele>27.0</ele><time>2026-05-02T07:01:04Z</time></trkpt><trkpt lat="41.051994096033916" lon="8.940766066468253"><ele>27.000000000000004</ele><time>2026-05-02T07:01:05Z</time></trkpt><trkpt lat="41.051991584986226" lon="8.940905409754247"><ele>27.000000000000004</ele><time>2026-05-02T07:01:06Z</time></trkpt><trkpt lat="41.05195019103972" lon="8.941045702525331"><ele>27.0</ele><time>2026-05-02T07:01:08Z</time></trkpt><trkpt lat="41.05186732577084" lon="8.941159391441017"><ele>27.0</ele><time>2026-05-02T07:01:10Z</time></trkpt><trkpt lat="41.051798255617626" lon="8.941303741760052"><ele>27.57142857142857</ele><time>2026-05-02T07:01:12Z</time></trkpt><trkpt lat="41.05177776652406" lon="8.941393178106292"><ele>28.142857142857142</ele><time>2026-05-02T07:01:13Z</time></trkpt><trkpt lat="41.051743315121065" lon="8.94146792765344"><ele>28.714285714285715</ele><time>2026-05-02T07:01:14Z</time></trkpt><trkpt lat="41.05169694150807" lon="8.941536790633625"><ele>29.285714285714285</ele><time>2026-05-02T07:01:15Z</time></trkpt><trkpt lat="41.05166174234961" lon="8.941616373831778"><ele>29.85714285714286</ele><time>2026-05-02T07:01:16Z</time></trkpt><trkpt lat="41.051626388790794" lon="8.941696305912256"><ele>30.42857142857143</ele><time>2026-05-02T07:01:17Z</time></trkpt><trkpt lat="41.051589075857756" lon="8.941777898192951"><ele>31.0</ele><time>2026-05-02T07:01:18Z</time></trkpt><trkpt lat="41.05155178842075" lon="8.941860063664373"><ele>34.66666666666667</ele><time>2026-05-02T07:01:19Z</time></trkpt><trkpt lat="41.051511063807126" lon="8.941942049530542"><ele>38.333333333333336</ele><time>2026-05-02T07:01:20Z</time></trkpt><trkpt lat="41.05146924728836" lon="8.942026568792846"><ele>42.0</ele><time>2026-05-02T07:01:21Z</time></trkpt><trkpt lat="41.051426861008785" lon="8.942112239655398"><ele>45.66666666666667</ele><time>2026-05-02T07:01:22Z</time></trkpt><trkpt lat="41.05138802736508" lon="8.942200865653856"><ele>49.333333333333336</ele><time>2026-05-02T07:01:23Z</time></trkpt><trkpt lat="41.0513543013101" lon="8.942295061211631"><ele>53.0</ele><time>2026-05-02T07:01:24Z</time></trkpt><trkpt lat="41.05132298105689" lon="8.942404622461895"><ele>53.00000000000001</ele><time>2026-05-02T07:01:25Z</time></trkpt><trkpt lat="41.05130014507946" lon="8.94251259250008"><ele>53.0</ele><time>2026-05-02T07:01:26Z</time></trkpt><trkpt lat="41.05128626683491" lon="8.942625534089677"><ele>53.0</ele><time>2026-05-02T07:01:27Z</time></trkpt><trkpt lat="41.05128775855133" lon="8.94273927882799"><ele>53.0</ele><time>2026-05-02T07:01:28Z</time></trkpt><trkpt lat="41.05130657861277" lon="8.9428515150202"><ele>53.00000000000001</ele><time>2026-05-02T07:01:29Z</time></trkpt><trkpt lat="41.051347826311044" lon="8.942942789082121"><ele>53.0</ele><time>2026-05-02T07:01:30Z</time></trkpt><trkpt lat="41.05137800131527" lon="8.943039243389244"><ele>53.833333333333336</ele><time>2026-05-02T07:01:31Z</time></trkpt><trkpt lat="41.05141115912954" lon="8.943137766061765"><ele>54.66666666666667</ele><time>2026-05-02T07:01:32Z</time></trkpt><trkpt lat="41.051442463915734" lon="8.943230357300672"><ele>55.5</ele><time>2026-05-02T07:01:33Z</time></trkpt><trkpt lat="41.05147583330886" lon="8.943323214666492"><ele>56.33333333333333</ele><time>2026-05-02T07:01:34Z</time></trkpt><trkpt lat="41.05150793808841" lon="8.94341963431581"><ele>57.166666666666664</ele><time>2026-05-02T07:01:35Z</time></trkpt><trkpt lat="41.05154267127695" lon="8.943513565674614"><ele>58.0</ele><time>2026-05-02T07:01:36Z</time></trkpt><trkpt lat="41.051578761352395" lon="8.943606895179876"><ele>59.166666666666664</ele><time>2026-05-02T07:01:37Z</time></trkpt><trkpt lat="41.051613810164845" lon="8.943696829075003"><ele>60.33333333333333</ele><time>2026-05-02T07:01:38Z</time></trkpt><trkpt lat="41.05164768314812" lon="8.943786878246533"><ele>61.5</ele><time>2026-05-02T07:01:39Z</time></trkpt><trkpt lat="41.05168420291849" lon="8.943878514422684"><ele>62.66666666666667</ele><time>2026-05-02T07:01:40Z</time></trkpt><trkpt lat="41.05170663399529" lon="8.943981257390996"><ele>63.833333333333336</ele><time>2026-05-02T07:01:41Z</time></trkpt><trkpt lat="41.05174144153804" lon="8.944076916042876"><ele>65.0</ele><time>2026-05-02T07:01:42Z</time></trkpt><trkpt lat="41.05177559911598" lon="8.944170788428831"><ele>65.33333333333334</ele><time>2026-05-02T07:01:43Z</time></trkpt><trkpt lat="41.05180751093315" lon="8.944258488526426"><ele>65.66666666666667</ele><time>2026-05-02T07:01:44Z</time></trkpt><trkpt lat="41.051840698861305" lon="8.944350296422511"><ele>66.0</ele><time>2026-05-02T07:01:45Z</time></trkpt><trkpt lat="41.051888087543176" lon="8.944435295050814"><ele>66.33333333333333</ele><time>2026-05-02T07:01:46Z</time></trkpt><trkpt lat="41.051918389640214" lon="8.944525999820565"><ele>66.66666666666666</ele><time>2026-05-02T07:01:47Z</time></trkpt><trkpt lat="41.051950231052025" lon="8.94461576848605"><ele>67.0</ele><time>2026-05-02T07:01:48Z</time></trkpt><trkpt lat="41.05197969331235" lon="8.944704625586224"><ele>67.0</ele><time>2026-05-02T07:01:49Z</time></trkpt><trkpt lat="41.05200805142982" lon="8.944783593112682"><ele>67.0</ele><time>2026-05-02T07:01:50Z</time></trkpt><trkpt lat="41.05203656514944" lon="8.944862730919155"><ele>67.0</ele><time>2026-05-02T07:01:51Z</time></trkpt><trkpt lat="41.05208651641921" lon="8.945014803266629"><ele>67.0</ele><time>2026-05-02T07:01:53Z</time></trkpt><trkpt lat="41.052113478209506" lon="8.94509597387927"><ele>67.0</ele><time>2026-05-02T07:01:54Z</time></trkpt><trkpt lat="41.05214613306053" lon="8.945182495450204"><ele>67.0</ele><time>2026-05-02T07:01:55Z</time></trkpt><trkpt lat="41.05216893001339" lon="8.94529457285857"><ele>70.6</ele><time>2026-05-02T07:01:56Z</time></trkpt><trkpt lat="41.05220244628913" lon="8.94541081137936"><ele>74.2</ele><time>2026-05-02T07:01:57Z</time></trkpt><trkpt lat="41.052235437053646" lon="8.945535511702172"><ele>77.8</ele><time>2026-05-02T07:01:58Z</time></trkpt><trkpt lat="41.05225783787309" lon="8.945654982727767"><ele>81.4</ele><time>2026-05-02T07:01:59Z</time></trkpt><trkpt lat="41.05227800658184" lon="8.945768559844248"><ele>85.0</ele><time>2026-05-02T07:02:00Z</time></trkpt><trkpt lat="41.0522534213617" lon="8.945880172758244"><ele>86.0</ele><time>2026-05-02T07:02:01Z</time></trkpt><trkpt lat="41.05224177854101" lon="8.945988214734674"><ele>87.0</ele><time>2026-05-02T07:02:02Z</time></trkpt><trkpt lat="41.05222510769904" lon="8.946090788093505"><ele>88.0</ele><time>2026-05-02T07:02:03Z</time></trkpt><trkpt lat="41.05220866282846" lon="8.946187960528242"><ele>89.0</ele><time>2026-05-02T07:02:04Z</time></trkpt><trkpt lat="41.052194700727064" lon="8.946284102634648"><ele>90.0</ele><time>2026-05-02T07:02:05Z</time></trkpt><trkpt lat="41.05218010763801" lon="8.9463795540935"><ele>91.0</ele><time>2026-05-02T07:02:06Z</time></trkpt><trkpt lat="41.05216072925369" lon="8.946470287073984"><ele>91.0</ele><time>2026-05-02T07:02:07Z</time></trkpt><trkpt lat="41.0521294116415" lon="8.946556362044753"><ele>91.0</ele><time>2026-05-02T07:02:08Z</time></trkpt><trkpt lat="41.052080415959885" lon="8.94662614077706"><ele>91.0</ele><time>2026-05-02T07:02:09Z</time></trkpt><trkpt lat="41.0520288467399" lon="8.946703963437505"><ele>91.0</ele><time>2026-05-02T07:02:10Z</time></trkpt><trkpt lat="41.05197572063921" lon="8.946780470016638"><ele>91.0</ele><time>2026-05-02T07:02:11Z</time></trkpt><trkpt lat="41.05192099647563" lon="8.946856850491878"><ele>91.0</ele><time>2026-05-02T07:02:12Z</time></trkpt><trkpt lat="41.051865010164775" lon="8.946931524980693"><ele>91.5</ele><time>2026-05-02T07:02:13Z</time></trkpt><trkpt lat="41.05180793510531" lon="8.947002090938227"><ele>92.0</ele><time>2026-05-02T07:02:14Z</time></trkpt><trkpt lat="41.051747211687776" lon="8.947068586044631"><ele>92.5</ele><time>2026-05-02T07:02:15Z</time></trkpt><trkpt lat="41.051683708596514" lon="8.947131018586298"><ele>93.0</ele><time>2026-05-02T07:02:16Z</time></trkpt><trkpt lat="41.05161566480023" lon="8.947193446848326"><ele>93.5</ele><time>2026-05-02T07:02:17Z</time></trkpt><trkpt lat="41.05154749512484" lon="8.94725346281253"><ele>94.0</ele><time>2026-05-02T07:02:18Z</time></trkpt><trkpt lat="41.05147791753319" lon="8.947310520455758"><ele>97.5</ele><time>2026-05-02T07:02:19Z</time></trkpt><trkpt lat="41.051412122631845" lon="8.947365699411154"><ele>101.0</ele><time>2026-05-02T07:02:20Z</time></trkpt><trkpt lat="41.05133189033389" lon="8.947474072417593"><ele>104.5</ele><time>2026-05-02T07:02:22Z</time></trkpt><trkpt lat="41.05133658945358" lon="8.947581369696472"><ele>108.0</ele><time>2026-05-02T07:02:23Z</time></trkpt><trkpt lat="41.05141720612139" lon="8.94763967371284"><ele>111.50000000000001</ele><time>2026-05-02T07:02:24Z</time></trkpt><trkpt lat="41.05148728594544" lon="8.94765144139256"><ele>115.0</ele><time>2026-05-02T07:02:25Z</time></trkpt><trkpt lat="41.05155272908839" lon="8.94762477642668"><ele>115.0</ele><time>2026-05-02T07:02:26Z</time></trkpt><trkpt lat="41.051640582712835" lon="8.947526094168298"><ele>115.0</ele><time>2026-05-02T07:02:28Z</time></trkpt><trkpt lat="41.051742018443335" lon="8.94751591003652"><ele>115.0</ele><time>2026-05-02T07:02:30Z</time></trkpt><trkpt lat="41.05176297279732" lon="8.947621703018836"><ele>115.0</ele><time>2026-05-02T07:02:32Z</time></trkpt><trkpt lat="41.05167092919825" lon="8.947658630584108"><ele>115.0</ele><time>2026-05-02T07:02:34Z</time></trkpt><trkpt lat="41.05156995092038" lon="8.947713950278699"><ele>115.00000000000001</ele><time>2026-05-02T07:02:36Z</time></trkpt><trkpt lat="41.05145042978335" lon="8.94781061863254"><ele>115.0</ele><time>2026-05-02T07:02:38Z</time></trkpt><trkpt lat="41.05139433334302" lon="8.947872037253658"><ele>115.0</ele><time>2026-05-02T07:02:39Z</time></trkpt><trkpt lat="41.05133923806521" lon="8.947935232099262"><ele>115.0</ele><time>2026-05-02T07:02:40Z</time></trkpt><trkpt lat="41.05128532690908" lon="8.947995938564915"><ele>115.00000000000001</ele><time>2026-05-02T07:02:41Z</time></trkpt><trkpt lat="41.051223971610355" lon="8.948062171368274"><ele>115.0</ele><time>2026-05-02T07:02:42Z</time></trkpt><trkpt lat="41.05115744608083" lon="8.948133985430713"><ele>115.00000000000001</ele><time>2026-05-02T07:02:43Z</time></trkpt><trkpt lat="41.05109385303797" lon="8.948202707118325"><ele>115.0</ele><time>2026-05-02T07:02:44Z</time></trkpt><trkpt lat="41.05103171911281" lon="8.94827205582988"><ele>115.0</ele><time>2026-05-02T07:02:45Z</time></trkpt><trkpt lat="41.05097307418341" lon="8.948344182630239"><ele>115.0</ele><time>2026-05-02T07:02:46Z</time></trkpt><trkpt lat="41.05091606361814" lon="8.94842491642623"><ele>115.00000000000001</ele><time>2026-05-02T07:02:47Z</time></trkpt><trkpt lat="41.05086051391116" lon="8.948507191005728"><ele>115.0</ele><time>2026-05-02T07:02:48Z</time></trkpt><trkpt lat="41.05081500006391" lon="8.94861049086715"><ele>118.2</ele><time>2026-05-02T07:02:49Z</time></trkpt><trkpt lat="41.05074657972357" lon="8.9487163748016"><ele>121.4</ele><time>2026-05-02T07:02:50Z</time></trkpt><trkpt lat="41.05069538654539" lon="8.94883529717881"><ele>124.6</ele><time>2026-05-02T07:02:51Z</time></trkpt><trkpt lat="41.050665038033664" lon="8.948945435566857"><ele>127.8</ele><time>2026-05-02T07:02:52Z</time></trkpt><trkpt lat="41.050660363597" lon="8.949039824651567"><ele>131.0</ele><time>2026-05-02T07:02:53Z</time></trkpt><trkpt lat="41.050668306149944" lon="8.949153099552014"><ele>131.2</ele><time>2026-05-02T07:02:54Z</time></trkpt><trkpt lat="41.05068915323869" lon="8.949265913287173"><ele>131.39999999999998</ele><time>2026-05-02T07:02:55Z</time></trkpt><trkpt lat="41.05071532260557" lon="8.949364547471589"><ele>131.6</ele><time>2026-05-02T07:02:56Z</time></trkpt><trkpt lat="41.05076241676921" lon="8.949502319245372"><ele>131.79999999999998</ele><time>2026-05-02T07:02:58Z</time></trkpt><trkpt lat="41.05080642883619" lon="8.949668532146767"><ele>132.0</ele><time>2026-05-02T07:03:00Z</time></trkpt><trkpt lat="41.050824950996805" lon="8.949755025396572"><ele>130.4</ele><time>2026-05-02T07:03:01Z</time></trkpt><trkpt lat="41.05085433265142" lon="8.949846880342736"><ele>128.79999999999998</ele><time>2026-05-02T07:03:02Z</time></trkpt><trkpt lat="41.050887659366914" lon="8.949965788886201"><ele>127.2</ele><time>2026-05-02T07:03:03Z</time></trkpt><trkpt lat="41.050916064226726" lon="8.95009281157172"><ele>125.6</ele><time>2026-05-02T07:03:04Z</time></trkpt><trkpt lat="41.05093887831735" lon="8.950214776103156"><ele>124.0</ele><time>2026-05-02T07:03:05Z</time></trkpt><trkpt lat="41.050956814112865" lon="8.950337909180254"><ele>124.0</ele><time>2026-05-02T07:03:06Z</time></trkpt><trkpt lat="41.0509756005742" lon="8.950448528872215"><ele>124.0</ele><time>2026-05-02T07:03:07Z</time></trkpt><trkpt lat="41.05099220668722" lon="8.950561730181018"><ele>124.0</ele><time>2026-05-02T07:03:08Z</time></trkpt><trkpt lat="41.051005112577705" lon="8.950663858691037"><ele>124.0</ele><time>2026-05-02T07:03:09Z</time></trkpt><trkpt lat="41.051019354178976" lon="8.950798560901527"><ele>124.0</ele><time>2026-05-02T07:03:11Z</time></trkpt><trkpt lat="41.05102044717392" lon="8.95096521215596"><ele>125.0</ele><time>2026-05-02T07:03:13Z</time></trkpt><trkpt lat="41.05099126919246" lon="8.951051851781862"><ele>126.00000000000001</ele><time>2026-05-02T07:03:14Z</time></trkpt><trkpt lat="41.05096986452237" lon="8.951140508755676"><ele>127.0</ele><time>2026-05-02T07:03:15Z</time></trkpt><trkpt lat="41.05094694299671" lon="8.951234281123822"><ele>128.0</ele><time>2026-05-02T07:03:16Z</time></trkpt><trkpt lat="41.050919904305886" lon="8.951321604272902"><ele>129.0</ele><time>2026-05-02T07:03:17Z</time></trkpt><trkpt lat="41.05091565559397" lon="8.95142170504736"><ele>130.0</ele><time>2026-05-02T07:03:18Z</time></trkpt><trkpt lat="41.05090054496759" lon="8.951524071307535"><ele>131.0</ele><time>2026-05-02T07:03:19Z</time></trkpt><trkpt lat="41.05089850999289" lon="8.951624542632473"><ele>131.57142857142858</ele><time>2026-05-02T07:03:20Z</time></trkpt><trkpt lat="41.050908920379314" lon="8.95172634896133"><ele>132.14285714285717</ele><time>2026-05-02T07:03:21Z</time></trkpt><trkpt lat="41.05093095919205" lon="8.951825444646476"><ele>132.71428571428572</ele><time>2026-05-02T07:03:22Z</time></trkpt><trkpt lat="41.05094316623185" lon="8.9519192625232"><ele>133.28571428571428</ele><time>2026-05-02T07:03:23Z</time></trkpt><trkpt lat="41.050968914220924" lon="8.95200086486514"><ele>133.85714285714283</ele><time>2026-05-02T07:03:24Z</time></trkpt><trkpt lat="41.05100935081492" lon="8.952071673246188"><ele>134.42857142857142</ele><time>2026-05-02T07:03:25Z</time></trkpt><trkpt lat="41.05103425544968" lon="8.952157656958091"><ele>135.0</ele><time>2026-05-02T07:03:26Z</time></trkpt><trkpt lat="41.05105926997126" lon="8.95224821696504"><ele>135.0</ele><time>2026-05-02T07:03:27Z</time></trkpt><trkpt lat="41.05109773849309" lon="8.952324480001945"><ele>135.0</ele><time>2026-05-02T07:03:28Z</time></trkpt><trkpt lat="41.05113175698631" lon="8.9524226125033"><ele>135.0</ele><time>2026-05-02T07:03:29Z</time></trkpt><trkpt lat="41.051174701508394" lon="8.952516940046353"><ele>135.0</ele><time>2026-05-02T07:03:30Z</time></trkpt><trkpt lat="41.05121327974516" lon="8.952621781437411"><ele>135.0</ele><time>2026-05-02T07:03:31Z</time></trkpt><trkpt lat="41.05125002448858" lon="8.952728109734"><ele>135.0</ele><time>2026-05-02T07:03:32Z</time></trkpt><trkpt lat="41.05128344438184" lon="8.952837278551243"><ele>135.33333333333334</ele><time>2026-05-02T07:03:33Z</time></trkpt><trkpt lat="41.051325277139256" lon="8.95296081629795"><ele>135.66666666666666</ele><time>2026-05-02T07:03:34Z</time></trkpt><trkpt lat="41.05136818185343" lon="8.95306538677236"><ele>136.0</ele><time>2026-05-02T07:03:35Z</time></trkpt><trkpt lat="41.051408481273924" lon="8.953166234676722"><ele>136.33333333333331</ele><time>2026-05-02T07:03:36Z</time></trkpt><trkpt lat="41.05144475658054" lon="8.953268279752685"><ele>136.66666666666666</ele><time>2026-05-02T07:03:37Z</time></trkpt><trkpt lat="41.051480001067446" lon="8.953370396168744"><ele>137.0</ele><time>2026-05-02T07:03:38Z</time></trkpt><trkpt lat="41.05152044464529" lon="8.953469489307107"><ele>137.0</ele><time>2026-05-02T07:03:39Z</time></trkpt><trkpt lat="41.05155996949401" lon="8.953573565396571"><ele>137.0</ele><time>2026-05-02T07:03:40Z</time></trkpt><trkpt lat="41.05159936633551" lon="8.953682510348147"><ele>137.0</ele><time>2026-05-02T07:03:41Z</time></trkpt><trkpt lat="41.05164389774131" lon="8.953794038629148"><ele>137.0</ele><time>2026-05-02T07:03:42Z</time></trkpt><trkpt lat="41.05169068052971" lon="8.953914128376244"><ele>137.0</ele><time>2026-05-02T07:03:43Z</time></trkpt><trkpt lat="41.05173935093238" lon="8.95403068946197"><ele>137.2</ele><time>2026-05-02T07:03:44Z</time></trkpt><trkpt lat="41.05179051138071" lon="8.954146413814511"><ele>137.39999999999998</ele><time>2026-05-02T07:03:45Z</time></trkpt><trkpt lat="41.05184962338381" lon="8.954262493160455"><ele>137.60000000000002</ele><time>2026-05-02T07:03:46Z</time></trkpt><trkpt lat="41.05191216783863" lon="8.954373454099477"><ele>137.8</ele><time>2026-05-02T07:03:47Z</time></trkpt><trkpt lat="41.05197655988818" lon="8.954487385953685"><ele>138.0</ele><time>2026-05-02T07:03:48Z</time></trkpt><trkpt lat="41.05204726150248" lon="8.954601089409167"><ele>138.0</ele><time>2026-05-02T07:03:49Z</time></trkpt><trkpt lat="41.052122282967964" lon="8.954717639413794"><ele>138.0</ele><time>2026-05-02T07:03:50Z</time></trkpt><trkpt lat="41.05219282468482" lon="8.954846209189853"><ele>138.0</ele><time>2026-05-02T07:03:51Z</time></trkpt><trkpt lat="41.052271218828416" lon="8.954966468808832"><ele>138.0</ele><time>2026-05-02T07:03:52Z</time></trkpt><trkpt lat="41.05233484720806" lon="8.95509467463798"><ele>141.0</ele><time>2026-05-02T07:03:53Z</time></trkpt><trkpt lat="41.052414383632964" lon="8.95522214064536"><ele>144.0</ele><time>2026-05-02T07:03:54Z</time></trkpt><trkpt lat="41.052487595152236" lon="8.95535519808897"><ele>147.0</ele><time>2026-05-02T07:03:55Z</time></trkpt><trkpt lat="41.05256929795582" lon="8.955484196584786"><ele>150.0</ele><time>2026-05-02T07:03:56Z</time></trkpt><trkpt lat="41.052646753291235" lon="8.955615678919784"><ele>150.0</ele><time>2026-05-02T07:03:57Z</time></trkpt><trkpt lat="41.052723114539155" lon="8.955749295462702"><ele>150.0</ele><time>2026-05-02T07:03:58Z</time></trkpt><trkpt lat="41.05280065792086" lon="8.955883527832196"><ele>150.0</ele><time>2026-05-02T07:03:59Z</time></trkpt><trkpt lat="41.05287884624604" lon="8.956014881149384"><ele>150.0</ele><time>2026-05-02T07:04:00Z</time></trkpt><trkpt lat="41.05295922419178" lon="8.956144915905607"><ele>152.5</ele><time>2026-05-02T07:04:01Z</time></trkpt><trkpt lat="41.05304415970669" lon="8.956271845155769"><ele>155.0</ele><time>2026-05-02T07:04:02Z</time></trkpt><trkpt lat="41.053138016398634" lon="8.956380323079218"><ele>157.5</ele><time>2026-05-02T07:04:03Z</time></trkpt><trkpt lat="41.05323388926449" lon="8.956478451974231"><ele>160.0</ele><time>2026-05-02T07:04:04Z</time></trkpt><trkpt lat="41.053331146262195" lon="8.956568353892049"><ele>160.0</ele><time>2026-05-02T07:04:05Z</time></trkpt><trkpt lat="41.053424224359" lon="8.956668859244814"><ele>160.0</ele><time>2026-05-02T07:04:06Z</time></trkpt><trkpt lat="41.053505123146365" lon="8.956787334162875"><ele>160.0</ele><time>2026-05-02T07:04:07Z</time></trkpt><trkpt lat="41.05353152787982" lon="8.956945602435209"><ele>160.0</ele><time>2026-05-02T07:04:08Z</time></trkpt><trkpt lat="41.053566346601826" lon="8.957112349965016"><ele>156.5</ele><time>2026-05-02T07:04:09Z</time></trkpt><trkpt lat="41.05360985060674" lon="8.957279751219573"><ele>153.0</ele><time>2026-05-02T07:04:10Z</time></trkpt><trkpt lat="41.05364167120266" lon="8.957444796964248"><ele>149.5</ele><time>2026-05-02T07:04:11Z</time></trkpt><trkpt lat="41.05367023290039" lon="8.957590841335849"><ele>146.0</ele><time>2026-05-02T07:04:12Z</time></trkpt><trkpt lat="41.05368678951902" lon="8.957732125216404"><ele>145.8</ele><time>2026-05-02T07:04:13Z</time></trkpt><trkpt lat="41.05367860440734" lon="8.957852855995604"><ele>145.6</ele><time>2026-05-02T07:04:14Z</time></trkpt><trkpt lat="41.053651571238234" lon="8.957985787349362"><ele>145.4</ele><time>2026-05-02T07:04:15Z</time></trkpt><trkpt lat="41.05357679181492" lon="8.958115457380622"><ele>145.2</ele><time>2026-05-02T07:04:16Z</time></trkpt><trkpt lat="41.05352464642399" lon="8.95827008075468"><ele>145.0</ele><time>2026-05-02T07:04:17Z</time></trkpt><trkpt lat="41.05346712300899" lon="8.95843382180669"><ele>147.0</ele><time>2026-05-02T07:04:18Z</time></trkpt><trkpt lat="41.05340701806107" lon="8.958604911244779"><ele>149.0</ele><time>2026-05-02T07:04:19Z</time></trkpt><trkpt lat="41.05334576851364" lon="8.958780433903017"><ele>151.0</ele><time>2026-05-02T07:04:20Z</time></trkpt><trkpt lat="41.05328425211278" lon="8.958957237715921"><ele>153.0</ele><time>2026-05-02T07:04:21Z</time></trkpt><trkpt lat="41.053221981324256" lon="8.959136209713476"><ele>150.5</ele><time>2026-05-02T07:04:22Z</time></trkpt><trkpt lat="41.053159986380074" lon="8.959314388887856"><ele>148.0</ele><time>2026-05-02T07:04:23Z</time></trkpt><trkpt lat="41.05309902094994" lon="8.959489801876046"><ele>145.5</ele><time>2026-05-02T07:04:24Z</time></trkpt><trkpt lat="41.053040232507435" lon="8.959663233880676"><ele>143.0</ele><time>2026-05-02T07:04:25Z</time></trkpt><trkpt lat="41.05298456443438" lon="8.959835088384592"><ele>143.0</ele><time>2026-05-02T07:04:26Z</time></trkpt><trkpt lat="41.05293040055601" lon="8.960005150492918"><ele>143.0</ele><time>2026-05-02T07:04:27Z</time></trkpt><trkpt lat="41.05287643830227" lon="8.960176755975743"><ele>143.0</ele><time>2026-05-02T07:04:28Z</time></trkpt><trkpt lat="41.0528369038773" lon="8.960359765340586"><ele>143.0</ele><time>2026-05-02T07:04:29Z</time></trkpt><trkpt lat="41.052779630138836" lon="8.9605371552249"><ele>145.25</ele><time>2026-05-02T07:04:30Z</time></trkpt><trkpt lat="41.052721132575385" lon="8.960715838855894"><ele>147.5</ele><time>2026-05-02T07:04:31Z</time></trkpt><trkpt lat="41.052670134759545" lon="8.960898481010323"><ele>149.75</ele><time>2026-05-02T07:04:32Z</time></trkpt><trkpt lat="41.05263369137599" lon="8.96108282702553"><ele>152.0</ele><time>2026-05-02T07:04:33Z</time></trkpt><trkpt lat="41.052619166630116" lon="8.961271717385532"><ele>154.25</ele><time>2026-05-02T07:04:34Z</time></trkpt><trkpt lat="41.05261785474869" lon="8.961466830551181"><ele>156.5</ele><time>2026-05-02T07:04:35Z</time></trkpt><trkpt lat="41.05262909734265" lon="8.961661506631247"><ele>158.75</ele><time>2026-05-02T07:04:36Z</time></trkpt><trkpt lat="41.05265879416061" lon="8.961856125335261"><ele>161.0</ele><time>2026-05-02T07:04:37Z</time></trkpt><trkpt lat="41.052692514719574" lon="8.9620570667591"><ele>162.66666666666666</ele><time>2026-05-02T07:04:38Z</time></trkpt><trkpt lat="41.05270592680503" lon="8.962265984732486"><ele>164.33333333333334</ele><time>2026-05-02T07:04:39Z</time></trkpt><trkpt lat="41.0526453271318" lon="8.962461274456155"><ele>166.0</ele><time>2026-05-02T07:04:40Z</time></trkpt><trkpt lat="41.052574139627396" lon="8.962647822377194"><ele>166.25</ele><time>2026-05-02T07:04:41Z</time></trkpt><trkpt lat="41.05249939450281" lon="8.962830857550914"><ele>166.5</ele><time>2026-05-02T07:04:42Z</time></trkpt><trkpt lat="41.05243126007671" lon="8.962999280992063"><ele>166.75</ele><time>2026-05-02T07:04:43Z</time></trkpt><trkpt lat="41.05236683677886" lon="8.96315853077562"><ele>167.0</ele><time>2026-05-02T07:04:44Z</time></trkpt><trkpt lat="41.05230436374389" lon="8.963312959682941"><ele>168.25</ele><time>2026-05-02T07:04:45Z</time></trkpt><trkpt lat="41.05224265788069" lon="8.963465574190671"><ele>169.5</ele><time>2026-05-02T07:04:46Z</time></trkpt><trkpt lat="41.05218427359949" lon="8.963609998510211"><ele>170.75</ele><time>2026-05-02T07:04:47Z</time></trkpt><trkpt lat="41.05212766828168" lon="8.963750022189258"><ele>172.0</ele><time>2026-05-02T07:04:48Z</time></trkpt><trkpt lat="41.05208443371613" lon="8.963895301163694"><ele>172.0</ele><time>2026-05-02T07:04:49Z</time></trkpt><trkpt lat="41.05201498711896" lon="8.96401929022071"><ele>172.0</ele><time>2026-05-02T07:04:50Z</time></trkpt><trkpt lat="41.05196901519196" lon="8.964154715749105"><ele>172.0</ele><time>2026-05-02T07:04:51Z</time></trkpt><trkpt lat="41.05190641504541" lon="8.964294405246093"><ele>172.0</ele><time>2026-05-02T07:04:52Z</time></trkpt><trkpt lat="41.05182744442269" lon="8.96439855252925"><ele>172.75</ele><time>2026-05-02T07:04:53Z</time></trkpt><trkpt lat="41.05173854193102" lon="8.964521295617654"><ele>173.5</ele><time>2026-05-02T07:04:54Z</time></trkpt><trkpt lat="41.0516476532946" lon="8.964622051650917"><ele>174.25</ele><time>2026-05-02T07:04:55Z</time></trkpt><trkpt lat="41.05155493357584" lon="8.96470034532242"><ele>175.0</ele><time>2026-05-02T07:04:56Z</time></trkpt><trkpt lat="41.05145749141347" lon="8.964757293080687"><ele>175.0</ele><time>2026-05-02T07:04:57Z</time></trkpt><trkpt lat="41.05138213626258" lon="8.964798451335787"><ele>175.0</ele><time>2026-05-02T07:04:58Z</time></trkpt><trkpt lat="41.05131102969607" lon="8.964839522037442"><ele>175.0</ele><time>2026-05-02T07:04:59Z</time></trkpt><trkpt lat="41.051221634070444" lon="8.964915679660901"><ele>175.0</ele><time>2026-05-02T07:05:00Z</time></trkpt><trkpt lat="41.05113026705329" lon="8.964947901049724"><ele>175.0</ele><time>2026-05-02T07:05:01Z</time></trkpt><trkpt lat="41.051047515392916" lon="8.96499973346343"><ele>176.6</ele><time>2026-05-02T07:05:02Z</time></trkpt><trkpt lat="41.050964223658866" lon="8.965043433656229"><ele>178.2</ele><time>2026-05-02T07:05:03Z</time></trkpt><trkpt lat="41.0508804386985" lon="8.965083200329529"><ele>179.8</ele><time>2026-05-02T07:05:04Z</time></trkpt><trkpt lat="41.05081301380181" lon="8.96513417546694"><ele>181.4</ele><time>2026-05-02T07:05:05Z</time></trkpt><trkpt lat="41.05072349996902" lon="8.965173688731463"><ele>183.0</ele><time>2026-05-02T07:05:06Z</time></trkpt><trkpt lat="41.05062559448252" lon="8.965220481840007"><ele>183.4</ele><time>2026-05-02T07:05:07Z</time></trkpt><trkpt lat="41.05052308935969" lon="8.965282313535951"><ele>183.8</ele><time>2026-05-02T07:05:08Z</time></trkpt><trkpt lat="41.05042976489253" lon="8.965381481634946"><ele>184.2</ele><time>2026-05-02T07:05:09Z</time></trkpt><trkpt lat="41.0503490648528" lon="8.965486214754945"><ele>184.6</ele><time>2026-05-02T07:05:10Z</time></trkpt><trkpt lat="41.0502818301161" lon="8.965581431018801"><ele>185.0</ele><time>2026-05-02T07:05:11Z</time></trkpt><trkpt lat="41.05021931227012" lon="8.965662184884058"><ele>185.0</ele><time>2026-05-02T07:05:12Z</time></trkpt><trkpt lat="41.05015205545222" lon="8.965738878658604"><ele>185.0</ele><time>2026-05-02T07:05:13Z</time></trkpt><trkpt lat="41.050106929913014" lon="8.965803450916495"><ele>185.0</ele><time>2026-05-02T07:05:14Z</time></trkpt><trkpt lat="41.0500570266606" lon="8.965860767610458"><ele>185.0</ele><time>2026-05-02T07:05:15Z</time></trkpt><trkpt lat="41.04999047734579" lon="8.9659344057137"><ele>185.0</ele><time>2026-05-02T07:05:16Z</time></trkpt><trkpt lat="41.04991739840941" lon="8.966026014051177"><ele>185.0</ele><time>2026-05-02T07:05:17Z</time></trkpt><trkpt lat="41.04983496540649" lon="8.966124857510163"><ele>187.0</ele><time>2026-05-02T07:05:18Z</time></trkpt><trkpt lat="41.04974472551926" lon="8.966234817925091"><ele>189.0</ele><time>2026-05-02T07:05:19Z</time></trkpt><trkpt lat="41.04964800291043" lon="8.966349310408804"><ele>191.0</ele><time>2026-05-02T07:05:20Z</time></trkpt><trkpt lat="41.0495522457491" lon="8.966467570966238"><ele>193.0</ele><time>2026-05-02T07:05:21Z</time></trkpt><trkpt lat="41.04945790841257" lon="8.96658861355515"><ele>194.75</ele><time>2026-05-02T07:05:22Z</time></trkpt><trkpt lat="41.049364428007635" lon="8.966712274168732"><ele>196.5</ele><time>2026-05-02T07:05:23Z</time></trkpt><trkpt lat="41.04927474191163" lon="8.966830944883304"><ele>198.25</ele><time>2026-05-02T07:05:24Z</time></trkpt><trkpt lat="41.04918834637358" lon="8.966949844487862"><ele>200.0</ele><time>2026-05-02T07:05:25Z</time></trkpt><trkpt lat="41.049102026392006" lon="8.967062526185213"><ele>200.0</ele><time>2026-05-02T07:05:26Z</time></trkpt><trkpt lat="41.04901672913641" lon="8.967172618801523"><ele>200.0</ele><time>2026-05-02T07:05:27Z</time></trkpt><trkpt lat="41.048930499724946" lon="8.967277724142463"><ele>200.0</ele><time>2026-05-02T07:05:28Z</time></trkpt><trkpt lat="41.04884043945443" lon="8.967378279081926"><ele>200.0</ele><time>2026-05-02T07:05:29Z</time></trkpt><trkpt lat="41.04874223017455" lon="8.967468172905908"><ele>200.25</ele><time>2026-05-02T07:05:30Z</time></trkpt><trkpt lat="41.048635491655716" lon="8.967542888921525"><ele>200.5</ele><time>2026-05-02T07:05:31Z</time></trkpt><trkpt lat="41.048522661296516" lon="8.967614830267296"><ele>200.75</ele><time>2026-05-02T07:05:32Z</time></trkpt><trkpt lat="41.04840625204675" lon="8.967687365126295"><ele>201.0</ele><time>2026-05-02T07:05:33Z</time></trkpt><trkpt lat="41.04828593361106" lon="8.967757852899387"><ele>201.0</ele><time>2026-05-02T07:05:34Z</time></trkpt><trkpt lat="41.048160097598554" lon="8.96782977272671"><ele>201.0</ele><time>2026-05-02T07:05:35Z</time></trkpt><trkpt lat="41.04803390331096" lon="8.967906903293086"><ele>201.0</ele><time>2026-05-02T07:05:36Z</time></trkpt><trkpt lat="41.0479043314667" lon="8.967984902749494"><ele>201.0</ele><time>2026-05-02T07:05:37Z</time></trkpt><trkpt lat="41.04777322977012" lon="8.968059665296806"><ele>201.0</ele><time>2026-05-02T07:05:38Z</time></trkpt><trkpt lat="41.04764765480857" lon="8.96815382172395"><ele>201.0</ele><time>2026-05-02T07:05:39Z</time></trkpt><trkpt lat="41.04752999933303" lon="8.968265211960238"><ele>201.0</ele><time>2026-05-02T07:05:40Z</time></trkpt><trkpt lat="41.047420645678386" lon="8.968387171327372"><ele>201.0</ele><time>2026-05-02T07:05:41Z</time></trkpt><trkpt lat="41.04731500581418" lon="8.96851153812512"><ele>199.75</ele><time>2026-05-02T07:05:42Z</time></trkpt><trkpt lat="41.04720878372516" lon="8.968635648112619"><ele>198.5</ele><time>2026-05-02T07:05:43Z</time></trkpt><trkpt lat="41.04710004947003" lon="8.968757105707146"><ele>197.25</ele><time>2026-05-02T07:05:44Z</time></trkpt><trkpt lat="41.046983664758905" lon="8.968867883623014"><ele>196.0</ele><time>2026-05-02T07:05:45Z</time></trkpt><trkpt lat="41.04686007815606" lon="8.968970571050427"><ele>196.0</ele><time>2026-05-02T07:05:46Z</time></trkpt><trkpt lat="41.046735055787714" lon="8.969073978353721"><ele>196.0</ele><time>2026-05-02T07:05:47Z</time></trkpt><trkpt lat="41.04660221089436" lon="8.969174112398518"><ele>196.0</ele><time>2026-05-02T07:05:48Z</time></trkpt><trkpt lat="41.046469161241035" lon="8.969282063119099"><ele>194.0</ele><time>2026-05-02T07:05:49Z</time></trkpt><trkpt lat="41.0463318039432" lon="8.96938797678129"><ele>192.0</ele><time>2026-05-02T07:05:50Z</time></trkpt><trkpt lat="41.04619423517061" lon="8.969497321327898"><ele>190.0</ele><time>2026-05-02T07:05:51Z</time></trkpt><trkpt lat="41.046056553064574" lon="8.969609130250584"><ele>190.0</ele><time>2026-05-02T07:05:52Z</time></trkpt><trkpt lat="41.04591682029451" lon="8.969720649658091"><ele>190.0</ele><time>2026-05-02T07:05:53Z</time></trkpt><trkpt lat="41.04577573267357" lon="8.969828633413202"><ele>190.0</ele><time>2026-05-02T07:05:54Z</time></trkpt><trkpt lat="41.045638384926434" lon="8.969943473685333"><ele>190.66666666666669</ele><time>2026-05-02T07:05:55Z</time></trkpt><trkpt lat="41.04549493683646" lon="8.970048588570599"><ele>191.33333333333334</ele><time>2026-05-02T07:05:56Z</time></trkpt><trkpt lat="41.04535216868391" lon="8.97015085793544"><ele>192.0</ele><time>2026-05-02T07:05:57Z</time></trkpt><trkpt lat="41.045200431292656" lon="8.970216246844215"><ele>192.0</ele><time>2026-05-02T07:05:58Z</time></trkpt><trkpt lat="41.04505196860376" lon="8.970286395477244"><ele>192.0</ele><time>2026-05-02T07:05:59Z</time></trkpt><trkpt lat="41.044901668092535" lon="8.970354887746325"><ele>192.0</ele><time>2026-05-02T07:06:00Z</time></trkpt><trkpt lat="41.04476132236467" lon="8.970421102825687"><ele>191.5</ele><time>2026-05-02T07:06:01Z</time></trkpt><trkpt lat="41.04462216513503" lon="8.970486276862225"><ele>191.0</ele><time>2026-05-02T07:06:02Z</time></trkpt><trkpt lat="41.044482754899704" lon="8.970550040239514"><ele>190.5</ele><time>2026-05-02T07:06:03Z</time></trkpt><trkpt lat="41.04434379160248" lon="8.970609175301117"><ele>190.0</ele><time>2026-05-02T07:06:04Z</time></trkpt><trkpt lat="41.04420518828327" lon="8.970660114693523"><ele>189.25</ele><time>2026-05-02T07:06:05Z</time></trkpt><trkpt lat="41.04406391035865" lon="8.97067920416853"><ele>188.5</ele><time>2026-05-02T07:06:06Z</time></trkpt><trkpt lat="41.043921164308834" lon="8.970665763195786"><ele>187.75</ele><time>2026-05-02T07:06:07Z</time></trkpt><trkpt lat="41.04377767060933" lon="8.97064762161408"><ele>187.0</ele><time>2026-05-02T07:06:08Z</time></trkpt><trkpt lat="41.043633703494315" lon="8.970632265527165"><ele>187.0</ele><time>2026-05-02T07:06:09Z</time></trkpt><trkpt lat="41.04350535937108" lon="8.970650031666164"><ele>187.0</ele><time>2026-05-02T07:06:10Z</time></trkpt><trkpt lat="41.04338825560879" lon="8.970666821563523"><ele>187.0</ele><time>2026-05-02T07:06:11Z</time></trkpt><trkpt lat="41.04328782774891" lon="8.970739242644944"><ele>187.0</ele><time>2026-05-02T07:06:12Z</time></trkpt><trkpt lat="41.043186607597555" lon="8.970826043724742"><ele>187.2</ele><time>2026-05-02T07:06:13Z</time></trkpt><trkpt lat="41.04308420270465" lon="8.970872143279951"><ele>187.39999999999998</ele><time>2026-05-02T07:06:14Z</time></trkpt><trkpt lat="41.042994690346774" lon="8.970788319422796"><ele>187.60000000000002</ele><time>2026-05-02T07:06:15Z</time></trkpt><trkpt lat="41.04291479193987" lon="8.970711485200459"><ele>187.8</ele><time>2026-05-02T07:06:16Z</time></trkpt><trkpt lat="41.04283478490263" lon="8.970606682123087"><ele>188.0</ele><time>2026-05-02T07:06:17Z</time></trkpt><trkpt lat="41.04272338032716" lon="8.97049313549262"><ele>188.0</ele><time>2026-05-02T07:06:18Z</time></trkpt><trkpt lat="41.04261436890802" lon="8.970381549720344"><ele>188.0</ele><time>2026-05-02T07:06:19Z</time></trkpt><trkpt lat="41.04248340210883" lon="8.970343641386238"><ele>188.0</ele><time>2026-05-02T07:06:20Z</time></trkpt><trkpt lat="41.04233882953704" lon="8.970336200370689"><ele>188.0</ele><time>2026-05-02T07:06:21Z</time></trkpt><trkpt lat="41.042188210664946" lon="8.970367656683157"><ele>187.33333333333331</ele><time>2026-05-02T07:06:22Z</time></trkpt><trkpt lat="41.042017881239815" lon="8.970449614959922"><ele>186.66666666666666</ele><time>2026-05-02T07:06:23Z</time></trkpt><trkpt lat="41.041874463437885" lon="8.970501718158063"><ele>186.0</ele><time>2026-05-02T07:06:24Z</time></trkpt><trkpt lat="41.04174316723752" lon="8.970573874889112"><ele>186.75</ele><time>2026-05-02T07:06:25Z</time></trkpt><trkpt lat="41.04161950940563" lon="8.970661451692454"><ele>187.5</ele><time>2026-05-02T07:06:26Z</time></trkpt><trkpt lat="41.041494107581514" lon="8.970732933936382"><ele>188.25</ele><time>2026-05-02T07:06:27Z</time></trkpt><trkpt lat="41.041399768338906" lon="8.97084746232618"><ele>189.0</ele><time>2026-05-02T07:06:28Z</time></trkpt><trkpt lat="41.041298154238426" lon="8.970928808392252"><ele>189.0</ele><time>2026-05-02T07:06:29Z</time></trkpt><trkpt lat="41.041182527701515" lon="8.970946383259815"><ele>189.0</ele><time>2026-05-02T07:06:30Z</time></trkpt><trkpt lat="41.04107043586616" lon="8.970921567515544"><ele>189.0</ele><time>2026-05-02T07:06:31Z</time></trkpt><trkpt lat="41.04097177966921" lon="8.970860794971653"><ele>189.0</ele><time>2026-05-02T07:06:32Z</time></trkpt><trkpt lat="41.040868097976464" lon="8.970784132577803"><ele>185.0</ele><time>2026-05-02T07:06:33Z</time></trkpt><trkpt lat="41.04076871147734" lon="8.970682183400426"><ele>181.0</ele><time>2026-05-02T07:06:34Z</time></trkpt><trkpt lat="41.04066087176068" lon="8.970616560045721"><ele>177.0</ele><time>2026-05-02T07:06:35Z</time></trkpt><trkpt lat="41.04055186701552" lon="8.970589910181124"><ele>173.0</ele><time>2026-05-02T07:06:36Z</time></trkpt><trkpt lat="41.04042809148859" lon="8.970622083845484"><ele>173.0</ele><time>2026-05-02T07:06:37Z</time></trkpt><trkpt lat="41.04029017962506" lon="8.970639503738623"><ele>173.0</ele><time>2026-05-02T07:06:38Z</time></trkpt><trkpt lat="41.04014964238611" lon="8.970649597910237"><ele>173.0</ele><time>2026-05-02T07:06:39Z</time></trkpt><trkpt lat="41.039998224255434" lon="8.970629630205346"><ele>173.0</ele><time>2026-05-02T07:06:40Z</time></trkpt><trkpt lat="41.039838958408914" lon="8.970600869303931"><ele>172.5</ele><time>2026-05-02T07:06:41Z</time></trkpt><trkpt lat="41.03968430776879" lon="8.970549962365192"><ele>172.0</ele><time>2026-05-02T07:06:42Z</time></trkpt><trkpt lat="41.03954146976033" lon="8.970490405090649"><ele>171.5</ele><time>2026-05-02T07:06:43Z</time></trkpt><trkpt lat="41.03941369834933" lon="8.970423983641435"><ele>171.0</ele><time>2026-05-02T07:06:44Z</time></trkpt><trkpt lat="41.039293419337874" lon="8.970348755877332"><ele>171.0</ele><time>2026-05-02T07:06:45Z</time></trkpt><trkpt lat="41.03918911315365" lon="8.970254487448193"><ele>171.0</ele><time>2026-05-02T07:06:46Z</time></trkpt><trkpt lat="41.03909874275053" lon="8.97013480644949"><ele>171.0</ele><time>2026-05-02T07:06:47Z</time></trkpt><trkpt lat="41.039011110724935" lon="8.969985876953697"><ele>171.0</ele><time>2026-05-02T07:06:48Z</time></trkpt><trkpt lat="41.03890683707939" lon="8.969839130306587"><ele>170.5</ele><time>2026-05-02T07:06:49Z</time></trkpt><trkpt lat="41.03882058078246" lon="8.969698544619742"><ele>170.0</ele><time>2026-05-02T07:06:50Z</time></trkpt><trkpt lat="41.038721393025476" lon="8.969592771980004"><ele>169.5</ele><time>2026-05-02T07:06:51Z</time></trkpt><trkpt lat="41.03860832718021" lon="8.969527185645589"><ele>169.0</ele><time>2026-05-02T07:06:52Z</time></trkpt><trkpt lat="41.038488881637804" lon="8.969520877235281"><ele>169.0</ele><time>2026-05-02T07:06:53Z</time></trkpt><trkpt lat="41.03835987617641" lon="8.969561365547694"><ele>169.0</ele><time>2026-05-02T07:06:54Z</time></trkpt><trkpt lat="41.03823322604805" lon="8.969617396194433"><ele>169.0</ele><time>2026-05-02T07:06:55Z</time></trkpt><trkpt lat="41.03810566410881" lon="8.969686470094764"><ele>169.0</ele><time>2026-05-02T07:06:56Z</time></trkpt><trkpt lat="41.03798127448397" lon="8.96978195094291"><ele>169.0</ele><time>2026-05-02T07:06:57Z</time></trkpt><trkpt lat="41.037862799421305" lon="8.969903013087231"><ele>169.0</ele><time>2026-05-02T07:06:58Z</time></trkpt><trkpt lat="41.037749212876584" lon="8.97003316984454"><ele>169.0</ele><time>2026-05-02T07:06:59Z</time></trkpt><trkpt lat="41.03764086193952" lon="8.97015471869785"><ele>169.0</ele><time>2026-05-02T07:07:00Z</time></trkpt><trkpt lat="41.03754585267265" lon="8.97025977805896"><ele>166.75</ele><time>2026-05-02T07:07:01Z</time></trkpt><trkpt lat="41.03744723126288" lon="8.970338576984947"><ele>164.5</ele><time>2026-05-02T07:07:02Z</time></trkpt><trkpt lat="41.037353736186255" lon="8.97042363796834"><ele>162.25</ele><time>2026-05-02T07:07:03Z</time></trkpt><trkpt lat="41.03724943880193" lon="8.970481975557746"><ele>160.0</ele><time>2026-05-02T07:07:04Z</time></trkpt><trkpt lat="41.03712737431672" lon="8.9704993721268"><ele>160.0</ele><time>2026-05-02T07:07:05Z</time></trkpt><trkpt lat="41.03699222708691" lon="8.970492017459389"><ele>160.0</ele><time>2026-05-02T07:07:06Z</time></trkpt><trkpt lat="41.03684887815368" lon="8.970483188136328"><ele>160.0</ele><time>2026-05-02T07:07:07Z</time></trkpt><trkpt lat="41.03670800735111" lon="8.970473517990918"><ele>160.0</ele><time>2026-05-02T07:07:08Z</time></trkpt><trkpt lat="41.03656559533463" lon="8.970458064486337"><ele>158.75</ele><time>2026-05-02T07:07:09Z</time></trkpt><trkpt lat="41.036419329652205" lon="8.970442192805633"><ele>157.5</ele><time>2026-05-02T07:07:10Z</time></trkpt><trkpt lat="41.03627112474847" lon="8.970454425392793"><ele>156.25</ele><time>2026-05-02T07:07:11Z</time></trkpt><trkpt lat="41.03612295408944" lon="8.970451842136988"><ele>155.0</ele><time>2026-05-02T07:07:12Z</time></trkpt><trkpt lat="41.03597716675526" lon="8.970461857309783"><ele>155.0</ele><time>2026-05-02T07:07:13Z</time></trkpt><trkpt lat="41.035835685828594" lon="8.97049190772901"><ele>155.0</ele><time>2026-05-02T07:07:14Z</time></trkpt><trkpt lat="41.03570522711472" lon="8.970530795130296"><ele>155.0</ele><time>2026-05-02T07:07:15Z</time></trkpt><trkpt lat="41.03558522902369" lon="8.97058306594958"><ele>155.0</ele><time>2026-05-02T07:07:16Z</time></trkpt><trkpt lat="41.03547220678904" lon="8.970633146687845"><ele>154.4</ele><time>2026-05-02T07:07:17Z</time></trkpt><trkpt lat="41.03537104609234" lon="8.970686886661634"><ele>153.8</ele><time>2026-05-02T07:07:18Z</time></trkpt><trkpt lat="41.03528023152044" lon="8.970757532449666"><ele>153.2</ele><time>2026-05-02T07:07:19Z</time></trkpt><trkpt lat="41.03520455529874" lon="8.970850385198272"><ele>152.6</ele><time>2026-05-02T07:07:20Z</time></trkpt><trkpt lat="41.035158500686315" lon="8.970976532715053"><ele>152.0</ele><time>2026-05-02T07:07:21Z</time></trkpt><trkpt lat="41.03513533961794" lon="8.971127444805136"><ele>150.75</ele><time>2026-05-02T07:07:22Z</time></trkpt><trkpt lat="41.03513360023857" lon="8.971296099938536"><ele>149.5</ele><time>2026-05-02T07:07:23Z</time></trkpt><trkpt lat="41.035139795291926" lon="8.971468232155251"><ele>148.25</ele><time>2026-05-02T07:07:24Z</time></trkpt><trkpt lat="41.03513227300062" lon="8.97165108654691"><ele>147.0</ele><time>2026-05-02T07:07:25Z</time></trkpt><trkpt lat="41.0351116857527" lon="8.971840922713808"><ele>146.75</ele><time>2026-05-02T07:07:26Z</time></trkpt><trkpt lat="41.0351186130836" lon="8.972028599692798"><ele>146.5</ele><time>2026-05-02T07:07:27Z</time></trkpt><trkpt lat="41.03509973173359" lon="8.972220478733595"><ele>146.25</ele><time>2026-05-02T07:07:28Z</time></trkpt><trkpt lat="41.03508612484777" lon="8.972416403929035"><ele>146.0</ele><time>2026-05-02T07:07:29Z</time></trkpt><trkpt lat="41.035070880169165" lon="8.972603133300511"><ele>146.0</ele><time>2026-05-02T07:07:30Z</time></trkpt><trkpt lat="41.035053572378175" lon="8.972792846458345"><ele>146.0</ele><time>2026-05-02T07:07:31Z</time></trkpt><trkpt lat="41.035032666548574" lon="8.972979552852197"><ele>146.0</ele><time>2026-05-02T07:07:32Z</time></trkpt><trkpt lat="41.03501348106219" lon="8.97316284983925"><ele>146.0</ele><time>2026-05-02T07:07:33Z</time></trkpt><trkpt lat="41.03499539431547" lon="8.973343637727337"><ele>144.5</ele><time>2026-05-02T07:07:34Z</time></trkpt><trkpt lat="41.034970218277984" lon="8.97351962279028"><ele>143.0</ele><time>2026-05-02T07:07:35Z</time></trkpt><trkpt lat="41.0349438010725" lon="8.973690975823839"><ele>141.5</ele><time>2026-05-02T07:07:36Z</time></trkpt><trkpt lat="41.03492719793461" lon="8.973866091138275"><ele>140.0</ele><time>2026-05-02T07:07:37Z</time></trkpt><trkpt lat="41.03492252427481" lon="8.974044010094513"><ele>138.75</ele><time>2026-05-02T07:07:38Z</time></trkpt><trkpt lat="41.03490662247592" lon="8.974216678936495"><ele>137.5</ele><time>2026-05-02T07:07:39Z</time></trkpt><trkpt lat="41.03489784035184" lon="8.97437996959347"><ele>136.25</ele><time>2026-05-02T07:07:40Z</time></trkpt><trkpt lat="41.03489370244647" lon="8.974540765602807"><ele>135.0</ele><time>2026-05-02T07:07:41Z</time></trkpt><trkpt lat="41.03490972676051" lon="8.974691055596944"><ele>135.0</ele><time>2026-05-02T07:07:42Z</time></trkpt><trkpt lat="41.03493246545476" lon="8.974833822940882"><ele>135.0</ele><time>2026-05-02T07:07:43Z</time></trkpt><trkpt lat="41.03495521861374" lon="8.974967037787431"><ele>135.0</ele><time>2026-05-02T07:07:44Z</time></trkpt><trkpt lat="41.034980674791306" lon="8.975089463610638"><ele>135.0</ele><time>2026-05-02T07:07:45Z</time></trkpt><trkpt lat="41.03500117210518" lon="8.975187975798288"><ele>135.0</ele><time>2026-05-02T07:07:46Z</time></trkpt><trkpt lat="41.0350105826704" lon="8.975336162921884"><ele>135.2</ele><time>2026-05-02T07:07:48Z</time></trkpt><trkpt lat="41.03489910458322" lon="8.975386617751443"><ele>135.4</ele><time>2026-05-02T07:07:50Z</time></trkpt><trkpt lat="41.03486235491041" lon="8.975310908938454"><ele>135.6</ele><time>2026-05-02T07:07:51Z</time></trkpt><trkpt lat="41.03482327550586" lon="8.975236537785852"><ele>135.8</ele><time>2026-05-02T07:07:52Z</time></trkpt><trkpt lat="41.03474588392305" lon="8.975161879079666"><ele>136.0</ele><time>2026-05-02T07:07:53Z</time></trkpt><trkpt lat="41.03466418968847" lon="8.97505879677963"><ele>135.75</ele><time>2026-05-02T07:07:54Z</time></trkpt><trkpt lat="41.03455114835701" lon="8.97496507362223"><ele>135.5</ele><time>2026-05-02T07:07:55Z</time></trkpt><trkpt lat="41.03445248826678" lon="8.974816142761174"><ele>135.25</ele><time>2026-05-02T07:07:56Z</time></trkpt><trkpt lat="41.03435584341822" lon="8.974685649354646"><ele>135.0</ele><time>2026-05-02T07:07:57Z</time></trkpt><trkpt lat="41.03425920160087" lon="8.974550165806631"><ele>135.0</ele><time>2026-05-02T07:07:58Z</time></trkpt><trkpt lat="41.03415810285395" lon="8.974406272198738"><ele>135.0</ele><time>2026-05-02T07:07:59Z</time></trkpt><trkpt lat="41.0340520292356" lon="8.974254158650988"><ele>135.0</ele><time>2026-05-02T07:08:00Z</time></trkpt><trkpt lat="41.03394254363277" lon="8.974095283438189"><ele>134.33333333333334</ele><time>2026-05-02T07:08:01Z</time></trkpt><trkpt lat="41.033833029659654" lon="8.973931947142443"><ele>133.66666666666669</ele><time>2026-05-02T07:08:02Z</time></trkpt><trkpt lat="41.03372097496882" lon="8.973765986530664"><ele>133.0</ele><time>2026-05-02T07:08:03Z</time></trkpt><trkpt lat="41.033609566352766" lon="8.973593767557306"><ele>133.0</ele><time>2026-05-02T07:08:04Z</time></trkpt><trkpt lat="41.03349876780403" lon="8.973419481909193"><ele>133.0</ele><time>2026-05-02T07:08:05Z</time></trkpt><trkpt lat="41.033390074813965" lon="8.973246779974268"><ele>133.0</ele><time>2026-05-02T07:08:06Z</time></trkpt><trkpt lat="41.03328524383872" lon="8.973077298792344"><ele>134.0</ele><time>2026-05-02T07:08:07Z</time></trkpt><trkpt lat="41.03318207516629" lon="8.97291351072957"><ele>135.0</ele><time>2026-05-02T07:08:08Z</time></trkpt><trkpt lat="41.03308469106878" lon="8.972753003110531"><ele>136.0</ele><time>2026-05-02T07:08:09Z</time></trkpt><trkpt lat="41.03298912736535" lon="8.9725969786335"><ele>135.75</ele><time>2026-05-02T07:08:10Z</time></trkpt><trkpt lat="41.03289839166356" lon="8.972444383514443"><ele>135.5</ele><time>2026-05-02T07:08:11Z</time></trkpt><trkpt lat="41.032809357651246" lon="8.972291976786032"><ele>135.25</ele><time>2026-05-02T07:08:12Z</time></trkpt><trkpt lat="41.03272021662803" lon="8.97214118404593"><ele>135.0</ele><time>2026-05-02T07:08:13Z</time></trkpt><trkpt lat="41.03263263126052" lon="8.971996971483964"><ele>135.0</ele><time>2026-05-02T07:08:14Z</time></trkpt><trkpt lat="41.032546103852106" lon="8.97186002600962"><ele>135.0</ele><time>2026-05-02T07:08:15Z</time></trkpt><trkpt lat="41.03245530624344" lon="8.971725874419151"><ele>135.0</ele><time>2026-05-02T07:08:16Z</time></trkpt><trkpt lat="41.032351986724436" lon="8.971606133399932"><ele>135.0</ele><time>2026-05-02T07:08:17Z</time></trkpt><trkpt lat="41.032231022173576" lon="8.97151227508883"><ele>134.66666666666666</ele><time>2026-05-02T07:08:18Z</time></trkpt><trkpt lat="41.03209012831353" lon="8.971439578806786"><ele>134.33333333333331</ele><time>2026-05-02T07:08:19Z</time></trkpt><trkpt lat="41.031941266986514" lon="8.971369513843715"><ele>134.0</ele><time>2026-05-02T07:08:20Z</time></trkpt><trkpt lat="41.03179051651628" lon="8.971297179849062"><ele>133.0</ele><time>2026-05-02T07:08:21Z</time></trkpt><trkpt lat="41.031637205978186" lon="8.971226696075089"><ele>132.0</ele><time>2026-05-02T07:08:22Z</time></trkpt><trkpt lat="41.031483962607695" lon="8.971152692512383"><ele>131.0</ele><time>2026-05-02T07:08:23Z</time></trkpt><trkpt lat="41.03133609550504" lon="8.971054142614248"><ele>131.0</ele><time>2026-05-02T07:08:24Z</time></trkpt><trkpt lat="41.03117937759827" lon="8.970994252393377"><ele>131.0</ele><time>2026-05-02T07:08:25Z</time></trkpt><trkpt lat="41.03102513876374" lon="8.970909339768108"><ele>131.0</ele><time>2026-05-02T07:08:26Z</time></trkpt><trkpt lat="41.03086837283868" lon="8.970829862263662"><ele>134.0</ele><time>2026-05-02T07:08:27Z</time></trkpt><trkpt lat="41.03071800571962" lon="8.97075004063884"><ele>137.0</ele><time>2026-05-02T07:08:28Z</time></trkpt><trkpt lat="41.03056716056992" lon="8.970649162303513"><ele>140.0</ele><time>2026-05-02T07:08:29Z</time></trkpt><trkpt lat="41.03045160290821" lon="8.970502244068856"><ele>140.0</ele><time>2026-05-02T07:08:30Z</time></trkpt><trkpt lat="41.030341750886684" lon="8.97034480881099"><ele>140.0</ele><time>2026-05-02T07:08:31Z</time></trkpt><trkpt lat="41.03024204239519" lon="8.970187025782936"><ele>140.0</ele><time>2026-05-02T07:08:32Z</time></trkpt><trkpt lat="41.030121633442654" lon="8.970022913624863"><ele>140.0</ele><time>2026-05-02T07:08:33Z</time></trkpt><trkpt lat="41.030023125840756" lon="8.969846294468605"><ele>140.0</ele><time>2026-05-02T07:08:34Z</time></trkpt><trkpt lat="41.02991929807432" lon="8.96967618260626"><ele>140.0</ele><time>2026-05-02T07:08:35Z</time></trkpt><trkpt lat="41.02980914170407" lon="8.969501343595534"><ele>142.66666666666666</ele><time>2026-05-02T07:08:36Z</time></trkpt><trkpt lat="41.029694345407044" lon="8.969322542820459"><ele>145.33333333333334</ele><time>2026-05-02T07:08:37Z</time></trkpt><trkpt lat="41.02958827451297" lon="8.969142524933327"><ele>148.0</ele><time>2026-05-02T07:08:38Z</time></trkpt><trkpt lat="41.02949635833491" lon="8.968989580917338"><ele>148.66666666666669</ele><time>2026-05-02T07:08:39Z</time></trkpt><trkpt lat="41.02940754138364" lon="8.968825626987243"><ele>149.33333333333334</ele><time>2026-05-02T07:08:40Z</time></trkpt><trkpt lat="41.029337392777464" lon="8.968652867673732"><ele>150.0</ele><time>2026-05-02T07:08:41Z</time></trkpt><trkpt lat="41.02930602474399" lon="8.96845683185914"><ele>149.33333333333334</ele><time>2026-05-02T07:08:42Z</time></trkpt><trkpt lat="41.02929304838298" lon="8.968253134586755"><ele>148.66666666666669</ele><time>2026-05-02T07:08:43Z</time></trkpt><trkpt lat="41.02930442936061" lon="8.968039358994202"><ele>148.0</ele><time>2026-05-02T07:08:44Z</time></trkpt><trkpt lat="41.029303593268835" lon="8.967813358423724"><ele>148.0</ele><time>2026-05-02T07:08:45Z</time></trkpt><trkpt lat="41.029297880390565" lon="8.967587081759493"><ele>148.0</ele><time>2026-05-02T07:08:46Z</time></trkpt><trkpt lat="41.029294156798436" lon="8.967355070963816"><ele>148.0</ele><time>2026-05-02T07:08:47Z</time></trkpt><trkpt lat="41.029264393555245" lon="8.967112814721624"><ele>147.33333333333334</ele><time>2026-05-02T07:08:48Z</time></trkpt><trkpt lat="41.02923380563671" lon="8.96686884438626"><ele>146.66666666666666</ele><time>2026-05-02T07:08:49Z</time></trkpt><trkpt lat="41.029190042254285" lon="8.966623937019989"><ele>146.0</ele><time>2026-05-02T07:08:50Z</time></trkpt><trkpt lat="41.02913962742253" lon="8.966372355304756"><ele>155.33333333333331</ele><time>2026-05-02T07:08:51Z</time></trkpt><trkpt lat="41.02909064492259" lon="8.966115114731393"><ele>164.66666666666666</ele><time>2026-05-02T07:08:52Z</time></trkpt><trkpt lat="41.02903885986973" lon="8.965861522649146"><ele>174.0</ele><time>2026-05-02T07:08:53Z</time></trkpt><trkpt lat="41.028983073218285" lon="8.965599873835238"><ele>174.0</ele><time>2026-05-02T07:08:54Z</time></trkpt><trkpt lat="41.02893470817655" lon="8.965349748137362"><ele>174.0</ele><time>2026-05-02T07:08:55Z</time></trkpt><trkpt lat="41.028885624841166" lon="8.965099246768318"><ele>174.0</ele><time>2026-05-02T07:08:56Z</time></trkpt><trkpt lat="41.0288165646812" lon="8.964859090045035"><ele>171.33333333333334</ele><time>2026-05-02T07:08:57Z</time></trkpt><trkpt lat="41.028749018952084" lon="8.964614961833353"><ele>168.66666666666669</ele><time>2026-05-02T07:08:58Z</time></trkpt><trkpt lat="41.02868561437706" lon="8.964367927892244"><ele>166.0</ele><time>2026-05-02T07:08:59Z</time></trkpt><trkpt lat="41.02862260229216" lon="8.964129077862387"><ele>165.33333333333334</ele><time>2026-05-02T07:09:00Z</time></trkpt><trkpt lat="41.0285614313926" lon="8.963885309752111"><ele>164.66666666666666</ele><time>2026-05-02T07:09:01Z</time></trkpt><trkpt lat="41.028500508214854" lon="8.963640364958952"><ele>164.0</ele><time>2026-05-02T07:09:02Z</time></trkpt><trkpt lat="41.02845650333146" lon="8.963407478189788"><ele>163.75</ele><time>2026-05-02T07:09:03Z</time></trkpt><trkpt lat="41.02841947322039" lon="8.963212103536035"><ele>163.5</ele><time>2026-05-02T07:09:04Z</time></trkpt><trkpt lat="41.02840134231229" lon="8.963045032313664"><ele>163.25</ele><time>2026-05-02T07:09:05Z</time></trkpt><trkpt lat="41.02841411853968" lon="8.962885132919919"><ele>163.0</ele><time>2026-05-02T07:09:06Z</time></trkpt><trkpt lat="41.0284704616941" lon="8.962745605439103"><ele>163.0</ele><time>2026-05-02T07:09:07Z</time></trkpt><trkpt lat="41.02856271508112" lon="8.962616429930328"><ele>163.0</ele><time>2026-05-02T07:09:08Z</time></trkpt><trkpt lat="41.0287264390204" lon="8.962537729090576"><ele>163.0</ele><time>2026-05-02T07:09:09Z</time></trkpt><trkpt lat="41.028868776434486" lon="8.96248216758387"><ele>162.66666666666669</ele><time>2026-05-02T07:09:10Z</time></trkpt><trkpt lat="41.02901737730008" lon="8.96247581614683"><ele>162.33333333333334</ele><time>2026-05-02T07:09:11Z</time></trkpt><trkpt lat="41.02916914305074" lon="8.9624978377694"><ele>162.0</ele><time>2026-05-02T07:09:12Z</time></trkpt><trkpt lat="41.029322992551606" lon="8.962532862773896"><ele>162.0</ele><time>2026-05-02T07:09:13Z</time></trkpt><trkpt lat="41.02945847464974" lon="8.962528334342057"><ele>162.0</ele><time>2026-05-02T07:09:14Z</time></trkpt><trkpt lat="41.02958756064834" lon="8.962469288248249"><ele>162.0</ele><time>2026-05-02T07:09:15Z</time></trkpt><trkpt lat="41.02969718655586" lon="8.962349289295663"><ele>162.0</ele><time>2026-05-02T07:09:16Z</time></trkpt><trkpt lat="41.02978044922143" lon="8.96216977507329"><ele>162.0</ele><time>2026-05-02T07:09:17Z</time></trkpt><trkpt lat="41.02985121989947" lon="8.961969287905536"><ele>162.0</ele><time>2026-05-02T07:09:18Z</time></trkpt><trkpt lat="41.02992369134263" lon="8.96176166145867"><ele>162.0</ele><time>2026-05-02T07:09:19Z</time></trkpt><trkpt lat="41.03000998682203" lon="8.961552662451863"><ele>162.66666666666666</ele><time>2026-05-02T07:09:20Z</time></trkpt><trkpt lat="41.03010297591766" lon="8.9613349342601"><ele>163.33333333333331</ele><time>2026-05-02T07:09:21Z</time></trkpt><trkpt lat="41.0301968126024" lon="8.961113260625282"><ele>164.0</ele><time>2026-05-02T07:09:22Z</time></trkpt><trkpt lat="41.0302882961479" lon="8.960894429669903"><ele>166.0</ele><time>2026-05-02T07:09:23Z</time></trkpt><trkpt lat="41.030368766271174" lon="8.960699111184761"><ele>168.0</ele><time>2026-05-02T07:09:24Z</time></trkpt><trkpt lat="41.03043559111299" lon="8.96052628916198"><ele>170.0</ele><time>2026-05-02T07:09:25Z</time></trkpt><trkpt lat="41.0304801023164" lon="8.96035306147282"><ele>170.0</ele><time>2026-05-02T07:09:26Z</time></trkpt><trkpt lat="41.030488552249246" lon="8.960161403968435"><ele>170.0</ele><time>2026-05-02T07:09:27Z</time></trkpt><trkpt lat="41.030455740015505" lon="8.959963901478806"><ele>170.0</ele><time>2026-05-02T07:09:28Z</time></trkpt><trkpt lat="41.03039095385922" lon="8.959769736150669"><ele>170.75</ele><time>2026-05-02T07:09:29Z</time></trkpt><trkpt lat="41.030315733568735" lon="8.959616310941113"><ele>171.5</ele><time>2026-05-02T07:09:30Z</time></trkpt><trkpt lat="41.03021755482031" lon="8.959524036269679"><ele>172.25</ele><time>2026-05-02T07:09:31Z</time></trkpt><trkpt lat="41.03009918537189" lon="8.959495865103936"><ele>173.0</ele><time>2026-05-02T07:09:32Z</time></trkpt><trkpt lat="41.02995853741494" lon="8.959521030405472"><ele>175.33333333333331</ele><time>2026-05-02T07:09:33Z</time></trkpt><trkpt lat="41.02979895769552" lon="8.959574661049418"><ele>177.66666666666666</ele><time>2026-05-02T07:09:34Z</time></trkpt><trkpt lat="41.02961736356892" lon="8.959609181068972"><ele>180.0</ele><time>2026-05-02T07:09:35Z</time></trkpt><trkpt lat="41.02944281383994" lon="8.959650781347433"><ele>180.0</ele><time>2026-05-02T07:09:36Z</time></trkpt><trkpt lat="41.0292748153502" lon="8.95968444873304"><ele>180.0</ele><time>2026-05-02T07:09:37Z</time></trkpt><trkpt lat="41.02912573845732" lon="8.959694101116108"><ele>180.0</ele><time>2026-05-02T07:09:38Z</time></trkpt><trkpt lat="41.02898752884747" lon="8.959658526344604"><ele>181.0</ele><time>2026-05-02T07:09:39Z</time></trkpt><trkpt lat="41.02888087603382" lon="8.959555583248855"><ele>182.0</ele><time>2026-05-02T07:09:40Z</time></trkpt><trkpt lat="41.02875487087565" lon="8.959425596263252"><ele>183.0</ele><time>2026-05-02T07:09:41Z</time></trkpt><trkpt lat="41.02862468170025" lon="8.959281400311559"><ele>183.0</ele><time>2026-05-02T07:09:42Z</time></trkpt><trkpt lat="41.02848482603228" lon="8.959137541719498"><ele>183.0</ele><time>2026-05-02T07:09:43Z</time></trkpt><trkpt lat="41.02838393667083" lon="8.958963987879136"><ele>183.0</ele><time>2026-05-02T07:09:44Z</time></trkpt><trkpt lat="41.02833446606439" lon="8.958775798212054"><ele>183.0</ele><time>2026-05-02T07:09:45Z</time></trkpt><trkpt lat="41.028330099090454" lon="8.958607455136605"><ele>183.0</ele><time>2026-05-02T07:09:46Z</time></trkpt><trkpt lat="41.028360998949566" lon="8.958415241287463"><ele>183.0</ele><time>2026-05-02T07:09:47Z</time></trkpt><trkpt lat="41.02839455804649" lon="8.958204305961209"><ele>183.0</ele><time>2026-05-02T07:09:48Z</time></trkpt><trkpt lat="41.02844358397728" lon="8.957965970664114"><ele>184.33333333333334</ele><time>2026-05-02T07:09:49Z</time></trkpt><trkpt lat="41.02848543820881" lon="8.957710008431837"><ele>185.66666666666669</ele><time>2026-05-02T07:09:50Z</time></trkpt><trkpt lat="41.028506252986936" lon="8.957439511451783"><ele>187.0</ele><time>2026-05-02T07:09:51Z</time></trkpt><trkpt lat="41.02851960182236" lon="8.957155863788492"><ele>188.0</ele><time>2026-05-02T07:09:52Z</time></trkpt><trkpt lat="41.02853159269382" lon="8.95686518436647"><ele>189.0</ele><time>2026-05-02T07:09:53Z</time></trkpt><trkpt lat="41.02854748342737" lon="8.956569708950875"><ele>190.0</ele><time>2026-05-02T07:09:54Z</time></trkpt><trkpt lat="41.0285623315141" lon="8.956273682769352"><ele>190.33333333333334</ele><time>2026-05-02T07:09:55Z</time></trkpt><trkpt lat="41.028577497013075" lon="8.95597815130925"><ele>190.66666666666666</ele><time>2026-05-02T07:09:56Z</time></trkpt><trkpt lat="41.02859176798822" lon="8.955681370034739"><ele>191.0</ele><time>2026-05-02T07:09:57Z</time></trkpt><trkpt lat="41.02860375079547" lon="8.955395037138175"><ele>191.0</ele><time>2026-05-02T07:09:58Z</time></trkpt><trkpt lat="41.02862491031663" lon="8.955125481996184"><ele>191.0</ele><time>2026-05-02T07:09:59Z</time></trkpt><trkpt lat="41.028670871701195" lon="8.954863930659991"><ele>191.0</ele><time>2026-05-02T07:10:00Z</time></trkpt><trkpt lat="41.028738619729154" lon="8.95459451717817"><ele>191.33333333333331</ele><time>2026-05-02T07:10:01Z</time></trkpt><trkpt lat="41.02881474840968" lon="8.954322355092312"><ele>191.66666666666666</ele><time>2026-05-02T07:10:02Z</time></trkpt><trkpt lat="41.02888739263086" lon="8.954053220308909"><ele>192.0</ele><time>2026-05-02T07:10:03Z</time></trkpt><trkpt lat="41.028952377130615" lon="8.95378250686062"><ele>190.0</ele><time>2026-05-02T07:10:04Z</time></trkpt><trkpt lat="41.02899638838254" lon="8.953510088474255"><ele>188.0</ele><time>2026-05-02T07:10:05Z</time></trkpt><trkpt lat="41.029024287402514" lon="8.953229507972903"><ele>186.0</ele><time>2026-05-02T07:10:06Z</time></trkpt><trkpt lat="41.02903901489432" lon="8.95294870146549"><ele>183.33333333333334</ele><time>2026-05-02T07:10:07Z</time></trkpt><trkpt lat="41.02904573100487" lon="8.952667546762362"><ele>180.66666666666669</ele><time>2026-05-02T07:10:08Z</time></trkpt><trkpt lat="41.029037708100766" lon="8.952384386468783"><ele>178.0</ele><time>2026-05-02T07:10:09Z</time></trkpt><trkpt lat="41.029013875597364" lon="8.95210141992459"><ele>176.33333333333334</ele><time>2026-05-02T07:10:10Z</time></trkpt><trkpt lat="41.02898710196215" lon="8.951817196556057"><ele>174.66666666666666</ele><time>2026-05-02T07:10:11Z</time></trkpt><trkpt lat="41.02896295979072" lon="8.951530988066258"><ele>173.0</ele><time>2026-05-02T07:10:12Z</time></trkpt><trkpt lat="41.028934769340395" lon="8.951244493211075"><ele>172.66666666666666</ele><time>2026-05-02T07:10:13Z</time></trkpt><trkpt lat="41.028906495085046" lon="8.95095728657247"><ele>172.33333333333334</ele><time>2026-05-02T07:10:14Z</time></trkpt><trkpt lat="41.02887738485754" lon="8.950672638174403"><ele>172.0</ele><time>2026-05-02T07:10:15Z</time></trkpt><trkpt lat="41.028844599371254" lon="8.950390979904478"><ele>172.66666666666669</ele><time>2026-05-02T07:10:16Z</time></trkpt><trkpt lat="41.02880906025645" lon="8.950111061301897"><ele>173.33333333333334</ele><time>2026-05-02T07:10:17Z</time></trkpt><trkpt lat="41.02876706950207" lon="8.949835921557979"><ele>174.0</ele><time>2026-05-02T07:10:18Z</time></trkpt><trkpt lat="41.028719135727506" lon="8.949560653123719"><ele>174.0</ele><time>2026-05-02T07:10:19Z</time></trkpt><trkpt lat="41.02865800152911" lon="8.94929964888427"><ele>174.0</ele><time>2026-05-02T07:10:20Z</time></trkpt><trkpt lat="41.028584262842884" lon="8.949045414935878"><ele>174.0</ele><time>2026-05-02T07:10:21Z</time></trkpt><trkpt lat="41.028506165465984" lon="8.948795509217435"><ele>174.33333333333334</ele><time>2026-05-02T07:10:22Z</time></trkpt><trkpt lat="41.028426495269066" lon="8.948553056940765"><ele>174.66666666666669</ele><time>2026-05-02T07:10:23Z</time></trkpt><trkpt lat="41.0283451475245" lon="8.94831830797391"><ele>175.0</ele><time>2026-05-02T07:10:24Z</time></trkpt><trkpt lat="41.028265247653536" lon="8.948086633661484"><ele>173.66666666666669</ele><time>2026-05-02T07:10:25Z</time></trkpt><trkpt lat="41.02818935510283" lon="8.94785121923077"><ele>172.33333333333334</ele><time>2026-05-02T07:10:26Z</time></trkpt><trkpt lat="41.028122391060414" lon="8.947607708911969"><ele>171.0</ele><time>2026-05-02T07:10:27Z</time></trkpt><trkpt lat="41.02808378746574" lon="8.947361980877814"><ele>171.0</ele><time>2026-05-02T07:10:28Z</time></trkpt><trkpt lat="41.02810298134073" lon="8.947118639369872"><ele>171.0</ele><time>2026-05-02T07:10:29Z</time></trkpt><trkpt lat="41.02811616243871" lon="8.946880699835067"><ele>171.0</ele><time>2026-05-02T07:10:30Z</time></trkpt><trkpt lat="41.02815298244469" lon="8.946655321364863"><ele>170.0</ele><time>2026-05-02T07:10:31Z</time></trkpt><trkpt lat="41.02815956235558" lon="8.94642694313232"><ele>169.0</ele><time>2026-05-02T07:10:32Z</time></trkpt><trkpt lat="41.02812389824069" lon="8.946192461756208"><ele>168.0</ele><time>2026-05-02T07:10:33Z</time></trkpt><trkpt lat="41.02807081354586" lon="8.945967017988893"><ele>167.25</ele><time>2026-05-02T07:10:34Z</time></trkpt><trkpt lat="41.0280086165191" lon="8.9457697230963"><ele>166.5</ele><time>2026-05-02T07:10:35Z</time></trkpt><trkpt lat="41.027929580905344" lon="8.945623545218854"><ele>165.75</ele><time>2026-05-02T07:10:36Z</time></trkpt><trkpt lat="41.02781790668743" lon="8.9455218859001"><ele>165.0</ele><time>2026-05-02T07:10:37Z</time></trkpt><trkpt lat="41.02768208146839" lon="8.94543920619653"><ele>165.0</ele><time>2026-05-02T07:10:38Z</time></trkpt><trkpt lat="41.02753414779239" lon="8.94536058931547"><ele>165.0</ele><time>2026-05-02T07:10:39Z</time></trkpt><trkpt lat="41.02739615227718" lon="8.945245132717096"><ele>165.0</ele><time>2026-05-02T07:10:40Z</time></trkpt><trkpt lat="41.02725580292615" lon="8.94513247036141"><ele>163.0</ele><time>2026-05-02T07:10:41Z</time></trkpt><trkpt lat="41.02712803859021" lon="8.944991012851823"><ele>161.0</ele><time>2026-05-02T07:10:42Z</time></trkpt><trkpt lat="41.02702221613815" lon="8.944810125068905"><ele>159.0</ele><time>2026-05-02T07:10:43Z</time></trkpt><trkpt lat="41.02691104600739" lon="8.944627043795728"><ele>159.0</ele><time>2026-05-02T07:10:44Z</time></trkpt><trkpt lat="41.02681737040905" lon="8.944448655102757"><ele>159.0</ele><time>2026-05-02T07:10:45Z</time></trkpt><trkpt lat="41.026706329110425" lon="8.944309253570056"><ele>159.0</ele><time>2026-05-02T07:10:46Z</time></trkpt><trkpt lat="41.026562670761386" lon="8.94420525244354"><ele>159.0</ele><time>2026-05-02T07:10:47Z</time></trkpt><trkpt lat="41.02639904247168" lon="8.94413784878118"><ele>159.0</ele><time>2026-05-02T07:10:48Z</time></trkpt><trkpt lat="41.02622499759994" lon="8.94408959891237"><ele>159.0</ele><time>2026-05-02T07:10:49Z</time></trkpt><trkpt lat="41.026051122013676" lon="8.944038012475977"><ele>159.0</ele><time>2026-05-02T07:10:50Z</time></trkpt><trkpt lat="41.025880260005884" lon="8.943978419443082"><ele>159.0</ele><time>2026-05-02T07:10:51Z</time></trkpt><trkpt lat="41.025715597523906" lon="8.94389747039236"><ele>159.0</ele><time>2026-05-02T07:10:52Z</time></trkpt><trkpt lat="41.02554681809058" lon="8.943836525469687"><ele>156.33333333333334</ele><time>2026-05-02T07:10:53Z</time></trkpt><trkpt lat="41.025377539672384" lon="8.943775400337376"><ele>153.66666666666669</ele><time>2026-05-02T07:10:54Z</time></trkpt><trkpt lat="41.025208400294474" lon="8.943714325454927"><ele>151.0</ele><time>2026-05-02T07:10:55Z</time></trkpt><trkpt lat="41.0250365419324" lon="8.94367443845617"><ele>149.66666666666669</ele><time>2026-05-02T07:10:56Z</time></trkpt><trkpt lat="41.02486756454491" lon="8.943611947685618"><ele>148.33333333333334</ele><time>2026-05-02T07:10:57Z</time></trkpt><trkpt lat="41.02469855924441" lon="8.94355175688556"><ele>147.0</ele><time>2026-05-02T07:10:58Z</time></trkpt><trkpt lat="41.02453544548694" lon="8.94347132675522"><ele>147.0</ele><time>2026-05-02T07:10:59Z</time></trkpt><trkpt lat="41.024370870609715" lon="8.943412203954338"><ele>147.0</ele><time>2026-05-02T07:11:00Z</time></trkpt><trkpt lat="41.02420829578209" lon="8.943354054003363"><ele>147.0</ele><time>2026-05-02T07:11:01Z</time></trkpt><trkpt lat="41.024048740211576" lon="8.943299554974036"><ele>148.33333333333334</ele><time>2026-05-02T07:11:02Z</time></trkpt><trkpt lat="41.02389243099304" lon="8.943256609631812"><ele>149.66666666666669</ele><time>2026-05-02T07:11:03Z</time></trkpt><trkpt lat="41.023729242056824" lon="8.943266799870985"><ele>151.0</ele><time>2026-05-02T07:11:04Z</time></trkpt><trkpt lat="41.023563503655794" lon="8.943242642670926"><ele>151.0</ele><time>2026-05-02T07:11:05Z</time></trkpt><trkpt lat="41.02339317384334" lon="8.943240691020188"><ele>151.0</ele><time>2026-05-02T07:11:06Z</time></trkpt><trkpt lat="41.02322223481163" lon="8.94323768393191"><ele>151.0</ele><time>2026-05-02T07:11:07Z</time></trkpt><trkpt lat="41.02304858477385" lon="8.943229482832402"><ele>148.0</ele><time>2026-05-02T07:11:08Z</time></trkpt><trkpt lat="41.02287415409664" lon="8.94321491565883"><ele>145.0</ele><time>2026-05-02T07:11:09Z</time></trkpt><trkpt lat="41.022696916770094" lon="8.94319695106685"><ele>142.0</ele><time>2026-05-02T07:11:10Z</time></trkpt><trkpt lat="41.02251984542973" lon="8.943179003886609"><ele>139.66666666666669</ele><time>2026-05-02T07:11:11Z</time></trkpt><trkpt lat="41.022341547612946" lon="8.943160932396077"><ele>137.33333333333334</ele><time>2026-05-02T07:11:12Z</time></trkpt><trkpt lat="41.02216214839556" lon="8.943142749272006"><ele>135.0</ele><time>2026-05-02T07:11:13Z</time></trkpt><trkpt lat="41.02198300216682" lon="8.943142970067251"><ele>135.0</ele><time>2026-05-02T07:11:14Z</time></trkpt><trkpt lat="41.02180419996804" lon="8.943123252825595"><ele>135.0</ele><time>2026-05-02T07:11:15Z</time></trkpt><trkpt lat="41.0216241424712" lon="8.943104560663905"><ele>135.0</ele><time>2026-05-02T07:11:16Z</time></trkpt><trkpt lat="41.02144040840022" lon="8.943082196473885"><ele>134.0</ele><time>2026-05-02T07:11:17Z</time></trkpt><trkpt lat="41.02125551483916" lon="8.943057218816367"><ele>133.0</ele><time>2026-05-02T07:11:18Z</time></trkpt><trkpt lat="41.02106811254757" lon="8.943030515091142"><ele>132.0</ele><time>2026-05-02T07:11:19Z</time></trkpt><trkpt lat="41.020878651222745" lon="8.94300964632437"><ele>131.0</ele><time>2026-05-02T07:11:20Z</time></trkpt><trkpt lat="41.02068857369295" lon="8.942990492351107"><ele>130.0</ele><time>2026-05-02T07:11:21Z</time></trkpt><trkpt lat="41.02049852077938" lon="8.942968864441092"><ele>129.0</ele><time>2026-05-02T07:11:22Z</time></trkpt><trkpt lat="41.02030768275613" lon="8.942943742019292"><ele>129.0</ele><time>2026-05-02T07:11:23Z</time></trkpt><trkpt lat="41.02011505332517" lon="8.942935469534765"><ele>129.0</ele><time>2026-05-02T07:11:24Z</time></trkpt><trkpt lat="41.01992003758614" lon="8.94292691896398"><ele>129.0</ele><time>2026-05-02T07:11:25Z</time></trkpt><trkpt lat="41.01972143726595" lon="8.942919854307586"><ele>128.33333333333334</ele><time>2026-05-02T07:11:26Z</time></trkpt><trkpt lat="41.019521521936106" lon="8.942909240522601"><ele>127.66666666666667</ele><time>2026-05-02T07:11:27Z</time></trkpt><trkpt lat="41.01932227807572" lon="8.942894563687618"><ele>127.0</ele><time>2026-05-02T07:11:28Z</time></trkpt><trkpt lat="41.01912256236882" lon="8.942878015626091"><ele>126.0</ele><time>2026-05-02T07:11:29Z</time></trkpt><trkpt lat="41.018921587964016" lon="8.942860888334858"><ele>125.0</ele><time>2026-05-02T07:11:30Z</time></trkpt><trkpt lat="41.018720425418365" lon="8.942850245942433"><ele>124.0</ele><time>2026-05-02T07:11:31Z</time></trkpt><trkpt lat="41.01851951778546" lon="8.942842283771505"><ele>124.33333333333334</ele><time>2026-05-02T07:11:32Z</time></trkpt><trkpt lat="41.018317961433745" lon="8.942830216582164"><ele>124.66666666666666</ele><time>2026-05-02T07:11:33Z</time></trkpt><trkpt lat="41.018118055022455" lon="8.942816760731874"><ele>125.0</ele><time>2026-05-02T07:11:34Z</time></trkpt><trkpt lat="41.01791982927833" lon="8.942801690674065"><ele>125.0</ele><time>2026-05-02T07:11:35Z</time></trkpt><trkpt lat="41.017733960284815" lon="8.942788799895638"><ele>125.0</ele><time>2026-05-02T07:11:36Z</time></trkpt><trkpt lat="41.01755483894582" lon="8.942776767745341"><ele>125.0</ele><time>2026-05-02T07:11:37Z</time></trkpt><trkpt lat="41.01738287885796" lon="8.942776225670231"><ele>127.0</ele><time>2026-05-02T07:11:38Z</time></trkpt><trkpt lat="41.01722016932009" lon="8.942701774003748"><ele>129.0</ele><time>2026-05-02T07:11:39Z</time></trkpt><trkpt lat="41.017087051573874" lon="8.942621590603578"><ele>131.0</ele><time>2026-05-02T07:11:40Z</time></trkpt><trkpt lat="41.01695859514028" lon="8.942502623820136"><ele>131.0</ele><time>2026-05-02T07:11:41Z</time></trkpt><trkpt lat="41.01682706664845" lon="8.942344827980794"><ele>131.0</ele><time>2026-05-02T07:11:42Z</time></trkpt><trkpt lat="41.01669574572436" lon="8.94217689582909"><ele>131.0</ele><time>2026-05-02T07:11:43Z</time></trkpt><trkpt lat="41.01656658841642" lon="8.942006461946542"><ele>131.0</ele><time>2026-05-02T07:11:44Z</time></trkpt><trkpt lat="41.01646340712307" lon="8.941824540713522"><ele>131.0</ele><time>2026-05-02T07:11:45Z</time></trkpt><trkpt lat="41.01637009006935" lon="8.941617276444301"><ele>131.0</ele><time>2026-05-02T07:11:46Z</time></trkpt><trkpt lat="41.0162906981321" lon="8.941379778102702"><ele>130.0</ele><time>2026-05-02T07:11:47Z</time></trkpt><trkpt lat="41.01621228779466" lon="8.941135454055772"><ele>129.0</ele><time>2026-05-02T07:11:48Z</time></trkpt><trkpt lat="41.01613144778686" lon="8.940894178093881"><ele>128.0</ele><time>2026-05-02T07:11:49Z</time></trkpt><trkpt lat="41.01604915169836" lon="8.940649203554303"><ele>128.0</ele><time>2026-05-02T07:11:50Z</time></trkpt><trkpt lat="41.01596763761251" lon="8.940409207418384"><ele>128.0</ele><time>2026-05-02T07:11:51Z</time></trkpt><trkpt lat="41.01588904516353" lon="8.94016863454237"><ele>128.0</ele><time>2026-05-02T07:11:52Z</time></trkpt><trkpt lat="41.01581059389637" lon="8.939929575820031"><ele>130.0</ele><time>2026-05-02T07:11:53Z</time></trkpt><trkpt lat="41.01573522006855" lon="8.939694699952856"><ele>132.0</ele><time>2026-05-02T07:11:54Z</time></trkpt><trkpt lat="41.015655231103544" lon="8.939463643544647"><ele>134.0</ele><time>2026-05-02T07:11:55Z</time></trkpt><trkpt lat="41.015573956004964" lon="8.939231404514398"><ele>133.66666666666666</ele><time>2026-05-02T07:11:56Z</time></trkpt><trkpt lat="41.01549322156234" lon="8.938999997994685"><ele>133.33333333333334</ele><time>2026-05-02T07:11:57Z</time></trkpt><trkpt lat="41.01541415579973" lon="8.938767902301208"><ele>133.0</ele><time>2026-05-02T07:11:58Z</time></trkpt><trkpt lat="41.015334368465986" lon="8.93853670038442"><ele>133.0</ele><time>2026-05-02T07:11:59Z</time></trkpt><trkpt lat="41.015256247261384" lon="8.938303872768978"><ele>133.0</ele><time>2026-05-02T07:12:00Z</time></trkpt><trkpt lat="41.01518052249748" lon="8.938070486304667"><ele>133.0</ele><time>2026-05-02T07:12:01Z</time></trkpt><trkpt lat="41.01511149957385" lon="8.937833562399263"><ele>133.0</ele><time>2026-05-02T07:12:02Z</time></trkpt><trkpt lat="41.01505080262754" lon="8.937590198842203"><ele>133.0</ele><time>2026-05-02T07:12:03Z</time></trkpt><trkpt lat="41.01500942993204" lon="8.937335851430177"><ele>133.0</ele><time>2026-05-02T07:12:04Z</time></trkpt><trkpt lat="41.014976324301244" lon="8.9370756848594"><ele>133.33333333333334</ele><time>2026-05-02T07:12:05Z</time></trkpt><trkpt lat="41.01492874990789" lon="8.93681715259558"><ele>133.66666666666666</ele><time>2026-05-02T07:12:06Z</time></trkpt><trkpt lat="41.01486847485349" lon="8.93655946656827"><ele>134.0</ele><time>2026-05-02T07:12:07Z</time></trkpt><trkpt lat="41.014799298444764" lon="8.936306188093278"><ele>134.0</ele><time>2026-05-02T07:12:08Z</time></trkpt><trkpt lat="41.014726390522185" lon="8.936050452183744"><ele>134.0</ele><time>2026-05-02T07:12:09Z</time></trkpt><trkpt lat="41.01465708281851" lon="8.935797698902912"><ele>134.0</ele><time>2026-05-02T07:12:10Z</time></trkpt><trkpt lat="41.01458522013532" lon="8.93554758392777"><ele>132.33333333333331</ele><time>2026-05-02T07:12:11Z</time></trkpt><trkpt lat="41.01450578834634" lon="8.935301380001365"><ele>130.66666666666666</ele><time>2026-05-02T07:12:12Z</time></trkpt><trkpt lat="41.01441117467271" lon="8.935064246211144"><ele>129.0</ele><time>2026-05-02T07:12:13Z</time></trkpt><trkpt lat="41.014300017868145" lon="8.934837680204486"><ele>128.66666666666666</ele><time>2026-05-02T07:12:14Z</time></trkpt><trkpt lat="41.014187180834476" lon="8.934612270071874"><ele>128.33333333333331</ele><time>2026-05-02T07:12:15Z</time></trkpt><trkpt lat="41.01407267844851" lon="8.934385514806465"><ele>128.0</ele><time>2026-05-02T07:12:16Z</time></trkpt><trkpt lat="41.013957580782765" lon="8.934156447836893"><ele>127.0</ele><time>2026-05-02T07:12:17Z</time></trkpt><trkpt lat="41.01384319631533" lon="8.933927048288096"><ele>126.0</ele><time>2026-05-02T07:12:18Z</time></trkpt><trkpt lat="41.01372864247921" lon="8.933692170552689"><ele>125.0</ele><time>2026-05-02T07:12:19Z</time></trkpt><trkpt lat="41.01361192773942" lon="8.933459339701018"><ele>126.33333333333333</ele><time>2026-05-02T07:12:20Z</time></trkpt><trkpt lat="41.01349831191492" lon="8.933227114614237"><ele>127.66666666666666</ele><time>2026-05-02T07:12:21Z</time></trkpt><trkpt lat="41.01338372264124" lon="8.932994466763736"><ele>129.0</ele><time>2026-05-02T07:12:22Z</time></trkpt><trkpt lat="41.01326937160332" lon="8.932766746695554"><ele>126.66666666666666</ele><time>2026-05-02T07:12:23Z</time></trkpt><trkpt lat="41.01315171231068" lon="8.932542449443709"><ele>124.33333333333333</ele><time>2026-05-02T07:12:24Z</time></trkpt><trkpt lat="41.013030214821846" lon="8.932324095661636"><ele>122.0</ele><time>2026-05-02T07:12:25Z</time></trkpt><trkpt lat="41.01290682326706" lon="8.932107874651892"><ele>122.0</ele><time>2026-05-02T07:12:26Z</time></trkpt><trkpt lat="41.01278283463573" lon="8.93189145750295"><ele>122.0</ele><time>2026-05-02T07:12:27Z</time></trkpt><trkpt lat="41.01266074583991" lon="8.931674106962298"><ele>122.0</ele><time>2026-05-02T07:12:28Z</time></trkpt><trkpt lat="41.0125384739292" lon="8.931456853728797"><ele>120.33333333333333</ele><time>2026-05-02T07:12:29Z</time></trkpt><trkpt lat="41.01241538918313" lon="8.93123728850335"><ele>118.66666666666666</ele><time>2026-05-02T07:12:30Z</time></trkpt><trkpt lat="41.01229227740734" lon="8.93102007397164"><ele>117.0</ele><time>2026-05-02T07:12:31Z</time></trkpt><trkpt lat="41.01216881748022" lon="8.930800105008739"><ele>113.0</ele><time>2026-05-02T07:12:32Z</time></trkpt><trkpt lat="41.01204356560017" lon="8.930578208137383"><ele>109.0</ele><time>2026-05-02T07:12:33Z</time></trkpt><trkpt lat="41.01191776808179" lon="8.930354859911217"><ele>105.0</ele><time>2026-05-02T07:12:34Z</time></trkpt><trkpt lat="41.01179118862461" lon="8.930130652783626"><ele>103.66666666666666</ele><time>2026-05-02T07:12:35Z</time></trkpt><trkpt lat="41.011666204834505" lon="8.929907828255223"><ele>102.33333333333333</ele><time>2026-05-02T07:12:36Z</time></trkpt><trkpt lat="41.01154277442501" lon="8.929685910158705"><ele>101.0</ele><time>2026-05-02T07:12:37Z</time></trkpt><trkpt lat="41.01142186820436" lon="8.9294687752011"><ele>102.33333333333333</ele><time>2026-05-02T07:12:38Z</time></trkpt><trkpt lat="41.011301576050485" lon="8.929254593634253"><ele>103.66666666666666</ele><time>2026-05-02T07:12:39Z</time></trkpt><trkpt lat="41.01118303584005" lon="8.929040941827587"><ele>105.0</ele><time>2026-05-02T07:12:40Z</time></trkpt><trkpt lat="41.01106682592406" lon="8.928826052144595"><ele>105.0</ele><time>2026-05-02T07:12:41Z</time></trkpt><trkpt lat="41.01095125764646" lon="8.928615746068955"><ele>105.0</ele><time>2026-05-02T07:12:42Z</time></trkpt><trkpt lat="41.010833477420114" lon="8.928412285965265"><ele>105.0</ele><time>2026-05-02T07:12:43Z</time></trkpt><trkpt lat="41.01070121101513" lon="8.928227944176976"><ele>107.66666666666666</ele><time>2026-05-02T07:12:44Z</time></trkpt><trkpt lat="41.01056246818506" lon="8.928052191847236"><ele>110.33333333333333</ele><time>2026-05-02T07:12:45Z</time></trkpt><trkpt lat="41.010418683981854" lon="8.927881222362076"><ele>113.0</ele><time>2026-05-02T07:12:46Z</time></trkpt><trkpt lat="41.0102718733119" lon="8.927709536334163"><ele>110.66666666666666</ele><time>2026-05-02T07:12:47Z</time></trkpt><trkpt lat="41.01011535494378" lon="8.927552183007064"><ele>108.33333333333334</ele><time>2026-05-02T07:12:48Z</time></trkpt><trkpt lat="41.00996141541908" lon="8.927407981589173"><ele>106.0</ele><time>2026-05-02T07:12:49Z</time></trkpt><trkpt lat="41.00979062347803" lon="8.92727331173412"><ele>106.0</ele><time>2026-05-02T07:12:50Z</time></trkpt><trkpt lat="41.009633357680876" lon="8.927155116390542"><ele>106.0</ele><time>2026-05-02T07:12:51Z</time></trkpt><trkpt lat="41.00947064880739" lon="8.927045707764654"><ele>106.0</ele><time>2026-05-02T07:12:52Z</time></trkpt><trkpt lat="41.009349253201314" lon="8.926881695368728"><ele>101.33333333333334</ele><time>2026-05-02T07:12:53Z</time></trkpt><trkpt lat="41.009221882209104" lon="8.926710975033638"><ele>96.66666666666667</ele><time>2026-05-02T07:12:54Z</time></trkpt><trkpt lat="41.00911409937295" lon="8.926511319012926"><ele>92.0</ele><time>2026-05-02T07:12:55Z</time></trkpt><trkpt lat="41.009010510494214" lon="8.926300433731612"><ele>90.0</ele><time>2026-05-02T07:12:56Z</time></trkpt><trkpt lat="41.00891352830024" lon="8.926076434004607"><ele>88.0</ele><time>2026-05-02T07:12:57Z</time></trkpt><trkpt lat="41.008834389646864" lon="8.9258503853736"><ele>86.0</ele><time>2026-05-02T07:12:58Z</time></trkpt><trkpt lat="41.008745011128674" lon="8.925631777771391"><ele>85.33333333333334</ele><time>2026-05-02T07:12:59Z</time></trkpt><trkpt lat="41.00866147580187" lon="8.92542030216981"><ele>84.66666666666667</ele><time>2026-05-02T07:13:00Z</time></trkpt><trkpt lat="41.00857853183652" lon="8.925221078343258"><ele>84.0</ele><time>2026-05-02T07:13:01Z</time></trkpt><trkpt lat="41.00849570939872" lon="8.925036045380047"><ele>83.25</ele><time>2026-05-02T07:13:02Z</time></trkpt><trkpt lat="41.00840310021802" lon="8.924885712645269"><ele>82.5</ele><time>2026-05-02T07:13:03Z</time></trkpt><trkpt lat="41.008283311959644" lon="8.924773182783378"><ele>81.75</ele><time>2026-05-02T07:13:04Z</time></trkpt><trkpt lat="41.008135224004484" lon="8.924715906334654"><ele>81.0</ele><time>2026-05-02T07:13:05Z</time></trkpt><trkpt lat="41.007971677218784" lon="8.924661819234654"><ele>79.33333333333333</ele><time>2026-05-02T07:13:06Z</time></trkpt><trkpt lat="41.007859770018825" lon="8.924523819339894"><ele>77.66666666666666</ele><time>2026-05-02T07:13:07Z</time></trkpt><trkpt lat="41.00777474454657" lon="8.924358906414032"><ele>76.0</ele><time>2026-05-02T07:13:08Z</time></trkpt><trkpt lat="41.00771166758148" lon="8.924164052811474"><ele>76.0</ele><time>2026-05-02T07:13:09Z</time></trkpt><trkpt lat="41.0076401330872" lon="8.923969865358435"><ele>76.0</ele><time>2026-05-02T07:13:10Z</time></trkpt><trkpt lat="41.00758740062099" lon="8.923798259773351"><ele>76.0</ele><time>2026-05-02T07:13:11Z</time></trkpt><trkpt lat="41.00755623252106" lon="8.923628457023703"><ele>76.0</ele><time>2026-05-02T07:13:12Z</time></trkpt><trkpt lat="41.00756795892218" lon="8.923453755135121"><ele>78.66666666666666</ele><time>2026-05-02T07:13:13Z</time></trkpt><trkpt lat="41.00762656127252" lon="8.923275531498918"><ele>81.33333333333333</ele><time>2026-05-02T07:13:14Z</time></trkpt><trkpt lat="41.00770572095041" lon="8.923091189766701"><ele>84.0</ele><time>2026-05-02T07:13:15Z</time></trkpt><trkpt lat="41.00777185667396" lon="8.922911246872953"><ele>84.0</ele><time>2026-05-02T07:13:16Z</time></trkpt><trkpt lat="41.00779171542777" lon="8.922718842759593"><ele>84.0</ele><time>2026-05-02T07:13:17Z</time></trkpt><trkpt lat="41.00776915686476" lon="8.922515696008025"><ele>84.0</ele><time>2026-05-02T07:13:18Z</time></trkpt><trkpt lat="41.007709536302976" lon="8.922307534666595"><ele>83.66666666666667</ele><time>2026-05-02T07:13:19Z</time></trkpt><trkpt lat="41.00763775954386" lon="8.922094503045482"><ele>83.33333333333334</ele><time>2026-05-02T07:13:20Z</time></trkpt><trkpt lat="41.007560066670216" lon="8.921879607287288"><ele>83.0</ele><time>2026-05-02T07:13:21Z</time></trkpt><trkpt lat="41.00747273328213" lon="8.921665983907538"><ele>86.33333333333334</ele><time>2026-05-02T07:13:22Z</time></trkpt><trkpt lat="41.00737804158509" lon="8.921453939968568"><ele>89.66666666666667</ele><time>2026-05-02T07:13:23Z</time></trkpt><trkpt lat="41.00727892908282" lon="8.92124026870438"><ele>93.0</ele><time>2026-05-02T07:13:24Z</time></trkpt><trkpt lat="41.00717995634368" lon="8.921027903544594"><ele>89.0</ele><time>2026-05-02T07:13:25Z</time></trkpt><trkpt lat="41.00709304385964" lon="8.920823473450925"><ele>85.0</ele><time>2026-05-02T07:13:26Z</time></trkpt><trkpt lat="41.007027333261384" lon="8.92063687792121"><ele>81.0</ele><time>2026-05-02T07:13:27Z</time></trkpt><trkpt lat="41.00699839699833" lon="8.92045382316189"><ele>81.0</ele><time>2026-05-02T07:13:28Z</time></trkpt><trkpt lat="41.00702155332546" lon="8.920286912697806"><ele>81.0</ele><time>2026-05-02T07:13:29Z</time></trkpt><trkpt lat="41.007101977752875" lon="8.920142761424009"><ele>81.0</ele><time>2026-05-02T07:13:30Z</time></trkpt><trkpt lat="41.00717803743926" lon="8.919972431630642"><ele>81.0</ele><time>2026-05-02T07:13:31Z</time></trkpt><trkpt lat="41.00728294345455" lon="8.919828951586426"><ele>82.0</ele><time>2026-05-02T07:13:32Z</time></trkpt><trkpt lat="41.007405938600975" lon="8.919744402365462"><ele>83.0</ele><time>2026-05-02T07:13:33Z</time></trkpt><trkpt lat="41.00755161906795" lon="8.919719499732448"><ele>84.0</ele><time>2026-05-02T07:13:34Z</time></trkpt><trkpt lat="41.00770889197069" lon="8.919670152460698"><ele>85.0</ele><time>2026-05-02T07:13:35Z</time></trkpt><trkpt lat="41.00786886770293" lon="8.919650580722276"><ele>82.0</ele><time>2026-05-02T07:13:36Z</time></trkpt><trkpt lat="41.008031916406445" lon="8.919622572321476"><ele>79.0</ele><time>2026-05-02T07:13:37Z</time></trkpt><trkpt lat="41.00819357178963" lon="8.919595870141217"><ele>76.0</ele><time>2026-05-02T07:13:38Z</time></trkpt><trkpt lat="41.008362848153844" lon="8.919551233602043"><ele>75.75</ele><time>2026-05-02T07:13:39Z</time></trkpt><trkpt lat="41.00851787263317" lon="8.91949092718977"><ele>75.5</ele><time>2026-05-02T07:13:40Z</time></trkpt><trkpt lat="41.00865437553494" lon="8.91942747185859"><ele>75.25</ele><time>2026-05-02T07:13:41Z</time></trkpt><trkpt lat="41.00876765170205" lon="8.919357574977417"><ele>75.0</ele><time>2026-05-02T07:13:42Z</time></trkpt><trkpt lat="41.00887110379974" lon="8.919261443781096"><ele>77.5</ele><time>2026-05-02T07:13:43Z</time></trkpt><trkpt lat="41.00896439943597" lon="8.91912799107821"><ele>80.0</ele><time>2026-05-02T07:13:44Z</time></trkpt><trkpt lat="41.0090357950339" lon="8.918959472391652"><ele>82.5</ele><time>2026-05-02T07:13:45Z</time></trkpt><trkpt lat="41.00909643998398" lon="8.918776475032182"><ele>85.0</ele><time>2026-05-02T07:13:46Z</time></trkpt><trkpt lat="41.009155159206394" lon="8.918588099386444"><ele>86.0</ele><time>2026-05-02T07:13:47Z</time></trkpt><trkpt lat="41.00921330529067" lon="8.918395652298676"><ele>87.0</ele><time>2026-05-02T07:13:48Z</time></trkpt><trkpt lat="41.00925851514462" lon="8.91819045910019"><ele>88.0</ele><time>2026-05-02T07:13:49Z</time></trkpt><trkpt lat="41.00927775779286" lon="8.917975059794431"><ele>88.0</ele><time>2026-05-02T07:13:50Z</time></trkpt><trkpt lat="41.00926881450771" lon="8.917753256795445"><ele>88.0</ele><time>2026-05-02T07:13:51Z</time></trkpt><trkpt lat="41.00924381826803" lon="8.917523871394703"><ele>88.0</ele><time>2026-05-02T07:13:52Z</time></trkpt><trkpt lat="41.009216827022485" lon="8.917303112734556"><ele>89.66666666666666</ele><time>2026-05-02T07:13:53Z</time></trkpt><trkpt lat="41.00919187192335" lon="8.917072596962571"><ele>91.33333333333333</ele><time>2026-05-02T07:13:54Z</time></trkpt><trkpt lat="41.00916696622774" lon="8.916845938803846"><ele>93.0</ele><time>2026-05-02T07:13:55Z</time></trkpt><trkpt lat="41.009138412418764" lon="8.916632570099702"><ele>96.0</ele><time>2026-05-02T07:13:56Z</time></trkpt><trkpt lat="41.009112774428964" lon="8.916443083024113"><ele>99.0</ele><time>2026-05-02T07:13:57Z</time></trkpt><trkpt lat="41.009090101516996" lon="8.916258882120243"><ele>102.0</ele><time>2026-05-02T07:13:58Z</time></trkpt><trkpt lat="41.009078517740534" lon="8.916079572303806"><ele>105.0</ele><time>2026-05-02T07:13:59Z</time></trkpt><trkpt lat="41.009054238753734" lon="8.915904953605652"><ele>106.0</ele><time>2026-05-02T07:14:00Z</time></trkpt><trkpt lat="41.00906107301387" lon="8.915737322583977"><ele>107.0</ele><time>2026-05-02T07:14:01Z</time></trkpt><trkpt lat="41.00909520499415" lon="8.915570381501624"><ele>108.0</ele><time>2026-05-02T07:14:02Z</time></trkpt><trkpt lat="41.00909722626536" lon="8.915347807402645"><ele>109.0</ele><time>2026-05-02T07:14:03Z</time></trkpt><trkpt lat="41.00913242179586" lon="8.915152722424649"><ele>110.33333333333334</ele><time>2026-05-02T07:14:04Z</time></trkpt><trkpt lat="41.00915152953849" lon="8.914934180723808"><ele>111.66666666666666</ele><time>2026-05-02T07:14:05Z</time></trkpt><trkpt lat="41.00917866159976" lon="8.91471629994153"><ele>113.0</ele><time>2026-05-02T07:14:06Z</time></trkpt><trkpt lat="41.00920509239746" lon="8.91449521527142"><ele>111.0</ele><time>2026-05-02T07:14:07Z</time></trkpt><trkpt lat="41.00923537205422" lon="8.914267721030589"><ele>109.0</ele><time>2026-05-02T07:14:08Z</time></trkpt><trkpt lat="41.00926703569819" lon="8.91403474775016"><ele>107.0</ele><time>2026-05-02T07:14:09Z</time></trkpt><trkpt lat="41.00928730440934" lon="8.913803502384367"><ele>107.0</ele><time>2026-05-02T07:14:10Z</time></trkpt><trkpt lat="41.00928213355801" lon="8.913574166807669"><ele>107.0</ele><time>2026-05-02T07:14:11Z</time></trkpt><trkpt lat="41.009264793126505" lon="8.913344649291833"><ele>107.0</ele><time>2026-05-02T07:14:12Z</time></trkpt><trkpt lat="41.00922327778396" lon="8.913109435762758"><ele>107.33333333333333</ele><time>2026-05-02T07:14:13Z</time></trkpt><trkpt lat="41.00917550183492" lon="8.91288317210525"><ele>107.66666666666666</ele><time>2026-05-02T07:14:14Z</time></trkpt><trkpt lat="41.00912961629907" lon="8.912653107069339"><ele>108.0</ele><time>2026-05-02T07:14:15Z</time></trkpt><trkpt lat="41.00908556730386" lon="8.912429997323033"><ele>108.5</ele><time>2026-05-02T07:14:16Z</time></trkpt><trkpt lat="41.00904318298096" lon="8.912228364266145"><ele>109.0</ele><time>2026-05-02T07:14:17Z</time></trkpt><trkpt lat="41.00900085825517" lon="8.912039341408809"><ele>109.5</ele><time>2026-05-02T07:14:18Z</time></trkpt><trkpt lat="41.00894853097704" lon="8.911868695513569"><ele>110.0</ele><time>2026-05-02T07:14:19Z</time></trkpt><trkpt lat="41.008870128100966" lon="8.911709133189024"><ele>110.0</ele><time>2026-05-02T07:14:20Z</time></trkpt><trkpt lat="41.00876170804642" lon="8.91157316876039"><ele>110.0</ele><time>2026-05-02T07:14:21Z</time></trkpt><trkpt lat="41.008638094927534" lon="8.911501608894891"><ele>110.0</ele><time>2026-05-02T07:14:22Z</time></trkpt><trkpt lat="41.008489079186205" lon="8.91148372742926"><ele>110.0</ele><time>2026-05-02T07:14:23Z</time></trkpt><trkpt lat="41.008323401752946" lon="8.911508782440375"><ele>111.0</ele><time>2026-05-02T07:14:24Z</time></trkpt><trkpt lat="41.00814968540893" lon="8.911538499784939"><ele>112.0</ele><time>2026-05-02T07:14:25Z</time></trkpt><trkpt lat="41.00796989107527" lon="8.911560182241907"><ele>113.0</ele><time>2026-05-02T07:14:26Z</time></trkpt><trkpt lat="41.00779541768691" lon="8.911601872579418"><ele>113.0</ele><time>2026-05-02T07:14:27Z</time></trkpt><trkpt lat="41.00762726413544" lon="8.911688109105322"><ele>113.0</ele><time>2026-05-02T07:14:28Z</time></trkpt><trkpt lat="41.00745853534097" lon="8.911786265589281"><ele>113.0</ele><time>2026-05-02T07:14:29Z</time></trkpt><trkpt lat="41.00728663883055" lon="8.911877486650914"><ele>114.33333333333333</ele><time>2026-05-02T07:14:30Z</time></trkpt><trkpt lat="41.007109822934716" lon="8.911962141359542"><ele>115.66666666666666</ele><time>2026-05-02T07:14:31Z</time></trkpt><trkpt lat="41.00693106393239" lon="8.912051194327267"><ele>117.0</ele><time>2026-05-02T07:14:32Z</time></trkpt><trkpt lat="41.00675296271508" lon="8.912135812008794"><ele>118.0</ele><time>2026-05-02T07:14:33Z</time></trkpt><trkpt lat="41.00657724612448" lon="8.912218502770946"><ele>119.0</ele><time>2026-05-02T07:14:34Z</time></trkpt><trkpt lat="41.00641937725753" lon="8.912298985180255"><ele>120.0</ele><time>2026-05-02T07:14:35Z</time></trkpt><trkpt lat="41.006269853877285" lon="8.912357464000072"><ele>120.0</ele><time>2026-05-02T07:14:36Z</time></trkpt><trkpt lat="41.00612497529856" lon="8.912365972830305"><ele>120.0</ele><time>2026-05-02T07:14:37Z</time></trkpt><trkpt lat="41.00598833720857" lon="8.912433345797755"><ele>120.0</ele><time>2026-05-02T07:14:38Z</time></trkpt><trkpt lat="41.00585093681638" lon="8.91229415316173"><ele>121.75</ele><time>2026-05-02T07:14:39Z</time></trkpt><trkpt lat="41.005744395668465" lon="8.912167749816565"><ele>123.5</ele><time>2026-05-02T07:14:40Z</time></trkpt><trkpt lat="41.00567099974048" lon="8.912003934576665"><ele>125.25</ele><time>2026-05-02T07:14:41Z</time></trkpt><trkpt lat="41.005618609532675" lon="8.911825440805009"><ele>127.0</ele><time>2026-05-02T07:14:42Z</time></trkpt><trkpt lat="41.00555216401087" lon="8.91163513617031"><ele>127.0</ele><time>2026-05-02T07:14:43Z</time></trkpt><trkpt lat="41.00547533673833" lon="8.91144430773676"><ele>127.0</ele><time>2026-05-02T07:14:44Z</time></trkpt><trkpt lat="41.00538716640079" lon="8.911252341051147"><ele>127.0</ele><time>2026-05-02T07:14:45Z</time></trkpt><trkpt lat="41.00530074315104" lon="8.91105429040431"><ele>127.33333333333334</ele><time>2026-05-02T07:14:46Z</time></trkpt><trkpt lat="41.005218684203435" lon="8.91084567693626"><ele>127.66666666666666</ele><time>2026-05-02T07:14:47Z</time></trkpt><trkpt lat="41.0051365191355" lon="8.91063843886241"><ele>128.0</ele><time>2026-05-02T07:14:48Z</time></trkpt><trkpt lat="41.005052212314276" lon="8.910434211552548"><ele>131.66666666666666</ele><time>2026-05-02T07:14:49Z</time></trkpt><trkpt lat="41.00496879223073" lon="8.910228687467749"><ele>135.33333333333334</ele><time>2026-05-02T07:14:50Z</time></trkpt><trkpt lat="41.0048867863709" lon="8.910027921617178"><ele>139.0</ele><time>2026-05-02T07:14:51Z</time></trkpt><trkpt lat="41.00480839594244" lon="8.909829060924821"><ele>139.0</ele><time>2026-05-02T07:14:52Z</time></trkpt><trkpt lat="41.004732586101895" lon="8.909638781587049"><ele>139.0</ele><time>2026-05-02T07:14:53Z</time></trkpt><trkpt lat="41.00465630990303" lon="8.909474582119698"><ele>139.0</ele><time>2026-05-02T07:14:54Z</time></trkpt><trkpt lat="41.00455525587484" lon="8.909348980702942"><ele>139.0</ele><time>2026-05-02T07:14:55Z</time></trkpt><trkpt lat="41.004417392649934" lon="8.909255488432034"><ele>138.0</ele><time>2026-05-02T07:14:56Z</time></trkpt><trkpt lat="41.004259797872194" lon="8.90918833644111"><ele>137.0</ele><time>2026-05-02T07:14:57Z</time></trkpt><trkpt lat="41.00409711221202" lon="8.909125964226915"><ele>136.0</ele><time>2026-05-02T07:14:58Z</time></trkpt><trkpt lat="41.0039341682006" lon="8.909059162638306"><ele>138.66666666666669</ele><time>2026-05-02T07:14:59Z</time></trkpt><trkpt lat="41.003771715729194" lon="8.908980707438078"><ele>141.33333333333334</ele><time>2026-05-02T07:15:00Z</time></trkpt><trkpt lat="41.00360795890971" lon="8.908903024010742"><ele>144.0</ele><time>2026-05-02T07:15:01Z</time></trkpt><trkpt lat="41.00344138187215" lon="8.908826076795261"><ele>146.33333333333334</ele><time>2026-05-02T07:15:02Z</time></trkpt><trkpt lat="41.00327289842055" lon="8.908749138239441"><ele>148.66666666666669</ele><time>2026-05-02T07:15:03Z</time></trkpt><trkpt lat="41.00310598083815" lon="8.90867374921045"><ele>151.0</ele><time>2026-05-02T07:15:04Z</time></trkpt><trkpt lat="41.00295073236461" lon="8.908632194652931"><ele>151.0</ele><time>2026-05-02T07:15:05Z</time></trkpt><trkpt lat="41.00279078672191" lon="8.908639761647525"><ele>151.0</ele><time>2026-05-02T07:15:06Z</time></trkpt><trkpt lat="41.00262680205061" lon="8.908690641745778"><ele>151.0</ele><time>2026-05-02T07:15:07Z</time></trkpt><trkpt lat="41.00246427053911" lon="8.908749459424772"><ele>151.5</ele><time>2026-05-02T07:15:08Z</time></trkpt><trkpt lat="41.002303619123545" lon="8.908798743158318"><ele>152.0</ele><time>2026-05-02T07:15:09Z</time></trkpt><trkpt lat="41.00216044926258" lon="8.908836282938786"><ele>152.5</ele><time>2026-05-02T07:15:10Z</time></trkpt><trkpt lat="41.00202833387476" lon="8.90886711424748"><ele>153.0</ele><time>2026-05-02T07:15:11Z</time></trkpt><trkpt lat="41.00190304194933" lon="8.90888151522588"><ele>153.0</ele><time>2026-05-02T07:15:12Z</time></trkpt><trkpt lat="41.001781970808445" lon="8.908866076628982"><ele>153.0</ele><time>2026-05-02T07:15:13Z</time></trkpt><trkpt lat="41.001680598145974" lon="8.908776998707435"><ele>153.0</ele><time>2026-05-02T07:15:14Z</time></trkpt><trkpt lat="41.00160736319342" lon="8.908677362892982"><ele>153.0</ele><time>2026-05-02T07:15:15Z</time></trkpt><trkpt lat="41.00155262207243" lon="8.908557874278262"><ele>153.0</ele><time>2026-05-02T07:15:16Z</time></trkpt><trkpt lat="41.00154569555471" lon="8.908403370094417"><ele>153.0</ele><time>2026-05-02T07:15:17Z</time></trkpt><trkpt lat="41.00157129428926" lon="8.908244263432557"><ele>153.0</ele><time>2026-05-02T07:15:18Z</time></trkpt><trkpt lat="41.00165597724406" lon="8.90810519571359"><ele>153.0</ele><time>2026-05-02T07:15:19Z</time></trkpt><trkpt lat="41.00177171438008" lon="8.907993973554749"><ele>150.66666666666666</ele><time>2026-05-02T07:15:20Z</time></trkpt><trkpt lat="41.00189011926137" lon="8.90786850836778"><ele>148.33333333333331</ele><time>2026-05-02T07:15:21Z</time></trkpt><trkpt lat="41.00203339615106" lon="8.907772610145868"><ele>146.0</ele><time>2026-05-02T07:15:22Z</time></trkpt><trkpt lat="41.00216204475058" lon="8.907662470114031"><ele>151.33333333333331</ele><time>2026-05-02T07:15:23Z</time></trkpt><trkpt lat="41.00226906342949" lon="8.907535172374132"><ele>156.66666666666666</ele><time>2026-05-02T07:15:24Z</time></trkpt><trkpt lat="41.00234783527054" lon="8.907370146994857"><ele>162.0</ele><time>2026-05-02T07:15:25Z</time></trkpt><trkpt lat="41.00239664544971" lon="8.907169576520968"><ele>162.0</ele><time>2026-05-02T07:15:26Z</time></trkpt><trkpt lat="41.00241502288106" lon="8.906954249225608"><ele>162.0</ele><time>2026-05-02T07:15:27Z</time></trkpt><trkpt lat="41.00240019147829" lon="8.906740051606638"><ele>162.0</ele><time>2026-05-02T07:15:28Z</time></trkpt><trkpt lat="41.00235606196356" lon="8.906527560144285"><ele>163.25</ele><time>2026-05-02T07:15:29Z</time></trkpt><trkpt lat="41.00231378091829" lon="8.90632947410915"><ele>164.5</ele><time>2026-05-02T07:15:30Z</time></trkpt><trkpt lat="41.002284169142534" lon="8.906158755211292"><ele>165.75</ele><time>2026-05-02T07:15:31Z</time></trkpt><trkpt lat="41.00226770081177" lon="8.905980413907804"><ele>167.0</ele><time>2026-05-02T07:15:32Z</time></trkpt><trkpt lat="41.00227273473999" lon="8.905800478817547"><ele>168.25</ele><time>2026-05-02T07:15:33Z</time></trkpt><trkpt lat="41.002321629511414" lon="8.905642809484961"><ele>169.5</ele><time>2026-05-02T07:15:34Z</time></trkpt><trkpt lat="41.00242453276332" lon="8.905526498623349"><ele>170.75</ele><time>2026-05-02T07:15:35Z</time></trkpt><trkpt lat="41.00252791596302" lon="8.905425268655163"><ele>172.0</ele><time>2026-05-02T07:15:36Z</time></trkpt><trkpt lat="41.00263078794468" lon="8.905324441199387"><ele>170.5</ele><time>2026-05-02T07:15:37Z</time></trkpt><trkpt lat="41.002716415519046" lon="8.905230369220943"><ele>169.0</ele><time>2026-05-02T07:15:38Z</time></trkpt><trkpt lat="41.00277086847429" lon="8.90509344548248"><ele>167.5</ele><time>2026-05-02T07:15:39Z</time></trkpt><trkpt lat="41.00278288178137" lon="8.904925553511644"><ele>166.0</ele><time>2026-05-02T07:15:40Z</time></trkpt><trkpt lat="41.002752760005365" lon="8.904755606848694"><ele>166.0</ele><time>2026-05-02T07:15:41Z</time></trkpt><trkpt lat="41.00268437493967" lon="8.90460040621053"><ele>166.0</ele><time>2026-05-02T07:15:42Z</time></trkpt><trkpt lat="41.00258964768176" lon="8.904476625665998"><ele>166.0</ele><time>2026-05-02T07:15:43Z</time></trkpt><trkpt lat="41.002489602198054" lon="8.904361891000404"><ele>166.0</ele><time>2026-05-02T07:15:44Z</time></trkpt><trkpt lat="41.002429736319066" lon="8.904208603439697"><ele>168.75</ele><time>2026-05-02T07:15:45Z</time></trkpt><trkpt lat="41.00239786066348" lon="8.904042682576913"><ele>171.5</ele><time>2026-05-02T07:15:46Z</time></trkpt><trkpt lat="41.002390659130576" lon="8.903869365703908"><ele>174.25</ele><time>2026-05-02T07:15:47Z</time></trkpt><trkpt lat="41.002425569933976" lon="8.903717326414935"><ele>177.0</ele><time>2026-05-02T07:15:48Z</time></trkpt><trkpt lat="41.00249626838071" lon="8.903594031695832"><ele>175.5</ele><time>2026-05-02T07:15:49Z</time></trkpt><trkpt lat="41.002588116000254" lon="8.903466483515418"><ele>174.0</ele><time>2026-05-02T07:15:50Z</time></trkpt><trkpt lat="41.00270021026312" lon="8.903357759653831"><ele>172.5</ele><time>2026-05-02T07:15:51Z</time></trkpt><trkpt lat="41.00277836507374" lon="8.903221877282977"><ele>171.0</ele><time>2026-05-02T07:15:52Z</time></trkpt><trkpt lat="41.00280593747527" lon="8.90305092673438"><ele>171.0</ele><time>2026-05-02T07:15:53Z</time></trkpt><trkpt lat="41.00280124557083" lon="8.902860540615794"><ele>171.0</ele><time>2026-05-02T07:15:54Z</time></trkpt><trkpt lat="41.00277823333163" lon="8.902669371900776"><ele>171.0</ele><time>2026-05-02T07:15:55Z</time></trkpt><trkpt lat="41.002741541371925" lon="8.902481202313872"><ele>171.0</ele><time>2026-05-02T07:15:56Z</time></trkpt><trkpt lat="41.00267729135911" lon="8.90230076484852"><ele>172.0</ele><time>2026-05-02T07:15:57Z</time></trkpt><trkpt lat="41.002576055467244" lon="8.902137410739524"><ele>173.0</ele><time>2026-05-02T07:15:58Z</time></trkpt><trkpt lat="41.00245841788457" lon="8.901988595731952"><ele>174.0</ele><time>2026-05-02T07:15:59Z</time></trkpt><trkpt lat="41.002342015490036" lon="8.901835214738487"><ele>175.75</ele><time>2026-05-02T07:16:00Z</time></trkpt><trkpt lat="41.00223716247755" lon="8.90168659382463"><ele>177.5</ele><time>2026-05-02T07:16:01Z</time></trkpt><trkpt lat="41.00213795925391" lon="8.901564235213668"><ele>179.25</ele><time>2026-05-02T07:16:02Z</time></trkpt><trkpt lat="41.00202080377883" lon="8.901471283122357"><ele>181.0</ele><time>2026-05-02T07:16:03Z</time></trkpt><trkpt lat="41.001884654431464" lon="8.901425724068215"><ele>181.0</ele><time>2026-05-02T07:16:04Z</time></trkpt><trkpt lat="41.00173724668474" lon="8.901422373987437"><ele>181.0</ele><time>2026-05-02T07:16:05Z</time></trkpt><trkpt lat="41.00158578438797" lon="8.901461163191813"><ele>181.0</ele><time>2026-05-02T07:16:06Z</time></trkpt><trkpt lat="41.00143589011912" lon="8.901522735705319"><ele>182.0</ele><time>2026-05-02T07:16:07Z</time></trkpt><trkpt lat="41.00127809587418" lon="8.901560287808774"><ele>183.0</ele><time>2026-05-02T07:16:08Z</time></trkpt><trkpt lat="41.001124534000084" lon="8.901607094586293"><ele>184.0</ele><time>2026-05-02T07:16:09Z</time></trkpt><trkpt lat="41.00097233148173" lon="8.901659558182178"><ele>184.0</ele><time>2026-05-02T07:16:10Z</time></trkpt><trkpt lat="41.00083344363154" lon="8.901706212012702"><ele>184.0</ele><time>2026-05-02T07:16:11Z</time></trkpt><trkpt lat="41.00071186810405" lon="8.901744819425328"><ele>184.0</ele><time>2026-05-02T07:16:12Z</time></trkpt><trkpt lat="41.00060923541652" lon="8.901779387576713"><ele>184.0</ele><time>2026-05-02T07:16:13Z</time></trkpt><trkpt lat="41.00051485220228" lon="8.901847894999847"><ele>187.25</ele><time>2026-05-02T07:16:14Z</time></trkpt><trkpt lat="41.00041032663135" lon="8.901910340891225"><ele>190.5</ele><time>2026-05-02T07:16:15Z</time></trkpt><trkpt lat="41.00031065335854" lon="8.902015262956622"><ele>193.75</ele><time>2026-05-02T07:16:16Z</time></trkpt><trkpt lat="41.00023165113903" lon="8.902147545983885"><ele>197.0</ele><time>2026-05-02T07:16:17Z</time></trkpt><trkpt lat="41.00017764150052" lon="8.902311378195453"><ele>197.0</ele><time>2026-05-02T07:16:18Z</time></trkpt><trkpt lat="41.000150261998655" lon="8.902489952797342"><ele>197.0</ele><time>2026-05-02T07:16:19Z</time></trkpt><trkpt lat="41.00013934938338" lon="8.902678055617828"><ele>197.0</ele><time>2026-05-02T07:16:20Z</time></trkpt><trkpt lat="41.00013081820044" lon="8.902854933329085"><ele>197.0</ele><time>2026-05-02T07:16:21Z</time></trkpt><trkpt lat="41.00012757208926" lon="8.903006594512965"><ele>197.2</ele><time>2026-05-02T07:16:22Z</time></trkpt><trkpt lat="41.000124006608075" lon="8.90313447344918"><ele>197.39999999999998</ele><time>2026-05-02T07:16:23Z</time></trkpt><trkpt lat="41.00009499511939" lon="8.903265803706391"><ele>197.60000000000002</ele><time>2026-05-02T07:16:24Z</time></trkpt><trkpt lat="41.00005950932715" lon="8.903402407794767"><ele>197.8</ele><time>2026-05-02T07:16:25Z</time></trkpt><trkpt lat="41.00000042208309" lon="8.903536909387256"><ele>198.0</ele><time>2026-05-02T07:16:26Z</time></trkpt><trkpt lat="40.9999222685198" lon="8.903663865096734"><ele>198.0</ele><time>2026-05-02T07:16:27Z</time></trkpt><trkpt lat="40.99985738963074" lon="8.903809498273942"><ele>198.0</ele><time>2026-05-02T07:16:28Z</time></trkpt><trkpt lat="40.99977759204219" lon="8.90393926530624"><ele>198.0</ele><time>2026-05-02T07:16:29Z</time></trkpt><trkpt lat="40.99970746468215" lon="8.90407173940968"><ele>198.0</ele><time>2026-05-02T07:16:30Z</time></trkpt><trkpt lat="40.99963268563096" lon="8.904202336884095"><ele>198.0</ele><time>2026-05-02T07:16:31Z</time></trkpt><trkpt lat="40.99954807783838" lon="8.904333056899198"><ele>198.0</ele><time>2026-05-02T07:16:32Z</time></trkpt><trkpt lat="40.999450110960986" lon="8.904431679100052"><ele>198.0</ele><time>2026-05-02T07:16:33Z</time></trkpt><trkpt lat="40.99934339760945" lon="8.904531679604332"><ele>198.0</ele><time>2026-05-02T07:16:34Z</time></trkpt><trkpt lat="40.99922130276995" lon="8.90462285514243"><ele>198.33333333333331</ele><time>2026-05-02T07:16:35Z</time></trkpt><trkpt lat="40.999097850992825" lon="8.904732958450563"><ele>198.66666666666666</ele><time>2026-05-02T07:16:36Z</time></trkpt><trkpt lat="40.9989626987897" lon="8.90482657098722"><ele>199.0</ele><time>2026-05-02T07:16:37Z</time></trkpt><trkpt lat="40.99882749943625" lon="8.90492392460547"><ele>199.0</ele><time>2026-05-02T07:16:38Z</time></trkpt><trkpt lat="40.99868572821074" lon="8.9050032625784"><ele>199.0</ele><time>2026-05-02T07:16:39Z</time></trkpt><trkpt lat="40.99855040387659" lon="8.905093505462345"><ele>199.0</ele><time>2026-05-02T07:16:40Z</time></trkpt><trkpt lat="40.99843056610341" lon="8.905180966803147"><ele>199.0</ele><time>2026-05-02T07:16:41Z</time></trkpt><trkpt lat="40.9983201070761" lon="8.90525982977499"><ele>198.39999999999998</ele><time>2026-05-02T07:16:42Z</time></trkpt><trkpt lat="40.99821440971927" lon="8.905328688976873"><ele>197.8</ele><time>2026-05-02T07:16:43Z</time></trkpt><trkpt lat="40.99811979837935" lon="8.905383445722666"><ele>197.2</ele><time>2026-05-02T07:16:44Z</time></trkpt><trkpt lat="40.99803658451898" lon="8.905412930376952"><ele>196.60000000000002</ele><time>2026-05-02T07:16:45Z</time></trkpt><trkpt lat="40.99795052282611" lon="8.905430236555068"><ele>196.0</ele><time>2026-05-02T07:16:46Z</time></trkpt><trkpt lat="40.99787437924542" lon="8.905441500226376"><ele>195.99999999999997</ele><time>2026-05-02T07:16:47Z</time></trkpt><trkpt lat="40.99780772428799" lon="8.905449602115517"><ele>196.0</ele><time>2026-05-02T07:16:48Z</time></trkpt><trkpt lat="40.99770142644717" lon="8.90545717481644"><ele>196.0</ele><time>2026-05-02T07:16:50Z</time></trkpt><trkpt lat="40.997632455009736" lon="8.905461027797637"><ele>196.0</ele><time>2026-05-02T07:16:52Z</time></trkpt><trkpt lat="40.99754828933602" lon="8.90547934290162"><ele>195.99999999999997</ele><time>2026-05-02T07:16:54Z</time></trkpt><trkpt lat="40.99749489240639" lon="8.905424760295578"><ele>196.0</ele><time>2026-05-02T07:16:55Z</time></trkpt><trkpt lat="40.99742654302777" lon="8.905399293367381"><ele>197.49999999999997</ele><time>2026-05-02T07:16:56Z</time></trkpt><trkpt lat="40.99735315201667" lon="8.905390931706755"><ele>199.0</ele><time>2026-05-02T07:16:57Z</time></trkpt><trkpt lat="40.99727459806635" lon="8.905418000355041"><ele>200.5</ele><time>2026-05-02T07:16:58Z</time></trkpt><trkpt lat="40.99721370289843" lon="8.905488868283769"><ele>202.0</ele><time>2026-05-02T07:16:59Z</time></trkpt><trkpt lat="40.99717915914497" lon="8.905584782978199"><ele>203.49999999999997</ele><time>2026-05-02T07:17:00Z</time></trkpt><trkpt lat="40.99717726768663" lon="8.9056859265679"><ele>205.0</ele><time>2026-05-02T07:17:01Z</time></trkpt><trkpt lat="40.99720918950281" lon="8.905778162957425"><ele>205.0</ele><time>2026-05-02T07:17:02Z</time></trkpt><trkpt lat="40.9972416342655" lon="8.905861916814645"><ele>205.0</ele><time>2026-05-02T07:17:03Z</time></trkpt><trkpt lat="40.99726991280173" lon="8.905969900221583"><ele>205.0</ele><time>2026-05-02T07:17:04Z</time></trkpt><trkpt lat="40.99727881296361" lon="8.906096553331869"><ele>205.0</ele><time>2026-05-02T07:17:05Z</time></trkpt><trkpt lat="40.99723836583375" lon="8.906226098329638"><ele>205.0</ele><time>2026-05-02T07:17:06Z</time></trkpt><trkpt lat="40.99721359549844" lon="8.906364623032047"><ele>205.5</ele><time>2026-05-02T07:17:07Z</time></trkpt><trkpt lat="40.997215334047446" lon="8.90651299719269"><ele>206.0</ele><time>2026-05-02T07:17:08Z</time></trkpt><trkpt lat="40.99722767326639" lon="8.906660536437027"><ele>206.5</ele><time>2026-05-02T07:17:09Z</time></trkpt><trkpt lat="40.99727707768582" lon="8.906799597142323"><ele>207.0</ele><time>2026-05-02T07:17:10Z</time></trkpt><trkpt lat="40.99736418243354" lon="8.906912001818874"><ele>209.39999999999998</ele><time>2026-05-02T07:17:11Z</time></trkpt><trkpt lat="40.997478533427" lon="8.906993536317609"><ele>211.79999999999998</ele><time>2026-05-02T07:17:12Z</time></trkpt><trkpt lat="40.99758459737672" lon="8.907064856651933"><ele>214.2</ele><time>2026-05-02T07:17:13Z</time></trkpt><trkpt lat="40.99765367103207" lon="8.907150082401403"><ele>216.6</ele><time>2026-05-02T07:17:14Z</time></trkpt><trkpt lat="40.99767309336559" lon="8.907262650966127"><ele>219.0</ele><time>2026-05-02T07:17:15Z</time></trkpt><trkpt lat="40.99763984049353" lon="8.907375105108299"><ele>219.0</ele><time>2026-05-02T07:17:16Z</time></trkpt><trkpt lat="40.997561923848046" lon="8.907445561533592"><ele>218.99999999999997</ele><time>2026-05-02T07:17:17Z</time></trkpt><trkpt lat="40.99747460999602" lon="8.907438637215774"><ele>218.99999999999997</ele><time>2026-05-02T07:17:18Z</time></trkpt><trkpt lat="40.99738697484372" lon="8.907387748227208"><ele>219.0</ele><time>2026-05-02T07:17:19Z</time></trkpt><trkpt lat="40.99731118085461" lon="8.90727013824272"><ele>219.0</ele><time>2026-05-02T07:17:20Z</time></trkpt><trkpt lat="40.9972081529361" lon="8.907171964859705"><ele>219.0</ele><time>2026-05-02T07:17:21Z</time></trkpt><trkpt lat="40.99711760732775" lon="8.90704435460471"><ele>219.0</ele><time>2026-05-02T07:17:22Z</time></trkpt><trkpt lat="40.997047109647426" lon="8.906888425225759"><ele>219.0</ele><time>2026-05-02T07:17:23Z</time></trkpt><trkpt lat="40.99701881283806" lon="8.906693612870914"><ele>219.0</ele><time>2026-05-02T07:17:24Z</time></trkpt><trkpt lat="40.997026507662255" lon="8.906510591407487"><ele>216.6</ele><time>2026-05-02T07:17:25Z</time></trkpt><trkpt lat="40.997023363776655" lon="8.906365337231422"><ele>214.2</ele><time>2026-05-02T07:17:26Z</time></trkpt><trkpt lat="40.996997393047444" lon="8.906244193562172"><ele>211.79999999999998</ele><time>2026-05-02T07:17:27Z</time></trkpt><trkpt lat="40.99691686526625" lon="8.90616823016639"><ele>209.39999999999998</ele><time>2026-05-02T07:17:28Z</time></trkpt><trkpt lat="40.996826770915035" lon="8.906137848112134"><ele>207.0</ele><time>2026-05-02T07:17:29Z</time></trkpt><trkpt lat="40.996744875799266" lon="8.906182033789047"><ele>207.0</ele><time>2026-05-02T07:17:30Z</time></trkpt><trkpt lat="40.99667715327184" lon="8.906272251437812"><ele>207.0</ele><time>2026-05-02T07:17:31Z</time></trkpt><trkpt lat="40.996667240082374" lon="8.906434993005771"><ele>207.0</ele><time>2026-05-02T07:17:32Z</time></trkpt><trkpt lat="40.996708341680716" lon="8.906603060363283"><ele>207.0</ele><time>2026-05-02T07:17:33Z</time></trkpt><trkpt lat="40.99675945535437" lon="8.906763924841755"><ele>210.0</ele><time>2026-05-02T07:17:34Z</time></trkpt><trkpt lat="40.996794321227775" lon="8.906939627887859"><ele>213.0</ele><time>2026-05-02T07:17:35Z</time></trkpt><trkpt lat="40.99684174591481" lon="8.907115023719953"><ele>216.0</ele><time>2026-05-02T07:17:36Z</time></trkpt><trkpt lat="40.99688354308304" lon="8.90727978374362"><ele>219.0</ele><time>2026-05-02T07:17:37Z</time></trkpt><trkpt lat="40.99692355038443" lon="8.907442807051488"><ele>219.0</ele><time>2026-05-02T07:17:38Z</time></trkpt><trkpt lat="40.99695040819346" lon="8.9075757976243"><ele>218.99999999999997</ele><time>2026-05-02T07:17:39Z</time></trkpt><trkpt lat="40.99696424610902" lon="8.907706449178406"><ele>218.99999999999997</ele><time>2026-05-02T07:17:40Z</time></trkpt><trkpt lat="40.996962342067334" lon="8.907830165760735"><ele>219.0</ele><time>2026-05-02T07:17:41Z</time></trkpt><trkpt lat="40.99690214743634" lon="8.907978557972235"><ele>219.0</ele><time>2026-05-02T07:17:42Z</time></trkpt><trkpt lat="40.996810733560714" lon="8.908037163778713"><ele>217.75</ele><time>2026-05-02T07:17:43Z</time></trkpt><trkpt lat="40.996709586262085" lon="8.908053125061935"><ele>216.5</ele><time>2026-05-02T07:17:44Z</time></trkpt><trkpt lat="40.996600501829676" lon="8.908015474343198"><ele>215.25</ele><time>2026-05-02T07:17:45Z</time></trkpt><trkpt lat="40.99648857173362" lon="8.907943203041201"><ele>214.0</ele><time>2026-05-02T07:17:46Z</time></trkpt><trkpt lat="40.996342981218824" lon="8.907848994031474"><ele>220.0</ele><time>2026-05-02T07:17:47Z</time></trkpt><trkpt lat="40.99619431548412" lon="8.907754889189466"><ele>226.0</ele><time>2026-05-02T07:17:48Z</time></trkpt><trkpt lat="40.996032012459544" lon="8.907686059356818"><ele>232.0</ele><time>2026-05-02T07:17:49Z</time></trkpt><trkpt lat="40.99586509117757" lon="8.907675462783354"><ele>234.66666666666666</ele><time>2026-05-02T07:17:50Z</time></trkpt><trkpt lat="40.99569741456266" lon="8.907682081100159"><ele>237.33333333333331</ele><time>2026-05-02T07:17:51Z</time></trkpt><trkpt lat="40.995536803526235" lon="8.907708939550755"><ele>240.0</ele><time>2026-05-02T07:17:52Z</time></trkpt><trkpt lat="40.995386854654654" lon="8.907780401637787"><ele>240.0</ele><time>2026-05-02T07:17:53Z</time></trkpt><trkpt lat="40.99524468530154" lon="8.907915405044506"><ele>240.0</ele><time>2026-05-02T07:17:54Z</time></trkpt><trkpt lat="40.99510999621537" lon="8.908071878479213"><ele>240.0</ele><time>2026-05-02T07:17:55Z</time></trkpt><trkpt lat="40.99498929184083" lon="8.908229941156113"><ele>244.33333333333331</ele><time>2026-05-02T07:17:56Z</time></trkpt><trkpt lat="40.99488707951738" lon="8.908404402871847"><ele>248.66666666666666</ele><time>2026-05-02T07:17:57Z</time></trkpt><trkpt lat="40.994817856870476" lon="8.908617689054726"><ele>253.0</ele><time>2026-05-02T07:17:58Z</time></trkpt><trkpt lat="40.994761700897634" lon="8.90884595547144"><ele>253.0</ele><time>2026-05-02T07:17:59Z</time></trkpt><trkpt lat="40.99469229365454" lon="8.909041288173702"><ele>253.0</ele><time>2026-05-02T07:18:00Z</time></trkpt><trkpt lat="40.994622011949595" lon="8.909215978072224"><ele>253.0</ele><time>2026-05-02T07:18:01Z</time></trkpt><trkpt lat="40.99453769221155" lon="8.909352946665981"><ele>253.0</ele><time>2026-05-02T07:18:02Z</time></trkpt><trkpt lat="40.994444222345194" lon="8.909448810623045"><ele>253.5</ele><time>2026-05-02T07:18:03Z</time></trkpt><trkpt lat="40.9943463425758" lon="8.909434232494103"><ele>254.0</ele><time>2026-05-02T07:18:04Z</time></trkpt><trkpt lat="40.99424139223668" lon="8.909406879956249"><ele>254.5</ele><time>2026-05-02T07:18:05Z</time></trkpt><trkpt lat="40.99413745943215" lon="8.909334724712542"><ele>255.0</ele><time>2026-05-02T07:18:06Z</time></trkpt><trkpt lat="40.99403667161536" lon="8.909220700968822"><ele>259.75</ele><time>2026-05-02T07:18:07Z</time></trkpt><trkpt lat="40.993915731235305" lon="8.909120763202546"><ele>264.5</ele><time>2026-05-02T07:18:08Z</time></trkpt><trkpt lat="40.99380818167762" lon="8.90904907566716"><ele>269.25</ele><time>2026-05-02T07:18:09Z</time></trkpt><trkpt lat="40.9936917550118" lon="8.909064390432235"><ele>274.0</ele><time>2026-05-02T07:18:10Z</time></trkpt><trkpt lat="40.99357390380945" lon="8.909152385434375"><ele>274.5</ele><time>2026-05-02T07:18:11Z</time></trkpt><trkpt lat="40.993474038871085" lon="8.909291122005227"><ele>275.0</ele><time>2026-05-02T07:18:12Z</time></trkpt><trkpt lat="40.993388873838036" lon="8.909447615853821"><ele>275.5</ele><time>2026-05-02T07:18:13Z</time></trkpt><trkpt lat="40.99329521225432" lon="8.909614756205965"><ele>276.0</ele><time>2026-05-02T07:18:14Z</time></trkpt><trkpt lat="40.993204354967055" lon="8.909795040413183"><ele>276.0</ele><time>2026-05-02T07:18:15Z</time></trkpt><trkpt lat="40.993103003694365" lon="8.90997271454761"><ele>276.0</ele><time>2026-05-02T07:18:16Z</time></trkpt><trkpt lat="40.99299085821217" lon="8.910120786530435"><ele>276.0</ele><time>2026-05-02T07:18:17Z</time></trkpt><trkpt lat="40.9928600462687" lon="8.910229791970096"><ele>276.0</ele><time>2026-05-02T07:18:18Z</time></trkpt><trkpt lat="40.992719051798005" lon="8.910313179072473"><ele>276.0</ele><time>2026-05-02T07:18:19Z</time></trkpt><trkpt lat="40.99259881202284" lon="8.910375595663348"><ele>276.0</ele><time>2026-05-02T07:18:20Z</time></trkpt><trkpt lat="40.992490824987804" lon="8.910380866888785"><ele>276.0</ele><time>2026-05-02T07:18:21Z</time></trkpt><trkpt lat="40.99238501018505" lon="8.910341993252496"><ele>276.0</ele><time>2026-05-02T07:18:22Z</time></trkpt><trkpt lat="40.992265288394904" lon="8.910276216322778"><ele>276.0</ele><time>2026-05-02T07:18:23Z</time></trkpt><trkpt lat="40.99212787828579" lon="8.91019909044486"><ele>276.0</ele><time>2026-05-02T07:18:24Z</time></trkpt><trkpt lat="40.99197489233669" lon="8.910132507264796"><ele>276.0</ele><time>2026-05-02T07:18:25Z</time></trkpt><trkpt lat="40.99182291120626" lon="8.910044112827228"><ele>279.0</ele><time>2026-05-02T07:18:26Z</time></trkpt><trkpt lat="40.99168695323494" lon="8.909983603362434"><ele>282.0</ele><time>2026-05-02T07:18:27Z</time></trkpt><trkpt lat="40.99156642557471" lon="8.909978773358507"><ele>285.0</ele><time>2026-05-02T07:18:28Z</time></trkpt><trkpt lat="40.991461619952595" lon="8.91003955989919"><ele>288.0</ele><time>2026-05-02T07:18:29Z</time></trkpt><trkpt lat="40.991351676234295" lon="8.91009200466822"><ele>288.0</ele><time>2026-05-02T07:18:30Z</time></trkpt><trkpt lat="40.9913090515291" lon="8.910308179474361"><ele>288.0</ele><time>2026-05-02T07:18:31Z</time></trkpt><trkpt lat="40.9912118246886" lon="8.910417643009508"><ele>288.0</ele><time>2026-05-02T07:18:32Z</time></trkpt><trkpt lat="40.99111555464019" lon="8.910465493491243"><ele>288.0</ele><time>2026-05-02T07:18:33Z</time></trkpt><trkpt lat="40.99098909113658" lon="8.910478487251194"><ele>291.3333333333333</ele><time>2026-05-02T07:18:34Z</time></trkpt><trkpt lat="40.99083573034785" lon="8.910485309910248"><ele>294.66666666666663</ele><time>2026-05-02T07:18:35Z</time></trkpt><trkpt lat="40.99067271051653" lon="8.910493174593405"><ele>298.0</ele><time>2026-05-02T07:18:36Z</time></trkpt><trkpt lat="40.9905052315509" lon="8.910495063438601"><ele>298.0</ele><time>2026-05-02T07:18:37Z</time></trkpt><trkpt lat="40.99034237411575" lon="8.910499945512754"><ele>298.0</ele><time>2026-05-02T07:18:38Z</time></trkpt><trkpt lat="40.990213312275685" lon="8.91037576828895"><ele>298.0</ele><time>2026-05-02T07:18:39Z</time></trkpt><trkpt lat="40.990077160488966" lon="8.910255973225539"><ele>299.66666666666663</ele><time>2026-05-02T07:18:40Z</time></trkpt><trkpt lat="40.989930179963075" lon="8.910150766992539"><ele>301.3333333333333</ele><time>2026-05-02T07:18:41Z</time></trkpt><trkpt lat="40.98979678200235" lon="8.910028118872983"><ele>303.0</ele><time>2026-05-02T07:18:42Z</time></trkpt><trkpt lat="40.989664571517686" lon="8.90993536051913"><ele>307.0</ele><time>2026-05-02T07:18:43Z</time></trkpt><trkpt lat="40.98954207865551" lon="8.909872835888715"><ele>311.0</ele><time>2026-05-02T07:18:44Z</time></trkpt><trkpt lat="40.98941438102918" lon="8.909874728002576"><ele>315.0</ele><time>2026-05-02T07:18:45Z</time></trkpt><trkpt lat="40.98928791371441" lon="8.909947377562862"><ele>319.0</ele><time>2026-05-02T07:18:46Z</time></trkpt><trkpt lat="40.989176826614695" lon="8.910073357204597"><ele>319.25</ele><time>2026-05-02T07:18:47Z</time></trkpt><trkpt lat="40.98908382564511" lon="8.91022573864217"><ele>319.5</ele><time>2026-05-02T07:18:48Z</time></trkpt><trkpt lat="40.989001819572856" lon="8.91039291150164"><ele>319.75</ele><time>2026-05-02T07:18:49Z</time></trkpt><trkpt lat="40.98892645651592" lon="8.910565409688765"><ele>320.0</ele><time>2026-05-02T07:18:50Z</time></trkpt><trkpt lat="40.98884038994344" lon="8.910722645882288"><ele>320.0</ele><time>2026-05-02T07:18:51Z</time></trkpt><trkpt lat="40.98876854873646" lon="8.91087364943016"><ele>320.0</ele><time>2026-05-02T07:18:52Z</time></trkpt><trkpt lat="40.98870321015339" lon="8.910998834857828"><ele>320.0</ele><time>2026-05-02T07:18:53Z</time></trkpt><trkpt lat="40.988638061421135" lon="8.911099110582303"><ele>320.0</ele><time>2026-05-02T07:18:54Z</time></trkpt><trkpt lat="40.98856426345547" lon="8.911195629786445"><ele>318.4</ele><time>2026-05-02T07:18:55Z</time></trkpt><trkpt lat="40.988477867710806" lon="8.911273183972394"><ele>316.8</ele><time>2026-05-02T07:18:56Z</time></trkpt><trkpt lat="40.9883840058186" lon="8.91133209310873"><ele>315.2</ele><time>2026-05-02T07:18:57Z</time></trkpt><trkpt lat="40.9882915051298" lon="8.911389451029182"><ele>313.6</ele><time>2026-05-02T07:18:58Z</time></trkpt><trkpt lat="40.98820072974002" lon="8.91144600262924"><ele>312.0</ele><time>2026-05-02T07:18:59Z</time></trkpt><trkpt lat="40.988110170939656" lon="8.911501929748468"><ele>315.1666666666667</ele><time>2026-05-02T07:19:00Z</time></trkpt><trkpt lat="40.98802167714621" lon="8.911556477355804"><ele>318.3333333333333</ele><time>2026-05-02T07:19:01Z</time></trkpt><trkpt lat="40.98793513817503" lon="8.91160982001094"><ele>321.5</ele><time>2026-05-02T07:19:02Z</time></trkpt><trkpt lat="40.987851015277776" lon="8.911661673349645"><ele>324.66666666666663</ele><time>2026-05-02T07:19:03Z</time></trkpt><trkpt lat="40.98777875261779" lon="8.911706382525079"><ele>327.8333333333333</ele><time>2026-05-02T07:19:04Z</time></trkpt><trkpt lat="40.987706109342106" lon="8.91175398897925"><ele>331.0</ele><time>2026-05-02T07:19:05Z</time></trkpt><trkpt lat="40.987627496061954" lon="8.911811908072039"><ele>331.4</ele><time>2026-05-02T07:19:06Z</time></trkpt><trkpt lat="40.987555189150726" lon="8.91189405851464"><ele>331.8</ele><time>2026-05-02T07:19:07Z</time></trkpt><trkpt lat="40.987476587364874" lon="8.911966299594528"><ele>332.2</ele><time>2026-05-02T07:19:08Z</time></trkpt><trkpt lat="40.98740202184089" lon="8.91205494706885"><ele>332.59999999999997</ele><time>2026-05-02T07:19:09Z</time></trkpt><trkpt lat="40.987318466270324" lon="8.912137581886572"><ele>333.0</ele><time>2026-05-02T07:19:10Z</time></trkpt><trkpt lat="40.98727271853145" lon="8.912271102929921"><ele>335.2</ele><time>2026-05-02T07:19:11Z</time></trkpt><trkpt lat="40.987199811991985" lon="8.912379126356079"><ele>337.4</ele><time>2026-05-02T07:19:12Z</time></trkpt><trkpt lat="40.98714112514483" lon="8.912501879636478"><ele>339.59999999999997</ele><time>2026-05-02T07:19:13Z</time></trkpt><trkpt lat="40.9870682337061" lon="8.912610336572914"><ele>341.79999999999995</ele><time>2026-05-02T07:19:14Z</time></trkpt><trkpt lat="40.98695382596469" lon="8.912608188425427"><ele>344.0</ele><time>2026-05-02T07:19:15Z</time></trkpt><trkpt lat="40.98683665238202" lon="8.912631269154542"><ele>345.4</ele><time>2026-05-02T07:19:16Z</time></trkpt><trkpt lat="40.986723061935244" lon="8.912658459236216"><ele>346.79999999999995</ele><time>2026-05-02T07:19:17Z</time></trkpt><trkpt lat="40.98661314346271" lon="8.912678864224217"><ele>348.20000000000005</ele><time>2026-05-02T07:19:18Z</time></trkpt><trkpt lat="40.98650456577203" lon="8.912698827728857"><ele>349.6</ele><time>2026-05-02T07:19:19Z</time></trkpt><trkpt lat="40.986395466585385" lon="8.91271827697467"><ele>351.0</ele><time>2026-05-02T07:19:20Z</time></trkpt><trkpt lat="40.98628767114424" lon="8.91273695291795"><ele>351.20000000000005</ele><time>2026-05-02T07:19:21Z</time></trkpt><trkpt lat="40.98617836080625" lon="8.91277171222836"><ele>351.40000000000003</ele><time>2026-05-02T07:19:22Z</time></trkpt><trkpt lat="40.986074647568046" lon="8.912778895757267"><ele>351.6</ele><time>2026-05-02T07:19:23Z</time></trkpt><trkpt lat="40.9859712037983" lon="8.912821981473437"><ele>351.8</ele><time>2026-05-02T07:19:24Z</time></trkpt><trkpt lat="40.98586703005213" lon="8.91285962542388"><ele>352.0</ele><time>2026-05-02T07:19:25Z</time></trkpt><trkpt lat="40.98576777302155" lon="8.912920610367133"><ele>352.0</ele><time>2026-05-02T07:19:26Z</time></trkpt><trkpt lat="40.985689572389674" lon="8.913027776420913"><ele>352.0</ele><time>2026-05-02T07:19:27Z</time></trkpt><trkpt lat="40.985623522363426" lon="8.913153617223978"><ele>352.0</ele><time>2026-05-02T07:19:28Z</time></trkpt><trkpt lat="40.9855747794207" lon="8.913273507394502"><ele>352.0</ele><time>2026-05-02T07:19:29Z</time></trkpt><trkpt lat="40.98553951020029" lon="8.913357703635599"><ele>352.0</ele><time>2026-05-02T07:19:30Z</time></trkpt><trkpt lat="40.98549710805159" lon="8.913449099514741"><ele>352.8333333333333</ele><time>2026-05-02T07:19:32Z</time></trkpt><trkpt lat="40.98547284982362" lon="8.91355681170819"><ele>353.66666666666663</ele><time>2026-05-02T07:19:42Z</time></trkpt><trkpt lat="40.98550233078058" lon="8.913653980890528"><ele>354.5</ele><time>2026-05-02T07:19:44Z</time></trkpt><trkpt lat="40.98557851112417" lon="8.91370388059476"><ele>355.3333333333333</ele><time>2026-05-02T07:19:45Z</time></trkpt><trkpt lat="40.98565437241324" lon="8.913745717616234"><ele>356.1666666666667</ele><time>2026-05-02T07:19:46Z</time></trkpt><trkpt lat="40.98573291045118" lon="8.913794146646335"><ele>357.0</ele><time>2026-05-02T07:19:48Z</time></trkpt><trkpt lat="40.985800311299165" lon="8.913829517026006"><ele>358.0</ele><time>2026-05-02T07:19:50Z</time></trkpt><trkpt lat="40.98585784247916" lon="8.913869347190596"><ele>359.0</ele><time>2026-05-02T07:19:51Z</time></trkpt><trkpt lat="40.98592344945257" lon="8.913920630118582"><ele>360.0</ele><time>2026-05-02T07:19:52Z</time></trkpt><trkpt lat="40.98599640509574" lon="8.913972457426736"><ele>361.0</ele><time>2026-05-02T07:19:53Z</time></trkpt><trkpt lat="40.98607445166158" lon="8.914028788576218"><ele>362.0</ele><time>2026-05-02T07:19:54Z</time></trkpt><trkpt lat="40.986153377512856" lon="8.914090877324604"><ele>363.0</ele><time>2026-05-02T07:19:55Z</time></trkpt><trkpt lat="40.98623335888628" lon="8.914158948502973"><ele>363.0</ele><time>2026-05-02T07:19:56Z</time></trkpt><trkpt lat="40.9862948533062" lon="8.914215758530663"><ele>363.0</ele><time>2026-05-02T07:19:57Z</time></trkpt><trkpt lat="40.98633456126825" lon="8.914305493999555"><ele>363.0</ele><time>2026-05-02T07:19:59Z</time></trkpt><trkpt lat="40.98635775062637" lon="8.91440671521853"><ele>363.0</ele><time>2026-05-02T07:20:04Z</time></trkpt><trkpt lat="40.98638874873533" lon="8.914482949462972"><ele>363.0</ele><time>2026-05-02T07:20:05Z</time></trkpt><trkpt lat="40.986422519998136" lon="8.914633083153324"><ele>363.0</ele><time>2026-05-02T07:20:07Z</time></trkpt><trkpt lat="40.98646527707465" lon="8.914778536843325"><ele>364.0</ele><time>2026-05-02T07:20:09Z</time></trkpt><trkpt lat="40.98649984006941" lon="8.914888092944839"><ele>365.0</ele><time>2026-05-02T07:20:11Z</time></trkpt><trkpt lat="40.98651115631716" lon="8.915034007074507"><ele>366.0</ele><time>2026-05-02T07:20:13Z</time></trkpt><trkpt lat="40.98649059142836" lon="8.915134100908306"><ele>367.0</ele><time>2026-05-02T07:20:14Z</time></trkpt><trkpt lat="40.986458431004195" lon="8.915229121478625"><ele>368.0</ele><time>2026-05-02T07:20:15Z</time></trkpt><trkpt lat="40.98641645040599" lon="8.915309314501634"><ele>369.0</ele><time>2026-05-02T07:20:16Z</time></trkpt><trkpt lat="40.986340286961195" lon="8.915358971206485"><ele>370.6</ele><time>2026-05-02T07:20:17Z</time></trkpt><trkpt lat="40.98624418302593" lon="8.915427167416778"><ele>372.2</ele><time>2026-05-02T07:20:19Z</time></trkpt><trkpt lat="40.98614914097326" lon="8.915481414294652"><ele>373.8</ele><time>2026-05-02T07:20:21Z</time></trkpt><trkpt lat="40.98604166350663" lon="8.915464266176853"><ele>375.40000000000003</ele><time>2026-05-02T07:20:23Z</time></trkpt><trkpt lat="40.98597054314233" lon="8.915472675377357"><ele>377.0</ele><time>2026-05-02T07:20:24Z</time></trkpt><trkpt lat="40.98589405826788" lon="8.915480887987266"><ele>376.33333333333337</ele><time>2026-05-02T07:20:25Z</time></trkpt><trkpt lat="40.98581616619615" lon="8.915488605776083"><ele>375.6666666666667</ele><time>2026-05-02T07:20:26Z</time></trkpt><trkpt lat="40.985727352641874" lon="8.915497405703505"><ele>375.0</ele><time>2026-05-02T07:20:27Z</time></trkpt><trkpt lat="40.98563753162407" lon="8.915506305448275"><ele>374.3333333333333</ele><time>2026-05-02T07:20:28Z</time></trkpt><trkpt lat="40.98555455669542" lon="8.91551393106075"><ele>373.66666666666663</ele><time>2026-05-02T07:20:29Z</time></trkpt><trkpt lat="40.98547353033147" lon="8.915548977366287"><ele>373.0</ele><time>2026-05-02T07:20:30Z</time></trkpt><trkpt lat="40.985393965161244" lon="8.915549431312517"><ele>373.0</ele><time>2026-05-02T07:20:31Z</time></trkpt><trkpt lat="40.98532548246214" lon="8.915556143653331"><ele>373.0</ele><time>2026-05-02T07:20:32Z</time></trkpt><trkpt lat="40.98525715555502" lon="8.915559889585849"><ele>373.0</ele><time>2026-05-02T07:20:33Z</time></trkpt><trkpt lat="40.98518764566044" lon="8.915567226000505"><ele>373.0</ele><time>2026-05-02T07:20:34Z</time></trkpt><trkpt lat="40.9851195339251" lon="8.915579335029753"><ele>373.0</ele><time>2026-05-02T07:20:35Z</time></trkpt><trkpt lat="40.985051350353736" lon="8.915589360834373"><ele>373.0</ele><time>2026-05-02T07:20:36Z</time></trkpt><trkpt lat="40.98498006178823" lon="8.91559957447786"><ele>373.0</ele><time>2026-05-02T07:20:37Z</time></trkpt><trkpt lat="40.98490713034872" lon="8.9156086866634"><ele>372.66666666666663</ele><time>2026-05-02T07:20:38Z</time></trkpt><trkpt lat="40.984835818982084" lon="8.915640965698783"><ele>372.3333333333333</ele><time>2026-05-02T07:20:39Z</time></trkpt><trkpt lat="40.98476812841757" lon="8.915701953195828"><ele>372.0</ele><time>2026-05-02T07:20:40Z</time></trkpt><trkpt lat="40.98470895784432" lon="8.915789120022097"><ele>371.6666666666667</ele><time>2026-05-02T07:20:41Z</time></trkpt><trkpt lat="40.984668936858746" lon="8.915893455579134"><ele>371.33333333333337</ele><time>2026-05-02T07:20:42Z</time></trkpt><trkpt lat="40.984629878979874" lon="8.91600073281037"><ele>371.0</ele><time>2026-05-02T07:20:43Z</time></trkpt><trkpt lat="40.984592725556865" lon="8.91611833735605"><ele>373.4</ele><time>2026-05-02T07:20:44Z</time></trkpt><trkpt lat="40.98455670952208" lon="8.916243161931034"><ele>375.8</ele><time>2026-05-02T07:20:45Z</time></trkpt><trkpt lat="40.984521894742045" lon="8.916371410859265"><ele>378.2</ele><time>2026-05-02T07:20:46Z</time></trkpt><trkpt lat="40.98449059869591" lon="8.916500271481572"><ele>380.59999999999997</ele><time>2026-05-02T07:20:47Z</time></trkpt><trkpt lat="40.984462250353" lon="8.916629416607766"><ele>383.0</ele><time>2026-05-02T07:20:48Z</time></trkpt><trkpt lat="40.984420499757235" lon="8.916752844105906"><ele>385.2</ele><time>2026-05-02T07:20:49Z</time></trkpt><trkpt lat="40.984395329033624" lon="8.916878391472762"><ele>387.4</ele><time>2026-05-02T07:20:50Z</time></trkpt><trkpt lat="40.9843931044276" lon="8.917008922078372"><ele>389.59999999999997</ele><time>2026-05-02T07:20:51Z</time></trkpt><trkpt lat="40.98437405807938" lon="8.917131014824552"><ele>391.79999999999995</ele><time>2026-05-02T07:20:52Z</time></trkpt><trkpt lat="40.98436492080667" lon="8.917252392913017"><ele>394.0</ele><time>2026-05-02T07:20:53Z</time></trkpt><trkpt lat="40.98436675278466" lon="8.91737240713693"><ele>394.00000000000006</ele><time>2026-05-02T07:20:54Z</time></trkpt><trkpt lat="40.984380790202096" lon="8.917485601272329"><ele>394.0</ele><time>2026-05-02T07:20:55Z</time></trkpt><trkpt lat="40.984399216768665" lon="8.91759093931231"><ele>394.0</ele><time>2026-05-02T07:20:56Z</time></trkpt><trkpt lat="40.98443296937686" lon="8.917670406670732"><ele>394.0</ele><time>2026-05-02T07:20:57Z</time></trkpt><trkpt lat="40.98447180049536" lon="8.91783121221805"><ele>394.00000000000006</ele><time>2026-05-02T07:20:59Z</time></trkpt><trkpt lat="40.98449095236263" lon="8.917919968786812"><ele>394.0</ele><time>2026-05-02T07:21:00Z</time></trkpt><trkpt lat="40.98450815756226" lon="8.918015066299512"><ele>394.6666666666667</ele><time>2026-05-02T07:21:01Z</time></trkpt><trkpt lat="40.9845277925752" lon="8.91811722306221"><ele>395.33333333333337</ele><time>2026-05-02T07:21:02Z</time></trkpt><trkpt lat="40.984519842395684" lon="8.918230115907436"><ele>396.0</ele><time>2026-05-02T07:21:03Z</time></trkpt><trkpt lat="40.9844990759056" lon="8.918327952507523"><ele>396.66666666666663</ele><time>2026-05-02T07:21:04Z</time></trkpt><trkpt lat="40.98445195766752" lon="8.91842771630444"><ele>397.3333333333333</ele><time>2026-05-02T07:21:05Z</time></trkpt><trkpt lat="40.98438378638639" lon="8.918497153658413"><ele>398.0</ele><time>2026-05-02T07:21:06Z</time></trkpt><trkpt lat="40.98429679808124" lon="8.918544615776309"><ele>397.4</ele><time>2026-05-02T07:21:07Z</time></trkpt><trkpt lat="40.98420403911656" lon="8.918554781972318"><ele>396.79999999999995</ele><time>2026-05-02T07:21:08Z</time></trkpt><trkpt lat="40.98411451414884" lon="8.918587971902289"><ele>396.2</ele><time>2026-05-02T07:21:09Z</time></trkpt><trkpt lat="40.984023989283514" lon="8.918625960036396"><ele>395.6</ele><time>2026-05-02T07:21:10Z</time></trkpt><trkpt lat="40.983937141093826" lon="8.91867421162009"><ele>395.0</ele><time>2026-05-02T07:21:11Z</time></trkpt><trkpt lat="40.98385905244239" lon="8.918755517100097"><ele>395.0</ele><time>2026-05-02T07:21:12Z</time></trkpt><trkpt lat="40.98377920769719" lon="8.918835686112262"><ele>395.0</ele><time>2026-05-02T07:21:13Z</time></trkpt><trkpt lat="40.98370903787906" lon="8.918929197204479"><ele>395.0</ele><time>2026-05-02T07:21:14Z</time></trkpt><trkpt lat="40.98363077991715" lon="8.919020095822093"><ele>395.0</ele><time>2026-05-02T07:21:15Z</time></trkpt><trkpt lat="40.98358429963056" lon="8.919144188053272"><ele>395.0</ele><time>2026-05-02T07:21:16Z</time></trkpt><trkpt lat="40.98352787561243" lon="8.919256812121906"><ele>399.25</ele><time>2026-05-02T07:21:17Z</time></trkpt><trkpt lat="40.98347886613961" lon="8.919393299446748"><ele>403.5</ele><time>2026-05-02T07:21:18Z</time></trkpt><trkpt lat="40.983446943353236" lon="8.91955785518106"><ele>407.75</ele><time>2026-05-02T07:21:19Z</time></trkpt><trkpt lat="40.98343036079425" lon="8.919732485037983"><ele>412.0</ele><time>2026-05-02T07:21:20Z</time></trkpt><trkpt lat="40.983412368008224" lon="8.91991225491147"><ele>409.75</ele><time>2026-05-02T07:21:21Z</time></trkpt><trkpt lat="40.98337686866846" lon="8.920089756902794"><ele>407.5</ele><time>2026-05-02T07:21:22Z</time></trkpt><trkpt lat="40.983349702371655" lon="8.92027241286141"><ele>405.25</ele><time>2026-05-02T07:21:23Z</time></trkpt><trkpt lat="40.98332709419545" lon="8.920471392290578"><ele>403.0</ele><time>2026-05-02T07:21:24Z</time></trkpt><trkpt lat="40.98329068220615" lon="8.92068005466917"><ele>403.0</ele><time>2026-05-02T07:21:25Z</time></trkpt><trkpt lat="40.98325535430583" lon="8.92089500373216"><ele>403.0</ele><time>2026-05-02T07:21:26Z</time></trkpt><trkpt lat="40.98322806027208" lon="8.921113943867141"><ele>403.0</ele><time>2026-05-02T07:21:27Z</time></trkpt><trkpt lat="40.98319831503759" lon="8.921335671658966"><ele>405.6666666666667</ele><time>2026-05-02T07:21:28Z</time></trkpt><trkpt lat="40.983174269470155" lon="8.92157004929384"><ele>408.33333333333337</ele><time>2026-05-02T07:21:29Z</time></trkpt><trkpt lat="40.9831768604231" lon="8.921825266254794"><ele>411.0</ele><time>2026-05-02T07:21:30Z</time></trkpt><trkpt lat="40.983207082088256" lon="8.922104976069397"><ele>412.0</ele><time>2026-05-02T07:21:31Z</time></trkpt><trkpt lat="40.98323804140284" lon="8.922409801020937"><ele>413.0</ele><time>2026-05-02T07:21:32Z</time></trkpt><trkpt lat="40.983259780560566" lon="8.922727196083216"><ele>413.5</ele><time>2026-05-02T07:21:33Z</time></trkpt><trkpt lat="40.98328680249332" lon="8.923048978219567"><ele>414.0</ele><time>2026-05-02T07:21:34Z</time></trkpt><trkpt lat="40.9832986438076" lon="8.923373516577449"><ele>416.0</ele><time>2026-05-02T07:21:35Z</time></trkpt><trkpt lat="40.98332237627498" lon="8.923698523424695"><ele>418.0</ele><time>2026-05-02T07:21:36Z</time></trkpt><trkpt lat="40.98334697120858" lon="8.924022634397797"><ele>427.0</ele><time>2026-05-02T07:21:37Z</time></trkpt><trkpt lat="40.98337148097618" lon="8.924348416655706"><ele>436.0</ele><time>2026-05-02T07:21:38Z</time></trkpt><trkpt lat="40.98340888820571" lon="8.92466585739651"><ele>436.0</ele><time>2026-05-02T07:21:39Z</time></trkpt><trkpt lat="40.98342721432621" lon="8.924976341571721"><ele>436.0</ele><time>2026-05-02T07:21:40Z</time></trkpt><trkpt lat="40.98345439718821" lon="8.925268569368063"><ele>437.6666666666667</ele><time>2026-05-02T07:21:41Z</time></trkpt><trkpt lat="40.98347648328417" lon="8.92552810296623"><ele>439.33333333333337</ele><time>2026-05-02T07:21:42Z</time></trkpt><trkpt lat="40.983494190848035" lon="8.925776351564062"><ele>441.0</ele><time>2026-05-02T07:21:43Z</time></trkpt><trkpt lat="40.98351224666264" lon="8.926040762038747"><ele>445.33333333333337</ele><time>2026-05-02T07:21:44Z</time></trkpt><trkpt lat="40.983530208627855" lon="8.926312557186005"><ele>449.6666666666667</ele><time>2026-05-02T07:21:45Z</time></trkpt><trkpt lat="40.983548702156725" lon="8.92655174120767"><ele>454.0</ele><time>2026-05-02T07:21:46Z</time></trkpt><trkpt lat="40.983520132913455" lon="8.926751604763735"><ele>455.25</ele><time>2026-05-02T07:21:47Z</time></trkpt><trkpt lat="40.98346972295919" lon="8.926912066372491"><ele>456.5</ele><time>2026-05-02T07:21:48Z</time></trkpt><trkpt lat="40.983357886754824" lon="8.92699513112195"><ele>457.75</ele><time>2026-05-02T07:21:49Z</time></trkpt><trkpt lat="40.98322895790869" lon="8.927069769002165"><ele>459.0</ele><time>2026-05-02T07:21:50Z</time></trkpt><trkpt lat="40.9830658626413" lon="8.927094591227807"><ele>456.33333333333337</ele><time>2026-05-02T07:21:51Z</time></trkpt><trkpt lat="40.98286852403274" lon="8.927110224319375"><ele>453.6666666666667</ele><time>2026-05-02T07:21:52Z</time></trkpt><trkpt lat="40.982661375546925" lon="8.927149994947504"><ele>451.0</ele><time>2026-05-02T07:21:53Z</time></trkpt><trkpt lat="40.98244448882392" lon="8.927164240681075"><ele>451.0</ele><time>2026-05-02T07:21:54Z</time></trkpt><trkpt lat="40.982219548423046" lon="8.92718410505507"><ele>451.0</ele><time>2026-05-02T07:21:55Z</time></trkpt><trkpt lat="40.98199389179421" lon="8.927208935523876"><ele>451.0</ele><time>2026-05-02T07:21:56Z</time></trkpt><trkpt lat="40.98176394442901" lon="8.927234642154401"><ele>451.0</ele><time>2026-05-02T07:21:57Z</time></trkpt><trkpt lat="40.98152959589271" lon="8.927270137471211"><ele>452.5</ele><time>2026-05-02T07:21:58Z</time></trkpt><trkpt lat="40.98129452758362" lon="8.927334378458095"><ele>454.0</ele><time>2026-05-02T07:21:59Z</time></trkpt><trkpt lat="40.98106286167106" lon="8.92744398121064"><ele>459.0</ele><time>2026-05-02T07:22:00Z</time></trkpt><trkpt lat="40.980833112370995" lon="8.927581450784375"><ele>464.0</ele><time>2026-05-02T07:22:01Z</time></trkpt><trkpt lat="40.98061174093773" lon="8.927712397703436"><ele>464.0</ele><time>2026-05-02T07:22:02Z</time></trkpt><trkpt lat="40.980412132212926" lon="8.927818471265246"><ele>464.0</ele><time>2026-05-02T07:22:03Z</time></trkpt><trkpt lat="40.9802359816012" lon="8.927914639934507"><ele>464.0</ele><time>2026-05-02T07:22:04Z</time></trkpt><trkpt lat="40.98007515440429" lon="8.928001815582181"><ele>465.0</ele><time>2026-05-02T07:22:05Z</time></trkpt><trkpt lat="40.97991643661774" lon="8.928090838802898"><ele>466.0</ele><time>2026-05-02T07:22:06Z</time></trkpt><trkpt lat="40.97976784224497" lon="8.928199799970878"><ele>467.0</ele><time>2026-05-02T07:22:07Z</time></trkpt><trkpt lat="40.97964316556964" lon="8.928347030881078"><ele>468.3333333333333</ele><time>2026-05-02T07:22:08Z</time></trkpt><trkpt lat="40.97953645916593" lon="8.92852530303425"><ele>469.66666666666663</ele><time>2026-05-02T07:22:09Z</time></trkpt><trkpt lat="40.97945927025515" lon="8.928742636830348"><ele>471.0</ele><time>2026-05-02T07:22:10Z</time></trkpt><trkpt lat="40.97941125149906" lon="8.92897704745269"><ele>471.0</ele><time>2026-05-02T07:22:11Z</time></trkpt><trkpt lat="40.97937028947217" lon="8.929218145532547"><ele>471.0</ele><time>2026-05-02T07:22:12Z</time></trkpt><trkpt lat="40.97930158445924" lon="8.929451866768282"><ele>471.0</ele><time>2026-05-02T07:22:13Z</time></trkpt><trkpt lat="40.97924293108921" lon="8.929693389714457"><ele>472.66666666666663</ele><time>2026-05-02T07:22:14Z</time></trkpt><trkpt lat="40.97919183912542" lon="8.92994436583948"><ele>474.3333333333333</ele><time>2026-05-02T07:22:15Z</time></trkpt><trkpt lat="40.97912691168918" lon="8.930187839982747"><ele>476.0</ele><time>2026-05-02T07:22:16Z</time></trkpt><trkpt lat="40.97906666207563" lon="8.93043627186612"><ele>470.3333333333333</ele><time>2026-05-02T07:22:17Z</time></trkpt><trkpt lat="40.9790113907607" lon="8.930692426188333"><ele>464.66666666666663</ele><time>2026-05-02T07:22:18Z</time></trkpt><trkpt lat="40.97895380851993" lon="8.930954973186008"><ele>459.0</ele><time>2026-05-02T07:22:19Z</time></trkpt><trkpt lat="40.97889112558821" lon="8.931218617174727"><ele>459.0</ele><time>2026-05-02T07:22:20Z</time></trkpt><trkpt lat="40.97882542615078" lon="8.931484662606517"><ele>459.0</ele><time>2026-05-02T07:22:21Z</time></trkpt><trkpt lat="40.97876320376181" lon="8.931745962949725"><ele>459.0</ele><time>2026-05-02T07:22:22Z</time></trkpt><trkpt lat="40.97870437005457" lon="8.931989450200662"><ele>459.33333333333337</ele><time>2026-05-02T07:22:23Z</time></trkpt><trkpt lat="40.97864734322934" lon="8.93222348210088"><ele>459.6666666666667</ele><time>2026-05-02T07:22:24Z</time></trkpt><trkpt lat="40.97859229563673" lon="8.932448983537183"><ele>460.0</ele><time>2026-05-02T07:22:25Z</time></trkpt><trkpt lat="40.97853978376209" lon="8.932667043821745"><ele>457.6666666666667</ele><time>2026-05-02T07:22:26Z</time></trkpt><trkpt lat="40.97848831669068" lon="8.932878049281541"><ele>455.33333333333337</ele><time>2026-05-02T07:22:27Z</time></trkpt><trkpt lat="40.978433313360156" lon="8.933081335078265"><ele>453.0</ele><time>2026-05-02T07:22:28Z</time></trkpt><trkpt lat="40.978377857248034" lon="8.933277313926467"><ele>446.66666666666663</ele><time>2026-05-02T07:22:29Z</time></trkpt><trkpt lat="40.97832251767035" lon="8.933465806995892"><ele>440.3333333333333</ele><time>2026-05-02T07:22:30Z</time></trkpt><trkpt lat="40.97826572126392" lon="8.933649342582164"><ele>434.0</ele><time>2026-05-02T07:22:31Z</time></trkpt><trkpt lat="40.978214998733264" lon="8.933848855974269"><ele>434.0</ele><time>2026-05-02T07:22:32Z</time></trkpt><trkpt lat="40.97816676670023" lon="8.93400078921463"><ele>434.0</ele><time>2026-05-02T07:22:33Z</time></trkpt><trkpt lat="40.978124399441676" lon="8.934158366844937"><ele>434.0</ele><time>2026-05-02T07:22:34Z</time></trkpt><trkpt lat="40.97808824538602" lon="8.934302204145203"><ele>434.0</ele><time>2026-05-02T07:22:35Z</time></trkpt><trkpt lat="40.97805601441789" lon="8.934382788338883"><ele>434.0</ele><time>2026-05-02T07:22:36Z</time></trkpt><trkpt lat="40.97798624685672" lon="8.934417711280114"><ele>432.0</ele><time>2026-05-02T07:22:39Z</time></trkpt><trkpt lat="40.97791941213681" lon="8.93442307223229"><ele>430.0</ele><time>2026-05-02T07:22:41Z</time></trkpt><trkpt lat="40.977834649733595" lon="8.934469581620942"><ele>428.0</ele><time>2026-05-02T07:22:43Z</time></trkpt><trkpt lat="40.97774384854888" lon="8.934548351589441"><ele>426.0</ele><time>2026-05-02T07:22:45Z</time></trkpt><trkpt lat="40.977664905461054" lon="8.9346064873173"><ele>424.0</ele><time>2026-05-02T07:22:47Z</time></trkpt><trkpt lat="40.97758201834046" lon="8.934659281285283"><ele>425.79999999999995</ele><time>2026-05-02T07:22:49Z</time></trkpt><trkpt lat="40.97749963712566" lon="8.934727392010178"><ele>427.59999999999997</ele><time>2026-05-02T07:22:51Z</time></trkpt><trkpt lat="40.97741420794122" lon="8.934787000262125"><ele>429.4</ele><time>2026-05-02T07:22:53Z</time></trkpt><trkpt lat="40.977313274156465" lon="8.934857648416589"><ele>431.2</ele><time>2026-05-02T07:22:55Z</time></trkpt><trkpt lat="40.97724401945518" lon="8.934905962497991"><ele>433.0</ele><time>2026-05-02T07:22:56Z</time></trkpt><trkpt lat="40.977164299999735" lon="8.93496010823341"><ele>433.0</ele><time>2026-05-02T07:22:57Z</time></trkpt><trkpt lat="40.97708146631044" lon="8.935016503172545"><ele>432.99999999999994</ele><time>2026-05-02T07:22:58Z</time></trkpt><trkpt lat="40.976997455034024" lon="8.935074235567798"><ele>432.99999999999994</ele><time>2026-05-02T07:22:59Z</time></trkpt><trkpt lat="40.976914868355" lon="8.935128403712623"><ele>433.0</ele><time>2026-05-02T07:23:00Z</time></trkpt><trkpt lat="40.97683749910418" lon="8.935159487581728"><ele>433.0</ele><time>2026-05-02T07:23:01Z</time></trkpt><trkpt lat="40.97672353748724" lon="8.935165427419284"><ele>434.33333333333337</ele><time>2026-05-02T07:23:03Z</time></trkpt><trkpt lat="40.97666105745792" lon="8.9351387800361"><ele>435.6666666666667</ele><time>2026-05-02T07:23:04Z</time></trkpt><trkpt lat="40.97659876736174" lon="8.935092560220099"><ele>437.0</ele><time>2026-05-02T07:23:05Z</time></trkpt><trkpt lat="40.97652162307511" lon="8.935037691383924"><ele>438.33333333333337</ele><time>2026-05-02T07:23:06Z</time></trkpt><trkpt lat="40.97643623075982" lon="8.934977429818785"><ele>439.6666666666667</ele><time>2026-05-02T07:23:07Z</time></trkpt><trkpt lat="40.97634317886455" lon="8.93491327980556"><ele>441.0</ele><time>2026-05-02T07:23:08Z</time></trkpt><trkpt lat="40.97625427434614" lon="8.934851525725785"><ele>441.0</ele><time>2026-05-02T07:23:09Z</time></trkpt><trkpt lat="40.97617267381965" lon="8.934785479344793"><ele>441.0</ele><time>2026-05-02T07:23:10Z</time></trkpt><trkpt lat="40.97607834845218" lon="8.934731293638647"><ele>441.0</ele><time>2026-05-02T07:23:11Z</time></trkpt><trkpt lat="40.97597930992702" lon="8.934663653956123"><ele>441.0</ele><time>2026-05-02T07:23:12Z</time></trkpt><trkpt lat="40.97587038207052" lon="8.934636254779086"><ele>441.0</ele><time>2026-05-02T07:23:13Z</time></trkpt><trkpt lat="40.975762735946475" lon="8.934588351940693"><ele>445.75</ele><time>2026-05-02T07:23:14Z</time></trkpt><trkpt lat="40.97565378211751" lon="8.934547897682803"><ele>450.5</ele><time>2026-05-02T07:23:15Z</time></trkpt><trkpt lat="40.97554492183251" lon="8.934514112506648"><ele>455.25</ele><time>2026-05-02T07:23:16Z</time></trkpt><trkpt lat="40.97543954833067" lon="8.934468539253093"><ele>460.0</ele><time>2026-05-02T07:23:17Z</time></trkpt><trkpt lat="40.97532085433291" lon="8.934472684818523"><ele>460.0</ele><time>2026-05-02T07:23:18Z</time></trkpt><trkpt lat="40.97520645085808" lon="8.934458292998325"><ele>460.0</ele><time>2026-05-02T07:23:19Z</time></trkpt><trkpt lat="40.975106551642604" lon="8.934417412086777"><ele>460.0</ele><time>2026-05-02T07:23:20Z</time></trkpt><trkpt lat="40.97501108992938" lon="8.934380452339434"><ele>460.0</ele><time>2026-05-02T07:23:21Z</time></trkpt><trkpt lat="40.97492320039778" lon="8.93434028488219"><ele>460.0</ele><time>2026-05-02T07:23:22Z</time></trkpt><trkpt lat="40.97484324875952" lon="8.934300385976364"><ele>461.2</ele><time>2026-05-02T07:23:23Z</time></trkpt><trkpt lat="40.97475713907986" lon="8.934260114418077"><ele>462.4</ele><time>2026-05-02T07:23:24Z</time></trkpt><trkpt lat="40.974659654283265" lon="8.934237583784864"><ele>463.6</ele><time>2026-05-02T07:23:25Z</time></trkpt><trkpt lat="40.974564282144016" lon="8.934190012232552"><ele>464.8</ele><time>2026-05-02T07:23:26Z</time></trkpt><trkpt lat="40.974484679754674" lon="8.934125845962422"><ele>466.0</ele><time>2026-05-02T07:23:27Z</time></trkpt><trkpt lat="40.974415012368006" lon="8.934062013366947"><ele>466.00000000000006</ele><time>2026-05-02T07:23:28Z</time></trkpt><trkpt lat="40.97435581193533" lon="8.934006823759304"><ele>466.0</ele><time>2026-05-02T07:23:29Z</time></trkpt><trkpt lat="40.97430649071962" lon="8.93392324242304"><ele>466.0</ele><time>2026-05-02T07:23:30Z</time></trkpt><trkpt lat="40.97426606053082" lon="8.933821482135127"><ele>466.0</ele><time>2026-05-02T07:23:31Z</time></trkpt><trkpt lat="40.97423752484333" lon="8.93371608720296"><ele>466.00000000000006</ele><time>2026-05-02T07:23:32Z</time></trkpt><trkpt lat="40.974205501960725" lon="8.9336134409648"><ele>466.0</ele><time>2026-05-02T07:23:33Z</time></trkpt><trkpt lat="40.97414830998043" lon="8.933544471406485"><ele>471.4</ele><time>2026-05-02T07:23:34Z</time></trkpt><trkpt lat="40.97407354851856" lon="8.933491508120461"><ele>476.8</ele><time>2026-05-02T07:23:35Z</time></trkpt><trkpt lat="40.97400150103395" lon="8.933444515463567"><ele>482.19999999999993</ele><time>2026-05-02T07:23:36Z</time></trkpt><trkpt lat="40.97390366698" lon="8.933435054375973"><ele>487.59999999999997</ele><time>2026-05-02T07:23:37Z</time></trkpt><trkpt lat="40.97379486142525" lon="8.933428726371432"><ele>493.0</ele><time>2026-05-02T07:23:38Z</time></trkpt><trkpt lat="40.97368664059159" lon="8.933414050985217"><ele>493.0</ele><time>2026-05-02T07:23:39Z</time></trkpt><trkpt lat="40.97357484551001" lon="8.933405660212703"><ele>492.99999999999994</ele><time>2026-05-02T07:23:40Z</time></trkpt><trkpt lat="40.9734735958414" lon="8.933398221445728"><ele>492.99999999999994</ele><time>2026-05-02T07:23:41Z</time></trkpt><trkpt lat="40.97336589371857" lon="8.93340447083832"><ele>493.0</ele><time>2026-05-02T07:23:42Z</time></trkpt><trkpt lat="40.9732481897621" lon="8.933407396717174"><ele>493.0</ele><time>2026-05-02T07:23:43Z</time></trkpt><trkpt lat="40.97313573877192" lon="8.933413262576726"><ele>498.4</ele><time>2026-05-02T07:23:44Z</time></trkpt><trkpt lat="40.973023128611366" lon="8.933435566479519"><ele>503.79999999999995</ele><time>2026-05-02T07:23:45Z</time></trkpt><trkpt lat="40.97293101957417" lon="8.933477698969044"><ele>509.2</ele><time>2026-05-02T07:23:46Z</time></trkpt><trkpt lat="40.97283557486019" lon="8.933530962535247"><ele>514.6</ele><time>2026-05-02T07:23:47Z</time></trkpt><trkpt lat="40.97273294917731" lon="8.933550447359705"><ele>520.0</ele><time>2026-05-02T07:23:48Z</time></trkpt><trkpt lat="40.97263432877232" lon="8.933555421245066"><ele>520.0</ele><time>2026-05-02T07:23:49Z</time></trkpt><trkpt lat="40.97252520133463" lon="8.93355397339984"><ele>520.0</ele><time>2026-05-02T07:23:50Z</time></trkpt><trkpt lat="40.972387268104626" lon="8.933554258048135"><ele>520.0</ele><time>2026-05-02T07:23:51Z</time></trkpt><trkpt lat="40.972245210064656" lon="8.93355373941703"><ele>520.0</ele><time>2026-05-02T07:23:52Z</time></trkpt><trkpt lat="40.972112971439074" lon="8.933542266860318"><ele>523.25</ele><time>2026-05-02T07:23:53Z</time></trkpt><trkpt lat="40.971967469833906" lon="8.933524032143982"><ele>526.5</ele><time>2026-05-02T07:23:54Z</time></trkpt><trkpt lat="40.97183123511644" lon="8.933494763032348"><ele>529.75</ele><time>2026-05-02T07:23:55Z</time></trkpt><trkpt lat="40.97170833699948" lon="8.933520696667761"><ele>533.0</ele><time>2026-05-02T07:23:56Z</time></trkpt><trkpt lat="40.97161384360103" lon="8.93349090169938"><ele>532.1999999999999</ele><time>2026-05-02T07:23:57Z</time></trkpt><trkpt lat="40.97155231217241" lon="8.933460172738643"><ele>531.4</ele><time>2026-05-02T07:23:58Z</time></trkpt><trkpt lat="40.97151767803289" lon="8.933320858228251"><ele>530.5999999999999</ele><time>2026-05-02T07:24:00Z</time></trkpt><trkpt lat="40.971483564804934" lon="8.933216258430999"><ele>529.8</ele><time>2026-05-02T07:24:01Z</time></trkpt><trkpt lat="40.97145273931056" lon="8.933091785907873"><ele>529.0</ele><time>2026-05-02T07:24:02Z</time></trkpt><trkpt lat="40.971404952780155" lon="8.932967974864228"><ele>529.0</ele><time>2026-05-02T07:24:03Z</time></trkpt><trkpt lat="40.97137881146073" lon="8.932850088794906"><ele>529.0</ele><time>2026-05-02T07:24:04Z</time></trkpt><trkpt lat="40.97135119229286" lon="8.932714582257844"><ele>529.0</ele><time>2026-05-02T07:24:05Z</time></trkpt><trkpt lat="40.97136551998786" lon="8.932585839461405"><ele>529.0</ele><time>2026-05-02T07:24:06Z</time></trkpt><trkpt lat="40.97136893641885" lon="8.932411981229817"><ele>529.0</ele><time>2026-05-02T07:24:07Z</time></trkpt><trkpt lat="40.97136201782167" lon="8.932271340553713"><ele>528.6666666666667</ele><time>2026-05-02T07:24:08Z</time></trkpt><trkpt lat="40.97137550866699" lon="8.932158772191247"><ele>528.3333333333334</ele><time>2026-05-02T07:24:09Z</time></trkpt><trkpt lat="40.97136234829587" lon="8.932056034141914"><ele>528.0</ele><time>2026-05-02T07:24:12Z</time></trkpt><trkpt lat="40.97126095076212" lon="8.93208794144891"><ele>527.6666666666666</ele><time>2026-05-02T07:24:14Z</time></trkpt><trkpt lat="40.971240623660655" lon="8.93218179324669"><ele>527.3333333333333</ele><time>2026-05-02T07:24:15Z</time></trkpt><trkpt lat="40.97126955771922" lon="8.932277988332533"><ele>527.0</ele><time>2026-05-02T07:24:16Z</time></trkpt><trkpt lat="40.9712487664462" lon="8.932371388148702"><ele>527.0</ele><time>2026-05-02T07:24:17Z</time></trkpt><trkpt lat="40.97121505061662" lon="8.932461204804422"><ele>527.0</ele><time>2026-05-02T07:24:18Z</time></trkpt><trkpt lat="40.97118360435459" lon="8.932546252477728"><ele>527.0</ele><time>2026-05-02T07:24:19Z</time></trkpt><trkpt lat="40.97114839957008" lon="8.93264634901025"><ele>527.0</ele><time>2026-05-02T07:24:20Z</time></trkpt><trkpt lat="40.97113236498407" lon="8.932751368431422"><ele>527.0</ele><time>2026-05-02T07:24:21Z</time></trkpt><trkpt lat="40.97111220139583" lon="8.932850699575095"><ele>527.0</ele><time>2026-05-02T07:24:22Z</time></trkpt><trkpt lat="40.971064591077884" lon="8.932924744378678"><ele>527.2857142857143</ele><time>2026-05-02T07:24:23Z</time></trkpt><trkpt lat="40.97102544127869" lon="8.933006732098699"><ele>527.5714285714286</ele><time>2026-05-02T07:24:24Z</time></trkpt><trkpt lat="40.97098539063133" lon="8.933091722796057"><ele>527.8571428571429</ele><time>2026-05-02T07:24:25Z</time></trkpt><trkpt lat="40.97094526849016" lon="8.933176865164802"><ele>528.1428571428571</ele><time>2026-05-02T07:24:26Z</time></trkpt><trkpt lat="40.9709059010701" lon="8.933258545470487"><ele>528.4285714285714</ele><time>2026-05-02T07:24:27Z</time></trkpt><trkpt lat="40.97086544342927" lon="8.933342488992682"><ele>528.7142857142858</ele><time>2026-05-02T07:24:28Z</time></trkpt><trkpt lat="40.97082435285871" lon="8.93342685601251"><ele>529.0</ele><time>2026-05-02T07:24:29Z</time></trkpt><trkpt lat="40.97077482149447" lon="8.933527511247906"><ele>535.0</ele><time>2026-05-02T07:24:30Z</time></trkpt><trkpt lat="40.97074280919472" lon="8.933628612122853"><ele>541.0</ele><time>2026-05-02T07:24:31Z</time></trkpt><trkpt lat="40.97070223791311" lon="8.93372179288005"><ele>547.0</ele><time>2026-05-02T07:24:32Z</time></trkpt><trkpt lat="40.9706526589155" lon="8.933811597210125"><ele>553.0</ele><time>2026-05-02T07:24:33Z</time></trkpt><trkpt lat="40.97061990108748" lon="8.933911135506198"><ele>559.0</ele><time>2026-05-02T07:24:34Z</time></trkpt><trkpt lat="40.970589708433685" lon="8.934010968714812"><ele>565.0</ele><time>2026-05-02T07:24:35Z</time></trkpt><trkpt lat="40.97058159359005" lon="8.934119008632543"><ele>565.0</ele><time>2026-05-02T07:24:36Z</time></trkpt><trkpt lat="40.970576739010454" lon="8.93424944918356"><ele>565.0</ele><time>2026-05-02T07:24:38Z</time></trkpt><trkpt lat="40.97056794789058" lon="8.934333140927874"><ele>565.0</ele><time>2026-05-02T07:24:40Z</time></trkpt><trkpt lat="40.97049909775919" lon="8.934348282379782"><ele>565.0</ele><time>2026-05-02T07:24:43Z</time></trkpt><trkpt lat="40.970528481953586" lon="8.934206803119396"><ele>565.0</ele><time>2026-05-02T07:24:45Z</time></trkpt><trkpt lat="40.97047135691531" lon="8.934032149983286"><ele>565.0</ele><time>2026-05-02T07:24:47Z</time></trkpt><trkpt lat="40.970427561058344" lon="8.933939609499452"><ele>565.0</ele><time>2026-05-02T07:24:48Z</time></trkpt><trkpt lat="40.97040815127727" lon="8.933824666543293"><ele>565.0</ele><time>2026-05-02T07:24:49Z</time></trkpt><trkpt lat="40.97039231680024" lon="8.933731783690172"><ele>565.0</ele><time>2026-05-02T07:24:50Z</time></trkpt><trkpt lat="40.97041550663235" lon="8.93364778096259"><ele>565.0</ele><time>2026-05-02T07:24:51Z</time></trkpt><trkpt lat="40.97043036751555" lon="8.933524514669543"><ele>565.0</ele><time>2026-05-02T07:24:52Z</time></trkpt><trkpt lat="40.970430982640416" lon="8.933388348544927"><ele>564.8333333333334</ele><time>2026-05-02T07:24:53Z</time></trkpt><trkpt lat="40.970425673427165" lon="8.93326168212701"><ele>564.6666666666667</ele><time>2026-05-02T07:24:54Z</time></trkpt><trkpt lat="40.97043119974835" lon="8.9331455794102"><ele>564.5</ele><time>2026-05-02T07:24:55Z</time></trkpt><trkpt lat="40.97044088564503" lon="8.933060308154033"><ele>564.3333333333334</ele><time>2026-05-02T07:24:56Z</time></trkpt><trkpt lat="40.97047092540975" lon="8.932959345723955"><ele>564.1666666666666</ele><time>2026-05-02T07:24:58Z</time></trkpt><trkpt lat="40.97041389026262" lon="8.932884839407773"><ele>564.0</ele><time>2026-05-02T07:25:01Z</time></trkpt><trkpt lat="40.97032627368333" lon="8.932961718030601"><ele>564.0</ele><time>2026-05-02T07:25:03Z</time></trkpt><trkpt lat="40.97030550753504" lon="8.933089365360255"><ele>564.0</ele><time>2026-05-02T07:25:04Z</time></trkpt><trkpt lat="40.97025093701605" lon="8.933182011195203"><ele>564.0</ele><time>2026-05-02T07:25:05Z</time></trkpt><trkpt lat="40.970189752759374" lon="8.933273650961691"><ele>564.0</ele><time>2026-05-02T07:25:06Z</time></trkpt><trkpt lat="40.97012265598645" lon="8.933362924821349"><ele>564.0</ele><time>2026-05-02T07:25:07Z</time></trkpt><trkpt lat="40.970055120982025" lon="8.933440020504172"><ele>569.5</ele><time>2026-05-02T07:25:08Z</time></trkpt><trkpt lat="40.969988739604936" lon="8.93351582055328"><ele>575.0</ele><time>2026-05-02T07:25:09Z</time></trkpt><trkpt lat="40.96993920656553" lon="8.933602860151858"><ele>580.5</ele><time>2026-05-02T07:25:10Z</time></trkpt><trkpt lat="40.96988616071148" lon="8.933683029336747"><ele>586.0</ele><time>2026-05-02T07:25:11Z</time></trkpt><trkpt lat="40.96985200670985" lon="8.933784523174182"><ele>591.5</ele><time>2026-05-02T07:25:12Z</time></trkpt><trkpt lat="40.96979846078939" lon="8.933902280299256"><ele>597.0</ele><time>2026-05-02T07:25:13Z</time></trkpt><trkpt lat="40.969731193589716" lon="8.933988315871664"><ele>597.0</ele><time>2026-05-02T07:25:14Z</time></trkpt><trkpt lat="40.96967369334369" lon="8.93410944418682"><ele>597.0</ele><time>2026-05-02T07:25:15Z</time></trkpt><trkpt lat="40.96963473367879" lon="8.934231212887994"><ele>597.0</ele><time>2026-05-02T07:25:16Z</time></trkpt><trkpt lat="40.96959976240052" lon="8.93434722347986"><ele>597.0</ele><time>2026-05-02T07:25:17Z</time></trkpt><trkpt lat="40.96954918926433" lon="8.934459059639886"><ele>597.0</ele><time>2026-05-02T07:25:18Z</time></trkpt><trkpt lat="40.96948157593112" lon="8.934563317805134"><ele>597.8000000000001</ele><time>2026-05-02T07:25:19Z</time></trkpt><trkpt lat="40.96943925590796" lon="8.934691826914182"><ele>598.6</ele><time>2026-05-02T07:25:20Z</time></trkpt><trkpt lat="40.96936895919228" lon="8.934795727395077"><ele>599.4000000000001</ele><time>2026-05-02T07:25:21Z</time></trkpt><trkpt lat="40.96930864557902" lon="8.934903135190995"><ele>600.2</ele><time>2026-05-02T07:25:22Z</time></trkpt><trkpt lat="40.9692411282475" lon="8.935007705079512"><ele>601.0</ele><time>2026-05-02T07:25:23Z</time></trkpt><trkpt lat="40.969174867928466" lon="8.935097594122846"><ele>604.0</ele><time>2026-05-02T07:25:24Z</time></trkpt><trkpt lat="40.96911963946336" lon="8.935177191635283"><ele>607.0</ele><time>2026-05-02T07:25:25Z</time></trkpt><trkpt lat="40.96907123169088" lon="8.935249562230188"><ele>610.0</ele><time>2026-05-02T07:25:26Z</time></trkpt><trkpt lat="40.969046250744384" lon="8.935337520854413"><ele>613.0</ele><time>2026-05-02T07:25:27Z</time></trkpt><trkpt lat="40.96901786315927" lon="8.93541749557637"><ele>616.0</ele><time>2026-05-02T07:25:28Z</time></trkpt><trkpt lat="40.96899986643907" lon="8.935509030236215"><ele>619.0</ele><time>2026-05-02T07:25:29Z</time></trkpt><trkpt lat="40.96898221059941" lon="8.935610432257581"><ele>622.0</ele><time>2026-05-02T07:25:30Z</time></trkpt><trkpt lat="40.968958459547736" lon="8.93571676657827"><ele>622.0</ele><time>2026-05-02T07:25:31Z</time></trkpt><trkpt lat="40.96892616437514" lon="8.935837682074716"><ele>622.0</ele><time>2026-05-02T07:25:32Z</time></trkpt><trkpt lat="40.968864160955995" lon="8.935959675099712"><ele>622.0</ele><time>2026-05-02T07:25:33Z</time></trkpt><trkpt lat="40.96880172707681" lon="8.936087185220911"><ele>622.0</ele><time>2026-05-02T07:25:34Z</time></trkpt><trkpt lat="40.968740142217094" lon="8.936186866049052"><ele>622.0</ele><time>2026-05-02T07:25:35Z</time></trkpt><trkpt lat="40.96865921185249" lon="8.936288197895987"><ele>624.0</ele><time>2026-05-02T07:25:36Z</time></trkpt><trkpt lat="40.96857196592554" lon="8.936376585888008"><ele>626.0</ele><time>2026-05-02T07:25:37Z</time></trkpt><trkpt lat="40.96848045628486" lon="8.936457508598087"><ele>628.0</ele><time>2026-05-02T07:25:38Z</time></trkpt><trkpt lat="40.968386203170105" lon="8.936533109865941"><ele>630.0</ele><time>2026-05-02T07:25:39Z</time></trkpt><trkpt lat="40.96828448547745" lon="8.936587916754453"><ele>632.0</ele><time>2026-05-02T07:25:40Z</time></trkpt><trkpt lat="40.96818352114868" lon="8.936622509977425"><ele>634.8</ele><time>2026-05-02T07:25:41Z</time></trkpt><trkpt lat="40.9680844637398" lon="8.936658118976421"><ele>637.6</ele><time>2026-05-02T07:25:42Z</time></trkpt><trkpt lat="40.967989569566896" lon="8.936692885520436"><ele>640.4</ele><time>2026-05-02T07:25:43Z</time></trkpt><trkpt lat="40.96789233523574" lon="8.936729533163518"><ele>643.1999999999999</ele><time>2026-05-02T07:25:44Z</time></trkpt><trkpt lat="40.96781254354122" lon="8.93676578712514"><ele>646.0</ele><time>2026-05-02T07:25:45Z</time></trkpt><trkpt lat="40.96774471287241" lon="8.93680719879003"><ele>647.0</ele><time>2026-05-02T07:25:46Z</time></trkpt><trkpt lat="40.96768187060932" lon="8.936867050898595"><ele>648.0</ele><time>2026-05-02T07:25:47Z</time></trkpt><trkpt lat="40.96762406621177" lon="8.936952682963508"><ele>649.0</ele><time>2026-05-02T07:25:48Z</time></trkpt><trkpt lat="40.96757593190215" lon="8.937059917622651"><ele>650.0</ele><time>2026-05-02T07:25:49Z</time></trkpt><trkpt lat="40.9675282514762" lon="8.937165244580674"><ele>651.0</ele><time>2026-05-02T07:25:50Z</time></trkpt><trkpt lat="40.96748249424397" lon="8.937266322808028"><ele>652.0</ele><time>2026-05-02T07:25:51Z</time></trkpt><trkpt lat="40.967441564823936" lon="8.93734006047305"><ele>652.6</ele><time>2026-05-02T07:25:52Z</time></trkpt><trkpt lat="40.967367293762294" lon="8.937381729649312"><ele>653.2</ele><time>2026-05-02T07:25:54Z</time></trkpt><trkpt lat="40.96723796143125" lon="8.937383046239617"><ele>653.8</ele><time>2026-05-02T07:25:56Z</time></trkpt><trkpt lat="40.96713325527074" lon="8.937412540822846"><ele>654.4</ele><time>2026-05-02T07:25:57Z</time></trkpt><trkpt lat="40.96702178512452" lon="8.937468617119594"><ele>655.0</ele><time>2026-05-02T07:25:58Z</time></trkpt><trkpt lat="40.96689398534193" lon="8.937495648640262"><ele>656.0</ele><time>2026-05-02T07:25:59Z</time></trkpt><trkpt lat="40.96677558625667" lon="8.937558489617716"><ele>657.0</ele><time>2026-05-02T07:26:00Z</time></trkpt><trkpt lat="40.96665205941401" lon="8.937585557737755"><ele>658.0</ele><time>2026-05-02T07:26:01Z</time></trkpt><trkpt lat="40.96653901085521" lon="8.937622591134"><ele>659.0</ele><time>2026-05-02T07:26:02Z</time></trkpt><trkpt lat="40.966434630442016" lon="8.937654661529475"><ele>659.0</ele><time>2026-05-02T07:26:03Z</time></trkpt><trkpt lat="40.966342452760685" lon="8.937715627502936"><ele>659.0</ele><time>2026-05-02T07:26:04Z</time></trkpt><trkpt lat="40.966255523709464" lon="8.937767169976576"><ele>659.0</ele><time>2026-05-02T07:26:05Z</time></trkpt><trkpt lat="40.96618364127944" lon="8.937833087112715"><ele>659.0</ele><time>2026-05-02T07:26:06Z</time></trkpt><trkpt lat="40.9661124570907" lon="8.937883605674271"><ele>659.0</ele><time>2026-05-02T07:26:07Z</time></trkpt><trkpt lat="40.96605143809831" lon="8.937947278668581"><ele>659.0</ele><time>2026-05-02T07:26:08Z</time></trkpt><trkpt lat="40.96600312587395" lon="8.93803601441276"><ele>659.0</ele><time>2026-05-02T07:26:09Z</time></trkpt><trkpt lat="40.96594297937595" lon="8.9380956508232"><ele>659.0</ele><time>2026-05-02T07:26:10Z</time></trkpt><trkpt lat="40.96589267073061" lon="8.938165953711897"><ele>659.0</ele><time>2026-05-02T07:26:11Z</time></trkpt><trkpt lat="40.965835508849935" lon="8.938243026755496"><ele>659.0</ele><time>2026-05-02T07:26:12Z</time></trkpt><trkpt lat="40.965777067026046" lon="8.938320925509448"><ele>659.0</ele><time>2026-05-02T07:26:13Z</time></trkpt><trkpt lat="40.96572269402895" lon="8.938393400687811"><ele>659.0</ele><time>2026-05-02T07:26:14Z</time></trkpt><trkpt lat="40.96567618255673" lon="8.938451728684084"><ele>657.8000000000001</ele><time>2026-05-02T07:26:15Z</time></trkpt><trkpt lat="40.965603431083856" lon="8.938482482350757"><ele>656.6</ele><time>2026-05-02T07:26:17Z</time></trkpt><trkpt lat="40.96553363841774" lon="8.938380108127504"><ele>655.4</ele><time>2026-05-02T07:26:19Z</time></trkpt><trkpt lat="40.96546381751314" lon="8.938299213402631"><ele>654.2</ele><time>2026-05-02T07:26:20Z</time></trkpt><trkpt lat="40.96539472727101" lon="8.938184442854048"><ele>653.0</ele><time>2026-05-02T07:26:21Z</time></trkpt><trkpt lat="40.96531795711652" lon="8.938061411247302"><ele>651.8</ele><time>2026-05-02T07:26:22Z</time></trkpt><trkpt lat="40.96525198578598" lon="8.937924808145993"><ele>650.5999999999999</ele><time>2026-05-02T07:26:23Z</time></trkpt><trkpt lat="40.9651690733956" lon="8.937829038960265"><ele>649.4000000000001</ele><time>2026-05-02T07:26:24Z</time></trkpt><trkpt lat="40.96511353900333" lon="8.937710903747156"><ele>648.2</ele><time>2026-05-02T07:26:25Z</time></trkpt><trkpt lat="40.965049005995965" lon="8.937612099066591"><ele>647.0</ele><time>2026-05-02T07:26:26Z</time></trkpt><trkpt lat="40.964987684809884" lon="8.937518211990843"><ele>645.1666666666666</ele><time>2026-05-02T07:26:27Z</time></trkpt><trkpt lat="40.96493041264607" lon="8.937431215099394"><ele>643.3333333333333</ele><time>2026-05-02T07:26:28Z</time></trkpt><trkpt lat="40.96485890496086" lon="8.937353275653443"><ele>641.5</ele><time>2026-05-02T07:26:29Z</time></trkpt><trkpt lat="40.964799799734955" lon="8.937260597993676"><ele>639.6666666666666</ele><time>2026-05-02T07:26:30Z</time></trkpt><trkpt lat="40.96474661410192" lon="8.93717875063803"><ele>637.8333333333334</ele><time>2026-05-02T07:26:31Z</time></trkpt><trkpt lat="40.96469569610276" lon="8.937101176256213"><ele>636.0</ele><time>2026-05-02T07:26:32Z</time></trkpt><trkpt lat="40.96463887629807" lon="8.937017983845982"><ele>636.0</ele><time>2026-05-02T07:26:33Z</time></trkpt><trkpt lat="40.96458464438596" lon="8.936938697647"><ele>636.0</ele><time>2026-05-02T07:26:34Z</time></trkpt><trkpt lat="40.96454155829768" lon="8.936844359453188"><ele>636.0</ele><time>2026-05-02T07:26:35Z</time></trkpt><trkpt lat="40.96447624847095" lon="8.936776765255603"><ele>636.0</ele><time>2026-05-02T07:26:36Z</time></trkpt><trkpt lat="40.964422741194824" lon="8.936696678431556"><ele>636.0</ele><time>2026-05-02T07:26:37Z</time></trkpt><trkpt lat="40.96436896562223" lon="8.936616137026885"><ele>636.0</ele><time>2026-05-02T07:26:38Z</time></trkpt><trkpt lat="40.964310973789836" lon="8.936528735929455"><ele>636.2</ele><time>2026-05-02T07:26:39Z</time></trkpt><trkpt lat="40.96424702530409" lon="8.936439082206618"><ele>636.4000000000001</ele><time>2026-05-02T07:26:40Z</time></trkpt><trkpt lat="40.96418167114359" lon="8.93634158732454"><ele>636.6</ele><time>2026-05-02T07:26:41Z</time></trkpt><trkpt lat="40.96411073277117" lon="8.936235285297379"><ele>636.8000000000001</ele><time>2026-05-02T07:26:42Z</time></trkpt><trkpt lat="40.96404211052666" lon="8.93612720647022"><ele>637.0</ele><time>2026-05-02T07:26:43Z</time></trkpt><trkpt lat="40.9639730805275" lon="8.93601844471933"><ele>636.8000000000001</ele><time>2026-05-02T07:26:44Z</time></trkpt><trkpt lat="40.96389707753901" lon="8.935904291211278"><ele>636.6</ele><time>2026-05-02T07:26:45Z</time></trkpt><trkpt lat="40.96382233480142" lon="8.935792495906677"><ele>636.4000000000001</ele><time>2026-05-02T07:26:46Z</time></trkpt><trkpt lat="40.96374233373321" lon="8.935693796263582"><ele>636.2</ele><time>2026-05-02T07:26:47Z</time></trkpt><trkpt lat="40.96365733376385" lon="8.935608282689005"><ele>636.0</ele><time>2026-05-02T07:26:48Z</time></trkpt><trkpt lat="40.963582849463954" lon="8.935529392564971"><ele>636.0</ele><time>2026-05-02T07:26:49Z</time></trkpt><trkpt lat="40.963513602784474" lon="8.935451627363488"><ele>636.0</ele><time>2026-05-02T07:26:50Z</time></trkpt><trkpt lat="40.96345368592695" lon="8.935373128165129"><ele>636.0</ele><time>2026-05-02T07:26:51Z</time></trkpt><trkpt lat="40.96340258672603" lon="8.935299589785364"><ele>636.0</ele><time>2026-05-02T07:26:52Z</time></trkpt><trkpt lat="40.96335736542342" lon="8.935228100239444"><ele>636.0</ele><time>2026-05-02T07:26:53Z</time></trkpt><trkpt lat="40.963294247784155" lon="8.935082920086524"><ele>636.0</ele><time>2026-05-02T07:26:55Z</time></trkpt><trkpt lat="40.96325526344458" lon="8.935014498843335"><ele>639.5</ele><time>2026-05-02T07:26:56Z</time></trkpt><trkpt lat="40.96352072714309" lon="8.934874007538069"><ele>643.0</ele><time>2026-05-02T07:26:57Z</time></trkpt><trkpt lat="40.96354866952643" lon="8.934651363577384"><ele>643.0</ele><time>2026-05-02T07:27:00Z</time></trkpt><trkpt lat="40.96338679851869" lon="8.934237739021262"><ele>643.0</ele><time>2026-05-02T07:27:01Z</time></trkpt><trkpt lat="40.963331663589365" lon="8.93428438383294"><ele>643.0</ele><time>2026-05-02T07:27:03Z</time></trkpt><trkpt lat="40.96329948047568" lon="8.934204518925773"><ele>642.6666666666667</ele><time>2026-05-02T07:27:04Z</time></trkpt><trkpt lat="40.96326773096985" lon="8.934125729996587"><ele>642.3333333333334</ele><time>2026-05-02T07:27:05Z</time></trkpt><trkpt lat="40.96323327150269" lon="8.93404446584819"><ele>642.0</ele><time>2026-05-02T07:27:08Z</time></trkpt><trkpt lat="40.96322503141166" lon="8.933945132101243"><ele>641.6666666666666</ele><time>2026-05-02T07:27:10Z</time></trkpt><trkpt lat="40.96324525712451" lon="8.933826923149773"><ele>641.3333333333333</ele><time>2026-05-02T07:27:13Z</time></trkpt><trkpt lat="40.963272911493036" lon="8.93371090759833"><ele>641.0</ele><time>2026-05-02T07:27:15Z</time></trkpt><trkpt lat="40.96328770236054" lon="8.933589544886532"><ele>641.0</ele><time>2026-05-02T07:27:17Z</time></trkpt><trkpt lat="40.96329718837792" lon="8.933502076093419"><ele>641.0</ele><time>2026-05-02T07:27:18Z</time></trkpt><trkpt lat="40.962854078027" lon="8.933020722133135"><ele>641.8333333333333</ele><time>2026-05-02T07:27:21Z</time></trkpt><trkpt lat="40.962837922651126" lon="8.93286582701935"><ele>642.6666666666666</ele><time>2026-05-02T07:27:23Z</time></trkpt><trkpt lat="40.96283181580446" lon="8.932781370198407"><ele>643.5</ele><time>2026-05-02T07:27:24Z</time></trkpt><trkpt lat="40.96282519168575" lon="8.932691529379404"><ele>644.3333333333334</ele><time>2026-05-02T07:27:25Z</time></trkpt><trkpt lat="40.96281406308637" lon="8.932595987068249"><ele>645.1666666666667</ele><time>2026-05-02T07:27:26Z</time></trkpt><trkpt lat="40.962803720457295" lon="8.93250041933559"><ele>646.0</ele><time>2026-05-02T07:27:27Z</time></trkpt><trkpt lat="40.962793442284" lon="8.93240696597439"><ele>646.0</ele><time>2026-05-02T07:27:28Z</time></trkpt><trkpt lat="40.96277748327616" lon="8.932318711105912"><ele>646.0</ele><time>2026-05-02T07:27:29Z</time></trkpt><trkpt lat="40.96275158040703" lon="8.932237804044885"><ele>646.0</ele><time>2026-05-02T07:27:30Z</time></trkpt><trkpt lat="40.96272993336141" lon="8.932155982568865"><ele>646.0</ele><time>2026-05-02T07:27:31Z</time></trkpt><trkpt lat="40.96270833239242" lon="8.932075320877928"><ele>646.0</ele><time>2026-05-02T07:27:32Z</time></trkpt><trkpt lat="40.962676205939516" lon="8.93193299476561"><ele>646.0</ele><time>2026-05-02T07:27:34Z</time></trkpt><trkpt lat="40.962653849863926" lon="8.931781246131736"><ele>646.1999999999999</ele><time>2026-05-02T07:27:36Z</time></trkpt><trkpt lat="40.96264445866303" lon="8.931693888743387"><ele>646.4</ele><time>2026-05-02T07:27:37Z</time></trkpt><trkpt lat="40.962634986655885" lon="8.93154151859924"><ele>646.6</ele><time>2026-05-02T07:27:39Z</time></trkpt><trkpt lat="40.96264778240669" lon="8.931378844518326"><ele>646.8</ele><time>2026-05-02T07:27:41Z</time></trkpt><trkpt lat="40.962654946165806" lon="8.931220512708746"><ele>647.0</ele><time>2026-05-02T07:27:43Z</time></trkpt><trkpt lat="40.962661497966174" lon="8.931069552033193"><ele>647.0</ele><time>2026-05-02T07:27:45Z</time></trkpt><trkpt lat="40.96267531552358" lon="8.930951096862302"><ele>647.0</ele><time>2026-05-02T07:27:47Z</time></trkpt><trkpt lat="40.96269801205313" lon="8.930791235499875"><ele>647.0</ele><time>2026-05-02T07:27:49Z</time></trkpt><trkpt lat="40.9627141733369" lon="8.930699134757495"><ele>647.0</ele><time>2026-05-02T07:27:50Z</time></trkpt><trkpt lat="40.96273847532151" lon="8.930599000999058"><ele>647.0</ele><time>2026-05-02T07:27:51Z</time></trkpt><trkpt lat="40.96276464000649" lon="8.93050114984119"><ele>647.0</ele><time>2026-05-02T07:27:52Z</time></trkpt><trkpt lat="40.96278347685659" lon="8.930417359984212"><ele>646.3333333333333</ele><time>2026-05-02T07:27:53Z</time></trkpt><trkpt lat="40.96280222860717" lon="8.930325688909287"><ele>645.6666666666666</ele><time>2026-05-02T07:27:54Z</time></trkpt><trkpt lat="40.962848052926866" lon="8.930157237071072"><ele>645.0</ele><time>2026-05-02T07:27:56Z</time></trkpt><trkpt lat="40.96286903342503" lon="8.930060402969735"><ele>644.3333333333334</ele><time>2026-05-02T07:27:57Z</time></trkpt><trkpt lat="40.96289200700426" lon="8.929968425034403"><ele>643.6666666666667</ele><time>2026-05-02T07:27:58Z</time></trkpt><trkpt lat="40.962912094237545" lon="8.929881046023532"><ele>643.0</ele><time>2026-05-02T07:27:59Z</time></trkpt><trkpt lat="40.96293182664211" lon="8.929789973442423"><ele>641.5</ele><time>2026-05-02T07:28:00Z</time></trkpt><trkpt lat="40.962954546168376" lon="8.929701606508015"><ele>640.0</ele><time>2026-05-02T07:28:01Z</time></trkpt><trkpt lat="40.96297380373801" lon="8.929614549132806"><ele>638.5</ele><time>2026-05-02T07:28:02Z</time></trkpt><trkpt lat="40.962992346459025" lon="8.92952902367982"><ele>637.0</ele><time>2026-05-02T07:28:03Z</time></trkpt><trkpt lat="40.963014681219114" lon="8.92939305965862"><ele>635.5</ele><time>2026-05-02T07:28:05Z</time></trkpt><trkpt lat="40.96298732062392" lon="8.929268637098374"><ele>634.0</ele><time>2026-05-02T07:28:07Z</time></trkpt><trkpt lat="40.96293655019486" lon="8.929138707941961"><ele>633.0</ele><time>2026-05-02T07:28:09Z</time></trkpt><trkpt lat="40.96290005539464" lon="8.929008631956629"><ele>632.0</ele><time>2026-05-02T07:28:11Z</time></trkpt><trkpt lat="40.96285818988386" lon="8.92888324928818"><ele>631.0</ele><time>2026-05-02T07:28:13Z</time></trkpt><trkpt lat="40.96279421989207" lon="8.928791922707228"><ele>630.0</ele><time>2026-05-02T07:28:15Z</time></trkpt><trkpt lat="40.96271229258013" lon="8.92870879094484"><ele>629.0</ele><time>2026-05-02T07:28:17Z</time></trkpt><trkpt lat="40.96264121016903" lon="8.9286218471357"><ele>629.0</ele><time>2026-05-02T07:28:19Z</time></trkpt><trkpt lat="40.962582454006" lon="8.928556989201146"><ele>629.0</ele><time>2026-05-02T07:28:21Z</time></trkpt><trkpt lat="40.96250804959895" lon="8.928471087777076"><ele>629.0</ele><time>2026-05-02T07:28:23Z</time></trkpt><trkpt lat="40.96244895328068" lon="8.928409728119929"><ele>629.0</ele><time>2026-05-02T07:28:25Z</time></trkpt><trkpt lat="40.962380711386864" lon="8.92833706163769"><ele>629.0</ele><time>2026-05-02T07:28:27Z</time></trkpt><trkpt lat="40.96230280209509" lon="8.92825738300046"><ele>629.0</ele><time>2026-05-02T07:28:29Z</time></trkpt><trkpt lat="40.96223688513199" lon="8.92818600013968"><ele>627.6</ele><time>2026-05-02T07:28:31Z</time></trkpt><trkpt lat="40.962173023928464" lon="8.928117014996896"><ele>626.2</ele><time>2026-05-02T07:28:33Z</time></trkpt><trkpt lat="40.962103056254016" lon="8.928040876593213"><ele>624.8000000000001</ele><time>2026-05-02T07:28:35Z</time></trkpt><trkpt lat="40.96202622563881" lon="8.927970199826559"><ele>623.4</ele><time>2026-05-02T07:28:37Z</time></trkpt><trkpt lat="40.96193953660714" lon="8.92790085278227"><ele>622.0</ele><time>2026-05-02T07:28:39Z</time></trkpt><trkpt lat="40.96183514889494" lon="8.927840062121087"><ele>622.0</ele><time>2026-05-02T07:28:41Z</time></trkpt><trkpt lat="40.9617787589275" lon="8.927776371364889"><ele>622.0</ele><time>2026-05-02T07:28:43Z</time></trkpt><trkpt lat="40.96171761448231" lon="8.927714543891568"><ele>622.0</ele><time>2026-05-02T07:28:45Z</time></trkpt><trkpt lat="40.96166275611622" lon="8.927659404216595"><ele>622.0</ele><time>2026-05-02T07:28:47Z</time></trkpt><trkpt lat="40.96160802551257" lon="8.927599114326867"><ele>622.0</ele><time>2026-05-02T07:28:49Z</time></trkpt><trkpt lat="40.96155446797382" lon="8.927545477916562"><ele>622.0</ele><time>2026-05-02T07:28:51Z</time></trkpt><trkpt lat="40.96149884704868" lon="8.927456718441363"><ele>622.0</ele><time>2026-05-02T07:28:53Z</time></trkpt><trkpt lat="40.961443485308834" lon="8.927392079193066"><ele>621.0</ele><time>2026-05-02T07:28:55Z</time></trkpt><trkpt lat="40.96138215869718" lon="8.927317825110345"><ele>620.0</ele><time>2026-05-02T07:28:57Z</time></trkpt><trkpt lat="40.961326452894205" lon="8.927254854417034"><ele>619.0</ele><time>2026-05-02T07:28:59Z</time></trkpt><trkpt lat="40.96127304594065" lon="8.927191704390895"><ele>618.0</ele><time>2026-05-02T07:29:01Z</time></trkpt><trkpt lat="40.961216333435644" lon="8.927134752430621"><ele>617.0</ele><time>2026-05-02T07:29:04Z</time></trkpt><trkpt lat="40.96116275594671" lon="8.927083034498823"><ele>616.0</ele><time>2026-05-02T07:29:51Z</time></trkpt><trkpt lat="40.96110417545211" lon="8.927040115136018"><ele>615.0</ele><time>2026-05-02T07:35:58Z</time></trkpt><trkpt lat="40.96103027141159" lon="8.927012052033637"><ele>615.0</ele><time>2026-05-02T07:36:02Z</time></trkpt><trkpt lat="40.96095766991319" lon="8.92697085471941"><ele>615.0</ele><time>2026-05-02T07:36:06Z</time></trkpt><trkpt lat="40.96087698859738" lon="8.926928445349725"><ele>615.0</ele><time>2026-05-02T07:36:09Z</time></trkpt><trkpt lat="40.96078755749526" lon="8.926882236345454"><ele>615.0</ele><time>2026-05-02T07:36:12Z</time></trkpt><trkpt lat="40.96071712494188" lon="8.926841298594358"><ele>615.0</ele><time>2026-05-02T07:36:15Z</time></trkpt><trkpt lat="40.96064364573233" lon="8.926812002510488"><ele>615.0</ele><time>2026-05-02T07:36:18Z</time></trkpt><trkpt lat="40.96058751274482" lon="8.926766651950725"><ele>613.6666666666666</ele><time>2026-05-02T07:36:20Z</time></trkpt><trkpt lat="40.96052119214419" lon="8.926748472511084"><ele>612.3333333333334</ele><time>2026-05-02T07:36:22Z</time></trkpt><trkpt lat="40.960446061617574" lon="8.926711303205753"><ele>611.0</ele><time>2026-05-02T07:36:25Z</time></trkpt><trkpt lat="40.960355810166135" lon="8.92667467069874"><ele>609.6666666666667</ele><time>2026-05-02T07:36:28Z</time></trkpt><trkpt lat="40.96028718001549" lon="8.926643338031129"><ele>608.3333333333334</ele><time>2026-05-02T07:36:30Z</time></trkpt><trkpt lat="40.96022394110918" lon="8.926610100514964"><ele>607.0</ele><time>2026-05-02T07:36:32Z</time></trkpt><trkpt lat="40.96016004271925" lon="8.926584368974577"><ele>606.1666666666667</ele><time>2026-05-02T07:36:34Z</time></trkpt><trkpt lat="40.96009524595167" lon="8.92656255424625"><ele>605.3333333333334</ele><time>2026-05-02T07:36:36Z</time></trkpt><trkpt lat="40.96003037865246" lon="8.92651630097466"><ele>604.5</ele><time>2026-05-02T07:36:38Z</time></trkpt><trkpt lat="40.959958263448684" lon="8.926492700866927"><ele>603.6666666666666</ele><time>2026-05-02T07:36:40Z</time></trkpt><trkpt lat="40.95987814873948" lon="8.926466083226877"><ele>602.8333333333333</ele><time>2026-05-02T07:36:42Z</time></trkpt><trkpt lat="40.95980395776563" lon="8.926448742481934"><ele>602.0</ele><time>2026-05-02T07:36:44Z</time></trkpt><trkpt lat="40.95973084045312" lon="8.926410852664157"><ele>600.5</ele><time>2026-05-02T07:36:46Z</time></trkpt><trkpt lat="40.95964784683154" lon="8.926372725189859"><ele>599.0</ele><time>2026-05-02T07:36:48Z</time></trkpt><trkpt lat="40.9595801034113" lon="8.926330346123699"><ele>597.5</ele><time>2026-05-02T07:36:50Z</time></trkpt><trkpt lat="40.95950728049276" lon="8.92630640473284"><ele>596.0</ele><time>2026-05-02T07:36:52Z</time></trkpt><trkpt lat="40.959411990127734" lon="8.926267425622106"><ele>594.5</ele><time>2026-05-02T07:36:55Z</time></trkpt><trkpt lat="40.95934746955692" lon="8.926252915467035"><ele>593.0</ele><time>2026-05-02T07:36:57Z</time></trkpt><trkpt lat="40.95928597722374" lon="8.926272493990338"><ele>592.9999999999999</ele><time>2026-05-02T07:37:00Z</time></trkpt><trkpt lat="40.95920770839875" lon="8.926265909694486"><ele>593.0</ele><time>2026-05-02T07:37:12Z</time></trkpt><trkpt lat="40.9591501590093" lon="8.9262218873337"><ele>593.0</ele><time>2026-05-02T07:37:14Z</time></trkpt><trkpt lat="40.95907463439137" lon="8.926174916555974"><ele>593.0</ele><time>2026-05-02T07:37:17Z</time></trkpt><trkpt lat="40.95900656011754" lon="8.926143397556567"><ele>593.0</ele><time>2026-05-02T07:37:19Z</time></trkpt><trkpt lat="40.95894711160021" lon="8.926109218385658"><ele>592.9999999999999</ele><time>2026-05-02T07:37:21Z</time></trkpt><trkpt lat="40.95888054984636" lon="8.926067524042239"><ele>593.0</ele><time>2026-05-02T07:37:23Z</time></trkpt><trkpt lat="40.958805607331726" lon="8.926024627432971"><ele>592.3333333333333</ele><time>2026-05-02T07:37:25Z</time></trkpt><trkpt lat="40.95871849779068" lon="8.925968160276913"><ele>591.6666666666666</ele><time>2026-05-02T07:37:28Z</time></trkpt><trkpt lat="40.95864244849667" lon="8.925936194479666"><ele>591.0</ele><time>2026-05-02T07:37:31Z</time></trkpt><trkpt lat="40.958575711164926" lon="8.925889143721445"><ele>590.3333333333334</ele><time>2026-05-02T07:37:33Z</time></trkpt><trkpt lat="40.95849200710959" lon="8.925843938247475"><ele>589.6666666666667</ele><time>2026-05-02T07:37:35Z</time></trkpt><trkpt lat="40.95841125040996" lon="8.925796547634059"><ele>589.0</ele><time>2026-05-02T07:37:37Z</time></trkpt><trkpt lat="40.95832800009424" lon="8.925743523076052"><ele>588.5</ele><time>2026-05-02T07:37:39Z</time></trkpt><trkpt lat="40.95825321595293" lon="8.92569290439893"><ele>588.0</ele><time>2026-05-02T07:37:41Z</time></trkpt><trkpt lat="40.95818003500412" lon="8.925676039891249"><ele>587.5</ele><time>2026-05-02T07:37:44Z</time></trkpt><trkpt lat="40.95810866506072" lon="8.925673146912441"><ele>587.0</ele><time>2026-05-02T07:37:46Z</time></trkpt><trkpt lat="40.95802104081325" lon="8.925694413148102"><ele>586.5</ele><time>2026-05-02T07:37:48Z</time></trkpt><trkpt lat="40.95795266802954" lon="8.925677152808428"><ele>586.0</ele><time>2026-05-02T07:37:50Z</time></trkpt><trkpt lat="40.95786332261278" lon="8.925617801854825"><ele>586.0</ele><time>2026-05-02T07:37:52Z</time></trkpt><trkpt lat="40.95779831695241" lon="8.925574054068031"><ele>586.0</ele><time>2026-05-02T07:37:53Z</time></trkpt><trkpt lat="40.95774085440956" lon="8.925527696151308"><ele>586.0</ele><time>2026-05-02T07:37:54Z</time></trkpt><trkpt lat="40.957650775734244" lon="8.925466122632223"><ele>586.0</ele><time>2026-05-02T07:37:56Z</time></trkpt><trkpt lat="40.957540012185845" lon="8.925412470082962"><ele>586.0</ele><time>2026-05-02T07:37:58Z</time></trkpt><trkpt lat="40.95745050765727" lon="8.92538301503867"><ele>586.6666666666667</ele><time>2026-05-02T07:38:00Z</time></trkpt><trkpt lat="40.95739717703463" lon="8.925332967313368"><ele>587.3333333333334</ele><time>2026-05-02T07:38:02Z</time></trkpt><trkpt lat="40.95735011049051" lon="8.925249820821538"><ele>588.0</ele><time>2026-05-02T07:38:04Z</time></trkpt><trkpt lat="40.95729325713583" lon="8.925135212808675"><ele>588.6666666666666</ele><time>2026-05-02T07:38:06Z</time></trkpt><trkpt lat="40.957252064633565" lon="8.925062785396246"><ele>589.3333333333333</ele><time>2026-05-02T07:38:08Z</time></trkpt><trkpt lat="40.957193462823234" lon="8.924994092667381"><ele>590.0</ele><time>2026-05-02T07:38:10Z</time></trkpt><trkpt lat="40.95712174879515" lon="8.924907060605719"><ele>588.4</ele><time>2026-05-02T07:38:12Z</time></trkpt><trkpt lat="40.957048764645904" lon="8.924823946280046"><ele>586.8</ele><time>2026-05-02T07:38:14Z</time></trkpt><trkpt lat="40.95696823252033" lon="8.924740166689864"><ele>585.2</ele><time>2026-05-02T07:38:16Z</time></trkpt><trkpt lat="40.956909930249395" lon="8.924651216090906"><ele>583.6</ele><time>2026-05-02T07:38:18Z</time></trkpt><trkpt lat="40.9568446991167" lon="8.924564937804222"><ele>582.0</ele><time>2026-05-02T07:38:20Z</time></trkpt><trkpt lat="40.956759932280896" lon="8.924471962210177"><ele>581.0</ele><time>2026-05-02T07:38:22Z</time></trkpt><trkpt lat="40.95666216306589" lon="8.924362888512796"><ele>580.0</ele><time>2026-05-02T07:38:24Z</time></trkpt><trkpt lat="40.95657197859705" lon="8.924264903073553"><ele>579.0</ele><time>2026-05-02T07:38:26Z</time></trkpt><trkpt lat="40.95648993076224" lon="8.924170351853943"><ele>578.0</ele><time>2026-05-02T07:38:28Z</time></trkpt><trkpt lat="40.9564072784187" lon="8.924091449886841"><ele>578.0</ele><time>2026-05-02T07:38:30Z</time></trkpt><trkpt lat="40.95634557748419" lon="8.924006760670144"><ele>578.0</ele><time>2026-05-02T07:38:32Z</time></trkpt><trkpt lat="40.95628777863883" lon="8.923884843290413"><ele>578.0</ele><time>2026-05-02T07:38:34Z</time></trkpt><trkpt lat="40.95622598224648" lon="8.92377908145747"><ele>578.0</ele><time>2026-05-02T07:38:36Z</time></trkpt><trkpt lat="40.95615996758471" lon="8.923656261065085"><ele>578.0</ele><time>2026-05-02T07:38:38Z</time></trkpt><trkpt lat="40.95609317110634" lon="8.923526968706513"><ele>578.0</ele><time>2026-05-02T07:38:40Z</time></trkpt><trkpt lat="40.95605020284072" lon="8.923403638289077"><ele>578.0</ele><time>2026-05-02T07:38:42Z</time></trkpt><trkpt lat="40.95602080486042" lon="8.923295932877616"><ele>578.0</ele><time>2026-05-02T07:38:44Z</time></trkpt><trkpt lat="40.95599068532474" lon="8.923202615646778"><ele>578.0</ele><time>2026-05-02T07:38:46Z</time></trkpt><trkpt lat="40.95595328787298" lon="8.923131390763562"><ele>578.0</ele><time>2026-05-02T07:38:50Z</time></trkpt><trkpt lat="40.955892674263865" lon="8.923044408475594"><ele>578.0</ele><time>2026-05-02T07:48:09Z</time></trkpt><trkpt lat="40.955798609312254" lon="8.923007940577762"><ele>578.6666666666666</ele><time>2026-05-02T07:48:12Z</time></trkpt><trkpt lat="40.95572734747359" lon="8.922983860580942"><ele>579.3333333333333</ele><time>2026-05-02T07:48:14Z</time></trkpt><trkpt lat="40.955658829436075" lon="8.92295032551618"><ele>580.0</ele><time>2026-05-02T07:48:16Z</time></trkpt><trkpt lat="40.95559483800099" lon="8.9229225413663"><ele>580.6666666666666</ele><time>2026-05-02T07:48:18Z</time></trkpt><trkpt lat="40.95550247045907" lon="8.922868101947316"><ele>581.3333333333334</ele><time>2026-05-02T07:48:21Z</time></trkpt><trkpt lat="40.955461089798966" lon="8.922781844563128"><ele>582.0</ele><time>2026-05-02T07:48:23Z</time></trkpt><trkpt lat="40.95542386764798" lon="8.922692034692243"><ele>582.0</ele><time>2026-05-02T07:48:25Z</time></trkpt><trkpt lat="40.95537627830053" lon="8.922615802294805"><ele>582.0</ele><time>2026-05-02T07:48:27Z</time></trkpt><trkpt lat="40.95533197162778" lon="8.92252301891428"><ele>582.0</ele><time>2026-05-02T07:48:37Z</time></trkpt><trkpt lat="40.95530622077669" lon="8.922430793793854"><ele>582.0</ele><time>2026-05-02T07:48:39Z</time></trkpt><trkpt lat="40.955269553634295" lon="8.922329955167019"><ele>582.0</ele><time>2026-05-02T07:48:41Z</time></trkpt><trkpt lat="40.95522617652282" lon="8.922215658512874"><ele>582.0</ele><time>2026-05-02T07:48:43Z</time></trkpt><trkpt lat="40.9551814332891" lon="8.922104447856334"><ele>581.6</ele><time>2026-05-02T07:48:45Z</time></trkpt><trkpt lat="40.955130253021956" lon="8.92195937286174"><ele>581.2</ele><time>2026-05-02T07:48:47Z</time></trkpt><trkpt lat="40.955107123780785" lon="8.921816010481814"><ele>580.8</ele><time>2026-05-02T07:48:49Z</time></trkpt><trkpt lat="40.95506949134011" lon="8.921682364374444"><ele>580.4</ele><time>2026-05-02T07:48:51Z</time></trkpt><trkpt lat="40.955036398533295" lon="8.921549621451092"><ele>580.0</ele><time>2026-05-02T07:48:53Z</time></trkpt><trkpt lat="40.955007950154105" lon="8.921422246647964"><ele>581.4</ele><time>2026-05-02T07:48:55Z</time></trkpt><trkpt lat="40.95497550128702" lon="8.921318521454525"><ele>582.8</ele><time>2026-05-02T07:48:57Z</time></trkpt><trkpt lat="40.95495611398151" lon="8.921191530068162"><ele>584.2</ele><time>2026-05-02T07:48:59Z</time></trkpt><trkpt lat="40.954958236913434" lon="8.921049223536757"><ele>585.6</ele><time>2026-05-02T07:49:01Z</time></trkpt><trkpt lat="40.954929850941205" lon="8.920888083215793"><ele>587.0</ele><time>2026-05-02T07:49:03Z</time></trkpt><trkpt lat="40.95493298462245" lon="8.920795335898893"><ele>587.8333333333333</ele><time>2026-05-02T07:49:04Z</time></trkpt><trkpt lat="40.95489468305885" lon="8.920667025481814"><ele>588.6666666666666</ele><time>2026-05-02T07:49:06Z</time></trkpt><trkpt lat="40.95486993275734" lon="8.920549297811139"><ele>589.5</ele><time>2026-05-02T07:49:08Z</time></trkpt><trkpt lat="40.95483203058387" lon="8.920458954131512"><ele>590.3333333333334</ele><time>2026-05-02T07:49:11Z</time></trkpt><trkpt lat="40.954796513393774" lon="8.920384975219477"><ele>591.1666666666667</ele><time>2026-05-02T07:49:17Z</time></trkpt><trkpt lat="40.954731290965974" lon="8.920270630869046"><ele>592.0</ele><time>2026-05-02T07:49:19Z</time></trkpt><trkpt lat="40.95464965651674" lon="8.920174572484175"><ele>592.0</ele><time>2026-05-02T07:49:21Z</time></trkpt><trkpt lat="40.95461930410011" lon="8.920094155862511"><ele>592.0</ele><time>2026-05-02T07:49:22Z</time></trkpt><trkpt lat="40.95457078109038" lon="8.920023856228712"><ele>592.0</ele><time>2026-05-02T07:49:23Z</time></trkpt><trkpt lat="40.95452061933387" lon="8.919956160050463"><ele>592.0</ele><time>2026-05-02T07:49:24Z</time></trkpt><trkpt lat="40.95447047613712" lon="8.919893188947448"><ele>592.0</ele><time>2026-05-02T07:49:25Z</time></trkpt><trkpt lat="40.954416586947154" lon="8.91982663950626"><ele>592.0</ele><time>2026-05-02T07:49:26Z</time></trkpt><trkpt lat="40.9543688649122" lon="8.919767706074728"><ele>592.0</ele><time>2026-05-02T07:49:27Z</time></trkpt><trkpt lat="40.95429606103945" lon="8.919678073894035"><ele>592.0</ele><time>2026-05-02T07:49:29Z</time></trkpt><trkpt lat="40.95423963014574" lon="8.919610682218735"><ele>592.0</ele><time>2026-05-02T07:49:31Z</time></trkpt><trkpt lat="40.954177776934614" lon="8.919546936473882"><ele>592.0</ele><time>2026-05-02T07:49:33Z</time></trkpt><trkpt lat="40.95412371773236" lon="8.919495619922497"><ele>592.0</ele><time>2026-05-02T07:49:42Z</time></trkpt><trkpt lat="40.95402916100149" lon="8.91941084478549"><ele>592.0</ele><time>2026-05-02T07:49:44Z</time></trkpt><trkpt lat="40.953936116918776" lon="8.91933888777668"><ele>592.0</ele><time>2026-05-02T07:49:46Z</time></trkpt><trkpt lat="40.9538329466692" lon="8.919268603923914"><ele>592.4</ele><time>2026-05-02T07:49:48Z</time></trkpt><trkpt lat="40.953736836259175" lon="8.919206034118941"><ele>592.8000000000001</ele><time>2026-05-02T07:49:50Z</time></trkpt><trkpt lat="40.953621894644876" lon="8.919131204867753"><ele>593.2</ele><time>2026-05-02T07:49:52Z</time></trkpt><trkpt lat="40.95356103271003" lon="8.919091582549884"><ele>593.6</ele><time>2026-05-02T07:49:53Z</time></trkpt><trkpt lat="40.95350264913833" lon="8.919053473409472"><ele>594.0</ele><time>2026-05-02T07:49:54Z</time></trkpt><trkpt lat="40.95340182592449" lon="8.918985202956911"><ele>595.1666666666666</ele><time>2026-05-02T07:49:56Z</time></trkpt><trkpt lat="40.953311363497804" lon="8.91891704351224"><ele>596.3333333333334</ele><time>2026-05-02T07:49:58Z</time></trkpt><trkpt lat="40.953246269335885" lon="8.918879436587376"><ele>597.5</ele><time>2026-05-02T07:52:26Z</time></trkpt><trkpt lat="40.953183599005584" lon="8.918836596590088"><ele>598.6666666666667</ele><time>2026-05-02T07:52:37Z</time></trkpt><trkpt lat="40.95312572395333" lon="8.918772463686613"><ele>599.8333333333334</ele><time>2026-05-02T07:52:39Z</time></trkpt><trkpt lat="40.95307540716489" lon="8.918716887882217"><ele>601.0</ele><time>2026-05-02T07:52:41Z</time></trkpt><trkpt lat="40.95302307936928" lon="8.91865811261539"><ele>601.0</ele><time>2026-05-02T07:52:43Z</time></trkpt><trkpt lat="40.95297502466985" lon="8.918604136948645"><ele>601.0</ele><time>2026-05-02T07:52:45Z</time></trkpt><trkpt lat="40.952913092232734" lon="8.9185357950228"><ele>601.0</ele><time>2026-05-02T07:52:48Z</time></trkpt><trkpt lat="40.952853607747926" lon="8.918470533415501"><ele>601.0</ele><time>2026-05-02T07:52:51Z</time></trkpt><trkpt lat="40.95279383243631" lon="8.918404819280848"><ele>601.0</ele><time>2026-05-02T07:52:54Z</time></trkpt><trkpt lat="40.95274349392482" lon="8.91834461709868"><ele>601.0</ele><time>2026-05-02T07:52:56Z</time></trkpt><trkpt lat="40.95269307548354" lon="8.918283504858325"><ele>601.0</ele><time>2026-05-02T07:52:58Z</time></trkpt><trkpt lat="40.952638045240334" lon="8.918216177741337"><ele>602.3333333333334</ele><time>2026-05-02T07:53:00Z</time></trkpt><trkpt lat="40.952586001299366" lon="8.918152649912795"><ele>603.6666666666667</ele><time>2026-05-02T07:53:04Z</time></trkpt><trkpt lat="40.95253721086329" lon="8.918081654350411"><ele>605.0</ele><time>2026-05-02T07:53:16Z</time></trkpt><trkpt lat="40.95253307970034" lon="8.91799165296234"><ele>606.3333333333334</ele><time>2026-05-02T07:53:18Z</time></trkpt><trkpt lat="40.952511708956244" lon="8.917895383210935"><ele>607.6666666666666</ele><time>2026-05-02T07:53:20Z</time></trkpt><trkpt lat="40.95248379841059" lon="8.917767719877652"><ele>609.0</ele><time>2026-05-02T07:53:22Z</time></trkpt><trkpt lat="40.952460752039364" lon="8.917656511964903"><ele>605.1428571428571</ele><time>2026-05-02T07:53:24Z</time></trkpt><trkpt lat="40.9524396860197" lon="8.917554860026506"><ele>601.2857142857142</ele><time>2026-05-02T07:53:26Z</time></trkpt><trkpt lat="40.95242087360423" lon="8.917457544199921"><ele>597.4285714285714</ele><time>2026-05-02T07:53:28Z</time></trkpt><trkpt lat="40.952403852698424" lon="8.91736639996682"><ele>593.5714285714286</ele><time>2026-05-02T07:53:30Z</time></trkpt><trkpt lat="40.95238718388024" lon="8.91727714109672"><ele>589.7142857142857</ele><time>2026-05-02T07:53:32Z</time></trkpt><trkpt lat="40.95237181225598" lon="8.917187210452445"><ele>585.8571428571429</ele><time>2026-05-02T07:53:34Z</time></trkpt><trkpt lat="40.952355219675844" lon="8.917087747621558"><ele>582.0</ele><time>2026-05-02T07:53:36Z</time></trkpt><trkpt lat="40.952321482410866" lon="8.916987116499397"><ele>582.0</ele><time>2026-05-02T07:53:39Z</time></trkpt><trkpt lat="40.95230663188794" lon="8.916878393920946"><ele>582.0</ele><time>2026-05-02T07:53:42Z</time></trkpt><trkpt lat="40.95228858319717" lon="8.916787492570656"><ele>582.0</ele><time>2026-05-02T07:53:44Z</time></trkpt><trkpt lat="40.952283202577235" lon="8.916697203526711"><ele>582.0</ele><time>2026-05-02T07:53:46Z</time></trkpt><trkpt lat="40.95231484873881" lon="8.916622630636658"><ele>582.0</ele><time>2026-05-02T07:53:48Z</time></trkpt><trkpt lat="40.95229782056239" lon="8.916511923954586"><ele>582.0</ele><time>2026-05-02T07:53:50Z</time></trkpt><trkpt lat="40.95220132724222" lon="8.916449743726716"><ele>579.0</ele><time>2026-05-02T07:53:52Z</time></trkpt><trkpt lat="40.9521267767291" lon="8.916377932427354"><ele>576.0</ele><time>2026-05-02T07:53:54Z</time></trkpt><trkpt lat="40.95202719949443" lon="8.916309931602012"><ele>573.0</ele><time>2026-05-02T07:53:56Z</time></trkpt><trkpt lat="40.95192955180592" lon="8.916219908602812"><ele>570.0</ele><time>2026-05-02T07:53:58Z</time></trkpt><trkpt lat="40.951827958811485" lon="8.916121216723408"><ele>567.0</ele><time>2026-05-02T07:54:00Z</time></trkpt><trkpt lat="40.95176903693755" lon="8.916062535147974"><ele>567.0</ele><time>2026-05-02T07:54:01Z</time></trkpt><trkpt lat="40.95171230080275" lon="8.916006963115024"><ele>567.0</ele><time>2026-05-02T07:54:02Z</time></trkpt><trkpt lat="40.951619940567525" lon="8.915921457288313"><ele>567.0</ele><time>2026-05-02T07:54:04Z</time></trkpt><trkpt lat="40.95152667190162" lon="8.915840435020991"><ele>567.0</ele><time>2026-05-02T07:54:06Z</time></trkpt><trkpt lat="40.95142495141635" lon="8.9157415521288"><ele>567.0</ele><time>2026-05-02T07:54:08Z</time></trkpt><trkpt lat="40.95137115275935" lon="8.915679332048308"><ele>564.1666666666666</ele><time>2026-05-02T07:54:09Z</time></trkpt><trkpt lat="40.95131296030618" lon="8.915610442451698"><ele>561.3333333333334</ele><time>2026-05-02T07:54:10Z</time></trkpt><trkpt lat="40.951256752604564" lon="8.915540305397455"><ele>558.5</ele><time>2026-05-02T07:54:11Z</time></trkpt><trkpt lat="40.95119929249192" lon="8.915468326890748"><ele>555.6666666666667</ele><time>2026-05-02T07:54:12Z</time></trkpt><trkpt lat="40.951141843211865" lon="8.91539394070118"><ele>552.8333333333334</ele><time>2026-05-02T07:54:13Z</time></trkpt><trkpt lat="40.95108500732548" lon="8.915320243481727"><ele>550.0</ele><time>2026-05-02T07:54:14Z</time></trkpt><trkpt lat="40.951029048023074" lon="8.91524678640484"><ele>550.0</ele><time>2026-05-02T07:54:15Z</time></trkpt><trkpt lat="40.950974430842976" lon="8.915173252045788"><ele>550.0</ele><time>2026-05-02T07:54:16Z</time></trkpt><trkpt lat="40.9509214201514" lon="8.91510188085531"><ele>550.0</ele><time>2026-05-02T07:54:17Z</time></trkpt><trkpt lat="40.95086647596646" lon="8.91502790699919"><ele>550.0</ele><time>2026-05-02T07:54:18Z</time></trkpt><trkpt lat="40.950810682847056" lon="8.91495278964831"><ele>550.0</ele><time>2026-05-02T07:54:19Z</time></trkpt><trkpt lat="40.95075363536358" lon="8.914879833028628"><ele>550.0</ele><time>2026-05-02T07:54:20Z</time></trkpt><trkpt lat="40.95069872420163" lon="8.914810106311544"><ele>547.0</ele><time>2026-05-02T07:54:21Z</time></trkpt><trkpt lat="40.950642089509216" lon="8.914738191053345"><ele>544.0</ele><time>2026-05-02T07:54:22Z</time></trkpt><trkpt lat="40.95059440165881" lon="8.9146776366124"><ele>541.0</ele><time>2026-05-02T07:54:23Z</time></trkpt><trkpt lat="40.950536145398836" lon="8.914626229802415"><ele>538.0</ele><time>2026-05-02T07:54:24Z</time></trkpt><trkpt lat="40.95049026658896" lon="8.914565447706599"><ele>535.0</ele><time>2026-05-02T07:54:25Z</time></trkpt><trkpt lat="40.95045203475935" lon="8.914487155171987"><ele>532.0</ele><time>2026-05-02T07:54:26Z</time></trkpt><trkpt lat="40.95040489810749" lon="8.914421959925056"><ele>529.0</ele><time>2026-05-02T07:54:27Z</time></trkpt><trkpt lat="40.95035851344437" lon="8.914357801637953"><ele>529.0</ele><time>2026-05-02T07:54:28Z</time></trkpt><trkpt lat="40.95027623691825" lon="8.914243994281211"><ele>529.0</ele><time>2026-05-02T07:54:30Z</time></trkpt><trkpt lat="40.950201696972584" lon="8.914138252428499"><ele>529.0</ele><time>2026-05-02T07:54:32Z</time></trkpt><trkpt lat="40.95012800034524" lon="8.914023837771786"><ele>529.0</ele><time>2026-05-02T07:54:34Z</time></trkpt><trkpt lat="40.950087177490595" lon="8.913955873723726"><ele>529.0</ele><time>2026-05-02T07:54:35Z</time></trkpt><trkpt lat="40.95002965954134" lon="8.913859253487175"><ele>526.5</ele><time>2026-05-02T07:54:36Z</time></trkpt><trkpt lat="40.9499737428804" lon="8.913765323170983"><ele>524.0</ele><time>2026-05-02T07:54:37Z</time></trkpt><trkpt lat="40.949917870015454" lon="8.913666714808002"><ele>521.5</ele><time>2026-05-02T07:54:38Z</time></trkpt><trkpt lat="40.94986237961251" lon="8.913567176725117"><ele>519.0</ele><time>2026-05-02T07:54:39Z</time></trkpt><trkpt lat="40.94981202540304" lon="8.913474958608942"><ele>516.5</ele><time>2026-05-02T07:54:40Z</time></trkpt><trkpt lat="40.949762490368414" lon="8.913381879492952"><ele>514.0</ele><time>2026-05-02T07:54:41Z</time></trkpt><trkpt lat="40.949715079814794" lon="8.913289246773516"><ele>514.0</ele><time>2026-05-02T07:54:42Z</time></trkpt><trkpt lat="40.94967114712387" lon="8.913198943315074"><ele>514.0</ele><time>2026-05-02T07:54:43Z</time></trkpt><trkpt lat="40.94963089085795" lon="8.913115993757593"><ele>514.0</ele><time>2026-05-02T07:54:44Z</time></trkpt><trkpt lat="40.94959713975286" lon="8.913043973803674"><ele>514.0</ele><time>2026-05-02T07:54:45Z</time></trkpt><trkpt lat="40.94955484650333" lon="8.912975700705028"><ele>514.0</ele><time>2026-05-02T07:54:46Z</time></trkpt><trkpt lat="40.94951540900195" lon="8.912898014105423"><ele>514.0</ele><time>2026-05-02T07:54:47Z</time></trkpt><trkpt lat="40.94947867207037" lon="8.912816296452895"><ele>514.0</ele><time>2026-05-02T07:54:48Z</time></trkpt><trkpt lat="40.94945520148085" lon="8.912723142420806"><ele>514.0</ele><time>2026-05-02T07:54:49Z</time></trkpt><trkpt lat="40.949418813080236" lon="8.912638718516153"><ele>514.0</ele><time>2026-05-02T07:54:50Z</time></trkpt><trkpt lat="40.94938042081239" lon="8.912549645517919"><ele>514.0</ele><time>2026-05-02T07:54:51Z</time></trkpt><trkpt lat="40.94932530519756" lon="8.912464801665083"><ele>514.0</ele><time>2026-05-02T07:54:52Z</time></trkpt><trkpt lat="40.94929638510512" lon="8.912354676220858"><ele>514.0</ele><time>2026-05-02T07:54:53Z</time></trkpt><trkpt lat="40.949253442176804" lon="8.91225281468378"><ele>514.0</ele><time>2026-05-02T07:54:54Z</time></trkpt><trkpt lat="40.949210566011885" lon="8.91214712610108"><ele>513.5</ele><time>2026-05-02T07:54:55Z</time></trkpt><trkpt lat="40.94916813345905" lon="8.912039313910451"><ele>513.0</ele><time>2026-05-02T07:54:56Z</time></trkpt><trkpt lat="40.94912325794795" lon="8.911935615682987"><ele>512.5</ele><time>2026-05-02T07:54:57Z</time></trkpt><trkpt lat="40.94906418101534" lon="8.911851915862512"><ele>512.0</ele><time>2026-05-02T07:54:58Z</time></trkpt><trkpt lat="40.94902002419403" lon="8.911767821825126"><ele>511.50000000000006</ele><time>2026-05-02T07:54:59Z</time></trkpt><trkpt lat="40.94897687286918" lon="8.911695246915288"><ele>511.0</ele><time>2026-05-02T07:55:00Z</time></trkpt><trkpt lat="40.94894033179998" lon="8.911620127313581"><ele>511.00000000000006</ele><time>2026-05-02T07:55:01Z</time></trkpt><trkpt lat="40.94890259408266" lon="8.911542459699055"><ele>511.0</ele><time>2026-05-02T07:55:02Z</time></trkpt><trkpt lat="40.94886868176726" lon="8.911454305622364"><ele>511.0</ele><time>2026-05-02T07:55:03Z</time></trkpt><trkpt lat="40.9488355274288" lon="8.911357372868185"><ele>511.0</ele><time>2026-05-02T07:55:04Z</time></trkpt><trkpt lat="40.9488052694705" lon="8.911250424214282"><ele>511.00000000000006</ele><time>2026-05-02T07:55:05Z</time></trkpt><trkpt lat="40.94877571842535" lon="8.911148224651997"><ele>511.0</ele><time>2026-05-02T07:55:06Z</time></trkpt><trkpt lat="40.948746312812794" lon="8.911050632962326"><ele>511.00000000000006</ele><time>2026-05-02T07:55:07Z</time></trkpt><trkpt lat="40.9487319942944" lon="8.910948882656971"><ele>511.0</ele><time>2026-05-02T07:55:08Z</time></trkpt><trkpt lat="40.94871872019936" lon="8.910853573488426"><ele>511.0</ele><time>2026-05-02T07:55:09Z</time></trkpt><trkpt lat="40.948710387142796" lon="8.91076947077074"><ele>511.0</ele><time>2026-05-02T07:55:10Z</time></trkpt><trkpt lat="40.94870934760679" lon="8.910645220082612"><ele>511.00000000000006</ele><time>2026-05-02T07:55:12Z</time></trkpt><trkpt lat="40.94871921013053" lon="8.910559360494752"><ele>511.0</ele><time>2026-05-02T07:55:14Z</time></trkpt><trkpt lat="40.94873741620077" lon="8.91046158387025"><ele>510.0</ele><time>2026-05-02T07:55:58Z</time></trkpt><trkpt lat="40.94883517898503" lon="8.910345807193687"><ele>509.0</ele><time>2026-05-02T07:56:00Z</time></trkpt><trkpt lat="40.948900880856584" lon="8.910258430292775"><ele>508.0</ele><time>2026-05-02T07:56:01Z</time></trkpt><trkpt lat="40.948977033332895" lon="8.910161314238858"><ele>507.0</ele><time>2026-05-02T07:56:02Z</time></trkpt><trkpt lat="40.94905197788991" lon="8.910063508132762"><ele>506.0</ele><time>2026-05-02T07:56:03Z</time></trkpt><trkpt lat="40.94911674444128" lon="8.90996309994951"><ele>505.3333333333333</ele><time>2026-05-02T07:56:04Z</time></trkpt><trkpt lat="40.94917480070239" lon="8.90988213899714"><ele>504.66666666666663</ele><time>2026-05-02T07:56:05Z</time></trkpt><trkpt lat="40.949234148001324" lon="8.909811332018775"><ele>504.0</ele><time>2026-05-02T07:56:06Z</time></trkpt><trkpt lat="40.94929915374828" lon="8.909754410557403"><ele>503.33333333333337</ele><time>2026-05-02T07:56:07Z</time></trkpt><trkpt lat="40.949369328637346" lon="8.909705305628927"><ele>502.6666666666667</ele><time>2026-05-02T07:56:08Z</time></trkpt><trkpt lat="40.94945862212428" lon="8.909671098331609"><ele>502.0</ele><time>2026-05-02T07:56:09Z</time></trkpt><trkpt lat="40.949556991747095" lon="8.909641946564582"><ele>502.0</ele><time>2026-05-02T07:56:10Z</time></trkpt><trkpt lat="40.94966393179763" lon="8.909611169049038"><ele>502.00000000000006</ele><time>2026-05-02T07:56:11Z</time></trkpt><trkpt lat="40.94977511274254" lon="8.909582414802871"><ele>502.00000000000006</ele><time>2026-05-02T07:56:12Z</time></trkpt><trkpt lat="40.949881399174146" lon="8.909551261263507"><ele>502.0</ele><time>2026-05-02T07:56:13Z</time></trkpt><trkpt lat="40.94999386646226" lon="8.909516928711579"><ele>502.0</ele><time>2026-05-02T07:56:14Z</time></trkpt><trkpt lat="40.95009665628213" lon="8.909485567296295"><ele>502.00000000000006</ele><time>2026-05-02T07:56:15Z</time></trkpt><trkpt lat="40.95019494462527" lon="8.909456276477496"><ele>502.0</ele><time>2026-05-02T07:56:16Z</time></trkpt><trkpt lat="40.95027528056672" lon="8.909429133284979"><ele>502.0</ele><time>2026-05-02T07:56:17Z</time></trkpt><trkpt lat="40.95034688163191" lon="8.909402486188311"><ele>502.0</ele><time>2026-05-02T07:56:18Z</time></trkpt><trkpt lat="40.950410330394426" lon="8.909370675582275"><ele>502.00000000000006</ele><time>2026-05-02T07:56:19Z</time></trkpt><trkpt lat="40.95046778084401" lon="8.9093348273424"><ele>502.0</ele><time>2026-05-02T07:56:20Z</time></trkpt><trkpt lat="40.950524226436336" lon="8.909297614316317"><ele>501.99999999999994</ele><time>2026-05-02T07:56:21Z</time></trkpt><trkpt lat="40.950586267890245" lon="8.909260044266315"><ele>502.0</ele><time>2026-05-02T07:56:22Z</time></trkpt><trkpt lat="40.95064502112448" lon="8.909229834429256"><ele>501.99999999999994</ele><time>2026-05-02T07:56:23Z</time></trkpt><trkpt lat="40.950709286507895" lon="8.909195565262994"><ele>501.99999999999994</ele><time>2026-05-02T07:56:24Z</time></trkpt><trkpt lat="40.95077769434965" lon="8.909173220492347"><ele>502.0</ele><time>2026-05-02T07:56:25Z</time></trkpt><trkpt lat="40.9508466847103" lon="8.909148897568741"><ele>501.99999999999994</ele><time>2026-05-02T07:56:26Z</time></trkpt><trkpt lat="40.9509208080551" lon="8.909121472619828"><ele>501.99999999999994</ele><time>2026-05-02T07:56:27Z</time></trkpt><trkpt lat="40.95099234341489" lon="8.909098047931458"><ele>497.1666666666667</ele><time>2026-05-02T07:56:28Z</time></trkpt><trkpt lat="40.951062436845234" lon="8.909077312773341"><ele>492.33333333333337</ele><time>2026-05-02T07:56:29Z</time></trkpt><trkpt lat="40.95117579628081" lon="8.909044031228726"><ele>487.5</ele><time>2026-05-02T07:56:31Z</time></trkpt><trkpt lat="40.95124281344433" lon="8.90898813956548"><ele>482.66666666666663</ele><time>2026-05-02T07:56:33Z</time></trkpt><trkpt lat="40.951283041595644" lon="8.908903451354067"><ele>477.8333333333333</ele><time>2026-05-02T07:56:35Z</time></trkpt><trkpt lat="40.95127035909782" lon="8.90876761902762"><ele>473.0</ele><time>2026-05-02T07:56:37Z</time></trkpt><trkpt lat="40.951246515603046" lon="8.90861446657499"><ele>473.0</ele><time>2026-05-02T07:56:39Z</time></trkpt><trkpt lat="40.951228538484656" lon="8.908453425709576"><ele>472.99999999999994</ele><time>2026-05-02T07:56:41Z</time></trkpt><trkpt lat="40.95121277150955" lon="8.908285353761162"><ele>472.99999999999994</ele><time>2026-05-02T07:56:43Z</time></trkpt><trkpt lat="40.95120492079204" lon="8.90819724688834"><ele>473.0</ele><time>2026-05-02T07:56:44Z</time></trkpt><trkpt lat="40.95119756686674" lon="8.908104649474934"><ele>473.0</ele><time>2026-05-02T07:56:45Z</time></trkpt><trkpt lat="40.951189976376334" lon="8.908005028340458"><ele>469.49999999999994</ele><time>2026-05-02T07:56:46Z</time></trkpt><trkpt lat="40.95118235025196" lon="8.907904939500144"><ele>466.0</ele><time>2026-05-02T07:56:47Z</time></trkpt><trkpt lat="40.95117584678055" lon="8.90779703972934"><ele>462.5</ele><time>2026-05-02T07:56:48Z</time></trkpt><trkpt lat="40.95117247083874" lon="8.907690722618316"><ele>459.0</ele><time>2026-05-02T07:56:49Z</time></trkpt><trkpt lat="40.95117060386121" lon="8.907582437727424"><ele>455.49999999999994</ele><time>2026-05-02T07:56:50Z</time></trkpt><trkpt lat="40.951154966824454" lon="8.907477122730524"><ele>452.0</ele><time>2026-05-02T07:56:51Z</time></trkpt><trkpt lat="40.951167728226544" lon="8.90737462737917"><ele>449.49999999999994</ele><time>2026-05-02T07:56:52Z</time></trkpt><trkpt lat="40.951178822199644" lon="8.907281306634173"><ele>447.0</ele><time>2026-05-02T07:56:53Z</time></trkpt><trkpt lat="40.95119834750501" lon="8.907184479068446"><ele>444.5</ele><time>2026-05-02T07:56:54Z</time></trkpt><trkpt lat="40.9512211332325" lon="8.907090257088212"><ele>442.0</ele><time>2026-05-02T07:56:55Z</time></trkpt><trkpt lat="40.95124513752086" lon="8.906991359362467"><ele>439.49999999999994</ele><time>2026-05-02T07:56:56Z</time></trkpt><trkpt lat="40.95127150204695" lon="8.906897162555117"><ele>437.0</ele><time>2026-05-02T07:56:57Z</time></trkpt><trkpt lat="40.95130283482138" lon="8.906808122932896"><ele>435.3333333333333</ele><time>2026-05-02T07:56:58Z</time></trkpt><trkpt lat="40.95132930213474" lon="8.90672878715738"><ele>433.66666666666663</ele><time>2026-05-02T07:56:59Z</time></trkpt><trkpt lat="40.95139466561662" lon="8.906591481688318"><ele>432.0</ele><time>2026-05-02T07:57:01Z</time></trkpt><trkpt lat="40.95143984825105" lon="8.906525330845518"><ele>430.33333333333337</ele><time>2026-05-02T07:57:02Z</time></trkpt><trkpt lat="40.95149814826371" lon="8.906456411186392"><ele>428.6666666666667</ele><time>2026-05-02T07:57:03Z</time></trkpt><trkpt lat="40.95158442163173" lon="8.90638378306608"><ele>427.0</ele><time>2026-05-02T07:57:04Z</time></trkpt><trkpt lat="40.95164406775598" lon="8.90631612739796"><ele>422.8</ele><time>2026-05-02T07:57:05Z</time></trkpt><trkpt lat="40.9517119820055" lon="8.906260796093195"><ele>418.6</ele><time>2026-05-02T07:57:06Z</time></trkpt><trkpt lat="40.95177338182221" lon="8.906197724780032"><ele>414.40000000000003</ele><time>2026-05-02T07:57:07Z</time></trkpt><trkpt lat="40.95189775764365" lon="8.906090190830573"><ele>410.20000000000005</ele><time>2026-05-02T07:57:09Z</time></trkpt><trkpt lat="40.9519555771631" lon="8.906033299559576"><ele>406.0</ele><time>2026-05-02T07:57:10Z</time></trkpt><trkpt lat="40.95203977277004" lon="8.905956170919259"><ele>405.0</ele><time>2026-05-02T07:57:11Z</time></trkpt><trkpt lat="40.952118347705174" lon="8.905891416129869"><ele>404.0</ele><time>2026-05-02T07:57:12Z</time></trkpt><trkpt lat="40.952187861304864" lon="8.905815556897405"><ele>403.0</ele><time>2026-05-02T07:57:13Z</time></trkpt><trkpt lat="40.95226959628207" lon="8.90574382485215"><ele>402.0</ele><time>2026-05-02T07:57:14Z</time></trkpt><trkpt lat="40.95234395181685" lon="8.90567098727294"><ele>401.0</ele><time>2026-05-02T07:57:15Z</time></trkpt><trkpt lat="40.9524200681694" lon="8.9056094050165"><ele>401.0</ele><time>2026-05-02T07:57:16Z</time></trkpt><trkpt lat="40.95249784325899" lon="8.905537579026483"><ele>401.0</ele><time>2026-05-02T07:57:17Z</time></trkpt><trkpt lat="40.952572852107586" lon="8.905472828911595"><ele>401.0</ele><time>2026-05-02T07:57:18Z</time></trkpt><trkpt lat="40.95264887548798" lon="8.90540643023949"><ele>401.0</ele><time>2026-05-02T07:57:19Z</time></trkpt><trkpt lat="40.95272182549382" lon="8.905341630801422"><ele>401.0</ele><time>2026-05-02T07:57:20Z</time></trkpt><trkpt lat="40.952794948520456" lon="8.905275569877833"><ele>399.3333333333333</ele><time>2026-05-02T07:57:21Z</time></trkpt><trkpt lat="40.95286935631243" lon="8.905212666145768"><ele>397.66666666666663</ele><time>2026-05-02T07:57:22Z</time></trkpt><trkpt lat="40.95294422777711" lon="8.905148783034713"><ele>396.0</ele><time>2026-05-02T07:57:23Z</time></trkpt><trkpt lat="40.95301796840101" lon="8.90508356476302"><ele>394.33333333333337</ele><time>2026-05-02T07:57:24Z</time></trkpt><trkpt lat="40.95308817356399" lon="8.905016448264226"><ele>392.6666666666667</ele><time>2026-05-02T07:57:25Z</time></trkpt><trkpt lat="40.95315678408954" lon="8.904950040345774"><ele>391.0</ele><time>2026-05-02T07:57:26Z</time></trkpt><trkpt lat="40.95322496151753" lon="8.904876363486368"><ele>391.00000000000006</ele><time>2026-05-02T07:57:27Z</time></trkpt><trkpt lat="40.953286677113404" lon="8.904804981896094"><ele>391.0</ele><time>2026-05-02T07:57:28Z</time></trkpt><trkpt lat="40.95334611466129" lon="8.904734000099223"><ele>391.0</ele><time>2026-05-02T07:57:29Z</time></trkpt><trkpt lat="40.953405681703785" lon="8.90466625426919"><ele>391.0</ele><time>2026-05-02T07:57:30Z</time></trkpt><trkpt lat="40.95346372568688" lon="8.904598657999093"><ele>391.00000000000006</ele><time>2026-05-02T07:57:31Z</time></trkpt><trkpt lat="40.95352242706228" lon="8.904530607817584"><ele>391.0</ele><time>2026-05-02T07:57:32Z</time></trkpt><trkpt lat="40.95357707032696" lon="8.904462721719286"><ele>388.71428571428567</ele><time>2026-05-02T07:57:33Z</time></trkpt><trkpt lat="40.95363311223961" lon="8.904388386593945"><ele>386.42857142857144</ele><time>2026-05-02T07:57:34Z</time></trkpt><trkpt lat="40.95367577781851" lon="8.904318091971248"><ele>384.1428571428571</ele><time>2026-05-02T07:57:35Z</time></trkpt><trkpt lat="40.95372305882146" lon="8.904247997786042"><ele>381.85714285714283</ele><time>2026-05-02T07:57:36Z</time></trkpt><trkpt lat="40.95376851748598" lon="8.904175931558063"><ele>379.57142857142856</ele><time>2026-05-02T07:57:37Z</time></trkpt><trkpt lat="40.953813703918506" lon="8.904099273809074"><ele>377.2857142857143</ele><time>2026-05-02T07:57:38Z</time></trkpt><trkpt lat="40.95385573537621" lon="8.904023899223457"><ele>375.0</ele><time>2026-05-02T07:57:39Z</time></trkpt><trkpt lat="40.953923415991206" lon="8.903914383863762"><ele>375.0</ele><time>2026-05-02T07:57:41Z</time></trkpt><trkpt lat="40.954006904222" lon="8.903800161702172"><ele>375.0</ele><time>2026-05-02T07:57:43Z</time></trkpt><trkpt lat="40.95405512315227" lon="8.903746322590923"><ele>375.0</ele><time>2026-05-02T07:57:44Z</time></trkpt><trkpt lat="40.954106038913906" lon="8.903696343435419"><ele>375.0</ele><time>2026-05-02T07:57:45Z</time></trkpt><trkpt lat="40.954202971174325" lon="8.903601224890767"><ele>375.0</ele><time>2026-05-02T07:57:47Z</time></trkpt><trkpt lat="40.95425841331745" lon="8.903550850971298"><ele>375.0</ele><time>2026-05-02T07:57:48Z</time></trkpt><trkpt lat="40.954309264197256" lon="8.903499984357891"><ele>372.0</ele><time>2026-05-02T07:57:49Z</time></trkpt><trkpt lat="40.954416713164534" lon="8.903395884974227"><ele>369.0</ele><time>2026-05-02T07:57:51Z</time></trkpt><trkpt lat="40.95447377813213" lon="8.90334296019044"><ele>366.0</ele><time>2026-05-02T07:57:52Z</time></trkpt><trkpt lat="40.954575623915446" lon="8.903248209841424"><ele>363.0</ele><time>2026-05-02T07:57:54Z</time></trkpt><trkpt lat="40.95463224167487" lon="8.903196099072437"><ele>360.0</ele><time>2026-05-02T07:57:55Z</time></trkpt><trkpt lat="40.95468900467097" lon="8.903140005018496"><ele>360.0</ele><time>2026-05-02T07:57:56Z</time></trkpt><trkpt lat="40.95475023924548" lon="8.903083743668398"><ele>360.0</ele><time>2026-05-02T07:57:57Z</time></trkpt><trkpt lat="40.954806078961965" lon="8.903028213726694"><ele>360.0</ele><time>2026-05-02T07:57:58Z</time></trkpt><trkpt lat="40.95486137229248" lon="8.902970909262352"><ele>360.0</ele><time>2026-05-02T07:57:59Z</time></trkpt><trkpt lat="40.954916436373466" lon="8.902913721946417"><ele>360.0</ele><time>2026-05-02T07:58:00Z</time></trkpt><trkpt lat="40.95497043155512" lon="8.902866837937175"><ele>360.0</ele><time>2026-05-02T07:58:01Z</time></trkpt><trkpt lat="40.95502479085932" lon="8.902819491617107"><ele>360.0</ele><time>2026-05-02T07:58:02Z</time></trkpt><trkpt lat="40.95507672385875" lon="8.90276718342572"><ele>356.85714285714283</ele><time>2026-05-02T07:58:03Z</time></trkpt><trkpt lat="40.95513117322637" lon="8.902719758314138"><ele>353.7142857142857</ele><time>2026-05-02T07:58:04Z</time></trkpt><trkpt lat="40.95518620265485" lon="8.902674035331355"><ele>350.57142857142856</ele><time>2026-05-02T07:58:05Z</time></trkpt><trkpt lat="40.95524406373116" lon="8.902631189985398"><ele>347.42857142857144</ele><time>2026-05-02T07:58:06Z</time></trkpt><trkpt lat="40.95530224013812" lon="8.902586607855786"><ele>344.2857142857143</ele><time>2026-05-02T07:58:07Z</time></trkpt><trkpt lat="40.95535736597871" lon="8.902530923980763"><ele>341.14285714285717</ele><time>2026-05-02T07:58:08Z</time></trkpt><trkpt lat="40.95541083524107" lon="8.902459808946329"><ele>338.0</ele><time>2026-05-02T07:58:09Z</time></trkpt><trkpt lat="40.955460230626606" lon="8.902379938364849"><ele>337.6666666666667</ele><time>2026-05-02T07:58:10Z</time></trkpt><trkpt lat="40.95550219944462" lon="8.902287844602148"><ele>337.33333333333337</ele><time>2026-05-02T07:58:11Z</time></trkpt><trkpt lat="40.95553859233434" lon="8.902193230885086"><ele>337.0</ele><time>2026-05-02T07:58:12Z</time></trkpt><trkpt lat="40.95557574924777" lon="8.902093308266055"><ele>336.6666666666667</ele><time>2026-05-02T07:58:13Z</time></trkpt><trkpt lat="40.955613174149875" lon="8.901995770482609"><ele>336.3333333333333</ele><time>2026-05-02T07:58:14Z</time></trkpt><trkpt lat="40.95565313113126" lon="8.901899638955538"><ele>336.0</ele><time>2026-05-02T07:58:15Z</time></trkpt><trkpt lat="40.95569243214534" lon="8.901807053459294"><ele>335.0</ele><time>2026-05-02T07:58:16Z</time></trkpt><trkpt lat="40.95573028224068" lon="8.901718044381933"><ele>334.0</ele><time>2026-05-02T07:58:17Z</time></trkpt><trkpt lat="40.95576348613005" lon="8.90163311632969"><ele>333.0</ele><time>2026-05-02T07:58:18Z</time></trkpt><trkpt lat="40.95579574556293" lon="8.901551108294825"><ele>332.0</ele><time>2026-05-02T07:58:19Z</time></trkpt><trkpt lat="40.955826525429835" lon="8.90147579694777"><ele>331.0</ele><time>2026-05-02T07:58:20Z</time></trkpt><trkpt lat="40.95589878883355" lon="8.901349550131872"><ele>330.0</ele><time>2026-05-02T07:58:22Z</time></trkpt><trkpt lat="40.955997420095166" lon="8.901272251683718"><ele>327.1666666666667</ele><time>2026-05-02T07:58:24Z</time></trkpt><trkpt lat="40.95611595183153" lon="8.901260934051564"><ele>324.3333333333333</ele><time>2026-05-02T07:58:26Z</time></trkpt><trkpt lat="40.95618213800879" lon="8.90127237706029"><ele>321.5</ele><time>2026-05-02T07:58:27Z</time></trkpt><trkpt lat="40.95625132985075" lon="8.901289119819754"><ele>318.66666666666663</ele><time>2026-05-02T07:58:28Z</time></trkpt><trkpt lat="40.95632297909722" lon="8.90130992543129"><ele>315.8333333333333</ele><time>2026-05-02T07:58:29Z</time></trkpt><trkpt lat="40.956393921700126" lon="8.901331739029239"><ele>313.0</ele><time>2026-05-02T07:58:30Z</time></trkpt><trkpt lat="40.956464894585274" lon="8.901356488448883"><ele>313.0</ele><time>2026-05-02T07:58:31Z</time></trkpt><trkpt lat="40.9565304930355" lon="8.901389094951824"><ele>313.0</ele><time>2026-05-02T07:58:32Z</time></trkpt><trkpt lat="40.9565880886902" lon="8.901433621143562"><ele>313.0</ele><time>2026-05-02T07:58:33Z</time></trkpt><trkpt lat="40.95664156582538" lon="8.901480881765973"><ele>313.0</ele><time>2026-05-02T07:58:34Z</time></trkpt><trkpt lat="40.95672762918729" lon="8.90153912474307"><ele>313.0</ele><time>2026-05-02T07:58:36Z</time></trkpt><trkpt lat="40.95682705814123" lon="8.90148459930801"><ele>313.0</ele><time>2026-05-02T07:58:38Z</time></trkpt><trkpt lat="40.95688177038179" lon="8.90140416426509"><ele>309.2</ele><time>2026-05-02T07:58:39Z</time></trkpt><trkpt lat="40.95694609772131" lon="8.901320200386545"><ele>305.4</ele><time>2026-05-02T07:58:40Z</time></trkpt><trkpt lat="40.95702210918557" lon="8.90122279752682"><ele>301.59999999999997</ele><time>2026-05-02T07:58:41Z</time></trkpt><trkpt lat="40.9570993234027" lon="8.901119185772831"><ele>297.8</ele><time>2026-05-02T07:58:42Z</time></trkpt><trkpt lat="40.95718142833342" lon="8.901011473330046"><ele>294.0</ele><time>2026-05-02T07:58:43Z</time></trkpt><trkpt lat="40.95726912890034" lon="8.900906237439123"><ele>294.0</ele><time>2026-05-02T07:58:44Z</time></trkpt><trkpt lat="40.957355051932176" lon="8.900802196957873"><ele>294.0</ele><time>2026-05-02T07:58:45Z</time></trkpt><trkpt lat="40.95743785453067" lon="8.90070241456231"><ele>294.0</ele><time>2026-05-02T07:58:46Z</time></trkpt><trkpt lat="40.95751398016083" lon="8.900598061834657"><ele>294.0</ele><time>2026-05-02T07:58:47Z</time></trkpt><trkpt lat="40.95759196121902" lon="8.900500996356632"><ele>294.0</ele><time>2026-05-02T07:58:48Z</time></trkpt><trkpt lat="40.95766017820958" lon="8.900406077438571"><ele>292.8333333333333</ele><time>2026-05-02T07:58:49Z</time></trkpt><trkpt lat="40.95771461894201" lon="8.900309455307463"><ele>291.6666666666667</ele><time>2026-05-02T07:58:50Z</time></trkpt><trkpt lat="40.957753131330605" lon="8.900213645715437"><ele>290.5</ele><time>2026-05-02T07:58:51Z</time></trkpt><trkpt lat="40.957784088520675" lon="8.900114536684239"><ele>289.33333333333337</ele><time>2026-05-02T07:58:52Z</time></trkpt><trkpt lat="40.95779661924841" lon="8.900001072860722"><ele>288.1666666666667</ele><time>2026-05-02T07:58:53Z</time></trkpt><trkpt lat="40.95780643223719" lon="8.899886925379631"><ele>287.0</ele><time>2026-05-02T07:58:54Z</time></trkpt><trkpt lat="40.95781409777556" lon="8.899768872437416"><ele>287.0</ele><time>2026-05-02T07:58:55Z</time></trkpt><trkpt lat="40.9578187705669" lon="8.899645979592828"><ele>287.0</ele><time>2026-05-02T07:58:56Z</time></trkpt><trkpt lat="40.95782446670892" lon="8.899520274136634"><ele>287.0</ele><time>2026-05-02T07:58:57Z</time></trkpt><trkpt lat="40.9578461567234" lon="8.899395284589447"><ele>287.0</ele><time>2026-05-02T07:58:58Z</time></trkpt><trkpt lat="40.95785149498857" lon="8.89926640875426"><ele>287.0</ele><time>2026-05-02T07:58:59Z</time></trkpt><trkpt lat="40.95785653611679" lon="8.89913208927731"><ele>285.6</ele><time>2026-05-02T07:59:00Z</time></trkpt><trkpt lat="40.95786169693833" lon="8.898994580547152"><ele>284.2</ele><time>2026-05-02T07:59:01Z</time></trkpt><trkpt lat="40.957851112365894" lon="8.898855828106848"><ele>282.8</ele><time>2026-05-02T07:59:02Z</time></trkpt><trkpt lat="40.95785985408309" lon="8.898720755246067"><ele>281.4</ele><time>2026-05-02T07:59:03Z</time></trkpt><trkpt lat="40.957867826887274" lon="8.898592313873351"><ele>280.0</ele><time>2026-05-02T07:59:04Z</time></trkpt><trkpt lat="40.95787488938767" lon="8.898471607262005"><ele>278.2</ele><time>2026-05-02T07:59:05Z</time></trkpt><trkpt lat="40.95788327756637" lon="8.898354032562702"><ele>276.4</ele><time>2026-05-02T07:59:06Z</time></trkpt><trkpt lat="40.95789412651923" lon="8.89824060658155"><ele>274.6</ele><time>2026-05-02T07:59:07Z</time></trkpt><trkpt lat="40.957906485283516" lon="8.898124961783584"><ele>272.8</ele><time>2026-05-02T07:59:08Z</time></trkpt><trkpt lat="40.957919662871014" lon="8.898003274471327"><ele>271.0</ele><time>2026-05-02T07:59:09Z</time></trkpt><trkpt lat="40.957932146328204" lon="8.897877422600555"><ele>271.0</ele><time>2026-05-02T07:59:10Z</time></trkpt><trkpt lat="40.95794296339919" lon="8.89774658646111"><ele>271.0</ele><time>2026-05-02T07:59:11Z</time></trkpt><trkpt lat="40.95795548468567" lon="8.897611826971131"><ele>271.0</ele><time>2026-05-02T07:59:12Z</time></trkpt><trkpt lat="40.957968846784276" lon="8.89748314549971"><ele>271.0</ele><time>2026-05-02T07:59:13Z</time></trkpt><trkpt lat="40.957979426739065" lon="8.89737083114895"><ele>271.0</ele><time>2026-05-02T07:59:14Z</time></trkpt><trkpt lat="40.957987996127066" lon="8.89725061598149"><ele>268.0</ele><time>2026-05-02T07:59:15Z</time></trkpt><trkpt lat="40.958009166106756" lon="8.897129629609191"><ele>265.0</ele><time>2026-05-02T07:59:16Z</time></trkpt><trkpt lat="40.95798642902849" lon="8.897004448644577"><ele>262.0</ele><time>2026-05-02T07:59:17Z</time></trkpt><trkpt lat="40.95797519946514" lon="8.896884994317118"><ele>259.0</ele><time>2026-05-02T07:59:18Z</time></trkpt><trkpt lat="40.95797393198942" lon="8.896767672640214"><ele>256.0</ele><time>2026-05-02T07:59:19Z</time></trkpt><trkpt lat="40.957946337687545" lon="8.896657661204035"><ele>252.60000000000002</ele><time>2026-05-02T07:59:20Z</time></trkpt><trkpt lat="40.9579127889172" lon="8.896545732821378"><ele>249.20000000000002</ele><time>2026-05-02T07:59:21Z</time></trkpt><trkpt lat="40.957872082434655" lon="8.896419990392037"><ele>245.79999999999998</ele><time>2026-05-02T07:59:22Z</time></trkpt><trkpt lat="40.95782140630011" lon="8.896288500444845"><ele>242.39999999999998</ele><time>2026-05-02T07:59:23Z</time></trkpt><trkpt lat="40.95776407443052" lon="8.89615630026106"><ele>239.0</ele><time>2026-05-02T07:59:24Z</time></trkpt><trkpt lat="40.95770578231583" lon="8.896027005153597"><ele>239.5</ele><time>2026-05-02T07:59:25Z</time></trkpt><trkpt lat="40.95764505807859" lon="8.895896148075249"><ele>240.0</ele><time>2026-05-02T07:59:26Z</time></trkpt><trkpt lat="40.95758198123759" lon="8.895766845427845"><ele>240.5</ele><time>2026-05-02T07:59:27Z</time></trkpt><trkpt lat="40.957509487105476" lon="8.895641969043265"><ele>241.0</ele><time>2026-05-02T07:59:28Z</time></trkpt><trkpt lat="40.957433724686155" lon="8.89553346128358"><ele>241.0</ele><time>2026-05-02T07:59:29Z</time></trkpt><trkpt lat="40.957359254311534" lon="8.895433149567618"><ele>241.00000000000003</ele><time>2026-05-02T07:59:30Z</time></trkpt><trkpt lat="40.95728904082496" lon="8.895339201430762"><ele>241.00000000000003</ele><time>2026-05-02T07:59:31Z</time></trkpt><trkpt lat="40.95722287621954" lon="8.895252001072585"><ele>241.0</ele><time>2026-05-02T07:59:32Z</time></trkpt><trkpt lat="40.95715590892406" lon="8.895175605183947"><ele>241.0</ele><time>2026-05-02T07:59:33Z</time></trkpt><trkpt lat="40.95708623093385" lon="8.895119122342479"><ele>237.85714285714286</ele><time>2026-05-02T07:59:34Z</time></trkpt><trkpt lat="40.95701298731675" lon="8.895074338253822"><ele>234.71428571428572</ele><time>2026-05-02T07:59:35Z</time></trkpt><trkpt lat="40.95694477017347" lon="8.895038545424656"><ele>231.57142857142858</ele><time>2026-05-02T07:59:36Z</time></trkpt><trkpt lat="40.956878494366244" lon="8.895013462668468"><ele>228.42857142857144</ele><time>2026-05-02T07:59:37Z</time></trkpt><trkpt lat="40.95681290692392" lon="8.89499965471906"><ele>225.28571428571428</ele><time>2026-05-02T07:59:38Z</time></trkpt><trkpt lat="40.95674477577373" lon="8.895005588633078"><ele>222.14285714285717</ele><time>2026-05-02T07:59:39Z</time></trkpt><trkpt lat="40.95667933175646" lon="8.895027545347"><ele>219.0</ele><time>2026-05-02T07:59:40Z</time></trkpt><trkpt lat="40.95658895283688" lon="8.89505342812307"><ele>219.0</ele><time>2026-05-02T07:59:42Z</time></trkpt><trkpt lat="40.95656355267526" lon="8.894969787333615"><ele>218.99999999999997</ele><time>2026-05-02T07:59:45Z</time></trkpt><trkpt lat="40.95658837437588" lon="8.894779431455587"><ele>218.99999999999997</ele><time>2026-05-02T07:59:47Z</time></trkpt><trkpt lat="40.95663746386696" lon="8.894662013311503"><ele>219.0</ele><time>2026-05-02T07:59:48Z</time></trkpt><trkpt lat="40.956705417831" lon="8.894565778490529"><ele>219.0</ele><time>2026-05-02T07:59:49Z</time></trkpt><trkpt lat="40.956782280724234" lon="8.894494391703482"><ele>218.39999999999998</ele><time>2026-05-02T07:59:50Z</time></trkpt><trkpt lat="40.956871255937656" lon="8.894442052250602"><ele>217.79999999999998</ele><time>2026-05-02T07:59:51Z</time></trkpt><trkpt lat="40.95697604991766" lon="8.89439857221274"><ele>217.20000000000002</ele><time>2026-05-02T07:59:52Z</time></trkpt><trkpt lat="40.95706085425282" lon="8.89436559855379"><ele>216.60000000000002</ele><time>2026-05-02T07:59:53Z</time></trkpt><trkpt lat="40.95712124210322" lon="8.894324406001965"><ele>216.0</ele><time>2026-05-02T07:59:54Z</time></trkpt><trkpt lat="40.95720383148289" lon="8.894174692051637"><ele>213.0</ele><time>2026-05-02T07:59:56Z</time></trkpt><trkpt lat="40.95723406034667" lon="8.894066289346073"><ele>210.0</ele><time>2026-05-02T07:59:57Z</time></trkpt><trkpt lat="40.95726023606935" lon="8.893946023685531"><ele>207.0</ele><time>2026-05-02T07:59:58Z</time></trkpt><trkpt lat="40.95728894816167" lon="8.893829845484003"><ele>204.0</ele><time>2026-05-02T07:59:59Z</time></trkpt><trkpt lat="40.95731691025101" lon="8.893724186795346"><ele>201.0</ele><time>2026-05-02T08:00:00Z</time></trkpt><trkpt lat="40.95735366877948" lon="8.893628162504982"><ele>198.0</ele><time>2026-05-02T08:00:01Z</time></trkpt><trkpt lat="40.957378407247305" lon="8.893539943153753"><ele>196.60000000000002</ele><time>2026-05-02T08:00:02Z</time></trkpt><trkpt lat="40.95740677396821" lon="8.893380758940925"><ele>195.20000000000002</ele><time>2026-05-02T08:00:04Z</time></trkpt><trkpt lat="40.957362303192795" lon="8.893235845579255"><ele>193.8</ele><time>2026-05-02T08:00:06Z</time></trkpt><trkpt lat="40.95730501706531" lon="8.893199691158413"><ele>192.4</ele><time>2026-05-02T08:00:07Z</time></trkpt><trkpt lat="40.957233268934196" lon="8.893195968436272"><ele>191.0</ele><time>2026-05-02T08:00:08Z</time></trkpt><trkpt lat="40.957151550308865" lon="8.893213786978489"><ele>191.0</ele><time>2026-05-02T08:00:09Z</time></trkpt><trkpt lat="40.9570589406452" lon="8.893218328957822"><ele>191.0</ele><time>2026-05-02T08:00:10Z</time></trkpt><trkpt lat="40.956958695308586" lon="8.893256765789006"><ele>191.0</ele><time>2026-05-02T08:00:11Z</time></trkpt><trkpt lat="40.956857508961086" lon="8.893325627661502"><ele>191.0</ele><time>2026-05-02T08:00:12Z</time></trkpt><trkpt lat="40.956767727389334" lon="8.893404647539487"><ele>191.0</ele><time>2026-05-02T08:00:13Z</time></trkpt><trkpt lat="40.95669263217035" lon="8.89345934257241"><ele>190.20000000000002</ele><time>2026-05-02T08:00:14Z</time></trkpt><trkpt lat="40.956632507131296" lon="8.893496642555583"><ele>189.4</ele><time>2026-05-02T08:00:15Z</time></trkpt><trkpt lat="40.95657892828432" lon="8.893442299999883"><ele>188.6</ele><time>2026-05-02T08:00:17Z</time></trkpt><trkpt lat="40.95659415717259" lon="8.893338077635203"><ele>187.8</ele><time>2026-05-02T08:00:19Z</time></trkpt><trkpt lat="40.95662666367852" lon="8.893218985085388"><ele>187.0</ele><time>2026-05-02T08:00:20Z</time></trkpt><trkpt lat="40.956652211734266" lon="8.893017741270803"><ele>187.0</ele><time>2026-05-02T08:00:21Z</time></trkpt><trkpt lat="40.95667546932516" lon="8.892807309048662"><ele>187.0</ele><time>2026-05-02T08:00:22Z</time></trkpt><trkpt lat="40.95669223561641" lon="8.892597290440703"><ele>187.0</ele><time>2026-05-02T08:00:23Z</time></trkpt><trkpt lat="40.95670577398178" lon="8.892431304617752"><ele>187.0</ele><time>2026-05-02T08:00:24Z</time></trkpt><trkpt lat="40.956728017003044" lon="8.892271893968065"><ele>185.39999999999998</ele><time>2026-05-02T08:00:25Z</time></trkpt><trkpt lat="40.95674165175269" lon="8.892107854592016"><ele>183.79999999999998</ele><time>2026-05-02T08:00:26Z</time></trkpt><trkpt lat="40.956778167637324" lon="8.891943496924364"><ele>182.2</ele><time>2026-05-02T08:00:27Z</time></trkpt><trkpt lat="40.95679832209681" lon="8.89180405357818"><ele>180.6</ele><time>2026-05-02T08:00:28Z</time></trkpt><trkpt lat="40.956814589074526" lon="8.891689706078509"><ele>179.0</ele><time>2026-05-02T08:00:29Z</time></trkpt><trkpt lat="40.95685941601097" lon="8.891590143827914"><ele>175.0</ele><time>2026-05-02T08:00:30Z</time></trkpt><trkpt lat="40.95691166625873" lon="8.891495065324412"><ele>171.0</ele><time>2026-05-02T08:00:31Z</time></trkpt><trkpt lat="40.95696665337694" lon="8.891403442355108"><ele>167.0</ele><time>2026-05-02T08:00:32Z</time></trkpt><trkpt lat="40.957037094046456" lon="8.891312938641468"><ele>163.0</ele><time>2026-05-02T08:00:33Z</time></trkpt><trkpt lat="40.95713698642623" lon="8.891253210594185"><ele>159.0</ele><time>2026-05-02T08:00:34Z</time></trkpt><trkpt lat="40.957223734885275" lon="8.891177453785096"><ele>159.0</ele><time>2026-05-02T08:00:35Z</time></trkpt><trkpt lat="40.95731471443274" lon="8.891142895554301"><ele>159.0</ele><time>2026-05-02T08:00:36Z</time></trkpt><trkpt lat="40.957393934964365" lon="8.891124729655372"><ele>159.0</ele><time>2026-05-02T08:00:37Z</time></trkpt><trkpt lat="40.957463750036865" lon="8.891117060292"><ele>159.0</ele><time>2026-05-02T08:00:38Z</time></trkpt><trkpt lat="40.95752929940571" lon="8.891113983581311"><ele>159.0</ele><time>2026-05-02T08:00:39Z</time></trkpt><trkpt lat="40.957594819694776" lon="8.891058796030471"><ele>159.0</ele><time>2026-05-02T08:00:41Z</time></trkpt><trkpt lat="40.95757644496218" lon="8.89092440105383"><ele>155.0</ele><time>2026-05-02T08:00:43Z</time></trkpt><trkpt lat="40.9575552283439" lon="8.890835439928209"><ele>151.0</ele><time>2026-05-02T08:00:44Z</time></trkpt><trkpt lat="40.95751520580772" lon="8.890754381664376"><ele>147.0</ele><time>2026-05-02T08:00:45Z</time></trkpt><trkpt lat="40.95743284737385" lon="8.890637199302212"><ele>143.0</ele><time>2026-05-02T08:00:47Z</time></trkpt><trkpt lat="40.95728256755137" lon="8.890630292856969"><ele>139.0</ele><time>2026-05-02T08:00:49Z</time></trkpt><trkpt lat="40.957187582632216" lon="8.890627492821698"><ele>139.0</ele><time>2026-05-02T08:00:50Z</time></trkpt><trkpt lat="40.957088717404304" lon="8.890641810824217"><ele>139.0</ele><time>2026-05-02T08:00:51Z</time></trkpt><trkpt lat="40.95700457136179" lon="8.890647812684026"><ele>139.0</ele><time>2026-05-02T08:00:52Z</time></trkpt><trkpt lat="40.95692252560705" lon="8.89064832676123"><ele>139.0</ele><time>2026-05-02T08:00:53Z</time></trkpt><trkpt lat="40.95683744366517" lon="8.890634759926746"><ele>139.0</ele><time>2026-05-02T08:00:54Z</time></trkpt><trkpt lat="40.956748908422405" lon="8.890604029368632"><ele>139.0</ele><time>2026-05-02T08:00:55Z</time></trkpt><trkpt lat="40.9566546847451" lon="8.890572595400398"><ele>138.5</ele><time>2026-05-02T08:00:56Z</time></trkpt><trkpt lat="40.95656902604866" lon="8.890540191169167"><ele>138.0</ele><time>2026-05-02T08:00:57Z</time></trkpt><trkpt lat="40.9564960512971" lon="8.890512404730917"><ele>137.5</ele><time>2026-05-02T08:00:58Z</time></trkpt><trkpt lat="40.956434635557585" lon="8.890489023563202"><ele>137.0</ele><time>2026-05-02T08:00:59Z</time></trkpt><trkpt lat="40.95635289249297" lon="8.890453972181845"><ele>136.5</ele><time>2026-05-02T08:01:01Z</time></trkpt><trkpt lat="40.95628201518331" lon="8.890413530901247"><ele>136.0</ele><time>2026-05-02T08:01:13Z</time></trkpt><trkpt lat="40.956213093694" lon="8.890372798485542"><ele>136.0</ele><time>2026-05-02T08:01:18Z</time></trkpt><trkpt lat="40.95613507013067" lon="8.890358969715168"><ele>136.0</ele><time>2026-05-02T08:01:21Z</time></trkpt><trkpt lat="40.956187047779665" lon="8.890250338793741"><ele>136.0</ele><time>2026-05-02T08:01:25Z</time></trkpt><trkpt lat="40.956178196911935" lon="8.890145000815838"><ele>136.0</ele><time>2026-05-02T08:01:28Z</time></trkpt><trkpt lat="40.95620235225391" lon="8.890044182488912"><ele>136.0</ele><time>2026-05-02T08:01:32Z</time></trkpt><trkpt lat="40.956134014461384" lon="8.889988486322006"><ele>136.0</ele><time>2026-05-02T08:07:55Z</time></trkpt><trkpt lat="40.956111497163974" lon="8.88986208945488"><ele>136.0</ele><time>2026-05-02T08:07:57Z</time></trkpt><trkpt lat="40.95602362604943" lon="8.889796133983289"><ele>136.0</ele><time>2026-05-02T08:07:59Z</time></trkpt><trkpt lat="40.95608350969402" lon="8.889848178001836"><ele>136.0</ele><time>2026-05-02T08:08:33Z</time></trkpt><trkpt lat="40.956118761058335" lon="8.889935269589099"><ele>136.0</ele><time>2026-05-02T08:08:38Z</time></trkpt><trkpt lat="40.95616083814098" lon="8.890036070636869"><ele>136.0</ele><time>2026-05-02T08:08:40Z</time></trkpt><trkpt lat="40.95613947809562" lon="8.890170900154963"><ele>136.0</ele><time>2026-05-02T08:08:41Z</time></trkpt><trkpt lat="40.95610447166494" lon="8.890267723107923"><ele>136.0</ele><time>2026-05-02T08:08:43Z</time></trkpt><trkpt lat="40.95607987372256" lon="8.890352402664247"><ele>136.0</ele><time>2026-05-02T08:08:55Z</time></trkpt><trkpt lat="40.956259799024586" lon="8.89042436102459"><ele>136.0</ele><time>2026-05-02T08:08:59Z</time></trkpt><trkpt lat="40.956355409414144" lon="8.890344506325864"><ele>136.0</ele><time>2026-05-02T08:09:00Z</time></trkpt><trkpt lat="40.956439110401405" lon="8.890377621995466"><ele>136.0</ele><time>2026-05-02T08:09:01Z</time></trkpt><trkpt lat="40.956514394702914" lon="8.890392302836228"><ele>136.0</ele><time>2026-05-02T08:09:02Z</time></trkpt><trkpt lat="40.9565942810711" lon="8.890411537836387"><ele>136.0</ele><time>2026-05-02T08:09:03Z</time></trkpt><trkpt lat="40.95667887083167" lon="8.890417975115332"><ele>136.0</ele><time>2026-05-02T08:09:04Z</time></trkpt><trkpt lat="40.956769515131086" lon="8.89040423164364"><ele>136.0</ele><time>2026-05-02T08:09:05Z</time></trkpt><trkpt lat="40.956856194187964" lon="8.890366521151009"><ele>136.0</ele><time>2026-05-02T08:09:06Z</time></trkpt><trkpt lat="40.95693574931608" lon="8.890312461747827"><ele>136.6</ele><time>2026-05-02T08:09:07Z</time></trkpt><trkpt lat="40.957010021587884" lon="8.89024727908637"><ele>137.2</ele><time>2026-05-02T08:09:08Z</time></trkpt><trkpt lat="40.95707167122173" lon="8.890160714756169"><ele>137.8</ele><time>2026-05-02T08:09:09Z</time></trkpt><trkpt lat="40.957126839468735" lon="8.890066232992996"><ele>138.4</ele><time>2026-05-02T08:09:10Z</time></trkpt><trkpt lat="40.95718510136965" lon="8.889960987243603"><ele>139.0</ele><time>2026-05-02T08:09:11Z</time></trkpt><trkpt lat="40.95725123563252" lon="8.889850494455455"><ele>135.2</ele><time>2026-05-02T08:09:12Z</time></trkpt><trkpt lat="40.95734123399324" lon="8.889773328417624"><ele>131.4</ele><time>2026-05-02T08:09:13Z</time></trkpt><trkpt lat="40.95742972720045" lon="8.889686191439987"><ele>127.6</ele><time>2026-05-02T08:09:14Z</time></trkpt><trkpt lat="40.957524902872485" lon="8.889601791985168"><ele>123.8</ele><time>2026-05-02T08:09:15Z</time></trkpt><trkpt lat="40.95762786822585" lon="8.889540679432583"><ele>120.0</ele><time>2026-05-02T08:09:16Z</time></trkpt><trkpt lat="40.95773595341373" lon="8.889526128535143"><ele>117.25</ele><time>2026-05-02T08:09:17Z</time></trkpt><trkpt lat="40.95783819235253" lon="8.889573264317027"><ele>114.5</ele><time>2026-05-02T08:09:18Z</time></trkpt><trkpt lat="40.957958480434414" lon="8.889633495893127"><ele>111.75</ele><time>2026-05-02T08:09:19Z</time></trkpt><trkpt lat="40.958074528407906" lon="8.889697308189733"><ele>109.0</ele><time>2026-05-02T08:09:20Z</time></trkpt><trkpt lat="40.95816784230501" lon="8.88977219758634"><ele>109.0</ele><time>2026-05-02T08:09:21Z</time></trkpt><trkpt lat="40.958249423937865" lon="8.889881866364915"><ele>109.0</ele><time>2026-05-02T08:09:22Z</time></trkpt><trkpt lat="40.95830467974158" lon="8.890028177875193"><ele>109.0</ele><time>2026-05-02T08:09:23Z</time></trkpt><trkpt lat="40.95834568259497" lon="8.890210052277657"><ele>109.0</ele><time>2026-05-02T08:09:24Z</time></trkpt><trkpt lat="40.95837676369858" lon="8.890382746325267"><ele>112.4</ele><time>2026-05-02T08:09:25Z</time></trkpt><trkpt lat="40.958406617950985" lon="8.890514580241293"><ele>115.80000000000001</ele><time>2026-05-02T08:09:26Z</time></trkpt><trkpt lat="40.958458912874335" lon="8.890621062233635"><ele>119.19999999999999</ele><time>2026-05-02T08:09:27Z</time></trkpt><trkpt lat="40.95854309681693" lon="8.890691083841745"><ele>122.6</ele><time>2026-05-02T08:09:28Z</time></trkpt><trkpt lat="40.958642950709" lon="8.890716100777105"><ele>126.0</ele><time>2026-05-02T08:09:29Z</time></trkpt><trkpt lat="40.95873535780329" lon="8.890685165380031"><ele>126.0</ele><time>2026-05-02T08:09:30Z</time></trkpt><trkpt lat="40.95882115196249" lon="8.890602908968395"><ele>126.0</ele><time>2026-05-02T08:09:31Z</time></trkpt><trkpt lat="40.95886641893442" lon="8.890492466869585"><ele>126.0</ele><time>2026-05-02T08:09:32Z</time></trkpt><trkpt lat="40.95886811986108" lon="8.89037072273457"><ele>126.0</ele><time>2026-05-02T08:09:33Z</time></trkpt><trkpt lat="40.95886381703211" lon="8.890233617146253"><ele>126.0</ele><time>2026-05-02T08:09:34Z</time></trkpt><trkpt lat="40.95892109882489" lon="8.890094287124715"><ele>121.33333333333334</ele><time>2026-05-02T08:09:35Z</time></trkpt><trkpt lat="40.95900119004284" lon="8.889934384057938"><ele>116.66666666666667</ele><time>2026-05-02T08:09:36Z</time></trkpt><trkpt lat="40.95907795838731" lon="8.88975099112703"><ele>112.0</ele><time>2026-05-02T08:09:37Z</time></trkpt><trkpt lat="40.95917236166192" lon="8.889571510831297"><ele>114.0</ele><time>2026-05-02T08:09:38Z</time></trkpt><trkpt lat="40.959257915639256" lon="8.889404266482881"><ele>116.0</ele><time>2026-05-02T08:09:39Z</time></trkpt><trkpt lat="40.959332728357886" lon="8.889253813550726"><ele>118.0</ele><time>2026-05-02T08:09:40Z</time></trkpt><trkpt lat="40.95939344039812" lon="8.889122197812723"><ele>120.0</ele><time>2026-05-02T08:09:41Z</time></trkpt><trkpt lat="40.95941493434412" lon="8.888978663887622"><ele>120.0</ele><time>2026-05-02T08:09:42Z</time></trkpt><trkpt lat="40.959391249289574" lon="8.888814420907995"><ele>120.0</ele><time>2026-05-02T08:09:43Z</time></trkpt><trkpt lat="40.95933730904078" lon="8.888647112408792"><ele>120.0</ele><time>2026-05-02T08:09:44Z</time></trkpt><trkpt lat="40.959330793033295" lon="8.88844214485727"><ele>120.0</ele><time>2026-05-02T08:09:45Z</time></trkpt><trkpt lat="40.959329750915785" lon="8.888235343072695"><ele>117.0</ele><time>2026-05-02T08:09:46Z</time></trkpt><trkpt lat="40.95933356973848" lon="8.888043729417799"><ele>114.0</ele><time>2026-05-02T08:09:47Z</time></trkpt><trkpt lat="40.95934969361439" lon="8.887874990663068"><ele>111.0</ele><time>2026-05-02T08:09:48Z</time></trkpt><trkpt lat="40.95937695833309" lon="8.88770964266784"><ele>108.0</ele><time>2026-05-02T08:09:49Z</time></trkpt><trkpt lat="40.959441700648696" lon="8.887568284829864"><ele>105.0</ele><time>2026-05-02T08:09:50Z</time></trkpt><trkpt lat="40.959535713189354" lon="8.887465019861047"><ele>102.0</ele><time>2026-05-02T08:09:51Z</time></trkpt><trkpt lat="40.95963971172856" lon="8.887365258143085"><ele>99.0</ele><time>2026-05-02T08:09:52Z</time></trkpt><trkpt lat="40.95975114920326" lon="8.887248059737635"><ele>96.0</ele><time>2026-05-02T08:09:53Z</time></trkpt><trkpt lat="40.95987313889784" lon="8.887144194380026"><ele>96.0</ele><time>2026-05-02T08:09:54Z</time></trkpt><trkpt lat="40.959995566126686" lon="8.88704109885257"><ele>96.0</ele><time>2026-05-02T08:09:55Z</time></trkpt><trkpt lat="40.96011974473559" lon="8.886937624590287"><ele>96.0</ele><time>2026-05-02T08:09:56Z</time></trkpt><trkpt lat="40.96024818322087" lon="8.88683367846098"><ele>96.0</ele><time>2026-05-02T08:09:57Z</time></trkpt><trkpt lat="40.960377552375796" lon="8.88675889726036"><ele>93.0</ele><time>2026-05-02T08:09:58Z</time></trkpt><trkpt lat="40.96050553369722" lon="8.8867061721007"><ele>90.0</ele><time>2026-05-02T08:09:59Z</time></trkpt><trkpt lat="40.960624334069706" lon="8.886679079475918"><ele>87.0</ele><time>2026-05-02T08:10:00Z</time></trkpt><trkpt lat="40.960733791538516" lon="8.886689712653679"><ele>84.0</ele><time>2026-05-02T08:10:01Z</time></trkpt><trkpt lat="40.96083113069961" lon="8.88674456555608"><ele>81.75</ele><time>2026-05-02T08:10:02Z</time></trkpt><trkpt lat="40.96091826725971" lon="8.886842750340676"><ele>79.5</ele><time>2026-05-02T08:10:03Z</time></trkpt><trkpt lat="40.96099676996927" lon="8.886978089696457"><ele>77.25</ele><time>2026-05-02T08:10:04Z</time></trkpt><trkpt lat="40.96107103182977" lon="8.887132119882917"><ele>75.0</ele><time>2026-05-02T08:10:05Z</time></trkpt><trkpt lat="40.96114903969806" lon="8.887290800568246"><ele>75.0</ele><time>2026-05-02T08:10:06Z</time></trkpt><trkpt lat="40.961237498003264" lon="8.887445706432871"><ele>75.0</ele><time>2026-05-02T08:10:07Z</time></trkpt><trkpt lat="40.96132699301329" lon="8.887598898244516"><ele>75.0</ele><time>2026-05-02T08:10:08Z</time></trkpt><trkpt lat="40.96141006167877" lon="8.887741441619353"><ele>75.0</ele><time>2026-05-02T08:10:09Z</time></trkpt><trkpt lat="40.96148543672303" lon="8.887868342627822"><ele>75.0</ele><time>2026-05-02T08:10:10Z</time></trkpt><trkpt lat="40.96154870182402" lon="8.887988044413415"><ele>75.0</ele><time>2026-05-02T08:10:11Z</time></trkpt><trkpt lat="40.96161328460257" lon="8.888105213584323"><ele>75.0</ele><time>2026-05-02T08:10:12Z</time></trkpt><trkpt lat="40.961679901659686" lon="8.888231215891658"><ele>75.0</ele><time>2026-05-02T08:10:13Z</time></trkpt><trkpt lat="40.961749554833126" lon="8.888356958424582"><ele>76.25</ele><time>2026-05-02T08:10:14Z</time></trkpt><trkpt lat="40.96182519923292" lon="8.88848132175986"><ele>77.5</ele><time>2026-05-02T08:10:15Z</time></trkpt><trkpt lat="40.96190335578733" lon="8.888610112882263"><ele>78.75</ele><time>2026-05-02T08:10:16Z</time></trkpt><trkpt lat="40.96198028931212" lon="8.888744565363274"><ele>80.0</ele><time>2026-05-02T08:10:17Z</time></trkpt><trkpt lat="40.96205647512984" lon="8.888884622055691"><ele>80.0</ele><time>2026-05-02T08:10:18Z</time></trkpt><trkpt lat="40.962130104339984" lon="8.889022062266719"><ele>80.0</ele><time>2026-05-02T08:10:19Z</time></trkpt><trkpt lat="40.96219570080932" lon="8.889145100012469"><ele>80.0</ele><time>2026-05-02T08:10:20Z</time></trkpt><trkpt lat="40.96225842191221" lon="8.88925443812284"><ele>80.0</ele><time>2026-05-02T08:10:21Z</time></trkpt><trkpt lat="40.96231905954375" lon="8.889352467625223"><ele>80.0</ele><time>2026-05-02T08:10:22Z</time></trkpt><trkpt lat="40.96238206580367" lon="8.889438781808366"><ele>80.0</ele><time>2026-05-02T08:10:23Z</time></trkpt><trkpt lat="40.962462644083274" lon="8.889477685738493"><ele>80.0</ele><time>2026-05-02T08:10:24Z</time></trkpt><trkpt lat="40.96254795639199" lon="8.889460533854361"><ele>80.0</ele><time>2026-05-02T08:10:25Z</time></trkpt><trkpt lat="40.96262444576231" lon="8.88938779331775"><ele>80.0</ele><time>2026-05-02T08:10:26Z</time></trkpt><trkpt lat="40.96269117685848" lon="8.889314195234672"><ele>80.0</ele><time>2026-05-02T08:10:27Z</time></trkpt><trkpt lat="40.962769727250766" lon="8.889238681833403"><ele>80.0</ele><time>2026-05-02T08:10:28Z</time></trkpt><trkpt lat="40.96285652216025" lon="8.889174071797889"><ele>80.0</ele><time>2026-05-02T08:10:29Z</time></trkpt><trkpt lat="40.962944918802606" lon="8.889107013684008"><ele>80.0</ele><time>2026-05-02T08:10:30Z</time></trkpt><trkpt lat="40.963032077788675" lon="8.88903304892677"><ele>80.0</ele><time>2026-05-02T08:10:31Z</time></trkpt><trkpt lat="40.963117288569165" lon="8.888958082720103"><ele>80.0</ele><time>2026-05-02T08:10:32Z</time></trkpt><trkpt lat="40.96319449583172" lon="8.88889144295839"><ele>80.0</ele><time>2026-05-02T08:10:33Z</time></trkpt><trkpt lat="40.963263520985535" lon="8.88883702033947"><ele>80.0</ele><time>2026-05-02T08:10:34Z</time></trkpt><trkpt lat="40.96334482929667" lon="8.888773541486113"><ele>80.0</ele><time>2026-05-02T08:10:36Z</time></trkpt><trkpt lat="40.96340576605911" lon="8.888727871856617"><ele>80.0</ele><time>2026-05-02T08:10:40Z</time></trkpt><trkpt lat="40.96346094957422" lon="8.88859227048091"><ele>80.0</ele><time>2026-05-02T08:10:50Z</time></trkpt><trkpt lat="40.96346184039414" lon="8.888505231367509"><ele>80.0</ele><time>2026-05-02T08:10:51Z</time></trkpt><trkpt lat="40.96341840682161" lon="8.88838679380822"><ele>80.5</ele><time>2026-05-02T08:10:53Z</time></trkpt><trkpt lat="40.963398956734856" lon="8.888285707516115"><ele>81.0</ele><time>2026-05-02T08:10:54Z</time></trkpt><trkpt lat="40.963358552303575" lon="8.888189189307468"><ele>81.5</ele><time>2026-05-02T08:10:55Z</time></trkpt><trkpt lat="40.9633177632696" lon="8.888085814019261"><ele>82.0</ele><time>2026-05-02T08:10:56Z</time></trkpt><trkpt lat="40.963280374033474" lon="8.887979599096894"><ele>82.5</ele><time>2026-05-02T08:10:57Z</time></trkpt><trkpt lat="40.9632697124479" lon="8.887847019337043"><ele>83.0</ele><time>2026-05-02T08:10:58Z</time></trkpt><trkpt lat="40.96330032704067" lon="8.88770647795314"><ele>83.25</ele><time>2026-05-02T08:10:59Z</time></trkpt><trkpt lat="40.96334853722342" lon="8.88755783169204"><ele>83.5</ele><time>2026-05-02T08:11:00Z</time></trkpt><trkpt lat="40.9634004828524" lon="8.887407589400459"><ele>83.75</ele><time>2026-05-02T08:11:01Z</time></trkpt><trkpt lat="40.96345383696716" lon="8.887250145519092"><ele>84.0</ele><time>2026-05-02T08:11:02Z</time></trkpt><trkpt lat="40.963519373992355" lon="8.887095223539925"><ele>86.75</ele><time>2026-05-02T08:11:03Z</time></trkpt><trkpt lat="40.963603334593124" lon="8.886955198889568"><ele>89.5</ele><time>2026-05-02T08:11:04Z</time></trkpt><trkpt lat="40.96370098848404" lon="8.88684021088996"><ele>92.25</ele><time>2026-05-02T08:11:05Z</time></trkpt><trkpt lat="40.96381338753346" lon="8.886762319078523"><ele>95.0</ele><time>2026-05-02T08:11:06Z</time></trkpt><trkpt lat="40.96393340817723" lon="8.886706543800567"><ele>95.0</ele><time>2026-05-02T08:11:07Z</time></trkpt><trkpt lat="40.96405410910349" lon="8.886673739993329"><ele>95.0</ele><time>2026-05-02T08:11:08Z</time></trkpt><trkpt lat="40.96417364073976" lon="8.886663601351824"><ele>95.0</ele><time>2026-05-02T08:11:09Z</time></trkpt><trkpt lat="40.96428826621565" lon="8.88666184036431"><ele>95.0</ele><time>2026-05-02T08:11:10Z</time></trkpt><trkpt lat="40.96439810731888" lon="8.886649798112892"><ele>96.8</ele><time>2026-05-02T08:11:11Z</time></trkpt><trkpt lat="40.96450378884972" lon="8.886630573098811"><ele>98.6</ele><time>2026-05-02T08:11:12Z</time></trkpt><trkpt lat="40.96460436165855" lon="8.886611308601672"><ele>100.4</ele><time>2026-05-02T08:11:13Z</time></trkpt><trkpt lat="40.96469682698546" lon="8.886584388960658"><ele>102.2</ele><time>2026-05-02T08:11:14Z</time></trkpt><trkpt lat="40.96476510692481" lon="8.886539013726065"><ele>104.0</ele><time>2026-05-02T08:11:15Z</time></trkpt><trkpt lat="40.96480859373435" lon="8.886465971639002"><ele>104.0</ele><time>2026-05-02T08:11:16Z</time></trkpt><trkpt lat="40.964852805932985" lon="8.886399889745801"><ele>104.0</ele><time>2026-05-02T08:11:17Z</time></trkpt><trkpt lat="40.9648786663046" lon="8.88631682887124"><ele>104.0</ele><time>2026-05-02T08:11:18Z</time></trkpt><trkpt lat="40.964780726938" lon="8.886168991340911"><ele>104.0</ele><time>2026-05-02T08:11:23Z</time></trkpt><trkpt lat="40.96470665936754" lon="8.88609844107077"><ele>104.0</ele><time>2026-05-02T08:11:25Z</time></trkpt><trkpt lat="40.96463922809714" lon="8.885993602343246"><ele>103.2</ele><time>2026-05-02T08:11:27Z</time></trkpt><trkpt lat="40.96460265163463" lon="8.885917117225967"><ele>102.4</ele><time>2026-05-02T08:11:28Z</time></trkpt><trkpt lat="40.96454748163548" lon="8.885841622783147"><ele>101.6</ele><time>2026-05-02T08:11:29Z</time></trkpt><trkpt lat="40.96448746899686" lon="8.88575205914284"><ele>100.8</ele><time>2026-05-02T08:11:30Z</time></trkpt><trkpt lat="40.96442011047693" lon="8.885651919047792"><ele>100.0</ele><time>2026-05-02T08:11:31Z</time></trkpt><trkpt lat="40.96434423204918" lon="8.885545053000495"><ele>100.0</ele><time>2026-05-02T08:11:32Z</time></trkpt><trkpt lat="40.96426158339592" lon="8.885429473206868"><ele>100.0</ele><time>2026-05-02T08:11:33Z</time></trkpt><trkpt lat="40.964179056394464" lon="8.88530682042496"><ele>100.0</ele><time>2026-05-02T08:11:34Z</time></trkpt><trkpt lat="40.96409106962131" lon="8.885182752317721"><ele>100.0</ele><time>2026-05-02T08:11:35Z</time></trkpt><trkpt lat="40.96401737386844" lon="8.885036030850308"><ele>96.0</ele><time>2026-05-02T08:11:36Z</time></trkpt><trkpt lat="40.96391923879813" lon="8.88491671041804"><ele>92.0</ele><time>2026-05-02T08:11:37Z</time></trkpt><trkpt lat="40.963832976685836" lon="8.884778048309652"><ele>88.0</ele><time>2026-05-02T08:11:38Z</time></trkpt><trkpt lat="40.963727764494266" lon="8.884664957692198"><ele>84.0</ele><time>2026-05-02T08:11:39Z</time></trkpt><trkpt lat="40.96364543431529" lon="8.884582682778614"><ele>84.0</ele><time>2026-05-02T08:11:40Z</time></trkpt><trkpt lat="40.96358251732642" lon="8.88451949927279"><ele>84.0</ele><time>2026-05-02T08:11:41Z</time></trkpt><trkpt lat="40.96352224495252" lon="8.88444950029128"><ele>84.0</ele><time>2026-05-02T08:11:42Z</time></trkpt><trkpt lat="40.963461984005626" lon="8.884352999003038"><ele>84.0</ele><time>2026-05-02T08:11:43Z</time></trkpt><trkpt lat="40.96337977460912" lon="8.884266384113525"><ele>84.0</ele><time>2026-05-02T08:11:44Z</time></trkpt><trkpt lat="40.9632961829381" lon="8.884180713787579"><ele>81.8</ele><time>2026-05-02T08:11:45Z</time></trkpt><trkpt lat="40.96320810447315" lon="8.884096778007331"><ele>79.60000000000001</ele><time>2026-05-02T08:11:46Z</time></trkpt><trkpt lat="40.96312397534762" lon="8.884014733601763"><ele>77.4</ele><time>2026-05-02T08:11:47Z</time></trkpt><trkpt lat="40.963056322079936" lon="8.88393322692016"><ele>75.2</ele><time>2026-05-02T08:11:48Z</time></trkpt><trkpt lat="40.963020486347325" lon="8.883831396641634"><ele>73.0</ele><time>2026-05-02T08:11:49Z</time></trkpt><trkpt lat="40.96299298469306" lon="8.883704334982871"><ele>73.0</ele><time>2026-05-02T08:11:50Z</time></trkpt><trkpt lat="40.96295922892062" lon="8.883546232604527"><ele>73.0</ele><time>2026-05-02T08:11:51Z</time></trkpt><trkpt lat="40.9628934679424" lon="8.883409757941008"><ele>73.0</ele><time>2026-05-02T08:11:52Z</time></trkpt><trkpt lat="40.96282693483604" lon="8.88329567892344"><ele>73.0</ele><time>2026-05-02T08:11:53Z</time></trkpt><trkpt lat="40.96274170320798" lon="8.883220208653462"><ele>72.6</ele><time>2026-05-02T08:11:54Z</time></trkpt><trkpt lat="40.96264532440634" lon="8.883193950982422"><ele>72.19999999999999</ele><time>2026-05-02T08:11:55Z</time></trkpt><trkpt lat="40.962551292500756" lon="8.883199249785594"><ele>71.8</ele><time>2026-05-02T08:11:56Z</time></trkpt><trkpt lat="40.96244717111293" lon="8.883184374786834"><ele>71.39999999999999</ele><time>2026-05-02T08:11:57Z</time></trkpt><trkpt lat="40.96236743206753" lon="8.883126096294946"><ele>71.0</ele><time>2026-05-02T08:11:58Z</time></trkpt><trkpt lat="40.96228726402431" lon="8.883033063650332"><ele>69.25</ele><time>2026-05-02T08:11:59Z</time></trkpt><trkpt lat="40.96218703648589" lon="8.88293186950256"><ele>67.5</ele><time>2026-05-02T08:12:00Z</time></trkpt><trkpt lat="40.96208471896396" lon="8.882831530883909"><ele>65.75</ele><time>2026-05-02T08:12:01Z</time></trkpt><trkpt lat="40.96197540156034" lon="8.882753151240538"><ele>64.0</ele><time>2026-05-02T08:12:02Z</time></trkpt><trkpt lat="40.96189045021225" lon="8.882650177788971"><ele>64.0</ele><time>2026-05-02T08:12:03Z</time></trkpt><trkpt lat="40.96177207643362" lon="8.882619410862555"><ele>64.0</ele><time>2026-05-02T08:12:04Z</time></trkpt><trkpt lat="40.96165586802282" lon="8.882642954327782"><ele>64.0</ele><time>2026-05-02T08:12:05Z</time></trkpt><trkpt lat="40.961557199917515" lon="8.88265968676807"><ele>64.0</ele><time>2026-05-02T08:12:06Z</time></trkpt><trkpt lat="40.9614678155634" lon="8.882677405097713"><ele>64.0</ele><time>2026-05-02T08:12:07Z</time></trkpt><trkpt lat="40.961377585425694" lon="8.882688093418663"><ele>63.400000000000006</ele><time>2026-05-02T08:12:08Z</time></trkpt><trkpt lat="40.961293844944585" lon="8.88269089868389"><ele>62.800000000000004</ele><time>2026-05-02T08:12:09Z</time></trkpt><trkpt lat="40.9612292282434" lon="8.882668814343956"><ele>62.199999999999996</ele><time>2026-05-02T08:12:10Z</time></trkpt><trkpt lat="40.961186200891326" lon="8.882488006792173"><ele>61.599999999999994</ele><time>2026-05-02T08:12:12Z</time></trkpt><trkpt lat="40.96116620343776" lon="8.88238259508813"><ele>61.0</ele><time>2026-05-02T08:12:13Z</time></trkpt><trkpt lat="40.96113150619507" lon="8.882258186611477"><ele>60.0</ele><time>2026-05-02T08:12:14Z</time></trkpt><trkpt lat="40.96110453504819" lon="8.88212082170606"><ele>59.0</ele><time>2026-05-02T08:12:15Z</time></trkpt><trkpt lat="40.96103772445447" lon="8.881982905286783"><ele>58.0</ele><time>2026-05-02T08:12:16Z</time></trkpt><trkpt lat="40.96094424090339" lon="8.88188520039939"><ele>57.0</ele><time>2026-05-02T08:12:17Z</time></trkpt><trkpt lat="40.960825925549116" lon="8.88182028853"><ele>55.5</ele><time>2026-05-02T08:12:18Z</time></trkpt><trkpt lat="40.960702388079554" lon="8.881754252123619"><ele>54.0</ele><time>2026-05-02T08:12:19Z</time></trkpt><trkpt lat="40.96057724485635" lon="8.88169120273292"><ele>52.5</ele><time>2026-05-02T08:12:20Z</time></trkpt><trkpt lat="40.960449865228746" lon="8.881618083162587"><ele>51.0</ele><time>2026-05-02T08:12:21Z</time></trkpt><trkpt lat="40.96032421922404" lon="8.88153416936485"><ele>51.0</ele><time>2026-05-02T08:12:22Z</time></trkpt><trkpt lat="40.96020980461423" lon="8.881427720434408"><ele>51.0</ele><time>2026-05-02T08:12:23Z</time></trkpt><trkpt lat="40.96011851789734" lon="8.881303826538694"><ele>51.0</ele><time>2026-05-02T08:12:24Z</time></trkpt><trkpt lat="40.960050644246614" lon="8.881167558523186"><ele>51.0</ele><time>2026-05-02T08:12:25Z</time></trkpt><trkpt lat="40.9599894051457" lon="8.881022011562345"><ele>50.25</ele><time>2026-05-02T08:12:26Z</time></trkpt><trkpt lat="40.95992012786322" lon="8.880868718985992"><ele>49.5</ele><time>2026-05-02T08:12:27Z</time></trkpt><trkpt lat="40.95984907986065" lon="8.88071150829892"><ele>48.75</ele><time>2026-05-02T08:12:28Z</time></trkpt><trkpt lat="40.95977694678186" lon="8.880551667798894"><ele>48.0</ele><time>2026-05-02T08:12:29Z</time></trkpt><trkpt lat="40.95970448299125" lon="8.88039102856178"><ele>48.0</ele><time>2026-05-02T08:12:30Z</time></trkpt><trkpt lat="40.95963069999481" lon="8.88022746488539"><ele>48.0</ele><time>2026-05-02T08:12:31Z</time></trkpt><trkpt lat="40.95954634283721" lon="8.880088846299918"><ele>48.0</ele><time>2026-05-02T08:12:32Z</time></trkpt><trkpt lat="40.95948634887834" lon="8.879951526932809"><ele>48.0</ele><time>2026-05-02T08:12:33Z</time></trkpt><trkpt lat="40.95943454599756" lon="8.879825474937357"><ele>47.333333333333336</ele><time>2026-05-02T08:12:34Z</time></trkpt><trkpt lat="40.95940672107708" lon="8.879696614707475"><ele>46.666666666666664</ele><time>2026-05-02T08:12:35Z</time></trkpt><trkpt lat="40.95937834308848" lon="8.879583397387716"><ele>46.0</ele><time>2026-05-02T08:12:36Z</time></trkpt><trkpt lat="40.959336853983466" lon="8.879485727069525"><ele>45.33333333333333</ele><time>2026-05-02T08:12:37Z</time></trkpt><trkpt lat="40.95931082982265" lon="8.879392193525472"><ele>44.666666666666664</ele><time>2026-05-02T08:12:38Z</time></trkpt><trkpt lat="40.95928374319119" lon="8.879306137597858"><ele>44.0</ele><time>2026-05-02T08:12:39Z</time></trkpt><trkpt lat="40.95925244928367" lon="8.879198045167946"><ele>44.0</ele><time>2026-05-02T08:12:41Z</time></trkpt><trkpt lat="40.95921795415947" lon="8.879088636097388"><ele>44.0</ele><time>2026-05-02T08:12:49Z</time></trkpt><trkpt lat="40.9590835161099" lon="8.879149455751353"><ele>44.0</ele><time>2026-05-02T08:12:50Z</time></trkpt><trkpt lat="40.959000045847006" lon="8.879175388189946"><ele>44.0</ele><time>2026-05-02T08:12:51Z</time></trkpt><trkpt lat="40.958906519691" lon="8.879177853735523"><ele>44.0</ele><time>2026-05-02T08:12:52Z</time></trkpt><trkpt lat="40.958801947281096" lon="8.879155322667048"><ele>43.5</ele><time>2026-05-02T08:12:53Z</time></trkpt><trkpt lat="40.95869116758372" lon="8.879121081712032"><ele>43.0</ele><time>2026-05-02T08:12:54Z</time></trkpt><trkpt lat="40.9585853172786" lon="8.879044087560173"><ele>42.5</ele><time>2026-05-02T08:12:55Z</time></trkpt><trkpt lat="40.95848088973494" lon="8.878974022881788"><ele>42.0</ele><time>2026-05-02T08:12:56Z</time></trkpt><trkpt lat="40.95837996895184" lon="8.878887508826708"><ele>42.25</ele><time>2026-05-02T08:12:57Z</time></trkpt><trkpt lat="40.95828619496934" lon="8.878785079029539"><ele>42.5</ele><time>2026-05-02T08:12:58Z</time></trkpt><trkpt lat="40.95820646987114" lon="8.87866684124931"><ele>42.75</ele><time>2026-05-02T08:12:59Z</time></trkpt><trkpt lat="40.95811148464274" lon="8.87855523529199"><ele>43.0</ele><time>2026-05-02T08:13:00Z</time></trkpt><trkpt lat="40.958057988706344" lon="8.87840478540557"><ele>42.25</ele><time>2026-05-02T08:13:01Z</time></trkpt><trkpt lat="40.958008626973665" lon="8.878250404369128"><ele>41.5</ele><time>2026-05-02T08:13:02Z</time></trkpt><trkpt lat="40.95795334931537" lon="8.87808839213468"><ele>40.75</ele><time>2026-05-02T08:13:03Z</time></trkpt><trkpt lat="40.95789523691059" lon="8.877919933243321"><ele>40.0</ele><time>2026-05-02T08:13:04Z</time></trkpt><trkpt lat="40.95783574440168" lon="8.877747884437593"><ele>39.5</ele><time>2026-05-02T08:13:05Z</time></trkpt><trkpt lat="40.957776063601635" lon="8.877573185293313"><ele>39.0</ele><time>2026-05-02T08:13:06Z</time></trkpt><trkpt lat="40.957712262695" lon="8.877398594454343"><ele>38.5</ele><time>2026-05-02T08:13:07Z</time></trkpt><trkpt lat="40.957649968829756" lon="8.877220188360912"><ele>38.0</ele><time>2026-05-02T08:13:08Z</time></trkpt><trkpt lat="40.95758614014164" lon="8.8770379329546"><ele>39.33333333333333</ele><time>2026-05-02T08:13:09Z</time></trkpt><trkpt lat="40.95751907485759" lon="8.87685600645478"><ele>40.666666666666664</ele><time>2026-05-02T08:13:10Z</time></trkpt><trkpt lat="40.95745058664239" lon="8.876671451699124"><ele>42.0</ele><time>2026-05-02T08:13:11Z</time></trkpt><trkpt lat="40.95738325017555" lon="8.876483156746051"><ele>42.333333333333336</ele><time>2026-05-02T08:13:12Z</time></trkpt><trkpt lat="40.95731646399883" lon="8.876296098697313"><ele>42.66666666666667</ele><time>2026-05-02T08:13:13Z</time></trkpt><trkpt lat="40.95725033672756" lon="8.876113393499955"><ele>43.0</ele><time>2026-05-02T08:13:14Z</time></trkpt><trkpt lat="40.95718423958445" lon="8.87593552470447"><ele>43.0</ele><time>2026-05-02T08:13:15Z</time></trkpt><trkpt lat="40.9571183554478" lon="8.875760752610775"><ele>43.0</ele><time>2026-05-02T08:13:16Z</time></trkpt><trkpt lat="40.957052428001596" lon="8.875589371570163"><ele>43.0</ele><time>2026-05-02T08:13:17Z</time></trkpt><trkpt lat="40.95699181217044" lon="8.87541381608933"><ele>43.0</ele><time>2026-05-02T08:13:18Z</time></trkpt><trkpt lat="40.95690471520772" lon="8.875258616079723"><ele>43.0</ele><time>2026-05-02T08:13:19Z</time></trkpt><trkpt lat="40.95681572658765" lon="8.875106049786094"><ele>43.0</ele><time>2026-05-02T08:13:20Z</time></trkpt><trkpt lat="40.956714469504846" lon="8.874965265073504"><ele>43.0</ele><time>2026-05-02T08:13:21Z</time></trkpt><trkpt lat="40.95660003356312" lon="8.874838063104782"><ele>43.0</ele><time>2026-05-02T08:13:22Z</time></trkpt><trkpt lat="40.956477609989946" lon="8.87472606016629"><ele>42.66666666666667</ele><time>2026-05-02T08:13:23Z</time></trkpt><trkpt lat="40.956347168596736" lon="8.87462470412021"><ele>42.333333333333336</ele><time>2026-05-02T08:13:24Z</time></trkpt><trkpt lat="40.95621427995257" lon="8.874523410518036"><ele>42.0</ele><time>2026-05-02T08:13:25Z</time></trkpt><trkpt lat="40.95607725650918" lon="8.874419830180681"><ele>42.0</ele><time>2026-05-02T08:13:26Z</time></trkpt><trkpt lat="40.95593516328047" lon="8.87431467635047"><ele>42.0</ele><time>2026-05-02T08:13:27Z</time></trkpt><trkpt lat="40.95578860748146" lon="8.874210973336652"><ele>42.0</ele><time>2026-05-02T08:13:28Z</time></trkpt><trkpt lat="40.95564839045103" lon="8.874083621184306"><ele>38.666666666666664</ele><time>2026-05-02T08:13:29Z</time></trkpt><trkpt lat="40.955496348276775" lon="8.873971733881366"><ele>35.33333333333333</ele><time>2026-05-02T08:13:30Z</time></trkpt><trkpt lat="40.9553414359724" lon="8.87385773446437"><ele>32.0</ele><time>2026-05-02T08:13:31Z</time></trkpt><trkpt lat="40.955186073800064" lon="8.873743485953575"><ele>30.0</ele><time>2026-05-02T08:13:32Z</time></trkpt><trkpt lat="40.955021842296766" lon="8.873646760190972"><ele>28.0</ele><time>2026-05-02T08:13:33Z</time></trkpt><trkpt lat="40.95486418091465" lon="8.873531958832256"><ele>26.0</ele><time>2026-05-02T08:13:34Z</time></trkpt><trkpt lat="40.95470826083803" lon="8.873417177096092"><ele>25.666666666666664</ele><time>2026-05-02T08:13:35Z</time></trkpt><trkpt lat="40.95455310161327" lon="8.873300087137185"><ele>25.333333333333336</ele><time>2026-05-02T08:13:36Z</time></trkpt><trkpt lat="40.95439929310983" lon="8.873184465816648"><ele>25.0</ele><time>2026-05-02T08:13:37Z</time></trkpt><trkpt lat="40.95424860065344" lon="8.87307068538271"><ele>25.0</ele><time>2026-05-02T08:13:38Z</time></trkpt><trkpt lat="40.95410288881178" lon="8.872945983537202"><ele>25.0</ele><time>2026-05-02T08:13:39Z</time></trkpt><trkpt lat="40.95394193342389" lon="8.872845245914371"><ele>25.0</ele><time>2026-05-02T08:13:40Z</time></trkpt><trkpt lat="40.95378638518653" lon="8.87273414042288"><ele>25.0</ele><time>2026-05-02T08:13:41Z</time></trkpt><trkpt lat="40.95363113255454" lon="8.872622143565833"><ele>25.0</ele><time>2026-05-02T08:13:42Z</time></trkpt><trkpt lat="40.953484502905965" lon="8.872489434199164"><ele>25.0</ele><time>2026-05-02T08:13:43Z</time></trkpt><trkpt lat="40.953323351648955" lon="8.872391381046384"><ele>25.333333333333336</ele><time>2026-05-02T08:13:44Z</time></trkpt><trkpt lat="40.95316403145195" lon="8.872276675314207"><ele>25.666666666666664</ele><time>2026-05-02T08:13:45Z</time></trkpt><trkpt lat="40.95300966016892" lon="8.872159681704263"><ele>26.0</ele><time>2026-05-02T08:13:46Z</time></trkpt><trkpt lat="40.95285270074147" lon="8.872042906537697"><ele>26.0</ele><time>2026-05-02T08:13:47Z</time></trkpt><trkpt lat="40.952696708931306" lon="8.871928624833995"><ele>26.0</ele><time>2026-05-02T08:13:48Z</time></trkpt><trkpt lat="40.95254306725608" lon="8.871817175906067"><ele>26.0</ele><time>2026-05-02T08:13:49Z</time></trkpt><trkpt lat="40.95240580105762" lon="8.871714712400125"><ele>25.75</ele><time>2026-05-02T08:13:50Z</time></trkpt><trkpt lat="40.9522737435966" lon="8.871615991583734"><ele>25.5</ele><time>2026-05-02T08:13:51Z</time></trkpt><trkpt lat="40.95214863422575" lon="8.871524581965039"><ele>25.25</ele><time>2026-05-02T08:13:52Z</time></trkpt><trkpt lat="40.9520323446963" lon="8.87143507077189"><ele>25.0</ele><time>2026-05-02T08:13:53Z</time></trkpt><trkpt lat="40.95193348194056" lon="8.871345216783936"><ele>25.000000000000004</ele><time>2026-05-02T08:13:54Z</time></trkpt><trkpt lat="40.95184313889754" lon="8.871262062027288"><ele>25.0</ele><time>2026-05-02T08:13:55Z</time></trkpt><trkpt lat="40.95177476957399" lon="8.871188911828321"><ele>25.0</ele><time>2026-05-02T08:13:56Z</time></trkpt><trkpt lat="40.95172458171983" lon="8.871118137170807"><ele>25.0</ele><time>2026-05-02T08:13:57Z</time></trkpt><trkpt lat="40.95168690738567" lon="8.87104928758911"><ele>25.000000000000004</ele><time>2026-05-02T08:13:58Z</time></trkpt><trkpt lat="40.95164935723252" lon="8.870930810353409"><ele>25.0</ele><time>2026-05-02T08:14:00Z</time></trkpt><trkpt lat="40.95162732470266" lon="8.87083407084457"><ele>23.833333333333336</ele><time>2026-05-02T08:14:02Z</time></trkpt><trkpt lat="40.951596785306414" lon="8.870726846970364"><ele>22.666666666666668</ele><time>2026-05-02T08:14:05Z</time></trkpt><trkpt lat="40.95153142184612" lon="8.870713045674975"><ele>21.5</ele><time>2026-05-02T08:14:09Z</time></trkpt><trkpt lat="40.951463801172245" lon="8.870676389416932"><ele>20.333333333333336</ele><time>2026-05-02T08:14:54Z</time></trkpt><trkpt lat="40.9513692865371" lon="8.870602534296616"><ele>19.166666666666668</ele><time>2026-05-02T08:14:56Z</time></trkpt><trkpt lat="40.95129649552283" lon="8.870620392212924"><ele>18.0</ele><time>2026-05-02T08:14:57Z</time></trkpt><trkpt lat="40.9512016177706" lon="8.870634676046253"><ele>18.0</ele><time>2026-05-02T08:14:59Z</time></trkpt><trkpt lat="40.95111478100485" lon="8.87064522327385"><ele>18.0</ele><time>2026-05-02T08:15:02Z</time></trkpt><trkpt lat="40.95105913111222" lon="8.870710008679364"><ele>18.0</ele><time>2026-05-02T08:15:06Z</time></trkpt><trkpt lat="40.95094235512829" lon="8.870615003534564"><ele>18.0</ele><time>2026-05-02T08:15:08Z</time></trkpt><trkpt lat="40.950842879999115" lon="8.87054154204594"><ele>18.0</ele><time>2026-05-02T08:15:09Z</time></trkpt><trkpt lat="40.950739874541" lon="8.870465788845028"><ele>18.25</ele><time>2026-05-02T08:15:10Z</time></trkpt><trkpt lat="40.95063171290701" lon="8.87038622213349"><ele>18.5</ele><time>2026-05-02T08:15:11Z</time></trkpt><trkpt lat="40.95052281932389" lon="8.870306116984324"><ele>18.75</ele><time>2026-05-02T08:15:12Z</time></trkpt><trkpt lat="40.95041250645994" lon="8.870224967769852"><ele>19.0</ele><time>2026-05-02T08:15:13Z</time></trkpt><trkpt lat="40.95029843781935" lon="8.870142718754902"><ele>18.75</ele><time>2026-05-02T08:15:14Z</time></trkpt><trkpt lat="40.95017924600135" lon="8.87006611253194"><ele>18.5</ele><time>2026-05-02T08:15:15Z</time></trkpt><trkpt lat="40.950055868341124" lon="8.869991805809322"><ele>18.25</ele><time>2026-05-02T08:15:16Z</time></trkpt><trkpt lat="40.94992485183927" lon="8.869918842832412"><ele>18.0</ele><time>2026-05-02T08:15:17Z</time></trkpt><trkpt lat="40.94978898294002" lon="8.869846012793847"><ele>18.0</ele><time>2026-05-02T08:15:18Z</time></trkpt><trkpt lat="40.94964466927025" lon="8.86977435346294"><ele>18.0</ele><time>2026-05-02T08:15:19Z</time></trkpt><trkpt lat="40.9494990149351" lon="8.869701784327182"><ele>18.0</ele><time>2026-05-02T08:15:20Z</time></trkpt><trkpt lat="40.94935117148151" lon="8.8696281245079"><ele>17.666666666666668</ele><time>2026-05-02T08:15:21Z</time></trkpt><trkpt lat="40.949200464600054" lon="8.869553038050826"><ele>17.333333333333336</ele><time>2026-05-02T08:15:22Z</time></trkpt><trkpt lat="40.949045150277534" lon="8.869475656026143"><ele>17.0</ele><time>2026-05-02T08:15:23Z</time></trkpt><trkpt lat="40.94888205432454" lon="8.86940955082704"><ele>17.0</ele><time>2026-05-02T08:15:24Z</time></trkpt><trkpt lat="40.948725075449914" lon="8.869308502384236"><ele>17.0</ele><time>2026-05-02T08:15:25Z</time></trkpt><trkpt lat="40.948568391083654" lon="8.86919820783769"><ele>17.0</ele><time>2026-05-02T08:15:26Z</time></trkpt><trkpt lat="40.94841277660683" lon="8.869078750656595"><ele>16.0</ele><time>2026-05-02T08:15:27Z</time></trkpt><trkpt lat="40.94825779925884" lon="8.868956407602717"><ele>15.0</ele><time>2026-05-02T08:15:28Z</time></trkpt><trkpt lat="40.94805112560648" lon="8.868998050887289"><ele>14.0</ele><time>2026-05-02T08:15:29Z</time></trkpt><trkpt lat="40.94788369501631" lon="8.868906448496624"><ele>14.0</ele><time>2026-05-02T08:15:30Z</time></trkpt><trkpt lat="40.94771431341687" lon="8.86882396420915"><ele>14.0</ele><time>2026-05-02T08:15:31Z</time></trkpt><trkpt lat="40.94754266433908" lon="8.868739175679693"><ele>14.0</ele><time>2026-05-02T08:15:32Z</time></trkpt><trkpt lat="40.9473638183329" lon="8.868656237439714"><ele>13.0</ele><time>2026-05-02T08:15:33Z</time></trkpt><trkpt lat="40.94719275008545" lon="8.868548807458609"><ele>12.0</ele><time>2026-05-02T08:15:34Z</time></trkpt><trkpt lat="40.94701657521245" lon="8.86846024329884"><ele>11.0</ele><time>2026-05-02T08:15:35Z</time></trkpt><trkpt lat="40.946837645414114" lon="8.86837029422343"><ele>10.333333333333332</ele><time>2026-05-02T08:15:36Z</time></trkpt><trkpt lat="40.94665771690551" lon="8.86830235246688"><ele>9.666666666666666</ele><time>2026-05-02T08:15:37Z</time></trkpt><trkpt lat="40.946484650948186" lon="8.868212905808821"><ele>9.0</ele><time>2026-05-02T08:15:38Z</time></trkpt><trkpt lat="40.9463114589045" lon="8.86812642574387"><ele>9.0</ele><time>2026-05-02T08:15:39Z</time></trkpt><trkpt lat="40.94614295566343" lon="8.86802017212981"><ele>9.0</ele><time>2026-05-02T08:15:40Z</time></trkpt><trkpt lat="40.945971981854505" lon="8.86793392630262"><ele>9.0</ele><time>2026-05-02T08:15:41Z</time></trkpt><trkpt lat="40.94579984163636" lon="8.867870905223132"><ele>9.0</ele><time>2026-05-02T08:15:42Z</time></trkpt><trkpt lat="40.94563195251262" lon="8.867791615324112"><ele>9.0</ele><time>2026-05-02T08:15:43Z</time></trkpt><trkpt lat="40.94546286810222" lon="8.867720100496342"><ele>9.0</ele><time>2026-05-02T08:15:44Z</time></trkpt><trkpt lat="40.94529202025052" lon="8.86766535690138"><ele>9.0</ele><time>2026-05-02T08:15:45Z</time></trkpt><trkpt lat="40.9451203578461" lon="8.86762155339421"><ele>9.0</ele><time>2026-05-02T08:15:46Z</time></trkpt><trkpt lat="40.9449457987469" lon="8.86759324586815"><ele>9.0</ele><time>2026-05-02T08:15:47Z</time></trkpt><trkpt lat="40.944770419339584" lon="8.867584732429542"><ele>8.666666666666666</ele><time>2026-05-02T08:15:48Z</time></trkpt><trkpt lat="40.94459919308464" lon="8.867594447532637"><ele>8.333333333333332</ele><time>2026-05-02T08:15:49Z</time></trkpt><trkpt lat="40.944425365576286" lon="8.867606613122826"><ele>8.0</ele><time>2026-05-02T08:15:50Z</time></trkpt><trkpt lat="40.94425769181924" lon="8.867628398644873"><ele>8.666666666666666</ele><time>2026-05-02T08:15:51Z</time></trkpt><trkpt lat="40.944094509535006" lon="8.867633192988276"><ele>9.333333333333334</ele><time>2026-05-02T08:15:52Z</time></trkpt><trkpt lat="40.94393465237737" lon="8.867633414755588"><ele>10.0</ele><time>2026-05-02T08:15:53Z</time></trkpt><trkpt lat="40.943775633845874" lon="8.867619540433024"><ele>8.666666666666668</ele><time>2026-05-02T08:15:54Z</time></trkpt><trkpt lat="40.943619937671514" lon="8.867562163741999"><ele>7.333333333333334</ele><time>2026-05-02T08:15:55Z</time></trkpt><trkpt lat="40.94345629551934" lon="8.867518588409194"><ele>6.0</ele><time>2026-05-02T08:15:56Z</time></trkpt><trkpt lat="40.943297659716656" lon="8.867435307069856"><ele>5.666666666666667</ele><time>2026-05-02T08:15:57Z</time></trkpt><trkpt lat="40.943145836192905" lon="8.867314042080624"><ele>5.333333333333334</ele><time>2026-05-02T08:15:58Z</time></trkpt><trkpt lat="40.942985286653574" lon="8.867203461062914"><ele>5.0</ele><time>2026-05-02T08:15:59Z</time></trkpt><trkpt lat="40.94282603069038" lon="8.867092397882445"><ele>5.0</ele><time>2026-05-02T08:16:00Z</time></trkpt><trkpt lat="40.94266949054198" lon="8.866983228692472"><ele>5.0</ele><time>2026-05-02T08:16:01Z</time></trkpt><trkpt lat="40.9425141285083" lon="8.866874829851227"><ele>5.0</ele><time>2026-05-02T08:16:02Z</time></trkpt><trkpt lat="40.94236210037585" lon="8.866768756951616"><ele>4.333333333333334</ele><time>2026-05-02T08:16:03Z</time></trkpt><trkpt lat="40.94221065471268" lon="8.866663090424716"><ele>3.666666666666667</ele><time>2026-05-02T08:16:04Z</time></trkpt><trkpt lat="40.94206036282803" lon="8.866559540750723"><ele>3.0</ele><time>2026-05-02T08:16:05Z</time></trkpt><trkpt lat="40.94191208657341" lon="8.866457480096647"><ele>3.0</ele><time>2026-05-02T08:16:06Z</time></trkpt><trkpt lat="40.9417683898946" lon="8.86635857157503"><ele>3.0</ele><time>2026-05-02T08:16:07Z</time></trkpt><trkpt lat="40.9416309103507" lon="8.866264638703589"><ele>3.0</ele><time>2026-05-02T08:16:08Z</time></trkpt><trkpt lat="40.94149805213076" lon="8.866174673463828"><ele>2.75</ele><time>2026-05-02T08:16:09Z</time></trkpt><trkpt lat="40.9413580588416" lon="8.866079876777933"><ele>2.5</ele><time>2026-05-02T08:16:10Z</time></trkpt><trkpt lat="40.94122758829691" lon="8.865991528380874"><ele>2.25</ele><time>2026-05-02T08:16:11Z</time></trkpt><trkpt lat="40.94111088388074" lon="8.86591285200842"><ele>2.0</ele><time>2026-05-02T08:16:12Z</time></trkpt><trkpt lat="40.94100514622118" lon="8.86584197352427"><ele>1.9999999999999998</ele><time>2026-05-02T08:16:13Z</time></trkpt><trkpt lat="40.94090737153446" lon="8.865779645531072"><ele>2.0</ele><time>2026-05-02T08:16:14Z</time></trkpt><trkpt lat="40.94081290773474" lon="8.865743641268036"><ele>2.0</ele><time>2026-05-02T08:16:15Z</time></trkpt><trkpt lat="40.94072956547296" lon="8.865696298061945"><ele>2.0</ele><time>2026-05-02T08:16:16Z</time></trkpt><trkpt lat="40.940664502395215" lon="8.86564177688971"><ele>1.9999999999999998</ele><time>2026-05-02T08:16:17Z</time></trkpt><trkpt lat="40.94060865215136" lon="8.865587113603194"><ele>2.0</ele><time>2026-05-02T08:16:18Z</time></trkpt><trkpt lat="40.940558018622134" lon="8.865515058404418"><ele>1.9999999999999998</ele><time>2026-05-02T08:16:19Z</time></trkpt><trkpt lat="40.940497485958964" lon="8.865437635830029"><ele>2.0</ele><time>2026-05-02T08:16:20Z</time></trkpt><trkpt lat="40.9404296170215" lon="8.865371384877688"><ele>2.0</ele><time>2026-05-02T08:16:21Z</time></trkpt><trkpt lat="40.940345351112164" lon="8.865360493627295"><ele>2.0</ele><time>2026-05-02T08:16:22Z</time></trkpt><trkpt lat="40.940268369859275" lon="8.865377344228087"><ele>1.9999999999999998</ele><time>2026-05-02T08:16:23Z</time></trkpt><trkpt lat="40.940194937274214" lon="8.865419784238144"><ele>2.0</ele><time>2026-05-02T08:16:24Z</time></trkpt><trkpt lat="40.940116902719836" lon="8.865445461401784"><ele>2.0</ele><time>2026-05-02T08:16:25Z</time></trkpt><trkpt lat="40.940028544573934" lon="8.865419734826194"><ele>2.0</ele><time>2026-05-02T08:16:26Z</time></trkpt><trkpt lat="40.93993224456471" lon="8.865350031990124"><ele>2.0</ele><time>2026-05-02T08:16:27Z</time></trkpt><trkpt lat="40.93982392329557" lon="8.865267444702347"><ele>2.0</ele><time>2026-05-02T08:16:28Z</time></trkpt><trkpt lat="40.939703365535024" lon="8.865183196905127"><ele>2.333333333333333</ele><time>2026-05-02T08:16:29Z</time></trkpt><trkpt lat="40.93956458357827" lon="8.865091877449741"><ele>2.6666666666666665</ele><time>2026-05-02T08:16:30Z</time></trkpt><trkpt lat="40.93941588513386" lon="8.864997633458835"><ele>3.0</ele><time>2026-05-02T08:16:31Z</time></trkpt><trkpt lat="40.93925660083386" lon="8.864892142453005"><ele>3.0</ele><time>2026-05-02T08:16:32Z</time></trkpt><trkpt lat="40.93909188929729" lon="8.864779197985"><ele>3.0</ele><time>2026-05-02T08:16:33Z</time></trkpt><trkpt lat="40.938922937989226" lon="8.864664053365745"><ele>3.0</ele><time>2026-05-02T08:16:34Z</time></trkpt><trkpt lat="40.93876564054161" lon="8.86455486343512"><ele>3.0</ele><time>2026-05-02T08:16:35Z</time></trkpt><trkpt lat="40.9386239877393" lon="8.864454176340988"><ele>3.0</ele><time>2026-05-02T08:16:36Z</time></trkpt><trkpt lat="40.93849137844929" lon="8.864364342959501"><ele>3.0</ele><time>2026-05-02T08:16:37Z</time></trkpt><trkpt lat="40.93836614239114" lon="8.864281567624168"><ele>2.5</ele><time>2026-05-02T08:16:38Z</time></trkpt><trkpt lat="40.93824973280603" lon="8.864201931121865"><ele>2.0</ele><time>2026-05-02T08:16:39Z</time></trkpt><trkpt lat="40.938136489693825" lon="8.864123794258527"><ele>1.5</ele><time>2026-05-02T08:16:40Z</time></trkpt><trkpt lat="40.93800407239238" lon="8.864033072595173"><ele>1.0</ele><time>2026-05-02T08:16:41Z</time></trkpt><trkpt lat="40.93785682565709" lon="8.863935455319643"><ele>1.0</ele><time>2026-05-02T08:16:42Z</time></trkpt><trkpt lat="40.93769753569901" lon="8.86382903173237"><ele>1.0</ele><time>2026-05-02T08:16:43Z</time></trkpt><trkpt lat="40.93752885001534" lon="8.863715192673187"><ele>1.0</ele><time>2026-05-02T08:16:44Z</time></trkpt><trkpt lat="40.93734952045079" lon="8.863594532937785"><ele>2.0</ele><time>2026-05-02T08:16:45Z</time></trkpt><trkpt lat="40.93717463132032" lon="8.863476496473673"><ele>3.0</ele><time>2026-05-02T08:16:46Z</time></trkpt><trkpt lat="40.93700835142292" lon="8.863360201852085"><ele>4.0</ele><time>2026-05-02T08:16:47Z</time></trkpt><trkpt lat="40.93684318758049" lon="8.863246870403072"><ele>7.0</ele><time>2026-05-02T08:16:48Z</time></trkpt><trkpt lat="40.936678037349964" lon="8.863136594094662"><ele>10.0</ele><time>2026-05-02T08:16:49Z</time></trkpt><trkpt lat="40.93651159271814" lon="8.863028226572085"><ele>13.0</ele><time>2026-05-02T08:16:50Z</time></trkpt><trkpt lat="40.936346331567655" lon="8.862917508809101"><ele>13.0</ele><time>2026-05-02T08:16:51Z</time></trkpt><trkpt lat="40.936189641621276" lon="8.862787626508505"><ele>13.0</ele><time>2026-05-02T08:16:52Z</time></trkpt><trkpt lat="40.936019922401634" lon="8.862693825705163"><ele>13.0</ele><time>2026-05-02T08:16:53Z</time></trkpt><trkpt lat="40.93585845798957" lon="8.862580599479882"><ele>13.0</ele><time>2026-05-02T08:16:54Z</time></trkpt><trkpt lat="40.935697450069824" lon="8.862467897012797"><ele>13.0</ele><time>2026-05-02T08:16:55Z</time></trkpt><trkpt lat="40.93553783405735" lon="8.862356704164286"><ele>13.0</ele><time>2026-05-02T08:16:56Z</time></trkpt><trkpt lat="40.93537856545438" lon="8.86224620806943"><ele>13.0</ele><time>2026-05-02T08:16:57Z</time></trkpt><trkpt lat="40.93521817014393" lon="8.862138881461295"><ele>13.0</ele><time>2026-05-02T08:16:58Z</time></trkpt><trkpt lat="40.935058341226075" lon="8.86202921805305"><ele>13.0</ele><time>2026-05-02T08:16:59Z</time></trkpt><trkpt lat="40.93489454488322" lon="8.86192367408081"><ele>14.333333333333332</ele><time>2026-05-02T08:17:00Z</time></trkpt><trkpt lat="40.93472266709492" lon="8.861812149759249"><ele>15.666666666666668</ele><time>2026-05-02T08:17:01Z</time></trkpt><trkpt lat="40.93454187280737" lon="8.86169044051817"><ele>17.0</ele><time>2026-05-02T08:17:02Z</time></trkpt><trkpt lat="40.93435640331028" lon="8.861561832665592"><ele>15.666666666666668</ele><time>2026-05-02T08:17:03Z</time></trkpt><trkpt lat="40.934169309832036" lon="8.861432271318778"><ele>14.333333333333332</ele><time>2026-05-02T08:17:04Z</time></trkpt><trkpt lat="40.93398184089692" lon="8.861305182939681"><ele>13.0</ele><time>2026-05-02T08:17:05Z</time></trkpt><trkpt lat="40.933792742146494" lon="8.861179698559502"><ele>13.0</ele><time>2026-05-02T08:17:06Z</time></trkpt><trkpt lat="40.933601221089944" lon="8.861060024433018"><ele>13.0</ele><time>2026-05-02T08:17:07Z</time></trkpt><trkpt lat="40.93340306701613" lon="8.860947021970826"><ele>13.0</ele><time>2026-05-02T08:17:08Z</time></trkpt><trkpt lat="40.93319652153807" lon="8.86084078529273"><ele>11.0</ele><time>2026-05-02T08:17:09Z</time></trkpt><trkpt lat="40.932985014676255" lon="8.860745092798535"><ele>9.0</ele><time>2026-05-02T08:17:10Z</time></trkpt><trkpt lat="40.93277727760453" lon="8.860626779135153"><ele>9.0</ele><time>2026-05-02T08:17:11Z</time></trkpt><trkpt lat="40.932567486875136" lon="8.86052810817607"><ele>9.0</ele><time>2026-05-02T08:17:12Z</time></trkpt><trkpt lat="40.932377829303434" lon="8.860438906443443"><ele>9.0</ele><time>2026-05-02T08:17:13Z</time></trkpt><trkpt lat="40.932191255549455" lon="8.860376292323187"><ele>7.333333333333333</ele><time>2026-05-02T08:17:14Z</time></trkpt><trkpt lat="40.93201086467215" lon="8.86028890583232"><ele>5.666666666666666</ele><time>2026-05-02T08:17:15Z</time></trkpt><trkpt lat="40.93182768117132" lon="8.860198821517562"><ele>4.0</ele><time>2026-05-02T08:17:16Z</time></trkpt><trkpt lat="40.93164428019946" lon="8.86010624512337"><ele>4.0</ele><time>2026-05-02T08:17:17Z</time></trkpt><trkpt lat="40.93147247863573" lon="8.859985414516348"><ele>4.0</ele><time>2026-05-02T08:17:18Z</time></trkpt><trkpt lat="40.93129919864051" lon="8.859870810385074"><ele>4.0</ele><time>2026-05-02T08:17:19Z</time></trkpt><trkpt lat="40.93112674322213" lon="8.859752125021958"><ele>4.0</ele><time>2026-05-02T08:17:20Z</time></trkpt><trkpt lat="40.930960619668376" lon="8.859632468203003"><ele>4.0</ele><time>2026-05-02T08:17:21Z</time></trkpt><trkpt lat="40.93080374994998" lon="8.859501854774845"><ele>4.0</ele><time>2026-05-02T08:17:22Z</time></trkpt><trkpt lat="40.93065096797262" lon="8.859369402130405"><ele>3.333333333333333</ele><time>2026-05-02T08:17:23Z</time></trkpt><trkpt lat="40.930503300027596" lon="8.85922918620924"><ele>2.6666666666666665</ele><time>2026-05-02T08:17:24Z</time></trkpt><trkpt lat="40.93036265415807" lon="8.859079782797856"><ele>2.0</ele><time>2026-05-02T08:17:25Z</time></trkpt><trkpt lat="40.93022233480591" lon="8.85892964399158"><ele>2.0</ele><time>2026-05-02T08:17:26Z</time></trkpt><trkpt lat="40.93007971791918" lon="8.858773730683051"><ele>2.0</ele><time>2026-05-02T08:17:27Z</time></trkpt><trkpt lat="40.929950265677874" lon="8.858614905407906"><ele>2.0</ele><time>2026-05-02T08:17:28Z</time></trkpt><trkpt lat="40.92982272459232" lon="8.858446321796494"><ele>2.0</ele><time>2026-05-02T08:17:29Z</time></trkpt><trkpt lat="40.929700493841736" lon="8.85826758338057"><ele>2.0</ele><time>2026-05-02T08:17:30Z</time></trkpt><trkpt lat="40.929579378539984" lon="8.858084637746572"><ele>2.0</ele><time>2026-05-02T08:17:31Z</time></trkpt><trkpt lat="40.92946042897873" lon="8.857899511051944"><ele>2.0</ele><time>2026-05-02T08:17:32Z</time></trkpt><trkpt lat="40.929339974384206" lon="8.857710772436763"><ele>2.0</ele><time>2026-05-02T08:17:33Z</time></trkpt><trkpt lat="40.929205991245865" lon="8.85753390030221"><ele>2.0</ele><time>2026-05-02T08:17:34Z</time></trkpt><trkpt lat="40.92908340359986" lon="8.857340578086504"><ele>2.6666666666666665</ele><time>2026-05-02T08:17:35Z</time></trkpt><trkpt lat="40.92895707061474" lon="8.857144323234317"><ele>3.333333333333333</ele><time>2026-05-02T08:17:36Z</time></trkpt><trkpt lat="40.92882954078937" lon="8.856945228463644"><ele>4.0</ele><time>2026-05-02T08:17:37Z</time></trkpt><trkpt lat="40.9286997708373" lon="8.856745203397823"><ele>4.0</ele><time>2026-05-02T08:17:38Z</time></trkpt><trkpt lat="40.9285687620981" lon="8.856540724351248"><ele>4.0</ele><time>2026-05-02T08:17:39Z</time></trkpt><trkpt lat="40.92843467175389" lon="8.856338489225838"><ele>4.0</ele><time>2026-05-02T08:17:40Z</time></trkpt><trkpt lat="40.92830132844991" lon="8.856129954265441"><ele>4.0</ele><time>2026-05-02T08:17:41Z</time></trkpt><trkpt lat="40.928168995787125" lon="8.85591994988811"><ele>4.0</ele><time>2026-05-02T08:17:42Z</time></trkpt><trkpt lat="40.9280358175024" lon="8.855707505542572"><ele>4.0</ele><time>2026-05-02T08:17:43Z</time></trkpt><trkpt lat="40.92790052044348" lon="8.855494553032871"><ele>4.0</ele><time>2026-05-02T08:17:44Z</time></trkpt><trkpt lat="40.92776518524837" lon="8.855283274097113"><ele>4.0</ele><time>2026-05-02T08:17:45Z</time></trkpt><trkpt lat="40.92762728483338" lon="8.855072794077273"><ele>4.0</ele><time>2026-05-02T08:17:46Z</time></trkpt><trkpt lat="40.92749041555618" lon="8.854859984057128"><ele>4.0</ele><time>2026-05-02T08:17:47Z</time></trkpt><trkpt lat="40.92735215867923" lon="8.854646806251974"><ele>4.0</ele><time>2026-05-02T08:17:48Z</time></trkpt><trkpt lat="40.92721605361234" lon="8.854429320981026"><ele>4.0</ele><time>2026-05-02T08:17:49Z</time></trkpt><trkpt lat="40.92707824827245" lon="8.854216202264315"><ele>3.6666666666666665</ele><time>2026-05-02T08:17:50Z</time></trkpt><trkpt lat="40.92694063781336" lon="8.853999377226238"><ele>3.333333333333333</ele><time>2026-05-02T08:17:51Z</time></trkpt><trkpt lat="40.92680256178863" lon="8.853785216251675"><ele>3.0</ele><time>2026-05-02T08:17:52Z</time></trkpt><trkpt lat="40.92666369802021" lon="8.853571485290773"><ele>3.0</ele><time>2026-05-02T08:17:53Z</time></trkpt><trkpt lat="40.92652588306154" lon="8.853358485672633"><ele>3.0</ele><time>2026-05-02T08:17:54Z</time></trkpt><trkpt lat="40.92638851415086" lon="8.853144908254565"><ele>3.0</ele><time>2026-05-02T08:17:55Z</time></trkpt><trkpt lat="40.926253203227375" lon="8.852932952816875"><ele>3.0</ele><time>2026-05-02T08:17:56Z</time></trkpt><trkpt lat="40.92611836629191" lon="8.852723186068628"><ele>3.0</ele><time>2026-05-02T08:17:57Z</time></trkpt><trkpt lat="40.92598938423334" lon="8.852522302214357"><ele>3.0</ele><time>2026-05-02T08:17:58Z</time></trkpt><trkpt lat="40.92586424396215" lon="8.852327652549965"><ele>3.0</ele><time>2026-05-02T08:17:59Z</time></trkpt><trkpt lat="40.92573639647293" lon="8.852129943331454"><ele>3.0</ele><time>2026-05-02T08:18:00Z</time></trkpt><trkpt lat="40.92560666466893" lon="8.851931733655872"><ele>3.0</ele><time>2026-05-02T08:18:01Z</time></trkpt><trkpt lat="40.92547592600063" lon="8.851727031234304"><ele>3.0</ele><time>2026-05-02T08:18:02Z</time></trkpt><trkpt lat="40.92535674998423" lon="8.85150906678547"><ele>3.0</ele><time>2026-05-02T08:18:03Z</time></trkpt><trkpt lat="40.925223718298305" lon="8.851300989921791"><ele>3.0</ele><time>2026-05-02T08:18:04Z</time></trkpt><trkpt lat="40.92509012368125" lon="8.851092032426184"><ele>3.333333333333333</ele><time>2026-05-02T08:18:05Z</time></trkpt><trkpt lat="40.9249565542339" lon="8.850883114463702"><ele>3.6666666666666665</ele><time>2026-05-02T08:18:06Z</time></trkpt><trkpt lat="40.92482405536741" lon="8.8506761111086"><ele>4.0</ele><time>2026-05-02T08:18:07Z</time></trkpt><trkpt lat="40.92467865346353" lon="8.850482797879831"><ele>4.0</ele><time>2026-05-02T08:18:08Z</time></trkpt><trkpt lat="40.92454692406119" lon="8.850273676702464"><ele>4.0</ele><time>2026-05-02T08:18:09Z</time></trkpt><trkpt lat="40.92441553205734" lon="8.850064658766465"><ele>4.0</ele><time>2026-05-02T08:18:10Z</time></trkpt><trkpt lat="40.924283253161605" lon="8.849857109518505"><ele>4.333333333333333</ele><time>2026-05-02T08:18:11Z</time></trkpt><trkpt lat="40.924151344691595" lon="8.849648961580689"><ele>4.666666666666667</ele><time>2026-05-02T08:18:12Z</time></trkpt><trkpt lat="40.92401804315871" lon="8.849443319677814"><ele>5.0</ele><time>2026-05-02T08:18:13Z</time></trkpt><trkpt lat="40.92388508900368" lon="8.849239715515738"><ele>4.333333333333334</ele><time>2026-05-02T08:18:14Z</time></trkpt><trkpt lat="40.923753338698624" lon="8.849035656454621"><ele>3.666666666666667</ele><time>2026-05-02T08:18:15Z</time></trkpt><trkpt lat="40.92362241468779" lon="8.84883295775574"><ele>3.0</ele><time>2026-05-02T08:18:16Z</time></trkpt><trkpt lat="40.92350449954447" lon="8.848615725787262"><ele>3.0</ele><time>2026-05-02T08:18:17Z</time></trkpt><trkpt lat="40.92337387201677" lon="8.848412270990217"><ele>3.0</ele><time>2026-05-02T08:18:18Z</time></trkpt><trkpt lat="40.923231789681566" lon="8.848223635105468"><ele>3.0</ele><time>2026-05-02T08:18:19Z</time></trkpt><trkpt lat="40.9231033290118" lon="8.848018851641484"><ele>3.0</ele><time>2026-05-02T08:18:20Z</time></trkpt><trkpt lat="40.922975183914595" lon="8.847814743874258"><ele>3.0</ele><time>2026-05-02T08:18:21Z</time></trkpt><trkpt lat="40.92284562322602" lon="8.847614029852684"><ele>3.0</ele><time>2026-05-02T08:18:22Z</time></trkpt><trkpt lat="40.922716085431134" lon="8.847414538349893"><ele>3.0</ele><time>2026-05-02T08:18:23Z</time></trkpt><trkpt lat="40.922586793978205" lon="8.8472130443855"><ele>3.0</ele><time>2026-05-02T08:18:24Z</time></trkpt><trkpt lat="40.92245615232573" lon="8.84701206711044"><ele>3.0</ele><time>2026-05-02T08:18:25Z</time></trkpt><trkpt lat="40.922326703148855" lon="8.846809681674939"><ele>3.0</ele><time>2026-05-02T08:18:26Z</time></trkpt><trkpt lat="40.92219767309002" lon="8.84660897562772"><ele>3.0</ele><time>2026-05-02T08:18:27Z</time></trkpt><trkpt lat="40.92206639811726" lon="8.846407071216408"><ele>3.0</ele><time>2026-05-02T08:18:28Z</time></trkpt><trkpt lat="40.92193412671527" lon="8.846201557073016"><ele>3.0</ele><time>2026-05-02T08:18:29Z</time></trkpt><trkpt lat="40.92180164795811" lon="8.845995025736007"><ele>3.0</ele><time>2026-05-02T08:18:30Z</time></trkpt><trkpt lat="40.92166927965438" lon="8.845791974392062"><ele>3.0</ele><time>2026-05-02T08:18:31Z</time></trkpt><trkpt lat="40.92153809429731" lon="8.845588481964334"><ele>3.0</ele><time>2026-05-02T08:18:32Z</time></trkpt><trkpt lat="40.92140880904847" lon="8.845385169259853"><ele>3.0</ele><time>2026-05-02T08:18:33Z</time></trkpt><trkpt lat="40.92128120684661" lon="8.845182484504928"><ele>3.0</ele><time>2026-05-02T08:18:34Z</time></trkpt><trkpt lat="40.92115186555764" lon="8.844979641627411"><ele>3.0</ele><time>2026-05-02T08:18:35Z</time></trkpt><trkpt lat="40.921022487764624" lon="8.844776494388185"><ele>3.0</ele><time>2026-05-02T08:18:36Z</time></trkpt><trkpt lat="40.92089184886474" lon="8.844569896018557"><ele>3.0</ele><time>2026-05-02T08:18:37Z</time></trkpt><trkpt lat="40.92076153139024" lon="8.844364352321454"><ele>3.333333333333333</ele><time>2026-05-02T08:18:38Z</time></trkpt><trkpt lat="40.92063248550255" lon="8.844159020728858"><ele>3.6666666666666665</ele><time>2026-05-02T08:18:39Z</time></trkpt><trkpt lat="40.9205074346683" lon="8.843952272058397"><ele>4.0</ele><time>2026-05-02T08:18:40Z</time></trkpt><trkpt lat="40.920388508660515" lon="8.8437426647257"><ele>4.0</ele><time>2026-05-02T08:18:41Z</time></trkpt><trkpt lat="40.920277414793965" lon="8.843527937849549"><ele>4.0</ele><time>2026-05-02T08:18:42Z</time></trkpt><trkpt lat="40.920173805574315" lon="8.843316613989156"><ele>4.0</ele><time>2026-05-02T08:18:43Z</time></trkpt><trkpt lat="40.920076602146" lon="8.843099325986376"><ele>4.0</ele><time>2026-05-02T08:18:44Z</time></trkpt><trkpt lat="40.919982718857874" lon="8.84287953514498"><ele>4.0</ele><time>2026-05-02T08:18:45Z</time></trkpt><trkpt lat="40.91989152852146" lon="8.842655474007879"><ele>4.0</ele><time>2026-05-02T08:18:46Z</time></trkpt><trkpt lat="40.91980338403232" lon="8.842427623743195"><ele>4.0</ele><time>2026-05-02T08:18:47Z</time></trkpt><trkpt lat="40.91972003006302" lon="8.842197288193562"><ele>4.0</ele><time>2026-05-02T08:18:48Z</time></trkpt><trkpt lat="40.919640502561265" lon="8.841966030456444"><ele>4.0</ele><time>2026-05-02T08:18:49Z</time></trkpt><trkpt lat="40.91956003366806" lon="8.841737761166176"><ele>4.666666666666666</ele><time>2026-05-02T08:18:50Z</time></trkpt><trkpt lat="40.91948071281624" lon="8.841508547586951"><ele>5.333333333333333</ele><time>2026-05-02T08:18:51Z</time></trkpt><trkpt lat="40.919400619784" lon="8.841277867450241"><ele>6.0</ele><time>2026-05-02T08:18:52Z</time></trkpt><trkpt lat="40.91931993068046" lon="8.841045912518155"><ele>6.333333333333334</ele><time>2026-05-02T08:18:53Z</time></trkpt><trkpt lat="40.91924136963784" lon="8.840817721248376"><ele>6.666666666666667</ele><time>2026-05-02T08:18:54Z</time></trkpt><trkpt lat="40.919162045478345" lon="8.840586108632593"><ele>7.0</ele><time>2026-05-02T08:18:55Z</time></trkpt><trkpt lat="40.91908283056198" lon="8.840350371524497"><ele>10.333333333333334</ele><time>2026-05-02T08:18:56Z</time></trkpt><trkpt lat="40.919003529195976" lon="8.840106816891767"><ele>13.666666666666668</ele><time>2026-05-02T08:18:57Z</time></trkpt><trkpt lat="40.9189215261468" lon="8.839860160800983"><ele>17.0</ele><time>2026-05-02T08:18:58Z</time></trkpt><trkpt lat="40.91883909007629" lon="8.839615137839575"><ele>17.0</ele><time>2026-05-02T08:18:59Z</time></trkpt><trkpt lat="40.918756478983205" lon="8.839370828868699"><ele>17.0</ele><time>2026-05-02T08:19:00Z</time></trkpt><trkpt lat="40.91867322622297" lon="8.83912763900225"><ele>17.0</ele><time>2026-05-02T08:19:01Z</time></trkpt><trkpt lat="40.918590322378016" lon="8.838881766929088"><ele>17.0</ele><time>2026-05-02T08:19:02Z</time></trkpt><trkpt lat="40.91850434187524" lon="8.838630741217392"><ele>17.0</ele><time>2026-05-02T08:19:03Z</time></trkpt><trkpt lat="40.918417135473995" lon="8.838377918859775"><ele>17.0</ele><time>2026-05-02T08:19:04Z</time></trkpt><trkpt lat="40.918329801365765" lon="8.838120695646992"><ele>20.333333333333336</ele><time>2026-05-02T08:19:05Z</time></trkpt><trkpt lat="40.9182424091534" lon="8.83786629440328"><ele>23.666666666666668</ele><time>2026-05-02T08:19:06Z</time></trkpt><trkpt lat="40.91815534493228" lon="8.837608964697024"><ele>27.0</ele><time>2026-05-02T08:19:07Z</time></trkpt><trkpt lat="40.918077288327595" lon="8.837345270732827"><ele>27.333333333333336</ele><time>2026-05-02T08:19:08Z</time></trkpt><trkpt lat="40.91797126072273" lon="8.837093100360333"><ele>27.666666666666668</ele><time>2026-05-02T08:19:09Z</time></trkpt><trkpt lat="40.91786256110204" lon="8.83684411313203"><ele>28.0</ele><time>2026-05-02T08:19:10Z</time></trkpt><trkpt lat="40.91777496478193" lon="8.836588832978135"><ele>28.0</ele><time>2026-05-02T08:19:11Z</time></trkpt><trkpt lat="40.917707852195655" lon="8.836318850784075"><ele>28.0</ele><time>2026-05-02T08:19:12Z</time></trkpt><trkpt lat="40.91761489340655" lon="8.836057122718108"><ele>28.0</ele><time>2026-05-02T08:19:13Z</time></trkpt><trkpt lat="40.9175190686503" lon="8.83579775865743"><ele>30.666666666666668</ele><time>2026-05-02T08:19:14Z</time></trkpt><trkpt lat="40.91741980870784" lon="8.835542144006013"><ele>33.333333333333336</ele><time>2026-05-02T08:19:15Z</time></trkpt><trkpt lat="40.917315990345145" lon="8.83528675439146"><ele>36.0</ele><time>2026-05-02T08:19:16Z</time></trkpt><trkpt lat="40.917207762359766" lon="8.835030709701458"><ele>37.5</ele><time>2026-05-02T08:19:17Z</time></trkpt><trkpt lat="40.91709795469404" lon="8.834772635721198"><ele>39.0</ele><time>2026-05-02T08:19:18Z</time></trkpt><trkpt lat="40.91705965656531" lon="8.834472391219137"><ele>39.0</ele><time>2026-05-02T08:19:19Z</time></trkpt><trkpt lat="40.91697352613966" lon="8.834203303376787"><ele>39.0</ele><time>2026-05-02T08:19:20Z</time></trkpt><trkpt lat="40.916895336321055" lon="8.833936343354477"><ele>39.0</ele><time>2026-05-02T08:19:21Z</time></trkpt><trkpt lat="40.91682078659444" lon="8.833673360554474"><ele>39.666666666666664</ele><time>2026-05-02T08:19:22Z</time></trkpt><trkpt lat="40.916739407432004" lon="8.833423844718324"><ele>40.33333333333333</ele><time>2026-05-02T08:19:23Z</time></trkpt><trkpt lat="40.916636384512046" lon="8.833187808398542"><ele>41.0</ele><time>2026-05-02T08:19:24Z</time></trkpt><trkpt lat="40.916545613039126" lon="8.832932704683452"><ele>42.0</ele><time>2026-05-02T08:19:25Z</time></trkpt><trkpt lat="40.91645442031683" lon="8.832673362213441"><ele>43.0</ele><time>2026-05-02T08:19:26Z</time></trkpt><trkpt lat="40.91635309514935" lon="8.832415455148281"><ele>44.0</ele><time>2026-05-02T08:19:27Z</time></trkpt><trkpt lat="40.916245943359705" lon="8.832160604676474"><ele>44.0</ele><time>2026-05-02T08:19:28Z</time></trkpt><trkpt lat="40.916133679349294" lon="8.831911005670456"><ele>44.0</ele><time>2026-05-02T08:19:29Z</time></trkpt><trkpt lat="40.91602613535381" lon="8.831659120564789"><ele>44.0</ele><time>2026-05-02T08:19:30Z</time></trkpt><trkpt lat="40.91590718922913" lon="8.831414874039258"><ele>44.0</ele><time>2026-05-02T08:19:31Z</time></trkpt><trkpt lat="40.91592226244052" lon="8.831109408456628"><ele>44.0</ele><time>2026-05-02T08:19:32Z</time></trkpt><trkpt lat="40.91583622183695" lon="8.83085281598442"><ele>44.0</ele><time>2026-05-02T08:19:33Z</time></trkpt><trkpt lat="40.91575013433556" lon="8.83059288334696"><ele>45.666666666666664</ele><time>2026-05-02T08:19:34Z</time></trkpt><trkpt lat="40.915659989389006" lon="8.830328050135705"><ele>47.33333333333333</ele><time>2026-05-02T08:19:35Z</time></trkpt><trkpt lat="40.915568341502976" lon="8.830060671369708"><ele>49.0</ele><time>2026-05-02T08:19:36Z</time></trkpt><trkpt lat="40.91547568009904" lon="8.829791021837098"><ele>49.0</ele><time>2026-05-02T08:19:37Z</time></trkpt><trkpt lat="40.915383937505645" lon="8.829516552494136"><ele>49.0</ele><time>2026-05-02T08:19:38Z</time></trkpt><trkpt lat="40.9152886473573" lon="8.82923633277516"><ele>50.5</ele><time>2026-05-02T08:19:39Z</time></trkpt><trkpt lat="40.91519613299451" lon="8.828959855157136"><ele>52.0</ele><time>2026-05-02T08:19:40Z</time></trkpt><trkpt lat="40.91509898678588" lon="8.82869034220547"><ele>53.0</ele><time>2026-05-02T08:19:41Z</time></trkpt><trkpt lat="40.915007133035196" lon="8.82842178880372"><ele>54.0</ele><time>2026-05-02T08:19:42Z</time></trkpt><trkpt lat="40.91491809733049" lon="8.828147146634397"><ele>55.0</ele><time>2026-05-02T08:19:43Z</time></trkpt><trkpt lat="40.914827782890576" lon="8.827876803382837"><ele>54.0</ele><time>2026-05-02T08:19:44Z</time></trkpt><trkpt lat="40.91473922564576" lon="8.827615484464141"><ele>53.0</ele><time>2026-05-02T08:19:45Z</time></trkpt><trkpt lat="40.9146507591252" lon="8.827359193603092"><ele>52.0</ele><time>2026-05-02T08:19:46Z</time></trkpt><trkpt lat="40.91456175775731" lon="8.827107802770838"><ele>52.0</ele><time>2026-05-02T08:19:47Z</time></trkpt><trkpt lat="40.91447256134541" lon="8.826851567336229"><ele>52.0</ele><time>2026-05-02T08:19:48Z</time></trkpt><trkpt lat="40.91438299275477" lon="8.826595306793225"><ele>52.0</ele><time>2026-05-02T08:19:49Z</time></trkpt><trkpt lat="40.9142931968091" lon="8.826337694982264"><ele>44.33333333333333</ele><time>2026-05-02T08:19:50Z</time></trkpt><trkpt lat="40.914200992522545" lon="8.826084019755704"><ele>36.666666666666664</ele><time>2026-05-02T08:19:51Z</time></trkpt><trkpt lat="40.91410865588508" lon="8.825824644416894"><ele>29.0</ele><time>2026-05-02T08:19:52Z</time></trkpt><trkpt lat="40.91402052179571" lon="8.825565584052496"><ele>26.666666666666664</ele><time>2026-05-02T08:19:53Z</time></trkpt><trkpt lat="40.91393674168415" lon="8.825303843535865"><ele>24.333333333333332</ele><time>2026-05-02T08:19:54Z</time></trkpt><trkpt lat="40.91384861812552" lon="8.825045071793705"><ele>22.0</ele><time>2026-05-02T08:19:55Z</time></trkpt><trkpt lat="40.91375766463573" lon="8.824784970598381"><ele>21.333333333333332</ele><time>2026-05-02T08:19:56Z</time></trkpt><trkpt lat="40.91366621355311" lon="8.824519259364493"><ele>20.666666666666668</ele><time>2026-05-02T08:19:57Z</time></trkpt><trkpt lat="40.91357381066554" lon="8.824254446547307"><ele>20.0</ele><time>2026-05-02T08:19:58Z</time></trkpt><trkpt lat="40.913480590899375" lon="8.823985374778891"><ele>22.0</ele><time>2026-05-02T08:19:59Z</time></trkpt><trkpt lat="40.91338660639524" lon="8.823717741258008"><ele>24.0</ele><time>2026-05-02T08:20:00Z</time></trkpt><trkpt lat="40.91329408711451" lon="8.823442474327283"><ele>24.333333333333336</ele><time>2026-05-02T08:20:01Z</time></trkpt><trkpt lat="40.91320172676525" lon="8.82317231454968"><ele>24.666666666666668</ele><time>2026-05-02T08:20:02Z</time></trkpt><trkpt lat="40.91310941343922" lon="8.822902557014038"><ele>25.0</ele><time>2026-05-02T08:20:03Z</time></trkpt><trkpt lat="40.913015516075106" lon="8.82263408455208"><ele>25.0</ele><time>2026-05-02T08:20:04Z</time></trkpt><trkpt lat="40.91292325868057" lon="8.822367469670317"><ele>25.0</ele><time>2026-05-02T08:20:05Z</time></trkpt><trkpt lat="40.912832271052174" lon="8.822101377120319"><ele>25.0</ele><time>2026-05-02T08:20:06Z</time></trkpt><trkpt lat="40.9127419197374" lon="8.821835967149166"><ele>26.0</ele><time>2026-05-02T08:20:07Z</time></trkpt><trkpt lat="40.91265151830927" lon="8.821570700493071"><ele>27.0</ele><time>2026-05-02T08:20:08Z</time></trkpt><trkpt lat="40.91255926245519" lon="8.821301989176497"><ele>28.0</ele><time>2026-05-02T08:20:09Z</time></trkpt><trkpt lat="40.91246572359682" lon="8.821028028714162"><ele>35.5</ele><time>2026-05-02T08:20:10Z</time></trkpt><trkpt lat="40.912370992450725" lon="8.820752474350614"><ele>43.0</ele><time>2026-05-02T08:20:11Z</time></trkpt><trkpt lat="40.912276309025195" lon="8.820475799485745"><ele>43.0</ele><time>2026-05-02T08:20:12Z</time></trkpt><trkpt lat="40.91218085036628" lon="8.820198499220849"><ele>43.0</ele><time>2026-05-02T08:20:13Z</time></trkpt><trkpt lat="40.91208454479414" lon="8.819920582510305"><ele>43.5</ele><time>2026-05-02T08:20:14Z</time></trkpt><trkpt lat="40.91199237744853" lon="8.81964162866214"><ele>44.0</ele><time>2026-05-02T08:20:15Z</time></trkpt><trkpt lat="40.91189001316814" lon="8.819354099216676"><ele>44.5</ele><time>2026-05-02T08:20:16Z</time></trkpt><trkpt lat="40.911793686592404" lon="8.819064884961167"><ele>45.0</ele><time>2026-05-02T08:20:17Z</time></trkpt><trkpt lat="40.91169618422361" lon="8.818774853090382"><ele>47.0</ele><time>2026-05-02T08:20:18Z</time></trkpt><trkpt lat="40.911599231919816" lon="8.818490782571144"><ele>49.0</ele><time>2026-05-02T08:20:19Z</time></trkpt><trkpt lat="40.91149842851201" lon="8.81821623596595"><ele>49.0</ele><time>2026-05-02T08:20:20Z</time></trkpt><trkpt lat="40.911395458363536" lon="8.817948118730769"><ele>49.0</ele><time>2026-05-02T08:20:21Z</time></trkpt><trkpt lat="40.911287635723134" lon="8.817680597529296"><ele>49.0</ele><time>2026-05-02T08:20:22Z</time></trkpt><trkpt lat="40.911173915990275" lon="8.817418160896851"><ele>49.0</ele><time>2026-05-02T08:20:23Z</time></trkpt><trkpt lat="40.911054107928294" lon="8.81715845347077"><ele>49.0</ele><time>2026-05-02T08:20:24Z</time></trkpt><trkpt lat="40.910930668207996" lon="8.81690366917215"><ele>49.0</ele><time>2026-05-02T08:20:25Z</time></trkpt><trkpt lat="40.91081077938775" lon="8.816659830586271"><ele>49.0</ele><time>2026-05-02T08:20:26Z</time></trkpt><trkpt lat="40.910696692017595" lon="8.816425643953428"><ele>48.666666666666664</ele><time>2026-05-02T08:20:27Z</time></trkpt><trkpt lat="40.910580523601325" lon="8.816182033923043"><ele>48.33333333333333</ele><time>2026-05-02T08:20:28Z</time></trkpt><trkpt lat="40.91046193703546" lon="8.815934937768091"><ele>48.0</ele><time>2026-05-02T08:20:29Z</time></trkpt><trkpt lat="40.91034125309504" lon="8.815696427160928"><ele>49.66666666666667</ele><time>2026-05-02T08:20:30Z</time></trkpt><trkpt lat="40.91022212106742" lon="8.815451374733135"><ele>51.333333333333336</ele><time>2026-05-02T08:20:31Z</time></trkpt><trkpt lat="40.910105072011895" lon="8.815213910154855"><ele>53.0</ele><time>2026-05-02T08:20:32Z</time></trkpt><trkpt lat="40.9099917247032" lon="8.81497556545057"><ele>54.333333333333336</ele><time>2026-05-02T08:20:33Z</time></trkpt><trkpt lat="40.90987409643085" lon="8.814743893772134"><ele>55.66666666666667</ele><time>2026-05-02T08:20:34Z</time></trkpt><trkpt lat="40.9097614593322" lon="8.814513072878452"><ele>57.0</ele><time>2026-05-02T08:20:35Z</time></trkpt><trkpt lat="40.90965348916617" lon="8.814283616930139"><ele>57.33333333333333</ele><time>2026-05-02T08:20:36Z</time></trkpt><trkpt lat="40.90954180279008" lon="8.814052974797894"><ele>57.666666666666664</ele><time>2026-05-02T08:20:37Z</time></trkpt><trkpt lat="40.90942985979018" lon="8.813817355323001"><ele>58.0</ele><time>2026-05-02T08:20:38Z</time></trkpt><trkpt lat="40.909313796243765" lon="8.813578810181806"><ele>60.0</ele><time>2026-05-02T08:20:39Z</time></trkpt><trkpt lat="40.9091990389526" lon="8.813339237190984"><ele>62.0</ele><time>2026-05-02T08:20:40Z</time></trkpt><trkpt lat="40.90908075555465" lon="8.813104558844287"><ele>64.0</ele><time>2026-05-02T08:20:41Z</time></trkpt><trkpt lat="40.90896412204438" lon="8.812866446880873"><ele>65.0</ele><time>2026-05-02T08:20:42Z</time></trkpt><trkpt lat="40.90884877340664" lon="8.812632555570122"><ele>66.0</ele><time>2026-05-02T08:20:43Z</time></trkpt><trkpt lat="40.908739391624785" lon="8.812405494029548"><ele>67.0</ele><time>2026-05-02T08:20:44Z</time></trkpt><trkpt lat="40.9086302094207" lon="8.812176356103897"><ele>67.0</ele><time>2026-05-02T08:20:45Z</time></trkpt><trkpt lat="40.90852184333601" lon="8.811951431813597"><ele>67.0</ele><time>2026-05-02T08:20:46Z</time></trkpt><trkpt lat="40.90841414892976" lon="8.811728893114525"><ele>67.0</ele><time>2026-05-02T08:20:47Z</time></trkpt><trkpt lat="40.90830431781" lon="8.811506297077688"><ele>66.66666666666666</ele><time>2026-05-02T08:20:48Z</time></trkpt><trkpt lat="40.908192200613584" lon="8.811278698676412"><ele>66.33333333333333</ele><time>2026-05-02T08:20:49Z</time></trkpt><trkpt lat="40.908078023522194" lon="8.81104611493834"><ele>66.0</ele><time>2026-05-02T08:20:50Z</time></trkpt><trkpt lat="40.90796423798406" lon="8.810810218417101"><ele>66.66666666666667</ele><time>2026-05-02T08:20:51Z</time></trkpt><trkpt lat="40.90785592321639" lon="8.810583950939137"><ele>67.33333333333334</ele><time>2026-05-02T08:20:52Z</time></trkpt><trkpt lat="40.9077569228735" lon="8.810378144717815"><ele>68.0</ele><time>2026-05-02T08:20:53Z</time></trkpt><trkpt lat="40.9076579801131" lon="8.810179410954454"><ele>65.66666666666667</ele><time>2026-05-02T08:20:54Z</time></trkpt><trkpt lat="40.907556264806175" lon="8.809964261883131"><ele>63.33333333333333</ele><time>2026-05-02T08:20:55Z</time></trkpt><trkpt lat="40.90745033557982" lon="8.809745530740456"><ele>61.0</ele><time>2026-05-02T08:20:56Z</time></trkpt><trkpt lat="40.907343277152" lon="8.809527713134047"><ele>61.0</ele><time>2026-05-02T08:20:57Z</time></trkpt><trkpt lat="40.90723426064281" lon="8.809314191279396"><ele>61.0</ele><time>2026-05-02T08:20:58Z</time></trkpt><trkpt lat="40.907129897366495" lon="8.809103533047455"><ele>61.0</ele><time>2026-05-02T08:20:59Z</time></trkpt><trkpt lat="40.907029080443756" lon="8.808895779854293"><ele>61.0</ele><time>2026-05-02T08:21:00Z</time></trkpt><trkpt lat="40.90692918666846" lon="8.808686645288512"><ele>61.0</ele><time>2026-05-02T08:21:01Z</time></trkpt><trkpt lat="40.906831695559504" lon="8.808474530857389"><ele>61.0</ele><time>2026-05-02T08:21:02Z</time></trkpt><trkpt lat="40.906739212189294" lon="8.808253424437009"><ele>59.666666666666664</ele><time>2026-05-02T08:21:03Z</time></trkpt><trkpt lat="40.90665432717693" lon="8.808021942993161"><ele>58.33333333333333</ele><time>2026-05-02T08:21:04Z</time></trkpt><trkpt lat="40.90657668787481" lon="8.80778507684594"><ele>57.0</ele><time>2026-05-02T08:21:05Z</time></trkpt><trkpt lat="40.90650735764594" lon="8.80754066449188"><ele>56.66666666666667</ele><time>2026-05-02T08:21:06Z</time></trkpt><trkpt lat="40.90644524103862" lon="8.807292468223883"><ele>56.333333333333336</ele><time>2026-05-02T08:21:07Z</time></trkpt><trkpt lat="40.90638964531492" lon="8.807041691561695"><ele>56.0</ele><time>2026-05-02T08:21:08Z</time></trkpt><trkpt lat="40.906339159530006" lon="8.806790160270168"><ele>56.0</ele><time>2026-05-02T08:21:09Z</time></trkpt><trkpt lat="40.90629570160309" lon="8.806536230067696"><ele>56.0</ele><time>2026-05-02T08:21:10Z</time></trkpt><trkpt lat="40.90625873348771" lon="8.806277682584664"><ele>56.0</ele><time>2026-05-02T08:21:11Z</time></trkpt><trkpt lat="40.90622932461559" lon="8.806017858696903"><ele>57.333333333333336</ele><time>2026-05-02T08:21:12Z</time></trkpt><trkpt lat="40.90620141165516" lon="8.805757209080056"><ele>58.66666666666667</ele><time>2026-05-02T08:21:13Z</time></trkpt><trkpt lat="40.90616917703546" lon="8.805498681783385"><ele>60.0</ele><time>2026-05-02T08:21:14Z</time></trkpt><trkpt lat="40.906140361591916" lon="8.805237447363234"><ele>61.0</ele><time>2026-05-02T08:21:15Z</time></trkpt><trkpt lat="40.9061124107186" lon="8.804978754642606"><ele>62.0</ele><time>2026-05-02T08:21:16Z</time></trkpt><trkpt lat="40.90608466339091" lon="8.804720157838974"><ele>63.0</ele><time>2026-05-02T08:21:17Z</time></trkpt><trkpt lat="40.90605724241831" lon="8.8044664674452"><ele>63.66666666666667</ele><time>2026-05-02T08:21:18Z</time></trkpt><trkpt lat="40.90602651443949" lon="8.804214174995195"><ele>64.33333333333334</ele><time>2026-05-02T08:21:19Z</time></trkpt><trkpt lat="40.90600102844138" lon="8.803962182867853"><ele>65.0</ele><time>2026-05-02T08:21:20Z</time></trkpt><trkpt lat="40.905972999364046" lon="8.80371192213429"><ele>64.0</ele><time>2026-05-02T08:21:21Z</time></trkpt><trkpt lat="40.905945552999086" lon="8.803462558686123"><ele>63.0</ele><time>2026-05-02T08:21:22Z</time></trkpt><trkpt lat="40.905917298388644" lon="8.803209474680287"><ele>62.0</ele><time>2026-05-02T08:21:23Z</time></trkpt><trkpt lat="40.90589086210791" lon="8.802960918696932"><ele>62.0</ele><time>2026-05-02T08:21:24Z</time></trkpt><trkpt lat="40.905864822187034" lon="8.802715751945794"><ele>62.0</ele><time>2026-05-02T08:21:25Z</time></trkpt><trkpt lat="40.905842856648185" lon="8.802491719010101"><ele>62.0</ele><time>2026-05-02T08:21:26Z</time></trkpt><trkpt lat="40.905822435212805" lon="8.802283580746426"><ele>62.75</ele><time>2026-05-02T08:21:27Z</time></trkpt><trkpt lat="40.905799757049806" lon="8.802083466735791"><ele>63.5</ele><time>2026-05-02T08:21:28Z</time></trkpt><trkpt lat="40.90578031053902" lon="8.80189332920861"><ele>64.25</ele><time>2026-05-02T08:21:29Z</time></trkpt><trkpt lat="40.90576055156719" lon="8.801710901675927"><ele>65.0</ele><time>2026-05-02T08:21:30Z</time></trkpt><trkpt lat="40.90574141303589" lon="8.80153150413347"><ele>65.2</ele><time>2026-05-02T08:21:31Z</time></trkpt><trkpt lat="40.905725341510426" lon="8.8013713892988"><ele>65.4</ele><time>2026-05-02T08:21:32Z</time></trkpt><trkpt lat="40.905711120385675" lon="8.801223920167903"><ele>65.6</ele><time>2026-05-02T08:21:33Z</time></trkpt><trkpt lat="40.905694459037264" lon="8.80109543086773"><ele>65.8</ele><time>2026-05-02T08:21:34Z</time></trkpt><trkpt lat="40.90567338371349" lon="8.800996664197022"><ele>66.0</ele><time>2026-05-02T08:21:35Z</time></trkpt><trkpt lat="40.905600872342156" lon="8.800885000480294"><ele>66.66666666666667</ele><time>2026-05-02T08:21:37Z</time></trkpt><trkpt lat="40.90552772435027" lon="8.800811846949504"><ele>67.33333333333333</ele><time>2026-05-02T08:21:39Z</time></trkpt><trkpt lat="40.90547766009585" lon="8.800731791462757"><ele>68.0</ele><time>2026-05-02T08:21:42Z</time></trkpt><trkpt lat="40.90540400904055" lon="8.80069291693092"><ele>68.66666666666666</ele><time>2026-05-02T08:21:44Z</time></trkpt><trkpt lat="40.905329054185806" lon="8.800727245186055"><ele>69.33333333333333</ele><time>2026-05-02T08:21:46Z</time></trkpt><trkpt lat="40.90532550931818" lon="8.800811279188387"><ele>70.0</ele><time>2026-05-02T08:22:06Z</time></trkpt><trkpt lat="40.9053157802185" lon="8.800899534416276"><ele>70.0</ele><time>2026-05-02T08:29:59Z</time></trkpt><trkpt lat="40.90535456372048" lon="8.800978326104358"><ele>70.0</ele><time>2026-05-02T08:30:46Z</time></trkpt><trkpt lat="40.90542344286949" lon="8.800955725865249"><ele>70.0</ele><time>2026-05-02T08:30:52Z</time></trkpt><trkpt lat="40.9054766482788" lon="8.800862557655702"><ele>70.0</ele><time>2026-05-02T08:37:15Z</time></trkpt><trkpt lat="40.90549126076819" lon="8.800775001020183"><ele>70.0</ele><time>2026-05-02T08:37:18Z</time></trkpt><trkpt lat="40.90552705995586" lon="8.800692702613357"><ele>70.0</ele><time>2026-05-02T08:37:22Z</time></trkpt><trkpt lat="40.90557197580615" lon="8.800630904043723"><ele>70.0</ele><time>2026-05-02T08:37:36Z</time></trkpt><trkpt lat="40.90561268835875" lon="8.800529002276951"><ele>70.0</ele><time>2026-05-02T08:37:38Z</time></trkpt><trkpt lat="40.905628746684414" lon="8.800378017364016"><ele>70.0</ele><time>2026-05-02T08:37:40Z</time></trkpt><trkpt lat="40.9056109563088" lon="8.800253252795237"><ele>70.0</ele><time>2026-05-02T08:37:41Z</time></trkpt><trkpt lat="40.905589630415534" lon="8.800107704462787"><ele>70.0</ele><time>2026-05-02T08:37:42Z</time></trkpt><trkpt lat="40.90558865991515" lon="8.799948380554179"><ele>70.0</ele><time>2026-05-02T08:37:43Z</time></trkpt><trkpt lat="40.905569809331425" lon="8.79977419228585"><ele>70.75</ele><time>2026-05-02T08:37:44Z</time></trkpt><trkpt lat="40.90555039199572" lon="8.799594766953973"><ele>71.5</ele><time>2026-05-02T08:37:45Z</time></trkpt><trkpt lat="40.905515535543444" lon="8.799415189183717"><ele>72.25</ele><time>2026-05-02T08:37:46Z</time></trkpt><trkpt lat="40.9054969222926" lon="8.799230726782053"><ele>73.0</ele><time>2026-05-02T08:37:47Z</time></trkpt><trkpt lat="40.90547467451031" lon="8.799044325738047"><ele>74.0</ele><time>2026-05-02T08:37:48Z</time></trkpt><trkpt lat="40.905455444280754" lon="8.798856101779606"><ele>75.0</ele><time>2026-05-02T08:37:49Z</time></trkpt><trkpt lat="40.90543597284906" lon="8.798664470567832"><ele>76.0</ele><time>2026-05-02T08:37:50Z</time></trkpt><trkpt lat="40.90541308644466" lon="8.798475631455089"><ele>77.0</ele><time>2026-05-02T08:37:51Z</time></trkpt><trkpt lat="40.905393336620754" lon="8.798290640472622"><ele>78.0</ele><time>2026-05-02T08:37:52Z</time></trkpt><trkpt lat="40.90537446794378" lon="8.798101384588074"><ele>79.0</ele><time>2026-05-02T08:37:53Z</time></trkpt><trkpt lat="40.9053469160263" lon="8.797912756503171"><ele>80.0</ele><time>2026-05-02T08:37:54Z</time></trkpt><trkpt lat="40.90531256002665" lon="8.797725000811942"><ele>81.0</ele><time>2026-05-02T08:37:55Z</time></trkpt><trkpt lat="40.90527676765386" lon="8.797534818896159"><ele>83.0</ele><time>2026-05-02T08:37:56Z</time></trkpt><trkpt lat="40.90523483231745" lon="8.797344190406774"><ele>85.0</ele><time>2026-05-02T08:37:57Z</time></trkpt><trkpt lat="40.905188921337036" lon="8.797153491574777"><ele>87.0</ele><time>2026-05-02T08:37:58Z</time></trkpt><trkpt lat="40.90513470700442" lon="8.796961497942783"><ele>84.66666666666667</ele><time>2026-05-02T08:37:59Z</time></trkpt><trkpt lat="40.90507741680299" lon="8.796770735448023"><ele>82.33333333333334</ele><time>2026-05-02T08:38:00Z</time></trkpt><trkpt lat="40.90501544037318" lon="8.796578838321247"><ele>80.0</ele><time>2026-05-02T08:38:01Z</time></trkpt><trkpt lat="40.90493603152438" lon="8.796398896153153"><ele>80.0</ele><time>2026-05-02T08:38:02Z</time></trkpt><trkpt lat="40.904859206428526" lon="8.796209044559765"><ele>80.0</ele><time>2026-05-02T08:38:03Z</time></trkpt><trkpt lat="40.90478125475054" lon="8.796017348085186"><ele>80.0</ele><time>2026-05-02T08:38:04Z</time></trkpt><trkpt lat="40.90470588964795" lon="8.795820610776394"><ele>81.0</ele><time>2026-05-02T08:38:05Z</time></trkpt><trkpt lat="40.904639736711" lon="8.795622157532925"><ele>82.0</ele><time>2026-05-02T08:38:06Z</time></trkpt><trkpt lat="40.90455073540782" lon="8.79542457100583"><ele>83.0</ele><time>2026-05-02T08:38:07Z</time></trkpt><trkpt lat="40.90447732294831" lon="8.79523100975262"><ele>83.0</ele><time>2026-05-02T08:38:08Z</time></trkpt><trkpt lat="40.90439777958765" lon="8.795036025086544"><ele>83.0</ele><time>2026-05-02T08:38:09Z</time></trkpt><trkpt lat="40.90433537934699" lon="8.794829189334838"><ele>83.0</ele><time>2026-05-02T08:38:10Z</time></trkpt><trkpt lat="40.90425806772855" lon="8.794631557514164"><ele>79.0</ele><time>2026-05-02T08:38:11Z</time></trkpt><trkpt lat="40.904182549819545" lon="8.794438510856322"><ele>75.0</ele><time>2026-05-02T08:38:12Z</time></trkpt><trkpt lat="40.904093181103434" lon="8.79425795384506"><ele>71.0</ele><time>2026-05-02T08:38:13Z</time></trkpt><trkpt lat="40.90403761676952" lon="8.794070673124073"><ele>71.0</ele><time>2026-05-02T08:38:14Z</time></trkpt><trkpt lat="40.90397210775612" lon="8.793903980019495"><ele>71.0</ele><time>2026-05-02T08:38:15Z</time></trkpt><trkpt lat="40.90389939194271" lon="8.793747316821076"><ele>71.0</ele><time>2026-05-02T08:38:16Z</time></trkpt><trkpt lat="40.9038457252479" lon="8.793594225536545"><ele>71.0</ele><time>2026-05-02T08:38:17Z</time></trkpt><trkpt lat="40.90378542882084" lon="8.793427416808813"><ele>71.0</ele><time>2026-05-02T08:38:18Z</time></trkpt><trkpt lat="40.903716745787506" lon="8.793274040636678"><ele>71.0</ele><time>2026-05-02T08:38:19Z</time></trkpt><trkpt lat="40.90366171568427" lon="8.793118987842595"><ele>71.0</ele><time>2026-05-02T08:38:20Z</time></trkpt><trkpt lat="40.90360626699038" lon="8.792986984617839"><ele>71.0</ele><time>2026-05-02T08:38:21Z</time></trkpt><trkpt lat="40.90355845035357" lon="8.792860831757324"><ele>71.0</ele><time>2026-05-02T08:38:22Z</time></trkpt><trkpt lat="40.903507880925744" lon="8.792720444400702"><ele>71.0</ele><time>2026-05-02T08:38:23Z</time></trkpt><trkpt lat="40.90345157445581" lon="8.792582405835908"><ele>71.0</ele><time>2026-05-02T08:38:24Z</time></trkpt><trkpt lat="40.90339916267655" lon="8.792446916166112"><ele>71.0</ele><time>2026-05-02T08:38:25Z</time></trkpt><trkpt lat="40.90334501458526" lon="8.792309473871741"><ele>71.0</ele><time>2026-05-02T08:38:26Z</time></trkpt><trkpt lat="40.90328870777713" lon="8.792172683803999"><ele>71.0</ele><time>2026-05-02T08:38:27Z</time></trkpt><trkpt lat="40.90323265377417" lon="8.792030275177561"><ele>71.0</ele><time>2026-05-02T08:38:28Z</time></trkpt><trkpt lat="40.9031754945507" lon="8.791887810376561"><ele>71.0</ele><time>2026-05-02T08:38:29Z</time></trkpt><trkpt lat="40.90312615325089" lon="8.791754362530368"><ele>70.75</ele><time>2026-05-02T08:38:30Z</time></trkpt><trkpt lat="40.90307584027253" lon="8.791625082997891"><ele>70.5</ele><time>2026-05-02T08:38:31Z</time></trkpt><trkpt lat="40.902999976785786" lon="8.791443144170051"><ele>70.25</ele><time>2026-05-02T08:38:32Z</time></trkpt><trkpt lat="40.90293474208725" lon="8.791284815802276"><ele>70.0</ele><time>2026-05-02T08:38:33Z</time></trkpt><trkpt lat="40.902871077581516" lon="8.791117628482956"><ele>69.33333333333333</ele><time>2026-05-02T08:38:34Z</time></trkpt><trkpt lat="40.902802193777376" lon="8.79094122038411"><ele>68.66666666666667</ele><time>2026-05-02T08:38:35Z</time></trkpt><trkpt lat="40.902728363672736" lon="8.790764670440357"><ele>68.0</ele><time>2026-05-02T08:38:36Z</time></trkpt><trkpt lat="40.90265375216725" lon="8.790583027042228"><ele>69.0</ele><time>2026-05-02T08:38:37Z</time></trkpt><trkpt lat="40.902580058466796" lon="8.790399747884873"><ele>70.0</ele><time>2026-05-02T08:38:38Z</time></trkpt><trkpt lat="40.90250647033563" lon="8.790210816346674"><ele>71.0</ele><time>2026-05-02T08:38:39Z</time></trkpt><trkpt lat="40.90243645873765" lon="8.790016425723278"><ele>71.0</ele><time>2026-05-02T08:38:40Z</time></trkpt><trkpt lat="40.90238046177712" lon="8.789807342244425"><ele>71.0</ele><time>2026-05-02T08:38:41Z</time></trkpt><trkpt lat="40.90231657829819" lon="8.789594307994204"><ele>71.0</ele><time>2026-05-02T08:38:42Z</time></trkpt><trkpt lat="40.90223461603081" lon="8.789383793110067"><ele>71.33333333333334</ele><time>2026-05-02T08:38:43Z</time></trkpt><trkpt lat="40.90218157801149" lon="8.789162117847921"><ele>71.66666666666667</ele><time>2026-05-02T08:38:44Z</time></trkpt><trkpt lat="40.90213967884216" lon="8.788940397406604"><ele>72.0</ele><time>2026-05-02T08:38:45Z</time></trkpt><trkpt lat="40.90210189757052" lon="8.788711950727635"><ele>72.66666666666667</ele><time>2026-05-02T08:38:46Z</time></trkpt><trkpt lat="40.902093284548975" lon="8.788477448710477"><ele>73.33333333333334</ele><time>2026-05-02T08:38:47Z</time></trkpt><trkpt lat="40.90204988390255" lon="8.788244577764164"><ele>74.0</ele><time>2026-05-02T08:38:48Z</time></trkpt><trkpt lat="40.9020298018894" lon="8.788010246624642"><ele>74.0</ele><time>2026-05-02T08:38:49Z</time></trkpt><trkpt lat="40.90202132726706" lon="8.787770572738618"><ele>74.0</ele><time>2026-05-02T08:38:50Z</time></trkpt><trkpt lat="40.902018188778015" lon="8.78753172131438"><ele>74.0</ele><time>2026-05-02T08:38:51Z</time></trkpt><trkpt lat="40.90205559700021" lon="8.787294631492534"><ele>75.0</ele><time>2026-05-02T08:38:52Z</time></trkpt><trkpt lat="40.90206910524796" lon="8.787053086487903"><ele>76.0</ele><time>2026-05-02T08:38:53Z</time></trkpt><trkpt lat="40.902076928744044" lon="8.786807000945888"><ele>77.0</ele><time>2026-05-02T08:38:54Z</time></trkpt><trkpt lat="40.90209423706121" lon="8.786562559303599"><ele>78.0</ele><time>2026-05-02T08:38:55Z</time></trkpt><trkpt lat="40.90211060844146" lon="8.786319403776238"><ele>79.0</ele><time>2026-05-02T08:38:56Z</time></trkpt><trkpt lat="40.90212917710917" lon="8.786076871515531"><ele>80.0</ele><time>2026-05-02T08:38:57Z</time></trkpt><trkpt lat="40.90214691261103" lon="8.785831124985055"><ele>80.0</ele><time>2026-05-02T08:38:58Z</time></trkpt><trkpt lat="40.90216420856091" lon="8.785586741444355"><ele>80.0</ele><time>2026-05-02T08:38:59Z</time></trkpt><trkpt lat="40.90218240138621" lon="8.78533823506871"><ele>80.0</ele><time>2026-05-02T08:39:00Z</time></trkpt><trkpt lat="40.90220225750956" lon="8.785093014583389"><ele>81.0</ele><time>2026-05-02T08:39:01Z</time></trkpt><trkpt lat="40.90221235617135" lon="8.784845733701621"><ele>82.0</ele><time>2026-05-02T08:39:02Z</time></trkpt><trkpt lat="40.90223541320733" lon="8.784596073872413"><ele>83.0</ele><time>2026-05-02T08:39:03Z</time></trkpt><trkpt lat="40.90225537501182" lon="8.78434337190031"><ele>84.66666666666667</ele><time>2026-05-02T08:39:04Z</time></trkpt><trkpt lat="40.90227237758332" lon="8.784086630821772"><ele>86.33333333333333</ele><time>2026-05-02T08:39:05Z</time></trkpt><trkpt lat="40.90229104928182" lon="8.783836380804924"><ele>88.0</ele><time>2026-05-02T08:39:06Z</time></trkpt><trkpt lat="40.902305467630036" lon="8.7835844839111"><ele>88.0</ele><time>2026-05-02T08:39:07Z</time></trkpt><trkpt lat="40.90232487388513" lon="8.783337405660747"><ele>88.0</ele><time>2026-05-02T08:39:08Z</time></trkpt><trkpt lat="40.90234260948552" lon="8.78308829502327"><ele>88.0</ele><time>2026-05-02T08:39:09Z</time></trkpt><trkpt lat="40.90236000319237" lon="8.782840367792241"><ele>87.33333333333333</ele><time>2026-05-02T08:39:10Z</time></trkpt><trkpt lat="40.90237752880938" lon="8.782587777065142"><ele>86.66666666666667</ele><time>2026-05-02T08:39:11Z</time></trkpt><trkpt lat="40.90239650691964" lon="8.782334878608768"><ele>86.0</ele><time>2026-05-02T08:39:12Z</time></trkpt><trkpt lat="40.90241645476671" lon="8.78207809834526"><ele>86.33333333333334</ele><time>2026-05-02T08:39:13Z</time></trkpt><trkpt lat="40.902434736954476" lon="8.781822644106889"><ele>86.66666666666667</ele><time>2026-05-02T08:39:14Z</time></trkpt><trkpt lat="40.90244968743619" lon="8.781567024243587"><ele>87.0</ele><time>2026-05-02T08:39:15Z</time></trkpt><trkpt lat="40.902470250997915" lon="8.781305511990414"><ele>87.0</ele><time>2026-05-02T08:39:16Z</time></trkpt><trkpt lat="40.90249033575301" lon="8.781043560227909"><ele>87.0</ele><time>2026-05-02T08:39:17Z</time></trkpt><trkpt lat="40.90250952829431" lon="8.780770505500033"><ele>87.0</ele><time>2026-05-02T08:39:18Z</time></trkpt><trkpt lat="40.902529801765226" lon="8.780493241887982"><ele>88.33333333333333</ele><time>2026-05-02T08:39:19Z</time></trkpt><trkpt lat="40.90254735887696" lon="8.780212942474977"><ele>89.66666666666666</ele><time>2026-05-02T08:39:20Z</time></trkpt><trkpt lat="40.90256396779943" lon="8.779932488431859"><ele>91.0</ele><time>2026-05-02T08:39:21Z</time></trkpt><trkpt lat="40.90258574662008" lon="8.779655994511842"><ele>96.0</ele><time>2026-05-02T08:39:22Z</time></trkpt><trkpt lat="40.902606009127915" lon="8.779376360969962"><ele>101.0</ele><time>2026-05-02T08:39:23Z</time></trkpt><trkpt lat="40.90262628096385" lon="8.779098547770282"><ele>106.0</ele><time>2026-05-02T08:39:24Z</time></trkpt><trkpt lat="40.90264455322317" lon="8.778822184043447"><ele>106.0</ele><time>2026-05-02T08:39:25Z</time></trkpt><trkpt lat="40.90266232186663" lon="8.778545478183748"><ele>106.0</ele><time>2026-05-02T08:39:26Z</time></trkpt><trkpt lat="40.90267836103417" lon="8.778268625632775"><ele>106.0</ele><time>2026-05-02T08:39:27Z</time></trkpt><trkpt lat="40.902699685704945" lon="8.77798937046143"><ele>103.66666666666667</ele><time>2026-05-02T08:39:28Z</time></trkpt><trkpt lat="40.90272278029842" lon="8.777708226840055"><ele>101.33333333333334</ele><time>2026-05-02T08:39:29Z</time></trkpt><trkpt lat="40.90274341149367" lon="8.777425054180478"><ele>99.0</ele><time>2026-05-02T08:39:30Z</time></trkpt><trkpt lat="40.90276506669936" lon="8.777128780098376"><ele>98.0</ele><time>2026-05-02T08:39:31Z</time></trkpt><trkpt lat="40.90278493899777" lon="8.776821900858963"><ele>97.0</ele><time>2026-05-02T08:39:32Z</time></trkpt><trkpt lat="40.9028056054304" lon="8.776510149258336"><ele>97.0</ele><time>2026-05-02T08:39:33Z</time></trkpt><trkpt lat="40.902826028218335" lon="8.776193920620932"><ele>97.0</ele><time>2026-05-02T08:39:34Z</time></trkpt><trkpt lat="40.90284545775005" lon="8.77587365698084"><ele>98.0</ele><time>2026-05-02T08:39:35Z</time></trkpt><trkpt lat="40.90286392211962" lon="8.775552015384427"><ele>99.0</ele><time>2026-05-02T08:39:36Z</time></trkpt><trkpt lat="40.90287727655643" lon="8.775230956612207"><ele>100.0</ele><time>2026-05-02T08:39:37Z</time></trkpt><trkpt lat="40.90288342628179" lon="8.774914522946956"><ele>101.0</ele><time>2026-05-02T08:39:38Z</time></trkpt><trkpt lat="40.902872314604075" lon="8.774602829582742"><ele>102.5</ele><time>2026-05-02T08:39:39Z</time></trkpt><trkpt lat="40.90284442590053" lon="8.774302525307354"><ele>104.0</ele><time>2026-05-02T08:39:40Z</time></trkpt><trkpt lat="40.90280644370045" lon="8.77399992443987"><ele>104.0</ele><time>2026-05-02T08:39:41Z</time></trkpt><trkpt lat="40.90275151703785" lon="8.773694110213045"><ele>104.0</ele><time>2026-05-02T08:39:42Z</time></trkpt><trkpt lat="40.90268561099709" lon="8.773384937191794"><ele>102.0</ele><time>2026-05-02T08:39:43Z</time></trkpt><trkpt lat="40.902604921499524" lon="8.773077074140536"><ele>100.0</ele><time>2026-05-02T08:39:44Z</time></trkpt><trkpt lat="40.90251502546797" lon="8.772772576611453"><ele>103.5</ele><time>2026-05-02T08:39:45Z</time></trkpt><trkpt lat="40.90241151635043" lon="8.772476447119292"><ele>107.0</ele><time>2026-05-02T08:39:46Z</time></trkpt><trkpt lat="40.90229816846142" lon="8.772192983339584"><ele>107.0</ele><time>2026-05-02T08:39:47Z</time></trkpt><trkpt lat="40.902172006456325" lon="8.77192057547624"><ele>107.0</ele><time>2026-05-02T08:39:48Z</time></trkpt><trkpt lat="40.90203592414609" lon="8.771658082725713"><ele>107.0</ele><time>2026-05-02T08:39:49Z</time></trkpt><trkpt lat="40.90189177928942" lon="8.771403977278474"><ele>107.0</ele><time>2026-05-02T08:39:50Z</time></trkpt><trkpt lat="40.9017382837253" lon="8.77116218420148"><ele>109.5</ele><time>2026-05-02T08:39:51Z</time></trkpt><trkpt lat="40.90159091065795" lon="8.7709081155006"><ele>112.0</ele><time>2026-05-02T08:39:52Z</time></trkpt><trkpt lat="40.90143140129972" lon="8.770658576532703"><ele>112.0</ele><time>2026-05-02T08:39:53Z</time></trkpt><trkpt lat="40.90127083676456" lon="8.770407387001168"><ele>112.0</ele><time>2026-05-02T08:39:54Z</time></trkpt><trkpt lat="40.90109708854791" lon="8.770169197656957"><ele>116.5</ele><time>2026-05-02T08:39:55Z</time></trkpt><trkpt lat="40.90093832956684" lon="8.769918443587517"><ele>121.0</ele><time>2026-05-02T08:39:56Z</time></trkpt><trkpt lat="40.900780932696364" lon="8.769674971043479"><ele>121.0</ele><time>2026-05-02T08:39:57Z</time></trkpt><trkpt lat="40.900637776000266" lon="8.769420341149262"><ele>121.0</ele><time>2026-05-02T08:39:58Z</time></trkpt><trkpt lat="40.90047382981071" lon="8.769195853743833"><ele>122.5</ele><time>2026-05-02T08:39:59Z</time></trkpt><trkpt lat="40.900325042599896" lon="8.76896056102776"><ele>124.0</ele><time>2026-05-02T08:40:00Z</time></trkpt><trkpt lat="40.900173396853425" lon="8.768728461990738"><ele>121.5</ele><time>2026-05-02T08:40:01Z</time></trkpt><trkpt lat="40.900037781645274" lon="8.768485459953228"><ele>119.0</ele><time>2026-05-02T08:40:02Z</time></trkpt><trkpt lat="40.89989019300669" lon="8.76825684566705"><ele>119.0</ele><time>2026-05-02T08:40:03Z</time></trkpt><trkpt lat="40.89974360725175" lon="8.768029784836246"><ele>119.0</ele><time>2026-05-02T08:40:04Z</time></trkpt><trkpt lat="40.89958513738511" lon="8.767817278471306"><ele>119.0</ele><time>2026-05-02T08:40:05Z</time></trkpt><trkpt lat="40.899438344223114" lon="8.767588865899796"><ele>119.0</ele><time>2026-05-02T08:40:06Z</time></trkpt><trkpt lat="40.8993017470918" lon="8.76734534501136"><ele>116.5</ele><time>2026-05-02T08:40:07Z</time></trkpt><trkpt lat="40.89915201750027" lon="8.767113414421926"><ele>114.0</ele><time>2026-05-02T08:40:08Z</time></trkpt><trkpt lat="40.89900000856378" lon="8.766877949331144"><ele>114.0</ele><time>2026-05-02T08:40:09Z</time></trkpt><trkpt lat="40.89884623785538" lon="8.766639754491173"><ele>114.0</ele><time>2026-05-02T08:40:10Z</time></trkpt><trkpt lat="40.89869191170835" lon="8.766403137262282"><ele>114.0</ele><time>2026-05-02T08:40:11Z</time></trkpt><trkpt lat="40.8985256145269" lon="8.766190259634891"><ele>114.0</ele><time>2026-05-02T08:40:12Z</time></trkpt><trkpt lat="40.8983835698262" lon="8.765965437432124"><ele>113.33333333333334</ele><time>2026-05-02T08:40:13Z</time></trkpt><trkpt lat="40.89823996828587" lon="8.765739492958943"><ele>112.66666666666667</ele><time>2026-05-02T08:40:14Z</time></trkpt><trkpt lat="40.8980961190546" lon="8.765514740769065"><ele>112.0</ele><time>2026-05-02T08:40:15Z</time></trkpt><trkpt lat="40.897953546389225" lon="8.765294624012954"><ele>112.0</ele><time>2026-05-02T08:40:16Z</time></trkpt><trkpt lat="40.89781606008154" lon="8.765083730999097"><ele>112.0</ele><time>2026-05-02T08:40:17Z</time></trkpt><trkpt lat="40.89769089949029" lon="8.764888210113208"><ele>112.0</ele><time>2026-05-02T08:40:18Z</time></trkpt><trkpt lat="40.89757564662994" lon="8.764708501211855"><ele>110.33333333333334</ele><time>2026-05-02T08:40:19Z</time></trkpt><trkpt lat="40.897472009464806" lon="8.764530462994859"><ele>108.66666666666666</ele><time>2026-05-02T08:40:20Z</time></trkpt><trkpt lat="40.89739386542418" lon="8.764346477833222"><ele>107.0</ele><time>2026-05-02T08:40:21Z</time></trkpt><trkpt lat="40.89734187859803" lon="8.764144964398154"><ele>107.0</ele><time>2026-05-02T08:40:22Z</time></trkpt><trkpt lat="40.89730408643359" lon="8.76393164811946"><ele>107.0</ele><time>2026-05-02T08:40:23Z</time></trkpt><trkpt lat="40.897275381315836" lon="8.76372221739432"><ele>107.0</ele><time>2026-05-02T08:40:24Z</time></trkpt><trkpt lat="40.89724899535075" lon="8.763531293522265"><ele>107.25</ele><time>2026-05-02T08:40:25Z</time></trkpt><trkpt lat="40.89722744813555" lon="8.763359805836462"><ele>107.5</ele><time>2026-05-02T08:40:26Z</time></trkpt><trkpt lat="40.89720582146316" lon="8.763197873875521"><ele>107.75</ele><time>2026-05-02T08:40:27Z</time></trkpt><trkpt lat="40.89718274554452" lon="8.763049958213188"><ele>108.0</ele><time>2026-05-02T08:40:28Z</time></trkpt><trkpt lat="40.89716037140196" lon="8.762909086507168"><ele>108.0</ele><time>2026-05-02T08:40:29Z</time></trkpt><trkpt lat="40.89714111042976" lon="8.762777771917616"><ele>108.00000000000001</ele><time>2026-05-02T08:40:30Z</time></trkpt><trkpt lat="40.897116608625645" lon="8.762655419581812"><ele>108.00000000000001</ele><time>2026-05-02T08:40:31Z</time></trkpt><trkpt lat="40.8970916045653" lon="8.762536477344867"><ele>108.0</ele><time>2026-05-02T08:40:32Z</time></trkpt><trkpt lat="40.89706830272342" lon="8.762416188685506"><ele>108.0</ele><time>2026-05-02T08:40:33Z</time></trkpt><trkpt lat="40.89704698646161" lon="8.762279522930084"><ele>108.5</ele><time>2026-05-02T08:40:34Z</time></trkpt><trkpt lat="40.89702754734343" lon="8.76212972680991"><ele>109.0</ele><time>2026-05-02T08:40:35Z</time></trkpt><trkpt lat="40.89700143909362" lon="8.761979813305103"><ele>109.5</ele><time>2026-05-02T08:40:36Z</time></trkpt><trkpt lat="40.896968542632855" lon="8.76183161732567"><ele>110.0</ele><time>2026-05-02T08:40:37Z</time></trkpt><trkpt lat="40.89692770361829" lon="8.761684967400653"><ele>110.25</ele><time>2026-05-02T08:40:38Z</time></trkpt><trkpt lat="40.89687423288898" lon="8.76154147601873"><ele>110.5</ele><time>2026-05-02T08:40:39Z</time></trkpt><trkpt lat="40.896808232138675" lon="8.7614043327427"><ele>110.75</ele><time>2026-05-02T08:40:40Z</time></trkpt><trkpt lat="40.896782927653156" lon="8.76123512163158"><ele>111.0</ele><time>2026-05-02T08:40:41Z</time></trkpt><trkpt lat="40.89673994208168" lon="8.761093772905213"><ele>110.5</ele><time>2026-05-02T08:40:42Z</time></trkpt><trkpt lat="40.89669589700321" lon="8.760942172119476"><ele>110.0</ele><time>2026-05-02T08:40:43Z</time></trkpt><trkpt lat="40.89664918240323" lon="8.760788162322307"><ele>109.5</ele><time>2026-05-02T08:40:44Z</time></trkpt><trkpt lat="40.89659976785284" lon="8.760623679364896"><ele>109.0</ele><time>2026-05-02T08:40:45Z</time></trkpt><trkpt lat="40.896548571369244" lon="8.760457964791618"><ele>109.0</ele><time>2026-05-02T08:40:46Z</time></trkpt><trkpt lat="40.896492392776594" lon="8.760288713885982"><ele>109.0</ele><time>2026-05-02T08:40:47Z</time></trkpt><trkpt lat="40.896433373713506" lon="8.760112252455551"><ele>109.0</ele><time>2026-05-02T08:40:48Z</time></trkpt><trkpt lat="40.896373191962226" lon="8.759933322814753"><ele>109.0</ele><time>2026-05-02T08:40:49Z</time></trkpt><trkpt lat="40.89630902997011" lon="8.759751821359211"><ele>109.0</ele><time>2026-05-02T08:40:50Z</time></trkpt><trkpt lat="40.89624120439823" lon="8.759566929025139"><ele>109.0</ele><time>2026-05-02T08:40:51Z</time></trkpt><trkpt lat="40.896169749106576" lon="8.759378917364446"><ele>109.0</ele><time>2026-05-02T08:40:52Z</time></trkpt><trkpt lat="40.896099958467474" lon="8.759187108298288"><ele>109.0</ele><time>2026-05-02T08:40:53Z</time></trkpt><trkpt lat="40.89602554085349" lon="8.758987456802776"><ele>109.0</ele><time>2026-05-02T08:40:54Z</time></trkpt><trkpt lat="40.8959522394275" lon="8.75878179729917"><ele>109.0</ele><time>2026-05-02T08:40:55Z</time></trkpt><trkpt lat="40.8958708735934" lon="8.758570992494214"><ele>109.66666666666667</ele><time>2026-05-02T08:40:56Z</time></trkpt><trkpt lat="40.895795194841284" lon="8.758352535162132"><ele>110.33333333333334</ele><time>2026-05-02T08:40:57Z</time></trkpt><trkpt lat="40.895711644515806" lon="8.758133566461119"><ele>111.0</ele><time>2026-05-02T08:40:58Z</time></trkpt><trkpt lat="40.89563328538129" lon="8.757907221556962"><ele>113.33333333333334</ele><time>2026-05-02T08:40:59Z</time></trkpt><trkpt lat="40.89554543106458" lon="8.757662345823716"><ele>115.66666666666667</ele><time>2026-05-02T08:41:00Z</time></trkpt><trkpt lat="40.89545355173534" lon="8.757458289238679"><ele>118.0</ele><time>2026-05-02T08:41:01Z</time></trkpt><trkpt lat="40.89536174322608" lon="8.757276216316477"><ele>118.0</ele><time>2026-05-02T08:41:02Z</time></trkpt><trkpt lat="40.89524020847409" lon="8.757115502072802"><ele>118.0</ele><time>2026-05-02T08:41:03Z</time></trkpt><trkpt lat="40.89508429485021" lon="8.756974029957776"><ele>118.0</ele><time>2026-05-02T08:41:04Z</time></trkpt><trkpt lat="40.894927372255495" lon="8.756824565761772"><ele>118.66666666666667</ele><time>2026-05-02T08:41:05Z</time></trkpt><trkpt lat="40.89478208186753" lon="8.756674397853908"><ele>119.33333333333334</ele><time>2026-05-02T08:41:06Z</time></trkpt><trkpt lat="40.89462821511079" lon="8.756515244339907"><ele>120.0</ele><time>2026-05-02T08:41:07Z</time></trkpt><trkpt lat="40.89447544419741" lon="8.75634332133504"><ele>120.0</ele><time>2026-05-02T08:41:08Z</time></trkpt><trkpt lat="40.89433072456177" lon="8.75615383215906"><ele>120.0</ele><time>2026-05-02T08:41:09Z</time></trkpt><trkpt lat="40.894205390695596" lon="8.755951558598644"><ele>120.0</ele><time>2026-05-02T08:41:10Z</time></trkpt><trkpt lat="40.89407597586649" lon="8.75574598925927"><ele>121.66666666666666</ele><time>2026-05-02T08:41:11Z</time></trkpt><trkpt lat="40.89394659376077" lon="8.755542252364881"><ele>123.33333333333333</ele><time>2026-05-02T08:41:12Z</time></trkpt><trkpt lat="40.893823437606336" lon="8.755355272495327"><ele>125.0</ele><time>2026-05-02T08:41:13Z</time></trkpt><trkpt lat="40.89369709562413" lon="8.755154083590021"><ele>127.66666666666666</ele><time>2026-05-02T08:41:14Z</time></trkpt><trkpt lat="40.893577796152805" lon="8.754950289742798"><ele>130.33333333333334</ele><time>2026-05-02T08:41:15Z</time></trkpt><trkpt lat="40.89346114870969" lon="8.754745202663448"><ele>133.0</ele><time>2026-05-02T08:41:16Z</time></trkpt><trkpt lat="40.89339591919534" lon="8.754498934837876"><ele>133.33333333333334</ele><time>2026-05-02T08:41:17Z</time></trkpt><trkpt lat="40.89331507703245" lon="8.75425621168708"><ele>133.66666666666666</ele><time>2026-05-02T08:41:18Z</time></trkpt><trkpt lat="40.89323511941745" lon="8.754014533670043"><ele>134.0</ele><time>2026-05-02T08:41:19Z</time></trkpt><trkpt lat="40.89315376132834" lon="8.753789274188984"><ele>134.0</ele><time>2026-05-02T08:41:20Z</time></trkpt><trkpt lat="40.893054452952086" lon="8.753608814886906"><ele>134.0</ele><time>2026-05-02T08:41:21Z</time></trkpt><trkpt lat="40.892945974094204" lon="8.753443605261442"><ele>134.0</ele><time>2026-05-02T08:41:22Z</time></trkpt><trkpt lat="40.892808239675595" lon="8.75330049280873"><ele>133.0</ele><time>2026-05-02T08:41:23Z</time></trkpt><trkpt lat="40.89265645019735" lon="8.753173173839164"><ele>132.0</ele><time>2026-05-02T08:41:24Z</time></trkpt><trkpt lat="40.89250210561427" lon="8.753042977285672"><ele>131.0</ele><time>2026-05-02T08:41:25Z</time></trkpt><trkpt lat="40.89236725491816" lon="8.752880330289216"><ele>135.33333333333331</ele><time>2026-05-02T08:41:26Z</time></trkpt><trkpt lat="40.892269768170706" lon="8.752705574612701"><ele>139.66666666666666</ele><time>2026-05-02T08:41:27Z</time></trkpt><trkpt lat="40.89219437246894" lon="8.752527662016078"><ele>144.0</ele><time>2026-05-02T08:41:28Z</time></trkpt><trkpt lat="40.89216709917126" lon="8.752344934134157"><ele>144.0</ele><time>2026-05-02T08:41:29Z</time></trkpt><trkpt lat="40.89215333171065" lon="8.752140718955264"><ele>144.0</ele><time>2026-05-02T08:41:30Z</time></trkpt><trkpt lat="40.892165116011796" lon="8.751932091919858"><ele>144.0</ele><time>2026-05-02T08:41:31Z</time></trkpt><trkpt lat="40.89219590574573" lon="8.751704246918479"><ele>146.33333333333334</ele><time>2026-05-02T08:41:32Z</time></trkpt><trkpt lat="40.89225027591662" lon="8.751464476083028"><ele>148.66666666666669</ele><time>2026-05-02T08:41:33Z</time></trkpt><trkpt lat="40.892317453638796" lon="8.751225394858782"><ele>151.0</ele><time>2026-05-02T08:41:34Z</time></trkpt><trkpt lat="40.892395137380376" lon="8.750967824013154"><ele>151.0</ele><time>2026-05-02T08:41:35Z</time></trkpt><trkpt lat="40.89247528129971" lon="8.750748926859664"><ele>151.0</ele><time>2026-05-02T08:41:36Z</time></trkpt><trkpt lat="40.8925598007288" lon="8.750543342212818"><ele>151.0</ele><time>2026-05-02T08:41:37Z</time></trkpt><trkpt lat="40.89264120947588" lon="8.7503423645544"><ele>159.33333333333334</ele><time>2026-05-02T08:41:38Z</time></trkpt><trkpt lat="40.89275218787781" lon="8.75017108183412"><ele>167.66666666666666</ele><time>2026-05-02T08:41:39Z</time></trkpt><trkpt lat="40.892823587992815" lon="8.749959970599228"><ele>176.0</ele><time>2026-05-02T08:41:40Z</time></trkpt><trkpt lat="40.89291186595671" lon="8.749769257997853"><ele>176.0</ele><time>2026-05-02T08:41:41Z</time></trkpt><trkpt lat="40.89298842940225" lon="8.749566080780749"><ele>176.0</ele><time>2026-05-02T08:41:42Z</time></trkpt><trkpt lat="40.89303301452532" lon="8.749348729449034"><ele>176.0</ele><time>2026-05-02T08:41:43Z</time></trkpt><trkpt lat="40.89306009939158" lon="8.74912653473747"><ele>174.66666666666666</ele><time>2026-05-02T08:41:44Z</time></trkpt><trkpt lat="40.89307235661205" lon="8.748911376303527"><ele>173.33333333333334</ele><time>2026-05-02T08:41:45Z</time></trkpt><trkpt lat="40.89312158689624" lon="8.74869724283043"><ele>172.0</ele><time>2026-05-02T08:41:46Z</time></trkpt><trkpt lat="40.89318293645886" lon="8.748487182093092"><ele>171.0</ele><time>2026-05-02T08:41:47Z</time></trkpt><trkpt lat="40.893245581444795" lon="8.748271531326994"><ele>170.0</ele><time>2026-05-02T08:41:48Z</time></trkpt><trkpt lat="40.89333774018716" lon="8.748057227748923"><ele>169.0</ele><time>2026-05-02T08:41:49Z</time></trkpt><trkpt lat="40.893416383986285" lon="8.747850442976551"><ele>175.0</ele><time>2026-05-02T08:41:50Z</time></trkpt><trkpt lat="40.893499641607804" lon="8.74763057968533"><ele>181.0</ele><time>2026-05-02T08:41:51Z</time></trkpt><trkpt lat="40.89358275805291" lon="8.747412264819756"><ele>187.0</ele><time>2026-05-02T08:41:52Z</time></trkpt><trkpt lat="40.893658317630795" lon="8.747194617607823"><ele>187.0</ele><time>2026-05-02T08:41:53Z</time></trkpt><trkpt lat="40.89374580147117" lon="8.746982666174407"><ele>187.0</ele><time>2026-05-02T08:41:54Z</time></trkpt><trkpt lat="40.8938375239882" lon="8.74678272932185"><ele>187.0</ele><time>2026-05-02T08:41:55Z</time></trkpt><trkpt lat="40.893939078886504" lon="8.74659172516958"><ele>185.33333333333334</ele><time>2026-05-02T08:41:56Z</time></trkpt><trkpt lat="40.89403274290279" lon="8.746402964707743"><ele>183.66666666666666</ele><time>2026-05-02T08:41:57Z</time></trkpt><trkpt lat="40.89409758545181" lon="8.74622462676378"><ele>182.0</ele><time>2026-05-02T08:41:58Z</time></trkpt><trkpt lat="40.89413136533741" lon="8.746033268347645"><ele>182.0</ele><time>2026-05-02T08:41:59Z</time></trkpt><trkpt lat="40.89414273615139" lon="8.745827242111913"><ele>182.0</ele><time>2026-05-02T08:42:00Z</time></trkpt><trkpt lat="40.894121973769984" lon="8.745612887304052"><ele>182.0</ele><time>2026-05-02T08:42:01Z</time></trkpt><trkpt lat="40.89407917800586" lon="8.745403990580849"><ele>182.5</ele><time>2026-05-02T08:42:02Z</time></trkpt><trkpt lat="40.894029756175215" lon="8.745205589260564"><ele>183.0</ele><time>2026-05-02T08:42:03Z</time></trkpt><trkpt lat="40.89398767838059" lon="8.74502791557893"><ele>183.5</ele><time>2026-05-02T08:42:04Z</time></trkpt><trkpt lat="40.89395315924951" lon="8.744863477888442"><ele>184.0</ele><time>2026-05-02T08:42:05Z</time></trkpt><trkpt lat="40.89392435795691" lon="8.744708964847446"><ele>184.0</ele><time>2026-05-02T08:42:06Z</time></trkpt><trkpt lat="40.89388959733441" lon="8.744556058822425"><ele>184.0</ele><time>2026-05-02T08:42:07Z</time></trkpt><trkpt lat="40.89386448113325" lon="8.74443912316567"><ele>184.0</ele><time>2026-05-02T08:42:08.001Z</time></trkpt><trkpt lat="40.89385095521542" lon="8.74434702686783"><ele>184.0</ele><time>2026-05-02T08:42:09.001Z</time></trkpt><trkpt lat="40.89387721797792" lon="8.744265000620036"><ele>184.0</ele><time>2026-05-02T08:42:11.001Z</time></trkpt><trkpt lat="40.89398054107315" lon="8.744167805800481"><ele>184.0</ele><time>2026-05-02T08:42:13.001Z</time></trkpt><trkpt lat="40.894070368449185" lon="8.744138039689167"><ele>184.0</ele><time>2026-05-02T08:42:14.001Z</time></trkpt><trkpt lat="40.894169842988134" lon="8.744109643062105"><ele>184.0</ele><time>2026-05-02T08:42:15.001Z</time></trkpt><trkpt lat="40.89428288196779" lon="8.744066587134489"><ele>184.0</ele><time>2026-05-02T08:42:16.001Z</time></trkpt><trkpt lat="40.89442959183297" lon="8.744042947333261"><ele>184.0</ele><time>2026-05-02T08:42:17.001Z</time></trkpt><trkpt lat="40.89456976464834" lon="8.74401582526289"><ele>184.0</ele><time>2026-05-02T08:42:18.001Z</time></trkpt><trkpt lat="40.89468328548761" lon="8.74397719307222"><ele>184.0</ele><time>2026-05-02T08:42:19.001Z</time></trkpt><trkpt lat="40.89479585626394" lon="8.743943220643649"><ele>184.0</ele><time>2026-05-02T08:42:20.001Z</time></trkpt><trkpt lat="40.894913408051224" lon="8.743904992882602"><ele>184.0</ele><time>2026-05-02T08:42:21.001Z</time></trkpt><trkpt lat="40.89503625861972" lon="8.743865332433613"><ele>184.0</ele><time>2026-05-02T08:42:22.001Z</time></trkpt><trkpt lat="40.895163717650505" lon="8.743826975037004"><ele>184.0</ele><time>2026-05-02T08:42:23Z</time></trkpt><trkpt lat="40.89529595334308" lon="8.743790093027654"><ele>184.0</ele><time>2026-05-02T08:42:24Z</time></trkpt><trkpt lat="40.89543173767732" lon="8.74375410457101"><ele>184.25</ele><time>2026-05-02T08:42:25Z</time></trkpt><trkpt lat="40.89556906377031" lon="8.743717316790606"><ele>184.5</ele><time>2026-05-02T08:42:26Z</time></trkpt><trkpt lat="40.89570830550039" lon="8.74367634330325"><ele>184.75</ele><time>2026-05-02T08:42:27Z</time></trkpt><trkpt lat="40.895850507352975" lon="8.743628733766696"><ele>185.0</ele><time>2026-05-02T08:42:28Z</time></trkpt><trkpt lat="40.895998770380345" lon="8.743582880228256"><ele>184.66666666666666</ele><time>2026-05-02T08:42:29Z</time></trkpt><trkpt lat="40.89615037531188" lon="8.743541985541464"><ele>184.33333333333334</ele><time>2026-05-02T08:42:30Z</time></trkpt><trkpt lat="40.89630425788099" lon="8.743500970356312"><ele>184.0</ele><time>2026-05-02T08:42:31Z</time></trkpt><trkpt lat="40.89645741392339" lon="8.743460232451845"><ele>184.0</ele><time>2026-05-02T08:42:32Z</time></trkpt><trkpt lat="40.89661054332705" lon="8.743418422970299"><ele>184.0</ele><time>2026-05-02T08:42:33Z</time></trkpt><trkpt lat="40.89676177122744" lon="8.743375920301206"><ele>184.0</ele><time>2026-05-02T08:42:34Z</time></trkpt><trkpt lat="40.896912430543615" lon="8.743337129308946"><ele>184.0</ele><time>2026-05-02T08:42:35Z</time></trkpt><trkpt lat="40.897065799207645" lon="8.74328857415543"><ele>184.0</ele><time>2026-05-02T08:42:36Z</time></trkpt><trkpt lat="40.89722195011778" lon="8.743240861347033"><ele>184.0</ele><time>2026-05-02T08:42:37Z</time></trkpt><trkpt lat="40.89738064966593" lon="8.743190267818626"><ele>184.0</ele><time>2026-05-02T08:42:38Z</time></trkpt><trkpt lat="40.8975371592142" lon="8.743127234298498"><ele>184.0</ele><time>2026-05-02T08:42:39Z</time></trkpt><trkpt lat="40.89769436915337" lon="8.743057771046765"><ele>184.0</ele><time>2026-05-02T08:42:40Z</time></trkpt><trkpt lat="40.89784874135743" lon="8.74296279136085"><ele>183.66666666666669</ele><time>2026-05-02T08:42:41Z</time></trkpt><trkpt lat="40.89800504627085" lon="8.7428521717621"><ele>183.33333333333334</ele><time>2026-05-02T08:42:42Z</time></trkpt><trkpt lat="40.8981600412913" lon="8.742743176316226"><ele>183.0</ele><time>2026-05-02T08:42:43Z</time></trkpt><trkpt lat="40.89831699286935" lon="8.742635168249276"><ele>183.0</ele><time>2026-05-02T08:42:44Z</time></trkpt><trkpt lat="40.89847407536673" lon="8.742534315432179"><ele>183.0</ele><time>2026-05-02T08:42:45Z</time></trkpt><trkpt lat="40.89863408674359" lon="8.742439211056796"><ele>183.0</ele><time>2026-05-02T08:42:46Z</time></trkpt><trkpt lat="40.89879696420838" lon="8.742352109040393"><ele>183.0</ele><time>2026-05-02T08:42:47Z</time></trkpt><trkpt lat="40.89896288311105" lon="8.742269813367972"><ele>183.0</ele><time>2026-05-02T08:42:48Z</time></trkpt><trkpt lat="40.8991300957006" lon="8.742189611289298"><ele>183.0</ele><time>2026-05-02T08:42:49Z</time></trkpt><trkpt lat="40.89929914668169" lon="8.74210850554967"><ele>185.33333333333334</ele><time>2026-05-02T08:42:50Z</time></trkpt><trkpt lat="40.899453223476755" lon="8.742032859077822"><ele>187.66666666666669</ele><time>2026-05-02T08:42:51Z</time></trkpt><trkpt lat="40.89961000161993" lon="8.741964993103359"><ele>190.0</ele><time>2026-05-02T08:42:52Z</time></trkpt><trkpt lat="40.89975995589497" lon="8.741898686884229"><ele>186.0</ele><time>2026-05-02T08:42:53Z</time></trkpt><trkpt lat="40.899911777198916" lon="8.741832552691172"><ele>182.0</ele><time>2026-05-02T08:42:54Z</time></trkpt><trkpt lat="40.90006010280146" lon="8.741759696264102"><ele>178.0</ele><time>2026-05-02T08:42:55Z</time></trkpt><trkpt lat="40.90021784131131" lon="8.741696356997233"><ele>177.5</ele><time>2026-05-02T08:42:56Z</time></trkpt><trkpt lat="40.90037095805917" lon="8.741624943230166"><ele>177.0</ele><time>2026-05-02T08:42:57Z</time></trkpt><trkpt lat="40.900515305852366" lon="8.741544934776599"><ele>176.5</ele><time>2026-05-02T08:42:58Z</time></trkpt><trkpt lat="40.900632529299514" lon="8.74147077636799"><ele>176.0</ele><time>2026-05-02T08:42:59Z</time></trkpt><trkpt lat="40.900735907109734" lon="8.74133982357495"><ele>176.0</ele><time>2026-05-02T08:43:00Z</time></trkpt><trkpt lat="40.90079889970185" lon="8.741173669144462"><ele>176.0</ele><time>2026-05-02T08:43:01Z</time></trkpt><trkpt lat="40.90084073514479" lon="8.740983579605329"><ele>176.0</ele><time>2026-05-02T08:43:02Z</time></trkpt><trkpt lat="40.90093919427089" lon="8.74083503525556"><ele>176.0</ele><time>2026-05-02T08:43:03Z</time></trkpt><trkpt lat="40.90105863129865" lon="8.740700562762356"><ele>171.0</ele><time>2026-05-02T08:43:04Z</time></trkpt><trkpt lat="40.90120193617979" lon="8.740562534099155"><ele>166.0</ele><time>2026-05-02T08:43:05Z</time></trkpt><trkpt lat="40.901333175573974" lon="8.740414088924007"><ele>161.0</ele><time>2026-05-02T08:43:06Z</time></trkpt><trkpt lat="40.901461600566584" lon="8.74029215916781"><ele>161.33333333333331</ele><time>2026-05-02T08:43:07Z</time></trkpt><trkpt lat="40.901568366162095" lon="8.740156755582747"><ele>161.66666666666666</ele><time>2026-05-02T08:43:08Z</time></trkpt><trkpt lat="40.90165846813052" lon="8.739996867578673"><ele>162.0</ele><time>2026-05-02T08:43:09Z</time></trkpt><trkpt lat="40.90175736254416" lon="8.739838477682184"><ele>161.0</ele><time>2026-05-02T08:43:10Z</time></trkpt><trkpt lat="40.90188005827581" lon="8.739713365073616"><ele>160.0</ele><time>2026-05-02T08:43:11Z</time></trkpt><trkpt lat="40.90199185507051" lon="8.739595468614521"><ele>159.0</ele><time>2026-05-02T08:43:12Z</time></trkpt><trkpt lat="40.902072674173105" lon="8.739440982877946"><ele>158.0</ele><time>2026-05-02T08:43:13Z</time></trkpt><trkpt lat="40.90213674668035" lon="8.739261338232543"><ele>158.0</ele><time>2026-05-02T08:43:14Z</time></trkpt><trkpt lat="40.90219660257121" lon="8.739108482976597"><ele>158.0</ele><time>2026-05-02T08:43:15Z</time></trkpt><trkpt lat="40.902269874152644" lon="8.738967211697839"><ele>158.0</ele><time>2026-05-02T08:43:16Z</time></trkpt><trkpt lat="40.90238156785124" lon="8.738884039246193"><ele>158.0</ele><time>2026-05-02T08:43:17Z</time></trkpt><trkpt lat="40.902505977119766" lon="8.738946554244418"><ele>157.0</ele><time>2026-05-02T08:43:18Z</time></trkpt><trkpt lat="40.90261982115753" lon="8.739009785608145"><ele>156.0</ele><time>2026-05-02T08:43:19Z</time></trkpt><trkpt lat="40.902727308817965" lon="8.739100387930883"><ele>155.0</ele><time>2026-05-02T08:43:20Z</time></trkpt><trkpt lat="40.902871883775035" lon="8.739158521387502"><ele>154.0</ele><time>2026-05-02T08:43:21Z</time></trkpt><trkpt lat="40.903015893875725" lon="8.739226735006826"><ele>154.0</ele><time>2026-05-02T08:43:22Z</time></trkpt><trkpt lat="40.90316959363204" lon="8.739208645258387"><ele>154.0</ele><time>2026-05-02T08:43:23Z</time></trkpt><trkpt lat="40.90332694674332" lon="8.739156022963032"><ele>154.0</ele><time>2026-05-02T08:43:24Z</time></trkpt><trkpt lat="40.903493235602014" lon="8.73909897473659"><ele>151.0</ele><time>2026-05-02T08:43:25Z</time></trkpt><trkpt lat="40.9036601586839" lon="8.739052734794994"><ele>148.0</ele><time>2026-05-02T08:43:26Z</time></trkpt><trkpt lat="40.90383748257867" lon="8.73903171076615"><ele>145.0</ele><time>2026-05-02T08:43:27Z</time></trkpt><trkpt lat="40.90401769078921" lon="8.739020007276359"><ele>145.0</ele><time>2026-05-02T08:43:28Z</time></trkpt><trkpt lat="40.90419953380169" lon="8.739008023153085"><ele>145.0</ele><time>2026-05-02T08:43:29Z</time></trkpt><trkpt lat="40.90438326634534" lon="8.738996873675093"><ele>145.0</ele><time>2026-05-02T08:43:30Z</time></trkpt><trkpt lat="40.90456823120706" lon="8.738983939313991"><ele>143.0</ele><time>2026-05-02T08:43:31Z</time></trkpt><trkpt lat="40.90475465967829" lon="8.738969262620337"><ele>141.0</ele><time>2026-05-02T08:43:32Z</time></trkpt><trkpt lat="40.9049378854924" lon="8.738953888367218"><ele>139.0</ele><time>2026-05-02T08:43:33Z</time></trkpt><trkpt lat="40.90511361790379" lon="8.738935142328842"><ele>136.66666666666669</ele><time>2026-05-02T08:43:34Z</time></trkpt><trkpt lat="40.90528588239086" lon="8.738902205947346"><ele>134.33333333333334</ele><time>2026-05-02T08:43:35Z</time></trkpt><trkpt lat="40.905451350278746" lon="8.738856269932409"><ele>132.0</ele><time>2026-05-02T08:43:36Z</time></trkpt><trkpt lat="40.905619246259434" lon="8.73881381215272"><ele>132.0</ele><time>2026-05-02T08:43:37Z</time></trkpt><trkpt lat="40.90578351008472" lon="8.73877302556528"><ele>132.0</ele><time>2026-05-02T08:43:38Z</time></trkpt><trkpt lat="40.90594528926217" lon="8.738734739932724"><ele>132.0</ele><time>2026-05-02T08:43:39Z</time></trkpt><trkpt lat="40.90609676058365" lon="8.73869049463675"><ele>135.66666666666666</ele><time>2026-05-02T08:43:40Z</time></trkpt><trkpt lat="40.90624085092796" lon="8.738625024922111"><ele>139.33333333333331</ele><time>2026-05-02T08:43:41Z</time></trkpt><trkpt lat="40.90637926797169" lon="8.738527290416435"><ele>143.0</ele><time>2026-05-02T08:43:42Z</time></trkpt><trkpt lat="40.906517935681194" lon="8.738415293604515"><ele>143.0</ele><time>2026-05-02T08:43:43Z</time></trkpt><trkpt lat="40.90666159689285" lon="8.738306445290382"><ele>143.0</ele><time>2026-05-02T08:43:44Z</time></trkpt><trkpt lat="40.90681717238778" lon="8.738234342508603"><ele>143.0</ele><time>2026-05-02T08:43:45Z</time></trkpt><trkpt lat="40.90697322248138" lon="8.73821919802536"><ele>139.0</ele><time>2026-05-02T08:43:46Z</time></trkpt><trkpt lat="40.907125799026204" lon="8.73820138518268"><ele>135.0</ele><time>2026-05-02T08:43:47Z</time></trkpt><trkpt lat="40.9072536912849" lon="8.738132248150952"><ele>131.0</ele><time>2026-05-02T08:43:48Z</time></trkpt><trkpt lat="40.907365819545" lon="8.738001314695426"><ele>127.0</ele><time>2026-05-02T08:43:49Z</time></trkpt><trkpt lat="40.90747025837005" lon="8.73786004656166"><ele>124.0</ele><time>2026-05-02T08:43:50Z</time></trkpt><trkpt lat="40.907598097855676" lon="8.737790637284192"><ele>121.0</ele><time>2026-05-02T08:43:51Z</time></trkpt><trkpt lat="40.90774023344738" lon="8.73776474278788"><ele>118.0</ele><time>2026-05-02T08:43:52Z</time></trkpt><trkpt lat="40.9078818069649" lon="8.737745455209055"><ele>115.0</ele><time>2026-05-02T08:43:53Z</time></trkpt><trkpt lat="40.908015752208904" lon="8.737755303723018"><ele>115.0</ele><time>2026-05-02T08:43:54Z</time></trkpt><trkpt lat="40.908142467487224" lon="8.737758211365458"><ele>115.0</ele><time>2026-05-02T08:43:55Z</time></trkpt><trkpt lat="40.908264765854824" lon="8.737759756827263"><ele>115.0</ele><time>2026-05-02T08:43:56Z</time></trkpt><trkpt lat="40.90838421622822" lon="8.737761150358233"><ele>115.0</ele><time>2026-05-02T08:43:57Z</time></trkpt><trkpt lat="40.90849970517689" lon="8.737767283801512"><ele>113.4</ele><time>2026-05-02T08:43:58Z</time></trkpt><trkpt lat="40.90861406472345" lon="8.73777510609049"><ele>111.8</ele><time>2026-05-02T08:43:59Z</time></trkpt><trkpt lat="40.90872462644266" lon="8.737785796449582"><ele>110.19999999999999</ele><time>2026-05-02T08:44:00Z</time></trkpt><trkpt lat="40.908834687559406" lon="8.73779246981642"><ele>108.6</ele><time>2026-05-02T08:44:01Z</time></trkpt><trkpt lat="40.90894628342524" lon="8.737789232672869"><ele>107.0</ele><time>2026-05-02T08:44:02Z</time></trkpt><trkpt lat="40.9090588010963" lon="8.737771860051652"><ele>107.0</ele><time>2026-05-02T08:44:03Z</time></trkpt><trkpt lat="40.90917132434793" lon="8.737729110820682"><ele>107.0</ele><time>2026-05-02T08:44:04Z</time></trkpt><trkpt lat="40.90928183503463" lon="8.737670485042003"><ele>107.0</ele><time>2026-05-02T08:44:05Z</time></trkpt><trkpt lat="40.90939151151796" lon="8.737611105427504"><ele>107.0</ele><time>2026-05-02T08:44:06Z</time></trkpt><trkpt lat="40.909502107610024" lon="8.737554451077541"><ele>109.75</ele><time>2026-05-02T08:44:07Z</time></trkpt><trkpt lat="40.90961658977929" lon="8.737512710049234"><ele>112.5</ele><time>2026-05-02T08:44:08Z</time></trkpt><trkpt lat="40.90973368151413" lon="8.737483122312721"><ele>115.25</ele><time>2026-05-02T08:44:09Z</time></trkpt><trkpt lat="40.90984780340414" lon="8.737443544938124"><ele>118.0</ele><time>2026-05-02T08:44:10Z</time></trkpt><trkpt lat="40.90994948445451" lon="8.737361027413995"><ele>118.0</ele><time>2026-05-02T08:44:11Z</time></trkpt><trkpt lat="40.91003442475423" lon="8.737241193743516"><ele>118.0</ele><time>2026-05-02T08:44:12Z</time></trkpt><trkpt lat="40.91011436201331" lon="8.737120872424262"><ele>118.0</ele><time>2026-05-02T08:44:13Z</time></trkpt><trkpt lat="40.91019311024703" lon="8.73701154622057"><ele>118.0</ele><time>2026-05-02T08:44:14Z</time></trkpt><trkpt lat="40.910271670814566" lon="8.736908338739095"><ele>115.2</ele><time>2026-05-02T08:44:15Z</time></trkpt><trkpt lat="40.910347677871854" lon="8.736808411706638"><ele>112.4</ele><time>2026-05-02T08:44:16Z</time></trkpt><trkpt lat="40.910418324690504" lon="8.73670976322555"><ele>109.60000000000001</ele><time>2026-05-02T08:44:17Z</time></trkpt><trkpt lat="40.91047932600896" lon="8.73661150912871"><ele>106.80000000000001</ele><time>2026-05-02T08:44:18Z</time></trkpt><trkpt lat="40.910531922055824" lon="8.736501796818763"><ele>104.0</ele><time>2026-05-02T08:44:19Z</time></trkpt><trkpt lat="40.910584346335185" lon="8.736391819222735"><ele>104.0</ele><time>2026-05-02T08:44:20Z</time></trkpt><trkpt lat="40.91062756541816" lon="8.736276963317188"><ele>104.0</ele><time>2026-05-02T08:44:21Z</time></trkpt><trkpt lat="40.910679705971276" lon="8.73616262502437"><ele>104.0</ele><time>2026-05-02T08:44:22Z</time></trkpt><trkpt lat="40.9107460019792" lon="8.736051589229264"><ele>104.0</ele><time>2026-05-02T08:44:23Z</time></trkpt><trkpt lat="40.91082267668763" lon="8.735941280945653"><ele>104.0</ele><time>2026-05-02T08:44:24Z</time></trkpt><trkpt lat="40.910907882668376" lon="8.73583295602228"><ele>102.25</ele><time>2026-05-02T08:44:25Z</time></trkpt><trkpt lat="40.91099708883826" lon="8.735723080472155"><ele>100.5</ele><time>2026-05-02T08:44:26Z</time></trkpt><trkpt lat="40.91108567509293" lon="8.735607519336174"><ele>98.75</ele><time>2026-05-02T08:44:27Z</time></trkpt><trkpt lat="40.91116565309351" lon="8.735476946078988"><ele>97.0</ele><time>2026-05-02T08:44:28Z</time></trkpt><trkpt lat="40.911240480407486" lon="8.735338102442403"><ele>100.5</ele><time>2026-05-02T08:44:29Z</time></trkpt><trkpt lat="40.911303602387875" lon="8.735196097812498"><ele>104.0</ele><time>2026-05-02T08:44:30Z</time></trkpt><trkpt lat="40.91135890173941" lon="8.735061605117966"><ele>107.5</ele><time>2026-05-02T08:44:31Z</time></trkpt><trkpt lat="40.91140401190412" lon="8.73492242265055"><ele>111.0</ele><time>2026-05-02T08:44:32Z</time></trkpt><trkpt lat="40.91142945400607" lon="8.734773947883635"><ele>111.0</ele><time>2026-05-02T08:44:33Z</time></trkpt><trkpt lat="40.91142277138273" lon="8.73462158249595"><ele>111.0</ele><time>2026-05-02T08:44:34Z</time></trkpt><trkpt lat="40.9113993884976" lon="8.734473570490932"><ele>111.0</ele><time>2026-05-02T08:44:35Z</time></trkpt><trkpt lat="40.91131921572964" lon="8.734349383064064"><ele>111.0</ele><time>2026-05-02T08:44:36Z</time></trkpt><trkpt lat="40.911247754478524" lon="8.734222823764913"><ele>111.0</ele><time>2026-05-02T08:44:37Z</time></trkpt><trkpt lat="40.91119684355761" lon="8.734084907531392"><ele>111.0</ele><time>2026-05-02T08:44:38Z</time></trkpt><trkpt lat="40.911139163335534" lon="8.733973578186863"><ele>111.0</ele><time>2026-05-02T08:44:39Z</time></trkpt><trkpt lat="40.91107775010869" lon="8.73386321233268"><ele>111.0</ele><time>2026-05-02T08:44:40Z</time></trkpt><trkpt lat="40.91099221992683" lon="8.733785241513287"><ele>111.0</ele><time>2026-05-02T08:44:41Z</time></trkpt><trkpt lat="40.91089538727633" lon="8.733727965895987"><ele>110.4</ele><time>2026-05-02T08:44:42Z</time></trkpt><trkpt lat="40.91079255242428" lon="8.733666422810133"><ele>109.8</ele><time>2026-05-02T08:44:43Z</time></trkpt><trkpt lat="40.910685614715135" lon="8.733608794211294"><ele>109.20000000000002</ele><time>2026-05-02T08:44:44Z</time></trkpt><trkpt lat="40.91059115718367" lon="8.733524773845424"><ele>108.60000000000001</ele><time>2026-05-02T08:44:45Z</time></trkpt><trkpt lat="40.91050943690975" lon="8.73343454464453"><ele>108.0</ele><time>2026-05-02T08:44:46Z</time></trkpt><trkpt lat="40.91048242623798" lon="8.733283528596454"><ele>106.5</ele><time>2026-05-02T08:44:47Z</time></trkpt><trkpt lat="40.91045572375545" lon="8.733133184071212"><ele>105.0</ele><time>2026-05-02T08:44:48Z</time></trkpt><trkpt lat="40.91041516617594" lon="8.732982795213587"><ele>103.5</ele><time>2026-05-02T08:44:49Z</time></trkpt><trkpt lat="40.910389063738755" lon="8.732835740426722"><ele>102.0</ele><time>2026-05-02T08:44:50Z</time></trkpt><trkpt lat="40.91035187757595" lon="8.73271272577051"><ele>101.19999999999999</ele><time>2026-05-02T08:44:51Z</time></trkpt><trkpt lat="40.910316126890784" lon="8.732593949152836"><ele>100.4</ele><time>2026-05-02T08:44:52Z</time></trkpt><trkpt lat="40.910263210316174" lon="8.732475607579374"><ele>99.6</ele><time>2026-05-02T08:44:53Z</time></trkpt><trkpt lat="40.91022344359942" lon="8.73234169158455"><ele>98.80000000000001</ele><time>2026-05-02T08:44:54Z</time></trkpt><trkpt lat="40.91018902860022" lon="8.732197027193237"><ele>98.0</ele><time>2026-05-02T08:44:55Z</time></trkpt><trkpt lat="40.91017294893511" lon="8.73205127470767"><ele>98.0</ele><time>2026-05-02T08:44:56Z</time></trkpt><trkpt lat="40.910168219732824" lon="8.731911889648618"><ele>98.0</ele><time>2026-05-02T08:44:57Z</time></trkpt><trkpt lat="40.91014491738725" lon="8.73177446972843"><ele>98.0</ele><time>2026-05-02T08:44:58Z</time></trkpt><trkpt lat="40.9100896819724" lon="8.731653479569063"><ele>98.0</ele><time>2026-05-02T08:44:59Z</time></trkpt><trkpt lat="40.91000693665458" lon="8.731557358079998"><ele>98.0</ele><time>2026-05-02T08:45:00Z</time></trkpt><trkpt lat="40.90992782114574" lon="8.73145753651762"><ele>98.5</ele><time>2026-05-02T08:45:01Z</time></trkpt><trkpt lat="40.909914298359936" lon="8.731307059667047"><ele>99.0</ele><time>2026-05-02T08:45:02Z</time></trkpt><trkpt lat="40.90991265858226" lon="8.731158009443492"><ele>99.5</ele><time>2026-05-02T08:45:03Z</time></trkpt><trkpt lat="40.909954391694264" lon="8.731012315481731"><ele>100.0</ele><time>2026-05-02T08:45:04Z</time></trkpt><trkpt lat="40.91003545821648" lon="8.730890231584858"><ele>94.0</ele><time>2026-05-02T08:45:05Z</time></trkpt><trkpt lat="40.91012850127604" lon="8.730769802247227"><ele>88.0</ele><time>2026-05-02T08:45:06Z</time></trkpt><trkpt lat="40.91019428263885" lon="8.73062753709978"><ele>82.0</ele><time>2026-05-02T08:45:07Z</time></trkpt><trkpt lat="40.91023866322124" lon="8.730466102867474"><ele>76.0</ele><time>2026-05-02T08:45:08Z</time></trkpt><trkpt lat="40.91027516443041" lon="8.73030872284965"><ele>77.19999999999999</ele><time>2026-05-02T08:45:09Z</time></trkpt><trkpt lat="40.910351278078444" lon="8.730197444387622"><ele>78.39999999999999</ele><time>2026-05-02T08:45:10Z</time></trkpt><trkpt lat="40.910416138298466" lon="8.730079769068997"><ele>79.6</ele><time>2026-05-02T08:45:11Z</time></trkpt><trkpt lat="40.91051564028254" lon="8.730009474674485"><ele>80.8</ele><time>2026-05-02T08:45:12Z</time></trkpt><trkpt lat="40.91061390804766" lon="8.729955628082704"><ele>82.0</ele><time>2026-05-02T08:45:13Z</time></trkpt><trkpt lat="40.91070670482331" lon="8.72990569711111"><ele>82.0</ele><time>2026-05-02T08:45:14Z</time></trkpt><trkpt lat="40.91079233115387" lon="8.729834835490392"><ele>82.0</ele><time>2026-05-02T08:45:15Z</time></trkpt><trkpt lat="40.910870925929785" lon="8.72973215999256"><ele>82.0</ele><time>2026-05-02T08:45:16Z</time></trkpt><trkpt lat="40.910948928498065" lon="8.729617775110565"><ele>82.0</ele><time>2026-05-02T08:45:17Z</time></trkpt><trkpt lat="40.91102249855553" lon="8.729504624198828"><ele>82.0</ele><time>2026-05-02T08:45:18Z</time></trkpt><trkpt lat="40.91109363683515" lon="8.72939630096726"><ele>77.0</ele><time>2026-05-02T08:45:19Z</time></trkpt><trkpt lat="40.911164861277484" lon="8.729289427756225"><ele>72.0</ele><time>2026-05-02T08:45:20Z</time></trkpt><trkpt lat="40.911224721432674" lon="8.729162562719207"><ele>67.0</ele><time>2026-05-02T08:45:21Z</time></trkpt><trkpt lat="40.91126783464039" lon="8.729019791337006"><ele>62.0</ele><time>2026-05-02T08:45:22Z</time></trkpt><trkpt lat="40.911285383688835" lon="8.728866964881062"><ele>62.0</ele><time>2026-05-02T08:45:23Z</time></trkpt><trkpt lat="40.91128290754026" lon="8.728718991983746"><ele>62.0</ele><time>2026-05-02T08:45:24Z</time></trkpt><trkpt lat="40.91126530881128" lon="8.728576785647874"><ele>62.0</ele><time>2026-05-02T08:45:25Z</time></trkpt><trkpt lat="40.91122286125354" lon="8.728443184209754"><ele>62.0</ele><time>2026-05-02T08:45:26Z</time></trkpt><trkpt lat="40.91117847596441" lon="8.728317595704008"><ele>62.0</ele><time>2026-05-02T08:45:27Z</time></trkpt><trkpt lat="40.91113602158715" lon="8.728201207407725"><ele>62.00000000000001</ele><time>2026-05-02T08:45:28Z</time></trkpt><trkpt lat="40.911089489139314" lon="8.728094825100774"><ele>62.0</ele><time>2026-05-02T08:45:29Z</time></trkpt><trkpt lat="40.91105082115913" lon="8.727989240573372"><ele>62.0</ele><time>2026-05-02T08:45:30Z</time></trkpt><trkpt lat="40.91100972195452" lon="8.727887437806906"><ele>62.0</ele><time>2026-05-02T08:45:31Z</time></trkpt><trkpt lat="40.91097199907192" lon="8.72778208833858"><ele>62.00000000000001</ele><time>2026-05-02T08:45:32Z</time></trkpt><trkpt lat="40.91093220020066" lon="8.727672947377345"><ele>62.0</ele><time>2026-05-02T08:45:33Z</time></trkpt><trkpt lat="40.910893209441696" lon="8.72756975213973"><ele>61.8</ele><time>2026-05-02T08:45:34Z</time></trkpt><trkpt lat="40.910860825752344" lon="8.727458356522602"><ele>61.6</ele><time>2026-05-02T08:45:35Z</time></trkpt><trkpt lat="40.910845331189755" lon="8.727325090245184"><ele>61.39999999999999</ele><time>2026-05-02T08:45:36Z</time></trkpt><trkpt lat="40.9108492654529" lon="8.727173541849515"><ele>61.199999999999996</ele><time>2026-05-02T08:45:37Z</time></trkpt><trkpt lat="40.91087064233558" lon="8.72701620544243"><ele>61.0</ele><time>2026-05-02T08:45:38Z</time></trkpt><trkpt lat="40.910918803909404" lon="8.726856729724183"><ele>61.0</ele><time>2026-05-02T08:45:39Z</time></trkpt><trkpt lat="40.9110103930147" lon="8.726720982152374"><ele>61.0</ele><time>2026-05-02T08:45:40Z</time></trkpt><trkpt lat="40.911100264637604" lon="8.726593079439557"><ele>61.0</ele><time>2026-05-02T08:45:41Z</time></trkpt><trkpt lat="40.911203483872214" lon="8.726495683730647"><ele>61.0</ele><time>2026-05-02T08:45:42Z</time></trkpt><trkpt lat="40.911306660367906" lon="8.726419058418664"><ele>61.0</ele><time>2026-05-02T08:45:43Z</time></trkpt><trkpt lat="40.91140330448747" lon="8.726325846968434"><ele>61.0</ele><time>2026-05-02T08:45:44Z</time></trkpt><trkpt lat="40.91148128725016" lon="8.726198278441188"><ele>61.0</ele><time>2026-05-02T08:45:45Z</time></trkpt><trkpt lat="40.91152920373485" lon="8.726036732213492"><ele>61.0</ele><time>2026-05-02T08:45:46Z</time></trkpt><trkpt lat="40.91155242688212" lon="8.725869124191373"><ele>61.0</ele><time>2026-05-02T08:45:47Z</time></trkpt><trkpt lat="40.91154003468329" lon="8.725690577443372"><ele>61.0</ele><time>2026-05-02T08:45:48Z</time></trkpt><trkpt lat="40.91153233220636" lon="8.725515340507682"><ele>61.0</ele><time>2026-05-02T08:45:49Z</time></trkpt><trkpt lat="40.91152238748143" lon="8.725346781534695"><ele>61.0</ele><time>2026-05-02T08:45:50Z</time></trkpt><trkpt lat="40.91151320652305" lon="8.725195214534795"><ele>61.0</ele><time>2026-05-02T08:45:51Z</time></trkpt><trkpt lat="40.91150547113425" lon="8.725047120417877"><ele>60.99999999999999</ele><time>2026-05-02T08:45:52Z</time></trkpt><trkpt lat="40.91149947660686" lon="8.724904095208435"><ele>60.99999999999999</ele><time>2026-05-02T08:45:53Z</time></trkpt><trkpt lat="40.91149379205366" lon="8.724766599629612"><ele>61.0</ele><time>2026-05-02T08:45:54Z</time></trkpt><trkpt lat="40.91148783398497" lon="8.724634321498575"><ele>61.0</ele><time>2026-05-02T08:45:55Z</time></trkpt><trkpt lat="40.911465940045716" lon="8.7245115532148"><ele>61.0</ele><time>2026-05-02T08:45:56Z</time></trkpt><trkpt lat="40.91142853713067" lon="8.724397662636223"><ele>60.99999999999999</ele><time>2026-05-02T08:45:57Z</time></trkpt><trkpt lat="40.91137170386511" lon="8.72429595580558"><ele>60.99999999999999</ele><time>2026-05-02T08:45:58Z</time></trkpt><trkpt lat="40.911294080467485" lon="8.72420125624208"><ele>61.0</ele><time>2026-05-02T08:45:59Z</time></trkpt><trkpt lat="40.91119873133921" lon="8.724131241259855"><ele>61.0</ele><time>2026-05-02T08:46:00Z</time></trkpt><trkpt lat="40.91111495707677" lon="8.724030006795562"><ele>59.0</ele><time>2026-05-02T08:46:01Z</time></trkpt><trkpt lat="40.91102904631308" lon="8.723953035025897"><ele>57.0</ele><time>2026-05-02T08:46:02Z</time></trkpt><trkpt lat="40.910984320353954" lon="8.723800385358748"><ele>55.0</ele><time>2026-05-02T08:46:03Z</time></trkpt><trkpt lat="40.9109962586709" lon="8.723654683749528"><ele>53.0</ele><time>2026-05-02T08:46:04Z</time></trkpt><trkpt lat="40.91101470674973" lon="8.723496430895198"><ele>52.25</ele><time>2026-05-02T08:46:05Z</time></trkpt><trkpt lat="40.91105173672988" lon="8.723341965317191"><ele>51.5</ele><time>2026-05-02T08:46:06Z</time></trkpt><trkpt lat="40.91108748775482" lon="8.723179714427687"><ele>50.75</ele><time>2026-05-02T08:46:07Z</time></trkpt><trkpt lat="40.911120066732295" lon="8.723020569798415"><ele>50.0</ele><time>2026-05-02T08:46:08Z</time></trkpt><trkpt lat="40.91114749485081" lon="8.722867866398525"><ele>50.2</ele><time>2026-05-02T08:46:09Z</time></trkpt><trkpt lat="40.91114943847248" lon="8.722725574237312"><ele>50.4</ele><time>2026-05-02T08:46:10Z</time></trkpt><trkpt lat="40.91117146374883" lon="8.72259659427699"><ele>50.599999999999994</ele><time>2026-05-02T08:46:11Z</time></trkpt><trkpt lat="40.91118430354913" lon="8.722474774095787"><ele>50.8</ele><time>2026-05-02T08:46:12Z</time></trkpt><trkpt lat="40.91119038693182" lon="8.722359797717829"><ele>51.0</ele><time>2026-05-02T08:46:13Z</time></trkpt><trkpt lat="40.91119992016985" lon="8.722242118970227"><ele>51.0</ele><time>2026-05-02T08:46:14Z</time></trkpt><trkpt lat="40.91120931627753" lon="8.72212023624416"><ele>51.0</ele><time>2026-05-02T08:46:15Z</time></trkpt><trkpt lat="40.911219784961986" lon="8.72199249744741"><ele>51.0</ele><time>2026-05-02T08:46:16Z</time></trkpt><trkpt lat="40.91123311461574" lon="8.721857470985364"><ele>51.0</ele><time>2026-05-02T08:46:17Z</time></trkpt><trkpt lat="40.911246251693136" lon="8.721714702086052"><ele>51.0</ele><time>2026-05-02T08:46:18Z</time></trkpt><trkpt lat="40.911259203540105" lon="8.721563867101729"><ele>51.5</ele><time>2026-05-02T08:46:19Z</time></trkpt><trkpt lat="40.91127388570058" lon="8.721404949563722"><ele>52.0</ele><time>2026-05-02T08:46:20Z</time></trkpt><trkpt lat="40.91128864393152" lon="8.721244677711802"><ele>52.5</ele><time>2026-05-02T08:46:21Z</time></trkpt><trkpt lat="40.91130452500548" lon="8.721076274599062"><ele>53.0</ele><time>2026-05-02T08:46:22Z</time></trkpt><trkpt lat="40.911322801922225" lon="8.72090625839353"><ele>53.75</ele><time>2026-05-02T08:46:23Z</time></trkpt><trkpt lat="40.91133992673294" lon="8.720734030240774"><ele>54.5</ele><time>2026-05-02T08:46:24Z</time></trkpt><trkpt lat="40.91135181589023" lon="8.720559138554659"><ele>55.25</ele><time>2026-05-02T08:46:25Z</time></trkpt><trkpt lat="40.91136432356602" lon="8.720401678324205"><ele>56.0</ele><time>2026-05-02T08:46:26Z</time></trkpt><trkpt lat="40.9113759540323" lon="8.720262924814826"><ele>55.599999999999994</ele><time>2026-05-02T08:46:27Z</time></trkpt><trkpt lat="40.911386011762836" lon="8.720129387540604"><ele>55.199999999999996</ele><time>2026-05-02T08:46:28Z</time></trkpt><trkpt lat="40.91139656479884" lon="8.719993946171105"><ele>54.800000000000004</ele><time>2026-05-02T08:46:29Z</time></trkpt><trkpt lat="40.91140655355744" lon="8.71986884439439"><ele>54.400000000000006</ele><time>2026-05-02T08:46:30Z</time></trkpt><trkpt lat="40.91141843560774" lon="8.719755445537112"><ele>54.0</ele><time>2026-05-02T08:46:31Z</time></trkpt><trkpt lat="40.91142797605336" lon="8.719648168026334"><ele>54.0</ele><time>2026-05-02T08:46:32Z</time></trkpt><trkpt lat="40.91143697519394" lon="8.71954673578412"><ele>54.0</ele><time>2026-05-02T08:46:33Z</time></trkpt><trkpt lat="40.91144039005095" lon="8.719449267872632"><ele>54.0</ele><time>2026-05-02T08:46:34Z</time></trkpt><trkpt lat="40.91146229526592" lon="8.719350612447867"><ele>54.0</ele><time>2026-05-02T08:46:35Z</time></trkpt><trkpt lat="40.911467063246405" lon="8.719243567620865"><ele>54.0</ele><time>2026-05-02T08:46:36Z</time></trkpt><trkpt lat="40.911467851819374" lon="8.719134352734908"><ele>54.0</ele><time>2026-05-02T08:46:37Z</time></trkpt><trkpt lat="40.91154092347192" lon="8.719053850665754"><ele>54.0</ele><time>2026-05-02T08:46:38Z</time></trkpt><trkpt lat="40.91156868235789" lon="8.718954153513819"><ele>54.0</ele><time>2026-05-02T08:46:39Z</time></trkpt><trkpt lat="40.91157775639487" lon="8.718847452856098"><ele>54.0</ele><time>2026-05-02T08:46:40Z</time></trkpt><trkpt lat="40.911526245922204" lon="8.718742714413057"><ele>54.0</ele><time>2026-05-02T08:46:41Z</time></trkpt><trkpt lat="40.911523853153625" lon="8.7186517934438"><ele>54.0</ele><time>2026-05-02T08:46:42Z</time></trkpt><trkpt lat="40.91154247165549" lon="8.718501307154416"><ele>54.0</ele><time>2026-05-02T08:46:44Z</time></trkpt><trkpt lat="40.91156423288094" lon="8.718363838982835"><ele>54.0</ele><time>2026-05-02T08:46:46Z</time></trkpt><trkpt lat="40.91158598766374" lon="8.718205641507053"><ele>54.0</ele><time>2026-05-02T08:46:48Z</time></trkpt><trkpt lat="40.91161976305846" lon="8.7181280786857"><ele>54.0</ele><time>2026-05-02T08:46:49Z</time></trkpt><trkpt lat="40.91162548490073" lon="8.7180298198796"><ele>54.0</ele><time>2026-05-02T08:46:50Z</time></trkpt><trkpt lat="40.91166970502887" lon="8.717942365227133"><ele>54.0</ele><time>2026-05-02T08:46:51Z</time></trkpt><trkpt lat="40.91169264825878" lon="8.717837146407772"><ele>54.0</ele><time>2026-05-02T08:46:52Z</time></trkpt><trkpt lat="40.91173528006074" lon="8.717740629849304"><ele>50.0</ele><time>2026-05-02T08:46:53Z</time></trkpt><trkpt lat="40.91178329678063" lon="8.717646525050057"><ele>46.00000000000001</ele><time>2026-05-02T08:46:54Z</time></trkpt><trkpt lat="40.911833356243044" lon="8.717552082202438"><ele>42.0</ele><time>2026-05-02T08:46:55Z</time></trkpt><trkpt lat="40.91188662482191" lon="8.717460541190428"><ele>38.0</ele><time>2026-05-02T08:46:56Z</time></trkpt><trkpt lat="40.91195052482077" lon="8.717368945959613"><ele>34.0</ele><time>2026-05-02T08:46:57Z</time></trkpt><trkpt lat="40.91201842709558" lon="8.717279690570646"><ele>34.0</ele><time>2026-05-02T08:46:58Z</time></trkpt><trkpt lat="40.912094207788236" lon="8.71718354422001"><ele>34.0</ele><time>2026-05-02T08:46:59Z</time></trkpt><trkpt lat="40.91217385507635" lon="8.717081795705095"><ele>34.0</ele><time>2026-05-02T08:47:00Z</time></trkpt><trkpt lat="40.91225407968566" lon="8.71696400316903"><ele>34.0</ele><time>2026-05-02T08:47:01Z</time></trkpt><trkpt lat="40.912326097117436" lon="8.716830740524264"><ele>36.5</ele><time>2026-05-02T08:47:02Z</time></trkpt><trkpt lat="40.9123889491024" lon="8.71668506947379"><ele>39.0</ele><time>2026-05-02T08:47:03Z</time></trkpt><trkpt lat="40.912446089643964" lon="8.716531014080187"><ele>41.5</ele><time>2026-05-02T08:47:04Z</time></trkpt><trkpt lat="40.9125037135028" lon="8.716383249333132"><ele>44.0</ele><time>2026-05-02T08:47:05Z</time></trkpt><trkpt lat="40.91254704857836" lon="8.716255005536697"><ele>40.400000000000006</ele><time>2026-05-02T08:47:06Z</time></trkpt><trkpt lat="40.9125880387117" lon="8.716135902705872"><ele>36.800000000000004</ele><time>2026-05-02T08:47:07Z</time></trkpt><trkpt lat="40.912621120013355" lon="8.716016646522524"><ele>33.2</ele><time>2026-05-02T08:47:08Z</time></trkpt><trkpt lat="40.91263877958777" lon="8.715894784526602"><ele>29.6</ele><time>2026-05-02T08:47:09Z</time></trkpt><trkpt lat="40.912641148678" lon="8.71576942568262"><ele>26.0</ele><time>2026-05-02T08:47:10Z</time></trkpt><trkpt lat="40.912648751202866" lon="8.715647184428615"><ele>25.999999999999996</ele><time>2026-05-02T08:47:11Z</time></trkpt><trkpt lat="40.91263251049644" lon="8.715517719133965"><ele>26.0</ele><time>2026-05-02T08:47:12Z</time></trkpt><trkpt lat="40.912628898341005" lon="8.71540467795567"><ele>26.0</ele><time>2026-05-02T08:47:13Z</time></trkpt><trkpt lat="40.91262621376228" lon="8.715297270823527"><ele>26.0</ele><time>2026-05-02T08:47:14Z</time></trkpt><trkpt lat="40.912624648636154" lon="8.715195333491625"><ele>25.999999999999996</ele><time>2026-05-02T08:47:15Z</time></trkpt><trkpt lat="40.91262511135184" lon="8.71510026835403"><ele>26.0</ele><time>2026-05-02T08:47:16Z</time></trkpt><trkpt lat="40.91262531432656" lon="8.715008396762196"><ele>26.499999999999996</ele><time>2026-05-02T08:47:17Z</time></trkpt><trkpt lat="40.91262413960641" lon="8.7149158123957"><ele>27.0</ele><time>2026-05-02T08:47:18Z</time></trkpt><trkpt lat="40.91262512576805" lon="8.714815769589721"><ele>27.5</ele><time>2026-05-02T08:47:19Z</time></trkpt><trkpt lat="40.91262740933818" lon="8.714713023397614"><ele>28.0</ele><time>2026-05-02T08:47:20Z</time></trkpt><trkpt lat="40.91262980942076" lon="8.714606734153474"><ele>28.499999999999996</ele><time>2026-05-02T08:47:21Z</time></trkpt><trkpt lat="40.91263666979891" lon="8.71450352053332"><ele>29.0</ele><time>2026-05-02T08:47:22Z</time></trkpt><trkpt lat="40.9126449014212" lon="8.714408951160983"><ele>30.2</ele><time>2026-05-02T08:47:23Z</time></trkpt><trkpt lat="40.91265343670682" lon="8.714318313388496"><ele>31.4</ele><time>2026-05-02T08:47:24Z</time></trkpt><trkpt lat="40.91266258409845" lon="8.714232893762075"><ele>32.6</ele><time>2026-05-02T08:47:25Z</time></trkpt><trkpt lat="40.9126771973225" lon="8.714083605748156"><ele>33.8</ele><time>2026-05-02T08:47:27Z</time></trkpt><trkpt lat="40.91270277385809" lon="8.713918691736119"><ele>35.0</ele><time>2026-05-02T08:47:29Z</time></trkpt><trkpt lat="40.91271931964449" lon="8.713812016122692"><ele>35.0</ele><time>2026-05-02T08:47:30Z</time></trkpt><trkpt lat="40.9127358779743" lon="8.713687460562332"><ele>35.0</ele><time>2026-05-02T08:47:31Z</time></trkpt><trkpt lat="40.91275378202861" lon="8.713555087707451"><ele>35.0</ele><time>2026-05-02T08:47:32Z</time></trkpt><trkpt lat="40.91276662953019" lon="8.713443450118339"><ele>35.0</ele><time>2026-05-02T08:47:33Z</time></trkpt><trkpt lat="40.91278478129001" lon="8.713342368849467"><ele>35.0</ele><time>2026-05-02T08:47:34Z</time></trkpt><trkpt lat="40.91281359514729" lon="8.713233501011452"><ele>35.0</ele><time>2026-05-02T08:47:35Z</time></trkpt><trkpt lat="40.91285886593055" lon="8.713121873188625"><ele>36.285714285714285</ele><time>2026-05-02T08:47:36Z</time></trkpt><trkpt lat="40.912912234717595" lon="8.713034194342557"><ele>37.57142857142857</ele><time>2026-05-02T08:47:37Z</time></trkpt><trkpt lat="40.912966367809595" lon="8.712967957182205"><ele>38.85714285714286</ele><time>2026-05-02T08:47:38Z</time></trkpt><trkpt lat="40.913020085632226" lon="8.712920906342436"><ele>40.14285714285714</ele><time>2026-05-02T08:47:39Z</time></trkpt><trkpt lat="40.913078397398124" lon="8.712878548423019"><ele>41.42857142857143</ele><time>2026-05-02T08:47:40Z</time></trkpt><trkpt lat="40.91314381837551" lon="8.712843910600611"><ele>42.714285714285715</ele><time>2026-05-02T08:47:41Z</time></trkpt><trkpt lat="40.91321206374401" lon="8.712815889137346"><ele>44.0</ele><time>2026-05-02T08:47:42Z</time></trkpt><trkpt lat="40.91328249731415" lon="8.712797361356916"><ele>44.0</ele><time>2026-05-02T08:47:43Z</time></trkpt><trkpt lat="40.91334702788813" lon="8.71278803722383"><ele>44.0</ele><time>2026-05-02T08:47:44Z</time></trkpt><trkpt lat="40.91344735148586" lon="8.712786209507213"><ele>44.0</ele><time>2026-05-02T08:47:46Z</time></trkpt><trkpt lat="40.913541430626964" lon="8.712738583390863"><ele>44.0</ele><time>2026-05-02T08:47:48Z</time></trkpt><trkpt lat="40.913594295867846" lon="8.712596533359864"><ele>44.0</ele><time>2026-05-02T08:47:50Z</time></trkpt><trkpt lat="40.91362260655978" lon="8.71244047107517"><ele>45.0</ele><time>2026-05-02T08:47:52Z</time></trkpt><trkpt lat="40.91366082951841" lon="8.712284701183984"><ele>46.0</ele><time>2026-05-02T08:47:54Z</time></trkpt><trkpt lat="40.91368198438959" lon="8.712200386692764"><ele>47.0</ele><time>2026-05-02T08:47:55Z</time></trkpt><trkpt lat="40.91372063400333" lon="8.712120661676618"><ele>48.0</ele><time>2026-05-02T08:47:56Z</time></trkpt><trkpt lat="40.91375123049788" lon="8.712021971489332"><ele>49.00000000000001</ele><time>2026-05-02T08:47:57Z</time></trkpt><trkpt lat="40.91376925476901" lon="8.711914181799278"><ele>50.0</ele><time>2026-05-02T08:47:58Z</time></trkpt><trkpt lat="40.91380642200274" lon="8.711809123074731"><ele>50.0</ele><time>2026-05-02T08:47:59Z</time></trkpt><trkpt lat="40.913842565847645" lon="8.711695934431845"><ele>50.0</ele><time>2026-05-02T08:48:00Z</time></trkpt><trkpt lat="40.91387862498295" lon="8.711575897026123"><ele>50.0</ele><time>2026-05-02T08:48:01Z</time></trkpt><trkpt lat="40.91391890187309" lon="8.71145204090285"><ele>50.0</ele><time>2026-05-02T08:48:02Z</time></trkpt><trkpt lat="40.91395865013789" lon="8.71131733353665"><ele>50.0</ele><time>2026-05-02T08:48:03Z</time></trkpt><trkpt lat="40.91400743649725" lon="8.71118183193062"><ele>49.2</ele><time>2026-05-02T08:48:04Z</time></trkpt><trkpt lat="40.91405239202292" lon="8.711050044180396"><ele>48.4</ele><time>2026-05-02T08:48:05Z</time></trkpt><trkpt lat="40.914099397023996" lon="8.710930516152892"><ele>47.599999999999994</ele><time>2026-05-02T08:48:06Z</time></trkpt><trkpt lat="40.91415154565291" lon="8.710817852738323"><ele>46.8</ele><time>2026-05-02T08:48:07Z</time></trkpt><trkpt lat="40.91420713766964" lon="8.710707406152732"><ele>46.0</ele><time>2026-05-02T08:48:08Z</time></trkpt><trkpt lat="40.914267202017335" lon="8.710599336899625"><ele>46.0</ele><time>2026-05-02T08:48:09Z</time></trkpt><trkpt lat="40.914328308048745" lon="8.710511768759268"><ele>46.0</ele><time>2026-05-02T08:48:10Z</time></trkpt><trkpt lat="40.914400184632214" lon="8.710407440544701"><ele>46.0</ele><time>2026-05-02T08:48:11Z</time></trkpt><trkpt lat="40.9144700626972" lon="8.710329209473484"><ele>46.0</ele><time>2026-05-02T08:48:12Z</time></trkpt><trkpt lat="40.914532070621796" lon="8.710240768171575"><ele>46.0</ele><time>2026-05-02T08:48:13Z</time></trkpt><trkpt lat="40.91459482742487" lon="8.710164604421719"><ele>43.333333333333336</ele><time>2026-05-02T08:48:14Z</time></trkpt><trkpt lat="40.91465898771923" lon="8.710071142167696"><ele>40.66666666666667</ele><time>2026-05-02T08:48:15Z</time></trkpt><trkpt lat="40.914715940782855" lon="8.709990518955653"><ele>38.0</ele><time>2026-05-02T08:48:16Z</time></trkpt><trkpt lat="40.914772658317254" lon="8.709914171269542"><ele>35.333333333333336</ele><time>2026-05-02T08:48:17Z</time></trkpt><trkpt lat="40.91481815428369" lon="8.709825376735662"><ele>32.666666666666664</ele><time>2026-05-02T08:48:18Z</time></trkpt><trkpt lat="40.91489414105289" lon="8.709771325221801"><ele>30.0</ele><time>2026-05-02T08:48:19Z</time></trkpt><trkpt lat="40.91484275272885" lon="8.709666110641017"><ele>30.0</ele><time>2026-05-02T08:48:20Z</time></trkpt><trkpt lat="40.914783723262296" lon="8.709616535162148"><ele>30.0</ele><time>2026-05-02T08:48:21Z</time></trkpt><trkpt lat="40.91471205878771" lon="8.709619505704874"><ele>30.0</ele><time>2026-05-02T08:48:22Z</time></trkpt><trkpt lat="40.91464050536959" lon="8.709626294406839"><ele>30.0</ele><time>2026-05-02T08:48:23Z</time></trkpt><trkpt lat="40.91457335934636" lon="8.709632634798323"><ele>30.0</ele><time>2026-05-02T08:48:24Z</time></trkpt><trkpt lat="40.91451039796673" lon="8.709645026194563"><ele>30.0</ele><time>2026-05-02T08:48:25Z</time></trkpt><trkpt lat="40.91444377472871" lon="8.709656336706075"><ele>30.0</ele><time>2026-05-02T08:48:26Z</time></trkpt><trkpt lat="40.914375524479034" lon="8.709667092599101"><ele>30.0</ele><time>2026-05-02T08:48:27Z</time></trkpt><trkpt lat="40.91431151956453" lon="8.709667887847553"><ele>30.0</ele><time>2026-05-02T08:48:28Z</time></trkpt><trkpt lat="40.914218139741976" lon="8.70960444270616"><ele>30.0</ele><time>2026-05-02T08:48:30Z</time></trkpt><trkpt lat="40.91415198764681" lon="8.709524915143916"><ele>30.0</ele><time>2026-05-02T08:48:32Z</time></trkpt><trkpt lat="40.91408536832538" lon="8.709426709798496"><ele>30.0</ele><time>2026-05-02T08:48:34Z</time></trkpt><trkpt lat="40.914007591705385" lon="8.70930755254189"><ele>27.0</ele><time>2026-05-02T08:48:36Z</time></trkpt><trkpt lat="40.9139350637994" lon="8.70919789002289"><ele>24.0</ele><time>2026-05-02T08:48:38Z</time></trkpt><trkpt lat="40.91386381695918" lon="8.709090164503849"><ele>21.0</ele><time>2026-05-02T08:48:40Z</time></trkpt><trkpt lat="40.9137712533098" lon="8.708976716466369"><ele>18.0</ele><time>2026-05-02T08:48:42Z</time></trkpt><trkpt lat="40.91372586369833" lon="8.708906666387579"><ele>15.0</ele><time>2026-05-02T08:48:43Z</time></trkpt><trkpt lat="40.91368329965674" lon="8.708830617213053"><ele>15.0</ele><time>2026-05-02T08:48:44Z</time></trkpt><trkpt lat="40.91363871436377" lon="8.708751740658492"><ele>15.0</ele><time>2026-05-02T08:48:45Z</time></trkpt><trkpt lat="40.913592694890745" lon="8.708672391551776"><ele>15.0</ele><time>2026-05-02T08:48:46Z</time></trkpt><trkpt lat="40.913549477362174" lon="8.708588226432969"><ele>15.0</ele><time>2026-05-02T08:48:47Z</time></trkpt><trkpt lat="40.91351548593148" lon="8.708496574725416"><ele>15.0</ele><time>2026-05-02T08:48:48Z</time></trkpt><trkpt lat="40.91350445273007" lon="8.708390209207552"><ele>15.0</ele><time>2026-05-02T08:48:49Z</time></trkpt><trkpt lat="40.9135069676713" lon="8.708283242850461"><ele>13.166666666666666</ele><time>2026-05-02T08:48:50Z</time></trkpt><trkpt lat="40.91352042251369" lon="8.708183948230499"><ele>11.333333333333334</ele><time>2026-05-02T08:48:51Z</time></trkpt><trkpt lat="40.91354331276195" lon="8.708075101185656"><ele>9.5</ele><time>2026-05-02T08:48:52Z</time></trkpt><trkpt lat="40.91355713169933" lon="8.707977655034211"><ele>7.666666666666666</ele><time>2026-05-02T08:48:53Z</time></trkpt><trkpt lat="40.9135730565732" lon="8.70788771477663"><ele>5.833333333333333</ele><time>2026-05-02T08:48:54Z</time></trkpt><trkpt lat="40.91359372312601" lon="8.707753125590516"><ele>4.0</ele><time>2026-05-02T08:48:56Z</time></trkpt><trkpt lat="40.913615551219344" lon="8.7076309187826"><ele>3.4999999999999996</ele><time>2026-05-02T08:48:58Z</time></trkpt><trkpt lat="40.91363744306789" lon="8.707490745226796"><ele>3.0</ele><time>2026-05-02T08:49:00Z</time></trkpt><trkpt lat="40.91365046808584" lon="8.707399741283867"><ele>2.5</ele><time>2026-05-02T08:49:01Z</time></trkpt><trkpt lat="40.913669690338104" lon="8.707297225716077"><ele>2.0</ele><time>2026-05-02T08:49:02Z</time></trkpt><trkpt lat="40.91368826864889" lon="8.707182324643622"><ele>1.5</ele><time>2026-05-02T08:49:03Z</time></trkpt><trkpt lat="40.913710798644196" lon="8.707055188730456"><ele>1.0</ele><time>2026-05-02T08:49:04Z</time></trkpt><trkpt lat="40.9137324745944" lon="8.706916535959193"><ele>1.2000000000000002</ele><time>2026-05-02T08:49:05Z</time></trkpt><trkpt lat="40.91375871604847" lon="8.706772895224997"><ele>1.4000000000000001</ele><time>2026-05-02T08:49:06Z</time></trkpt><trkpt lat="40.91378379694296" lon="8.70662931048394"><ele>1.6</ele><time>2026-05-02T08:49:07Z</time></trkpt><trkpt lat="40.91380664423133" lon="8.706497020642837"><ele>1.8</ele><time>2026-05-02T08:49:08Z</time></trkpt><trkpt lat="40.91383508406304" lon="8.706351474823844"><ele>2.0</ele><time>2026-05-02T08:49:09Z</time></trkpt><trkpt lat="40.91385669660564" lon="8.706226943012716"><ele>1.9999999999999998</ele><time>2026-05-02T08:49:10Z</time></trkpt><trkpt lat="40.913875411920266" lon="8.706119590721128"><ele>2.0</ele><time>2026-05-02T08:49:11Z</time></trkpt><trkpt lat="40.91389268703835" lon="8.70602647850631"><ele>2.0</ele><time>2026-05-02T08:49:12Z</time></trkpt><trkpt lat="40.913919254902076" lon="8.705897578824969"><ele>2.0</ele><time>2026-05-02T08:49:14Z</time></trkpt><trkpt lat="40.91393746193036" lon="8.705787728767852"><ele>1.9999999999999998</ele><time>2026-05-02T08:49:16Z</time></trkpt><trkpt lat="40.91396289866936" lon="8.705665614562394"><ele>2.0</ele><time>2026-05-02T08:49:18Z</time></trkpt><trkpt lat="40.913997143999566" lon="8.705566575841123"><ele>2.333333333333333</ele><time>2026-05-02T08:49:20Z</time></trkpt><trkpt lat="40.91399498044339" lon="8.705473988482282"><ele>2.6666666666666665</ele><time>2026-05-02T08:53:55Z</time></trkpt><trkpt lat="40.913980652340925" lon="8.705299225222841"><ele>3.0</ele><time>2026-05-02T08:53:57Z</time></trkpt><trkpt lat="40.913957521072724" lon="8.70519459814088"><ele>3.333333333333333</ele><time>2026-05-02T08:53:58Z</time></trkpt><trkpt lat="40.91395230307125" lon="8.705094673087737"><ele>3.6666666666666665</ele><time>2026-05-02T08:53:59Z</time></trkpt><trkpt lat="40.91392840862477" lon="8.705007964720918"><ele>4.0</ele><time>2026-05-02T08:54:00Z</time></trkpt><trkpt lat="40.91389107740695" lon="8.704885821441632"><ele>4.0</ele><time>2026-05-02T08:54:02Z</time></trkpt><trkpt lat="40.91385434529176" lon="8.704765638904412"><ele>4.0</ele><time>2026-05-02T08:54:04Z</time></trkpt><trkpt lat="40.913809693367924" lon="8.70460945824486"><ele>4.0</ele><time>2026-05-02T08:54:06Z</time></trkpt><trkpt lat="40.91377908193039" lon="8.704505364684826"><ele>4.0</ele><time>2026-05-02T08:54:07Z</time></trkpt><trkpt lat="40.91371733188698" lon="8.704404140122426"><ele>4.0</ele><time>2026-05-02T08:54:08Z</time></trkpt><trkpt lat="40.91368144474705" lon="8.70427762643551"><ele>3.6</ele><time>2026-05-02T08:54:09Z</time></trkpt><trkpt lat="40.91363731056747" lon="8.704147724156188"><ele>3.2</ele><time>2026-05-02T08:54:10Z</time></trkpt><trkpt lat="40.91358418433776" lon="8.704025217439437"><ele>2.8000000000000003</ele><time>2026-05-02T08:54:11Z</time></trkpt><trkpt lat="40.91352432784623" lon="8.703921499170347"><ele>2.4000000000000004</ele><time>2026-05-02T08:54:12Z</time></trkpt><trkpt lat="40.9134602839604" lon="8.703833615962067"><ele>2.0</ele><time>2026-05-02T08:54:13Z</time></trkpt><trkpt lat="40.91340752524374" lon="8.703736695402323"><ele>4.800000000000001</ele><time>2026-05-02T08:54:14Z</time></trkpt><trkpt lat="40.91333066410061" lon="8.703685129430767"><ele>7.6000000000000005</ele><time>2026-05-02T08:54:15Z</time></trkpt><trkpt lat="40.9132482240738" lon="8.703654657692322"><ele>10.400000000000002</ele><time>2026-05-02T08:54:16Z</time></trkpt><trkpt lat="40.91315651959175" lon="8.70367898130296"><ele>13.200000000000001</ele><time>2026-05-02T08:54:17Z</time></trkpt><trkpt lat="40.91306528343886" lon="8.703707823359355"><ele>16.0</ele><time>2026-05-02T08:54:18Z</time></trkpt><trkpt lat="40.9129756092375" lon="8.703752086827238"><ele>16.0</ele><time>2026-05-02T08:54:19Z</time></trkpt><trkpt lat="40.91288074380262" lon="8.703817198824668"><ele>16.0</ele><time>2026-05-02T08:54:20Z</time></trkpt><trkpt lat="40.912784797942855" lon="8.703886403303537"><ele>16.0</ele><time>2026-05-02T08:54:21Z</time></trkpt><trkpt lat="40.91269365086869" lon="8.703969878883768"><ele>16.0</ele><time>2026-05-02T08:54:22Z</time></trkpt><trkpt lat="40.9126055621718" lon="8.704066856417857"><ele>16.0</ele><time>2026-05-02T08:54:23Z</time></trkpt><trkpt lat="40.912521571178544" lon="8.704174201780384"><ele>15.0</ele><time>2026-05-02T08:54:24Z</time></trkpt><trkpt lat="40.912437242183536" lon="8.704281842182203"><ele>14.0</ele><time>2026-05-02T08:54:25Z</time></trkpt><trkpt lat="40.9123530103419" lon="8.704391645283199"><ele>13.0</ele><time>2026-05-02T08:54:26Z</time></trkpt><trkpt lat="40.9122779689996" lon="8.704511397347535"><ele>12.0</ele><time>2026-05-02T08:54:27Z</time></trkpt><trkpt lat="40.91221536267226" lon="8.704647534518216"><ele>16.0</ele><time>2026-05-02T08:54:28Z</time></trkpt><trkpt lat="40.912163701155436" lon="8.704790501263794"><ele>20.0</ele><time>2026-05-02T08:54:29Z</time></trkpt><trkpt lat="40.91212627253517" lon="8.704940269693475"><ele>24.0</ele><time>2026-05-02T08:54:30Z</time></trkpt><trkpt lat="40.9120971210415" lon="8.705094331712722"><ele>28.0</ele><time>2026-05-02T08:54:31Z</time></trkpt><trkpt lat="40.91206721090173" lon="8.705247296950331"><ele>29.75</ele><time>2026-05-02T08:54:32Z</time></trkpt><trkpt lat="40.912030953985536" lon="8.705396456882896"><ele>31.5</ele><time>2026-05-02T08:54:33Z</time></trkpt><trkpt lat="40.91198982430606" lon="8.705538835787333"><ele>33.25</ele><time>2026-05-02T08:54:34Z</time></trkpt><trkpt lat="40.91194444245647" lon="8.705674250106338"><ele>35.0</ele><time>2026-05-02T08:54:35Z</time></trkpt><trkpt lat="40.91189594714884" lon="8.70579991232504"><ele>35.0</ele><time>2026-05-02T08:54:36Z</time></trkpt><trkpt lat="40.911840675800505" lon="8.705917202799949"><ele>35.0</ele><time>2026-05-02T08:54:37Z</time></trkpt><trkpt lat="40.91177614801571" lon="8.706023870782595"><ele>35.0</ele><time>2026-05-02T08:54:38Z</time></trkpt><trkpt lat="40.91169438658782" lon="8.706110750385273"><ele>35.0</ele><time>2026-05-02T08:54:39Z</time></trkpt><trkpt lat="40.91159760315583" lon="8.706167979476344"><ele>35.0</ele><time>2026-05-02T08:54:40Z</time></trkpt><trkpt lat="40.91149374431049" lon="8.706188723713371"><ele>34.0</ele><time>2026-05-02T08:54:41Z</time></trkpt><trkpt lat="40.911412944119434" lon="8.706182050297759"><ele>33.0</ele><time>2026-05-02T08:54:42Z</time></trkpt><trkpt lat="40.91130917027236" lon="8.706143646167549"><ele>32.0</ele><time>2026-05-02T08:54:44Z</time></trkpt><trkpt lat="40.911245963478635" lon="8.706100275037503"><ele>31.0</ele><time>2026-05-02T08:54:46Z</time></trkpt><trkpt lat="40.91116222808361" lon="8.706149379886513"><ele>29.999999999999996</ele><time>2026-05-02T08:54:57Z</time></trkpt><trkpt lat="40.911094555623954" lon="8.706138606467624"><ele>29.0</ele><time>2026-05-02T08:54:58Z</time></trkpt><trkpt lat="40.91101582408161" lon="8.706124613498368"><ele>28.999999999999996</ele><time>2026-05-02T08:54:59Z</time></trkpt><trkpt lat="40.91092826425354" lon="8.706108272037918"><ele>29.0</ele><time>2026-05-02T08:55:00Z</time></trkpt><trkpt lat="40.91083483825371" lon="8.70606998571214"><ele>29.0</ele><time>2026-05-02T08:55:01Z</time></trkpt><trkpt lat="40.91074742839982" lon="8.706043065549725"><ele>29.0</ele><time>2026-05-02T08:55:02Z</time></trkpt><trkpt lat="40.91066398913904" lon="8.705999374221502"><ele>28.999999999999996</ele><time>2026-05-02T08:55:03Z</time></trkpt><trkpt lat="40.91059396225975" lon="8.705951642734474"><ele>29.0</ele><time>2026-05-02T08:55:04Z</time></trkpt><trkpt lat="40.910510107821366" lon="8.705829994152854"><ele>22.5</ele><time>2026-05-02T08:55:06Z</time></trkpt><trkpt lat="40.91054931090462" lon="8.705622138126314"><ele>16.0</ele><time>2026-05-02T08:55:08Z</time></trkpt><trkpt lat="40.91056765475702" lon="8.705488946001342"><ele>9.5</ele><time>2026-05-02T08:55:09Z</time></trkpt><trkpt lat="40.91059170096015" lon="8.705347756773044"><ele>3.0</ele><time>2026-05-02T08:55:10Z</time></trkpt><trkpt lat="40.91061890365212" lon="8.705201505145162"><ele>3.0</ele><time>2026-05-02T08:55:11Z</time></trkpt><trkpt lat="40.91066030014535" lon="8.705067381508123"><ele>3.0</ele><time>2026-05-02T08:55:12Z</time></trkpt><trkpt lat="40.91071869649233" lon="8.70494346485917"><ele>3.0</ele><time>2026-05-02T08:55:13Z</time></trkpt><trkpt lat="40.910792206622396" lon="8.704802508683422"><ele>3.0</ele><time>2026-05-02T08:55:14Z</time></trkpt><trkpt lat="40.9108608361523" lon="8.704664325495383"><ele>3.75</ele><time>2026-05-02T08:55:15Z</time></trkpt><trkpt lat="40.91093496124731" lon="8.704509229155242"><ele>4.5</ele><time>2026-05-02T08:55:16Z</time></trkpt><trkpt lat="40.91101373022139" lon="8.704340885183184"><ele>5.25</ele><time>2026-05-02T08:55:17Z</time></trkpt><trkpt lat="40.91109490442443" lon="8.704161561437395"><ele>6.0</ele><time>2026-05-02T08:55:18Z</time></trkpt><trkpt lat="40.91117906464723" lon="8.703970322077131"><ele>5.0</ele><time>2026-05-02T08:55:19Z</time></trkpt><trkpt lat="40.911261338784115" lon="8.70377382387225"><ele>4.0</ele><time>2026-05-02T08:55:20Z</time></trkpt><trkpt lat="40.911342728547865" lon="8.703575136729722"><ele>3.0</ele><time>2026-05-02T08:55:21Z</time></trkpt><trkpt lat="40.911421215838644" lon="8.70337202584999"><ele>3.0</ele><time>2026-05-02T08:55:22Z</time></trkpt><trkpt lat="40.91149835997118" lon="8.703177258232898"><ele>3.0</ele><time>2026-05-02T08:55:23Z</time></trkpt><trkpt lat="40.91156787453135" lon="8.703002848457757"><ele>3.0</ele><time>2026-05-02T08:55:24Z</time></trkpt><trkpt lat="40.91163109076847" lon="8.702833158545952"><ele>4.75</ele><time>2026-05-02T08:55:25Z</time></trkpt><trkpt lat="40.91168269028869" lon="8.702655817087269"><ele>6.5</ele><time>2026-05-02T08:55:26Z</time></trkpt><trkpt lat="40.91171851229411" lon="8.702469826777122"><ele>8.25</ele><time>2026-05-02T08:55:27Z</time></trkpt><trkpt lat="40.911729088982696" lon="8.702282574916033"><ele>10.0</ele><time>2026-05-02T08:55:28Z</time></trkpt><trkpt lat="40.911723414197155" lon="8.702099408304408"><ele>10.0</ele><time>2026-05-02T08:55:29Z</time></trkpt><trkpt lat="40.91170997282764" lon="8.701923040286049"><ele>10.0</ele><time>2026-05-02T08:55:30Z</time></trkpt><trkpt lat="40.9117026157842" lon="8.701751292364527"><ele>10.0</ele><time>2026-05-02T08:55:31Z</time></trkpt><trkpt lat="40.91169685138285" lon="8.701581428101433"><ele>10.0</ele><time>2026-05-02T08:55:32Z</time></trkpt><trkpt lat="40.91169269860602" lon="8.70141342533828"><ele>10.5</ele><time>2026-05-02T08:55:33Z</time></trkpt><trkpt lat="40.9116882409407" lon="8.701247388291034"><ele>11.0</ele><time>2026-05-02T08:55:34Z</time></trkpt><trkpt lat="40.9116847788493" lon="8.701084810958228"><ele>11.5</ele><time>2026-05-02T08:55:35Z</time></trkpt><trkpt lat="40.91168114162683" lon="8.700924338985944"><ele>12.0</ele><time>2026-05-02T08:55:36Z</time></trkpt><trkpt lat="40.911679342184634" lon="8.700763892118665"><ele>14.25</ele><time>2026-05-02T08:55:37Z</time></trkpt><trkpt lat="40.911679719467905" lon="8.700599822922365"><ele>16.5</ele><time>2026-05-02T08:55:38Z</time></trkpt><trkpt lat="40.9116852432053" lon="8.700428638881206"><ele>18.75</ele><time>2026-05-02T08:55:39Z</time></trkpt><trkpt lat="40.91169626321185" lon="8.70025077300089"><ele>21.0</ele><time>2026-05-02T08:55:40Z</time></trkpt><trkpt lat="40.91170826263871" lon="8.700066889176943"><ele>22.0</ele><time>2026-05-02T08:55:41Z</time></trkpt><trkpt lat="40.91172056301236" lon="8.699877522604055"><ele>23.0</ele><time>2026-05-02T08:55:42Z</time></trkpt><trkpt lat="40.91173321634297" lon="8.699679906705137"><ele>24.0</ele><time>2026-05-02T08:55:43Z</time></trkpt><trkpt lat="40.91174682830865" lon="8.699476114717996"><ele>25.0</ele><time>2026-05-02T08:55:44Z</time></trkpt><trkpt lat="40.911767374127955" lon="8.699262516561172"><ele>18.0</ele><time>2026-05-02T08:55:45Z</time></trkpt><trkpt lat="40.911799569349995" lon="8.699049427336242"><ele>11.0</ele><time>2026-05-02T08:55:46Z</time></trkpt><trkpt lat="40.91185718704652" lon="8.698839237757184"><ele>4.0</ele><time>2026-05-02T08:55:47Z</time></trkpt><trkpt lat="40.91189008336202" lon="8.698609088095235"><ele>6.0</ele><time>2026-05-02T08:55:48Z</time></trkpt><trkpt lat="40.9119390581195" lon="8.698380064092342"><ele>8.0</ele><time>2026-05-02T08:55:49Z</time></trkpt><trkpt lat="40.911989245426774" lon="8.698150227281173"><ele>10.0</ele><time>2026-05-02T08:55:50Z</time></trkpt><trkpt lat="40.91203841586401" lon="8.697917715496768"><ele>11.333333333333334</ele><time>2026-05-02T08:55:51Z</time></trkpt><trkpt lat="40.9120902136397" lon="8.697685182743003"><ele>12.666666666666668</ele><time>2026-05-02T08:55:52Z</time></trkpt><trkpt lat="40.912144468793215" lon="8.697467996865688"><ele>14.0</ele><time>2026-05-02T08:55:53Z</time></trkpt><trkpt lat="40.912203023226795" lon="8.697283625661417"><ele>14.0</ele><time>2026-05-02T08:55:54Z</time></trkpt><trkpt lat="40.912261206335714" lon="8.697118005257202"><ele>14.0</ele><time>2026-05-02T08:55:55Z</time></trkpt><trkpt lat="40.912319331276315" lon="8.696956475150344"><ele>14.0</ele><time>2026-05-02T08:55:56Z</time></trkpt><trkpt lat="40.91237175575751" lon="8.696797546853665"><ele>14.0</ele><time>2026-05-02T08:55:57Z</time></trkpt><trkpt lat="40.91240945555647" lon="8.696647862107088"><ele>14.25</ele><time>2026-05-02T08:55:58Z</time></trkpt><trkpt lat="40.9124171646347" lon="8.696496372268493"><ele>14.5</ele><time>2026-05-02T08:55:59Z</time></trkpt><trkpt lat="40.91238756270851" lon="8.696344368541412"><ele>14.75</ele><time>2026-05-02T08:56:00Z</time></trkpt><trkpt lat="40.91231325840272" lon="8.696205273731145"><ele>15.0</ele><time>2026-05-02T08:56:01Z</time></trkpt><trkpt lat="40.91223262192314" lon="8.696078534977982"><ele>15.0</ele><time>2026-05-02T08:56:02Z</time></trkpt><trkpt lat="40.91214677235774" lon="8.695958301406742"><ele>15.0</ele><time>2026-05-02T08:56:03Z</time></trkpt><trkpt lat="40.91208634759796" lon="8.695836614486891"><ele>15.0</ele><time>2026-05-02T08:56:04Z</time></trkpt><trkpt lat="40.91201773964098" lon="8.695732597017816"><ele>15.0</ele><time>2026-05-02T08:56:05Z</time></trkpt><trkpt lat="40.91194680715313" lon="8.695625055361896"><ele>15.0</ele><time>2026-05-02T08:56:06Z</time></trkpt><trkpt lat="40.91187000296551" lon="8.695508773432488"><ele>15.0</ele><time>2026-05-02T08:56:07Z</time></trkpt><trkpt lat="40.91178548263176" lon="8.69537811499623"><ele>15.0</ele><time>2026-05-02T08:56:08Z</time></trkpt><trkpt lat="40.911696310626105" lon="8.695238671514568"><ele>15.0</ele><time>2026-05-02T08:56:09Z</time></trkpt><trkpt lat="40.911588460847334" lon="8.695101579733898"><ele>15.0</ele><time>2026-05-02T08:56:10Z</time></trkpt><trkpt lat="40.91145650106285" lon="8.694994129187231"><ele>17.333333333333332</ele><time>2026-05-02T08:56:11Z</time></trkpt><trkpt lat="40.91132058908465" lon="8.6948881701967"><ele>19.666666666666664</ele><time>2026-05-02T08:56:12Z</time></trkpt><trkpt lat="40.91118305376298" lon="8.694807900814988"><ele>22.0</ele><time>2026-05-02T08:56:13Z</time></trkpt><trkpt lat="40.91106302715377" lon="8.694708216341448"><ele>22.0</ele><time>2026-05-02T08:56:14Z</time></trkpt><trkpt lat="40.9109373358292" lon="8.694626977822862"><ele>22.0</ele><time>2026-05-02T08:56:15Z</time></trkpt><trkpt lat="40.91080469073979" lon="8.694542727591285"><ele>22.0</ele><time>2026-05-02T08:56:16Z</time></trkpt><trkpt lat="40.91066925786849" lon="8.694456706664742"><ele>22.0</ele><time>2026-05-02T08:56:17Z</time></trkpt><trkpt lat="40.910537258979204" lon="8.694372866849605"><ele>21.75</ele><time>2026-05-02T08:56:18Z</time></trkpt><trkpt lat="40.91040679481695" lon="8.694289124543404"><ele>21.5</ele><time>2026-05-02T08:56:19Z</time></trkpt><trkpt lat="40.91027822367837" lon="8.694202245146222"><ele>21.25</ele><time>2026-05-02T08:56:20Z</time></trkpt><trkpt lat="40.91015514704248" lon="8.694111093312618"><ele>21.0</ele><time>2026-05-02T08:56:21Z</time></trkpt><trkpt lat="40.910045257234216" lon="8.69399300638147"><ele>21.333333333333332</ele><time>2026-05-02T08:56:22Z</time></trkpt><trkpt lat="40.90994839439338" lon="8.693847661189162"><ele>21.666666666666664</ele><time>2026-05-02T08:56:23Z</time></trkpt><trkpt lat="40.90987624802455" lon="8.693671171310536"><ele>22.0</ele><time>2026-05-02T08:56:24Z</time></trkpt><trkpt lat="40.90981915197608" lon="8.693478570250504"><ele>22.0</ele><time>2026-05-02T08:56:25Z</time></trkpt><trkpt lat="40.90979451980964" lon="8.693269432830293"><ele>22.0</ele><time>2026-05-02T08:56:26Z</time></trkpt><trkpt lat="40.90975829146734" lon="8.69306401822077"><ele>22.0</ele><time>2026-05-02T08:56:27Z</time></trkpt><trkpt lat="40.909714048324346" lon="8.69287205836133"><ele>19.0</ele><time>2026-05-02T08:56:28Z</time></trkpt><trkpt lat="40.90964791398223" lon="8.692711104153886"><ele>16.0</ele><time>2026-05-02T08:56:29Z</time></trkpt><trkpt lat="40.90957120360715" lon="8.692554196127544"><ele>13.0</ele><time>2026-05-02T08:56:30Z</time></trkpt><trkpt lat="40.909470485109914" lon="8.692404229314167"><ele>10.0</ele><time>2026-05-02T08:56:31Z</time></trkpt><trkpt lat="40.9093537823544" lon="8.692269990331877"><ele>17.666666666666668</ele><time>2026-05-02T08:56:32Z</time></trkpt><trkpt lat="40.909227985763884" lon="8.69215270910433"><ele>25.333333333333332</ele><time>2026-05-02T08:56:33Z</time></trkpt><trkpt lat="40.909088762720536" lon="8.692060068104997"><ele>33.0</ele><time>2026-05-02T08:56:34Z</time></trkpt><trkpt lat="40.90894455419544" lon="8.69198495718665"><ele>33.0</ele><time>2026-05-02T08:56:35Z</time></trkpt><trkpt lat="40.90879343616879" lon="8.691929145516932"><ele>33.0</ele><time>2026-05-02T08:56:36Z</time></trkpt><trkpt lat="40.908641660552" lon="8.691885091759739"><ele>33.0</ele><time>2026-05-02T08:56:37Z</time></trkpt><trkpt lat="40.90849056313713" lon="8.69185159719261"><ele>29.25</ele><time>2026-05-02T08:56:38Z</time></trkpt><trkpt lat="40.90834365078022" lon="8.691833181182119"><ele>25.5</ele><time>2026-05-02T08:56:39Z</time></trkpt><trkpt lat="40.908202867229065" lon="8.691827326054572"><ele>21.75</ele><time>2026-05-02T08:56:40Z</time></trkpt><trkpt lat="40.90806857273909" lon="8.691824028407542"><ele>18.0</ele><time>2026-05-02T08:56:41Z</time></trkpt><trkpt lat="40.90793841850949" lon="8.691819733201529"><ele>18.0</ele><time>2026-05-02T08:56:42Z</time></trkpt><trkpt lat="40.90781052199709" lon="8.691815688314302"><ele>18.0</ele><time>2026-05-02T08:56:43Z</time></trkpt><trkpt lat="40.90768114131891" lon="8.691809835040056"><ele>18.0</ele><time>2026-05-02T08:56:44Z</time></trkpt><trkpt lat="40.90755595185847" lon="8.691803310192569"><ele>18.0</ele><time>2026-05-02T08:56:45Z</time></trkpt><trkpt lat="40.90744350333316" lon="8.69176775206842"><ele>18.5</ele><time>2026-05-02T08:56:46Z</time></trkpt><trkpt lat="40.90734378278983" lon="8.691749075408541"><ele>19.0</ele><time>2026-05-02T08:56:47Z</time></trkpt><trkpt lat="40.907261085745304" lon="8.691722039983228"><ele>19.5</ele><time>2026-05-02T08:56:48Z</time></trkpt><trkpt lat="40.90719082194974" lon="8.691689925166546"><ele>20.0</ele><time>2026-05-02T08:56:49Z</time></trkpt><trkpt lat="40.90712664482167" lon="8.691654837790752"><ele>20.5</ele><time>2026-05-02T08:56:50Z</time></trkpt><trkpt lat="40.907066907899555" lon="8.69162031143994"><ele>21.0</ele><time>2026-05-02T08:56:51Z</time></trkpt><trkpt lat="40.90700692150598" lon="8.691584516850543"><ele>21.0</ele><time>2026-05-02T08:56:52Z</time></trkpt><trkpt lat="40.90689207162661" lon="8.69153868126122"><ele>21.0</ele><time>2026-05-02T08:56:54Z</time></trkpt><trkpt lat="40.906815462318626" lon="8.691463192352451"><ele>21.0</ele><time>2026-05-02T08:56:56Z</time></trkpt><trkpt lat="40.90671542200083" lon="8.691384509052789"><ele>21.0</ele><time>2026-05-02T08:56:58Z</time></trkpt><trkpt lat="40.90664095583576" lon="8.691337312472578"><ele>21.0</ele><time>2026-05-02T08:56:59Z</time></trkpt><trkpt lat="40.906555516579935" lon="8.691271239560177"><ele>21.8</ele><time>2026-05-02T08:57:00Z</time></trkpt><trkpt lat="40.90647672244335" lon="8.691192115081387"><ele>22.6</ele><time>2026-05-02T08:57:01Z</time></trkpt><trkpt lat="40.90639300349749" lon="8.691115702453416"><ele>23.4</ele><time>2026-05-02T08:57:02Z</time></trkpt><trkpt lat="40.90631228780559" lon="8.69101107113414"><ele>24.2</ele><time>2026-05-02T08:57:03Z</time></trkpt><trkpt lat="40.906246702949595" lon="8.69091511886805"><ele>25.0</ele><time>2026-05-02T08:57:04Z</time></trkpt><trkpt lat="40.90616600017343" lon="8.690817770564978"><ele>24.4</ele><time>2026-05-02T08:57:05Z</time></trkpt><trkpt lat="40.906125662173224" lon="8.690668875641963"><ele>23.8</ele><time>2026-05-02T08:57:06Z</time></trkpt><trkpt lat="40.90603122780729" lon="8.690605899342826"><ele>23.200000000000003</ele><time>2026-05-02T08:57:07Z</time></trkpt><trkpt lat="40.90595695413919" lon="8.690503300959136"><ele>22.6</ele><time>2026-05-02T08:57:08Z</time></trkpt><trkpt lat="40.9058880731702" lon="8.690404347992748"><ele>22.0</ele><time>2026-05-02T08:57:09Z</time></trkpt><trkpt lat="40.90581590460906" lon="8.690313342395184"><ele>21.0</ele><time>2026-05-02T08:57:10Z</time></trkpt><trkpt lat="40.905750743096576" lon="8.690209513972285"><ele>20.0</ele><time>2026-05-02T08:57:11Z</time></trkpt><trkpt lat="40.90567812489798" lon="8.690114498582119"><ele>19.0</ele><time>2026-05-02T08:57:12Z</time></trkpt><trkpt lat="40.90563655273858" lon="8.689982664766626"><ele>18.0</ele><time>2026-05-02T08:57:13Z</time></trkpt><trkpt lat="40.905568033731264" lon="8.689885933509307"><ele>17.0</ele><time>2026-05-02T08:57:14Z</time></trkpt><trkpt lat="40.905495785488846" lon="8.689783816197064"><ele>17.0</ele><time>2026-05-02T08:57:15Z</time></trkpt><trkpt lat="40.90542303601386" lon="8.68968068767858"><ele>17.0</ele><time>2026-05-02T08:57:16Z</time></trkpt><trkpt lat="40.90534480276601" lon="8.689569648954683"><ele>17.0</ele><time>2026-05-02T08:57:17Z</time></trkpt><trkpt lat="40.90526737165772" lon="8.689459748726106"><ele>17.0</ele><time>2026-05-02T08:57:18Z</time></trkpt><trkpt lat="40.90518470618543" lon="8.689342595746366"><ele>17.0</ele><time>2026-05-02T08:57:19Z</time></trkpt><trkpt lat="40.90510177669585" lon="8.689224975940892"><ele>17.0</ele><time>2026-05-02T08:57:20Z</time></trkpt><trkpt lat="40.90501654841302" lon="8.68910520238693"><ele>17.0</ele><time>2026-05-02T08:57:21Z</time></trkpt><trkpt lat="40.90493195630822" lon="8.688986415102981"><ele>17.0</ele><time>2026-05-02T08:57:22Z</time></trkpt><trkpt lat="40.904842368785395" lon="8.688860613080134"><ele>17.0</ele><time>2026-05-02T08:57:23Z</time></trkpt><trkpt lat="40.904755381532766" lon="8.68873846243104"><ele>17.0</ele><time>2026-05-02T08:57:24Z</time></trkpt><trkpt lat="40.90467048031296" lon="8.68861967577749"><ele>17.0</ele><time>2026-05-02T08:57:25Z</time></trkpt><trkpt lat="40.90457539478716" lon="8.688486592224214"><ele>17.0</ele><time>2026-05-02T08:57:26Z</time></trkpt><trkpt lat="40.90448076928598" lon="8.68835415253216"><ele>16.0</ele><time>2026-05-02T08:57:27Z</time></trkpt><trkpt lat="40.904394965400236" lon="8.688254147424068"><ele>15.0</ele><time>2026-05-02T08:57:28Z</time></trkpt><trkpt lat="40.904314208910634" lon="8.688120532780781"><ele>14.0</ele><time>2026-05-02T08:57:29Z</time></trkpt><trkpt lat="40.90421125003113" lon="8.688006263473392"><ele>13.0</ele><time>2026-05-02T08:57:30Z</time></trkpt><trkpt lat="40.90413334724045" lon="8.687869883376003"><ele>12.5</ele><time>2026-05-02T08:57:31Z</time></trkpt><trkpt lat="40.90404479034928" lon="8.687744781101205"><ele>12.0</ele><time>2026-05-02T08:57:32Z</time></trkpt><trkpt lat="40.90395272677931" lon="8.687615495622527"><ele>11.5</ele><time>2026-05-02T08:57:33Z</time></trkpt><trkpt lat="40.90386345057277" lon="8.687490066122384"><ele>11.0</ele><time>2026-05-02T08:57:34Z</time></trkpt><trkpt lat="40.903772254201776" lon="8.687382702545204"><ele>11.0</ele><time>2026-05-02T08:57:35Z</time></trkpt><trkpt lat="40.90369838970529" lon="8.687271549919988"><ele>11.0</ele><time>2026-05-02T08:57:36Z</time></trkpt><trkpt lat="40.9036178953024" lon="8.687167383067568"><ele>11.0</ele><time>2026-05-02T08:57:37Z</time></trkpt><trkpt lat="40.90353769774327" lon="8.687050024101291"><ele>11.0</ele><time>2026-05-02T08:57:38Z</time></trkpt><trkpt lat="40.90345209592307" lon="8.686943443306497"><ele>10.600000000000001</ele><time>2026-05-02T08:57:39Z</time></trkpt><trkpt lat="40.903390229816004" lon="8.68682457493756"><ele>10.200000000000001</ele><time>2026-05-02T08:57:40Z</time></trkpt><trkpt lat="40.90331883339736" lon="8.68672412415455"><ele>9.8</ele><time>2026-05-02T08:57:41Z</time></trkpt><trkpt lat="40.90324144849869" lon="8.686627614550737"><ele>9.4</ele><time>2026-05-02T08:57:42Z</time></trkpt><trkpt lat="40.90315930341281" lon="8.686529988972715"><ele>9.0</ele><time>2026-05-02T08:57:43Z</time></trkpt><trkpt lat="40.90309291989479" lon="8.686405464702034"><ele>9.0</ele><time>2026-05-02T08:57:44Z</time></trkpt><trkpt lat="40.90300808071157" lon="8.686286926609"><ele>9.0</ele><time>2026-05-02T08:57:45Z</time></trkpt><trkpt lat="40.90290298865169" lon="8.686142236099302"><ele>9.0</ele><time>2026-05-02T08:57:46Z</time></trkpt><trkpt lat="40.90279254229535" lon="8.685988122811104"><ele>9.0</ele><time>2026-05-02T08:57:47Z</time></trkpt><trkpt lat="40.90265975481481" lon="8.685848111940393"><ele>9.666666666666666</ele><time>2026-05-02T08:57:48Z</time></trkpt><trkpt lat="40.9025552770904" lon="8.68568440031539"><ele>10.333333333333332</ele><time>2026-05-02T08:57:49Z</time></trkpt><trkpt lat="40.90244784278754" lon="8.685527998813047"><ele>11.0</ele><time>2026-05-02T08:57:50Z</time></trkpt><trkpt lat="40.902339949064476" lon="8.685371299176447"><ele>11.333333333333332</ele><time>2026-05-02T08:57:51Z</time></trkpt><trkpt lat="40.902232122673155" lon="8.685218452342838"><ele>11.666666666666666</ele><time>2026-05-02T08:57:52Z</time></trkpt><trkpt lat="40.90212395787402" lon="8.685065967105816"><ele>12.0</ele><time>2026-05-02T08:57:53Z</time></trkpt><trkpt lat="40.90202313695457" lon="8.68491111623388"><ele>12.0</ele><time>2026-05-02T08:57:54Z</time></trkpt><trkpt lat="40.90191337085942" lon="8.684758450378444"><ele>12.0</ele><time>2026-05-02T08:57:55Z</time></trkpt><trkpt lat="40.901804573559005" lon="8.684606281698017"><ele>12.0</ele><time>2026-05-02T08:57:56Z</time></trkpt><trkpt lat="40.90169393605865" lon="8.684453563937485"><ele>13.0</ele><time>2026-05-02T08:57:57Z</time></trkpt><trkpt lat="40.90158757752744" lon="8.684296986278845"><ele>14.0</ele><time>2026-05-02T08:57:58Z</time></trkpt><trkpt lat="40.90148743778513" lon="8.684146195026598"><ele>15.0</ele><time>2026-05-02T08:57:59Z</time></trkpt><trkpt lat="40.90139718196404" lon="8.68397203759865"><ele>15.0</ele><time>2026-05-02T08:58:00Z</time></trkpt><trkpt lat="40.901318068394" lon="8.683824939038889"><ele>15.0</ele><time>2026-05-02T08:58:01Z</time></trkpt><trkpt lat="40.901256853650516" lon="8.683672250956912"><ele>15.0</ele><time>2026-05-02T08:58:02Z</time></trkpt><trkpt lat="40.90119823983751" lon="8.683523531342303"><ele>15.0</ele><time>2026-05-02T08:58:03Z</time></trkpt><trkpt lat="40.901148852401185" lon="8.683386807491825"><ele>15.0</ele><time>2026-05-02T08:58:04Z</time></trkpt><trkpt lat="40.901085277496676" lon="8.683228143062287"><ele>15.0</ele><time>2026-05-02T08:58:05Z</time></trkpt><trkpt lat="40.90102574817887" lon="8.683086561672491"><ele>15.0</ele><time>2026-05-02T08:58:06Z</time></trkpt><trkpt lat="40.90096774960751" lon="8.68293942571488"><ele>15.0</ele><time>2026-05-02T08:58:07Z</time></trkpt><trkpt lat="40.90090975382065" lon="8.682790556825992"><ele>15.25</ele><time>2026-05-02T08:58:08Z</time></trkpt><trkpt lat="40.900855927994186" lon="8.682635550355773"><ele>15.5</ele><time>2026-05-02T08:58:09Z</time></trkpt><trkpt lat="40.90079356855779" lon="8.682481027544394"><ele>15.75</ele><time>2026-05-02T08:58:10Z</time></trkpt><trkpt lat="40.90073527685288" lon="8.682314914146948"><ele>16.0</ele><time>2026-05-02T08:58:11Z</time></trkpt><trkpt lat="40.90066918691228" lon="8.68215066565717"><ele>16.0</ele><time>2026-05-02T08:58:12Z</time></trkpt><trkpt lat="40.90060649565615" lon="8.68197928081867"><ele>16.0</ele><time>2026-05-02T08:58:13Z</time></trkpt><trkpt lat="40.900545334491255" lon="8.681811293126927"><ele>16.0</ele><time>2026-05-02T08:58:14Z</time></trkpt><trkpt lat="40.90048352801036" lon="8.6816388317045"><ele>16.0</ele><time>2026-05-02T08:58:15Z</time></trkpt><trkpt lat="40.900420927097905" lon="8.681467255974535"><ele>16.25</ele><time>2026-05-02T08:58:16Z</time></trkpt><trkpt lat="40.90035455010204" lon="8.681303103601733"><ele>16.5</ele><time>2026-05-02T08:58:17Z</time></trkpt><trkpt lat="40.90029742588266" lon="8.681135290410262"><ele>16.75</ele><time>2026-05-02T08:58:18Z</time></trkpt><trkpt lat="40.90023739617965" lon="8.680964777306865"><ele>17.0</ele><time>2026-05-02T08:58:19Z</time></trkpt><trkpt lat="40.90018789353289" lon="8.680833407372726"><ele>17.4</ele><time>2026-05-02T08:58:20Z</time></trkpt><trkpt lat="40.900160795668576" lon="8.680696205210232"><ele>17.799999999999997</ele><time>2026-05-02T08:58:21Z</time></trkpt><trkpt lat="40.90012782297238" lon="8.680590229920464"><ele>18.2</ele><time>2026-05-02T08:58:22Z</time></trkpt><trkpt lat="40.9000951690723" lon="8.680486003425612"><ele>18.599999999999998</ele><time>2026-05-02T08:58:23Z</time></trkpt><trkpt lat="40.900048734305884" lon="8.680375264613968"><ele>19.0</ele><time>2026-05-02T08:58:24Z</time></trkpt><trkpt lat="40.90001206442515" lon="8.680238164256743"><ele>19.0</ele><time>2026-05-02T08:58:25Z</time></trkpt><trkpt lat="40.89996642645931" lon="8.68009087983904"><ele>19.0</ele><time>2026-05-02T08:58:26Z</time></trkpt><trkpt lat="40.899919723726576" lon="8.679930773163067"><ele>19.0</ele><time>2026-05-02T08:58:27Z</time></trkpt><trkpt lat="40.89987818429387" lon="8.679754927552887"><ele>19.0</ele><time>2026-05-02T08:58:28Z</time></trkpt><trkpt lat="40.89980968967842" lon="8.67957724693336"><ele>18.333333333333332</ele><time>2026-05-02T08:58:29Z</time></trkpt><trkpt lat="40.89975345629021" lon="8.679389542699855"><ele>17.666666666666668</ele><time>2026-05-02T08:58:30Z</time></trkpt><trkpt lat="40.89970103711218" lon="8.67919535124578"><ele>17.0</ele><time>2026-05-02T08:58:31Z</time></trkpt><trkpt lat="40.8996392527169" lon="8.679001820791965"><ele>17.0</ele><time>2026-05-02T08:58:32Z</time></trkpt><trkpt lat="40.89958045053351" lon="8.678806222315854"><ele>17.0</ele><time>2026-05-02T08:58:33Z</time></trkpt><trkpt lat="40.89951810894526" lon="8.67860445285173"><ele>17.0</ele><time>2026-05-02T08:58:34Z</time></trkpt><trkpt lat="40.89945554962745" lon="8.67840369183583"><ele>17.0</ele><time>2026-05-02T08:58:35Z</time></trkpt><trkpt lat="40.899392123510985" lon="8.678199598359212"><ele>17.0</ele><time>2026-05-02T08:58:36Z</time></trkpt><trkpt lat="40.89932403533929" lon="8.677990136022698"><ele>17.0</ele><time>2026-05-02T08:58:37Z</time></trkpt><trkpt lat="40.89925498730087" lon="8.67777691708241"><ele>18.333333333333336</ele><time>2026-05-02T08:58:38Z</time></trkpt><trkpt lat="40.89918159050207" lon="8.677542407451197"><ele>19.666666666666668</ele><time>2026-05-02T08:58:39Z</time></trkpt><trkpt lat="40.899106844771524" lon="8.67730181137847"><ele>21.0</ele><time>2026-05-02T08:58:40Z</time></trkpt><trkpt lat="40.8990354133939" lon="8.67705172535407"><ele>20.0</ele><time>2026-05-02T08:58:41Z</time></trkpt><trkpt lat="40.898968756472335" lon="8.676790038334756"><ele>19.0</ele><time>2026-05-02T08:58:42Z</time></trkpt><trkpt lat="40.898891744670436" lon="8.676529285915283"><ele>18.0</ele><time>2026-05-02T08:58:43Z</time></trkpt><trkpt lat="40.898812435605095" lon="8.676260729242642"><ele>16.0</ele><time>2026-05-02T08:58:44Z</time></trkpt><trkpt lat="40.89873313045254" lon="8.675989303595586"><ele>14.0</ele><time>2026-05-02T08:58:45Z</time></trkpt><trkpt lat="40.898649002156844" lon="8.675718575249903"><ele>12.0</ele><time>2026-05-02T08:58:46Z</time></trkpt><trkpt lat="40.89856787374968" lon="8.67544942974837"><ele>10.0</ele><time>2026-05-02T08:58:47Z</time></trkpt><trkpt lat="40.89848910174001" lon="8.675187900593473"><ele>8.0</ele><time>2026-05-02T08:58:48Z</time></trkpt><trkpt lat="40.898416589497465" lon="8.674947132126185"><ele>6.0</ele><time>2026-05-02T08:58:49Z</time></trkpt><trkpt lat="40.898349431372544" lon="8.674719324598845"><ele>10.666666666666668</ele><time>2026-05-02T08:58:50Z</time></trkpt><trkpt lat="40.898284049256354" lon="8.67449047888089"><ele>15.333333333333334</ele><time>2026-05-02T08:58:51Z</time></trkpt><trkpt lat="40.898219229970344" lon="8.674259635013236"><ele>20.0</ele><time>2026-05-02T08:58:52Z</time></trkpt><trkpt lat="40.89815473420129" lon="8.674029820635548"><ele>20.0</ele><time>2026-05-02T08:58:53Z</time></trkpt><trkpt lat="40.898097475402324" lon="8.673786589950574"><ele>20.0</ele><time>2026-05-02T08:58:54Z</time></trkpt><trkpt lat="40.898058804776205" lon="8.673531878010595"><ele>20.0</ele><time>2026-05-02T08:58:55.001Z</time></trkpt><trkpt lat="40.89801963115344" lon="8.673276906068876"><ele>17.0</ele><time>2026-05-02T08:58:56.001Z</time></trkpt><trkpt lat="40.897983140791766" lon="8.673016595036765"><ele>14.0</ele><time>2026-05-02T08:58:57.001Z</time></trkpt><trkpt lat="40.897942778321216" lon="8.67274826016171"><ele>11.0</ele><time>2026-05-02T08:58:58.001Z</time></trkpt><trkpt lat="40.89790414929364" lon="8.672476390036854"><ele>9.333333333333332</ele><time>2026-05-02T08:58:59.001Z</time></trkpt><trkpt lat="40.897851766019755" lon="8.6722015329672"><ele>7.666666666666666</ele><time>2026-05-02T08:59:00.001Z</time></trkpt><trkpt lat="40.89778871691421" lon="8.67193379869798"><ele>6.0</ele><time>2026-05-02T08:59:01.001Z</time></trkpt><trkpt lat="40.8977151612968" lon="8.671672634110578"><ele>5.333333333333333</ele><time>2026-05-02T08:59:02.001Z</time></trkpt><trkpt lat="40.89763898468686" lon="8.671431087070719"><ele>4.666666666666666</ele><time>2026-05-02T08:59:03.001Z</time></trkpt><trkpt lat="40.89755117243977" lon="8.671208829150995"><ele>4.0</ele><time>2026-05-02T08:59:04.001Z</time></trkpt><trkpt lat="40.897429102870134" lon="8.670994774859304"><ele>9.333333333333334</ele><time>2026-05-02T08:59:05.001Z</time></trkpt><trkpt lat="40.897276774578565" lon="8.670799444937249"><ele>14.666666666666668</ele><time>2026-05-02T08:59:06.001Z</time></trkpt><trkpt lat="40.89710552341565" lon="8.670615169021772"><ele>20.0</ele><time>2026-05-02T08:59:07.001Z</time></trkpt><trkpt lat="40.89693056244933" lon="8.67042734615554"><ele>24.5</ele><time>2026-05-02T08:59:08.001Z</time></trkpt><trkpt lat="40.89675656801138" lon="8.670235261772458"><ele>29.0</ele><time>2026-05-02T08:59:09.001Z</time></trkpt><trkpt lat="40.896584047799095" lon="8.670037020188802"><ele>29.0</ele><time>2026-05-02T08:59:10.001Z</time></trkpt><trkpt lat="40.89642820970224" lon="8.66982506187748"><ele>29.0</ele><time>2026-05-02T08:59:11.001Z</time></trkpt><trkpt lat="40.896300074623255" lon="8.669617552341984"><ele>29.0</ele><time>2026-05-02T08:59:12Z</time></trkpt><trkpt lat="40.89619559846174" lon="8.669424112752315"><ele>34.0</ele><time>2026-05-02T08:59:13.001Z</time></trkpt><trkpt lat="40.89609573696322" lon="8.669236981128877"><ele>39.0</ele><time>2026-05-02T08:59:14Z</time></trkpt><trkpt lat="40.89600130724161" lon="8.669054555891679"><ele>44.0</ele><time>2026-05-02T08:59:15Z</time></trkpt><trkpt lat="40.89590637782634" lon="8.668870044375238"><ele>44.0</ele><time>2026-05-02T08:59:16Z</time></trkpt><trkpt lat="40.89581555404195" lon="8.668712870881539"><ele>44.0</ele><time>2026-05-02T08:59:17Z</time></trkpt><trkpt lat="40.895735393703696" lon="8.668530499474844"><ele>44.0</ele><time>2026-05-02T08:59:18Z</time></trkpt><trkpt lat="40.895695479528186" lon="8.668337581762094"><ele>41.666666666666664</ele><time>2026-05-02T08:59:19Z</time></trkpt><trkpt lat="40.89573589859555" lon="8.668142130798406"><ele>39.333333333333336</ele><time>2026-05-02T08:59:20Z</time></trkpt><trkpt lat="40.89576476913554" lon="8.667939744317287"><ele>37.0</ele><time>2026-05-02T08:59:21Z</time></trkpt><trkpt lat="40.89578001982695" lon="8.66772783388019"><ele>35.66666666666667</ele><time>2026-05-02T08:59:22Z</time></trkpt><trkpt lat="40.89579077366423" lon="8.66751278346407"><ele>34.333333333333336</ele><time>2026-05-02T08:59:23Z</time></trkpt><trkpt lat="40.8957728082755" lon="8.667289393497956"><ele>33.0</ele><time>2026-05-02T08:59:24Z</time></trkpt><trkpt lat="40.89573073920818" lon="8.667057774677973"><ele>33.0</ele><time>2026-05-02T08:59:25Z</time></trkpt><trkpt lat="40.895679226160865" lon="8.666818810121722"><ele>33.0</ele><time>2026-05-02T08:59:26Z</time></trkpt><trkpt lat="40.8956302653125" lon="8.666573030759862"><ele>33.0</ele><time>2026-05-02T08:59:27Z</time></trkpt><trkpt lat="40.8955821087381" lon="8.666318169971758"><ele>32.0</ele><time>2026-05-02T08:59:28Z</time></trkpt><trkpt lat="40.895533830147194" lon="8.666061160678193"><ele>31.0</ele><time>2026-05-02T08:59:29Z</time></trkpt><trkpt lat="40.895488411796755" lon="8.665804885360032"><ele>30.0</ele><time>2026-05-02T08:59:30Z</time></trkpt><trkpt lat="40.895446573981545" lon="8.665561414016699"><ele>30.0</ele><time>2026-05-02T08:59:31Z</time></trkpt><trkpt lat="40.89540805507772" lon="8.665328539639038"><ele>30.0</ele><time>2026-05-02T08:59:32Z</time></trkpt><trkpt lat="40.895364749800905" lon="8.665095958398245"><ele>30.0</ele><time>2026-05-02T08:59:33Z</time></trkpt><trkpt lat="40.895303286809316" lon="8.664867156551292"><ele>29.666666666666664</ele><time>2026-05-02T08:59:34Z</time></trkpt><trkpt lat="40.89521355453787" lon="8.664653108842318"><ele>29.333333333333332</ele><time>2026-05-02T08:59:35Z</time></trkpt><trkpt lat="40.89507874817708" lon="8.664471922249202"><ele>29.0</ele><time>2026-05-02T08:59:36Z</time></trkpt><trkpt lat="40.894931436197716" lon="8.664303522748368"><ele>29.0</ele><time>2026-05-02T08:59:37Z</time></trkpt><trkpt lat="40.89477931871617" lon="8.664144323250333"><ele>29.0</ele><time>2026-05-02T08:59:38Z</time></trkpt><trkpt lat="40.89464155536032" lon="8.663984383684646"><ele>29.0</ele><time>2026-05-02T08:59:39Z</time></trkpt><trkpt lat="40.89450629197156" lon="8.663848158506797"><ele>29.0</ele><time>2026-05-02T08:59:40Z</time></trkpt><trkpt lat="40.89435987111647" lon="8.66375798231121"><ele>29.0</ele><time>2026-05-02T08:59:41Z</time></trkpt><trkpt lat="40.89420085126092" lon="8.663745219345545"><ele>29.0</ele><time>2026-05-02T08:59:42Z</time></trkpt><trkpt lat="40.89403544408604" lon="8.66377188697597"><ele>29.666666666666664</ele><time>2026-05-02T08:59:43Z</time></trkpt><trkpt lat="40.89387108648079" lon="8.663813916305811"><ele>30.333333333333336</ele><time>2026-05-02T08:59:44Z</time></trkpt><trkpt lat="40.89369266378914" lon="8.663848001588594"><ele>31.0</ele><time>2026-05-02T08:59:45Z</time></trkpt><trkpt lat="40.89352688596816" lon="8.663877419166226"><ele>31.4</ele><time>2026-05-02T08:59:46Z</time></trkpt><trkpt lat="40.89339261833823" lon="8.663896641832915"><ele>31.8</ele><time>2026-05-02T08:59:47Z</time></trkpt><trkpt lat="40.89330444329509" lon="8.663884242274397"><ele>32.199999999999996</ele><time>2026-05-02T08:59:48Z</time></trkpt><trkpt lat="40.8932577794523" lon="8.663820518077827"><ele>32.6</ele><time>2026-05-02T08:59:49Z</time></trkpt><trkpt lat="40.89327980375525" lon="8.663700201967941"><ele>33.0</ele><time>2026-05-02T08:59:50Z</time></trkpt><trkpt lat="40.893289536342884" lon="8.66359614969394"><ele>33.0</ele><time>2026-05-02T08:59:51Z</time></trkpt><trkpt lat="40.89339675279536" lon="8.663544576399048"><ele>33.0</ele><time>2026-05-02T08:59:52Z</time></trkpt><trkpt lat="40.893495747010654" lon="8.663482925744688"><ele>33.0</ele><time>2026-05-02T08:59:53Z</time></trkpt><trkpt lat="40.89362196886954" lon="8.663406526427979"><ele>33.0</ele><time>2026-05-02T08:59:54Z</time></trkpt><trkpt lat="40.89374132175019" lon="8.663327392010773"><ele>30.5</ele><time>2026-05-02T08:59:55Z</time></trkpt><trkpt lat="40.89383846444436" lon="8.663204870077317"><ele>28.0</ele><time>2026-05-02T08:59:56Z</time></trkpt><trkpt lat="40.893880514720664" lon="8.66304585196818"><ele>25.5</ele><time>2026-05-02T08:59:57Z</time></trkpt><trkpt lat="40.8938716916787" lon="8.662866424965895"><ele>23.0</ele><time>2026-05-02T08:59:58Z</time></trkpt><trkpt lat="40.89380840294371" lon="8.662685716510087"><ele>21.666666666666668</ele><time>2026-05-02T08:59:59Z</time></trkpt><trkpt lat="40.89373123590776" lon="8.662473142319802"><ele>20.333333333333332</ele><time>2026-05-02T09:00:00Z</time></trkpt><trkpt lat="40.893656187528876" lon="8.662229121978656"><ele>19.0</ele><time>2026-05-02T09:00:01Z</time></trkpt><trkpt lat="40.893592429300654" lon="8.661989564322434"><ele>17.666666666666664</ele><time>2026-05-02T09:00:02Z</time></trkpt><trkpt lat="40.893503854764546" lon="8.661752037546126"><ele>16.333333333333332</ele><time>2026-05-02T09:00:03Z</time></trkpt><trkpt lat="40.893367087204886" lon="8.661533785028693"><ele>15.0</ele><time>2026-05-02T09:00:04Z</time></trkpt><trkpt lat="40.89319934995832" lon="8.661319839765165"><ele>23.0</ele><time>2026-05-02T09:00:05Z</time></trkpt><trkpt lat="40.89304735909677" lon="8.661084571175408"><ele>31.0</ele><time>2026-05-02T09:00:06Z</time></trkpt><trkpt lat="40.892912504818185" lon="8.660838483943092"><ele>31.0</ele><time>2026-05-02T09:00:07Z</time></trkpt><trkpt lat="40.89281355680585" lon="8.660568414801073"><ele>31.0</ele><time>2026-05-02T09:00:08Z</time></trkpt><trkpt lat="40.8927548219687" lon="8.660290544912582"><ele>31.0</ele><time>2026-05-02T09:00:09Z</time></trkpt><trkpt lat="40.892707788191494" lon="8.659992342279402"><ele>30.0</ele><time>2026-05-02T09:00:10Z</time></trkpt><trkpt lat="40.892644386979526" lon="8.659685844079068"><ele>29.0</ele><time>2026-05-02T09:00:11Z</time></trkpt><trkpt lat="40.89260232390462" lon="8.659363038277146"><ele>33.5</ele><time>2026-05-02T09:00:12Z</time></trkpt><trkpt lat="40.89255364316227" lon="8.659042789223694"><ele>38.0</ele><time>2026-05-02T09:00:13Z</time></trkpt><trkpt lat="40.892509501584264" lon="8.658753448248957"><ele>37.666666666666664</ele><time>2026-05-02T09:00:14Z</time></trkpt><trkpt lat="40.89246832160563" lon="8.65848801924753"><ele>37.333333333333336</ele><time>2026-05-02T09:00:15Z</time></trkpt><trkpt lat="40.892433448401285" lon="8.65825356416765"><ele>37.0</ele><time>2026-05-02T09:00:16Z</time></trkpt><trkpt lat="40.89239729254645" lon="8.658035725069357"><ele>37.0</ele><time>2026-05-02T09:00:17Z</time></trkpt><trkpt lat="40.8923362140767" lon="8.65783080010525"><ele>37.0</ele><time>2026-05-02T09:00:18Z</time></trkpt><trkpt lat="40.89223375531267" lon="8.657635212598258"><ele>37.0</ele><time>2026-05-02T09:00:19Z</time></trkpt><trkpt lat="40.89211106596829" lon="8.657444584296494"><ele>36.0</ele><time>2026-05-02T09:00:20Z</time></trkpt><trkpt lat="40.89197993324144" lon="8.657255346542673"><ele>35.0</ele><time>2026-05-02T09:00:21Z</time></trkpt><trkpt lat="40.89184243575887" lon="8.657078508803487"><ele>34.0</ele><time>2026-05-02T09:00:22Z</time></trkpt><trkpt lat="40.891692898867554" lon="8.656952990845593"><ele>35.0</ele><time>2026-05-02T09:00:23Z</time></trkpt><trkpt lat="40.891551896823586" lon="8.65686381341737"><ele>36.0</ele><time>2026-05-02T09:00:24Z</time></trkpt><trkpt lat="40.891477754802935" lon="8.656726451978349"><ele>37.0</ele><time>2026-05-02T09:00:25Z</time></trkpt><trkpt lat="40.89146448315118" lon="8.65657454201162"><ele>38.0</ele><time>2026-05-02T09:00:26Z</time></trkpt><trkpt lat="40.89149903774962" lon="8.656439764177241"><ele>38.0</ele><time>2026-05-02T09:00:27Z</time></trkpt><trkpt lat="40.89153118733547" lon="8.656246805499409"><ele>38.0</ele><time>2026-05-02T09:00:28Z</time></trkpt><trkpt lat="40.891561200851726" lon="8.656018196406045"><ele>38.0</ele><time>2026-05-02T09:00:29Z</time></trkpt><trkpt lat="40.89160337471373" lon="8.655779185539023"><ele>37.33333333333333</ele><time>2026-05-02T09:00:30Z</time></trkpt><trkpt lat="40.891646435481725" lon="8.655539201232012"><ele>36.666666666666664</ele><time>2026-05-02T09:00:31Z</time></trkpt><trkpt lat="40.89168512557534" lon="8.65530730227515"><ele>36.0</ele><time>2026-05-02T09:00:32Z</time></trkpt><trkpt lat="40.89171974383569" lon="8.655091898989681"><ele>36.0</ele><time>2026-05-02T09:00:33Z</time></trkpt><trkpt lat="40.89174211939306" lon="8.654883299953216"><ele>36.0</ele><time>2026-05-02T09:00:34Z</time></trkpt><trkpt lat="40.89173164198598" lon="8.654675289398234"><ele>36.0</ele><time>2026-05-02T09:00:35Z</time></trkpt><trkpt lat="40.89167758877985" lon="8.654464374692102"><ele>33.333333333333336</ele><time>2026-05-02T09:00:36Z</time></trkpt><trkpt lat="40.89157987454903" lon="8.654261997878164"><ele>30.666666666666668</ele><time>2026-05-02T09:00:37Z</time></trkpt><trkpt lat="40.89146957735168" lon="8.654066684934758"><ele>28.0</ele><time>2026-05-02T09:00:38Z</time></trkpt><trkpt lat="40.89136909974944" lon="8.653851074012705"><ele>28.0</ele><time>2026-05-02T09:00:39Z</time></trkpt><trkpt lat="40.89126423966479" lon="8.653641570670832"><ele>28.0</ele><time>2026-05-02T09:00:40Z</time></trkpt><trkpt lat="40.89117011838587" lon="8.653448827558467"><ele>28.0</ele><time>2026-05-02T09:00:41Z</time></trkpt><trkpt lat="40.891102601619785" lon="8.653265049190303"><ele>22.0</ele><time>2026-05-02T09:00:42Z</time></trkpt><trkpt lat="40.89108516284775" lon="8.653047260338193"><ele>16.0</ele><time>2026-05-02T09:00:43Z</time></trkpt><trkpt lat="40.891107665521346" lon="8.652823335017004"><ele>10.0</ele><time>2026-05-02T09:00:44Z</time></trkpt><trkpt lat="40.891113952247025" lon="8.652600458224672"><ele>8.666666666666668</ele><time>2026-05-02T09:00:45Z</time></trkpt><trkpt lat="40.89112534928313" lon="8.65239321335613"><ele>7.333333333333334</ele><time>2026-05-02T09:00:46Z</time></trkpt><trkpt lat="40.891083894767" lon="8.652181914364856"><ele>6.0</ele><time>2026-05-02T09:00:47Z</time></trkpt><trkpt lat="40.89099101214013" lon="8.6519837486391"><ele>12.666666666666666</ele><time>2026-05-02T09:00:48Z</time></trkpt><trkpt lat="40.89085980033865" lon="8.651818957642153"><ele>19.333333333333332</ele><time>2026-05-02T09:00:49Z</time></trkpt><trkpt lat="40.890695780789244" lon="8.651698350976336"><ele>26.0</ele><time>2026-05-02T09:00:50Z</time></trkpt><trkpt lat="40.8905796566348" lon="8.65152534773832"><ele>26.0</ele><time>2026-05-02T09:00:51Z</time></trkpt><trkpt lat="40.89052829102108" lon="8.651345075195554"><ele>26.0</ele><time>2026-05-02T09:00:52Z</time></trkpt><trkpt lat="40.89049523444305" lon="8.651148766603718"><ele>26.0</ele><time>2026-05-02T09:00:53Z</time></trkpt><trkpt lat="40.89045993926599" lon="8.65094724117667"><ele>25.0</ele><time>2026-05-02T09:00:54Z</time></trkpt><trkpt lat="40.89038593575271" lon="8.650746366019288"><ele>24.0</ele><time>2026-05-02T09:00:55Z</time></trkpt><trkpt lat="40.89027020503831" lon="8.65057334626004"><ele>23.0</ele><time>2026-05-02T09:00:56Z</time></trkpt><trkpt lat="40.890130659694265" lon="8.650415253926157"><ele>24.333333333333336</ele><time>2026-05-02T09:00:57Z</time></trkpt><trkpt lat="40.88998504747981" lon="8.650232893688484"><ele>25.666666666666668</ele><time>2026-05-02T09:00:58Z</time></trkpt><trkpt lat="40.88984846027346" lon="8.650015494143494"><ele>27.0</ele><time>2026-05-02T09:00:59Z</time></trkpt><trkpt lat="40.88969299184618" lon="8.649805006305874"><ele>27.0</ele><time>2026-05-02T09:01:00Z</time></trkpt><trkpt lat="40.88953058328481" lon="8.649585852872875"><ele>27.0</ele><time>2026-05-02T09:01:01.001Z</time></trkpt><trkpt lat="40.88936208358328" lon="8.649358479682714"><ele>28.5</ele><time>2026-05-02T09:01:02.001Z</time></trkpt><trkpt lat="40.8891899484156" lon="8.649126200910786"><ele>30.0</ele><time>2026-05-02T09:01:03.001Z</time></trkpt><trkpt lat="40.88901552920207" lon="8.648890840098092"><ele>30.0</ele><time>2026-05-02T09:01:04.001Z</time></trkpt><trkpt lat="40.888843122991965" lon="8.648657986762073"><ele>30.0</ele><time>2026-05-02T09:01:05.001Z</time></trkpt><trkpt lat="40.888671347789696" lon="8.648425957670689"><ele>29.5</ele><time>2026-05-02T09:01:06.001Z</time></trkpt><trkpt lat="40.88850105632043" lon="8.648197936790613"><ele>29.0</ele><time>2026-05-02T09:01:07.001Z</time></trkpt><trkpt lat="40.888338768376755" lon="8.647967018999843"><ele>26.0</ele><time>2026-05-02T09:01:08.001Z</time></trkpt><trkpt lat="40.88818433538491" lon="8.647731933360381"><ele>23.0</ele><time>2026-05-02T09:01:09.001Z</time></trkpt><trkpt lat="40.88803641858709" lon="8.647494141583834"><ele>23.0</ele><time>2026-05-02T09:01:10.001Z</time></trkpt><trkpt lat="40.88789190697377" lon="8.647261600260752"><ele>23.0</ele><time>2026-05-02T09:01:11.001Z</time></trkpt><trkpt lat="40.8877494432202" lon="8.647033608310988"><ele>22.666666666666668</ele><time>2026-05-02T09:01:12.001Z</time></trkpt><trkpt lat="40.88760522713652" lon="8.646820931881422"><ele>22.333333333333332</ele><time>2026-05-02T09:01:13.001Z</time></trkpt><trkpt lat="40.8874454200527" lon="8.646628079894521"><ele>22.0</ele><time>2026-05-02T09:01:14.001Z</time></trkpt><trkpt lat="40.8872938061396" lon="8.646428274787295"><ele>22.0</ele><time>2026-05-02T09:01:15Z</time></trkpt><trkpt lat="40.88713888829091" lon="8.646230088580582"><ele>22.0</ele><time>2026-05-02T09:01:16Z</time></trkpt><trkpt lat="40.88698281115978" lon="8.646030233646265"><ele>22.0</ele><time>2026-05-02T09:01:17Z</time></trkpt><trkpt lat="40.88682611153259" lon="8.645827018257688"><ele>21.666666666666664</ele><time>2026-05-02T09:01:18Z</time></trkpt><trkpt lat="40.88666850049211" lon="8.645620591416906"><ele>21.333333333333332</ele><time>2026-05-02T09:01:19Z</time></trkpt><trkpt lat="40.88650901546055" lon="8.645418822906239"><ele>21.0</ele><time>2026-05-02T09:01:20Z</time></trkpt><trkpt lat="40.886351906314715" lon="8.645204706819715"><ele>19.0</ele><time>2026-05-02T09:01:21Z</time></trkpt><trkpt lat="40.88618613300475" lon="8.644995985068189"><ele>17.0</ele><time>2026-05-02T09:01:22Z</time></trkpt><trkpt lat="40.886014042518525" lon="8.6447959132171"><ele>21.0</ele><time>2026-05-02T09:01:23Z</time></trkpt><trkpt lat="40.88583625278005" lon="8.644601005655485"><ele>25.0</ele><time>2026-05-02T09:01:24Z</time></trkpt><trkpt lat="40.88565253665105" lon="8.64440814784234"><ele>25.0</ele><time>2026-05-02T09:01:25Z</time></trkpt><trkpt lat="40.885478272629555" lon="8.644221989862952"><ele>25.0</ele><time>2026-05-02T09:01:26Z</time></trkpt><trkpt lat="40.88531632331132" lon="8.644046473083622"><ele>25.0</ele><time>2026-05-02T09:01:27Z</time></trkpt><trkpt lat="40.88498721723442" lon="8.643686325443154"><ele>25.0</ele><time>2026-05-02T09:01:29Z</time></trkpt><trkpt lat="40.88481571498713" lon="8.643500179148955"><ele>25.0</ele><time>2026-05-02T09:01:30Z</time></trkpt><trkpt lat="40.884646287107714" lon="8.64331661311384"><ele>25.0</ele><time>2026-05-02T09:01:31Z</time></trkpt><trkpt lat="40.88448158212582" lon="8.643137961197525"><ele>25.0</ele><time>2026-05-02T09:01:32Z</time></trkpt><trkpt lat="40.8843372929197" lon="8.642949083880728"><ele>25.0</ele><time>2026-05-02T09:01:33Z</time></trkpt><trkpt lat="40.88417650239252" lon="8.642772037762485"><ele>25.0</ele><time>2026-05-02T09:01:34Z</time></trkpt><trkpt lat="40.88400402487344" lon="8.642601756595587"><ele>24.666666666666668</ele><time>2026-05-02T09:01:35Z</time></trkpt><trkpt lat="40.883852208146834" lon="8.64239912176081"><ele>24.333333333333336</ele><time>2026-05-02T09:01:36Z</time></trkpt><trkpt lat="40.88371826961428" lon="8.642177555223398"><ele>24.0</ele><time>2026-05-02T09:01:37Z</time></trkpt><trkpt lat="40.883617132391386" lon="8.641930585880559"><ele>24.0</ele><time>2026-05-02T09:01:38Z</time></trkpt><trkpt lat="40.88350449562192" lon="8.641686959614386"><ele>24.0</ele><time>2026-05-02T09:01:39Z</time></trkpt><trkpt lat="40.88339382245451" lon="8.641440246187237"><ele>24.0</ele><time>2026-05-02T09:01:40Z</time></trkpt><trkpt lat="40.88328225657028" lon="8.641192736033217"><ele>24.0</ele><time>2026-05-02T09:01:41Z</time></trkpt><trkpt lat="40.883156904491436" lon="8.640955972228777"><ele>24.0</ele><time>2026-05-02T09:01:42Z</time></trkpt><trkpt lat="40.883048999097745" lon="8.640706859392754"><ele>24.0</ele><time>2026-05-02T09:01:43Z</time></trkpt><trkpt lat="40.882944050876226" lon="8.640452710660272"><ele>23.333333333333332</ele><time>2026-05-02T09:01:44Z</time></trkpt><trkpt lat="40.88286977294572" lon="8.640174013160188"><ele>22.666666666666664</ele><time>2026-05-02T09:01:45Z</time></trkpt><trkpt lat="40.88277552541949" lon="8.639902650433694"><ele>22.0</ele><time>2026-05-02T09:01:46Z</time></trkpt><trkpt lat="40.882709586787115" lon="8.639618118002138"><ele>23.0</ele><time>2026-05-02T09:01:47Z</time></trkpt><trkpt lat="40.88264468190613" lon="8.639335729559914"><ele>24.0</ele><time>2026-05-02T09:01:48Z</time></trkpt><trkpt lat="40.88258088677784" lon="8.639054844548562"><ele>25.0</ele><time>2026-05-02T09:01:49Z</time></trkpt><trkpt lat="40.88251665038108" lon="8.638775633570775"><ele>24.0</ele><time>2026-05-02T09:01:50Z</time></trkpt><trkpt lat="40.88245172521061" lon="8.638499303514292"><ele>23.0</ele><time>2026-05-02T09:01:51Z</time></trkpt><trkpt lat="40.88238838826909" lon="8.638224826590344"><ele>22.0</ele><time>2026-05-02T09:01:52Z</time></trkpt><trkpt lat="40.88232668278301" lon="8.637953985631082"><ele>21.666666666666664</ele><time>2026-05-02T09:01:53Z</time></trkpt><trkpt lat="40.88226596403076" lon="8.637686643434419"><ele>21.333333333333332</ele><time>2026-05-02T09:01:54Z</time></trkpt><trkpt lat="40.88220663253244" lon="8.637419860645446"><ele>21.0</ele><time>2026-05-02T09:01:55Z</time></trkpt><trkpt lat="40.88214693879046" lon="8.637152961564967"><ele>20.0</ele><time>2026-05-02T09:01:56Z</time></trkpt><trkpt lat="40.88208417721987" lon="8.636885386252562"><ele>19.0</ele><time>2026-05-02T09:01:57Z</time></trkpt><trkpt lat="40.882016193633085" lon="8.636619829948671"><ele>18.0</ele><time>2026-05-02T09:01:58Z</time></trkpt><trkpt lat="40.88193595900005" lon="8.636361425423026"><ele>15.666666666666666</ele><time>2026-05-02T09:01:59Z</time></trkpt><trkpt lat="40.88183258029272" lon="8.636116768040333"><ele>13.333333333333332</ele><time>2026-05-02T09:02:00Z</time></trkpt><trkpt lat="40.881710289191496" lon="8.635889299862784"><ele>11.0</ele><time>2026-05-02T09:02:01Z</time></trkpt><trkpt lat="40.88156290925855" lon="8.635702674246586"><ele>17.333333333333332</ele><time>2026-05-02T09:02:02Z</time></trkpt><trkpt lat="40.88139390719035" lon="8.635556378035412"><ele>23.666666666666668</ele><time>2026-05-02T09:02:03Z</time></trkpt><trkpt lat="40.8812231613203" lon="8.635433397660892"><ele>30.0</ele><time>2026-05-02T09:02:04Z</time></trkpt><trkpt lat="40.88104815301606" lon="8.635336868008142"><ele>30.666666666666664</ele><time>2026-05-02T09:02:05Z</time></trkpt><trkpt lat="40.88086457099158" lon="8.635280388873653"><ele>31.333333333333332</ele><time>2026-05-02T09:02:06Z</time></trkpt><trkpt lat="40.880680150704656" lon="8.635271536891745"><ele>32.0</ele><time>2026-05-02T09:02:07Z</time></trkpt><trkpt lat="40.88049138742612" lon="8.635290813150933"><ele>32.0</ele><time>2026-05-02T09:02:08Z</time></trkpt><trkpt lat="40.880292112722486" lon="8.635297254991462"><ele>32.0</ele><time>2026-05-02T09:02:09Z</time></trkpt><trkpt lat="40.88008353738542" lon="8.63527567633759"><ele>32.0</ele><time>2026-05-02T09:02:10Z</time></trkpt><trkpt lat="40.8798822260699" lon="8.635232923703857"><ele>32.33333333333333</ele><time>2026-05-02T09:02:11Z</time></trkpt><trkpt lat="40.879694058010635" lon="8.635177265644696"><ele>32.666666666666664</ele><time>2026-05-02T09:02:12Z</time></trkpt><trkpt lat="40.879505558038574" lon="8.635119297019955"><ele>33.0</ele><time>2026-05-02T09:02:13Z</time></trkpt><trkpt lat="40.879320635461156" lon="8.63504396829564"><ele>45.0</ele><time>2026-05-02T09:02:14Z</time></trkpt><trkpt lat="40.8794019899534" lon="8.635680425639976"><ele>45.0</ele><time>2026-05-02T09:02:15Z</time></trkpt><trkpt lat="40.87927298828631" lon="8.635670591147218"><ele>45.0</ele><time>2026-05-02T09:02:16Z</time></trkpt><trkpt lat="40.87915001066177" lon="8.635591198542995"><ele>45.0</ele><time>2026-05-02T09:02:17Z</time></trkpt><trkpt lat="40.87903257632603" lon="8.63545726114535"><ele>45.0</ele><time>2026-05-02T09:02:18Z</time></trkpt><trkpt lat="40.87893523533939" lon="8.635260782642247"><ele>42.333333333333336</ele><time>2026-05-02T09:02:19Z</time></trkpt><trkpt lat="40.878780609660595" lon="8.63515428545886"><ele>39.66666666666667</ele><time>2026-05-02T09:02:20Z</time></trkpt><trkpt lat="40.878637220570106" lon="8.635063674226128"><ele>37.0</ele><time>2026-05-02T09:02:21Z</time></trkpt><trkpt lat="40.87847615386227" lon="8.635037227121366"><ele>37.333333333333336</ele><time>2026-05-02T09:02:22Z</time></trkpt><trkpt lat="40.878309998138576" lon="8.635081890831362"><ele>37.666666666666664</ele><time>2026-05-02T09:02:23Z</time></trkpt><trkpt lat="40.87815055134855" lon="8.635179792868714"><ele>38.0</ele><time>2026-05-02T09:02:24Z</time></trkpt><trkpt lat="40.877984071236085" lon="8.635303300775721"><ele>37.666666666666664</ele><time>2026-05-02T09:02:25Z</time></trkpt><trkpt lat="40.87781514812719" lon="8.635433635570342"><ele>37.333333333333336</ele><time>2026-05-02T09:02:26Z</time></trkpt><trkpt lat="40.87765212741878" lon="8.635560743554413"><ele>37.0</ele><time>2026-05-02T09:02:27Z</time></trkpt><trkpt lat="40.87750714702558" lon="8.635678788487507"><ele>37.0</ele><time>2026-05-02T09:02:28Z</time></trkpt><trkpt lat="40.87736927768681" lon="8.635784674995879"><ele>37.0</ele><time>2026-05-02T09:02:29Z</time></trkpt><trkpt lat="40.87722898811198" lon="8.63584307387157"><ele>37.0</ele><time>2026-05-02T09:02:30Z</time></trkpt><trkpt lat="40.877101663676804" lon="8.635839658485791"><ele>37.0</ele><time>2026-05-02T09:02:31Z</time></trkpt><trkpt lat="40.877010611809965" lon="8.635758913652717"><ele>37.0</ele><time>2026-05-02T09:02:32Z</time></trkpt><trkpt lat="40.87693797861888" lon="8.63565072087158"><ele>37.0</ele><time>2026-05-02T09:02:33Z</time></trkpt><trkpt lat="40.87689193463525" lon="8.635502485588667"><ele>37.0</ele><time>2026-05-02T09:02:34Z</time></trkpt><trkpt lat="40.87687263474335" lon="8.635322529580481"><ele>37.0</ele><time>2026-05-02T09:02:35Z</time></trkpt><trkpt lat="40.87685135881712" lon="8.635104525939859"><ele>34.66666666666667</ele><time>2026-05-02T09:02:36Z</time></trkpt><trkpt lat="40.876832561074785" lon="8.634861809782782"><ele>32.333333333333336</ele><time>2026-05-02T09:02:37Z</time></trkpt><trkpt lat="40.87681124088673" lon="8.634598666102754"><ele>30.0</ele><time>2026-05-02T09:02:38Z</time></trkpt><trkpt lat="40.8767816127339" lon="8.6343445787945"><ele>31.666666666666664</ele><time>2026-05-02T09:02:39Z</time></trkpt><trkpt lat="40.87672715474553" lon="8.63411408018248"><ele>33.33333333333333</ele><time>2026-05-02T09:02:40Z</time></trkpt><trkpt lat="40.87666645974245" lon="8.633879704057497"><ele>35.0</ele><time>2026-05-02T09:02:41Z</time></trkpt><trkpt lat="40.876566272333136" lon="8.63366249553857"><ele>34.0</ele><time>2026-05-02T09:02:42Z</time></trkpt><trkpt lat="40.876439614168234" lon="8.633478515883997"><ele>33.0</ele><time>2026-05-02T09:02:43Z</time></trkpt><trkpt lat="40.876276948338806" lon="8.633328420463231"><ele>32.0</ele><time>2026-05-02T09:02:44Z</time></trkpt><trkpt lat="40.876133720901656" lon="8.633194618979639"><ele>32.0</ele><time>2026-05-02T09:02:45Z</time></trkpt><trkpt lat="40.87597807218873" lon="8.633089168235049"><ele>32.0</ele><time>2026-05-02T09:02:46Z</time></trkpt><trkpt lat="40.8758024272213" lon="8.63300758307946"><ele>32.0</ele><time>2026-05-02T09:02:47Z</time></trkpt><trkpt lat="40.87560675076269" lon="8.632966260786551"><ele>32.0</ele><time>2026-05-02T09:02:48Z</time></trkpt><trkpt lat="40.8754050355388" lon="8.632933032074494"><ele>32.0</ele><time>2026-05-02T09:02:49Z</time></trkpt><trkpt lat="40.87520022492141" lon="8.632894336378651"><ele>32.0</ele><time>2026-05-02T09:02:50Z</time></trkpt><trkpt lat="40.87499440243475" lon="8.632852839066466"><ele>32.0</ele><time>2026-05-02T09:02:51Z</time></trkpt><trkpt lat="40.87479078064441" lon="8.632811998202655"><ele>32.0</ele><time>2026-05-02T09:02:52Z</time></trkpt><trkpt lat="40.87458974575246" lon="8.632775396410706"><ele>32.0</ele><time>2026-05-02T09:02:53Z</time></trkpt><trkpt lat="40.874392161676255" lon="8.632735350239951"><ele>28.333333333333332</ele><time>2026-05-02T09:02:54Z</time></trkpt><trkpt lat="40.87419659712429" lon="8.632695337410548"><ele>24.666666666666664</ele><time>2026-05-02T09:02:55Z</time></trkpt><trkpt lat="40.874000248311404" lon="8.632656643698645"><ele>21.0</ele><time>2026-05-02T09:02:56Z</time></trkpt><trkpt lat="40.873800764232435" lon="8.632616891810613"><ele>21.0</ele><time>2026-05-02T09:02:57Z</time></trkpt><trkpt lat="40.873601933522366" lon="8.63257646719189"><ele>21.0</ele><time>2026-05-02T09:02:58Z</time></trkpt><trkpt lat="40.873402796112636" lon="8.632536226376745"><ele>21.0</ele><time>2026-05-02T09:02:59Z</time></trkpt><trkpt lat="40.87320418623514" lon="8.632497007941314"><ele>20.666666666666668</ele><time>2026-05-02T09:03:00Z</time></trkpt><trkpt lat="40.873003274520144" lon="8.632458111484866"><ele>20.333333333333336</ele><time>2026-05-02T09:03:01Z</time></trkpt><trkpt lat="40.87280010059959" lon="8.632396423927654"><ele>20.0</ele><time>2026-05-02T09:03:02Z</time></trkpt><trkpt lat="40.87259075203154" lon="8.632353818511156"><ele>20.0</ele><time>2026-05-02T09:03:03Z</time></trkpt><trkpt lat="40.872373500206564" lon="8.632331060955787"><ele>20.0</ele><time>2026-05-02T09:03:04Z</time></trkpt><trkpt lat="40.87215353672715" lon="8.632284888935535"><ele>20.0</ele><time>2026-05-02T09:03:05Z</time></trkpt><trkpt lat="40.87192936358489" lon="8.632239026296702"><ele>19.5</ele><time>2026-05-02T09:03:06Z</time></trkpt><trkpt lat="40.87170062851055" lon="8.632193478431892"><ele>19.0</ele><time>2026-05-02T09:03:07Z</time></trkpt><trkpt lat="40.87146869563612" lon="8.632147940647878"><ele>19.0</ele><time>2026-05-02T09:03:08Z</time></trkpt><trkpt lat="40.87123825004432" lon="8.632080241236745"><ele>19.0</ele><time>2026-05-02T09:03:09Z</time></trkpt><trkpt lat="40.87100198071657" lon="8.632032963556831"><ele>18.5</ele><time>2026-05-02T09:03:10Z</time></trkpt><trkpt lat="40.8707663138438" lon="8.631985806422064"><ele>18.0</ele><time>2026-05-02T09:03:11Z</time></trkpt><trkpt lat="40.87052887708617" lon="8.631938521765587"><ele>15.5</ele><time>2026-05-02T09:03:12Z</time></trkpt><trkpt lat="40.870288474718116" lon="8.631890664789958"><ele>13.0</ele><time>2026-05-02T09:03:13Z</time></trkpt><trkpt lat="40.870046001294334" lon="8.631842395523247"><ele>12.0</ele><time>2026-05-02T09:03:14Z</time></trkpt><trkpt lat="40.86980318279336" lon="8.631794057576153"><ele>11.0</ele><time>2026-05-02T09:03:15Z</time></trkpt><trkpt lat="40.86955961340174" lon="8.631745570136511"><ele>11.0</ele><time>2026-05-02T09:03:16Z</time></trkpt><trkpt lat="40.86932010016094" lon="8.631697835602015"><ele>11.0</ele><time>2026-05-02T09:03:17Z</time></trkpt><trkpt lat="40.869097481785076" lon="8.631653457165621"><ele>10.333333333333332</ele><time>2026-05-02T09:03:18Z</time></trkpt><trkpt lat="40.868884792796486" lon="8.631632983889709"><ele>9.666666666666666</ele><time>2026-05-02T09:03:19Z</time></trkpt><trkpt lat="40.86868364170212" lon="8.631589766211167"><ele>9.0</ele><time>2026-05-02T09:03:20Z</time></trkpt><trkpt lat="40.86848929975747" lon="8.63155287101724"><ele>9.333333333333334</ele><time>2026-05-02T09:03:21Z</time></trkpt><trkpt lat="40.86830561968124" lon="8.631493555000624"><ele>9.666666666666668</ele><time>2026-05-02T09:03:22Z</time></trkpt><trkpt lat="40.868118374036975" lon="8.631475368783779"><ele>10.0</ele><time>2026-05-02T09:03:23Z</time></trkpt><trkpt lat="40.86794020519268" lon="8.631414706562303"><ele>10.0</ele><time>2026-05-02T09:03:24Z</time></trkpt><trkpt lat="40.86775995258412" lon="8.63136359169003"><ele>10.0</ele><time>2026-05-02T09:03:25Z</time></trkpt><trkpt lat="40.86757352439735" lon="8.631314613846452"><ele>10.0</ele><time>2026-05-02T09:03:26Z</time></trkpt><trkpt lat="40.86739962192103" lon="8.631204805638518"><ele>9.333333333333334</ele><time>2026-05-02T09:03:27Z</time></trkpt><trkpt lat="40.8672453618543" lon="8.631049251717307"><ele>8.666666666666666</ele><time>2026-05-02T09:03:28Z</time></trkpt><trkpt lat="40.86711179385883" lon="8.630882690679408"><ele>8.0</ele><time>2026-05-02T09:03:29Z</time></trkpt><trkpt lat="40.86700330073824" lon="8.630689322385646"><ele>8.0</ele><time>2026-05-02T09:03:30Z</time></trkpt><trkpt lat="40.866870306897205" lon="8.630529233191256"><ele>8.0</ele><time>2026-05-02T09:03:31Z</time></trkpt><trkpt lat="40.86673858754897" lon="8.630371172307978"><ele>8.0</ele><time>2026-05-02T09:03:32Z</time></trkpt><trkpt lat="40.86660937845261" lon="8.630215991094202"><ele>8.333333333333332</ele><time>2026-05-02T09:03:33Z</time></trkpt><trkpt lat="40.86647948468497" lon="8.630059830346172"><ele>8.666666666666666</ele><time>2026-05-02T09:03:34Z</time></trkpt><trkpt lat="40.86634592321409" lon="8.629899260314415"><ele>9.0</ele><time>2026-05-02T09:03:35Z</time></trkpt><trkpt lat="40.866210738690995" lon="8.629736738843844"><ele>9.0</ele><time>2026-05-02T09:03:36Z</time></trkpt><trkpt lat="40.86607586834249" lon="8.62957459520554"><ele>9.0</ele><time>2026-05-02T09:03:37Z</time></trkpt><trkpt lat="40.865941422635096" lon="8.629412962049265"><ele>9.0</ele><time>2026-05-02T09:03:38Z</time></trkpt><trkpt lat="40.8658072386314" lon="8.62925150358171"><ele>9.666666666666666</ele><time>2026-05-02T09:03:39Z</time></trkpt><trkpt lat="40.86567256212073" lon="8.629091115066284"><ele>10.333333333333332</ele><time>2026-05-02T09:03:40Z</time></trkpt><trkpt lat="40.86553550204619" lon="8.62892794393127"><ele>11.0</ele><time>2026-05-02T09:03:41Z</time></trkpt><trkpt lat="40.86539538838139" lon="8.628761137474836"><ele>11.0</ele><time>2026-05-02T09:03:42Z</time></trkpt><trkpt lat="40.86525281534949" lon="8.62859140314868"><ele>11.0</ele><time>2026-05-02T09:03:43Z</time></trkpt><trkpt lat="40.86510847973542" lon="8.628418627619695"><ele>11.0</ele><time>2026-05-02T09:03:44Z</time></trkpt><trkpt lat="40.86495049498228" lon="8.628257022873191"><ele>11.0</ele><time>2026-05-02T09:03:45Z</time></trkpt><trkpt lat="40.86481220696353" lon="8.628062899446862"><ele>11.0</ele><time>2026-05-02T09:03:46Z</time></trkpt><trkpt lat="40.8646619008366" lon="8.627882430241701"><ele>11.0</ele><time>2026-05-02T09:03:47Z</time></trkpt><trkpt lat="40.86450094368709" lon="8.627717528948791"><ele>10.666666666666666</ele><time>2026-05-02T09:03:48Z</time></trkpt><trkpt lat="40.864365668995575" lon="8.627526751317856"><ele>10.333333333333334</ele><time>2026-05-02T09:03:49Z</time></trkpt><trkpt lat="40.864228933299486" lon="8.627362573943419"><ele>10.0</ele><time>2026-05-02T09:03:50Z</time></trkpt><trkpt lat="40.86409707855211" lon="8.627204273523922"><ele>10.0</ele><time>2026-05-02T09:03:51Z</time></trkpt><trkpt lat="40.86396755029905" lon="8.627048760000175"><ele>10.0</ele><time>2026-05-02T09:03:52Z</time></trkpt><trkpt lat="40.863834070068634" lon="8.626888501265046"><ele>10.0</ele><time>2026-05-02T09:03:53Z</time></trkpt><trkpt lat="40.86367908486595" lon="8.626750676696643"><ele>9.333333333333334</ele><time>2026-05-02T09:03:54Z</time></trkpt><trkpt lat="40.8635414353094" lon="8.626582727316594"><ele>8.666666666666666</ele><time>2026-05-02T09:03:55Z</time></trkpt><trkpt lat="40.86340279717135" lon="8.626411655553783"><ele>8.0</ele><time>2026-05-02T09:03:56Z</time></trkpt><trkpt lat="40.863261793401435" lon="8.626239677321845"><ele>7.333333333333333</ele><time>2026-05-02T09:03:57Z</time></trkpt><trkpt lat="40.86312207107635" lon="8.62606803511979"><ele>6.666666666666666</ele><time>2026-05-02T09:03:58Z</time></trkpt><trkpt lat="40.8629885505303" lon="8.625907166189483"><ele>6.0</ele><time>2026-05-02T09:03:59Z</time></trkpt><trkpt lat="40.8628660809084" lon="8.625759327908039"><ele>6.0</ele><time>2026-05-02T09:04:00Z</time></trkpt><trkpt lat="40.86274232193501" lon="8.6256078634604"><ele>6.0</ele><time>2026-05-02T09:04:01Z</time></trkpt><trkpt lat="40.8626181471216" lon="8.625461172490613"><ele>6.0</ele><time>2026-05-02T09:04:02Z</time></trkpt><trkpt lat="40.86249398144725" lon="8.625311328852234"><ele>6.333333333333334</ele><time>2026-05-02T09:04:03Z</time></trkpt><trkpt lat="40.8623668353548" lon="8.625158311360089"><ele>6.666666666666667</ele><time>2026-05-02T09:04:04Z</time></trkpt><trkpt lat="40.862237077936044" lon="8.625007489581472"><ele>7.0</ele><time>2026-05-02T09:04:05Z</time></trkpt><trkpt lat="40.86210468657244" lon="8.624847911009878"><ele>7.0</ele><time>2026-05-02T09:04:06Z</time></trkpt><trkpt lat="40.86196822896866" lon="8.624686171849731"><ele>7.0</ele><time>2026-05-02T09:04:07Z</time></trkpt><trkpt lat="40.861829078402586" lon="8.62451959680249"><ele>7.0</ele><time>2026-05-02T09:04:08Z</time></trkpt><trkpt lat="40.86168589977401" lon="8.624347421661268"><ele>7.0</ele><time>2026-05-02T09:04:09Z</time></trkpt><trkpt lat="40.86153953820514" lon="8.624167680406561"><ele>7.0</ele><time>2026-05-02T09:04:10Z</time></trkpt><trkpt lat="40.86138309938399" lon="8.623983729381392"><ele>7.0</ele><time>2026-05-02T09:04:11Z</time></trkpt><trkpt lat="40.86122312185769" lon="8.623791282574718"><ele>7.0</ele><time>2026-05-02T09:04:12Z</time></trkpt><trkpt lat="40.8610555759129" lon="8.623593651483587"><ele>7.0</ele><time>2026-05-02T09:04:13Z</time></trkpt><trkpt lat="40.86087988815584" lon="8.623382515254564"><ele>7.0</ele><time>2026-05-02T09:04:14Z</time></trkpt><trkpt lat="40.8606959557073" lon="8.623164137506413"><ele>7.0</ele><time>2026-05-02T09:04:15Z</time></trkpt><trkpt lat="40.86050460042767" lon="8.622935269526547"><ele>7.0</ele><time>2026-05-02T09:04:16Z</time></trkpt><trkpt lat="40.86030816775042" lon="8.622702118541373"><ele>7.0</ele><time>2026-05-02T09:04:17Z</time></trkpt><trkpt lat="40.860106648899574" lon="8.622462951788725"><ele>7.0</ele><time>2026-05-02T09:04:18Z</time></trkpt><trkpt lat="40.85990602780356" lon="8.62222931408933"><ele>7.0</ele><time>2026-05-02T09:04:19Z</time></trkpt><trkpt lat="40.85971389302824" lon="8.622007835019813"><ele>7.0</ele><time>2026-05-02T09:04:20Z</time></trkpt><trkpt lat="40.859506456604166" lon="8.621772066303468"><ele>7.0</ele><time>2026-05-02T09:04:21Z</time></trkpt><trkpt lat="40.85929039428447" lon="8.621520672877491"><ele>7.5</ele><time>2026-05-02T09:04:22Z</time></trkpt><trkpt lat="40.85906271388744" lon="8.621244593901226"><ele>8.0</ele><time>2026-05-02T09:04:23Z</time></trkpt><trkpt lat="40.858818342726934" lon="8.620939834422485"><ele>8.0</ele><time>2026-05-02T09:04:24Z</time></trkpt><trkpt lat="40.858575509138" lon="8.620634734454363"><ele>8.0</ele><time>2026-05-02T09:04:25Z</time></trkpt><trkpt lat="40.85836197684469" lon="8.620354373448125"><ele>8.5</ele><time>2026-05-02T09:04:26Z</time></trkpt><trkpt lat="40.858160513471475" lon="8.62009334033894"><ele>9.0</ele><time>2026-05-02T09:04:27Z</time></trkpt><trkpt lat="40.85796942454809" lon="8.61985885947368"><ele>9.0</ele><time>2026-05-02T09:04:28Z</time></trkpt><trkpt lat="40.85778562590206" lon="8.619638804113617"><ele>9.0</ele><time>2026-05-02T09:04:29Z</time></trkpt><trkpt lat="40.85760907730684" lon="8.619426510579675"><ele>10.0</ele><time>2026-05-02T09:04:30Z</time></trkpt><trkpt lat="40.857432359332826" lon="8.619217704942335"><ele>11.0</ele><time>2026-05-02T09:04:31Z</time></trkpt><trkpt lat="40.857252388983305" lon="8.619006125620091"><ele>11.0</ele><time>2026-05-02T09:04:32Z</time></trkpt><trkpt lat="40.85707235655226" lon="8.618792883893597"><ele>11.0</ele><time>2026-05-02T09:04:33Z</time></trkpt><trkpt lat="40.85689250635984" lon="8.61857725199234"><ele>11.5</ele><time>2026-05-02T09:04:34Z</time></trkpt><trkpt lat="40.85671287316711" lon="8.61835625827424"><ele>12.0</ele><time>2026-05-02T09:04:35Z</time></trkpt><trkpt lat="40.85653142952843" lon="8.61813411039229"><ele>12.0</ele><time>2026-05-02T09:04:36Z</time></trkpt><trkpt lat="40.856350832175" lon="8.617912275202917"><ele>12.0</ele><time>2026-05-02T09:04:37Z</time></trkpt><trkpt lat="40.85616828683336" lon="8.617694384074746"><ele>11.5</ele><time>2026-05-02T09:04:38Z</time></trkpt><trkpt lat="40.855989244304375" lon="8.617481670639238"><ele>11.0</ele><time>2026-05-02T09:04:39Z</time></trkpt><trkpt lat="40.855815049399766" lon="8.617270750906476"><ele>12.0</ele><time>2026-05-02T09:04:40Z</time></trkpt><trkpt lat="40.85564220846074" lon="8.61706122992335"><ele>13.0</ele><time>2026-05-02T09:04:41Z</time></trkpt><trkpt lat="40.855469787046744" lon="8.61685179645766"><ele>13.0</ele><time>2026-05-02T09:04:42Z</time></trkpt><trkpt lat="40.855296564273075" lon="8.616641896519841"><ele>13.0</ele><time>2026-05-02T09:04:43Z</time></trkpt><trkpt lat="40.85512182330134" lon="8.61642939140829"><ele>13.5</ele><time>2026-05-02T09:04:44Z</time></trkpt><trkpt lat="40.85496014978321" lon="8.616198845837129"><ele>14.0</ele><time>2026-05-02T09:04:45Z</time></trkpt><trkpt lat="40.85478636074014" lon="8.615988381387622"><ele>13.0</ele><time>2026-05-02T09:04:46Z</time></trkpt><trkpt lat="40.85461208319853" lon="8.615778161224506"><ele>12.0</ele><time>2026-05-02T09:04:47Z</time></trkpt><trkpt lat="40.85443641273553" lon="8.615566800026253"><ele>14.0</ele><time>2026-05-02T09:04:48Z</time></trkpt><trkpt lat="40.85425943299658" lon="8.615353863560458"><ele>16.0</ele><time>2026-05-02T09:04:49Z</time></trkpt><trkpt lat="40.854080573663595" lon="8.615139517904188"><ele>16.0</ele><time>2026-05-02T09:04:50Z</time></trkpt><trkpt lat="40.8538989006523" lon="8.614921677084217"><ele>16.0</ele><time>2026-05-02T09:04:51Z</time></trkpt><trkpt lat="40.853715437570344" lon="8.61470330704198"><ele>15.5</ele><time>2026-05-02T09:04:52Z</time></trkpt><trkpt lat="40.853531179547744" lon="8.614484231890009"><ele>15.0</ele><time>2026-05-02T09:04:53Z</time></trkpt><trkpt lat="40.85334591740622" lon="8.61426396288229"><ele>15.0</ele><time>2026-05-02T09:04:54Z</time></trkpt><trkpt lat="40.853145694112506" lon="8.61406332791786"><ele>15.0</ele><time>2026-05-02T09:04:55Z</time></trkpt><trkpt lat="40.852958447711714" lon="8.613844487990908"><ele>15.5</ele><time>2026-05-02T09:04:56Z</time></trkpt><trkpt lat="40.85277115346264" lon="8.613625605204662"><ele>16.0</ele><time>2026-05-02T09:04:57Z</time></trkpt><trkpt lat="40.85258666357324" lon="8.613404339775764"><ele>16.0</ele><time>2026-05-02T09:04:58Z</time></trkpt><trkpt lat="40.852416649689715" lon="8.613159366042906"><ele>16.0</ele><time>2026-05-02T09:04:59Z</time></trkpt><trkpt lat="40.852229862991315" lon="8.612937633829699"><ele>15.5</ele><time>2026-05-02T09:05:00Z</time></trkpt><trkpt lat="40.852046440367616" lon="8.612719483806018"><ele>15.0</ele><time>2026-05-02T09:05:01Z</time></trkpt><trkpt lat="40.85186333690446" lon="8.612501683659865"><ele>15.5</ele><time>2026-05-02T09:05:02Z</time></trkpt><trkpt lat="40.85168455174751" lon="8.612287729202583"><ele>16.0</ele><time>2026-05-02T09:05:03Z</time></trkpt><trkpt lat="40.851506227705954" lon="8.612075262091057"><ele>16.0</ele><time>2026-05-02T09:05:04Z</time></trkpt><trkpt lat="40.85133007010009" lon="8.611865376032874"><ele>16.0</ele><time>2026-05-02T09:05:05Z</time></trkpt><trkpt lat="40.8511562893315" lon="8.61165832182493"><ele>16.0</ele><time>2026-05-02T09:05:06Z</time></trkpt><trkpt lat="40.8509846278993" lon="8.611453794039107"><ele>16.0</ele><time>2026-05-02T09:05:07Z</time></trkpt><trkpt lat="40.85081592074621" lon="8.611252785021895"><ele>15.666666666666666</ele><time>2026-05-02T09:05:08Z</time></trkpt><trkpt lat="40.85064928292316" lon="8.611054241466054"><ele>15.333333333333332</ele><time>2026-05-02T09:05:09Z</time></trkpt><trkpt lat="40.85048425896475" lon="8.610857620816104"><ele>15.0</ele><time>2026-05-02T09:05:10Z</time></trkpt><trkpt lat="40.85032084656371" lon="8.610662814488993"><ele>15.0</ele><time>2026-05-02T09:05:11Z</time></trkpt><trkpt lat="40.85015906897989" lon="8.610469953215674"><ele>15.0</ele><time>2026-05-02T09:05:12Z</time></trkpt><trkpt lat="40.84999990775019" lon="8.610280825425283"><ele>15.0</ele><time>2026-05-02T09:05:13.001Z</time></trkpt><trkpt lat="40.8498354196831" lon="8.610086366360107"><ele>15.333333333333332</ele><time>2026-05-02T09:05:14.001Z</time></trkpt><trkpt lat="40.849659530614474" lon="8.609911593690283"><ele>15.666666666666666</ele><time>2026-05-02T09:05:15.001Z</time></trkpt><trkpt lat="40.849495454896584" lon="8.609715992222734"><ele>16.0</ele><time>2026-05-02T09:05:16.001Z</time></trkpt><trkpt lat="40.849332485033784" lon="8.609520561003905"><ele>17.0</ele><time>2026-05-02T09:05:17.001Z</time></trkpt><trkpt lat="40.849172932188914" lon="8.609333720941278"><ele>18.0</ele><time>2026-05-02T09:05:18.001Z</time></trkpt><trkpt lat="40.849011159805286" lon="8.60914323328715"><ele>19.0</ele><time>2026-05-02T09:05:19Z</time></trkpt><trkpt lat="40.84885161544299" lon="8.608951400060391"><ele>19.0</ele><time>2026-05-02T09:05:20Z</time></trkpt><trkpt lat="40.848691102045855" lon="8.6087564552615"><ele>19.0</ele><time>2026-05-02T09:05:21Z</time></trkpt><trkpt lat="40.84852966153617" lon="8.60856321718589"><ele>19.0</ele><time>2026-05-02T09:05:22Z</time></trkpt><trkpt lat="40.848366891549986" lon="8.608371217548413"><ele>19.333333333333332</ele><time>2026-05-02T09:05:23Z</time></trkpt><trkpt lat="40.84820346387979" lon="8.608177181046226"><ele>19.666666666666668</ele><time>2026-05-02T09:05:24Z</time></trkpt><trkpt lat="40.84803862029678" lon="8.607985270994808"><ele>20.0</ele><time>2026-05-02T09:05:25Z</time></trkpt><trkpt lat="40.847873060269634" lon="8.607788726275674"><ele>20.0</ele><time>2026-05-02T09:05:26Z</time></trkpt><trkpt lat="40.84770891685454" lon="8.607592234684825"><ele>20.0</ele><time>2026-05-02T09:05:27Z</time></trkpt><trkpt lat="40.847547825332505" lon="8.607397335747565"><ele>20.0</ele><time>2026-05-02T09:05:28Z</time></trkpt><trkpt lat="40.84738483449359" lon="8.60720363520015"><ele>22.0</ele><time>2026-05-02T09:05:29Z</time></trkpt><trkpt lat="40.84721179566446" lon="8.60701372163058"><ele>24.0</ele><time>2026-05-02T09:05:30Z</time></trkpt><trkpt lat="40.847029500563785" lon="8.60682743687848"><ele>24.0</ele><time>2026-05-02T09:05:31Z</time></trkpt><trkpt lat="40.84684012388288" lon="8.606644003204295"><ele>24.0</ele><time>2026-05-02T09:05:32Z</time></trkpt><trkpt lat="40.8466504848529" lon="8.606465298053777"><ele>25.0</ele><time>2026-05-02T09:05:33Z</time></trkpt><trkpt lat="40.84646402759567" lon="8.606292632805774"><ele>26.0</ele><time>2026-05-02T09:05:34Z</time></trkpt><trkpt lat="40.84628719242241" lon="8.606128587697203"><ele>27.0</ele><time>2026-05-02T09:05:35Z</time></trkpt><trkpt lat="40.846120181688" lon="8.60597246278548"><ele>27.0</ele><time>2026-05-02T09:05:36Z</time></trkpt><trkpt lat="40.845964031319795" lon="8.605820572923145"><ele>27.0</ele><time>2026-05-02T09:05:37Z</time></trkpt><trkpt lat="40.84581899439465" lon="8.605676328566188"><ele>27.0</ele><time>2026-05-02T09:05:38Z</time></trkpt><trkpt lat="40.84567411773889" lon="8.605561134992627"><ele>27.333333333333336</ele><time>2026-05-02T09:05:39Z</time></trkpt><trkpt lat="40.84552140290339" lon="8.605497455070916"><ele>27.666666666666668</ele><time>2026-05-02T09:05:40Z</time></trkpt><trkpt lat="40.845355186877235" lon="8.60551576443663"><ele>28.0</ele><time>2026-05-02T09:05:41Z</time></trkpt><trkpt lat="40.845178936900815" lon="8.605593811481162"><ele>28.666666666666668</ele><time>2026-05-02T09:05:42Z</time></trkpt><trkpt lat="40.845007947704275" lon="8.605708422650956"><ele>29.333333333333336</ele><time>2026-05-02T09:05:43Z</time></trkpt><trkpt lat="40.84485685979828" lon="8.605821828511194"><ele>30.0</ele><time>2026-05-02T09:05:44Z</time></trkpt><trkpt lat="40.84471658143964" lon="8.605946301439262"><ele>30.0</ele><time>2026-05-02T09:05:45Z</time></trkpt><trkpt lat="40.8445992212549" lon="8.606097272522465"><ele>30.0</ele><time>2026-05-02T09:05:46Z</time></trkpt><trkpt lat="40.844489951458954" lon="8.60626140553201"><ele>30.0</ele><time>2026-05-02T09:05:47Z</time></trkpt><trkpt lat="40.84438342532624" lon="8.606419779160111"><ele>30.666666666666664</ele><time>2026-05-02T09:05:48Z</time></trkpt><trkpt lat="40.844270493976424" lon="8.606566301053945"><ele>31.333333333333332</ele><time>2026-05-02T09:05:49Z</time></trkpt><trkpt lat="40.84415170003133" lon="8.606693771587091"><ele>32.0</ele><time>2026-05-02T09:05:50Z</time></trkpt><trkpt lat="40.8440257968126" lon="8.606780158111103"><ele>32.0</ele><time>2026-05-02T09:05:51Z</time></trkpt><trkpt lat="40.843891690388176" lon="8.60682053586336"><ele>32.0</ele><time>2026-05-02T09:05:52Z</time></trkpt><trkpt lat="40.843755507371974" lon="8.606829489402642"><ele>32.0</ele><time>2026-05-02T09:05:53Z</time></trkpt><trkpt lat="40.843689842271395" lon="8.606822675476113"><ele>32.0</ele><time>2026-05-02T09:05:54Z</time></trkpt><trkpt lat="40.843589640954036" lon="8.606696692848368"><ele>32.0</ele><time>2026-05-02T09:05:55Z</time></trkpt><trkpt lat="40.84349577011088" lon="8.606527906671426"><ele>32.0</ele><time>2026-05-02T09:05:56Z</time></trkpt><trkpt lat="40.843396753177515" lon="8.606336853542903"><ele>32.0</ele><time>2026-05-02T09:05:57Z</time></trkpt><trkpt lat="40.8432833728691" lon="8.60614710568279"><ele>33.0</ele><time>2026-05-02T09:05:58Z</time></trkpt><trkpt lat="40.843165260876816" lon="8.60595009840474"><ele>34.0</ele><time>2026-05-02T09:05:59Z</time></trkpt><trkpt lat="40.843042962338494" lon="8.605736904771117"><ele>35.0</ele><time>2026-05-02T09:06:00Z</time></trkpt><trkpt lat="40.842909964111236" lon="8.60551206925614"><ele>36.0</ele><time>2026-05-02T09:06:01Z</time></trkpt><trkpt lat="40.842770592661296" lon="8.605278942106684"><ele>37.0</ele><time>2026-05-02T09:06:02Z</time></trkpt><trkpt lat="40.8426244185231" lon="8.605038848789702"><ele>37.0</ele><time>2026-05-02T09:06:03Z</time></trkpt><trkpt lat="40.84249458650404" lon="8.604831533103559"><ele>37.0</ele><time>2026-05-02T09:06:04Z</time></trkpt><trkpt lat="40.84237337717842" lon="8.604633199849408"><ele>37.0</ele><time>2026-05-02T09:06:05Z</time></trkpt><trkpt lat="40.84226118891665" lon="8.604448764312657"><ele>36.333333333333336</ele><time>2026-05-02T09:06:06Z</time></trkpt><trkpt lat="40.84213899907914" lon="8.604272983579525"><ele>35.666666666666664</ele><time>2026-05-02T09:06:07Z</time></trkpt><trkpt lat="40.84199931044028" lon="8.604115940302954"><ele>35.0</ele><time>2026-05-02T09:06:08Z</time></trkpt><trkpt lat="40.841839262772645" lon="8.603989860970852"><ele>37.0</ele><time>2026-05-02T09:06:09Z</time></trkpt><trkpt lat="40.84167672063264" lon="8.60389596442868"><ele>39.0</ele><time>2026-05-02T09:06:10Z</time></trkpt><trkpt lat="40.84152217293349" lon="8.603822351336676"><ele>41.0</ele><time>2026-05-02T09:06:11Z</time></trkpt><trkpt lat="40.84136998651481" lon="8.603752760149316"><ele>41.0</ele><time>2026-05-02T09:06:12Z</time></trkpt><trkpt lat="40.84122361202402" lon="8.603689395151125"><ele>41.0</ele><time>2026-05-02T09:06:13Z</time></trkpt><trkpt lat="40.84109077754007" lon="8.603625152765446"><ele>41.0</ele><time>2026-05-02T09:06:14Z</time></trkpt><trkpt lat="40.84093999655544" lon="8.603553234403737"><ele>41.0</ele><time>2026-05-02T09:06:15Z</time></trkpt><trkpt lat="40.84077723290562" lon="8.603491223288389"><ele>41.0</ele><time>2026-05-02T09:06:16Z</time></trkpt><trkpt lat="40.84062150812418" lon="8.603412470385662"><ele>41.0</ele><time>2026-05-02T09:06:17Z</time></trkpt><trkpt lat="40.84046677465882" lon="8.603334615099374"><ele>41.0</ele><time>2026-05-02T09:06:18Z</time></trkpt><trkpt lat="40.84031498979589" lon="8.603258521343857"><ele>41.0</ele><time>2026-05-02T09:06:19Z</time></trkpt><trkpt lat="40.84017285384804" lon="8.603191093662243"><ele>41.0</ele><time>2026-05-02T09:06:20Z</time></trkpt><trkpt lat="40.8400309189406" lon="8.603141411407673"><ele>41.666666666666664</ele><time>2026-05-02T09:06:21Z</time></trkpt><trkpt lat="40.839882897238546" lon="8.603134039240942"><ele>42.333333333333336</ele><time>2026-05-02T09:06:22Z</time></trkpt><trkpt lat="40.83972519732737" lon="8.603142138185616"><ele>43.0</ele><time>2026-05-02T09:06:23Z</time></trkpt><trkpt lat="40.83957204838701" lon="8.603160077750431"><ele>43.0</ele><time>2026-05-02T09:06:24Z</time></trkpt><trkpt lat="40.83942125238205" lon="8.603140859939687"><ele>43.0</ele><time>2026-05-02T09:06:25Z</time></trkpt><trkpt lat="40.83926342331367" lon="8.603087680935596"><ele>43.0</ele><time>2026-05-02T09:06:26Z</time></trkpt><trkpt lat="40.839109672463564" lon="8.602994406251943"><ele>42.66666666666667</ele><time>2026-05-02T09:06:27Z</time></trkpt><trkpt lat="40.838961316618395" lon="8.602885142646915"><ele>42.333333333333336</ele><time>2026-05-02T09:06:28Z</time></trkpt><trkpt lat="40.838813322950365" lon="8.60277356330955"><ele>42.0</ele><time>2026-05-02T09:06:29Z</time></trkpt><trkpt lat="40.838663312281064" lon="8.602669908070023"><ele>41.0</ele><time>2026-05-02T09:06:30Z</time></trkpt><trkpt lat="40.83851996561182" lon="8.602566341785764"><ele>40.0</ele><time>2026-05-02T09:06:31Z</time></trkpt><trkpt lat="40.83837382899572" lon="8.602479291513365"><ele>39.0</ele><time>2026-05-02T09:06:32Z</time></trkpt><trkpt lat="40.838227622146654" lon="8.60239875995881"><ele>41.0</ele><time>2026-05-02T09:06:33Z</time></trkpt><trkpt lat="40.83806918901695" lon="8.602355397016078"><ele>43.0</ele><time>2026-05-02T09:06:34Z</time></trkpt><trkpt lat="40.837894049349174" lon="8.602343800023771"><ele>45.0</ele><time>2026-05-02T09:06:35Z</time></trkpt><trkpt lat="40.837712295076265" lon="8.602344060769175"><ele>45.0</ele><time>2026-05-02T09:06:36Z</time></trkpt><trkpt lat="40.83753006487541" lon="8.602333032293808"><ele>45.0</ele><time>2026-05-02T09:06:37Z</time></trkpt><trkpt lat="40.83735110608498" lon="8.602297028375942"><ele>45.0</ele><time>2026-05-02T09:06:38Z</time></trkpt><trkpt lat="40.837185145249606" lon="8.60228006707197"><ele>45.0</ele><time>2026-05-02T09:06:39Z</time></trkpt><trkpt lat="40.83702481416337" lon="8.602244424804082"><ele>45.0</ele><time>2026-05-02T09:06:40Z</time></trkpt><trkpt lat="40.836874703073285" lon="8.602156485415803"><ele>45.0</ele><time>2026-05-02T09:06:41Z</time></trkpt><trkpt lat="40.836723846031354" lon="8.602015538119499"><ele>43.0</ele><time>2026-05-02T09:06:42Z</time></trkpt><trkpt lat="40.83654370430094" lon="8.601830222321134"><ele>41.0</ele><time>2026-05-02T09:06:43Z</time></trkpt><trkpt lat="40.83633811844999" lon="8.601619699425248"><ele>41.0</ele><time>2026-05-02T09:06:44Z</time></trkpt><trkpt lat="40.83614295256666" lon="8.601417636662346"><ele>41.0</ele><time>2026-05-02T09:06:45Z</time></trkpt><trkpt lat="40.83594923458819" lon="8.601243336932018"><ele>39.33333333333333</ele><time>2026-05-02T09:06:46Z</time></trkpt><trkpt lat="40.83578315473456" lon="8.601063465868013"><ele>37.666666666666664</ele><time>2026-05-02T09:06:47Z</time></trkpt><trkpt lat="40.835610389744105" lon="8.600886119719505"><ele>36.0</ele><time>2026-05-02T09:06:48Z</time></trkpt><trkpt lat="40.83547084304906" lon="8.600665727285756"><ele>36.0</ele><time>2026-05-02T09:06:49Z</time></trkpt><trkpt lat="40.83535422557413" lon="8.600410366606791"><ele>36.0</ele><time>2026-05-02T09:06:50Z</time></trkpt><trkpt lat="40.83523295318442" lon="8.600128801091333"><ele>32.0</ele><time>2026-05-02T09:06:51Z</time></trkpt><trkpt lat="40.83509301072495" lon="8.599839476355958"><ele>28.0</ele><time>2026-05-02T09:06:52Z</time></trkpt><trkpt lat="40.834962924045314" lon="8.599525004568635"><ele>27.5</ele><time>2026-05-02T09:06:53Z</time></trkpt><trkpt lat="40.83482459575693" lon="8.599205450065273"><ele>27.0</ele><time>2026-05-02T09:06:54Z</time></trkpt><trkpt lat="40.83469528345247" lon="8.598890578810714"><ele>27.0</ele><time>2026-05-02T09:06:55Z</time></trkpt><trkpt lat="40.8345701697511" lon="8.598603337470763"><ele>27.0</ele><time>2026-05-02T09:06:56Z</time></trkpt><trkpt lat="40.834457782689825" lon="8.598342896469314"><ele>27.0</ele><time>2026-05-02T09:06:57Z</time></trkpt><trkpt lat="40.834396277001005" lon="8.598097564972115"><ele>27.0</ele><time>2026-05-02T09:06:58Z</time></trkpt><trkpt lat="40.834364252003894" lon="8.597858231279494"><ele>27.0</ele><time>2026-05-02T09:06:59Z</time></trkpt><trkpt lat="40.83436213797458" lon="8.597633313286474"><ele>27.0</ele><time>2026-05-02T09:07:00Z</time></trkpt><trkpt lat="40.834362116667236" lon="8.597419644385484"><ele>27.0</ele><time>2026-05-02T09:07:01Z</time></trkpt><trkpt lat="40.834362758441785" lon="8.597203559883004"><ele>27.0</ele><time>2026-05-02T09:07:02Z</time></trkpt><trkpt lat="40.83435010711668" lon="8.596969515194887"><ele>26.666666666666664</ele><time>2026-05-02T09:07:03Z</time></trkpt><trkpt lat="40.834350711464594" lon="8.596726933574752"><ele>26.333333333333332</ele><time>2026-05-02T09:07:04Z</time></trkpt><trkpt lat="40.83433871736412" lon="8.596483804175728"><ele>26.0</ele><time>2026-05-02T09:07:05Z</time></trkpt><trkpt lat="40.83430449877039" lon="8.596257653100134"><ele>22.333333333333332</ele><time>2026-05-02T09:07:06Z</time></trkpt><trkpt lat="40.83424328820142" lon="8.596028645750607"><ele>18.666666666666664</ele><time>2026-05-02T09:07:07Z</time></trkpt><trkpt lat="40.83416021816676" lon="8.595802418475628"><ele>15.0</ele><time>2026-05-02T09:07:08Z</time></trkpt><trkpt lat="40.834065371864554" lon="8.595590033934796"><ele>15.0</ele><time>2026-05-02T09:07:09Z</time></trkpt><trkpt lat="40.83393693995114" lon="8.595408309934507"><ele>15.0</ele><time>2026-05-02T09:07:10Z</time></trkpt><trkpt lat="40.833773377507164" lon="8.59527418333903"><ele>15.0</ele><time>2026-05-02T09:07:11Z</time></trkpt><trkpt lat="40.83359721369119" lon="8.59520843809009"><ele>13.666666666666666</ele><time>2026-05-02T09:07:12Z</time></trkpt><trkpt lat="40.83341564958574" lon="8.595182639803063"><ele>12.333333333333332</ele><time>2026-05-02T09:07:13Z</time></trkpt><trkpt lat="40.833242745921524" lon="8.595128426715904"><ele>11.0</ele><time>2026-05-02T09:07:14Z</time></trkpt><trkpt lat="40.833085780098905" lon="8.595088705097597"><ele>11.0</ele><time>2026-05-02T09:07:15Z</time></trkpt><trkpt lat="40.83292919898759" lon="8.595044082007275"><ele>11.0</ele><time>2026-05-02T09:07:16Z</time></trkpt><trkpt lat="40.832792090888596" lon="8.59500706721585"><ele>11.0</ele><time>2026-05-02T09:07:17Z</time></trkpt><trkpt lat="40.83266355387092" lon="8.594973674645306"><ele>11.0</ele><time>2026-05-02T09:07:18Z</time></trkpt><trkpt lat="40.8325520683196" lon="8.594944711751031"><ele>11.0</ele><time>2026-05-02T09:07:19Z</time></trkpt><trkpt lat="40.83242843071236" lon="8.594913689458787"><ele>11.0</ele><time>2026-05-02T09:07:20Z</time></trkpt><trkpt lat="40.832296406851654" lon="8.594878672620874"><ele>11.0</ele><time>2026-05-02T09:07:21Z</time></trkpt><trkpt lat="40.83216570919104" lon="8.594843190384747"><ele>11.0</ele><time>2026-05-02T09:07:22Z</time></trkpt><trkpt lat="40.8320341793154" lon="8.594807482219181"><ele>11.0</ele><time>2026-05-02T09:07:23Z</time></trkpt><trkpt lat="40.83190317058464" lon="8.594773085481222"><ele>11.0</ele><time>2026-05-02T09:07:24Z</time></trkpt><trkpt lat="40.83176973046147" lon="8.59473839860667"><ele>11.0</ele><time>2026-05-02T09:07:25Z</time></trkpt><trkpt lat="40.83163741456486" lon="8.594703961941777"><ele>11.0</ele><time>2026-05-02T09:07:26Z</time></trkpt><trkpt lat="40.8315052982789" lon="8.59466923964984"><ele>10.4</ele><time>2026-05-02T09:07:27Z</time></trkpt><trkpt lat="40.83138796468053" lon="8.594638402487295"><ele>9.8</ele><time>2026-05-02T09:07:28Z</time></trkpt><trkpt lat="40.831295322885566" lon="8.594614054728257"><ele>9.200000000000001</ele><time>2026-05-02T09:07:29Z</time></trkpt><trkpt lat="40.831222293112205" lon="8.594594861330528"><ele>8.600000000000001</ele><time>2026-05-02T09:07:30Z</time></trkpt><trkpt lat="40.831125767918095" lon="8.59456949295285"><ele>8.0</ele><time>2026-05-02T09:07:32Z</time></trkpt><trkpt lat="40.8310486777891" lon="8.594549232422283"><ele>7.999999999999999</ele><time>2026-05-02T09:07:35Z</time></trkpt><trkpt lat="40.83097981938416" lon="8.594531135323667"><ele>8.0</ele><time>2026-05-02T09:07:37Z</time></trkpt><trkpt lat="40.830875102335064" lon="8.594503613992343"><ele>8.0</ele><time>2026-05-02T09:07:39Z</time></trkpt><trkpt lat="40.830806429196926" lon="8.594485565473137"><ele>8.0</ele><time>2026-05-02T09:07:40Z</time></trkpt><trkpt lat="40.83073072677508" lon="8.594465669507509"><ele>7.999999999999999</ele><time>2026-05-02T09:07:41Z</time></trkpt><trkpt lat="40.83063258295886" lon="8.594439875537919"><ele>8.0</ele><time>2026-05-02T09:07:43Z</time></trkpt><trkpt lat="40.830570412487155" lon="8.594423536014386"><ele>7.800000000000001</ele><time>2026-05-02T09:07:45Z</time></trkpt><trkpt lat="40.83050010104364" lon="8.594451395301512"><ele>7.6000000000000005</ele><time>2026-05-02T09:07:47Z</time></trkpt><trkpt lat="40.830402439519524" lon="8.594422460110186"><ele>7.3999999999999995</ele><time>2026-05-02T09:08:12Z</time></trkpt><trkpt lat="40.83028987226679" lon="8.594393340905052"><ele>7.199999999999999</ele><time>2026-05-02T09:08:14Z</time></trkpt><trkpt lat="40.83014772945719" lon="8.59433843648465"><ele>7.0</ele><time>2026-05-02T09:08:15Z</time></trkpt><trkpt lat="40.83000040992092" lon="8.594304415515412"><ele>7.0</ele><time>2026-05-02T09:08:16Z</time></trkpt><trkpt lat="40.82984374184518" lon="8.594266296255444"><ele>7.0</ele><time>2026-05-02T09:08:17Z</time></trkpt><trkpt lat="40.829684183676214" lon="8.594224962946763"><ele>7.0</ele><time>2026-05-02T09:08:18Z</time></trkpt><trkpt lat="40.82950656400608" lon="8.594178288370166"><ele>7.0</ele><time>2026-05-02T09:08:19Z</time></trkpt><trkpt lat="40.829327546961906" lon="8.594127812622599"><ele>7.0</ele><time>2026-05-02T09:08:20Z</time></trkpt><trkpt lat="40.829140387896935" lon="8.59408085022128"><ele>7.0</ele><time>2026-05-02T09:08:21Z</time></trkpt><trkpt lat="40.828953029697345" lon="8.593996395828093"><ele>8.0</ele><time>2026-05-02T09:08:22Z</time></trkpt><trkpt lat="40.82875543746529" lon="8.593944929613633"><ele>9.0</ele><time>2026-05-02T09:08:23Z</time></trkpt><trkpt lat="40.82855475415181" lon="8.593892658320971"><ele>10.0</ele><time>2026-05-02T09:08:24Z</time></trkpt><trkpt lat="40.828357481072636" lon="8.593841425759456"><ele>11.333333333333334</ele><time>2026-05-02T09:08:25Z</time></trkpt><trkpt lat="40.82815473318144" lon="8.593788878092496"><ele>12.666666666666668</ele><time>2026-05-02T09:08:26Z</time></trkpt><trkpt lat="40.82793482690827" lon="8.593730473203001"><ele>14.0</ele><time>2026-05-02T09:08:27Z</time></trkpt><trkpt lat="40.82772311683122" lon="8.593673917433817"><ele>18.0</ele><time>2026-05-02T09:08:28Z</time></trkpt><trkpt lat="40.82750910840345" lon="8.5936163044074"><ele>22.0</ele><time>2026-05-02T09:08:29Z</time></trkpt><trkpt lat="40.82729974404627" lon="8.593559208645239"><ele>26.0</ele><time>2026-05-02T09:08:30Z</time></trkpt><trkpt lat="40.82708740130307" lon="8.593500983854861"><ele>26.0</ele><time>2026-05-02T09:08:31Z</time></trkpt><trkpt lat="40.82687383165999" lon="8.593442422597587"><ele>26.0</ele><time>2026-05-02T09:08:32Z</time></trkpt><trkpt lat="40.82665951923419" lon="8.593383598287435"><ele>26.0</ele><time>2026-05-02T09:08:33Z</time></trkpt><trkpt lat="40.826440522663205" lon="8.593343799757337"><ele>27.0</ele><time>2026-05-02T09:08:34Z</time></trkpt><trkpt lat="40.826228180969416" lon="8.593280416310561"><ele>28.0</ele><time>2026-05-02T09:08:35Z</time></trkpt><trkpt lat="40.82601780622798" lon="8.593220850388565"><ele>29.0</ele><time>2026-05-02T09:08:36Z</time></trkpt><trkpt lat="40.82581054094017" lon="8.593161213721787"><ele>30.0</ele><time>2026-05-02T09:08:37Z</time></trkpt><trkpt lat="40.82560350305095" lon="8.593101750373103"><ele>31.0</ele><time>2026-05-02T09:08:38Z</time></trkpt><trkpt lat="40.82539749441815" lon="8.593042414851082"><ele>32.0</ele><time>2026-05-02T09:08:39Z</time></trkpt><trkpt lat="40.82519259874909" lon="8.592986098975638"><ele>32.33333333333333</ele><time>2026-05-02T09:08:40Z</time></trkpt><trkpt lat="40.82499387279968" lon="8.592931799874426"><ele>32.666666666666664</ele><time>2026-05-02T09:08:41Z</time></trkpt><trkpt lat="40.82481382339285" lon="8.59287404813975"><ele>33.0</ele><time>2026-05-02T09:08:42Z</time></trkpt><trkpt lat="40.82464609432322" lon="8.592827355266431"><ele>33.0</ele><time>2026-05-02T09:08:43Z</time></trkpt><trkpt lat="40.824513542224125" lon="8.592791198776359"><ele>33.0</ele><time>2026-05-02T09:08:44Z</time></trkpt><trkpt lat="40.8244050805601" lon="8.592753353033244"><ele>33.0</ele><time>2026-05-02T09:08:45Z</time></trkpt><trkpt lat="40.824313408723214" lon="8.592683882300612"><ele>33.0</ele><time>2026-05-02T09:08:46Z</time></trkpt><trkpt lat="40.82431795823365" lon="8.592513199721182"><ele>34.0</ele><time>2026-05-02T09:08:47Z</time></trkpt><trkpt lat="40.824263895060625" lon="8.592376400752746"><ele>35.0</ele><time>2026-05-02T09:08:48Z</time></trkpt><trkpt lat="40.824241681948216" lon="8.592175024950034"><ele>36.0</ele><time>2026-05-02T09:08:49Z</time></trkpt><trkpt lat="40.82419967475494" lon="8.591985106767751"><ele>37.0</ele><time>2026-05-02T09:08:50Z</time></trkpt><trkpt lat="40.82415123504669" lon="8.591791381645537"><ele>37.0</ele><time>2026-05-02T09:08:51Z</time></trkpt><trkpt lat="40.82410114258286" lon="8.591589579358477"><ele>37.0</ele><time>2026-05-02T09:08:52Z</time></trkpt><trkpt lat="40.82406551374779" lon="8.591376045654668"><ele>37.0</ele><time>2026-05-02T09:08:53Z</time></trkpt><trkpt lat="40.824004382548964" lon="8.591171351567786"><ele>36.66666666666667</ele><time>2026-05-02T09:08:54Z</time></trkpt><trkpt lat="40.823955457318284" lon="8.590953485520915"><ele>36.333333333333336</ele><time>2026-05-02T09:08:55Z</time></trkpt><trkpt lat="40.82389883867313" lon="8.590735055376896"><ele>36.0</ele><time>2026-05-02T09:08:56Z</time></trkpt><trkpt lat="40.82384675642652" lon="8.590507688524307"><ele>36.0</ele><time>2026-05-02T09:08:57Z</time></trkpt><trkpt lat="40.82379178111473" lon="8.590275253949235"><ele>36.0</ele><time>2026-05-02T09:08:58Z</time></trkpt><trkpt lat="40.823740082233286" lon="8.590038580474433"><ele>36.0</ele><time>2026-05-02T09:08:59Z</time></trkpt><trkpt lat="40.823684819619686" lon="8.589797520508842"><ele>36.0</ele><time>2026-05-02T09:09:00Z</time></trkpt><trkpt lat="40.82362668775931" lon="8.589556026831076"><ele>36.0</ele><time>2026-05-02T09:09:01Z</time></trkpt><trkpt lat="40.82356824189435" lon="8.589311931843323"><ele>36.0</ele><time>2026-05-02T09:09:02Z</time></trkpt><trkpt lat="40.8235093686473" lon="8.589064912735445"><ele>36.666666666666664</ele><time>2026-05-02T09:09:03Z</time></trkpt><trkpt lat="40.8234473348183" lon="8.588814232678363"><ele>37.33333333333333</ele><time>2026-05-02T09:09:04Z</time></trkpt><trkpt lat="40.82338913094717" lon="8.588559170061599"><ele>38.0</ele><time>2026-05-02T09:09:05Z</time></trkpt><trkpt lat="40.82332671025996" lon="8.588300750578668"><ele>38.0</ele><time>2026-05-02T09:09:06Z</time></trkpt><trkpt lat="40.823266646169564" lon="8.588039401579229"><ele>38.0</ele><time>2026-05-02T09:09:07Z</time></trkpt><trkpt lat="40.823201795648686" lon="8.58777982094328"><ele>38.0</ele><time>2026-05-02T09:09:08Z</time></trkpt><trkpt lat="40.823141370493055" lon="8.587516265895296"><ele>38.0</ele><time>2026-05-02T09:09:09Z</time></trkpt><trkpt lat="40.823079646768186" lon="8.5872525383245"><ele>38.0</ele><time>2026-05-02T09:09:10Z</time></trkpt><trkpt lat="40.82301909250845" lon="8.586986633597464"><ele>38.0</ele><time>2026-05-02T09:09:11Z</time></trkpt><trkpt lat="40.82295786639608" lon="8.586718182830452"><ele>37.666666666666664</ele><time>2026-05-02T09:09:12Z</time></trkpt><trkpt lat="40.822895904868126" lon="8.586448338969479"><ele>37.333333333333336</ele><time>2026-05-02T09:09:13Z</time></trkpt><trkpt lat="40.822831517060685" lon="8.586178537557812"><ele>37.0</ele><time>2026-05-02T09:09:14Z</time></trkpt><trkpt lat="40.822765586529606" lon="8.585909007816767"><ele>36.66666666666667</ele><time>2026-05-02T09:09:15Z</time></trkpt><trkpt lat="40.82270034307301" lon="8.585638664746178"><ele>36.333333333333336</ele><time>2026-05-02T09:09:16Z</time></trkpt><trkpt lat="40.822636629963085" lon="8.585367325866557"><ele>36.0</ele><time>2026-05-02T09:09:17Z</time></trkpt><trkpt lat="40.822573514848855" lon="8.585096615453391"><ele>37.333333333333336</ele><time>2026-05-02T09:09:18Z</time></trkpt><trkpt lat="40.82251020232554" lon="8.584826601253052"><ele>38.66666666666667</ele><time>2026-05-02T09:09:19Z</time></trkpt><trkpt lat="40.822445376512206" lon="8.584552055727832"><ele>40.0</ele><time>2026-05-02T09:09:20Z</time></trkpt><trkpt lat="40.82237950446031" lon="8.58427347622543"><ele>40.0</ele><time>2026-05-02T09:09:21Z</time></trkpt><trkpt lat="40.82231144166811" lon="8.583994173953071"><ele>40.0</ele><time>2026-05-02T09:09:22Z</time></trkpt><trkpt lat="40.82224411242389" lon="8.583714348976839"><ele>40.0</ele><time>2026-05-02T09:09:23Z</time></trkpt><trkpt lat="40.82217956797316" lon="8.58342967402647"><ele>39.5</ele><time>2026-05-02T09:09:24Z</time></trkpt><trkpt lat="40.82211387651273" lon="8.583144035464967"><ele>39.0</ele><time>2026-05-02T09:09:25.001Z</time></trkpt><trkpt lat="40.82204619960765" lon="8.58285613199158"><ele>39.0</ele><time>2026-05-02T09:09:26.001Z</time></trkpt><trkpt lat="40.82197680271654" lon="8.582569132808032"><ele>39.0</ele><time>2026-05-02T09:09:27Z</time></trkpt><trkpt lat="40.82190711250907" lon="8.58227984027394"><ele>38.5</ele><time>2026-05-02T09:09:28Z</time></trkpt><trkpt lat="40.821838678073675" lon="8.581988415525979"><ele>38.0</ele><time>2026-05-02T09:09:29.001Z</time></trkpt><trkpt lat="40.82176885332773" lon="8.581698609982164"><ele>38.5</ele><time>2026-05-02T09:09:30Z</time></trkpt><trkpt lat="40.821700998719415" lon="8.58140492395827"><ele>39.0</ele><time>2026-05-02T09:09:31Z</time></trkpt><trkpt lat="40.821631442545836" lon="8.58111066782683"><ele>39.0</ele><time>2026-05-02T09:09:32Z</time></trkpt><trkpt lat="40.82156368422102" lon="8.580816273520226"><ele>39.0</ele><time>2026-05-02T09:09:33Z</time></trkpt><trkpt lat="40.82149459566489" lon="8.580520671613732"><ele>38.0</ele><time>2026-05-02T09:09:34Z</time></trkpt><trkpt lat="40.82142595099873" lon="8.580224476318628"><ele>37.0</ele><time>2026-05-02T09:09:35Z</time></trkpt><trkpt lat="40.82135206126697" lon="8.579927515832242"><ele>37.0</ele><time>2026-05-02T09:09:36Z</time></trkpt><trkpt lat="40.82128164862582" lon="8.579631775798351"><ele>37.0</ele><time>2026-05-02T09:09:37Z</time></trkpt><trkpt lat="40.82121654036155" lon="8.579357690719538"><ele>36.66666666666667</ele><time>2026-05-02T09:09:38Z</time></trkpt><trkpt lat="40.82115406811056" lon="8.579102661270554"><ele>36.333333333333336</ele><time>2026-05-02T09:09:39Z</time></trkpt><trkpt lat="40.821089978585654" lon="8.5788380535665"><ele>36.0</ele><time>2026-05-02T09:09:40Z</time></trkpt><trkpt lat="40.82102660322333" lon="8.57856214399335"><ele>37.0</ele><time>2026-05-02T09:09:41Z</time></trkpt><trkpt lat="40.82096167576305" lon="8.578277112744095"><ele>38.0</ele><time>2026-05-02T09:09:42Z</time></trkpt><trkpt lat="40.820894519541454" lon="8.577986365304916"><ele>37.5</ele><time>2026-05-02T09:09:43Z</time></trkpt><trkpt lat="40.82082608285891" lon="8.577692522363067"><ele>37.0</ele><time>2026-05-02T09:09:44Z</time></trkpt><trkpt lat="40.82075621651906" lon="8.577396085336792"><ele>37.0</ele><time>2026-05-02T09:09:45Z</time></trkpt><trkpt lat="40.82068650099957" lon="8.57710145545433"><ele>37.0</ele><time>2026-05-02T09:09:46Z</time></trkpt><trkpt lat="40.82061471456008" lon="8.576804934440396"><ele>36.0</ele><time>2026-05-02T09:09:47Z</time></trkpt><trkpt lat="40.820545425861674" lon="8.57650961855793"><ele>35.0</ele><time>2026-05-02T09:09:48Z</time></trkpt><trkpt lat="40.820472409098215" lon="8.576213891811001"><ele>35.5</ele><time>2026-05-02T09:09:49Z</time></trkpt><trkpt lat="40.820401995914025" lon="8.575917299239103"><ele>36.0</ele><time>2026-05-02T09:09:50Z</time></trkpt><trkpt lat="40.820332970411336" lon="8.575620689973347"><ele>35.5</ele><time>2026-05-02T09:09:51Z</time></trkpt><trkpt lat="40.820263366918546" lon="8.575323057851904"><ele>35.0</ele><time>2026-05-02T09:09:52Z</time></trkpt><trkpt lat="40.8201937649506" lon="8.575023763294084"><ele>37.0</ele><time>2026-05-02T09:09:53Z</time></trkpt><trkpt lat="40.820121904112206" lon="8.574721499037068"><ele>39.0</ele><time>2026-05-02T09:09:54Z</time></trkpt><trkpt lat="40.82004987368238" lon="8.574425816059149"><ele>39.0</ele><time>2026-05-02T09:09:55Z</time></trkpt><trkpt lat="40.81997691060806" lon="8.574131940280258"><ele>39.0</ele><time>2026-05-02T09:09:56Z</time></trkpt><trkpt lat="40.81992269570242" lon="8.573832579200703"><ele>40.0</ele><time>2026-05-02T09:09:57Z</time></trkpt><trkpt lat="40.819840761787084" lon="8.573547378442134"><ele>41.0</ele><time>2026-05-02T09:09:58Z</time></trkpt><trkpt lat="40.81977376459916" lon="8.573257759704864"><ele>41.0</ele><time>2026-05-02T09:09:59Z</time></trkpt><trkpt lat="40.81970561081305" lon="8.572966841247101"><ele>41.0</ele><time>2026-05-02T09:10:00Z</time></trkpt><trkpt lat="40.819637386601954" lon="8.572676218914795"><ele>40.0</ele><time>2026-05-02T09:10:01Z</time></trkpt><trkpt lat="40.81956581917071" lon="8.57238517666577"><ele>39.0</ele><time>2026-05-02T09:10:02Z</time></trkpt><trkpt lat="40.819496302731075" lon="8.572094765343351"><ele>37.5</ele><time>2026-05-02T09:10:03Z</time></trkpt><trkpt lat="40.81942847433375" lon="8.57180343651196"><ele>36.0</ele><time>2026-05-02T09:10:04Z</time></trkpt><trkpt lat="40.8193592737672" lon="8.57151098194021"><ele>38.0</ele><time>2026-05-02T09:10:05Z</time></trkpt><trkpt lat="40.81929116244437" lon="8.571219736111292"><ele>40.0</ele><time>2026-05-02T09:10:06Z</time></trkpt><trkpt lat="40.81922141883406" lon="8.570925793504616"><ele>40.0</ele><time>2026-05-02T09:10:07Z</time></trkpt><trkpt lat="40.819153458165594" lon="8.570631121528464"><ele>40.0</ele><time>2026-05-02T09:10:08Z</time></trkpt><trkpt lat="40.819085915415776" lon="8.57033579207097"><ele>39.0</ele><time>2026-05-02T09:10:09Z</time></trkpt><trkpt lat="40.81901332667222" lon="8.570042449071797"><ele>38.0</ele><time>2026-05-02T09:10:10Z</time></trkpt><trkpt lat="40.818942555815" lon="8.569746695985659"><ele>38.0</ele><time>2026-05-02T09:10:11Z</time></trkpt><trkpt lat="40.818873294462385" lon="8.56944943868634"><ele>38.0</ele><time>2026-05-02T09:10:12Z</time></trkpt><trkpt lat="40.81880626766148" lon="8.569153764526389"><ele>38.0</ele><time>2026-05-02T09:10:13Z</time></trkpt><trkpt lat="40.818738063920726" lon="8.568853420395738"><ele>38.0</ele><time>2026-05-02T09:10:14Z</time></trkpt><trkpt lat="40.81866992268251" lon="8.568553033884806"><ele>38.0</ele><time>2026-05-02T09:10:15Z</time></trkpt><trkpt lat="40.818599191429065" lon="8.568255942914094"><ele>38.0</ele><time>2026-05-02T09:10:16Z</time></trkpt><trkpt lat="40.81852687574222" lon="8.56795546151301"><ele>38.5</ele><time>2026-05-02T09:10:17Z</time></trkpt><trkpt lat="40.81845606354038" lon="8.567656643506735"><ele>39.0</ele><time>2026-05-02T09:10:18Z</time></trkpt><trkpt lat="40.81838628704701" lon="8.567358168585637"><ele>39.0</ele><time>2026-05-02T09:10:19Z</time></trkpt><trkpt lat="40.8183161569523" lon="8.567060075113696"><ele>39.0</ele><time>2026-05-02T09:10:20Z</time></trkpt><trkpt lat="40.818245191848774" lon="8.566760876148223"><ele>38.5</ele><time>2026-05-02T09:10:21Z</time></trkpt><trkpt lat="40.81817609503239" lon="8.566463658249605"><ele>38.0</ele><time>2026-05-02T09:10:22Z</time></trkpt><trkpt lat="40.818105078194066" lon="8.566166079313922"><ele>37.5</ele><time>2026-05-02T09:10:23Z</time></trkpt><trkpt lat="40.81803302732172" lon="8.56587192738462"><ele>37.0</ele><time>2026-05-02T09:10:24Z</time></trkpt><trkpt lat="40.817960554012714" lon="8.565574721870425"><ele>37.5</ele><time>2026-05-02T09:10:25Z</time></trkpt><trkpt lat="40.81788306911016" lon="8.565280674189232"><ele>38.0</ele><time>2026-05-02T09:10:26Z</time></trkpt><trkpt lat="40.817807859259965" lon="8.564983153477042"><ele>38.0</ele><time>2026-05-02T09:10:27Z</time></trkpt><trkpt lat="40.817731809413175" lon="8.56468791798322"><ele>38.0</ele><time>2026-05-02T09:10:28Z</time></trkpt><trkpt lat="40.817657118670894" lon="8.564390058678622"><ele>39.0</ele><time>2026-05-02T09:10:29Z</time></trkpt><trkpt lat="40.81758107093778" lon="8.564094057269621"><ele>40.0</ele><time>2026-05-02T09:10:30Z</time></trkpt><trkpt lat="40.81750370961663" lon="8.563798095936473"><ele>40.0</ele><time>2026-05-02T09:10:31Z</time></trkpt><trkpt lat="40.817432064284475" lon="8.563508057128752"><ele>40.0</ele><time>2026-05-02T09:10:32Z</time></trkpt><trkpt lat="40.81736347833621" lon="8.563243705426515"><ele>40.0</ele><time>2026-05-02T09:10:33Z</time></trkpt><trkpt lat="40.81730096693156" lon="8.562996015355345"><ele>40.0</ele><time>2026-05-02T09:10:34Z</time></trkpt><trkpt lat="40.817242504093194" lon="8.562769155995204"><ele>40.0</ele><time>2026-05-02T09:10:35Z</time></trkpt><trkpt lat="40.81718870999925" lon="8.562559561381297"><ele>40.0</ele><time>2026-05-02T09:10:36Z</time></trkpt><trkpt lat="40.81714058096268" lon="8.562367206343014"><ele>40.0</ele><time>2026-05-02T09:10:37Z</time></trkpt><trkpt lat="40.81709694611466" lon="8.562192046274077"><ele>40.0</ele><time>2026-05-02T09:10:38Z</time></trkpt><trkpt lat="40.817061659306155" lon="8.562035148567887"><ele>40.0</ele><time>2026-05-02T09:10:39Z</time></trkpt><trkpt lat="40.817045805142044" lon="8.561877153428338"><ele>40.0</ele><time>2026-05-02T09:10:40Z</time></trkpt><trkpt lat="40.817047544633446" lon="8.561728572340481"><ele>40.0</ele><time>2026-05-02T09:10:41Z</time></trkpt><trkpt lat="40.81707597552212" lon="8.56158944618193"><ele>40.0</ele><time>2026-05-02T09:10:42Z</time></trkpt><trkpt lat="40.81707499656431" lon="8.561485363691647"><ele>40.0</ele><time>2026-05-02T09:10:43Z</time></trkpt><trkpt lat="40.81702287639365" lon="8.561394279359861"><ele>40.0</ele><time>2026-05-02T09:10:44Z</time></trkpt><trkpt lat="40.816981789127546" lon="8.561306715988156"><ele>40.0</ele><time>2026-05-02T09:10:45Z</time></trkpt><trkpt lat="40.816844646133404" lon="8.561193155118904"><ele>40.5</ele><time>2026-05-02T09:10:46Z</time></trkpt><trkpt lat="40.81677510777485" lon="8.561062937021113"><ele>41.0</ele><time>2026-05-02T09:10:47Z</time></trkpt><trkpt lat="40.816730590121615" lon="8.560886436629916"><ele>41.5</ele><time>2026-05-02T09:10:48Z</time></trkpt><trkpt lat="40.8166862375814" lon="8.560685012307058"><ele>42.0</ele><time>2026-05-02T09:10:49Z</time></trkpt><trkpt lat="40.816638435286585" lon="8.560449544914594"><ele>42.0</ele><time>2026-05-02T09:10:50Z</time></trkpt><trkpt lat="40.81657574144959" lon="8.560189734191761"><ele>42.0</ele><time>2026-05-02T09:10:51Z</time></trkpt><trkpt lat="40.816508049512684" lon="8.559915950872863"><ele>42.0</ele><time>2026-05-02T09:10:52Z</time></trkpt><trkpt lat="40.81643623429231" lon="8.559628029868929"><ele>41.0</ele><time>2026-05-02T09:10:53Z</time></trkpt><trkpt lat="40.816361126659274" lon="8.559331772659545"><ele>40.0</ele><time>2026-05-02T09:10:54Z</time></trkpt><trkpt lat="40.8162829684454" lon="8.559026085484009"><ele>40.0</ele><time>2026-05-02T09:10:55Z</time></trkpt><trkpt lat="40.816202107956286" lon="8.55871372501267"><ele>40.0</ele><time>2026-05-02T09:10:56Z</time></trkpt><trkpt lat="40.816124645093474" lon="8.558392812469222"><ele>39.5</ele><time>2026-05-02T09:10:57Z</time></trkpt><trkpt lat="40.816045367585254" lon="8.558070846670258"><ele>39.0</ele><time>2026-05-02T09:10:58Z</time></trkpt><trkpt lat="40.815965051520166" lon="8.55774431792854"><ele>41.5</ele><time>2026-05-02T09:10:59Z</time></trkpt><trkpt lat="40.815880550394596" lon="8.55741362619372"><ele>44.0</ele><time>2026-05-02T09:11:00Z</time></trkpt><trkpt lat="40.815795848594874" lon="8.557083562632812"><ele>44.0</ele><time>2026-05-02T09:11:01Z</time></trkpt><trkpt lat="40.81571203155401" lon="8.556754397846078"><ele>44.0</ele><time>2026-05-02T09:11:02Z</time></trkpt><trkpt lat="40.81562961702511" lon="8.556422578521543"><ele>43.5</ele><time>2026-05-02T09:11:03Z</time></trkpt><trkpt lat="40.81554684909593" lon="8.556092038427538"><ele>43.0</ele><time>2026-05-02T09:11:04Z</time></trkpt><trkpt lat="40.81546379050504" lon="8.555762402397994"><ele>43.0</ele><time>2026-05-02T09:11:05Z</time></trkpt><trkpt lat="40.815381536023935" lon="8.55543814412012"><ele>43.0</ele><time>2026-05-02T09:11:06Z</time></trkpt><trkpt lat="40.81530170845105" lon="8.555115639193732"><ele>43.0</ele><time>2026-05-02T09:11:07Z</time></trkpt><trkpt lat="40.81521792391297" lon="8.554795534171975"><ele>43.0</ele><time>2026-05-02T09:11:08Z</time></trkpt><trkpt lat="40.81513653911416" lon="8.55447791615012"><ele>43.0</ele><time>2026-05-02T09:11:09Z</time></trkpt><trkpt lat="40.815059699247016" lon="8.55416399303427"><ele>43.0</ele><time>2026-05-02T09:11:10Z</time></trkpt><trkpt lat="40.81498390202684" lon="8.553851580616563"><ele>42.0</ele><time>2026-05-02T09:11:11Z</time></trkpt><trkpt lat="40.81490849114237" lon="8.553542700883053"><ele>41.0</ele><time>2026-05-02T09:11:12Z</time></trkpt><trkpt lat="40.814832296569" lon="8.553236329185737"><ele>41.0</ele><time>2026-05-02T09:11:13Z</time></trkpt><trkpt lat="40.814758268957405" lon="8.552939540271955"><ele>41.0</ele><time>2026-05-02T09:11:14Z</time></trkpt><trkpt lat="40.81469001408739" lon="8.552661977332015"><ele>40.0</ele><time>2026-05-02T09:11:15Z</time></trkpt><trkpt lat="40.81461863774455" lon="8.552381414947204"><ele>39.0</ele><time>2026-05-02T09:11:16Z</time></trkpt><trkpt lat="40.814546008482814" lon="8.552095196231097"><ele>37.5</ele><time>2026-05-02T09:11:17Z</time></trkpt><trkpt lat="40.81447273541602" lon="8.551805396618645"><ele>36.0</ele><time>2026-05-02T09:11:18Z</time></trkpt><trkpt lat="40.81440469716278" lon="8.551511512164716"><ele>36.0</ele><time>2026-05-02T09:11:19Z</time></trkpt><trkpt lat="40.81432049673792" lon="8.551220293564242"><ele>36.0</ele><time>2026-05-02T09:11:20Z</time></trkpt><trkpt lat="40.81425578257581" lon="8.550919827645332"><ele>36.0</ele><time>2026-05-02T09:11:21Z</time></trkpt><trkpt lat="40.81417975249417" lon="8.550624565852393"><ele>36.0</ele><time>2026-05-02T09:11:22Z</time></trkpt><trkpt lat="40.8141248478545" lon="8.550319987460835"><ele>35.333333333333336</ele><time>2026-05-02T09:11:23Z</time></trkpt><trkpt lat="40.814055036666566" lon="8.550038876866934"><ele>34.66666666666667</ele><time>2026-05-02T09:11:24Z</time></trkpt><trkpt lat="40.81398427356725" lon="8.549756655256328"><ele>34.0</ele><time>2026-05-02T09:11:25Z</time></trkpt><trkpt lat="40.813912597904384" lon="8.549469521862427"><ele>32.5</ele><time>2026-05-02T09:11:26Z</time></trkpt><trkpt lat="40.81383925117046" lon="8.549174726767937"><ele>31.0</ele><time>2026-05-02T09:11:27Z</time></trkpt><trkpt lat="40.81376405353651" lon="8.548873511073785"><ele>30.0</ele><time>2026-05-02T09:11:28Z</time></trkpt><trkpt lat="40.813687869031384" lon="8.548568582991109"><ele>29.0</ele><time>2026-05-02T09:11:29Z</time></trkpt><trkpt lat="40.813609770887055" lon="8.548255995567889"><ele>29.0</ele><time>2026-05-02T09:11:30Z</time></trkpt><trkpt lat="40.81352709412575" lon="8.54792508226417"><ele>29.0</ele><time>2026-05-02T09:11:31Z</time></trkpt><trkpt lat="40.8134416953931" lon="8.547580080612876"><ele>28.5</ele><time>2026-05-02T09:11:32Z</time></trkpt><trkpt lat="40.81335225386707" lon="8.547219708562938"><ele>28.0</ele><time>2026-05-02T09:11:33Z</time></trkpt><trkpt lat="40.813259824202326" lon="8.546850918161004"><ele>25.5</ele><time>2026-05-02T09:11:34Z</time></trkpt><trkpt lat="40.81316851184082" lon="8.546486585759338"><ele>23.0</ele><time>2026-05-02T09:11:35Z</time></trkpt><trkpt lat="40.81307935035184" lon="8.54613083522542"><ele>22.5</ele><time>2026-05-02T09:11:36Z</time></trkpt><trkpt lat="40.81299418643602" lon="8.545791034937293"><ele>22.0</ele><time>2026-05-02T09:11:37Z</time></trkpt><trkpt lat="40.81291285997542" lon="8.545466779830507"><ele>21.0</ele><time>2026-05-02T09:11:38Z</time></trkpt><trkpt lat="40.812834831749704" lon="8.545155779688892"><ele>20.0</ele><time>2026-05-02T09:11:39Z</time></trkpt><trkpt lat="40.812757707509476" lon="8.544848382676594"><ele>19.5</ele><time>2026-05-02T09:11:40Z</time></trkpt><trkpt lat="40.81268185140821" lon="8.544546040139632"><ele>19.0</ele><time>2026-05-02T09:11:41Z</time></trkpt><trkpt lat="40.81261103772368" lon="8.544262384907789"><ele>19.333333333333332</ele><time>2026-05-02T09:11:42Z</time></trkpt><trkpt lat="40.81254457268036" lon="8.54399579223552"><ele>19.666666666666668</ele><time>2026-05-02T09:11:43Z</time></trkpt><trkpt lat="40.81248079675345" lon="8.54374046759323"><ele>20.0</ele><time>2026-05-02T09:11:44Z</time></trkpt><trkpt lat="40.81241918329332" lon="8.543493929399686"><ele>20.0</ele><time>2026-05-02T09:11:45Z</time></trkpt><trkpt lat="40.81235912363614" lon="8.54325360856856"><ele>20.0</ele><time>2026-05-02T09:11:46Z</time></trkpt><trkpt lat="40.812282384279804" lon="8.543015369751089"><ele>20.0</ele><time>2026-05-02T09:11:47Z</time></trkpt><trkpt lat="40.812236311348755" lon="8.542762191512255"><ele>19.666666666666668</ele><time>2026-05-02T09:11:48Z</time></trkpt><trkpt lat="40.812164456712296" lon="8.542541092022015"><ele>19.333333333333332</ele><time>2026-05-02T09:11:49Z</time></trkpt><trkpt lat="40.81212910659728" lon="8.542329699175115"><ele>19.0</ele><time>2026-05-02T09:11:50Z</time></trkpt><trkpt lat="40.81207975107484" lon="8.542130617464933"><ele>18.666666666666664</ele><time>2026-05-02T09:11:51Z</time></trkpt><trkpt lat="40.81202973697538" lon="8.541928879357712"><ele>18.333333333333332</ele><time>2026-05-02T09:11:52Z</time></trkpt><trkpt lat="40.811975544633206" lon="8.54171028780539"><ele>18.0</ele><time>2026-05-02T09:11:53Z</time></trkpt><trkpt lat="40.81191986939631" lon="8.541485714745129"><ele>18.0</ele><time>2026-05-02T09:11:54Z</time></trkpt><trkpt lat="40.81186596880765" lon="8.541268299925274"><ele>18.0</ele><time>2026-05-02T09:11:55Z</time></trkpt><trkpt lat="40.81181761165632" lon="8.541073245315722"><ele>18.0</ele><time>2026-05-02T09:11:56Z</time></trkpt><trkpt lat="40.81176872548027" lon="8.540904339466719"><ele>18.75</ele><time>2026-05-02T09:11:57Z</time></trkpt><trkpt lat="40.81170938243746" lon="8.540740961321971"><ele>19.5</ele><time>2026-05-02T09:11:58Z</time></trkpt><trkpt lat="40.81163616524508" lon="8.540579025265071"><ele>20.25</ele><time>2026-05-02T09:11:59Z</time></trkpt><trkpt lat="40.81153341940963" lon="8.54042748448371"><ele>21.0</ele><time>2026-05-02T09:12:00Z</time></trkpt><trkpt lat="40.81140946674295" lon="8.540274428317153"><ele>21.0</ele><time>2026-05-02T09:12:01Z</time></trkpt><trkpt lat="40.811277888509885" lon="8.540111813017166"><ele>21.0</ele><time>2026-05-02T09:12:02Z</time></trkpt><trkpt lat="40.81113390570855" lon="8.539931037469938"><ele>21.0</ele><time>2026-05-02T09:12:03Z</time></trkpt><trkpt lat="40.810996219262684" lon="8.539725115505794"><ele>20.666666666666668</ele><time>2026-05-02T09:12:04Z</time></trkpt><trkpt lat="40.810842471419384" lon="8.539529134671222"><ele>20.333333333333336</ele><time>2026-05-02T09:12:05Z</time></trkpt><trkpt lat="40.81068536142741" lon="8.539328869073657"><ele>20.0</ele><time>2026-05-02T09:12:06Z</time></trkpt><trkpt lat="40.810524400781546" lon="8.539124974097039"><ele>20.0</ele><time>2026-05-02T09:12:07Z</time></trkpt><trkpt lat="40.810360061876224" lon="8.53891642603958"><ele>20.0</ele><time>2026-05-02T09:12:08Z</time></trkpt><trkpt lat="40.810192812192845" lon="8.538704184219373"><ele>20.5</ele><time>2026-05-02T09:12:09Z</time></trkpt><trkpt lat="40.810024131911284" lon="8.538489419884579"><ele>21.0</ele><time>2026-05-02T09:12:10Z</time></trkpt><trkpt lat="40.809855048906265" lon="8.538272785936696"><ele>21.0</ele><time>2026-05-02T09:12:11Z</time></trkpt><trkpt lat="40.8096865673102" lon="8.538056871953282"><ele>21.0</ele><time>2026-05-02T09:12:12Z</time></trkpt><trkpt lat="40.80952070846454" lon="8.537844836847501"><ele>21.0</ele><time>2026-05-02T09:12:13Z</time></trkpt><trkpt lat="40.809354390233224" lon="8.537635716600157"><ele>21.0</ele><time>2026-05-02T09:12:14Z</time></trkpt><trkpt lat="40.809206282242165" lon="8.537425756399276"><ele>21.0</ele><time>2026-05-02T09:12:15Z</time></trkpt><trkpt lat="40.809083826158904" lon="8.5372077813595"><ele>20.333333333333332</ele><time>2026-05-02T09:12:16Z</time></trkpt><trkpt lat="40.809000504217956" lon="8.536965943601444"><ele>19.666666666666664</ele><time>2026-05-02T09:12:17Z</time></trkpt><trkpt lat="40.8089321699437" lon="8.536700494279902"><ele>19.0</ele><time>2026-05-02T09:12:18Z</time></trkpt><trkpt lat="40.80888069291488" lon="8.536419988218887"><ele>19.0</ele><time>2026-05-02T09:12:19Z</time></trkpt><trkpt lat="40.808829984216956" lon="8.536115565105566"><ele>19.0</ele><time>2026-05-02T09:12:20Z</time></trkpt><trkpt lat="40.80876470506659" lon="8.53580738351001"><ele>19.0</ele><time>2026-05-02T09:12:21Z</time></trkpt><trkpt lat="40.8087111709381" lon="8.535484847344078"><ele>19.0</ele><time>2026-05-02T09:12:22Z</time></trkpt><trkpt lat="40.80867094376948" lon="8.53515680651403"><ele>19.0</ele><time>2026-05-02T09:12:23Z</time></trkpt><trkpt lat="40.80861595687164" lon="8.534829222831089"><ele>19.0</ele><time>2026-05-02T09:12:24Z</time></trkpt><trkpt lat="40.80854478579229" lon="8.534501418080236"><ele>18.5</ele><time>2026-05-02T09:12:25Z</time></trkpt><trkpt lat="40.80848950387581" lon="8.534166440352665"><ele>18.0</ele><time>2026-05-02T09:12:26Z</time></trkpt><trkpt lat="40.808432638243445" lon="8.533829929958335"><ele>18.0</ele><time>2026-05-02T09:12:27Z</time></trkpt><trkpt lat="40.80837571495258" lon="8.533490180695164"><ele>18.0</ele><time>2026-05-02T09:12:28Z</time></trkpt><trkpt lat="40.80831857959386" lon="8.533147452506302"><ele>17.5</ele><time>2026-05-02T09:12:29Z</time></trkpt><trkpt lat="40.80826103403554" lon="8.5328045770345"><ele>17.0</ele><time>2026-05-02T09:12:30Z</time></trkpt><trkpt lat="40.808203186026006" lon="8.532460818755522"><ele>17.0</ele><time>2026-05-02T09:12:31Z</time></trkpt><trkpt lat="40.80814506058299" lon="8.532117779280568"><ele>17.0</ele><time>2026-05-02T09:12:32Z</time></trkpt><trkpt lat="40.808087684526626" lon="8.531774188925494"><ele>16.5</ele><time>2026-05-02T09:12:33Z</time></trkpt><trkpt lat="40.80803102324368" lon="8.531432081018258"><ele>16.0</ele><time>2026-05-02T09:12:34Z</time></trkpt><trkpt lat="40.80797436811077" lon="8.531091432008793"><ele>16.0</ele><time>2026-05-02T09:12:35Z</time></trkpt><trkpt lat="40.807920621517376" lon="8.53075304872779"><ele>16.0</ele><time>2026-05-02T09:12:36Z</time></trkpt><trkpt lat="40.807875697070095" lon="8.530413218635175"><ele>16.5</ele><time>2026-05-02T09:12:37Z</time></trkpt><trkpt lat="40.807819949958464" lon="8.53007943697768"><ele>17.0</ele><time>2026-05-02T09:12:38Z</time></trkpt><trkpt lat="40.80774863522325" lon="8.529751277694787"><ele>17.0</ele><time>2026-05-02T09:12:39Z</time></trkpt><trkpt lat="40.80769501032815" lon="8.52941793113721"><ele>17.0</ele><time>2026-05-02T09:12:40Z</time></trkpt><trkpt lat="40.80763992174148" lon="8.529085743069572"><ele>17.5</ele><time>2026-05-02T09:12:41Z</time></trkpt><trkpt lat="40.807583392155976" lon="8.528754814281308"><ele>18.0</ele><time>2026-05-02T09:12:42Z</time></trkpt><trkpt lat="40.80754492425731" lon="8.528423674223585"><ele>18.0</ele><time>2026-05-02T09:12:43Z</time></trkpt><trkpt lat="40.807493102680404" lon="8.52811460471885"><ele>18.0</ele><time>2026-05-02T09:12:44Z</time></trkpt><trkpt lat="40.8074213773022" lon="8.527839825731503"><ele>17.666666666666668</ele><time>2026-05-02T09:12:45Z</time></trkpt><trkpt lat="40.80735188886953" lon="8.527572448224753"><ele>17.333333333333336</ele><time>2026-05-02T09:12:46Z</time></trkpt><trkpt lat="40.80725264256936" lon="8.52731557351402"><ele>17.0</ele><time>2026-05-02T09:12:47Z</time></trkpt><trkpt lat="40.80712415761172" lon="8.527059889244699"><ele>15.5</ele><time>2026-05-02T09:12:48Z</time></trkpt><trkpt lat="40.8069774759088" lon="8.526804403445729"><ele>14.0</ele><time>2026-05-02T09:12:49Z</time></trkpt><trkpt lat="40.80684272799523" lon="8.526534094115672"><ele>15.0</ele><time>2026-05-02T09:12:50Z</time></trkpt><trkpt lat="40.80669181705015" lon="8.52627213095851"><ele>16.0</ele><time>2026-05-02T09:12:51Z</time></trkpt><trkpt lat="40.80654228352573" lon="8.526006213313481"><ele>16.0</ele><time>2026-05-02T09:12:52Z</time></trkpt><trkpt lat="40.806393028060214" lon="8.525740790154197"><ele>16.0</ele><time>2026-05-02T09:12:53Z</time></trkpt><trkpt lat="40.80624407556891" lon="8.525475906755478"><ele>16.5</ele><time>2026-05-02T09:12:54Z</time></trkpt><trkpt lat="40.80609528581643" lon="8.525211313468422"><ele>17.0</ele><time>2026-05-02T09:12:55Z</time></trkpt><trkpt lat="40.80594655380482" lon="8.52494922061327"><ele>17.5</ele><time>2026-05-02T09:12:56Z</time></trkpt><trkpt lat="40.80579955887674" lon="8.524689668529335"><ele>18.0</ele><time>2026-05-02T09:12:57Z</time></trkpt><trkpt lat="40.80564008681573" lon="8.524447367312328"><ele>17.0</ele><time>2026-05-02T09:12:58Z</time></trkpt><trkpt lat="40.80549415029457" lon="8.52419390535765"><ele>16.0</ele><time>2026-05-02T09:12:59Z</time></trkpt><trkpt lat="40.805348612786744" lon="8.523945259948299"><ele>16.0</ele><time>2026-05-02T09:13:00Z</time></trkpt><trkpt lat="40.805206908351366" lon="8.523689401834366"><ele>16.0</ele><time>2026-05-02T09:13:01Z</time></trkpt><trkpt lat="40.805067624753896" lon="8.52342622098386"><ele>17.0</ele><time>2026-05-02T09:13:02Z</time></trkpt><trkpt lat="40.8049255392203" lon="8.523173270119047"><ele>18.0</ele><time>2026-05-02T09:13:03Z</time></trkpt><trkpt lat="40.80477763412269" lon="8.522928313534427"><ele>17.0</ele><time>2026-05-02T09:13:04Z</time></trkpt><trkpt lat="40.80461306029278" lon="8.522693663703782"><ele>16.0</ele><time>2026-05-02T09:13:05Z</time></trkpt><trkpt lat="40.804432018703025" lon="8.52247922759142"><ele>17.5</ele><time>2026-05-02T09:13:06Z</time></trkpt><trkpt lat="40.804243836705815" lon="8.522284955840444"><ele>19.0</ele><time>2026-05-02T09:13:07Z</time></trkpt><trkpt lat="40.804058267557636" lon="8.522101029378621"><ele>18.333333333333332</ele><time>2026-05-02T09:13:08Z</time></trkpt><trkpt lat="40.80387774222778" lon="8.52191638850255"><ele>17.666666666666668</ele><time>2026-05-02T09:13:09Z</time></trkpt><trkpt lat="40.803710272037" lon="8.521739238569497"><ele>17.0</ele><time>2026-05-02T09:13:10Z</time></trkpt><trkpt lat="40.80355363837994" lon="8.521573721214885"><ele>17.333333333333336</ele><time>2026-05-02T09:13:11Z</time></trkpt><trkpt lat="40.8034161200308" lon="8.521422516081481"><ele>17.666666666666668</ele><time>2026-05-02T09:13:12Z</time></trkpt><trkpt lat="40.80329582803685" lon="8.521285593637076"><ele>18.0</ele><time>2026-05-02T09:13:13Z</time></trkpt><trkpt lat="40.8031923266209" lon="8.52114341647438"><ele>18.0</ele><time>2026-05-02T09:13:14Z</time></trkpt><trkpt lat="40.80310348385954" lon="8.520987695934323"><ele>18.0</ele><time>2026-05-02T09:13:15Z</time></trkpt><trkpt lat="40.80304058361757" lon="8.520809818410775"><ele>18.0</ele><time>2026-05-02T09:13:16Z</time></trkpt><trkpt lat="40.80300108111309" lon="8.520615552574332"><ele>18.0</ele><time>2026-05-02T09:13:17Z</time></trkpt><trkpt lat="40.80298189419041" lon="8.520411038106278"><ele>17.333333333333332</ele><time>2026-05-02T09:13:18Z</time></trkpt><trkpt lat="40.802968706206904" lon="8.5201933120524"><ele>16.666666666666664</ele><time>2026-05-02T09:13:19Z</time></trkpt><trkpt lat="40.80296056938032" lon="8.519962480971866"><ele>16.0</ele><time>2026-05-02T09:13:20Z</time></trkpt><trkpt lat="40.80295403051724" lon="8.519712575507336"><ele>15.666666666666666</ele><time>2026-05-02T09:13:21Z</time></trkpt><trkpt lat="40.80295034823766" lon="8.519451289345966"><ele>15.333333333333332</ele><time>2026-05-02T09:13:22Z</time></trkpt><trkpt lat="40.80294127500867" lon="8.51917337319234"><ele>15.0</ele><time>2026-05-02T09:13:23Z</time></trkpt><trkpt lat="40.80293441885419" lon="8.518895577773494"><ele>15.0</ele><time>2026-05-02T09:13:24Z</time></trkpt><trkpt lat="40.80292545875259" lon="8.518610706609959"><ele>15.0</ele><time>2026-05-02T09:13:25Z</time></trkpt><trkpt lat="40.80292044572703" lon="8.51832215362244"><ele>15.0</ele><time>2026-05-02T09:13:26Z</time></trkpt><trkpt lat="40.80291378572667" lon="8.518028166418855"><ele>14.5</ele><time>2026-05-02T09:13:27Z</time></trkpt><trkpt lat="40.8029076025736" lon="8.517729021402156"><ele>14.0</ele><time>2026-05-02T09:13:28Z</time></trkpt><trkpt lat="40.80289913020979" lon="8.517429871390364"><ele>14.0</ele><time>2026-05-02T09:13:29Z</time></trkpt><trkpt lat="40.80289402710722" lon="8.517139780113746"><ele>14.0</ele><time>2026-05-02T09:13:30Z</time></trkpt><trkpt lat="40.80288012314919" lon="8.516879844261599"><ele>14.0</ele><time>2026-05-02T09:13:31Z</time></trkpt><trkpt lat="40.80285089257791" lon="8.51661682090842"><ele>14.333333333333334</ele><time>2026-05-02T09:13:32Z</time></trkpt><trkpt lat="40.80280322306041" lon="8.516342085973912"><ele>14.666666666666668</ele><time>2026-05-02T09:13:33Z</time></trkpt><trkpt lat="40.80273287551478" lon="8.516065176530226"><ele>15.0</ele><time>2026-05-02T09:13:34Z</time></trkpt><trkpt lat="40.80265597185422" lon="8.515786714341"><ele>15.5</ele><time>2026-05-02T09:13:35Z</time></trkpt><trkpt lat="40.802578985375966" lon="8.515500165255208"><ele>16.0</ele><time>2026-05-02T09:13:36Z</time></trkpt><trkpt lat="40.80250378591342" lon="8.515208822372898"><ele>16.5</ele><time>2026-05-02T09:13:37Z</time></trkpt><trkpt lat="40.80242610352744" lon="8.514911971323098"><ele>17.0</ele><time>2026-05-02T09:13:38Z</time></trkpt><trkpt lat="40.802344928233715" lon="8.514611657520831"><ele>16.5</ele><time>2026-05-02T09:13:39Z</time></trkpt><trkpt lat="40.80226421793871" lon="8.514305308273459"><ele>16.0</ele><time>2026-05-02T09:13:40Z</time></trkpt><trkpt lat="40.80218464226087" lon="8.513997273416514"><ele>16.5</ele><time>2026-05-02T09:13:41Z</time></trkpt><trkpt lat="40.80210457529504" lon="8.513686443323847"><ele>17.0</ele><time>2026-05-02T09:13:42Z</time></trkpt><trkpt lat="40.80202322335156" lon="8.513378282995191"><ele>17.0</ele><time>2026-05-02T09:13:43Z</time></trkpt><trkpt lat="40.8019422671427" lon="8.513071411481647"><ele>17.0</ele><time>2026-05-02T09:13:44Z</time></trkpt><trkpt lat="40.80186111446129" lon="8.51276694550675"><ele>19.0</ele><time>2026-05-02T09:13:45Z</time></trkpt><trkpt lat="40.80178066851487" lon="8.512462630916835"><ele>21.0</ele><time>2026-05-02T09:13:46Z</time></trkpt><trkpt lat="40.80169801605696" lon="8.512158317345241"><ele>20.0</ele><time>2026-05-02T09:13:47Z</time></trkpt><trkpt lat="40.801613940354244" lon="8.51185070146483"><ele>19.0</ele><time>2026-05-02T09:13:48.001Z</time></trkpt><trkpt lat="40.80153029794077" lon="8.511539782528855"><ele>18.5</ele><time>2026-05-02T09:13:49.001Z</time></trkpt><trkpt lat="40.80144572390306" lon="8.511226029533645"><ele>18.0</ele><time>2026-05-02T09:13:50.001Z</time></trkpt><trkpt lat="40.801363499985634" lon="8.510909515029098"><ele>18.0</ele><time>2026-05-02T09:13:51.001Z</time></trkpt><trkpt lat="40.80127857141462" lon="8.510592640491021"><ele>18.0</ele><time>2026-05-02T09:13:52.001Z</time></trkpt><trkpt lat="40.801199944736254" lon="8.510296044572382"><ele>17.333333333333332</ele><time>2026-05-02T09:13:53Z</time></trkpt><trkpt lat="40.80112660597212" lon="8.510016620352939"><ele>16.666666666666664</ele><time>2026-05-02T09:13:54Z</time></trkpt><trkpt lat="40.80105899357406" lon="8.509744625211153"><ele>16.0</ele><time>2026-05-02T09:13:55Z</time></trkpt><trkpt lat="40.8010009984885" lon="8.509491996174813"><ele>16.0</ele><time>2026-05-02T09:13:56Z</time></trkpt><trkpt lat="40.80096127130613" lon="8.509282234593112"><ele>16.0</ele><time>2026-05-02T09:13:57Z</time></trkpt><trkpt lat="40.8009511035883" lon="8.509115011549929"><ele>16.0</ele><time>2026-05-02T09:13:58Z</time></trkpt><trkpt lat="40.800963079161434" lon="8.508958064424911"><ele>16.0</ele><time>2026-05-02T09:13:59Z</time></trkpt><trkpt lat="40.80100520441188" lon="8.508827093794373"><ele>16.0</ele><time>2026-05-02T09:14:00Z</time></trkpt><trkpt lat="40.8010597358899" lon="8.508704747344746"><ele>16.0</ele><time>2026-05-02T09:14:01Z</time></trkpt><trkpt lat="40.80107533240014" lon="8.508576730603098"><ele>16.0</ele><time>2026-05-02T09:14:02Z</time></trkpt><trkpt lat="40.80101011994161" lon="8.50829821777241"><ele>16.0</ele><time>2026-05-02T09:14:04Z</time></trkpt><trkpt lat="40.80097062342485" lon="8.508172429821126"><ele>16.5</ele><time>2026-05-02T09:14:05Z</time></trkpt><trkpt lat="40.80097238762444" lon="8.508042286698288"><ele>17.0</ele><time>2026-05-02T09:14:06Z</time></trkpt><trkpt lat="40.80100507211357" lon="8.507897556510546"><ele>17.5</ele><time>2026-05-02T09:14:07Z</time></trkpt><trkpt lat="40.80105241668065" lon="8.507750992870363"><ele>18.0</ele><time>2026-05-02T09:14:08Z</time></trkpt><trkpt lat="40.801125279958846" lon="8.507593595444357"><ele>18.0</ele><time>2026-05-02T09:14:09Z</time></trkpt><trkpt lat="40.80121024110133" lon="8.507428911368464"><ele>18.0</ele><time>2026-05-02T09:14:10Z</time></trkpt><trkpt lat="40.80129806011566" lon="8.50725778086177"><ele>18.0</ele><time>2026-05-02T09:14:11Z</time></trkpt><trkpt lat="40.80139109829195" lon="8.507080617068125"><ele>18.666666666666668</ele><time>2026-05-02T09:14:12Z</time></trkpt><trkpt lat="40.80149423814727" lon="8.506909309687146"><ele>19.333333333333336</ele><time>2026-05-02T09:14:13Z</time></trkpt><trkpt lat="40.80155805744472" lon="8.50671494556508"><ele>20.0</ele><time>2026-05-02T09:14:14Z</time></trkpt><trkpt lat="40.80165090322829" lon="8.50652657876348"><ele>20.0</ele><time>2026-05-02T09:14:15Z</time></trkpt><trkpt lat="40.801741269662685" lon="8.506338098031868"><ele>20.0</ele><time>2026-05-02T09:14:16Z</time></trkpt><trkpt lat="40.801834773662335" lon="8.506144937381087"><ele>20.0</ele><time>2026-05-02T09:14:17Z</time></trkpt><trkpt lat="40.80193294212062" lon="8.505942340025095"><ele>20.0</ele><time>2026-05-02T09:14:18Z</time></trkpt><trkpt lat="40.80203144723363" lon="8.505731623785016"><ele>20.0</ele><time>2026-05-02T09:14:19Z</time></trkpt><trkpt lat="40.80211812859545" lon="8.505508926604461"><ele>20.0</ele><time>2026-05-02T09:14:20Z</time></trkpt><trkpt lat="40.80219194675009" lon="8.505256036303088"><ele>20.333333333333336</ele><time>2026-05-02T09:14:21Z</time></trkpt><trkpt lat="40.802245999077975" lon="8.50498417727035"><ele>20.666666666666668</ele><time>2026-05-02T09:14:22Z</time></trkpt><trkpt lat="40.802305566076264" lon="8.504700200751442"><ele>21.0</ele><time>2026-05-02T09:14:23Z</time></trkpt><trkpt lat="40.802367833383606" lon="8.504412817940544"><ele>21.5</ele><time>2026-05-02T09:14:24Z</time></trkpt><trkpt lat="40.80242729489549" lon="8.504123827807067"><ele>22.0</ele><time>2026-05-02T09:14:25Z</time></trkpt><trkpt lat="40.80248736689001" lon="8.50382889424369"><ele>22.5</ele><time>2026-05-02T09:14:26Z</time></trkpt><trkpt lat="40.8025482836433" lon="8.503535957833694"><ele>23.0</ele><time>2026-05-02T09:14:27Z</time></trkpt><trkpt lat="40.80260947511249" lon="8.503240438377967"><ele>22.0</ele><time>2026-05-02T09:14:28Z</time></trkpt><trkpt lat="40.802672221078616" lon="8.502945892679861"><ele>21.0</ele><time>2026-05-02T09:14:29Z</time></trkpt><trkpt lat="40.80273644636136" lon="8.502649338314498"><ele>21.0</ele><time>2026-05-02T09:14:30Z</time></trkpt><trkpt lat="40.80280225798453" lon="8.502347462727874"><ele>21.0</ele><time>2026-05-02T09:14:31Z</time></trkpt><trkpt lat="40.802871286001476" lon="8.502040353470019"><ele>21.0</ele><time>2026-05-02T09:14:32Z</time></trkpt><trkpt lat="40.80294005587903" lon="8.501732019344951"><ele>21.0</ele><time>2026-05-02T09:14:33Z</time></trkpt><trkpt lat="40.80301004733984" lon="8.501419165426684"><ele>21.0</ele><time>2026-05-02T09:14:34Z</time></trkpt><trkpt lat="40.80307963766775" lon="8.5011048689543"><ele>21.0</ele><time>2026-05-02T09:14:35Z</time></trkpt><trkpt lat="40.803148955772485" lon="8.500783434411535"><ele>21.0</ele><time>2026-05-02T09:14:36Z</time></trkpt><trkpt lat="40.80321768347195" lon="8.500461585031351"><ele>21.0</ele><time>2026-05-02T09:14:37Z</time></trkpt><trkpt lat="40.803286447722755" lon="8.500139275739233"><ele>21.5</ele><time>2026-05-02T09:14:38Z</time></trkpt><trkpt lat="40.8033563751968" lon="8.499817427514984"><ele>22.0</ele><time>2026-05-02T09:14:39Z</time></trkpt><trkpt lat="40.80342586702433" lon="8.499491991851828"><ele>22.0</ele><time>2026-05-02T09:14:40Z</time></trkpt><trkpt lat="40.80349664683512" lon="8.499160628809298"><ele>22.0</ele><time>2026-05-02T09:14:41Z</time></trkpt><trkpt lat="40.80356176141653" lon="8.498827891351795"><ele>20.0</ele><time>2026-05-02T09:14:42Z</time></trkpt><trkpt lat="40.80362208621326" lon="8.498490611559843"><ele>18.0</ele><time>2026-05-02T09:14:43Z</time></trkpt><trkpt lat="40.80368373130755" lon="8.498150228314504"><ele>18.0</ele><time>2026-05-02T09:14:44Z</time></trkpt><trkpt lat="40.803742695585704" lon="8.497807437631694"><ele>18.0</ele><time>2026-05-02T09:14:45Z</time></trkpt><trkpt lat="40.80380250067117" lon="8.497463260570099"><ele>18.0</ele><time>2026-05-02T09:14:46Z</time></trkpt><trkpt lat="40.80386376183768" lon="8.497115902251783"><ele>18.0</ele><time>2026-05-02T09:14:47Z</time></trkpt><trkpt lat="40.80392529160985" lon="8.496774549966505"><ele>18.5</ele><time>2026-05-02T09:14:48Z</time></trkpt><trkpt lat="40.80398643859394" lon="8.496432914917737"><ele>19.0</ele><time>2026-05-02T09:14:49Z</time></trkpt><trkpt lat="40.80404578777907" lon="8.496092735206744"><ele>19.0</ele><time>2026-05-02T09:14:50Z</time></trkpt><trkpt lat="40.80410401484618" lon="8.495753489753293"><ele>19.0</ele><time>2026-05-02T09:14:51Z</time></trkpt><trkpt lat="40.80416222517019" lon="8.495416090730172"><ele>19.0</ele><time>2026-05-02T09:14:52Z</time></trkpt><trkpt lat="40.8042210083672" lon="8.495078312878263"><ele>19.0</ele><time>2026-05-02T09:14:53Z</time></trkpt><trkpt lat="40.804277861981184" lon="8.494740778652423"><ele>18.0</ele><time>2026-05-02T09:14:54Z</time></trkpt><trkpt lat="40.80433814943406" lon="8.49440556418459"><ele>17.0</ele><time>2026-05-02T09:14:55Z</time></trkpt><trkpt lat="40.804396724593545" lon="8.4940661066566"><ele>16.5</ele><time>2026-05-02T09:14:56Z</time></trkpt><trkpt lat="40.804451743262135" lon="8.493725039064758"><ele>16.0</ele><time>2026-05-02T09:14:57Z</time></trkpt><trkpt lat="40.804503440690155" lon="8.493381465254572"><ele>16.0</ele><time>2026-05-02T09:14:58Z</time></trkpt><trkpt lat="40.804573520273436" lon="8.493041232046654"><ele>16.0</ele><time>2026-05-02T09:14:59Z</time></trkpt><trkpt lat="40.80460618669781" lon="8.492687744791432"><ele>15.5</ele><time>2026-05-02T09:15:00Z</time></trkpt><trkpt lat="40.80465636581193" lon="8.492340070603664"><ele>15.0</ele><time>2026-05-02T09:15:01Z</time></trkpt><trkpt lat="40.80470795624267" lon="8.49199136922867"><ele>14.5</ele><time>2026-05-02T09:15:02Z</time></trkpt><trkpt lat="40.80476130042192" lon="8.491644139854813"><ele>14.0</ele><time>2026-05-02T09:15:03Z</time></trkpt><trkpt lat="40.80481124285129" lon="8.491295568325075"><ele>14.0</ele><time>2026-05-02T09:15:04Z</time></trkpt><trkpt lat="40.80486188142342" lon="8.490949393265957"><ele>14.0</ele><time>2026-05-02T09:15:05Z</time></trkpt><trkpt lat="40.804912907389166" lon="8.490601703233118"><ele>14.0</ele><time>2026-05-02T09:15:06Z</time></trkpt><trkpt lat="40.80496588012617" lon="8.490255735161002"><ele>14.0</ele><time>2026-05-02T09:15:07Z</time></trkpt><trkpt lat="40.80501919513596" lon="8.489910011170211"><ele>14.5</ele><time>2026-05-02T09:15:08Z</time></trkpt><trkpt lat="40.805070954773974" lon="8.489568620354696"><ele>15.0</ele><time>2026-05-02T09:15:09Z</time></trkpt><trkpt lat="40.80512424924243" lon="8.489227851330336"><ele>14.0</ele><time>2026-05-02T09:15:10Z</time></trkpt><trkpt lat="40.805177071516056" lon="8.488890073355021"><ele>13.0</ele><time>2026-05-02T09:15:11Z</time></trkpt><trkpt lat="40.80522866255135" lon="8.48855262102816"><ele>13.0</ele><time>2026-05-02T09:15:12Z</time></trkpt><trkpt lat="40.80528124169424" lon="8.488213817655447"><ele>13.0</ele><time>2026-05-02T09:15:13Z</time></trkpt><trkpt lat="40.80533263469036" lon="8.487876144184325"><ele>13.0</ele><time>2026-05-02T09:15:14Z</time></trkpt><trkpt lat="40.805380655520985" lon="8.487537692750463"><ele>13.0</ele><time>2026-05-02T09:15:15Z</time></trkpt><trkpt lat="40.80543102511189" lon="8.48719980619477"><ele>14.0</ele><time>2026-05-02T09:15:16Z</time></trkpt><trkpt lat="40.805481066762546" lon="8.48686132772819"><ele>15.0</ele><time>2026-05-02T09:15:17Z</time></trkpt><trkpt lat="40.80553180026608" lon="8.486522379395591"><ele>15.5</ele><time>2026-05-02T09:15:18Z</time></trkpt><trkpt lat="40.805585732530616" lon="8.486185089066867"><ele>16.0</ele><time>2026-05-02T09:15:19Z</time></trkpt><trkpt lat="40.80563918360752" lon="8.485847283923256"><ele>16.0</ele><time>2026-05-02T09:15:20Z</time></trkpt><trkpt lat="40.80569076889587" lon="8.485507751342366"><ele>16.0</ele><time>2026-05-02T09:15:21Z</time></trkpt><trkpt lat="40.805742497489206" lon="8.485165870927238"><ele>16.5</ele><time>2026-05-02T09:15:22Z</time></trkpt><trkpt lat="40.80579481301829" lon="8.484824516060597"><ele>17.0</ele><time>2026-05-02T09:15:23Z</time></trkpt><trkpt lat="40.80584785237748" lon="8.484483051538925"><ele>18.0</ele><time>2026-05-02T09:15:24Z</time></trkpt><trkpt lat="40.805901192882196" lon="8.484141436468946"><ele>19.0</ele><time>2026-05-02T09:15:25Z</time></trkpt><trkpt lat="40.80595435969957" lon="8.483798691372494"><ele>17.5</ele><time>2026-05-02T09:15:26Z</time></trkpt><trkpt lat="40.806006352950234" lon="8.483454075857988"><ele>16.0</ele><time>2026-05-02T09:15:27Z</time></trkpt><trkpt lat="40.806058786470174" lon="8.483109185789015"><ele>17.0</ele><time>2026-05-02T09:15:28Z</time></trkpt><trkpt lat="40.806112256220814" lon="8.482764105821095"><ele>18.0</ele><time>2026-05-02T09:15:29Z</time></trkpt><trkpt lat="40.80616668239471" lon="8.482419466823817"><ele>18.5</ele><time>2026-05-02T09:15:30Z</time></trkpt><trkpt lat="40.80622025251298" lon="8.482075537335248"><ele>19.0</ele><time>2026-05-02T09:15:31Z</time></trkpt><trkpt lat="40.80627516428372" lon="8.481732177217676"><ele>19.0</ele><time>2026-05-02T09:15:32Z</time></trkpt><trkpt lat="40.80632805257786" lon="8.48138730127289"><ele>19.0</ele><time>2026-05-02T09:15:33Z</time></trkpt><trkpt lat="40.80638112935828" lon="8.481044074027825"><ele>19.0</ele><time>2026-05-02T09:15:34Z</time></trkpt><trkpt lat="40.80643466346129" lon="8.48069934785629"><ele>19.0</ele><time>2026-05-02T09:15:35Z</time></trkpt><trkpt lat="40.80648762966937" lon="8.480355137962585"><ele>19.0</ele><time>2026-05-02T09:15:36Z</time></trkpt><trkpt lat="40.80654250653261" lon="8.480012723879774"><ele>19.0</ele><time>2026-05-02T09:15:37Z</time></trkpt><trkpt lat="40.80659317304912" lon="8.479668529473859"><ele>19.5</ele><time>2026-05-02T09:15:38Z</time></trkpt><trkpt lat="40.80664581493223" lon="8.47932495431362"><ele>20.0</ele><time>2026-05-02T09:15:39Z</time></trkpt><trkpt lat="40.806696641030975" lon="8.478981178553015"><ele>21.5</ele><time>2026-05-02T09:15:40Z</time></trkpt><trkpt lat="40.80674869835332" lon="8.478646472211087"><ele>23.0</ele><time>2026-05-02T09:15:41Z</time></trkpt><trkpt lat="40.806792266042656" lon="8.478340824372133"><ele>21.666666666666668</ele><time>2026-05-02T09:15:42.001Z</time></trkpt><trkpt lat="40.80683474983024" lon="8.478048736490074"><ele>20.333333333333332</ele><time>2026-05-02T09:15:43.001Z</time></trkpt><trkpt lat="40.80687508948661" lon="8.477780658330023"><ele>19.0</ele><time>2026-05-02T09:15:44.001Z</time></trkpt><trkpt lat="40.80691311220698" lon="8.47753046712152"><ele>19.0</ele><time>2026-05-02T09:15:45.001Z</time></trkpt><trkpt lat="40.806948605706225" lon="8.477301226839868"><ele>19.0</ele><time>2026-05-02T09:15:46.001Z</time></trkpt><trkpt lat="40.80698227260538" lon="8.477118608320103"><ele>19.0</ele><time>2026-05-02T09:15:47.001Z</time></trkpt><trkpt lat="40.807015200714254" lon="8.476950588284378"><ele>19.75</ele><time>2026-05-02T09:15:48.001Z</time></trkpt><trkpt lat="40.80706221204154" lon="8.476801964507983"><ele>20.5</ele><time>2026-05-02T09:15:49.001Z</time></trkpt><trkpt lat="40.80710219449112" lon="8.476657077633256"><ele>21.25</ele><time>2026-05-02T09:15:50.001Z</time></trkpt><trkpt lat="40.807113644560566" lon="8.476478544112673"><ele>22.0</ele><time>2026-05-02T09:15:51.001Z</time></trkpt><trkpt lat="40.80712412143912" lon="8.476266386918665"><ele>22.333333333333332</ele><time>2026-05-02T09:15:52.001Z</time></trkpt><trkpt lat="40.80715120493945" lon="8.47601991654432"><ele>22.666666666666668</ele><time>2026-05-02T09:15:53.001Z</time></trkpt><trkpt lat="40.80718982179552" lon="8.475761390585468"><ele>23.0</ele><time>2026-05-02T09:15:54.001Z</time></trkpt><trkpt lat="40.807230299932534" lon="8.475493734174737"><ele>23.666666666666668</ele><time>2026-05-02T09:15:55.001Z</time></trkpt><trkpt lat="40.80727180221088" lon="8.475214733492134"><ele>24.333333333333336</ele><time>2026-05-02T09:15:56.001Z</time></trkpt><trkpt lat="40.80731348541681" lon="8.474930907709545"><ele>25.0</ele><time>2026-05-02T09:15:57.001Z</time></trkpt><trkpt lat="40.80735953166624" lon="8.474633759823947"><ele>26.5</ele><time>2026-05-02T09:15:58.001Z</time></trkpt><trkpt lat="40.80740794088474" lon="8.47432634366514"><ele>28.0</ele><time>2026-05-02T09:15:59.001Z</time></trkpt><trkpt lat="40.807461914303495" lon="8.474007145286913"><ele>28.5</ele><time>2026-05-02T09:16:00.001Z</time></trkpt><trkpt lat="40.80751957147639" lon="8.4736883250092"><ele>29.0</ele><time>2026-05-02T09:16:01.001Z</time></trkpt><trkpt lat="40.8075846332195" lon="8.473364166427551"><ele>29.0</ele><time>2026-05-02T09:16:02.001Z</time></trkpt><trkpt lat="40.80765417238838" lon="8.473047354938775"><ele>29.0</ele><time>2026-05-02T09:16:03.001Z</time></trkpt><trkpt lat="40.80772962362011" lon="8.472750839490507"><ele>33.0</ele><time>2026-05-02T09:16:04.001Z</time></trkpt><trkpt lat="40.807812384249104" lon="8.472465470833525"><ele>37.0</ele><time>2026-05-02T09:16:05.001Z</time></trkpt><trkpt lat="40.807912218167786" lon="8.472182174213767"><ele>38.5</ele><time>2026-05-02T09:16:06.001Z</time></trkpt><trkpt lat="40.80802916029413" lon="8.471906428513208"><ele>40.0</ele><time>2026-05-02T09:16:07.001Z</time></trkpt><trkpt lat="40.80814868502794" lon="8.471632111114905"><ele>40.0</ele><time>2026-05-02T09:16:08.001Z</time></trkpt><trkpt lat="40.80825614487583" lon="8.471348220116068"><ele>40.0</ele><time>2026-05-02T09:16:09.001Z</time></trkpt><trkpt lat="40.80834503919155" lon="8.471052790836639"><ele>40.5</ele><time>2026-05-02T09:16:10.001Z</time></trkpt><trkpt lat="40.808421022765344" lon="8.470748354192"><ele>41.0</ele><time>2026-05-02T09:16:11.001Z</time></trkpt><trkpt lat="40.808510668706916" lon="8.470464321747457"><ele>44.0</ele><time>2026-05-02T09:16:12Z</time></trkpt><trkpt lat="40.80864446860517" lon="8.470204907053557"><ele>47.0</ele><time>2026-05-02T09:16:13Z</time></trkpt><trkpt lat="40.80876895185746" lon="8.469928242554253"><ele>47.0</ele><time>2026-05-02T09:16:14Z</time></trkpt><trkpt lat="40.808941487607875" lon="8.469711320180243"><ele>47.0</ele><time>2026-05-02T09:16:15Z</time></trkpt><trkpt lat="40.80912086469905" lon="8.469505820431449"><ele>47.33333333333333</ele><time>2026-05-02T09:16:16Z</time></trkpt><trkpt lat="40.809284222066445" lon="8.46931570372834"><ele>47.666666666666664</ele><time>2026-05-02T09:16:17Z</time></trkpt><trkpt lat="40.809432546944684" lon="8.469147992552198"><ele>48.0</ele><time>2026-05-02T09:16:18Z</time></trkpt><trkpt lat="40.80953816867289" lon="8.468961543125978"><ele>50.33333333333333</ele><time>2026-05-02T09:16:19Z</time></trkpt><trkpt lat="40.809606945902786" lon="8.468737962750371"><ele>52.666666666666664</ele><time>2026-05-02T09:16:20Z</time></trkpt><trkpt lat="40.809656637879876" lon="8.468511427867195"><ele>55.0</ele><time>2026-05-02T09:16:21Z</time></trkpt><trkpt lat="40.80968385715584" lon="8.468300852216357"><ele>55.0</ele><time>2026-05-02T09:16:22Z</time></trkpt><trkpt lat="40.80967935799909" lon="8.4681058274644"><ele>55.0</ele><time>2026-05-02T09:16:23Z</time></trkpt><trkpt lat="40.80965335080916" lon="8.46790797228536"><ele>55.0</ele><time>2026-05-02T09:16:24Z</time></trkpt><trkpt lat="40.809630310887805" lon="8.467669013700569"><ele>56.0</ele><time>2026-05-02T09:16:25Z</time></trkpt><trkpt lat="40.80960072180304" lon="8.467391696526624"><ele>57.0</ele><time>2026-05-02T09:16:26Z</time></trkpt><trkpt lat="40.80957308613879" lon="8.467071781471937"><ele>58.33333333333333</ele><time>2026-05-02T09:16:27Z</time></trkpt><trkpt lat="40.8095588753947" lon="8.466773372267411"><ele>59.666666666666664</ele><time>2026-05-02T09:16:28Z</time></trkpt><trkpt lat="40.809539826789596" lon="8.46651830253907"><ele>61.0</ele><time>2026-05-02T09:16:29Z</time></trkpt><trkpt lat="40.80956670693531" lon="8.466281739333413"><ele>62.0</ele><time>2026-05-02T09:16:30Z</time></trkpt><trkpt lat="40.8096597172973" lon="8.46606698386652"><ele>63.0</ele><time>2026-05-02T09:16:31Z</time></trkpt><trkpt lat="40.8097655894263" lon="8.465854033494047"><ele>64.0</ele><time>2026-05-02T09:16:32Z</time></trkpt><trkpt lat="40.80987064212702" lon="8.465629746935623"><ele>65.33333333333333</ele><time>2026-05-02T09:16:33Z</time></trkpt><trkpt lat="40.8099627109992" lon="8.4654307369967"><ele>66.66666666666667</ele><time>2026-05-02T09:16:34Z</time></trkpt><trkpt lat="40.810004503907614" lon="8.465241264656175"><ele>68.0</ele><time>2026-05-02T09:16:35Z</time></trkpt><trkpt lat="40.80998504077227" lon="8.465054225209226"><ele>68.0</ele><time>2026-05-02T09:16:36Z</time></trkpt><trkpt lat="40.8099275595066" lon="8.46487750766064"><ele>68.0</ele><time>2026-05-02T09:16:37Z</time></trkpt><trkpt lat="40.809855155768346" lon="8.46469044066147"><ele>68.0</ele><time>2026-05-02T09:16:38Z</time></trkpt><trkpt lat="40.809787830913834" lon="8.464497616801072"><ele>68.33333333333334</ele><time>2026-05-02T09:16:39Z</time></trkpt><trkpt lat="40.809776191186074" lon="8.464307032734"><ele>68.66666666666667</ele><time>2026-05-02T09:16:40Z</time></trkpt><trkpt lat="40.80979452617621" lon="8.464107032508084"><ele>69.0</ele><time>2026-05-02T09:16:41Z</time></trkpt><trkpt lat="40.809851872450004" lon="8.463909356508985"><ele>69.33333333333333</ele><time>2026-05-02T09:16:42Z</time></trkpt><trkpt lat="40.80992360602449" lon="8.463689495851144"><ele>69.66666666666666</ele><time>2026-05-02T09:16:43Z</time></trkpt><trkpt lat="40.809994867253984" lon="8.463462184982712"><ele>70.0</ele><time>2026-05-02T09:16:44Z</time></trkpt><trkpt lat="40.81006532052963" lon="8.463232095130328"><ele>70.0</ele><time>2026-05-02T09:16:45Z</time></trkpt><trkpt lat="40.81009431966083" lon="8.463005951480342"><ele>70.0</ele><time>2026-05-02T09:16:46Z</time></trkpt><trkpt lat="40.81006699989384" lon="8.462768547320445"><ele>70.0</ele><time>2026-05-02T09:16:47Z</time></trkpt><trkpt lat="40.81003130407139" lon="8.462505395857855"><ele>71.0</ele><time>2026-05-02T09:16:48Z</time></trkpt><trkpt lat="40.80997351950138" lon="8.462236103831913"><ele>72.0</ele><time>2026-05-02T09:16:49Z</time></trkpt><trkpt lat="40.809944587760775" lon="8.461941740064313"><ele>73.0</ele><time>2026-05-02T09:16:50Z</time></trkpt><trkpt lat="40.80989912944313" lon="8.461646261123946"><ele>73.33333333333333</ele><time>2026-05-02T09:16:51Z</time></trkpt><trkpt lat="40.80986135374229" lon="8.46135710445296"><ele>73.66666666666667</ele><time>2026-05-02T09:16:52Z</time></trkpt><trkpt lat="40.80983953563651" lon="8.461059043488426"><ele>74.0</ele><time>2026-05-02T09:16:53Z</time></trkpt><trkpt lat="40.809837103466" lon="8.460751575056147"><ele>75.0</ele><time>2026-05-02T09:16:54Z</time></trkpt><trkpt lat="40.809836637165766" lon="8.460451674870491"><ele>76.0</ele><time>2026-05-02T09:16:55Z</time></trkpt><trkpt lat="40.80983612731407" lon="8.460123764960661"><ele>78.0</ele><time>2026-05-02T09:16:56Z</time></trkpt><trkpt lat="40.80983560770313" lon="8.45978957800375"><ele>80.0</ele><time>2026-05-02T09:16:57Z</time></trkpt><trkpt lat="40.80983527555225" lon="8.459451358989647"><ele>80.5</ele><time>2026-05-02T09:16:58Z</time></trkpt><trkpt lat="40.809819067016555" lon="8.459116033212839"><ele>81.0</ele><time>2026-05-02T09:16:59Z</time></trkpt><trkpt lat="40.80982158754043" lon="8.458785817341221"><ele>81.0</ele><time>2026-05-02T09:17:00Z</time></trkpt><trkpt lat="40.809821842975595" lon="8.458458391728506"><ele>81.0</ele><time>2026-05-02T09:17:01Z</time></trkpt><trkpt lat="40.80982236105683" lon="8.458140702423783"><ele>82.0</ele><time>2026-05-02T09:17:02Z</time></trkpt><trkpt lat="40.809822444094934" lon="8.457828049070784"><ele>83.0</ele><time>2026-05-02T09:17:03Z</time></trkpt><trkpt lat="40.80982430196818" lon="8.457520827578643"><ele>83.0</ele><time>2026-05-02T09:17:04Z</time></trkpt><trkpt lat="40.80982673556169" lon="8.457217362843972"><ele>83.0</ele><time>2026-05-02T09:17:05Z</time></trkpt><trkpt lat="40.809826703602695" lon="8.45691548755558"><ele>83.0</ele><time>2026-05-02T09:17:06Z</time></trkpt><trkpt lat="40.8098247877289" lon="8.456617729798374"><ele>83.0</ele><time>2026-05-02T09:17:07Z</time></trkpt><trkpt lat="40.80982056964833" lon="8.456329552881959"><ele>83.0</ele><time>2026-05-02T09:17:08Z</time></trkpt><trkpt lat="40.8098195318608" lon="8.45606635102454"><ele>82.33333333333334</ele><time>2026-05-02T09:17:09Z</time></trkpt><trkpt lat="40.80982402011142" lon="8.455820389322154"><ele>81.66666666666667</ele><time>2026-05-02T09:17:10Z</time></trkpt><trkpt lat="40.809831275533156" lon="8.455582768651768"><ele>81.0</ele><time>2026-05-02T09:17:11Z</time></trkpt><trkpt lat="40.80987724046605" lon="8.455344288221163"><ele>81.0</ele><time>2026-05-02T09:17:12Z</time></trkpt><trkpt lat="40.809960122256285" lon="8.455107737094108"><ele>81.0</ele><time>2026-05-02T09:17:13Z</time></trkpt><trkpt lat="40.81005047999188" lon="8.454841961921124"><ele>81.0</ele><time>2026-05-02T09:17:14Z</time></trkpt><trkpt lat="40.81014664404209" lon="8.454559108270622"><ele>79.0</ele><time>2026-05-02T09:17:15Z</time></trkpt><trkpt lat="40.81023905248122" lon="8.45426090981983"><ele>77.0</ele><time>2026-05-02T09:17:16Z</time></trkpt><trkpt lat="40.81034169272184" lon="8.453961940891944"><ele>77.0</ele><time>2026-05-02T09:17:17Z</time></trkpt><trkpt lat="40.81044999056136" lon="8.453658377349186"><ele>77.0</ele><time>2026-05-02T09:17:18Z</time></trkpt><trkpt lat="40.81055193277681" lon="8.453356655982981"><ele>77.0</ele><time>2026-05-02T09:17:19Z</time></trkpt><trkpt lat="40.81065634318025" lon="8.453051982091345"><ele>77.0</ele><time>2026-05-02T09:17:20Z</time></trkpt><trkpt lat="40.810759658009204" lon="8.452741318975216"><ele>78.0</ele><time>2026-05-02T09:17:21Z</time></trkpt><trkpt lat="40.81086590472864" lon="8.452426209836094"><ele>79.0</ele><time>2026-05-02T09:17:22Z</time></trkpt><trkpt lat="40.81097095845881" lon="8.45211688156247"><ele>76.5</ele><time>2026-05-02T09:17:23Z</time></trkpt><trkpt lat="40.811071286713016" lon="8.451817494972607"><ele>74.0</ele><time>2026-05-02T09:17:24Z</time></trkpt><trkpt lat="40.81117238328382" lon="8.45152463366244"><ele>75.0</ele><time>2026-05-02T09:17:25Z</time></trkpt><trkpt lat="40.81127362835517" lon="8.451234403151618"><ele>76.0</ele><time>2026-05-02T09:17:26Z</time></trkpt><trkpt lat="40.81137318860961" lon="8.450945497801852"><ele>76.0</ele><time>2026-05-02T09:17:27Z</time></trkpt><trkpt lat="40.81147332920105" lon="8.450662369792894"><ele>76.0</ele><time>2026-05-02T09:17:28Z</time></trkpt><trkpt lat="40.81156972331362" lon="8.450380651827123"><ele>75.0</ele><time>2026-05-02T09:17:29Z</time></trkpt><trkpt lat="40.81166464973829" lon="8.450094180445275"><ele>74.0</ele><time>2026-05-02T09:17:30Z</time></trkpt><trkpt lat="40.811757322657705" lon="8.449807499725377"><ele>74.5</ele><time>2026-05-02T09:17:31Z</time></trkpt><trkpt lat="40.81185147833226" lon="8.449524874496463"><ele>75.0</ele><time>2026-05-02T09:17:32Z</time></trkpt><trkpt lat="40.81194459389666" lon="8.449241977308294"><ele>75.0</ele><time>2026-05-02T09:17:33Z</time></trkpt><trkpt lat="40.812043361572464" lon="8.448965556216148"><ele>75.0</ele><time>2026-05-02T09:17:34Z</time></trkpt><trkpt lat="40.81213770202084" lon="8.448691662932223"><ele>75.66666666666667</ele><time>2026-05-02T09:17:35Z</time></trkpt><trkpt lat="40.81222856290084" lon="8.448419935265717"><ele>76.33333333333334</ele><time>2026-05-02T09:17:36Z</time></trkpt><trkpt lat="40.812316774809" lon="8.448152923064832"><ele>77.0</ele><time>2026-05-02T09:17:37Z</time></trkpt><trkpt lat="40.812406973303695" lon="8.447891323617897"><ele>77.0</ele><time>2026-05-02T09:17:38Z</time></trkpt><trkpt lat="40.81249608471244" lon="8.447634841836415"><ele>77.0</ele><time>2026-05-02T09:17:39Z</time></trkpt><trkpt lat="40.812583508512894" lon="8.447380710367284"><ele>77.0</ele><time>2026-05-02T09:17:40Z</time></trkpt><trkpt lat="40.81266827198828" lon="8.447124860768199"><ele>75.66666666666667</ele><time>2026-05-02T09:17:41Z</time></trkpt><trkpt lat="40.81275530315635" lon="8.446871351964655"><ele>74.33333333333333</ele><time>2026-05-02T09:17:42Z</time></trkpt><trkpt lat="40.81283946075275" lon="8.44661847987842"><ele>73.0</ele><time>2026-05-02T09:17:43Z</time></trkpt><trkpt lat="40.81292767942555" lon="8.446368963569434"><ele>72.66666666666666</ele><time>2026-05-02T09:17:44Z</time></trkpt><trkpt lat="40.81301390970973" lon="8.446118378289695"><ele>72.33333333333333</ele><time>2026-05-02T09:17:45Z</time></trkpt><trkpt lat="40.81310099528885" lon="8.445866355703789"><ele>72.0</ele><time>2026-05-02T09:17:46Z</time></trkpt><trkpt lat="40.81318721566765" lon="8.445609041227423"><ele>70.66666666666667</ele><time>2026-05-02T09:17:47Z</time></trkpt><trkpt lat="40.813276338462416" lon="8.44534701655044"><ele>69.33333333333334</ele><time>2026-05-02T09:17:48.001Z</time></trkpt><trkpt lat="40.81336577982908" lon="8.445079646903652"><ele>68.0</ele><time>2026-05-02T09:17:49.001Z</time></trkpt><trkpt lat="40.81345647996115" lon="8.444808125986238"><ele>67.0</ele><time>2026-05-02T09:17:50.001Z</time></trkpt><trkpt lat="40.81354672195824" lon="8.44453582779536"><ele>66.0</ele><time>2026-05-02T09:17:51.001Z</time></trkpt><trkpt lat="40.81363649718942" lon="8.444260397442529"><ele>66.0</ele><time>2026-05-02T09:17:52.001Z</time></trkpt><trkpt lat="40.81373108039537" lon="8.443987616575681"><ele>66.0</ele><time>2026-05-02T09:17:53.001Z</time></trkpt><trkpt lat="40.81382348774094" lon="8.443717942839337"><ele>66.33333333333333</ele><time>2026-05-02T09:17:54.001Z</time></trkpt><trkpt lat="40.81391372572776" lon="8.443449088467132"><ele>66.66666666666666</ele><time>2026-05-02T09:17:55.001Z</time></trkpt><trkpt lat="40.81400340043738" lon="8.44318250797649"><ele>67.0</ele><time>2026-05-02T09:17:56.001Z</time></trkpt><trkpt lat="40.81409308933315" lon="8.442916344298302"><ele>67.66666666666666</ele><time>2026-05-02T09:17:57.001Z</time></trkpt><trkpt lat="40.81418575616512" lon="8.442648557114895"><ele>68.33333333333333</ele><time>2026-05-02T09:17:58.001Z</time></trkpt><trkpt lat="40.814276246594716" lon="8.442381915952136"><ele>69.0</ele><time>2026-05-02T09:17:59.001Z</time></trkpt><trkpt lat="40.81436672714541" lon="8.442115002427757"><ele>69.0</ele><time>2026-05-02T09:18:00.001Z</time></trkpt><trkpt lat="40.81445827448322" lon="8.441846551104257"><ele>69.0</ele><time>2026-05-02T09:18:01.001Z</time></trkpt><trkpt lat="40.8145524223969" lon="8.441576030599785"><ele>69.0</ele><time>2026-05-02T09:18:02.001Z</time></trkpt><trkpt lat="40.814648061751704" lon="8.441294491532318"><ele>70.0</ele><time>2026-05-02T09:18:03.001Z</time></trkpt><trkpt lat="40.814744308613434" lon="8.441005047237345"><ele>71.0</ele><time>2026-05-02T09:18:04.001Z</time></trkpt><trkpt lat="40.814840340466766" lon="8.440713892548677"><ele>71.0</ele><time>2026-05-02T09:18:05.001Z</time></trkpt><trkpt lat="40.81493896328319" lon="8.440427729393557"><ele>71.0</ele><time>2026-05-02T09:18:06.001Z</time></trkpt><trkpt lat="40.81503930640534" lon="8.440140085103513"><ele>71.0</ele><time>2026-05-02T09:18:07.001Z</time></trkpt><trkpt lat="40.81513773459372" lon="8.439854289678369"><ele>71.0</ele><time>2026-05-02T09:18:08.001Z</time></trkpt><trkpt lat="40.81523139604123" lon="8.439555945569039"><ele>71.0</ele><time>2026-05-02T09:18:09.001Z</time></trkpt><trkpt lat="40.81531144085143" lon="8.439236072307612"><ele>71.0</ele><time>2026-05-02T09:18:10.001Z</time></trkpt><trkpt lat="40.81537231085116" lon="8.438901424316533"><ele>70.0</ele><time>2026-05-02T09:18:11.001Z</time></trkpt><trkpt lat="40.815430045089876" lon="8.438562483014762"><ele>69.0</ele><time>2026-05-02T09:18:12.001Z</time></trkpt><trkpt lat="40.81549144749412" lon="8.438224424903694"><ele>68.5</ele><time>2026-05-02T09:18:13.001Z</time></trkpt><trkpt lat="40.81555772665466" lon="8.437887116794972"><ele>68.0</ele><time>2026-05-02T09:18:14.001Z</time></trkpt><trkpt lat="40.815622775676644" lon="8.437551633544484"><ele>68.0</ele><time>2026-05-02T09:18:15.001Z</time></trkpt><trkpt lat="40.81568671388039" lon="8.437216616985719"><ele>68.0</ele><time>2026-05-02T09:18:16.001Z</time></trkpt><trkpt lat="40.815749746618984" lon="8.436880594701362"><ele>68.0</ele><time>2026-05-02T09:18:17.001Z</time></trkpt><trkpt lat="40.81581380618119" lon="8.436541640741718"><ele>68.0</ele><time>2026-05-02T09:18:18.001Z</time></trkpt><trkpt lat="40.81588111149895" lon="8.436200426061072"><ele>68.0</ele><time>2026-05-02T09:18:19.001Z</time></trkpt><trkpt lat="40.815947942335036" lon="8.43585455716597"><ele>68.0</ele><time>2026-05-02T09:18:20Z</time></trkpt><trkpt lat="40.81601409355513" lon="8.435506112050147"><ele>66.0</ele><time>2026-05-02T09:18:21Z</time></trkpt><trkpt lat="40.81607730433454" lon="8.435156461313003"><ele>64.0</ele><time>2026-05-02T09:18:22Z</time></trkpt><trkpt lat="40.81614128417109" lon="8.434805438009011"><ele>63.5</ele><time>2026-05-02T09:18:23Z</time></trkpt><trkpt lat="40.81620672950331" lon="8.434455440735613"><ele>63.0</ele><time>2026-05-02T09:18:24Z</time></trkpt><trkpt lat="40.816275002299996" lon="8.434104866042816"><ele>61.0</ele><time>2026-05-02T09:18:25Z</time></trkpt><trkpt lat="40.81634170546541" lon="8.433753592277636"><ele>59.0</ele><time>2026-05-02T09:18:26Z</time></trkpt><trkpt lat="40.816407836447084" lon="8.433404480009886"><ele>59.0</ele><time>2026-05-02T09:18:27Z</time></trkpt><trkpt lat="40.81647378157361" lon="8.433055725134865"><ele>59.0</ele><time>2026-05-02T09:18:28Z</time></trkpt><trkpt lat="40.816541338540354" lon="8.432708947870525"><ele>60.0</ele><time>2026-05-02T09:18:29Z</time></trkpt><trkpt lat="40.81660773575638" lon="8.432360793906767"><ele>61.0</ele><time>2026-05-02T09:18:30Z</time></trkpt><trkpt lat="40.816672758651045" lon="8.432014654710443"><ele>61.0</ele><time>2026-05-02T09:18:31Z</time></trkpt><trkpt lat="40.81673879787259" lon="8.4316684697039"><ele>61.0</ele><time>2026-05-02T09:18:32Z</time></trkpt><trkpt lat="40.81680144337151" lon="8.431323508952143"><ele>59.5</ele><time>2026-05-02T09:18:33Z</time></trkpt><trkpt lat="40.81686611757811" lon="8.43097712416568"><ele>58.0</ele><time>2026-05-02T09:18:34Z</time></trkpt><trkpt lat="40.81692970208381" lon="8.430631617920602"><ele>57.5</ele><time>2026-05-02T09:18:35Z</time></trkpt><trkpt lat="40.81699245590656" lon="8.430288263226611"><ele>57.0</ele><time>2026-05-02T09:18:36Z</time></trkpt><trkpt lat="40.817058235286886" lon="8.429946908435804"><ele>58.0</ele><time>2026-05-02T09:18:37Z</time></trkpt><trkpt lat="40.81712260895748" lon="8.429606298229135"><ele>59.0</ele><time>2026-05-02T09:18:38Z</time></trkpt><trkpt lat="40.817185420559" lon="8.42926414066834"><ele>59.0</ele><time>2026-05-02T09:18:39Z</time></trkpt><trkpt lat="40.81724128958704" lon="8.428922275996303"><ele>59.0</ele><time>2026-05-02T09:18:40Z</time></trkpt><trkpt lat="40.817312676292126" lon="8.428581524036906"><ele>59.0</ele><time>2026-05-02T09:18:41Z</time></trkpt><trkpt lat="40.81737695071951" lon="8.428243467251978"><ele>59.0</ele><time>2026-05-02T09:18:42Z</time></trkpt><trkpt lat="40.817442991509616" lon="8.427908040379197"><ele>58.0</ele><time>2026-05-02T09:18:43Z</time></trkpt><trkpt lat="40.8175017994663" lon="8.427589042264815"><ele>57.0</ele><time>2026-05-02T09:18:44Z</time></trkpt><trkpt lat="40.817559598357285" lon="8.42729134725053"><ele>56.33333333333333</ele><time>2026-05-02T09:18:45Z</time></trkpt><trkpt lat="40.81761294646114" lon="8.427000922636783"><ele>55.666666666666664</ele><time>2026-05-02T09:18:46Z</time></trkpt><trkpt lat="40.817671434105605" lon="8.426717378936246"><ele>55.0</ele><time>2026-05-02T09:18:47Z</time></trkpt><trkpt lat="40.817734179521565" lon="8.426454181044663"><ele>55.33333333333333</ele><time>2026-05-02T09:18:48Z</time></trkpt><trkpt lat="40.81780226707928" lon="8.426212512347137"><ele>55.66666666666667</ele><time>2026-05-02T09:18:49Z</time></trkpt><trkpt lat="40.81787764374411" lon="8.4259749597644"><ele>56.0</ele><time>2026-05-02T09:18:50Z</time></trkpt><trkpt lat="40.81796274465996" lon="8.42572883465478"><ele>56.0</ele><time>2026-05-02T09:18:51Z</time></trkpt><trkpt lat="40.818072716505974" lon="8.425483129291562"><ele>56.0</ele><time>2026-05-02T09:18:52Z</time></trkpt><trkpt lat="40.81820354750831" lon="8.425241569470485"><ele>56.0</ele><time>2026-05-02T09:18:53Z</time></trkpt><trkpt lat="40.81834849525498" lon="8.425003470315662"><ele>53.5</ele><time>2026-05-02T09:18:54Z</time></trkpt><trkpt lat="40.81849773143448" lon="8.424763540394977"><ele>51.0</ele><time>2026-05-02T09:18:55Z</time></trkpt><trkpt lat="40.81864706987255" lon="8.424525019707298"><ele>51.0</ele><time>2026-05-02T09:18:56Z</time></trkpt><trkpt lat="40.818786935897506" lon="8.424293416591915"><ele>51.0</ele><time>2026-05-02T09:18:57Z</time></trkpt><trkpt lat="40.81891214278666" lon="8.42407344830013"><ele>51.0</ele><time>2026-05-02T09:18:58Z</time></trkpt><trkpt lat="40.81903211982591" lon="8.423853099780269"><ele>51.0</ele><time>2026-05-02T09:18:59Z</time></trkpt><trkpt lat="40.81915056352057" lon="8.423626267814285"><ele>51.0</ele><time>2026-05-02T09:19:00Z</time></trkpt><trkpt lat="40.8192615527905" lon="8.423388135927599"><ele>51.0</ele><time>2026-05-02T09:19:01Z</time></trkpt><trkpt lat="40.819368724512316" lon="8.423136011244615"><ele>49.666666666666664</ele><time>2026-05-02T09:19:02Z</time></trkpt><trkpt lat="40.819466285340106" lon="8.42287506325601"><ele>48.33333333333333</ele><time>2026-05-02T09:19:03Z</time></trkpt><trkpt lat="40.819552621754745" lon="8.422609425432663"><ele>47.0</ele><time>2026-05-02T09:19:04Z</time></trkpt><trkpt lat="40.819634852783636" lon="8.422345964118726"><ele>46.666666666666664</ele><time>2026-05-02T09:19:05Z</time></trkpt><trkpt lat="40.8197135349024" lon="8.422085359171867"><ele>46.333333333333336</ele><time>2026-05-02T09:19:06Z</time></trkpt><trkpt lat="40.81978525359635" lon="8.42182908211216"><ele>46.0</ele><time>2026-05-02T09:19:07Z</time></trkpt><trkpt lat="40.819851956606776" lon="8.421585238641699"><ele>46.0</ele><time>2026-05-02T09:19:08Z</time></trkpt><trkpt lat="40.81991810288123" lon="8.421354985458981"><ele>46.0</ele><time>2026-05-02T09:19:09Z</time></trkpt><trkpt lat="40.81998308097162" lon="8.42113008877261"><ele>46.0</ele><time>2026-05-02T09:19:10Z</time></trkpt><trkpt lat="40.82004790463425" lon="8.42090784344256"><ele>45.66666666666667</ele><time>2026-05-02T09:19:11Z</time></trkpt><trkpt lat="40.82010853351768" lon="8.42069687914032"><ele>45.333333333333336</ele><time>2026-05-02T09:19:12Z</time></trkpt><trkpt lat="40.820167181054494" lon="8.420499792588068"><ele>45.0</ele><time>2026-05-02T09:19:13Z</time></trkpt><trkpt lat="40.820227616241844" lon="8.4203019531315"><ele>43.666666666666664</ele><time>2026-05-02T09:19:14Z</time></trkpt><trkpt lat="40.82028819620205" lon="8.420106498615995"><ele>42.33333333333333</ele><time>2026-05-02T09:19:15Z</time></trkpt><trkpt lat="40.82035059859011" lon="8.419919719970308"><ele>41.0</ele><time>2026-05-02T09:19:16Z</time></trkpt><trkpt lat="40.82041233328054" lon="8.4197437996916"><ele>40.75</ele><time>2026-05-02T09:19:17Z</time></trkpt><trkpt lat="40.82047617903294" lon="8.41957830583264"><ele>40.5</ele><time>2026-05-02T09:19:18Z</time></trkpt><trkpt lat="40.82054559194119" lon="8.41941472731008"><ele>40.25</ele><time>2026-05-02T09:19:19Z</time></trkpt><trkpt lat="40.820620744961786" lon="8.419243565468047"><ele>40.0</ele><time>2026-05-02T09:19:20Z</time></trkpt><trkpt lat="40.82070091663444" lon="8.41907275347614"><ele>40.0</ele><time>2026-05-02T09:19:21Z</time></trkpt><trkpt lat="40.82077715408844" lon="8.418917955111148"><ele>40.0</ele><time>2026-05-02T09:19:22Z</time></trkpt><trkpt lat="40.82085275514828" lon="8.418772698940769"><ele>40.0</ele><time>2026-05-02T09:19:23Z</time></trkpt><trkpt lat="40.82093037428189" lon="8.418630132258413"><ele>40.0</ele><time>2026-05-02T09:19:24Z</time></trkpt><trkpt lat="40.82100804961973" lon="8.418491668538259"><ele>39.2</ele><time>2026-05-02T09:19:25Z</time></trkpt><trkpt lat="40.821085120334864" lon="8.418363649257435"><ele>38.4</ele><time>2026-05-02T09:19:26Z</time></trkpt><trkpt lat="40.82115944908481" lon="8.418258732432863"><ele>37.6</ele><time>2026-05-02T09:19:27Z</time></trkpt><trkpt lat="40.8212385147281" lon="8.41817955070083"><ele>36.8</ele><time>2026-05-02T09:19:28Z</time></trkpt><trkpt lat="40.82132960556517" lon="8.418113364825196"><ele>36.0</ele><time>2026-05-02T09:19:29Z</time></trkpt><trkpt lat="40.82142245750674" lon="8.41806837938707"><ele>36.0</ele><time>2026-05-02T09:19:30Z</time></trkpt><trkpt lat="40.821505478108975" lon="8.418013658768343"><ele>36.0</ele><time>2026-05-02T09:19:31Z</time></trkpt><trkpt lat="40.82156797233361" lon="8.417946447708516"><ele>36.0</ele><time>2026-05-02T09:19:32Z</time></trkpt><trkpt lat="40.8215999175143" lon="8.417857603104695"><ele>36.0</ele><time>2026-05-02T09:19:33Z</time></trkpt><trkpt lat="40.82161978947853" lon="8.41775972963019"><ele>36.0</ele><time>2026-05-02T09:19:34Z</time></trkpt><trkpt lat="40.82163821126566" lon="8.41764529704833"><ele>36.0</ele><time>2026-05-02T09:19:35Z</time></trkpt><trkpt lat="40.82167179649218" lon="8.417513861023977"><ele>36.25</ele><time>2026-05-02T09:19:36Z</time></trkpt><trkpt lat="40.821731171313424" lon="8.417374823528919"><ele>36.5</ele><time>2026-05-02T09:19:37Z</time></trkpt><trkpt lat="40.82181164042651" lon="8.41722700918336"><ele>36.75</ele><time>2026-05-02T09:19:38Z</time></trkpt><trkpt lat="40.821909456379736" lon="8.417069427147513"><ele>37.0</ele><time>2026-05-02T09:19:39Z</time></trkpt><trkpt lat="40.82201975362485" lon="8.416901006650514"><ele>35.66666666666667</ele><time>2026-05-02T09:19:40Z</time></trkpt><trkpt lat="40.8221392281138" lon="8.416721127036757"><ele>34.333333333333336</ele><time>2026-05-02T09:19:41Z</time></trkpt><trkpt lat="40.82227223904255" lon="8.416518578442927"><ele>33.0</ele><time>2026-05-02T09:19:42Z</time></trkpt><trkpt lat="40.822412416402365" lon="8.416307028338815"><ele>32.666666666666664</ele><time>2026-05-02T09:19:43Z</time></trkpt><trkpt lat="40.82255175807264" lon="8.416106333501519"><ele>32.33333333333333</ele><time>2026-05-02T09:19:44Z</time></trkpt><trkpt lat="40.82268397173582" lon="8.41592020823793"><ele>32.0</ele><time>2026-05-02T09:19:45Z</time></trkpt><trkpt lat="40.82280510426287" lon="8.415747196361014"><ele>31.25</ele><time>2026-05-02T09:19:46Z</time></trkpt><trkpt lat="40.82290982265455" lon="8.415594396037049"><ele>30.5</ele><time>2026-05-02T09:19:47Z</time></trkpt><trkpt lat="40.823008217052845" lon="8.415449677569368"><ele>29.75</ele><time>2026-05-02T09:19:48Z</time></trkpt><trkpt lat="40.82309820552472" lon="8.415314849140316"><ele>29.0</ele><time>2026-05-02T09:19:49Z</time></trkpt><trkpt lat="40.82318042205156" lon="8.415187459527386"><ele>28.799999999999997</ele><time>2026-05-02T09:19:50Z</time></trkpt><trkpt lat="40.8232504508912" lon="8.415081556081358"><ele>28.599999999999998</ele><time>2026-05-02T09:19:51Z</time></trkpt><trkpt lat="40.82330671222321" lon="8.414996136108064"><ele>28.4</ele><time>2026-05-02T09:19:52Z</time></trkpt><trkpt lat="40.82334957243825" lon="8.414921102360434"><ele>28.2</ele><time>2026-05-02T09:19:53Z</time></trkpt><trkpt lat="40.82340738242827" lon="8.414812410732313"><ele>28.0</ele><time>2026-05-02T09:19:55.001Z</time></trkpt><trkpt lat="40.82346282596284" lon="8.414691295452268"><ele>28.000000000000004</ele><time>2026-05-02T09:19:57.001Z</time></trkpt><trkpt lat="40.82350510299845" lon="8.414624687260819"><ele>28.0</ele><time>2026-05-02T09:19:58.001Z</time></trkpt><trkpt lat="40.823598132132155" lon="8.41451544735745"><ele>28.0</ele><time>2026-05-02T09:20:00.001Z</time></trkpt><trkpt lat="40.82364790120368" lon="8.41445465651252"><ele>28.0</ele><time>2026-05-02T09:20:01.001Z</time></trkpt><trkpt lat="40.82368872311233" lon="8.414374376173145"><ele>28.000000000000004</ele><time>2026-05-02T09:20:02.001Z</time></trkpt><trkpt lat="40.82370164751194" lon="8.414276762604226"><ele>28.0</ele><time>2026-05-02T09:20:03.001Z</time></trkpt><trkpt lat="40.82367955002756" lon="8.414171008553536"><ele>28.0</ele><time>2026-05-02T09:20:04.001Z</time></trkpt><trkpt lat="40.82362628336961" lon="8.41409081010495"><ele>27.999999999999996</ele><time>2026-05-02T09:20:05.001Z</time></trkpt><trkpt lat="40.823557292574336" lon="8.41402513791428"><ele>27.999999999999996</ele><time>2026-05-02T09:20:06.001Z</time></trkpt><trkpt lat="40.82348048869272" lon="8.413948958077658"><ele>28.0</ele><time>2026-05-02T09:20:07.001Z</time></trkpt><trkpt lat="40.82342928503719" lon="8.413833692075157"><ele>28.0</ele><time>2026-05-02T09:20:08.001Z</time></trkpt><trkpt lat="40.82339677775829" lon="8.413701547786404"><ele>28.0</ele><time>2026-05-02T09:20:09.001Z</time></trkpt><trkpt lat="40.82335460125087" lon="8.413554677184914"><ele>28.0</ele><time>2026-05-02T09:20:10.001Z</time></trkpt><trkpt lat="40.82332119672751" lon="8.41338219126349"><ele>28.0</ele><time>2026-05-02T09:20:11.001Z</time></trkpt><trkpt lat="40.82327519627474" lon="8.413201266904686"><ele>28.0</ele><time>2026-05-02T09:20:12.001Z</time></trkpt><trkpt lat="40.823233978273365" lon="8.413026510460238"><ele>27.75</ele><time>2026-05-02T09:20:13.001Z</time></trkpt><trkpt lat="40.82320684100415" lon="8.41284490486555"><ele>27.5</ele><time>2026-05-02T09:20:14.001Z</time></trkpt><trkpt lat="40.82319918359353" lon="8.412666367639522"><ele>27.25</ele><time>2026-05-02T09:20:15.001Z</time></trkpt><trkpt lat="40.82320569438472" lon="8.41248432025874"><ele>27.0</ele><time>2026-05-02T09:20:16.001Z</time></trkpt><trkpt lat="40.82322803254163" lon="8.412294295281354"><ele>26.0</ele><time>2026-05-02T09:20:17.001Z</time></trkpt><trkpt lat="40.82327084281907" lon="8.412089514178389"><ele>25.0</ele><time>2026-05-02T09:20:18.001Z</time></trkpt><trkpt lat="40.823334628619214" lon="8.411876761059188"><ele>24.0</ele><time>2026-05-02T09:20:19.001Z</time></trkpt><trkpt lat="40.82336040533689" lon="8.411674760719622"><ele>24.0</ele><time>2026-05-02T09:20:20.001Z</time></trkpt><trkpt lat="40.823442722945195" lon="8.411465066885933"><ele>24.0</ele><time>2026-05-02T09:20:21.001Z</time></trkpt><trkpt lat="40.82355140507022" lon="8.411272126273582"><ele>24.0</ele><time>2026-05-02T09:20:22Z</time></trkpt><trkpt lat="40.823677347681205" lon="8.411068690773547"><ele>23.666666666666668</ele><time>2026-05-02T09:20:23Z</time></trkpt><trkpt lat="40.82381060220503" lon="8.410855289892654"><ele>23.333333333333336</ele><time>2026-05-02T09:20:24Z</time></trkpt><trkpt lat="40.823947177609746" lon="8.410632494619165"><ele>23.0</ele><time>2026-05-02T09:20:25Z</time></trkpt><trkpt lat="40.82408312632421" lon="8.410393293214632"><ele>23.0</ele><time>2026-05-02T09:20:26Z</time></trkpt><trkpt lat="40.82423363474843" lon="8.41016187892065"><ele>23.0</ele><time>2026-05-02T09:20:27Z</time></trkpt><trkpt lat="40.824373129598676" lon="8.409949999696062"><ele>23.0</ele><time>2026-05-02T09:20:28Z</time></trkpt><trkpt lat="40.82450226066993" lon="8.409752179961087"><ele>22.0</ele><time>2026-05-02T09:20:29Z</time></trkpt><trkpt lat="40.824625134704405" lon="8.409563572225027"><ele>21.0</ele><time>2026-05-02T09:20:30Z</time></trkpt><trkpt lat="40.82474478406232" lon="8.409374598710595"><ele>20.0</ele><time>2026-05-02T09:20:31Z</time></trkpt><trkpt lat="40.82487019348969" lon="8.409173778613283"><ele>20.0</ele><time>2026-05-02T09:20:32Z</time></trkpt><trkpt lat="40.82499968569254" lon="8.408965959771184"><ele>20.0</ele><time>2026-05-02T09:20:33Z</time></trkpt><trkpt lat="40.825131664947286" lon="8.408753974785824"><ele>20.0</ele><time>2026-05-02T09:20:34Z</time></trkpt><trkpt lat="40.82526452208676" lon="8.40853656228693"><ele>21.0</ele><time>2026-05-02T09:20:35Z</time></trkpt><trkpt lat="40.82540220739919" lon="8.408312456706524"><ele>22.0</ele><time>2026-05-02T09:20:36Z</time></trkpt><trkpt lat="40.82554178600611" lon="8.408089509812699"><ele>23.0</ele><time>2026-05-02T09:20:37Z</time></trkpt><trkpt lat="40.82568553594444" lon="8.407867340714915"><ele>23.0</ele><time>2026-05-02T09:20:38Z</time></trkpt><trkpt lat="40.825826709343424" lon="8.407638097599191"><ele>23.0</ele><time>2026-05-02T09:20:39Z</time></trkpt><trkpt lat="40.82596481537294" lon="8.407414677865745"><ele>23.0</ele><time>2026-05-02T09:20:40Z</time></trkpt><trkpt lat="40.82608718577798" lon="8.407215076727411"><ele>23.666666666666668</ele><time>2026-05-02T09:20:41Z</time></trkpt><trkpt lat="40.82620723827528" lon="8.407023820954555"><ele>24.333333333333336</ele><time>2026-05-02T09:20:42Z</time></trkpt><trkpt lat="40.82633658986442" lon="8.406825182731824"><ele>25.0</ele><time>2026-05-02T09:20:43Z</time></trkpt><trkpt lat="40.82646865197836" lon="8.406619757774418"><ele>25.0</ele><time>2026-05-02T09:20:44Z</time></trkpt><trkpt lat="40.826602813057214" lon="8.40640000509475"><ele>25.0</ele><time>2026-05-02T09:20:45Z</time></trkpt><trkpt lat="40.82673870341626" lon="8.406173739112143"><ele>25.0</ele><time>2026-05-02T09:20:46Z</time></trkpt><trkpt lat="40.82687559546416" lon="8.405941836154888"><ele>25.0</ele><time>2026-05-02T09:20:47Z</time></trkpt><trkpt lat="40.82701379418124" lon="8.405701503275367"><ele>25.0</ele><time>2026-05-02T09:20:48Z</time></trkpt><trkpt lat="40.82714913623947" lon="8.405448054521074"><ele>25.0</ele><time>2026-05-02T09:20:49Z</time></trkpt><trkpt lat="40.827280840597055" lon="8.40518483016542"><ele>25.0</ele><time>2026-05-02T09:20:50Z</time></trkpt><trkpt lat="40.827410149563335" lon="8.404915248408477"><ele>23.666666666666668</ele><time>2026-05-02T09:20:51Z</time></trkpt><trkpt lat="40.827523008172335" lon="8.404656016240589"><ele>22.333333333333336</ele><time>2026-05-02T09:20:52Z</time></trkpt><trkpt lat="40.827619758768094" lon="8.404408211048203"><ele>21.0</ele><time>2026-05-02T09:20:53Z</time></trkpt><trkpt lat="40.82770810609723" lon="8.404167447659006"><ele>20.666666666666668</ele><time>2026-05-02T09:20:54Z</time></trkpt><trkpt lat="40.82779560353631" lon="8.40392875160291"><ele>20.333333333333336</ele><time>2026-05-02T09:20:55Z</time></trkpt><trkpt lat="40.827878466095584" lon="8.403686085551328"><ele>20.0</ele><time>2026-05-02T09:20:56Z</time></trkpt><trkpt lat="40.82795715339861" lon="8.403433650676845"><ele>19.333333333333336</ele><time>2026-05-02T09:20:57Z</time></trkpt><trkpt lat="40.8280334481331" lon="8.40317736225033"><ele>18.666666666666668</ele><time>2026-05-02T09:20:58Z</time></trkpt><trkpt lat="40.82810364955371" lon="8.402918503229523"><ele>18.0</ele><time>2026-05-02T09:20:59Z</time></trkpt><trkpt lat="40.82816691950832" lon="8.402662797124233"><ele>17.666666666666668</ele><time>2026-05-02T09:21:00Z</time></trkpt><trkpt lat="40.82822593925139" lon="8.402404533820985"><ele>17.333333333333336</ele><time>2026-05-02T09:21:01Z</time></trkpt><trkpt lat="40.8282808590363" lon="8.40214266445266"><ele>17.0</ele><time>2026-05-02T09:21:02Z</time></trkpt><trkpt lat="40.82833502431465" lon="8.401876562790129"><ele>15.666666666666668</ele><time>2026-05-02T09:21:03Z</time></trkpt><trkpt lat="40.82838891781819" lon="8.401607822665552"><ele>14.333333333333332</ele><time>2026-05-02T09:21:04Z</time></trkpt><trkpt lat="40.82844076040194" lon="8.401338646992023"><ele>13.0</ele><time>2026-05-02T09:21:05Z</time></trkpt><trkpt lat="40.82849146613172" lon="8.401070832506548"><ele>12.666666666666666</ele><time>2026-05-02T09:21:06Z</time></trkpt><trkpt lat="40.82854060344364" lon="8.400802889849947"><ele>12.333333333333332</ele><time>2026-05-02T09:21:07Z</time></trkpt><trkpt lat="40.82858994171009" lon="8.400534055819232"><ele>12.0</ele><time>2026-05-02T09:21:08Z</time></trkpt><trkpt lat="40.828637686296034" lon="8.400265011634218"><ele>11.333333333333334</ele><time>2026-05-02T09:21:09Z</time></trkpt><trkpt lat="40.82868391886079" lon="8.399997100163148"><ele>10.666666666666668</ele><time>2026-05-02T09:21:10Z</time></trkpt><trkpt lat="40.82873111457186" lon="8.399735086426698"><ele>10.0</ele><time>2026-05-02T09:21:11Z</time></trkpt><trkpt lat="40.828781669042954" lon="8.399473108516432"><ele>10.0</ele><time>2026-05-02T09:21:12Z</time></trkpt><trkpt lat="40.82883317881424" lon="8.39920332104962"><ele>10.0</ele><time>2026-05-02T09:21:13Z</time></trkpt><trkpt lat="40.82888428268218" lon="8.398925535770475"><ele>10.0</ele><time>2026-05-02T09:21:14Z</time></trkpt><trkpt lat="40.8289520990887" lon="8.398638778617592"><ele>10.5</ele><time>2026-05-02T09:21:15Z</time></trkpt><trkpt lat="40.829010493011424" lon="8.398333443428484"><ele>11.0</ele><time>2026-05-02T09:21:16Z</time></trkpt><trkpt lat="40.82906472004468" lon="8.398020666593697"><ele>10.666666666666666</ele><time>2026-05-02T09:21:17Z</time></trkpt><trkpt lat="40.829140845366574" lon="8.397737069137575"><ele>10.333333333333334</ele><time>2026-05-02T09:21:18Z</time></trkpt><trkpt lat="40.82921772183064" lon="8.397474402983837"><ele>10.0</ele><time>2026-05-02T09:21:19Z</time></trkpt><trkpt lat="40.82930252929148" lon="8.397218070079253"><ele>11.666666666666668</ele><time>2026-05-02T09:21:20Z</time></trkpt><trkpt lat="40.82939963787184" lon="8.396962169824162"><ele>13.333333333333334</ele><time>2026-05-02T09:21:21Z</time></trkpt><trkpt lat="40.82951041671473" lon="8.396710590975816"><ele>15.0</ele><time>2026-05-02T09:21:22Z</time></trkpt><trkpt lat="40.82963380514519" lon="8.39647060535956"><ele>13.0</ele><time>2026-05-02T09:21:23Z</time></trkpt><trkpt lat="40.829753259100094" lon="8.396245306202992"><ele>11.0</ele><time>2026-05-02T09:21:24Z</time></trkpt><trkpt lat="40.82986336887146" lon="8.396038184653971"><ele>9.0</ele><time>2026-05-02T09:21:25Z</time></trkpt><trkpt lat="40.829971812459505" lon="8.395828639600738"><ele>9.0</ele><time>2026-05-02T09:21:26Z</time></trkpt><trkpt lat="40.830090273066205" lon="8.395602249347679"><ele>9.0</ele><time>2026-05-02T09:21:27Z</time></trkpt><trkpt lat="40.830215407844854" lon="8.395371141083288"><ele>9.0</ele><time>2026-05-02T09:21:28Z</time></trkpt><trkpt lat="40.83035103025987" lon="8.395132390582674"><ele>8.333333333333334</ele><time>2026-05-02T09:21:29Z</time></trkpt><trkpt lat="40.8304834076885" lon="8.394892589597672"><ele>7.666666666666667</ele><time>2026-05-02T09:21:30Z</time></trkpt><trkpt lat="40.830614058731996" lon="8.394652206937883"><ele>7.0</ele><time>2026-05-02T09:21:31Z</time></trkpt><trkpt lat="40.83073990325341" lon="8.394417135398054"><ele>7.0</ele><time>2026-05-02T09:21:32Z</time></trkpt><trkpt lat="40.83086084932356" lon="8.394190414801118"><ele>7.0</ele><time>2026-05-02T09:21:33Z</time></trkpt><trkpt lat="40.83097803462012" lon="8.39396739728068"><ele>7.0</ele><time>2026-05-02T09:21:34Z</time></trkpt><trkpt lat="40.831094169445265" lon="8.393744820939695"><ele>10.0</ele><time>2026-05-02T09:21:35Z</time></trkpt><trkpt lat="40.83120827746299" lon="8.393525168273053"><ele>13.0</ele><time>2026-05-02T09:21:36Z</time></trkpt><trkpt lat="40.83132242311155" lon="8.39330841505556"><ele>16.0</ele><time>2026-05-02T09:21:37Z</time></trkpt><trkpt lat="40.83143675443264" lon="8.39309526220308"><ele>16.333333333333332</ele><time>2026-05-02T09:21:38Z</time></trkpt><trkpt lat="40.83154893535906" lon="8.392882559015007"><ele>16.666666666666668</ele><time>2026-05-02T09:21:39Z</time></trkpt><trkpt lat="40.83166158493892" lon="8.39266983174531"><ele>17.0</ele><time>2026-05-02T09:21:40Z</time></trkpt><trkpt lat="40.83177230803969" lon="8.392458443588525"><ele>17.666666666666668</ele><time>2026-05-02T09:21:41Z</time></trkpt><trkpt lat="40.831885582678645" lon="8.392246686408916"><ele>18.333333333333332</ele><time>2026-05-02T09:21:42Z</time></trkpt><trkpt lat="40.83200140628823" lon="8.392032665981842"><ele>19.0</ele><time>2026-05-02T09:21:43Z</time></trkpt><trkpt lat="40.83211890202849" lon="8.391814516572145"><ele>19.333333333333332</ele><time>2026-05-02T09:21:44Z</time></trkpt><trkpt lat="40.83223436542969" lon="8.391598911972132"><ele>19.666666666666668</ele><time>2026-05-02T09:21:45Z</time></trkpt><trkpt lat="40.832344800606506" lon="8.391387869070382"><ele>20.0</ele><time>2026-05-02T09:21:46Z</time></trkpt><trkpt lat="40.832459645812854" lon="8.391185458492712"><ele>20.333333333333336</ele><time>2026-05-02T09:21:47Z</time></trkpt><trkpt lat="40.832572386933805" lon="8.390986991122459"><ele>20.666666666666668</ele><time>2026-05-02T09:21:48Z</time></trkpt><trkpt lat="40.832681530803754" lon="8.39079920093271"><ele>21.0</ele><time>2026-05-02T09:21:49Z</time></trkpt><trkpt lat="40.83278899861113" lon="8.390622379810798"><ele>21.25</ele><time>2026-05-02T09:21:50Z</time></trkpt><trkpt lat="40.83288976758057" lon="8.390482655342856"><ele>21.5</ele><time>2026-05-02T09:21:51Z</time></trkpt><trkpt lat="40.8329850938075" lon="8.390338357301935"><ele>21.75</ele><time>2026-05-02T09:21:52Z</time></trkpt><trkpt lat="40.8330833409243" lon="8.390202405198202"><ele>22.0</ele><time>2026-05-02T09:21:53Z</time></trkpt><trkpt lat="40.83319072755827" lon="8.390069082775668"><ele>22.0</ele><time>2026-05-02T09:21:54Z</time></trkpt><trkpt lat="40.83330677617879" lon="8.38994497169607"><ele>22.0</ele><time>2026-05-02T09:21:55Z</time></trkpt><trkpt lat="40.83356043990555" lon="8.389750147851661"><ele>22.0</ele><time>2026-05-02T09:21:57Z</time></trkpt><trkpt lat="40.833689656106884" lon="8.389724496273908"><ele>21.75</ele><time>2026-05-02T09:21:58Z</time></trkpt><trkpt lat="40.83380867554574" lon="8.389761932306012"><ele>21.5</ele><time>2026-05-02T09:21:59Z</time></trkpt><trkpt lat="40.83392383262793" lon="8.389834169467743"><ele>21.25</ele><time>2026-05-02T09:22:00.001Z</time></trkpt><trkpt lat="40.83402670907128" lon="8.389949280214642"><ele>21.0</ele><time>2026-05-02T09:22:01.001Z</time></trkpt><trkpt lat="40.834111472906095" lon="8.390105598494769"><ele>21.0</ele><time>2026-05-02T09:22:02.001Z</time></trkpt><trkpt lat="40.8341673365048" lon="8.390289770751956"><ele>21.0</ele><time>2026-05-02T09:22:03.001Z</time></trkpt><trkpt lat="40.8341830140166" lon="8.390491298723509"><ele>21.0</ele><time>2026-05-02T09:22:04.001Z</time></trkpt><trkpt lat="40.8341551214547" lon="8.390686956364796"><ele>20.666666666666668</ele><time>2026-05-02T09:22:05.001Z</time></trkpt><trkpt lat="40.83409379124807" lon="8.390869234721277"><ele>20.333333333333336</ele><time>2026-05-02T09:22:06.001Z</time></trkpt><trkpt lat="40.83398267107779" lon="8.391018001981168"><ele>20.0</ele><time>2026-05-02T09:22:07.001Z</time></trkpt><trkpt lat="40.833841860816804" lon="8.391129190228531"><ele>20.0</ele><time>2026-05-02T09:22:08.001Z</time></trkpt><trkpt lat="40.833683914874804" lon="8.391158221832423"><ele>20.0</ele><time>2026-05-02T09:22:09.001Z</time></trkpt><trkpt lat="40.83350303437406" lon="8.391169953150369"><ele>20.0</ele><time>2026-05-02T09:22:10.001Z</time></trkpt><trkpt lat="40.833295247788314" lon="8.391145169026005"><ele>20.5</ele><time>2026-05-02T09:22:11.001Z</time></trkpt><trkpt lat="40.83307381239602" lon="8.391107801445814"><ele>21.0</ele><time>2026-05-02T09:22:12.001Z</time></trkpt><trkpt lat="40.832844242964036" lon="8.391064233551994"><ele>21.5</ele><time>2026-05-02T09:22:13.001Z</time></trkpt><trkpt lat="40.832601053793" lon="8.39101627591535"><ele>22.0</ele><time>2026-05-02T09:22:14.001Z</time></trkpt><trkpt lat="40.832342643822415" lon="8.390968611033394"><ele>22.0</ele><time>2026-05-02T09:22:15.001Z</time></trkpt><trkpt lat="40.83207397821713" lon="8.390924353370137"><ele>22.0</ele><time>2026-05-02T09:22:16.001Z</time></trkpt><trkpt lat="40.83179636871236" lon="8.390881978285131"><ele>22.5</ele><time>2026-05-02T09:22:17.001Z</time></trkpt><trkpt lat="40.83151543923114" lon="8.390836756165138"><ele>23.0</ele><time>2026-05-02T09:22:18.001Z</time></trkpt><trkpt lat="40.83123976652172" lon="8.390789608057728"><ele>22.5</ele><time>2026-05-02T09:22:19.001Z</time></trkpt><trkpt lat="40.830971847039194" lon="8.39074422400564"><ele>22.0</ele><time>2026-05-02T09:22:20.001Z</time></trkpt><trkpt lat="40.83070997562159" lon="8.390700192295725"><ele>22.0</ele><time>2026-05-02T09:22:21.001Z</time></trkpt><trkpt lat="40.830449468414386" lon="8.390655613352033"><ele>22.0</ele><time>2026-05-02T09:22:22Z</time></trkpt><trkpt lat="40.830192534579396" lon="8.390607886855781"><ele>21.5</ele><time>2026-05-02T09:22:23Z</time></trkpt><trkpt lat="40.82993864185988" lon="8.390551008213363"><ele>21.0</ele><time>2026-05-02T09:22:24Z</time></trkpt><trkpt lat="40.82968523020721" lon="8.390487799560992"><ele>22.5</ele><time>2026-05-02T09:22:25Z</time></trkpt><trkpt lat="40.8294316480805" lon="8.390405314694656"><ele>24.0</ele><time>2026-05-02T09:22:26Z</time></trkpt><trkpt lat="40.82917582731841" lon="8.390315281422694"><ele>24.5</ele><time>2026-05-02T09:22:27Z</time></trkpt><trkpt lat="40.82891487166171" lon="8.390215356719205"><ele>25.0</ele><time>2026-05-02T09:22:28Z</time></trkpt><trkpt lat="40.828652924136506" lon="8.390108025623075"><ele>25.5</ele><time>2026-05-02T09:22:29Z</time></trkpt><trkpt lat="40.82838793090231" lon="8.389993676727405"><ele>26.0</ele><time>2026-05-02T09:22:30Z</time></trkpt><trkpt lat="40.82812217828018" lon="8.389869255260754"><ele>26.0</ele><time>2026-05-02T09:22:31Z</time></trkpt><trkpt lat="40.82785275616725" lon="8.389737624243839"><ele>26.0</ele><time>2026-05-02T09:22:31.999Z</time></trkpt><trkpt lat="40.827579749232406" lon="8.389601184360252"><ele>25.5</ele><time>2026-05-02T09:22:32.999Z</time></trkpt><trkpt lat="40.827304246003585" lon="8.389465871663596"><ele>25.0</ele><time>2026-05-02T09:22:33.999Z</time></trkpt><trkpt lat="40.827027487982996" lon="8.389327167788512"><ele>23.0</ele><time>2026-05-02T09:22:34.999Z</time></trkpt><trkpt lat="40.8267499600607" lon="8.38918680917892"><ele>21.0</ele><time>2026-05-02T09:22:35.999Z</time></trkpt><trkpt lat="40.82647068900728" lon="8.389045073087313"><ele>21.0</ele><time>2026-05-02T09:22:36.999Z</time></trkpt><trkpt lat="40.826190148044134" lon="8.388902953230636"><ele>21.0</ele><time>2026-05-02T09:22:37.999Z</time></trkpt><trkpt lat="40.82590930692524" lon="8.388763347025249"><ele>20.0</ele><time>2026-05-02T09:22:38.999Z</time></trkpt><trkpt lat="40.825629717618824" lon="8.38862232195902"><ele>19.0</ele><time>2026-05-02T09:22:39.999Z</time></trkpt><trkpt lat="40.82535299231605" lon="8.388479352237226"><ele>18.5</ele><time>2026-05-02T09:22:40.999Z</time></trkpt><trkpt lat="40.825072904665454" lon="8.388339882910469"><ele>18.0</ele><time>2026-05-02T09:22:41.999Z</time></trkpt><trkpt lat="40.824795076746895" lon="8.388202877834926"><ele>18.0</ele><time>2026-05-02T09:22:42.999Z</time></trkpt><trkpt lat="40.82451306485538" lon="8.38805890741649"><ele>18.0</ele><time>2026-05-02T09:22:43.999Z</time></trkpt><trkpt lat="40.824233484865466" lon="8.387922632205195"><ele>17.5</ele><time>2026-05-02T09:22:44.999Z</time></trkpt><trkpt lat="40.82395152336254" lon="8.387782920758427"><ele>17.0</ele><time>2026-05-02T09:22:45.999Z</time></trkpt><trkpt lat="40.823668726685014" lon="8.38764604131579"><ele>16.0</ele><time>2026-05-02T09:22:46.999Z</time></trkpt><trkpt lat="40.82339129212319" lon="8.387505279137352"><ele>15.0</ele><time>2026-05-02T09:22:47.999Z</time></trkpt><trkpt lat="40.82311224180091" lon="8.387361473811032"><ele>15.0</ele><time>2026-05-02T09:22:48.999Z</time></trkpt><trkpt lat="40.822834109627536" lon="8.387219466039138"><ele>15.0</ele><time>2026-05-02T09:22:49.999Z</time></trkpt><trkpt lat="40.822556103300975" lon="8.387077712848567"><ele>18.0</ele><time>2026-05-02T09:22:50.999Z</time></trkpt><trkpt lat="40.82227712192104" lon="8.386935876157205"><ele>21.0</ele><time>2026-05-02T09:22:51.999Z</time></trkpt><trkpt lat="40.821996709370346" lon="8.38679484017538"><ele>19.5</ele><time>2026-05-02T09:22:52.999Z</time></trkpt><trkpt lat="40.82171084067483" lon="8.386659816489296"><ele>18.0</ele><time>2026-05-02T09:22:53.999Z</time></trkpt><trkpt lat="40.821442001170176" lon="8.386519392075126"><ele>18.0</ele><time>2026-05-02T09:22:54.999Z</time></trkpt><trkpt lat="40.82115871798244" lon="8.386381412142713"><ele>18.0</ele><time>2026-05-02T09:22:55.999Z</time></trkpt><trkpt lat="40.82088156724693" lon="8.386242642238699"><ele>18.0</ele><time>2026-05-02T09:22:56.999Z</time></trkpt><trkpt lat="40.820607504006844" lon="8.386107193676711"><ele>18.0</ele><time>2026-05-02T09:22:57.999Z</time></trkpt><trkpt lat="40.82033024650912" lon="8.385962316590284"><ele>16.5</ele><time>2026-05-02T09:22:58.999Z</time></trkpt><trkpt lat="40.82005793618842" lon="8.38582550581397"><ele>15.0</ele><time>2026-05-02T09:22:59.999Z</time></trkpt><trkpt lat="40.81978599938869" lon="8.385688684005068"><ele>15.0</ele><time>2026-05-02T09:23:00.999Z</time></trkpt><trkpt lat="40.81951647502775" lon="8.385553021380655"><ele>15.0</ele><time>2026-05-02T09:23:01.999Z</time></trkpt><trkpt lat="40.81924945821682" lon="8.385416922128766"><ele>17.5</ele><time>2026-05-02T09:23:02.999Z</time></trkpt><trkpt lat="40.81898515288739" lon="8.385281240730896"><ele>20.0</ele><time>2026-05-02T09:23:03.999Z</time></trkpt><trkpt lat="40.81872760287105" lon="8.385150993985642"><ele>20.0</ele><time>2026-05-02T09:23:04.999Z</time></trkpt><trkpt lat="40.818484653307145" lon="8.385028485540088"><ele>20.0</ele><time>2026-05-02T09:23:05.999Z</time></trkpt><trkpt lat="40.81824834282252" lon="8.38490632553435"><ele>19.5</ele><time>2026-05-02T09:23:06.999Z</time></trkpt><trkpt lat="40.81801828622015" lon="8.384789990711553"><ele>19.0</ele><time>2026-05-02T09:23:07.999Z</time></trkpt><trkpt lat="40.81780133324907" lon="8.38467510240934"><ele>18.666666666666664</ele><time>2026-05-02T09:23:08.999Z</time></trkpt><trkpt lat="40.817596028941814" lon="8.384564375619174"><ele>18.333333333333332</ele><time>2026-05-02T09:23:09.999Z</time></trkpt><trkpt lat="40.81740266797864" lon="8.384455162367791"><ele>18.0</ele><time>2026-05-02T09:23:10.999Z</time></trkpt><trkpt lat="40.8172248037298" lon="8.38431887103007"><ele>18.0</ele><time>2026-05-02T09:23:11.999Z</time></trkpt><trkpt lat="40.817052169665615" lon="8.384180221778939"><ele>18.0</ele><time>2026-05-02T09:23:12.999Z</time></trkpt><trkpt lat="40.81687631216257" lon="8.384028091185035"><ele>18.0</ele><time>2026-05-02T09:23:13.999Z</time></trkpt><trkpt lat="40.81671705186216" lon="8.38383323237392"><ele>16.666666666666668</ele><time>2026-05-02T09:23:14.999Z</time></trkpt><trkpt lat="40.81653757214406" lon="8.383672730096078"><ele>15.333333333333334</ele><time>2026-05-02T09:23:15.999Z</time></trkpt><trkpt lat="40.81638481901567" lon="8.383494736107451"><ele>14.0</ele><time>2026-05-02T09:23:16.999Z</time></trkpt><trkpt lat="40.81624094093818" lon="8.38331966633971"><ele>14.0</ele><time>2026-05-02T09:23:17.999Z</time></trkpt><trkpt lat="40.81610525940784" lon="8.383149484872634"><ele>14.0</ele><time>2026-05-02T09:23:18.999Z</time></trkpt><trkpt lat="40.815977708708346" lon="8.38297868735599"><ele>14.0</ele><time>2026-05-02T09:23:19.999Z</time></trkpt><trkpt lat="40.815860098099705" lon="8.382817017912846"><ele>12.333333333333334</ele><time>2026-05-02T09:23:20.999Z</time></trkpt><trkpt lat="40.815782161408144" lon="8.382685698509457"><ele>10.666666666666668</ele><time>2026-05-02T09:23:21.999Z</time></trkpt><trkpt lat="40.81568841690785" lon="8.382517649370884"><ele>9.0</ele><time>2026-05-02T09:23:22.999Z</time></trkpt><trkpt lat="40.81558505200198" lon="8.382343058227942"><ele>9.5</ele><time>2026-05-02T09:23:23.999Z</time></trkpt><trkpt lat="40.815358031782864" lon="8.381994614710768"><ele>10.0</ele><time>2026-05-02T09:23:25.999Z</time></trkpt><trkpt lat="40.81521361038072" lon="8.3818615500502"><ele>10.75</ele><time>2026-05-02T09:23:26.999Z</time></trkpt><trkpt lat="40.815075921564905" lon="8.38175894523218"><ele>11.5</ele><time>2026-05-02T09:23:27.999Z</time></trkpt><trkpt lat="40.8149306882239" lon="8.38170674759191"><ele>12.25</ele><time>2026-05-02T09:23:28.999Z</time></trkpt><trkpt lat="40.814800089156975" lon="8.381639563221693"><ele>13.0</ele><time>2026-05-02T09:23:29.999Z</time></trkpt><trkpt lat="40.81476515083098" lon="8.381286433079808"><ele>14.0</ele><time>2026-05-02T09:23:30.999Z</time></trkpt><trkpt lat="40.814705824065484" lon="8.381062305147157"><ele>15.0</ele><time>2026-05-02T09:23:31.999Z</time></trkpt><trkpt lat="40.81467550131285" lon="8.380819337741547"><ele>16.0</ele><time>2026-05-02T09:23:32.999Z</time></trkpt><trkpt lat="40.81466176660242" lon="8.380568247531844"><ele>16.666666666666664</ele><time>2026-05-02T09:23:33.999Z</time></trkpt><trkpt lat="40.81467480807981" lon="8.380315300683408"><ele>17.333333333333332</ele><time>2026-05-02T09:23:34.999Z</time></trkpt><trkpt lat="40.81468276862614" lon="8.38005753614501"><ele>18.0</ele><time>2026-05-02T09:23:35.999Z</time></trkpt><trkpt lat="40.8146861587733" lon="8.379790012220042"><ele>18.333333333333332</ele><time>2026-05-02T09:23:36.999Z</time></trkpt><trkpt lat="40.81469018915673" lon="8.379515096866228"><ele>18.666666666666664</ele><time>2026-05-02T09:23:37.999Z</time></trkpt><trkpt lat="40.81469121279418" lon="8.379234902634087"><ele>19.0</ele><time>2026-05-02T09:23:38.999Z</time></trkpt><trkpt lat="40.814694896636546" lon="8.378964348701526"><ele>19.333333333333332</ele><time>2026-05-02T09:23:39.999Z</time></trkpt><trkpt lat="40.814700518318865" lon="8.378705480826312"><ele>19.666666666666668</ele><time>2026-05-02T09:23:40.999Z</time></trkpt><trkpt lat="40.8147090380459" lon="8.378426659055755"><ele>20.0</ele><time>2026-05-02T09:23:41.999Z</time></trkpt><trkpt lat="40.814725138814204" lon="8.378130070314906"><ele>20.666666666666668</ele><time>2026-05-02T09:23:42.999Z</time></trkpt><trkpt lat="40.81475130183569" lon="8.37783715624455"><ele>21.333333333333332</ele><time>2026-05-02T09:23:43.999Z</time></trkpt><trkpt lat="40.81477047849163" lon="8.37757111100262"><ele>22.0</ele><time>2026-05-02T09:23:44.999Z</time></trkpt><trkpt lat="40.81478119622528" lon="8.377324476598297"><ele>22.333333333333332</ele><time>2026-05-02T09:23:45.999Z</time></trkpt><trkpt lat="40.81478605004866" lon="8.377097508437588"><ele>22.666666666666668</ele><time>2026-05-02T09:23:46.999Z</time></trkpt><trkpt lat="40.81478684985342" lon="8.376887207701147"><ele>23.0</ele><time>2026-05-02T09:23:47.999Z</time></trkpt><trkpt lat="40.81479049103923" lon="8.376691291939755"><ele>23.0</ele><time>2026-05-02T09:23:48.999Z</time></trkpt><trkpt lat="40.814809038358945" lon="8.376509383646601"><ele>23.0</ele><time>2026-05-02T09:23:49.999Z</time></trkpt><trkpt lat="40.81485998981792" lon="8.37634650764772"><ele>23.0</ele><time>2026-05-02T09:23:50.999Z</time></trkpt><trkpt lat="40.8149254049339" lon="8.376194351163834"><ele>23.0</ele><time>2026-05-02T09:23:51.999Z</time></trkpt><trkpt lat="40.8149723132146" lon="8.376055542942083"><ele>23.0</ele><time>2026-05-02T09:23:52.999Z</time></trkpt><trkpt lat="40.81497597233305" lon="8.375909712714513"><ele>23.0</ele><time>2026-05-02T09:23:53.999Z</time></trkpt><trkpt lat="40.81493831199506" lon="8.375771442514052"><ele>23.0</ele><time>2026-05-02T09:23:54.999Z</time></trkpt><trkpt lat="40.81488002821364" lon="8.375614883702431"><ele>23.0</ele><time>2026-05-02T09:23:55.999Z</time></trkpt><trkpt lat="40.814829050509026" lon="8.375424761656062"><ele>23.333333333333336</ele><time>2026-05-02T09:23:56.999Z</time></trkpt><trkpt lat="40.8148116544997" lon="8.37519653706584"><ele>23.666666666666668</ele><time>2026-05-02T09:23:57.999Z</time></trkpt><trkpt lat="40.81481397521066" lon="8.374948384848015"><ele>24.0</ele><time>2026-05-02T09:23:58.999Z</time></trkpt><trkpt lat="40.81481571773052" lon="8.374687915844934"><ele>24.0</ele><time>2026-05-02T09:23:59.999Z</time></trkpt><trkpt lat="40.81481166528372" lon="8.37441962771935"><ele>24.0</ele><time>2026-05-02T09:24:00.999Z</time></trkpt><trkpt lat="40.814804400813784" lon="8.374144614917785"><ele>24.0</ele><time>2026-05-02T09:24:01.999Z</time></trkpt><trkpt lat="40.81479245038311" lon="8.373873340983451"><ele>23.666666666666668</ele><time>2026-05-02T09:24:02.999Z</time></trkpt><trkpt lat="40.814782381389634" lon="8.373604625445253"><ele>23.333333333333336</ele><time>2026-05-02T09:24:03.999Z</time></trkpt><trkpt lat="40.814779684455175" lon="8.373345893703657"><ele>23.0</ele><time>2026-05-02T09:24:04.999Z</time></trkpt><trkpt lat="40.81478271249903" lon="8.373101107280094"><ele>24.0</ele><time>2026-05-02T09:24:06Z</time></trkpt><trkpt lat="40.814787451558246" lon="8.372866820170636"><ele>25.0</ele><time>2026-05-02T09:24:07Z</time></trkpt><trkpt lat="40.814791350127265" lon="8.372630089701719"><ele>26.0</ele><time>2026-05-02T09:24:08Z</time></trkpt><trkpt lat="40.8147928870842" lon="8.372385964815123"><ele>25.666666666666664</ele><time>2026-05-02T09:24:09Z</time></trkpt><trkpt lat="40.81479569912676" lon="8.372136162462516"><ele>25.333333333333336</ele><time>2026-05-02T09:24:10Z</time></trkpt><trkpt lat="40.81479984407616" lon="8.371874939227821"><ele>25.0</ele><time>2026-05-02T09:24:11Z</time></trkpt><trkpt lat="40.81480269751717" lon="8.371603886765417"><ele>24.666666666666668</ele><time>2026-05-02T09:24:12Z</time></trkpt><trkpt lat="40.814806922611474" lon="8.371323818185374"><ele>24.333333333333336</ele><time>2026-05-02T09:24:13Z</time></trkpt><trkpt lat="40.81481218424485" lon="8.371030371277937"><ele>24.0</ele><time>2026-05-02T09:24:14Z</time></trkpt><trkpt lat="40.81481774212686" lon="8.370728002765018"><ele>22.5</ele><time>2026-05-02T09:24:15Z</time></trkpt><trkpt lat="40.81482465461459" lon="8.370413281967163"><ele>21.0</ele><time>2026-05-02T09:24:16Z</time></trkpt><trkpt lat="40.81483058723653" lon="8.37008811760273"><ele>21.0</ele><time>2026-05-02T09:24:17Z</time></trkpt><trkpt lat="40.81483582461219" lon="8.369758277727303"><ele>21.0</ele><time>2026-05-02T09:24:18Z</time></trkpt><trkpt lat="40.8148400460031" lon="8.36942098780355"><ele>20.0</ele><time>2026-05-02T09:24:19Z</time></trkpt><trkpt lat="40.81484335155941" lon="8.369078648348623"><ele>19.0</ele><time>2026-05-02T09:24:20Z</time></trkpt><trkpt lat="40.81484770659338" lon="8.368730963555402"><ele>17.0</ele><time>2026-05-02T09:24:21Z</time></trkpt><trkpt lat="40.81484631347859" lon="8.368379860617841"><ele>15.0</ele><time>2026-05-02T09:24:22Z</time></trkpt><trkpt lat="40.81485413698144" lon="8.368021514475263"><ele>14.5</ele><time>2026-05-02T09:24:23Z</time></trkpt><trkpt lat="40.81485861654045" lon="8.36766210504356"><ele>14.0</ele><time>2026-05-02T09:24:24Z</time></trkpt><trkpt lat="40.81486382811634" lon="8.367302451449316"><ele>15.0</ele><time>2026-05-02T09:24:25Z</time></trkpt><trkpt lat="40.814868992933384" lon="8.366941723912241"><ele>16.0</ele><time>2026-05-02T09:24:26Z</time></trkpt><trkpt lat="40.81487423752341" lon="8.366579989014891"><ele>16.0</ele><time>2026-05-02T09:24:27Z</time></trkpt><trkpt lat="40.814879403146605" lon="8.366220439211878"><ele>16.0</ele><time>2026-05-02T09:24:27.999Z</time></trkpt><trkpt lat="40.814885293681186" lon="8.365860873266445"><ele>17.0</ele><time>2026-05-02T09:24:28.999Z</time></trkpt><trkpt lat="40.81489105400403" lon="8.365502568099823"><ele>18.0</ele><time>2026-05-02T09:24:29.999Z</time></trkpt><trkpt lat="40.81489603830854" lon="8.365144499318305"><ele>18.0</ele><time>2026-05-02T09:24:30.999Z</time></trkpt><trkpt lat="40.81490052611231" lon="8.364787671770467"><ele>18.0</ele><time>2026-05-02T09:24:31.999Z</time></trkpt><trkpt lat="40.814901922323756" lon="8.364434577152199"><ele>19.5</ele><time>2026-05-02T09:24:32.999Z</time></trkpt><trkpt lat="40.81490446842883" lon="8.36408868778721"><ele>21.0</ele><time>2026-05-02T09:24:33.999Z</time></trkpt><trkpt lat="40.814907774177776" lon="8.363762606090145"><ele>21.0</ele><time>2026-05-02T09:24:34.999Z</time></trkpt><trkpt lat="40.81491325061406" lon="8.363455549651928"><ele>21.0</ele><time>2026-05-02T09:24:35.999Z</time></trkpt><trkpt lat="40.81491818386845" lon="8.363155394579643"><ele>21.666666666666668</ele><time>2026-05-02T09:24:36.999Z</time></trkpt><trkpt lat="40.81492256933214" lon="8.362857832625593"><ele>22.333333333333336</ele><time>2026-05-02T09:24:37.999Z</time></trkpt><trkpt lat="40.8149205865077" lon="8.36256830363365"><ele>23.0</ele><time>2026-05-02T09:24:38.999Z</time></trkpt><trkpt lat="40.81490918448838" lon="8.362283840997641"><ele>23.666666666666668</ele><time>2026-05-02T09:24:39.999Z</time></trkpt><trkpt lat="40.8148792084059" lon="8.362016695500731"><ele>24.333333333333336</ele><time>2026-05-02T09:24:40.999Z</time></trkpt><trkpt lat="40.81482718271253" lon="8.361757110240752"><ele>25.0</ele><time>2026-05-02T09:24:41.999Z</time></trkpt><trkpt lat="40.81476539573514" lon="8.361506625520455"><ele>24.666666666666668</ele><time>2026-05-02T09:24:42.999Z</time></trkpt><trkpt lat="40.81470640572279" lon="8.361273514498034"><ele>24.333333333333336</ele><time>2026-05-02T09:24:43.999Z</time></trkpt><trkpt lat="40.814653093858155" lon="8.361063696060851"><ele>24.0</ele><time>2026-05-02T09:24:44.999Z</time></trkpt><trkpt lat="40.81461008805958" lon="8.360890370088566"><ele>24.0</ele><time>2026-05-02T09:24:45.999Z</time></trkpt><trkpt lat="40.81457614165276" lon="8.360738462141661"><ele>24.0</ele><time>2026-05-02T09:24:46.999Z</time></trkpt><trkpt lat="40.814562872120455" lon="8.360611057436346"><ele>24.0</ele><time>2026-05-02T09:24:47.999Z</time></trkpt><trkpt lat="40.81457550215614" lon="8.360482794504044"><ele>24.0</ele><time>2026-05-02T09:24:48.999Z</time></trkpt><trkpt lat="40.814628816435814" lon="8.360376727890845"><ele>24.0</ele><time>2026-05-02T09:24:49.999Z</time></trkpt><trkpt lat="40.81469591827107" lon="8.36029234452469"><ele>23.6</ele><time>2026-05-02T09:24:50.999Z</time></trkpt><trkpt lat="40.81477653217189" lon="8.36022539668171"><ele>23.2</ele><time>2026-05-02T09:24:51.999Z</time></trkpt><trkpt lat="40.81485306924361" lon="8.360139452846814"><ele>22.8</ele><time>2026-05-02T09:24:52.999Z</time></trkpt><trkpt lat="40.81491405061603" lon="8.360019742633147"><ele>22.400000000000002</ele><time>2026-05-02T09:24:53.999Z</time></trkpt><trkpt lat="40.81495022725315" lon="8.359864709742572"><ele>22.0</ele><time>2026-05-02T09:24:54.999Z</time></trkpt><trkpt lat="40.81497040155237" lon="8.359688831406551"><ele>22.0</ele><time>2026-05-02T09:24:55.999Z</time></trkpt><trkpt lat="40.81497428164675" lon="8.35949023702359"><ele>22.0</ele><time>2026-05-02T09:24:56.999Z</time></trkpt><trkpt lat="40.814975542913395" lon="8.359281861742943"><ele>22.0</ele><time>2026-05-02T09:24:57.999Z</time></trkpt><trkpt lat="40.81497517575334" lon="8.35906142373639"><ele>23.0</ele><time>2026-05-02T09:24:58.999Z</time></trkpt><trkpt lat="40.81497533819945" lon="8.358829305261022"><ele>24.0</ele><time>2026-05-02T09:24:59.999Z</time></trkpt><trkpt lat="40.81497819202505" lon="8.358588008231264"><ele>25.0</ele><time>2026-05-02T09:25:00.999Z</time></trkpt><trkpt lat="40.81498243425052" lon="8.358339797421534"><ele>25.0</ele><time>2026-05-02T09:25:01.999Z</time></trkpt><trkpt lat="40.81498643987131" lon="8.3580858034354"><ele>25.0</ele><time>2026-05-02T09:25:02.999Z</time></trkpt><trkpt lat="40.814988532452254" lon="8.357829928605549"><ele>25.0</ele><time>2026-05-02T09:25:03.999Z</time></trkpt><trkpt lat="40.81498956100115" lon="8.357571921739053"><ele>26.0</ele><time>2026-05-02T09:25:04.999Z</time></trkpt><trkpt lat="40.81499249007643" lon="8.357310404167135"><ele>27.0</ele><time>2026-05-02T09:25:05.999Z</time></trkpt><trkpt lat="40.81499826332484" lon="8.357045663702664"><ele>28.0</ele><time>2026-05-02T09:25:06.999Z</time></trkpt><trkpt lat="40.81500337335492" lon="8.35677778098503"><ele>28.0</ele><time>2026-05-02T09:25:07.999Z</time></trkpt><trkpt lat="40.815006920838286" lon="8.356505042387607"><ele>28.0</ele><time>2026-05-02T09:25:08.999Z</time></trkpt><trkpt lat="40.81500923982618" lon="8.356226343277974"><ele>28.0</ele><time>2026-05-02T09:25:09.999Z</time></trkpt><trkpt lat="40.81501231291933" lon="8.355936393269971"><ele>28.0</ele><time>2026-05-02T09:25:10.999Z</time></trkpt><trkpt lat="40.815016425622396" lon="8.35563232733458"><ele>28.0</ele><time>2026-05-02T09:25:11.999Z</time></trkpt><trkpt lat="40.81502027976229" lon="8.355322417724679"><ele>29.5</ele><time>2026-05-02T09:25:12.999Z</time></trkpt><trkpt lat="40.81502425157863" lon="8.355008434650763"><ele>31.0</ele><time>2026-05-02T09:25:13.999Z</time></trkpt><trkpt lat="40.81502637413161" lon="8.354696762898561"><ele>32.5</ele><time>2026-05-02T09:25:14.999Z</time></trkpt><trkpt lat="40.81503114158278" lon="8.354393925797195"><ele>34.0</ele><time>2026-05-02T09:25:15.999Z</time></trkpt><trkpt lat="40.815036645070045" lon="8.354097755458572"><ele>34.66666666666667</ele><time>2026-05-02T09:25:16.999Z</time></trkpt><trkpt lat="40.81504058245961" lon="8.35380507380086"><ele>35.333333333333336</ele><time>2026-05-02T09:25:17.999Z</time></trkpt><trkpt lat="40.81504325877214" lon="8.353510677260886"><ele>36.0</ele><time>2026-05-02T09:25:18.999Z</time></trkpt><trkpt lat="40.81504659057048" lon="8.3532167071773"><ele>35.333333333333336</ele><time>2026-05-02T09:25:19.999Z</time></trkpt><trkpt lat="40.8150508360576" lon="8.352922652400917"><ele>34.66666666666667</ele><time>2026-05-02T09:25:20.999Z</time></trkpt><trkpt lat="40.81505721640777" lon="8.352624937296337"><ele>34.0</ele><time>2026-05-02T09:25:21.999Z</time></trkpt><trkpt lat="40.815061915142024" lon="8.35232721303289"><ele>34.0</ele><time>2026-05-02T09:25:22.999Z</time></trkpt><trkpt lat="40.81506282240335" lon="8.352029320500554"><ele>34.0</ele><time>2026-05-02T09:25:23.999Z</time></trkpt><trkpt lat="40.81506136299154" lon="8.35173370110704"><ele>34.0</ele><time>2026-05-02T09:25:24.999Z</time></trkpt><trkpt lat="40.815063978645775" lon="8.351434962170254"><ele>33.5</ele><time>2026-05-02T09:25:25.999Z</time></trkpt><trkpt lat="40.81506844817712" lon="8.351135617338903"><ele>33.0</ele><time>2026-05-02T09:25:26.999Z</time></trkpt><trkpt lat="40.8150730642805" lon="8.350832228954943"><ele>33.0</ele><time>2026-05-02T09:25:27.999Z</time></trkpt><trkpt lat="40.81507483213873" lon="8.350524875762027"><ele>33.0</ele><time>2026-05-02T09:25:28.999Z</time></trkpt><trkpt lat="40.81508141122667" lon="8.350210570045313"><ele>33.0</ele><time>2026-05-02T09:25:29.999Z</time></trkpt><trkpt lat="40.81508446394907" lon="8.349887515546355"><ele>33.0</ele><time>2026-05-02T09:25:30.999Z</time></trkpt><trkpt lat="40.81508288135904" lon="8.349585482957744"><ele>34.333333333333336</ele><time>2026-05-02T09:25:31.999Z</time></trkpt><trkpt lat="40.815085466612004" lon="8.349304414437812"><ele>35.66666666666667</ele><time>2026-05-02T09:25:32.999Z</time></trkpt><trkpt lat="40.815086889930875" lon="8.349032419324567"><ele>37.0</ele><time>2026-05-02T09:25:33.999Z</time></trkpt><trkpt lat="40.8151060431486" lon="8.348748582983431"><ele>38.5</ele><time>2026-05-02T09:25:34.999Z</time></trkpt><trkpt lat="40.815110518262244" lon="8.348438890020686"><ele>40.0</ele><time>2026-05-02T09:25:35.999Z</time></trkpt><trkpt lat="40.8151152137751" lon="8.348113945445085"><ele>41.5</ele><time>2026-05-02T09:25:36.999Z</time></trkpt><trkpt lat="40.815120091656354" lon="8.34777637970269"><ele>43.0</ele><time>2026-05-02T09:25:37.999Z</time></trkpt><trkpt lat="40.815124474914164" lon="8.347454445705079"><ele>43.0</ele><time>2026-05-02T09:25:38.999Z</time></trkpt><trkpt lat="40.81511226586256" lon="8.34716120724112"><ele>43.0</ele><time>2026-05-02T09:25:39.999Z</time></trkpt><trkpt lat="40.81511546477698" lon="8.346873172756808"><ele>43.0</ele><time>2026-05-02T09:25:40.999Z</time></trkpt><trkpt lat="40.81513568951868" lon="8.34657643553771"><ele>41.0</ele><time>2026-05-02T09:25:41.999Z</time></trkpt><trkpt lat="40.81514043399976" lon="8.346258558140764"><ele>39.0</ele><time>2026-05-02T09:25:42.999Z</time></trkpt><trkpt lat="40.81514603059603" lon="8.345930163052063"><ele>39.0</ele><time>2026-05-02T09:25:43.999Z</time></trkpt><trkpt lat="40.81513597729438" lon="8.34559273306719"><ele>39.0</ele><time>2026-05-02T09:25:44.999Z</time></trkpt><trkpt lat="40.81515560990548" lon="8.345275641049355"><ele>37.0</ele><time>2026-05-02T09:25:45.999Z</time></trkpt><trkpt lat="40.81514268451759" lon="8.344970182055379"><ele>35.0</ele><time>2026-05-02T09:25:46.999Z</time></trkpt><trkpt lat="40.81514622310974" lon="8.34466854104159"><ele>35.0</ele><time>2026-05-02T09:25:47.999Z</time></trkpt><trkpt lat="40.81516648914762" lon="8.344376973195692"><ele>35.0</ele><time>2026-05-02T09:25:48.999Z</time></trkpt><trkpt lat="40.81515438671446" lon="8.344100329189368"><ele>35.0</ele><time>2026-05-02T09:25:49.999Z</time></trkpt><trkpt lat="40.81515898988962" lon="8.343840496994327"><ele>35.0</ele><time>2026-05-02T09:25:50.999Z</time></trkpt><trkpt lat="40.81516341023205" lon="8.343598229580746"><ele>35.0</ele><time>2026-05-02T09:25:51.999Z</time></trkpt><trkpt lat="40.81516669718582" lon="8.3433654753593"><ele>35.0</ele><time>2026-05-02T09:25:52.999Z</time></trkpt><trkpt lat="40.81517056636318" lon="8.34314394557898"><ele>34.666666666666664</ele><time>2026-05-02T09:25:53.999Z</time></trkpt><trkpt lat="40.81517529824333" lon="8.342929779229605"><ele>34.333333333333336</ele><time>2026-05-02T09:25:54.999Z</time></trkpt><trkpt lat="40.81517829047573" lon="8.342706685169858"><ele>34.0</ele><time>2026-05-02T09:25:55.999Z</time></trkpt><trkpt lat="40.8151841735746" lon="8.342484045856203"><ele>34.0</ele><time>2026-05-02T09:25:56.999Z</time></trkpt><trkpt lat="40.81519500743137" lon="8.34225919556974"><ele>34.0</ele><time>2026-05-02T09:25:57.999Z</time></trkpt><trkpt lat="40.8152082833953" lon="8.342025058546758"><ele>34.0</ele><time>2026-05-02T09:25:58.999Z</time></trkpt><trkpt lat="40.815223999535746" lon="8.341799126933124"><ele>34.333333333333336</ele><time>2026-05-02T09:25:59.999Z</time></trkpt><trkpt lat="40.81524298227414" lon="8.341588480148848"><ele>34.666666666666664</ele><time>2026-05-02T09:26:00.999Z</time></trkpt><trkpt lat="40.81526522477864" lon="8.341367192037284"><ele>35.0</ele><time>2026-05-02T09:26:01.999Z</time></trkpt><trkpt lat="40.81529281905267" lon="8.341142627035566"><ele>34.33333333333333</ele><time>2026-05-02T09:26:02.999Z</time></trkpt><trkpt lat="40.81532823020921" lon="8.340920912207771"><ele>33.666666666666664</ele><time>2026-05-02T09:26:03.999Z</time></trkpt><trkpt lat="40.81536832428548" lon="8.340700021533404"><ele>33.0</ele><time>2026-05-02T09:26:04.999Z</time></trkpt><trkpt lat="40.81540681412993" lon="8.34048268777443"><ele>32.666666666666664</ele><time>2026-05-02T09:26:05.999Z</time></trkpt><trkpt lat="40.81544620210626" lon="8.34026813351544"><ele>32.33333333333333</ele><time>2026-05-02T09:26:06.999Z</time></trkpt><trkpt lat="40.81548838419609" lon="8.340055563289472"><ele>32.0</ele><time>2026-05-02T09:26:07.999Z</time></trkpt><trkpt lat="40.81553584938548" lon="8.339839735202736"><ele>33.0</ele><time>2026-05-02T09:26:08.999Z</time></trkpt><trkpt lat="40.815587585820076" lon="8.339624219283538"><ele>34.0</ele><time>2026-05-02T09:26:09.999Z</time></trkpt><trkpt lat="40.815646638105875" lon="8.339413636846796"><ele>35.0</ele><time>2026-05-02T09:26:10.999Z</time></trkpt><trkpt lat="40.815709073339946" lon="8.339204822614859"><ele>35.0</ele><time>2026-05-02T09:26:12Z</time></trkpt><trkpt lat="40.81577440581842" lon="8.338993960379451"><ele>35.0</ele><time>2026-05-02T09:26:13Z</time></trkpt><trkpt lat="40.81584031666419" lon="8.338781272036663"><ele>35.0</ele><time>2026-05-02T09:26:14Z</time></trkpt><trkpt lat="40.815907685156816" lon="8.338568667884763"><ele>35.0</ele><time>2026-05-02T09:26:15Z</time></trkpt><trkpt lat="40.81597966461333" lon="8.338357949282925"><ele>35.0</ele><time>2026-05-02T09:26:16Z</time></trkpt><trkpt lat="40.81605775888692" lon="8.338146939730965"><ele>35.0</ele><time>2026-05-02T09:26:17Z</time></trkpt><trkpt lat="40.81613677482965" lon="8.337934300263756"><ele>36.33333333333333</ele><time>2026-05-02T09:26:18Z</time></trkpt><trkpt lat="40.8162211240442" lon="8.337716010529254"><ele>37.666666666666664</ele><time>2026-05-02T09:26:19Z</time></trkpt><trkpt lat="40.81631374980916" lon="8.337484027333641"><ele>39.0</ele><time>2026-05-02T09:26:20Z</time></trkpt><trkpt lat="40.816426343607226" lon="8.33722127020617"><ele>40.5</ele><time>2026-05-02T09:26:21Z</time></trkpt><trkpt lat="40.816542365684185" lon="8.33692380894606"><ele>42.0</ele><time>2026-05-02T09:26:22Z</time></trkpt><trkpt lat="40.81666610824269" lon="8.33661648890627"><ele>41.5</ele><time>2026-05-02T09:26:23Z</time></trkpt><trkpt lat="40.816804111111516" lon="8.336308382865724"><ele>41.0</ele><time>2026-05-02T09:26:24Z</time></trkpt><trkpt lat="40.81692545347532" lon="8.336011647513805"><ele>38.5</ele><time>2026-05-02T09:26:25Z</time></trkpt><trkpt lat="40.81708181028934" lon="8.335687325995586"><ele>36.0</ele><time>2026-05-02T09:26:26Z</time></trkpt><trkpt lat="40.817234668326705" lon="8.335358475094763"><ele>36.0</ele><time>2026-05-02T09:26:27Z</time></trkpt><trkpt lat="40.81738019214927" lon="8.335017939355204"><ele>36.0</ele><time>2026-05-02T09:26:28Z</time></trkpt><trkpt lat="40.8175266166863" lon="8.334670846983233"><ele>37.0</ele><time>2026-05-02T09:26:29Z</time></trkpt><trkpt lat="40.8176758224702" lon="8.334322296001412"><ele>38.0</ele><time>2026-05-02T09:26:29.999Z</time></trkpt><trkpt lat="40.81782219441648" lon="8.33397740236685"><ele>38.0</ele><time>2026-05-02T09:26:30.999Z</time></trkpt><trkpt lat="40.81796502019495" lon="8.333635980738187"><ele>38.0</ele><time>2026-05-02T09:26:31.999Z</time></trkpt><trkpt lat="40.81810491315634" lon="8.333297485382294"><ele>38.0</ele><time>2026-05-02T09:26:32.999Z</time></trkpt><trkpt lat="40.81824638648588" lon="8.332960866393831"><ele>38.0</ele><time>2026-05-02T09:26:33.999Z</time></trkpt><trkpt lat="40.81838573982883" lon="8.3326311743342"><ele>37.5</ele><time>2026-05-02T09:26:34.999Z</time></trkpt><trkpt lat="40.81852697308002" lon="8.332300542284456"><ele>37.0</ele><time>2026-05-02T09:26:35.999Z</time></trkpt><trkpt lat="40.818669668884475" lon="8.331970986798812"><ele>36.5</ele><time>2026-05-02T09:26:36.999Z</time></trkpt><trkpt lat="40.81880981126749" lon="8.331644276426944"><ele>36.0</ele><time>2026-05-02T09:26:37.999Z</time></trkpt><trkpt lat="40.818950618716045" lon="8.331318689188697"><ele>36.0</ele><time>2026-05-02T09:26:38.999Z</time></trkpt><trkpt lat="40.81908782688394" lon="8.330995851396814"><ele>36.0</ele><time>2026-05-02T09:26:39.999Z</time></trkpt><trkpt lat="40.81922305260436" lon="8.330674533429221"><ele>36.5</ele><time>2026-05-02T09:26:40.999Z</time></trkpt><trkpt lat="40.81935943748586" lon="8.33035260337276"><ele>37.0</ele><time>2026-05-02T09:26:41.999Z</time></trkpt><trkpt lat="40.81949343260477" lon="8.330031978832716"><ele>36.0</ele><time>2026-05-02T09:26:42.999Z</time></trkpt><trkpt lat="40.81962783185209" lon="8.329713838370683"><ele>35.0</ele><time>2026-05-02T09:26:43.999Z</time></trkpt><trkpt lat="40.8197616307677" lon="8.329401269358161"><ele>35.0</ele><time>2026-05-02T09:26:44.999Z</time></trkpt><trkpt lat="40.81989554874873" lon="8.329087183473764"><ele>35.0</ele><time>2026-05-02T09:26:45.999Z</time></trkpt><trkpt lat="40.82002810899319" lon="8.328774539506352"><ele>35.5</ele><time>2026-05-02T09:26:46.999Z</time></trkpt><trkpt lat="40.82015817793486" lon="8.328463548783265"><ele>36.0</ele><time>2026-05-02T09:26:47.999Z</time></trkpt><trkpt lat="40.82028836776477" lon="8.328148842403555"><ele>35.5</ele><time>2026-05-02T09:26:48.999Z</time></trkpt><trkpt lat="40.82041983415203" lon="8.327834783747802"><ele>35.0</ele><time>2026-05-02T09:26:49.999Z</time></trkpt><trkpt lat="40.820553019362485" lon="8.327522246284234"><ele>36.5</ele><time>2026-05-02T09:26:50.999Z</time></trkpt><trkpt lat="40.82068913419934" lon="8.327215496745962"><ele>38.0</ele><time>2026-05-02T09:26:51.999Z</time></trkpt><trkpt lat="40.820827329145345" lon="8.326917772313902"><ele>38.0</ele><time>2026-05-02T09:26:52.999Z</time></trkpt><trkpt lat="40.820960897858704" lon="8.326647478164416"><ele>38.0</ele><time>2026-05-02T09:26:53.999Z</time></trkpt><trkpt lat="40.82109731042551" lon="8.32639172450371"><ele>38.5</ele><time>2026-05-02T09:26:54.999Z</time></trkpt><trkpt lat="40.8212480426704" lon="8.326147383903285"><ele>39.0</ele><time>2026-05-02T09:26:55.999Z</time></trkpt><trkpt lat="40.821400992434036" lon="8.325931222374747"><ele>39.0</ele><time>2026-05-02T09:26:56.999Z</time></trkpt><trkpt lat="40.82155769809356" lon="8.325721593200266"><ele>39.0</ele><time>2026-05-02T09:26:57.999Z</time></trkpt><trkpt lat="40.82172469406423" lon="8.325506204755932"><ele>38.5</ele><time>2026-05-02T09:26:58.999Z</time></trkpt><trkpt lat="40.82189693421963" lon="8.325292538666945"><ele>38.0</ele><time>2026-05-02T09:26:59.999Z</time></trkpt><trkpt lat="40.82207890267132" lon="8.325082104538483"><ele>38.0</ele><time>2026-05-02T09:27:00.999Z</time></trkpt><trkpt lat="40.822272516850425" lon="8.324880495965086"><ele>38.0</ele><time>2026-05-02T09:27:01.999Z</time></trkpt><trkpt lat="40.822474920184696" lon="8.324689676935895"><ele>37.5</ele><time>2026-05-02T09:27:02.999Z</time></trkpt><trkpt lat="40.82269078320721" lon="8.324515541985999"><ele>37.0</ele><time>2026-05-02T09:27:03.999Z</time></trkpt><trkpt lat="40.822920729783135" lon="8.324360380631568"><ele>37.0</ele><time>2026-05-02T09:27:04.999Z</time></trkpt><trkpt lat="40.82315600892973" lon="8.324217891971276"><ele>37.0</ele><time>2026-05-02T09:27:05.999Z</time></trkpt><trkpt lat="40.82339288103076" lon="8.324081754370674"><ele>35.5</ele><time>2026-05-02T09:27:06.999Z</time></trkpt><trkpt lat="40.82363597605665" lon="8.323952484199037"><ele>34.0</ele><time>2026-05-02T09:27:07.999Z</time></trkpt><trkpt lat="40.82388349091719" lon="8.323834650166647"><ele>33.5</ele><time>2026-05-02T09:27:08.999Z</time></trkpt><trkpt lat="40.82413797441346" lon="8.323731893407205"><ele>33.0</ele><time>2026-05-02T09:27:09.999Z</time></trkpt><trkpt lat="40.824391926469374" lon="8.323645856074666"><ele>33.0</ele><time>2026-05-02T09:27:10.999Z</time></trkpt><trkpt lat="40.824638133513375" lon="8.323580740145855"><ele>33.0</ele><time>2026-05-02T09:27:11.999Z</time></trkpt><trkpt lat="40.82488249771955" lon="8.323526767279601"><ele>33.0</ele><time>2026-05-02T09:27:12.999Z</time></trkpt><trkpt lat="40.82513626363797" lon="8.323466158135895"><ele>33.0</ele><time>2026-05-02T09:27:13.999Z</time></trkpt><trkpt lat="40.82539217587709" lon="8.32339700525898"><ele>34.5</ele><time>2026-05-02T09:27:14.999Z</time></trkpt><trkpt lat="40.82565113067071" lon="8.323317078481525"><ele>36.0</ele><time>2026-05-02T09:27:15.999Z</time></trkpt><trkpt lat="40.82591557076636" lon="8.323234299528464"><ele>36.5</ele><time>2026-05-02T09:27:16.999Z</time></trkpt><trkpt lat="40.826180119806246" lon="8.323153500437934"><ele>37.0</ele><time>2026-05-02T09:27:17.999Z</time></trkpt><trkpt lat="40.826429140627745" lon="8.323068802071644"><ele>37.0</ele><time>2026-05-02T09:27:18.999Z</time></trkpt><trkpt lat="40.826660703947255" lon="8.32295864087185"><ele>37.0</ele><time>2026-05-02T09:27:19.999Z</time></trkpt><trkpt lat="40.82688762681309" lon="8.322816749624394"><ele>37.0</ele><time>2026-05-02T09:27:20.999Z</time></trkpt><trkpt lat="40.82711242628457" lon="8.322653472693535"><ele>37.0</ele><time>2026-05-02T09:27:21.999Z</time></trkpt><trkpt lat="40.827332021629324" lon="8.322480369735665"><ele>37.0</ele><time>2026-05-02T09:27:22.999Z</time></trkpt><trkpt lat="40.827552431994896" lon="8.322302696195433"><ele>37.0</ele><time>2026-05-02T09:27:23.999Z</time></trkpt><trkpt lat="40.82777009123625" lon="8.322108851878761"><ele>35.5</ele><time>2026-05-02T09:27:24.999Z</time></trkpt><trkpt lat="40.82798006806699" lon="8.321899561412867"><ele>34.0</ele><time>2026-05-02T09:27:25.999Z</time></trkpt><trkpt lat="40.828181526018916" lon="8.321678483165137"><ele>34.0</ele><time>2026-05-02T09:27:26.999Z</time></trkpt><trkpt lat="40.828379869563925" lon="8.321444633180098"><ele>34.0</ele><time>2026-05-02T09:27:27.999Z</time></trkpt><trkpt lat="40.82856196837802" lon="8.321195882148636"><ele>34.5</ele><time>2026-05-02T09:27:28.999Z</time></trkpt><trkpt lat="40.82873193212783" lon="8.320933153440626"><ele>35.0</ele><time>2026-05-02T09:27:29.999Z</time></trkpt><trkpt lat="40.82889136290431" lon="8.320651022887244"><ele>35.5</ele><time>2026-05-02T09:27:30.999Z</time></trkpt><trkpt lat="40.82904370781266" lon="8.320362610689507"><ele>36.0</ele><time>2026-05-02T09:27:31.999Z</time></trkpt><trkpt lat="40.82917901562728" lon="8.320061859692593"><ele>36.0</ele><time>2026-05-02T09:27:32.999Z</time></trkpt><trkpt lat="40.829302218484685" lon="8.319751954334777"><ele>36.0</ele><time>2026-05-02T09:27:33.999Z</time></trkpt><trkpt lat="40.8294139841441" lon="8.319427825406855"><ele>36.0</ele><time>2026-05-02T09:27:34.999Z</time></trkpt><trkpt lat="40.82951825695269" lon="8.319098939976957"><ele>36.0</ele><time>2026-05-02T09:27:35.999Z</time></trkpt><trkpt lat="40.82961327329157" lon="8.318764439415082"><ele>36.0</ele><time>2026-05-02T09:27:36.999Z</time></trkpt><trkpt lat="40.829699137020995" lon="8.31841758933216"><ele>36.0</ele><time>2026-05-02T09:27:37.999Z</time></trkpt><trkpt lat="40.82977513470689" lon="8.318067192263404"><ele>35.5</ele><time>2026-05-02T09:27:38.999Z</time></trkpt><trkpt lat="40.829840525704164" lon="8.317707416663653"><ele>35.0</ele><time>2026-05-02T09:27:39.999Z</time></trkpt><trkpt lat="40.82989862318427" lon="8.317344101497666"><ele>34.5</ele><time>2026-05-02T09:27:40.999Z</time></trkpt><trkpt lat="40.829947749148275" lon="8.316974223445154"><ele>34.0</ele><time>2026-05-02T09:27:41.999Z</time></trkpt><trkpt lat="40.829997538619416" lon="8.31660275234713"><ele>33.0</ele><time>2026-05-02T09:27:42.999Z</time></trkpt><trkpt lat="40.830049864178065" lon="8.316232715426521"><ele>32.0</ele><time>2026-05-02T09:27:43.999Z</time></trkpt><trkpt lat="40.83010298320368" lon="8.315861661986865"><ele>30.5</ele><time>2026-05-02T09:27:44.999Z</time></trkpt><trkpt lat="40.83015700011417" lon="8.31548847712001"><ele>29.0</ele><time>2026-05-02T09:27:45.999Z</time></trkpt><trkpt lat="40.83020683354582" lon="8.315115542369282"><ele>29.0</ele><time>2026-05-02T09:27:46.999Z</time></trkpt><trkpt lat="40.830259211021925" lon="8.314743488951219"><ele>29.0</ele><time>2026-05-02T09:27:47.999Z</time></trkpt><trkpt lat="40.830309893319864" lon="8.314372398011264"><ele>29.5</ele><time>2026-05-02T09:27:48.999Z</time></trkpt><trkpt lat="40.83036304314629" lon="8.314004322706712"><ele>30.0</ele><time>2026-05-02T09:27:49.999Z</time></trkpt><trkpt lat="40.830415285974134" lon="8.31364283447284"><ele>31.5</ele><time>2026-05-02T09:27:50.999Z</time></trkpt><trkpt lat="40.830464984123466" lon="8.313301166571442"><ele>33.0</ele><time>2026-05-02T09:27:51.999Z</time></trkpt><trkpt lat="40.83051110692953" lon="8.312974182659879"><ele>34.5</ele><time>2026-05-02T09:27:52.999Z</time></trkpt><trkpt lat="40.830547681074414" lon="8.312652593175851"><ele>36.0</ele><time>2026-05-02T09:27:53.999Z</time></trkpt><trkpt lat="40.83060916346298" lon="8.312331217030197"><ele>36.5</ele><time>2026-05-02T09:27:54.999Z</time></trkpt><trkpt lat="40.830642325908904" lon="8.311994475041873"><ele>37.0</ele><time>2026-05-02T09:27:55.999Z</time></trkpt><trkpt lat="40.83068975998152" lon="8.311665405491496"><ele>37.5</ele><time>2026-05-02T09:27:56.999Z</time></trkpt><trkpt lat="40.83073873563662" lon="8.311332276799963"><ele>38.0</ele><time>2026-05-02T09:27:57.999Z</time></trkpt><trkpt lat="40.83078882260282" lon="8.310992196539642"><ele>38.0</ele><time>2026-05-02T09:27:58.999Z</time></trkpt><trkpt lat="40.83085077662093" lon="8.310657300333704"><ele>38.0</ele><time>2026-05-02T09:27:59.999Z</time></trkpt><trkpt lat="40.83091501255422" lon="8.310324218728551"><ele>38.0</ele><time>2026-05-02T09:28:00.999Z</time></trkpt><trkpt lat="40.830942309660934" lon="8.309962667187381"><ele>38.0</ele><time>2026-05-02T09:28:01.999Z</time></trkpt><trkpt lat="40.83098995840327" lon="8.309602825512462"><ele>37.5</ele><time>2026-05-02T09:28:02.999Z</time></trkpt><trkpt lat="40.83104125122197" lon="8.309253295141062"><ele>37.0</ele><time>2026-05-02T09:28:03.999Z</time></trkpt><trkpt lat="40.831114977624594" lon="8.308896229040005"><ele>37.0</ele><time>2026-05-02T09:28:04.999Z</time></trkpt><trkpt lat="40.83118406771017" lon="8.308542764218334"><ele>37.0</ele><time>2026-05-02T09:28:05.999Z</time></trkpt><trkpt lat="40.83127781690244" lon="8.30819297993266"><ele>36.5</ele><time>2026-05-02T09:28:06.999Z</time></trkpt><trkpt lat="40.831380520083755" lon="8.307847448325127"><ele>36.0</ele><time>2026-05-02T09:28:07.999Z</time></trkpt><trkpt lat="40.831482819023975" lon="8.307505288214315"><ele>36.0</ele><time>2026-05-02T09:28:08.999Z</time></trkpt><trkpt lat="40.83159734556636" lon="8.30715808796107"><ele>36.0</ele><time>2026-05-02T09:28:09.999Z</time></trkpt><trkpt lat="40.83171290991605" lon="8.306817403827297"><ele>33.5</ele><time>2026-05-02T09:28:10.999Z</time></trkpt><trkpt lat="40.83182787732825" lon="8.306482776124579"><ele>31.0</ele><time>2026-05-02T09:28:11.999Z</time></trkpt><trkpt lat="40.83193879005739" lon="8.306152598254156"><ele>29.0</ele><time>2026-05-02T09:28:12.999Z</time></trkpt><trkpt lat="40.83204690696439" lon="8.305825885335649"><ele>27.0</ele><time>2026-05-02T09:28:13.999Z</time></trkpt><trkpt lat="40.83215597610653" lon="8.305499841984123"><ele>21.5</ele><time>2026-05-02T09:28:14.999Z</time></trkpt><trkpt lat="40.832276896044185" lon="8.305188272888577"><ele>16.0</ele><time>2026-05-02T09:28:15.999Z</time></trkpt><trkpt lat="40.8324005477315" lon="8.304875504307791"><ele>13.5</ele><time>2026-05-02T09:28:16.999Z</time></trkpt><trkpt lat="40.83248220723823" lon="8.304534507837603"><ele>11.0</ele><time>2026-05-02T09:28:17.999Z</time></trkpt><trkpt lat="40.83258761283984" lon="8.30420827769433"><ele>17.0</ele><time>2026-05-02T09:28:18.999Z</time></trkpt><trkpt lat="40.8326960947761" lon="8.303875002224883"><ele>23.0</ele><time>2026-05-02T09:28:19.999Z</time></trkpt><trkpt lat="40.83280272049957" lon="8.303540191573349"><ele>23.0</ele><time>2026-05-02T09:28:20.999Z</time></trkpt><trkpt lat="40.83291090486087" lon="8.303201794896477"><ele>23.0</ele><time>2026-05-02T09:28:21.999Z</time></trkpt><trkpt lat="40.83302352996895" lon="8.302865278178043"><ele>23.0</ele><time>2026-05-02T09:28:22.999Z</time></trkpt><trkpt lat="40.833136235348235" lon="8.302530184664402"><ele>23.0</ele><time>2026-05-02T09:28:24Z</time></trkpt><trkpt lat="40.83325053820876" lon="8.302195647531038"><ele>23.5</ele><time>2026-05-02T09:28:25Z</time></trkpt><trkpt lat="40.83336391225072" lon="8.301867896204323"><ele>24.0</ele><time>2026-05-02T09:28:26Z</time></trkpt><trkpt lat="40.833476533148584" lon="8.301536781948732"><ele>22.5</ele><time>2026-05-02T09:28:27Z</time></trkpt><trkpt lat="40.83358856839902" lon="8.301207577713647"><ele>21.0</ele><time>2026-05-02T09:28:28Z</time></trkpt><trkpt lat="40.83369777649879" lon="8.300880675091838"><ele>22.0</ele><time>2026-05-02T09:28:28.999Z</time></trkpt><trkpt lat="40.83380660761742" lon="8.300554254498765"><ele>23.0</ele><time>2026-05-02T09:28:29.999Z</time></trkpt><trkpt lat="40.833915225416796" lon="8.300229805368936"><ele>23.0</ele><time>2026-05-02T09:28:31Z</time></trkpt><trkpt lat="40.8340225109164" lon="8.299906547910702"><ele>23.0</ele><time>2026-05-02T09:28:32Z</time></trkpt><trkpt lat="40.834127285439436" lon="8.299584773816393"><ele>24.0</ele><time>2026-05-02T09:28:33Z</time></trkpt><trkpt lat="40.83422929290297" lon="8.299263145033173"><ele>25.0</ele><time>2026-05-02T09:28:34Z</time></trkpt><trkpt lat="40.83432231438385" lon="8.298935999480927"><ele>24.5</ele><time>2026-05-02T09:28:35Z</time></trkpt><trkpt lat="40.83440509158935" lon="8.298605243188916"><ele>24.0</ele><time>2026-05-02T09:28:36Z</time></trkpt><trkpt lat="40.8344804582361" lon="8.298268502921657"><ele>25.5</ele><time>2026-05-02T09:28:37Z</time></trkpt><trkpt lat="40.834557413614355" lon="8.297930990894404"><ele>27.0</ele><time>2026-05-02T09:28:38Z</time></trkpt><trkpt lat="40.834635280820955" lon="8.297597332455483"><ele>27.0</ele><time>2026-05-02T09:28:39Z</time></trkpt><trkpt lat="40.83470756702227" lon="8.29726852285858"><ele>27.0</ele><time>2026-05-02T09:28:39.999Z</time></trkpt><trkpt lat="40.83478322929196" lon="8.296945761991413"><ele>28.5</ele><time>2026-05-02T09:28:40.999Z</time></trkpt><trkpt lat="40.834856646127086" lon="8.296623237423455"><ele>30.0</ele><time>2026-05-02T09:28:41.999Z</time></trkpt><trkpt lat="40.834929556266566" lon="8.296309493594789"><ele>31.5</ele><time>2026-05-02T09:28:42.999Z</time></trkpt><trkpt lat="40.835000641996835" lon="8.295985415753943"><ele>33.0</ele><time>2026-05-02T09:28:43.999Z</time></trkpt><trkpt lat="40.835075083518014" lon="8.29566533374011"><ele>32.5</ele><time>2026-05-02T09:28:44.999Z</time></trkpt><trkpt lat="40.83515367020745" lon="8.295346206257355"><ele>32.0</ele><time>2026-05-02T09:28:45.999Z</time></trkpt><trkpt lat="40.83523045187418" lon="8.29502301183187"><ele>33.0</ele><time>2026-05-02T09:28:46.999Z</time></trkpt><trkpt lat="40.835303900324504" lon="8.294702417117222"><ele>34.0</ele><time>2026-05-02T09:28:47.999Z</time></trkpt><trkpt lat="40.83537939927895" lon="8.294374496591603"><ele>34.0</ele><time>2026-05-02T09:28:48.999Z</time></trkpt><trkpt lat="40.83545639851999" lon="8.29404201278021"><ele>34.0</ele><time>2026-05-02T09:28:49.999Z</time></trkpt><trkpt lat="40.83553243058957" lon="8.293709065530162"><ele>35.0</ele><time>2026-05-02T09:28:50.999Z</time></trkpt><trkpt lat="40.83561130305124" lon="8.293372516264094"><ele>36.0</ele><time>2026-05-02T09:28:51.999Z</time></trkpt><trkpt lat="40.835691076983345" lon="8.293038249369578"><ele>37.0</ele><time>2026-05-02T09:28:52.999Z</time></trkpt><trkpt lat="40.835770802936054" lon="8.292700229283524"><ele>38.0</ele><time>2026-05-02T09:28:53.999Z</time></trkpt><trkpt lat="40.83585056916" lon="8.292361487958265"><ele>38.0</ele><time>2026-05-02T09:28:54.999Z</time></trkpt><trkpt lat="40.8359279214517" lon="8.292033680163868"><ele>38.0</ele><time>2026-05-02T09:28:55.999Z</time></trkpt><trkpt lat="40.83600123231726" lon="8.291722380117436"><ele>38.0</ele><time>2026-05-02T09:28:56.999Z</time></trkpt><trkpt lat="40.83607473164182" lon="8.291403307795543"><ele>38.0</ele><time>2026-05-02T09:28:57.999Z</time></trkpt><trkpt lat="40.836143870802196" lon="8.291095002507179"><ele>38.0</ele><time>2026-05-02T09:28:58.999Z</time></trkpt><trkpt lat="40.83620535916484" lon="8.29080764862786"><ele>38.0</ele><time>2026-05-02T09:28:59.999Z</time></trkpt><trkpt lat="40.83625878156969" lon="8.290534322234487"><ele>38.0</ele><time>2026-05-02T09:29:00.999Z</time></trkpt><trkpt lat="40.836297727767025" lon="8.29027731016129"><ele>38.666666666666664</ele><time>2026-05-02T09:29:01.999Z</time></trkpt><trkpt lat="40.83632141363687" lon="8.290038668972212"><ele>39.333333333333336</ele><time>2026-05-02T09:29:02.999Z</time></trkpt><trkpt lat="40.83633358426988" lon="8.289807897533406"><ele>40.0</ele><time>2026-05-02T09:29:03.999Z</time></trkpt><trkpt lat="40.836343005555364" lon="8.289582936766191"><ele>40.333333333333336</ele><time>2026-05-02T09:29:04.999Z</time></trkpt><trkpt lat="40.83635386222907" lon="8.289341943895334"><ele>40.666666666666664</ele><time>2026-05-02T09:29:05.999Z</time></trkpt><trkpt lat="40.836372288620716" lon="8.289092095163793"><ele>41.0</ele><time>2026-05-02T09:29:06.999Z</time></trkpt><trkpt lat="40.836380522607186" lon="8.288835732328728"><ele>41.0</ele><time>2026-05-02T09:29:07.999Z</time></trkpt><trkpt lat="40.836399424386975" lon="8.288586000850236"><ele>41.0</ele><time>2026-05-02T09:29:08.999Z</time></trkpt><trkpt lat="40.83641254354347" lon="8.28833920155097"><ele>41.0</ele><time>2026-05-02T09:29:09.999Z</time></trkpt><trkpt lat="40.836425169766436" lon="8.288093582761968"><ele>41.666666666666664</ele><time>2026-05-02T09:29:10.999Z</time></trkpt><trkpt lat="40.83643299588837" lon="8.28783366325094"><ele>42.333333333333336</ele><time>2026-05-02T09:29:11.999Z</time></trkpt><trkpt lat="40.83644635856435" lon="8.287567947015251"><ele>43.0</ele><time>2026-05-02T09:29:12.999Z</time></trkpt><trkpt lat="40.83645761261447" lon="8.287302767526475"><ele>42.333333333333336</ele><time>2026-05-02T09:29:13.999Z</time></trkpt><trkpt lat="40.836470068636764" lon="8.28706144020982"><ele>41.666666666666664</ele><time>2026-05-02T09:29:14.999Z</time></trkpt><trkpt lat="40.83647964812437" lon="8.286835545647678"><ele>41.0</ele><time>2026-05-02T09:29:15.999Z</time></trkpt><trkpt lat="40.83649163896573" lon="8.28662357749811"><ele>40.75</ele><time>2026-05-02T09:29:16.999Z</time></trkpt><trkpt lat="40.83650805313441" lon="8.286419419280044"><ele>40.5</ele><time>2026-05-02T09:29:17.999Z</time></trkpt><trkpt lat="40.83653568098906" lon="8.286227852087505"><ele>40.25</ele><time>2026-05-02T09:29:18.999Z</time></trkpt><trkpt lat="40.83658022671219" lon="8.28604855092929"><ele>40.0</ele><time>2026-05-02T09:29:19.999Z</time></trkpt><trkpt lat="40.836642914980935" lon="8.285882890204654"><ele>40.0</ele><time>2026-05-02T09:29:20.999Z</time></trkpt><trkpt lat="40.83673371821064" lon="8.285719290245122"><ele>40.0</ele><time>2026-05-02T09:29:21.999Z</time></trkpt><trkpt lat="40.83685289627094" lon="8.28557895069431"><ele>40.0</ele><time>2026-05-02T09:29:22.999Z</time></trkpt><trkpt lat="40.83697540596466" lon="8.285435577964364"><ele>38.66666666666667</ele><time>2026-05-02T09:29:23.999Z</time></trkpt><trkpt lat="40.83711206055129" lon="8.285285801067415"><ele>37.333333333333336</ele><time>2026-05-02T09:29:24.999Z</time></trkpt><trkpt lat="40.837272841101864" lon="8.285110417015533"><ele>36.0</ele><time>2026-05-02T09:29:25.999Z</time></trkpt><trkpt lat="40.837454196998095" lon="8.284912588971194"><ele>31.5</ele><time>2026-05-02T09:29:26.999Z</time></trkpt><trkpt lat="40.83764969800425" lon="8.284699330699533"><ele>27.0</ele><time>2026-05-02T09:29:27.999Z</time></trkpt><trkpt lat="40.83785176702428" lon="8.284478908398103"><ele>27.0</ele><time>2026-05-02T09:29:28.999Z</time></trkpt><trkpt lat="40.83805585065569" lon="8.284255918266469"><ele>27.0</ele><time>2026-05-02T09:29:29.999Z</time></trkpt><trkpt lat="40.83824404676475" lon="8.284038608899436"><ele>26.0</ele><time>2026-05-02T09:29:30.999Z</time></trkpt><trkpt lat="40.83843255342011" lon="8.28385929582918"><ele>25.0</ele><time>2026-05-02T09:29:31.999Z</time></trkpt><trkpt lat="40.8386024933785" lon="8.283673099365549"><ele>25.0</ele><time>2026-05-02T09:29:32.999Z</time></trkpt><trkpt lat="40.838742807645005" lon="8.283514092858805"><ele>25.0</ele><time>2026-05-02T09:29:33.999Z</time></trkpt><trkpt lat="40.83887572752788" lon="8.28337158066271"><ele>25.0</ele><time>2026-05-02T09:29:34.999Z</time></trkpt><trkpt lat="40.83900899463659" lon="8.283240301120758"><ele>25.0</ele><time>2026-05-02T09:29:35.999Z</time></trkpt><trkpt lat="40.83914150873979" lon="8.283113882520983"><ele>25.0</ele><time>2026-05-02T09:29:36.999Z</time></trkpt><trkpt lat="40.83927734576369" lon="8.282997349450698"><ele>25.0</ele><time>2026-05-02T09:29:37.999Z</time></trkpt><trkpt lat="40.83942717650863" lon="8.282891991608862"><ele>21.0</ele><time>2026-05-02T09:29:38.999Z</time></trkpt><trkpt lat="40.83959169007137" lon="8.282791535189581"><ele>17.0</ele><time>2026-05-02T09:29:39.999Z</time></trkpt><trkpt lat="40.839773389833226" lon="8.282701249020176"><ele>13.0</ele><time>2026-05-02T09:29:40.999Z</time></trkpt><trkpt lat="40.839957974127074" lon="8.28261689423632"><ele>12.0</ele><time>2026-05-02T09:29:41.999Z</time></trkpt><trkpt lat="40.84014922019776" lon="8.28252937044801"><ele>11.0</ele><time>2026-05-02T09:29:42.999Z</time></trkpt><trkpt lat="40.84032238055274" lon="8.282439833320986"><ele>10.0</ele><time>2026-05-02T09:29:43.999Z</time></trkpt><trkpt lat="40.840494628358215" lon="8.282354575546709"><ele>10.0</ele><time>2026-05-02T09:29:44.999Z</time></trkpt><trkpt lat="40.84066412774028" lon="8.282271589398967"><ele>10.0</ele><time>2026-05-02T09:29:45.999Z</time></trkpt><trkpt lat="40.84083761305532" lon="8.2821866890016"><ele>10.0</ele><time>2026-05-02T09:29:46.999Z</time></trkpt><trkpt lat="40.84101238519571" lon="8.282098161879485"><ele>8.333333333333334</ele><time>2026-05-02T09:29:47.999Z</time></trkpt><trkpt lat="40.84118116855525" lon="8.282012997995757"><ele>6.666666666666667</ele><time>2026-05-02T09:29:48.999Z</time></trkpt><trkpt lat="40.841343530100424" lon="8.281927713481876"><ele>5.0</ele><time>2026-05-02T09:29:49.999Z</time></trkpt><trkpt lat="40.841501429586316" lon="8.281837740942509"><ele>5.0</ele><time>2026-05-02T09:29:50.999Z</time></trkpt><trkpt lat="40.84164611057947" lon="8.281734613384131"><ele>5.0</ele><time>2026-05-02T09:29:51.999Z</time></trkpt><trkpt lat="40.84178277965037" lon="8.281606329709359"><ele>5.0</ele><time>2026-05-02T09:29:52.999Z</time></trkpt><trkpt lat="40.8419052457824" lon="8.281457558960694"><ele>4.333333333333334</ele><time>2026-05-02T09:29:53.999Z</time></trkpt><trkpt lat="40.84201260133345" lon="8.281294723397295"><ele>3.666666666666667</ele><time>2026-05-02T09:29:54.999Z</time></trkpt><trkpt lat="40.84211118741236" lon="8.281125414797568"><ele>3.0</ele><time>2026-05-02T09:29:55.999Z</time></trkpt><trkpt lat="40.84220550914483" lon="8.280950898332275"><ele>3.0</ele><time>2026-05-02T09:29:56.999Z</time></trkpt><trkpt lat="40.84229087537517" lon="8.280767141769765"><ele>3.0</ele><time>2026-05-02T09:29:57.999Z</time></trkpt><trkpt lat="40.842384426008564" lon="8.280569868727826"><ele>3.0</ele><time>2026-05-02T09:29:58.999Z</time></trkpt><trkpt lat="40.84248395249575" lon="8.280370146864986"><ele>3.333333333333333</ele><time>2026-05-02T09:29:59.999Z</time></trkpt><trkpt lat="40.8425878887926" lon="8.280167933106435"><ele>3.6666666666666665</ele><time>2026-05-02T09:30:00.999Z</time></trkpt><trkpt lat="40.842690187654405" lon="8.279968283633364"><ele>4.0</ele><time>2026-05-02T09:30:01.999Z</time></trkpt><trkpt lat="40.84278204113044" lon="8.279760373759794"><ele>7.333333333333334</ele><time>2026-05-02T09:30:02.999Z</time></trkpt><trkpt lat="40.842852548116426" lon="8.27955281389855"><ele>10.666666666666668</ele><time>2026-05-02T09:30:03.999Z</time></trkpt><trkpt lat="40.8429056554445" lon="8.279339384687136"><ele>14.0</ele><time>2026-05-02T09:30:04.999Z</time></trkpt><trkpt lat="40.842939010229834" lon="8.279113999803842"><ele>15.333333333333334</ele><time>2026-05-02T09:30:05.999Z</time></trkpt><trkpt lat="40.842973065282166" lon="8.27887554586819"><ele>16.666666666666668</ele><time>2026-05-02T09:30:06.999Z</time></trkpt><trkpt lat="40.84297927730004" lon="8.278628020475534"><ele>18.0</ele><time>2026-05-02T09:30:07.999Z</time></trkpt><trkpt lat="40.84300893854323" lon="8.2783720730907"><ele>18.333333333333332</ele><time>2026-05-02T09:30:08.999Z</time></trkpt><trkpt lat="40.84304661068288" lon="8.27809423383229"><ele>18.666666666666664</ele><time>2026-05-02T09:30:09.999Z</time></trkpt><trkpt lat="40.84307568647736" lon="8.277789261061724"><ele>19.0</ele><time>2026-05-02T09:30:10.999Z</time></trkpt><trkpt lat="40.84309170859836" lon="8.277453380945955"><ele>19.5</ele><time>2026-05-02T09:30:11.999Z</time></trkpt><trkpt lat="40.84313302050557" lon="8.27712332817537"><ele>20.0</ele><time>2026-05-02T09:30:12.999Z</time></trkpt><trkpt lat="40.843170432672345" lon="8.276796019199004"><ele>20.0</ele><time>2026-05-02T09:30:13.999Z</time></trkpt><trkpt lat="40.843194702398826" lon="8.27650326694063"><ele>20.0</ele><time>2026-05-02T09:30:14.999Z</time></trkpt><trkpt lat="40.84322098493433" lon="8.276229396388818"><ele>20.0</ele><time>2026-05-02T09:30:15.999Z</time></trkpt><trkpt lat="40.84323993037784" lon="8.275959019707281"><ele>20.333333333333336</ele><time>2026-05-02T09:30:16.999Z</time></trkpt><trkpt lat="40.84326322058863" lon="8.275681337383128"><ele>20.666666666666668</ele><time>2026-05-02T09:30:17.999Z</time></trkpt><trkpt lat="40.84326470221079" lon="8.27538784493587"><ele>21.0</ele><time>2026-05-02T09:30:18.999Z</time></trkpt><trkpt lat="40.84324898105417" lon="8.275080929747078"><ele>22.5</ele><time>2026-05-02T09:30:19.999Z</time></trkpt><trkpt lat="40.843204872788256" lon="8.274764566998208"><ele>24.0</ele><time>2026-05-02T09:30:20.999Z</time></trkpt><trkpt lat="40.8431339934281" lon="8.274451685661937"><ele>24.0</ele><time>2026-05-02T09:30:21.999Z</time></trkpt><trkpt lat="40.84304003456922" lon="8.2741379132758"><ele>24.0</ele><time>2026-05-02T09:30:22.999Z</time></trkpt><trkpt lat="40.84295776682891" lon="8.273814820670138"><ele>25.0</ele><time>2026-05-02T09:30:24Z</time></trkpt><trkpt lat="40.842861618647106" lon="8.273486703734077"><ele>26.0</ele><time>2026-05-02T09:30:25Z</time></trkpt><trkpt lat="40.84274804924008" lon="8.273160196748252"><ele>27.0</ele><time>2026-05-02T09:30:26Z</time></trkpt><trkpt lat="40.842651630687726" lon="8.272816979146617"><ele>28.0</ele><time>2026-05-02T09:30:27Z</time></trkpt><trkpt lat="40.84254916221848" lon="8.272472302431405"><ele>27.0</ele><time>2026-05-02T09:30:28Z</time></trkpt><trkpt lat="40.84244784466471" lon="8.272141434841364"><ele>26.0</ele><time>2026-05-02T09:30:29Z</time></trkpt><trkpt lat="40.84235537288143" lon="8.271819786196318"><ele>26.0</ele><time>2026-05-02T09:30:30Z</time></trkpt><trkpt lat="40.842264424148354" lon="8.271507461960189"><ele>26.0</ele><time>2026-05-02T09:30:31Z</time></trkpt><trkpt lat="40.84217274616699" lon="8.271191791159785"><ele>26.5</ele><time>2026-05-02T09:30:32Z</time></trkpt><trkpt lat="40.842077535062025" lon="8.270870520416612"><ele>27.0</ele><time>2026-05-02T09:30:33Z</time></trkpt><trkpt lat="40.841983785930594" lon="8.270549938888895"><ele>27.0</ele><time>2026-05-02T09:30:34Z</time></trkpt><trkpt lat="40.841898418519825" lon="8.27025734132983"><ele>27.0</ele><time>2026-05-02T09:30:35Z</time></trkpt><trkpt lat="40.84181580615261" lon="8.269975474047586"><ele>27.5</ele><time>2026-05-02T09:30:36Z</time></trkpt><trkpt lat="40.84173581274056" lon="8.269689937315855"><ele>28.0</ele><time>2026-05-02T09:30:37Z</time></trkpt><trkpt lat="40.84167608396217" lon="8.269384723498822"><ele>28.0</ele><time>2026-05-02T09:30:38Z</time></trkpt><trkpt lat="40.84161982541807" lon="8.269073526183023"><ele>28.0</ele><time>2026-05-02T09:30:39Z</time></trkpt><trkpt lat="40.84157682216107" lon="8.26876667326934"><ele>28.0</ele><time>2026-05-02T09:30:40Z</time></trkpt><trkpt lat="40.84154584381664" lon="8.268464498654737"><ele>28.0</ele><time>2026-05-02T09:30:41Z</time></trkpt><trkpt lat="40.841527764137446" lon="8.268175973421403"><ele>28.0</ele><time>2026-05-02T09:30:42Z</time></trkpt><trkpt lat="40.841496461744654" lon="8.267907252810735"><ele>28.0</ele><time>2026-05-02T09:30:43Z</time></trkpt><trkpt lat="40.84148509158643" lon="8.267646203680943"><ele>28.0</ele><time>2026-05-02T09:30:44Z</time></trkpt><trkpt lat="40.841470591344944" lon="8.267384766228146"><ele>28.333333333333336</ele><time>2026-05-02T09:30:45Z</time></trkpt><trkpt lat="40.84145325176722" lon="8.267135641418935"><ele>28.666666666666664</ele><time>2026-05-02T09:30:46Z</time></trkpt><trkpt lat="40.841437974927075" lon="8.266903759840618"><ele>29.0</ele><time>2026-05-02T09:30:46.999Z</time></trkpt><trkpt lat="40.841423817142136" lon="8.266665782300812"><ele>29.666666666666664</ele><time>2026-05-02T09:30:47.999Z</time></trkpt><trkpt lat="40.84140837991572" lon="8.266411213839124"><ele>30.333333333333336</ele><time>2026-05-02T09:30:48.999Z</time></trkpt><trkpt lat="40.84139040431377" lon="8.266142256455012"><ele>31.0</ele><time>2026-05-02T09:30:49.999Z</time></trkpt><trkpt lat="40.84138406143268" lon="8.265839087813584"><ele>31.0</ele><time>2026-05-02T09:30:50.999Z</time></trkpt><trkpt lat="40.841364893938156" lon="8.265527387113838"><ele>31.0</ele><time>2026-05-02T09:30:51.999Z</time></trkpt><trkpt lat="40.841345304664934" lon="8.265210082839682"><ele>31.0</ele><time>2026-05-02T09:30:52.999Z</time></trkpt><trkpt lat="40.841325263732685" lon="8.264885495680288"><ele>31.0</ele><time>2026-05-02T09:30:53.999Z</time></trkpt><trkpt lat="40.8413047260866" lon="8.264552863536663"><ele>31.0</ele><time>2026-05-02T09:30:54.999Z</time></trkpt><trkpt lat="40.841283785597994" lon="8.26421370700252"><ele>31.0</ele><time>2026-05-02T09:30:55.999Z</time></trkpt><trkpt lat="40.84126181350344" lon="8.263857842541174"><ele>31.0</ele><time>2026-05-02T09:30:56.999Z</time></trkpt><trkpt lat="40.841239252745396" lon="8.26349878724064"><ele>31.0</ele><time>2026-05-02T09:30:57.999Z</time></trkpt><trkpt lat="40.84121611602226" lon="8.263131529349018"><ele>31.0</ele><time>2026-05-02T09:30:58.999Z</time></trkpt><trkpt lat="40.84119218589092" lon="8.262751676906811"><ele>31.0</ele><time>2026-05-02T09:30:59.999Z</time></trkpt><trkpt lat="40.84116768647957" lon="8.262362788217166"><ele>31.0</ele><time>2026-05-02T09:31:00.999Z</time></trkpt><trkpt lat="40.84113011956176" lon="8.261988625890426"><ele>31.0</ele><time>2026-05-02T09:31:01.999Z</time></trkpt><trkpt lat="40.84110800187905" lon="8.261637496518802"><ele>31.5</ele><time>2026-05-02T09:31:02.999Z</time></trkpt><trkpt lat="40.84108738784817" lon="8.26130493185693"><ele>32.0</ele><time>2026-05-02T09:31:03.999Z</time></trkpt><trkpt lat="40.841068418783244" lon="8.260973196485194"><ele>32.0</ele><time>2026-05-02T09:31:04.999Z</time></trkpt><trkpt lat="40.84104823342412" lon="8.260639666796411"><ele>32.0</ele><time>2026-05-02T09:31:05.999Z</time></trkpt><trkpt lat="40.84102877170683" lon="8.260313661877266"><ele>33.0</ele><time>2026-05-02T09:31:06.999Z</time></trkpt><trkpt lat="40.84100651498967" lon="8.25999491999191"><ele>34.0</ele><time>2026-05-02T09:31:07.999Z</time></trkpt><trkpt lat="40.84098605994676" lon="8.259684188503915"><ele>34.0</ele><time>2026-05-02T09:31:08.999Z</time></trkpt><trkpt lat="40.84096771187686" lon="8.259381091791944"><ele>34.0</ele><time>2026-05-02T09:31:09.999Z</time></trkpt><trkpt lat="40.840949007586666" lon="8.259079107987668"><ele>34.5</ele><time>2026-05-02T09:31:10.999Z</time></trkpt><trkpt lat="40.840930428282405" lon="8.258773398024848"><ele>35.0</ele><time>2026-05-02T09:31:11.999Z</time></trkpt><trkpt lat="40.84090963018325" lon="8.25846172347832"><ele>35.0</ele><time>2026-05-02T09:31:12.999Z</time></trkpt><trkpt lat="40.84088669339969" lon="8.258158235420174"><ele>35.0</ele><time>2026-05-02T09:31:13.999Z</time></trkpt><trkpt lat="40.84085391361297" lon="8.257855528860494"><ele>34.5</ele><time>2026-05-02T09:31:14.999Z</time></trkpt><trkpt lat="40.84080244298585" lon="8.257551484906148"><ele>34.0</ele><time>2026-05-02T09:31:15.999Z</time></trkpt><trkpt lat="40.84072905017751" lon="8.25724957286848"><ele>33.5</ele><time>2026-05-02T09:31:16.999Z</time></trkpt><trkpt lat="40.84063829321985" lon="8.256946188345164"><ele>33.0</ele><time>2026-05-02T09:31:17.999Z</time></trkpt><trkpt lat="40.84053730313194" lon="8.256648781135619"><ele>33.0</ele><time>2026-05-02T09:31:18.999Z</time></trkpt><trkpt lat="40.840433574278904" lon="8.25635686834996"><ele>33.0</ele><time>2026-05-02T09:31:19.999Z</time></trkpt><trkpt lat="40.84033038980775" lon="8.256059821863643"><ele>33.0</ele><time>2026-05-02T09:31:20.999Z</time></trkpt><trkpt lat="40.84022757015498" lon="8.255748285297702"><ele>33.0</ele><time>2026-05-02T09:31:21.999Z</time></trkpt><trkpt lat="40.840118026926795" lon="8.25543130126805"><ele>32.5</ele><time>2026-05-02T09:31:22.999Z</time></trkpt><trkpt lat="40.840008400984686" lon="8.255107891091475"><ele>32.0</ele><time>2026-05-02T09:31:23.999Z</time></trkpt><trkpt lat="40.83989947274886" lon="8.25478425858041"><ele>32.0</ele><time>2026-05-02T09:31:24.999Z</time></trkpt><trkpt lat="40.83979383579158" lon="8.254465506915682"><ele>32.0</ele><time>2026-05-02T09:31:25.999Z</time></trkpt><trkpt lat="40.8396873518553" lon="8.254150197309425"><ele>32.0</ele><time>2026-05-02T09:31:26.999Z</time></trkpt><trkpt lat="40.8395794991526" lon="8.253835852375452"><ele>32.0</ele><time>2026-05-02T09:31:27.999Z</time></trkpt><trkpt lat="40.839469602312015" lon="8.253516511649691"><ele>32.0</ele><time>2026-05-02T09:31:28.999Z</time></trkpt><trkpt lat="40.83935705132444" lon="8.253191187440127"><ele>32.0</ele><time>2026-05-02T09:31:29.999Z</time></trkpt><trkpt lat="40.839243756918364" lon="8.252864750180633"><ele>32.0</ele><time>2026-05-02T09:31:30.999Z</time></trkpt><trkpt lat="40.8391304894057" lon="8.252535636249492"><ele>32.0</ele><time>2026-05-02T09:31:31.999Z</time></trkpt><trkpt lat="40.83901860753903" lon="8.252205882967935"><ele>32.0</ele><time>2026-05-02T09:31:32.999Z</time></trkpt><trkpt lat="40.83890638245316" lon="8.251875623715172"><ele>32.0</ele><time>2026-05-02T09:31:33.999Z</time></trkpt><trkpt lat="40.83879386024014" lon="8.251548634713478"><ele>32.5</ele><time>2026-05-02T09:31:34.999Z</time></trkpt><trkpt lat="40.83868018701481" lon="8.25122042893375"><ele>33.0</ele><time>2026-05-02T09:31:35.999Z</time></trkpt><trkpt lat="40.83856678323533" lon="8.250893895852096"><ele>33.0</ele><time>2026-05-02T09:31:36.999Z</time></trkpt><trkpt lat="40.838452965728834" lon="8.25056604411229"><ele>33.0</ele><time>2026-05-02T09:31:37.999Z</time></trkpt><trkpt lat="40.838339044941634" lon="8.250239353745904"><ele>33.0</ele><time>2026-05-02T09:31:38.999Z</time></trkpt><trkpt lat="40.83822685611859" lon="8.249907814556016"><ele>33.0</ele><time>2026-05-02T09:31:39.999Z</time></trkpt><trkpt lat="40.838115510522464" lon="8.24957412021556"><ele>33.0</ele><time>2026-05-02T09:31:40.999Z</time></trkpt><trkpt lat="40.83800411803421" lon="8.249242083654394"><ele>33.0</ele><time>2026-05-02T09:31:41.999Z</time></trkpt><trkpt lat="40.837891745640526" lon="8.248912170640898"><ele>33.5</ele><time>2026-05-02T09:31:42.999Z</time></trkpt><trkpt lat="40.837779371749534" lon="8.248586929397954"><ele>34.0</ele><time>2026-05-02T09:31:43.999Z</time></trkpt><trkpt lat="40.83767165221986" lon="8.248270851567232"><ele>35.5</ele><time>2026-05-02T09:31:44.999Z</time></trkpt><trkpt lat="40.83757271759519" lon="8.247980103565393"><ele>37.0</ele><time>2026-05-02T09:31:45.999Z</time></trkpt><trkpt lat="40.837485131574276" lon="8.247724030843806"><ele>37.0</ele><time>2026-05-02T09:31:46.999Z</time></trkpt><trkpt lat="40.83741139160464" lon="8.247505289218033"><ele>37.0</ele><time>2026-05-02T09:31:47.999Z</time></trkpt><trkpt lat="40.83733722921675" lon="8.247285663713077"><ele>37.0</ele><time>2026-05-02T09:31:48.999Z</time></trkpt><trkpt lat="40.83726607034274" lon="8.247082916106153"><ele>37.25</ele><time>2026-05-02T09:31:49.999Z</time></trkpt><trkpt lat="40.8372025326924" lon="8.246899488705155"><ele>37.5</ele><time>2026-05-02T09:31:50.999Z</time></trkpt><trkpt lat="40.83714243305292" lon="8.24672338304508"><ele>37.75</ele><time>2026-05-02T09:31:51.999Z</time></trkpt><trkpt lat="40.837084212937484" lon="8.246553904066948"><ele>38.0</ele><time>2026-05-02T09:31:52.999Z</time></trkpt><trkpt lat="40.83702744926487" lon="8.246389639952753"><ele>38.25</ele><time>2026-05-02T09:31:53.999Z</time></trkpt><trkpt lat="40.83696835904913" lon="8.24622321082395"><ele>38.5</ele><time>2026-05-02T09:31:54.999Z</time></trkpt><trkpt lat="40.83690920088324" lon="8.246047474811254"><ele>38.75</ele><time>2026-05-02T09:31:55.999Z</time></trkpt><trkpt lat="40.83684994137113" lon="8.245880273525254"><ele>39.0</ele><time>2026-05-02T09:31:56.999Z</time></trkpt><trkpt lat="40.83679865345656" lon="8.24572860157082"><ele>39.166666666666664</ele><time>2026-05-02T09:31:57.999Z</time></trkpt><trkpt lat="40.8367578048421" lon="8.245596092526108"><ele>39.333333333333336</ele><time>2026-05-02T09:31:58.999Z</time></trkpt><trkpt lat="40.83673608674386" lon="8.245476508577267"><ele>39.5</ele><time>2026-05-02T09:31:59.999Z</time></trkpt><trkpt lat="40.836741389232785" lon="8.24537411374335"><ele>39.66666666666667</ele><time>2026-05-02T09:32:00.999Z</time></trkpt><trkpt lat="40.836764172609655" lon="8.245291032650671"><ele>39.833333333333336</ele><time>2026-05-02T09:32:01.999Z</time></trkpt><trkpt lat="40.83678898579384" lon="8.245211700190463"><ele>40.0</ele><time>2026-05-02T09:32:02.999Z</time></trkpt><trkpt lat="40.83681018660814" lon="8.245122707410813"><ele>40.0</ele><time>2026-05-02T09:32:03.999Z</time></trkpt><trkpt lat="40.83680498432731" lon="8.245035043500897"><ele>40.0</ele><time>2026-05-02T09:32:04.999Z</time></trkpt><trkpt lat="40.83674318708207" lon="8.244908892174998"><ele>40.0</ele><time>2026-05-02T09:32:06.999Z</time></trkpt><trkpt lat="40.8366989278839" lon="8.244837621052808"><ele>40.0</ele><time>2026-05-02T09:32:07.999Z</time></trkpt><trkpt lat="40.83667846279826" lon="8.24473856543913"><ele>40.0</ele><time>2026-05-02T09:32:08.999Z</time></trkpt><trkpt lat="40.836683441191745" lon="8.244633236836918"><ele>40.0</ele><time>2026-05-02T09:32:09.999Z</time></trkpt><trkpt lat="40.83669754713972" lon="8.244530969823636"><ele>40.0</ele><time>2026-05-02T09:32:10.999Z</time></trkpt><trkpt lat="40.836716583748874" lon="8.244426828149424"><ele>40.0</ele><time>2026-05-02T09:32:11.999Z</time></trkpt><trkpt lat="40.83673802819031" lon="8.244327694290886"><ele>40.0</ele><time>2026-05-02T09:32:12.999Z</time></trkpt><trkpt lat="40.836758770610956" lon="8.244231052940444"><ele>40.0</ele><time>2026-05-02T09:32:13.999Z</time></trkpt><trkpt lat="40.83677722679307" lon="8.244137316380042"><ele>40.0</ele><time>2026-05-02T09:32:14.999Z</time></trkpt><trkpt lat="40.83680477211518" lon="8.244060115268036"><ele>40.0</ele><time>2026-05-02T09:32:15.999Z</time></trkpt><trkpt lat="40.83673869911526" lon="8.243972868659567"><ele>40.14285714285714</ele><time>2026-05-02T09:32:17.999Z</time></trkpt><trkpt lat="40.836666030148656" lon="8.243972223322752"><ele>40.285714285714285</ele><time>2026-05-02T09:32:19.999Z</time></trkpt><trkpt lat="40.836618751598934" lon="8.243900524741823"><ele>40.42857142857143</ele><time>2026-05-02T09:32:21.999Z</time></trkpt><trkpt lat="40.83654446390366" lon="8.2438867731135"><ele>40.57142857142857</ele><time>2026-05-02T09:32:25.999Z</time></trkpt><trkpt lat="40.836623345417344" lon="8.243850946739379"><ele>40.714285714285715</ele><time>2026-05-02T09:35:28.999Z</time></trkpt><trkpt lat="40.83658452178915" lon="8.243924557759168"><ele>40.857142857142854</ele><time>2026-05-02T10:01:50.999Z</time></trkpt><trkpt lat="40.83652559146907" lon="8.243956728213714"><ele>41.0</ele><time>2026-05-02T10:01:58Z</time></trkpt><trkpt lat="40.83656290321731" lon="8.244065327034019"><ele>41.0</ele><time>2026-05-02T10:07:15Z</time></trkpt><trkpt lat="40.836586192910225" lon="8.244167998944164"><ele>41.0</ele><time>2026-05-02T10:07:18.999Z</time></trkpt><trkpt lat="40.8366423866061" lon="8.244207034113831"><ele>41.0</ele><time>2026-05-02T10:07:38.999Z</time></trkpt><trkpt lat="40.83670812559385" lon="8.244241009794171"><ele>41.0</ele><time>2026-05-02T10:07:41.999Z</time></trkpt><trkpt lat="40.836723044647016" lon="8.244328514505733"><ele>41.0</ele><time>2026-05-02T10:07:43.999Z</time></trkpt><trkpt lat="40.836684568322546" lon="8.244466824415383"><ele>41.0</ele><time>2026-05-02T10:07:45.999Z</time></trkpt><trkpt lat="40.836653484007776" lon="8.244611470399759"><ele>41.0</ele><time>2026-05-02T10:07:47.999Z</time></trkpt><trkpt lat="40.836623424734164" lon="8.244760654706594"><ele>41.0</ele><time>2026-05-02T10:07:49.999Z</time></trkpt><trkpt lat="40.83658050628263" lon="8.244896274999883"><ele>41.0</ele><time>2026-05-02T10:07:51.999Z</time></trkpt><trkpt lat="40.83652853446669" lon="8.245017307365494"><ele>41.0</ele><time>2026-05-02T10:07:53.999Z</time></trkpt><trkpt lat="40.83652369671973" lon="8.245152097181004"><ele>41.0</ele><time>2026-05-02T10:07:55.999Z</time></trkpt><trkpt lat="40.83661307902271" lon="8.24526133329623"><ele>41.0</ele><time>2026-05-02T10:07:57.999Z</time></trkpt><trkpt lat="40.836677545126754" lon="8.24527498184797"><ele>41.0</ele><time>2026-05-02T10:07:58.999Z</time></trkpt><trkpt lat="40.83677444138173" lon="8.245209214319058"><ele>41.0</ele><time>2026-05-02T10:08:00.999Z</time></trkpt><trkpt lat="40.83685247696951" lon="8.24507106835887"><ele>41.0</ele><time>2026-05-02T10:08:02.999Z</time></trkpt><trkpt lat="40.83694463478796" lon="8.245025610580818"><ele>41.0</ele><time>2026-05-02T10:08:03.999Z</time></trkpt><trkpt lat="40.83701918101368" lon="8.244957530355796"><ele>41.0</ele><time>2026-05-02T10:08:04.999Z</time></trkpt><trkpt lat="40.837134600465504" lon="8.24494918659023"><ele>41.0</ele><time>2026-05-02T10:08:05.999Z</time></trkpt><trkpt lat="40.8372474437964" lon="8.244923997428215"><ele>41.0</ele><time>2026-05-02T10:08:06.999Z</time></trkpt><trkpt lat="40.83736335602881" lon="8.244899026724003"><ele>41.0</ele><time>2026-05-02T10:08:07.999Z</time></trkpt><trkpt lat="40.83747992456955" lon="8.244871298939897"><ele>41.0</ele><time>2026-05-02T10:08:08.999Z</time></trkpt><trkpt lat="40.837590862164745" lon="8.244850607707551"><ele>41.0</ele><time>2026-05-02T10:08:10Z</time></trkpt><trkpt lat="40.83768921035515" lon="8.244831350434218"><ele>41.0</ele><time>2026-05-02T10:08:11Z</time></trkpt><trkpt lat="40.83778677416215" lon="8.244809796126829"><ele>41.0</ele><time>2026-05-02T10:08:12Z</time></trkpt><trkpt lat="40.83788314003397" lon="8.244787734441589"><ele>41.0</ele><time>2026-05-02T10:08:13Z</time></trkpt><trkpt lat="40.837975116132306" lon="8.24477066646996"><ele>40.8</ele><time>2026-05-02T10:08:14Z</time></trkpt><trkpt lat="40.83805839529739" lon="8.244753817748318"><ele>40.599999999999994</ele><time>2026-05-02T10:08:15Z</time></trkpt><trkpt lat="40.83814030572749" lon="8.244729201276552"><ele>40.4</ele><time>2026-05-02T10:08:16Z</time></trkpt><trkpt lat="40.8382278771678" lon="8.244700335613118"><ele>40.2</ele><time>2026-05-02T10:08:17Z</time></trkpt><trkpt lat="40.838325073788035" lon="8.24466470838761"><ele>40.0</ele><time>2026-05-02T10:08:18Z</time></trkpt><trkpt lat="40.83844731335957" lon="8.24461785405321"><ele>39.333333333333336</ele><time>2026-05-02T10:08:19Z</time></trkpt><trkpt lat="40.83860206995032" lon="8.244586387179957"><ele>38.666666666666664</ele><time>2026-05-02T10:08:20Z</time></trkpt><trkpt lat="40.83876514537761" lon="8.244513201370205"><ele>38.0</ele><time>2026-05-02T10:08:21Z</time></trkpt><trkpt lat="40.838946277516825" lon="8.244469714849975"><ele>38.0</ele><time>2026-05-02T10:08:22Z</time></trkpt><trkpt lat="40.8391376514958" lon="8.244405048066582"><ele>38.0</ele><time>2026-05-02T10:08:23Z</time></trkpt><trkpt lat="40.839340199625" lon="8.24433606491267"><ele>38.0</ele><time>2026-05-02T10:08:24Z</time></trkpt><trkpt lat="40.83954482016914" lon="8.244264216730311"><ele>38.0</ele><time>2026-05-02T10:08:25Z</time></trkpt><trkpt lat="40.839722557653644" lon="8.244202736352879"><ele>38.0</ele><time>2026-05-02T10:08:26Z</time></trkpt><trkpt lat="40.839890058158765" lon="8.2441485336985"><ele>38.0</ele><time>2026-05-02T10:08:26.999Z</time></trkpt><trkpt lat="40.84004206658959" lon="8.244093261772766"><ele>38.33333333333333</ele><time>2026-05-02T10:08:27.999Z</time></trkpt><trkpt lat="40.84019882853351" lon="8.244049787470331"><ele>38.666666666666664</ele><time>2026-05-02T10:08:28.999Z</time></trkpt><trkpt lat="40.840366098403756" lon="8.244007507108964"><ele>39.0</ele><time>2026-05-02T10:08:29.999Z</time></trkpt><trkpt lat="40.84053992926674" lon="8.243979774559813"><ele>39.0</ele><time>2026-05-02T10:08:30.999Z</time></trkpt><trkpt lat="40.840701014822606" lon="8.243964413022391"><ele>39.0</ele><time>2026-05-02T10:08:31.999Z</time></trkpt><trkpt lat="40.840864424681705" lon="8.243948967098047"><ele>39.0</ele><time>2026-05-02T10:08:32.999Z</time></trkpt><trkpt lat="40.84102685088647" lon="8.243936932328076"><ele>39.333333333333336</ele><time>2026-05-02T10:08:33.999Z</time></trkpt><trkpt lat="40.84119626261964" lon="8.243959057282106"><ele>39.66666666666667</ele><time>2026-05-02T10:08:34.999Z</time></trkpt><trkpt lat="40.8413964691613" lon="8.243970748334284"><ele>40.0</ele><time>2026-05-02T10:08:35.999Z</time></trkpt><trkpt lat="40.84160135304895" lon="8.243969860206187"><ele>40.0</ele><time>2026-05-02T10:08:36.999Z</time></trkpt><trkpt lat="40.841787818278036" lon="8.24399403455536"><ele>40.0</ele><time>2026-05-02T10:08:37.999Z</time></trkpt><trkpt lat="40.84196123775923" lon="8.244007537112912"><ele>40.0</ele><time>2026-05-02T10:08:38.999Z</time></trkpt><trkpt lat="40.84213866532249" lon="8.244015905100811"><ele>39.333333333333336</ele><time>2026-05-02T10:08:39.999Z</time></trkpt><trkpt lat="40.842316077672635" lon="8.244010071550257"><ele>38.666666666666664</ele><time>2026-05-02T10:08:40.999Z</time></trkpt><trkpt lat="40.84249002104482" lon="8.243986796076182"><ele>38.0</ele><time>2026-05-02T10:08:41.999Z</time></trkpt><trkpt lat="40.84266703722192" lon="8.243943566105102"><ele>36.33333333333333</ele><time>2026-05-02T10:08:42.999Z</time></trkpt><trkpt lat="40.84285870654918" lon="8.243879817708239"><ele>34.666666666666664</ele><time>2026-05-02T10:08:43.999Z</time></trkpt><trkpt lat="40.843061766503034" lon="8.243803385756356"><ele>33.0</ele><time>2026-05-02T10:08:44.999Z</time></trkpt><trkpt lat="40.84328432692834" lon="8.24371858661571"><ele>31.5</ele><time>2026-05-02T10:08:45.999Z</time></trkpt><trkpt lat="40.84351613189455" lon="8.243621624980763"><ele>30.0</ele><time>2026-05-02T10:08:46.999Z</time></trkpt><trkpt lat="40.84374679252663" lon="8.243526489550577"><ele>30.0</ele><time>2026-05-02T10:08:47.999Z</time></trkpt><trkpt lat="40.84397481959112" lon="8.243427210697089"><ele>30.0</ele><time>2026-05-02T10:08:48.999Z</time></trkpt><trkpt lat="40.844185491730066" lon="8.243328432224303"><ele>31.333333333333336</ele><time>2026-05-02T10:08:49.999Z</time></trkpt><trkpt lat="40.84438053719272" lon="8.243239707451101"><ele>32.66666666666667</ele><time>2026-05-02T10:08:50.999Z</time></trkpt><trkpt lat="40.84457396420596" lon="8.243154696987503"><ele>34.0</ele><time>2026-05-02T10:08:51.999Z</time></trkpt><trkpt lat="40.84476632405504" lon="8.243069294791347"><ele>34.0</ele><time>2026-05-02T10:08:52.999Z</time></trkpt><trkpt lat="40.84495492391486" lon="8.242985288947743"><ele>34.0</ele><time>2026-05-02T10:08:53.999Z</time></trkpt><trkpt lat="40.845141084271724" lon="8.242901782071497"><ele>34.0</ele><time>2026-05-02T10:08:54.999Z</time></trkpt><trkpt lat="40.84532800857586" lon="8.24281636507708"><ele>35.333333333333336</ele><time>2026-05-02T10:08:55.999Z</time></trkpt><trkpt lat="40.84551938498797" lon="8.242732773359009"><ele>36.666666666666664</ele><time>2026-05-02T10:08:56.999Z</time></trkpt><trkpt lat="40.84570863918907" lon="8.24265300527836"><ele>38.0</ele><time>2026-05-02T10:08:57.999Z</time></trkpt><trkpt lat="40.84589347767328" lon="8.242577175715896"><ele>38.33333333333333</ele><time>2026-05-02T10:08:58.999Z</time></trkpt><trkpt lat="40.84607877299939" lon="8.242498817488098"><ele>38.666666666666664</ele><time>2026-05-02T10:08:59.999Z</time></trkpt><trkpt lat="40.846262456958364" lon="8.2424207923035"><ele>39.0</ele><time>2026-05-02T10:09:00.999Z</time></trkpt><trkpt lat="40.84643925702609" lon="8.24234156059253"><ele>39.0</ele><time>2026-05-02T10:09:01.999Z</time></trkpt><trkpt lat="40.84661647290022" lon="8.242263951724679"><ele>39.0</ele><time>2026-05-02T10:09:02.999Z</time></trkpt><trkpt lat="40.846798964794175" lon="8.242189049711625"><ele>39.0</ele><time>2026-05-02T10:09:03.999Z</time></trkpt><trkpt lat="40.84699006790231" lon="8.242133426929596"><ele>39.0</ele><time>2026-05-02T10:09:04.999Z</time></trkpt><trkpt lat="40.847185879224575" lon="8.242098405737925"><ele>39.0</ele><time>2026-05-02T10:09:05.999Z</time></trkpt><trkpt lat="40.847381832543235" lon="8.24208847049309"><ele>39.0</ele><time>2026-05-02T10:09:06.999Z</time></trkpt><trkpt lat="40.84757831612094" lon="8.242102188062123"><ele>39.333333333333336</ele><time>2026-05-02T10:09:07.999Z</time></trkpt><trkpt lat="40.84777546926411" lon="8.24213098997773"><ele>39.66666666666667</ele><time>2026-05-02T10:09:08.999Z</time></trkpt><trkpt lat="40.84796596569959" lon="8.242183944583116"><ele>40.0</ele><time>2026-05-02T10:09:09.999Z</time></trkpt><trkpt lat="40.84815535976994" lon="8.242238500690455"><ele>40.0</ele><time>2026-05-02T10:09:10.999Z</time></trkpt><trkpt lat="40.84835236031204" lon="8.242287881444724"><ele>40.0</ele><time>2026-05-02T10:09:11.999Z</time></trkpt><trkpt lat="40.84854912619791" lon="8.242338362823153"><ele>40.0</ele><time>2026-05-02T10:09:12.999Z</time></trkpt><trkpt lat="40.84874845261547" lon="8.242400369165576"><ele>39.66666666666667</ele><time>2026-05-02T10:09:13.999Z</time></trkpt><trkpt lat="40.84893611796025" lon="8.242460317807286"><ele>39.333333333333336</ele><time>2026-05-02T10:09:14.999Z</time></trkpt><trkpt lat="40.84910827231743" lon="8.24251477420298"><ele>39.0</ele><time>2026-05-02T10:09:15.999Z</time></trkpt><trkpt lat="40.84927345377451" lon="8.242569638389169"><ele>39.0</ele><time>2026-05-02T10:09:16.999Z</time></trkpt><trkpt lat="40.84943584934977" lon="8.242616773362604"><ele>39.0</ele><time>2026-05-02T10:09:17.999Z</time></trkpt><trkpt lat="40.84961072668859" lon="8.242661412717043"><ele>39.0</ele><time>2026-05-02T10:09:18.999Z</time></trkpt><trkpt lat="40.84979273457509" lon="8.242694802034665"><ele>39.0</ele><time>2026-05-02T10:09:19.999Z</time></trkpt><trkpt lat="40.849978789520364" lon="8.242711519158435"><ele>39.0</ele><time>2026-05-02T10:09:20.999Z</time></trkpt><trkpt lat="40.850165841030666" lon="8.242708545577946"><ele>39.0</ele><time>2026-05-02T10:09:21.999Z</time></trkpt><trkpt lat="40.85035381118113" lon="8.242692781890176"><ele>38.0</ele><time>2026-05-02T10:09:22.999Z</time></trkpt><trkpt lat="40.850543341340575" lon="8.242671640028579"><ele>37.0</ele><time>2026-05-02T10:09:23.999Z</time></trkpt><trkpt lat="40.850734420271344" lon="8.242642009390412"><ele>36.0</ele><time>2026-05-02T10:09:24.999Z</time></trkpt><trkpt lat="40.85092925071958" lon="8.242609455874389"><ele>34.333333333333336</ele><time>2026-05-02T10:09:25.999Z</time></trkpt><trkpt lat="40.851124360119705" lon="8.242580846713288"><ele>32.66666666666667</ele><time>2026-05-02T10:09:26.999Z</time></trkpt><trkpt lat="40.85131039985482" lon="8.242556362364555"><ele>31.0</ele><time>2026-05-02T10:09:27.999Z</time></trkpt><trkpt lat="40.851490209123604" lon="8.24253270552919"><ele>31.0</ele><time>2026-05-02T10:09:28.999Z</time></trkpt><trkpt lat="40.85166264784177" lon="8.24250790386065"><ele>31.0</ele><time>2026-05-02T10:09:29.999Z</time></trkpt><trkpt lat="40.851839380658284" lon="8.242482003235612"><ele>31.0</ele><time>2026-05-02T10:09:30.999Z</time></trkpt><trkpt lat="40.852021647055324" lon="8.242457637539575"><ele>29.666666666666668</ele><time>2026-05-02T10:09:31.999Z</time></trkpt><trkpt lat="40.85220560268688" lon="8.242433579372062"><ele>28.333333333333336</ele><time>2026-05-02T10:09:32.999Z</time></trkpt><trkpt lat="40.852391269082716" lon="8.242409209131335"><ele>27.0</ele><time>2026-05-02T10:09:33.999Z</time></trkpt><trkpt lat="40.85258021799887" lon="8.242387256541521"><ele>26.666666666666664</ele><time>2026-05-02T10:09:34.999Z</time></trkpt><trkpt lat="40.85276982338991" lon="8.242365621449371"><ele>26.333333333333332</ele><time>2026-05-02T10:09:35.999Z</time></trkpt><trkpt lat="40.85296142888501" lon="8.242341006250854"><ele>26.0</ele><time>2026-05-02T10:09:36.999Z</time></trkpt><trkpt lat="40.85315660203228" lon="8.242313188793917"><ele>26.0</ele><time>2026-05-02T10:09:37.999Z</time></trkpt><trkpt lat="40.85335820764301" lon="8.242284878918243"><ele>26.0</ele><time>2026-05-02T10:09:38.999Z</time></trkpt><trkpt lat="40.85356737863354" lon="8.242271007950835"><ele>26.0</ele><time>2026-05-02T10:09:39.999Z</time></trkpt><trkpt lat="40.853774215791304" lon="8.242224141567451"><ele>26.333333333333332</ele><time>2026-05-02T10:09:40.999Z</time></trkpt><trkpt lat="40.85398952263894" lon="8.242198267355503"><ele>26.666666666666664</ele><time>2026-05-02T10:09:41.999Z</time></trkpt><trkpt lat="40.85420649506327" lon="8.242176801779598"><ele>27.0</ele><time>2026-05-02T10:09:42.999Z</time></trkpt><trkpt lat="40.85442634372852" lon="8.242148962730672"><ele>27.0</ele><time>2026-05-02T10:09:43.999Z</time></trkpt><trkpt lat="40.85464370565777" lon="8.242121119861118"><ele>27.0</ele><time>2026-05-02T10:09:44.999Z</time></trkpt><trkpt lat="40.85486541836288" lon="8.242089076046701"><ele>27.0</ele><time>2026-05-02T10:09:45.999Z</time></trkpt><trkpt lat="40.85509085273716" lon="8.242056528056743"><ele>27.0</ele><time>2026-05-02T10:09:46.999Z</time></trkpt><trkpt lat="40.855317310158526" lon="8.24202678286144"><ele>27.0</ele><time>2026-05-02T10:09:47.999Z</time></trkpt><trkpt lat="40.85554435687111" lon="8.241998844346485"><ele>27.0</ele><time>2026-05-02T10:09:48.999Z</time></trkpt><trkpt lat="40.85577122886377" lon="8.241965451672456"><ele>27.0</ele><time>2026-05-02T10:09:49.999Z</time></trkpt><trkpt lat="40.855997154109495" lon="8.241933462375183"><ele>27.0</ele><time>2026-05-02T10:09:50.999Z</time></trkpt><trkpt lat="40.85621000380053" lon="8.241904493889649"><ele>27.0</ele><time>2026-05-02T10:09:51.999Z</time></trkpt><trkpt lat="40.85640621713857" lon="8.24187334405116"><ele>27.0</ele><time>2026-05-02T10:09:52.999Z</time></trkpt><trkpt lat="40.85660353021752" lon="8.241838904375323"><ele>28.0</ele><time>2026-05-02T10:09:53.999Z</time></trkpt><trkpt lat="40.85700241533289" lon="8.241694402661492"><ele>29.0</ele><time>2026-05-02T10:09:55.999Z</time></trkpt><trkpt lat="40.85719165599185" lon="8.241580177049071"><ele>28.666666666666664</ele><time>2026-05-02T10:09:56.999Z</time></trkpt><trkpt lat="40.85737045625019" lon="8.241453912551997"><ele>28.333333333333336</ele><time>2026-05-02T10:09:57.999Z</time></trkpt><trkpt lat="40.857537423758224" lon="8.241316172522941"><ele>28.0</ele><time>2026-05-02T10:09:58.999Z</time></trkpt><trkpt lat="40.857697038183716" lon="8.241172670504321"><ele>29.0</ele><time>2026-05-02T10:09:59.999Z</time></trkpt><trkpt lat="40.857853184009976" lon="8.241029149174373"><ele>30.0</ele><time>2026-05-02T10:10:00.999Z</time></trkpt><trkpt lat="40.858012031831706" lon="8.240889087726462"><ele>31.0</ele><time>2026-05-02T10:10:01.999Z</time></trkpt><trkpt lat="40.85817631680545" lon="8.240746271243315"><ele>30.666666666666668</ele><time>2026-05-02T10:10:02.999Z</time></trkpt><trkpt lat="40.85834528890553" lon="8.240600401279705"><ele>30.333333333333336</ele><time>2026-05-02T10:10:03.999Z</time></trkpt><trkpt lat="40.85851098165813" lon="8.240456205876816"><ele>30.0</ele><time>2026-05-02T10:10:04.999Z</time></trkpt><trkpt lat="40.858663264013934" lon="8.240326007381285"><ele>30.0</ele><time>2026-05-02T10:10:05.999Z</time></trkpt><trkpt lat="40.858805978111945" lon="8.240201271294657"><ele>30.0</ele><time>2026-05-02T10:10:06.999Z</time></trkpt><trkpt lat="40.85894368478105" lon="8.240078789651776"><ele>30.0</ele><time>2026-05-02T10:10:07.999Z</time></trkpt><trkpt lat="40.85909047527213" lon="8.23994845155853"><ele>30.0</ele><time>2026-05-02T10:10:08.999Z</time></trkpt><trkpt lat="40.85924848133259" lon="8.239818764387364"><ele>30.0</ele><time>2026-05-02T10:10:09.999Z</time></trkpt><trkpt lat="40.85941660621744" lon="8.239696672795766"><ele>30.0</ele><time>2026-05-02T10:10:10.999Z</time></trkpt><trkpt lat="40.85959094811991" lon="8.239598297543786"><ele>29.666666666666664</ele><time>2026-05-02T10:10:11.999Z</time></trkpt><trkpt lat="40.85977613210252" lon="8.239518077714466"><ele>29.333333333333332</ele><time>2026-05-02T10:10:12.999Z</time></trkpt><trkpt lat="40.859959234104686" lon="8.239444029478829"><ele>29.0</ele><time>2026-05-02T10:10:13.999Z</time></trkpt><trkpt lat="40.86015869961304" lon="8.239392748647411"><ele>28.333333333333332</ele><time>2026-05-02T10:10:14.999Z</time></trkpt><trkpt lat="40.86036823704757" lon="8.239356224763538"><ele>27.666666666666664</ele><time>2026-05-02T10:10:15.999Z</time></trkpt><trkpt lat="40.86058255918079" lon="8.239318792819786"><ele>27.0</ele><time>2026-05-02T10:10:16.999Z</time></trkpt><trkpt lat="40.8607980757933" lon="8.239283410338047"><ele>27.666666666666664</ele><time>2026-05-02T10:10:17.999Z</time></trkpt><trkpt lat="40.8610180735752" lon="8.239246612224495"><ele>28.333333333333332</ele><time>2026-05-02T10:10:18.999Z</time></trkpt><trkpt lat="40.861235943233446" lon="8.239207115903604"><ele>29.0</ele><time>2026-05-02T10:10:19.999Z</time></trkpt><trkpt lat="40.861449833300775" lon="8.239170815660714"><ele>29.0</ele><time>2026-05-02T10:10:20.999Z</time></trkpt><trkpt lat="40.86166426911757" lon="8.239139690664464"><ele>29.0</ele><time>2026-05-02T10:10:21.999Z</time></trkpt><trkpt lat="40.86186812263692" lon="8.239100446569173"><ele>29.0</ele><time>2026-05-02T10:10:22.999Z</time></trkpt><trkpt lat="40.86208041684175" lon="8.239069849302686"><ele>28.333333333333332</ele><time>2026-05-02T10:10:23.999Z</time></trkpt><trkpt lat="40.86228146984663" lon="8.239035102412824"><ele>27.666666666666664</ele><time>2026-05-02T10:10:24.999Z</time></trkpt><trkpt lat="40.86248185280693" lon="8.239004308683398"><ele>27.0</ele><time>2026-05-02T10:10:25.999Z</time></trkpt><trkpt lat="40.86267832462639" lon="8.23896832071248"><ele>27.333333333333336</ele><time>2026-05-02T10:10:26.999Z</time></trkpt><trkpt lat="40.862870975895" lon="8.238923916863639"><ele>27.666666666666668</ele><time>2026-05-02T10:10:27.999Z</time></trkpt><trkpt lat="40.86305924738976" lon="8.238869403669867"><ele>28.0</ele><time>2026-05-02T10:10:28.999Z</time></trkpt><trkpt lat="40.86324030382636" lon="8.238805843472479"><ele>28.0</ele><time>2026-05-02T10:10:29.999Z</time></trkpt><trkpt lat="40.86340731451734" lon="8.2387380325377"><ele>28.0</ele><time>2026-05-02T10:10:30.999Z</time></trkpt><trkpt lat="40.863566236219675" lon="8.238661623079183"><ele>28.0</ele><time>2026-05-02T10:10:31.999Z</time></trkpt><trkpt lat="40.86373751891429" lon="8.238579041764458"><ele>26.333333333333336</ele><time>2026-05-02T10:10:32.999Z</time></trkpt><trkpt lat="40.86391163518887" lon="8.238488877782833"><ele>24.666666666666668</ele><time>2026-05-02T10:10:33.999Z</time></trkpt><trkpt lat="40.86409376407469" lon="8.23839733185346"><ele>23.0</ele><time>2026-05-02T10:10:34.999Z</time></trkpt><trkpt lat="40.86428214625913" lon="8.238308960520158"><ele>22.666666666666668</ele><time>2026-05-02T10:10:35.999Z</time></trkpt><trkpt lat="40.864474130587745" lon="8.23821949889716"><ele>22.333333333333332</ele><time>2026-05-02T10:10:36.999Z</time></trkpt><trkpt lat="40.86466741659896" lon="8.238131174312757"><ele>22.0</ele><time>2026-05-02T10:10:37.999Z</time></trkpt><trkpt lat="40.86484921158332" lon="8.238039162580796"><ele>22.0</ele><time>2026-05-02T10:10:38.999Z</time></trkpt><trkpt lat="40.86501923715672" lon="8.237960377776995"><ele>22.0</ele><time>2026-05-02T10:10:39.999Z</time></trkpt><trkpt lat="40.865177406502845" lon="8.237881540593362"><ele>22.0</ele><time>2026-05-02T10:10:40.999Z</time></trkpt><trkpt lat="40.86532933809595" lon="8.237807367657064"><ele>21.5</ele><time>2026-05-02T10:10:41.999Z</time></trkpt><trkpt lat="40.8654720847717" lon="8.237747470914364"><ele>21.0</ele><time>2026-05-02T10:10:42.999Z</time></trkpt><trkpt lat="40.865591105053284" lon="8.237689628843516"><ele>20.5</ele><time>2026-05-02T10:10:44Z</time></trkpt><trkpt lat="40.86570114968655" lon="8.23763501686905"><ele>20.0</ele><time>2026-05-02T10:10:45Z</time></trkpt><trkpt lat="40.86580605844279" lon="8.23759336422462"><ele>20.0</ele><time>2026-05-02T10:10:46Z</time></trkpt><trkpt lat="40.86590582897634" lon="8.237556790104465"><ele>20.0</ele><time>2026-05-02T10:10:47Z</time></trkpt><trkpt lat="40.86597638412349" lon="8.237559047441238"><ele>20.0</ele><time>2026-05-02T10:10:48Z</time></trkpt><trkpt lat="40.866078517548644" lon="8.237552309518184"><ele>20.0</ele><time>2026-05-02T10:10:49Z</time></trkpt><trkpt lat="40.86615558953555" lon="8.237580487759004"><ele>20.0</ele><time>2026-05-02T10:10:50Z</time></trkpt><trkpt lat="40.86623240123724" lon="8.237609871928095"><ele>20.0</ele><time>2026-05-02T10:10:51Z</time></trkpt><trkpt lat="40.866313196527166" lon="8.23761718826634"><ele>19.8</ele><time>2026-05-02T10:10:52Z</time></trkpt><trkpt lat="40.86639399467836" lon="8.237579589585993"><ele>19.6</ele><time>2026-05-02T10:10:53Z</time></trkpt><trkpt lat="40.86646169414313" lon="8.237505212689493"><ele>19.4</ele><time>2026-05-02T10:10:54Z</time></trkpt><trkpt lat="40.86651187487429" lon="8.237401380673793"><ele>19.2</ele><time>2026-05-02T10:10:55Z</time></trkpt><trkpt lat="40.866556586673816" lon="8.23727521078923"><ele>19.0</ele><time>2026-05-02T10:10:56Z</time></trkpt><trkpt lat="40.866635682443125" lon="8.237174490711496"><ele>19.0</ele><time>2026-05-02T10:10:57Z</time></trkpt><trkpt lat="40.86674417733401" lon="8.237104614822066"><ele>19.0</ele><time>2026-05-02T10:10:58Z</time></trkpt><trkpt lat="40.86688138174773" lon="8.237044674486297"><ele>19.0</ele><time>2026-05-02T10:10:59Z</time></trkpt><trkpt lat="40.86702375324893" lon="8.236974426229589"><ele>19.0</ele><time>2026-05-02T10:11:00Z</time></trkpt><trkpt lat="40.867170281216424" lon="8.236905712869289"><ele>19.0</ele><time>2026-05-02T10:11:01Z</time></trkpt><trkpt lat="40.86731030058234" lon="8.236834796885441"><ele>19.0</ele><time>2026-05-02T10:11:02Z</time></trkpt><trkpt lat="40.867456400235085" lon="8.236741998301541"><ele>19.0</ele><time>2026-05-02T10:11:03Z</time></trkpt><trkpt lat="40.8676414788682" lon="8.236643000746243"><ele>19.5</ele><time>2026-05-02T10:11:04Z</time></trkpt><trkpt lat="40.86785178282138" lon="8.236540173470333"><ele>20.0</ele><time>2026-05-02T10:11:05Z</time></trkpt><trkpt lat="40.8680688406174" lon="8.236419349412714"><ele>20.5</ele><time>2026-05-02T10:11:06Z</time></trkpt><trkpt lat="40.86827964473843" lon="8.236297414673546"><ele>21.0</ele><time>2026-05-02T10:11:07Z</time></trkpt><trkpt lat="40.86849007259375" lon="8.236190355930503"><ele>21.0</ele><time>2026-05-02T10:11:08Z</time></trkpt><trkpt lat="40.86868651708046" lon="8.236070996850827"><ele>21.0</ele><time>2026-05-02T10:11:09Z</time></trkpt><trkpt lat="40.8688955383683" lon="8.235944663575744"><ele>21.0</ele><time>2026-05-02T10:11:10Z</time></trkpt><trkpt lat="40.8691174234745" lon="8.23582732610778"><ele>20.5</ele><time>2026-05-02T10:11:11Z</time></trkpt><trkpt lat="40.86934118038443" lon="8.235717692070123"><ele>20.0</ele><time>2026-05-02T10:11:12Z</time></trkpt><trkpt lat="40.86955901976475" lon="8.235600855048887"><ele>20.0</ele><time>2026-05-02T10:11:13Z</time></trkpt><trkpt lat="40.86975827908789" lon="8.235488988977211"><ele>20.0</ele><time>2026-05-02T10:11:14Z</time></trkpt><trkpt lat="40.86994379929995" lon="8.235382644009208"><ele>20.0</ele><time>2026-05-02T10:11:15Z</time></trkpt><trkpt lat="40.8701185653951" lon="8.235283714554878"><ele>19.0</ele><time>2026-05-02T10:11:16Z</time></trkpt><trkpt lat="40.87028614387339" lon="8.235190324424458"><ele>18.0</ele><time>2026-05-02T10:11:17Z</time></trkpt><trkpt lat="40.8704453673797" lon="8.23510828096052"><ele>17.0</ele><time>2026-05-02T10:11:18Z</time></trkpt><trkpt lat="40.87060740991343" lon="8.235037401714019"><ele>17.0</ele><time>2026-05-02T10:11:19Z</time></trkpt><trkpt lat="40.870779360353936" lon="8.234986220391336"><ele>17.0</ele><time>2026-05-02T10:11:20Z</time></trkpt><trkpt lat="40.87095739911482" lon="8.23494831411608"><ele>17.0</ele><time>2026-05-02T10:11:21Z</time></trkpt><trkpt lat="40.87114021867524" lon="8.234927195211961"><ele>16.666666666666668</ele><time>2026-05-02T10:11:22Z</time></trkpt><trkpt lat="40.871322530833716" lon="8.234925814640894"><ele>16.333333333333332</ele><time>2026-05-02T10:11:23Z</time></trkpt><trkpt lat="40.87150363207252" lon="8.23493148987875"><ele>16.0</ele><time>2026-05-02T10:11:24Z</time></trkpt><trkpt lat="40.87167251251052" lon="8.234939218550728"><ele>15.333333333333332</ele><time>2026-05-02T10:11:25Z</time></trkpt><trkpt lat="40.87183477136112" lon="8.23494621980834"><ele>14.666666666666668</ele><time>2026-05-02T10:11:26Z</time></trkpt><trkpt lat="40.87201166541335" lon="8.23494939175404"><ele>14.0</ele><time>2026-05-02T10:11:27Z</time></trkpt><trkpt lat="40.872204901206835" lon="8.234947674287117"><ele>14.0</ele><time>2026-05-02T10:11:28Z</time></trkpt><trkpt lat="40.8723979094393" lon="8.234952390467331"><ele>14.0</ele><time>2026-05-02T10:11:28.999Z</time></trkpt><trkpt lat="40.87259148351804" lon="8.234953478170633"><ele>14.0</ele><time>2026-05-02T10:11:29.999Z</time></trkpt><trkpt lat="40.87278048547148" lon="8.234956782565876"><ele>14.0</ele><time>2026-05-02T10:11:30.999Z</time></trkpt><trkpt lat="40.872967523433985" lon="8.234964267983932"><ele>14.0</ele><time>2026-05-02T10:11:31.999Z</time></trkpt><trkpt lat="40.87314686363849" lon="8.234970295454822"><ele>14.0</ele><time>2026-05-02T10:11:32.999Z</time></trkpt><trkpt lat="40.873322036140785" lon="8.234987837843914"><ele>14.666666666666668</ele><time>2026-05-02T10:11:33.999Z</time></trkpt><trkpt lat="40.873489403319255" lon="8.235006987302045"><ele>15.333333333333332</ele><time>2026-05-02T10:11:34.999Z</time></trkpt><trkpt lat="40.8736544374196" lon="8.23503131707072"><ele>16.0</ele><time>2026-05-02T10:11:35.999Z</time></trkpt><trkpt lat="40.87381485669617" lon="8.235054186017246"><ele>16.0</ele><time>2026-05-02T10:11:36.999Z</time></trkpt><trkpt lat="40.873973420804454" lon="8.235072792730792"><ele>16.0</ele><time>2026-05-02T10:11:37.999Z</time></trkpt><trkpt lat="40.874149846590335" lon="8.235090554620543"><ele>16.0</ele><time>2026-05-02T10:11:38.999Z</time></trkpt><trkpt lat="40.87434789631621" lon="8.235115111370439"><ele>16.0</ele><time>2026-05-02T10:11:39.999Z</time></trkpt><trkpt lat="40.874561686616204" lon="8.235152398077947"><ele>16.0</ele><time>2026-05-02T10:11:40.999Z</time></trkpt><trkpt lat="40.87478824707619" lon="8.235197571017293"><ele>16.0</ele><time>2026-05-02T10:11:41.999Z</time></trkpt><trkpt lat="40.87502757545038" lon="8.235243216349884"><ele>15.0</ele><time>2026-05-02T10:11:42.999Z</time></trkpt><trkpt lat="40.87527920101089" lon="8.235297317502669"><ele>14.0</ele><time>2026-05-02T10:11:43.999Z</time></trkpt><trkpt lat="40.875542634873376" lon="8.235343595030923"><ele>14.0</ele><time>2026-05-02T10:11:44.999Z</time></trkpt><trkpt lat="40.875818235711954" lon="8.235394453482805"><ele>14.0</ele><time>2026-05-02T10:11:45.999Z</time></trkpt><trkpt lat="40.87610125339053" lon="8.235471180161525"><ele>13.5</ele><time>2026-05-02T10:11:46.999Z</time></trkpt><trkpt lat="40.87639536464576" lon="8.235529161845436"><ele>13.0</ele><time>2026-05-02T10:11:47.999Z</time></trkpt><trkpt lat="40.87669309206521" lon="8.235566659202895"><ele>13.0</ele><time>2026-05-02T10:11:48.999Z</time></trkpt><trkpt lat="40.87698268123806" lon="8.235630772581905"><ele>13.0</ele><time>2026-05-02T10:11:49.999Z</time></trkpt><trkpt lat="40.877260492668526" lon="8.235696100162233"><ele>12.5</ele><time>2026-05-02T10:11:50.999Z</time></trkpt><trkpt lat="40.87753129833214" lon="8.235752413393291"><ele>12.0</ele><time>2026-05-02T10:11:51.999Z</time></trkpt><trkpt lat="40.8777918773248" lon="8.235797346219671"><ele>12.0</ele><time>2026-05-02T10:11:52.999Z</time></trkpt><trkpt lat="40.8780491272821" lon="8.23583916048514"><ele>12.0</ele><time>2026-05-02T10:11:53.999Z</time></trkpt><trkpt lat="40.8782857232287" lon="8.235877064102437"><ele>11.0</ele><time>2026-05-02T10:11:54.999Z</time></trkpt><trkpt lat="40.8785277175169" lon="8.23591001816302"><ele>10.0</ele><time>2026-05-02T10:11:55.999Z</time></trkpt><trkpt lat="40.87876288512749" lon="8.235941303440152"><ele>10.0</ele><time>2026-05-02T10:11:56.999Z</time></trkpt><trkpt lat="40.87899611798547" lon="8.235975673705235"><ele>10.0</ele><time>2026-05-02T10:11:57.999Z</time></trkpt><trkpt lat="40.87923050896508" lon="8.23600624153483"><ele>9.0</ele><time>2026-05-02T10:11:58.999Z</time></trkpt><trkpt lat="40.879467575193516" lon="8.236033020223255"><ele>8.0</ele><time>2026-05-02T10:11:59.999Z</time></trkpt><trkpt lat="40.87970737299379" lon="8.236059711383039"><ele>8.0</ele><time>2026-05-02T10:12:00.999Z</time></trkpt><trkpt lat="40.879946484139026" lon="8.23608744088935"><ele>8.0</ele><time>2026-05-02T10:12:01.999Z</time></trkpt><trkpt lat="40.88018051803151" lon="8.23611422072017"><ele>8.0</ele><time>2026-05-02T10:12:02.999Z</time></trkpt><trkpt lat="40.88041348813003" lon="8.236141686761195"><ele>8.0</ele><time>2026-05-02T10:12:03.999Z</time></trkpt><trkpt lat="40.880642901866125" lon="8.236168605590032"><ele>8.0</ele><time>2026-05-02T10:12:04.999Z</time></trkpt><trkpt lat="40.88087111845036" lon="8.23619706186749"><ele>8.0</ele><time>2026-05-02T10:12:05.999Z</time></trkpt><trkpt lat="40.88109836117173" lon="8.236224070464004"><ele>8.5</ele><time>2026-05-02T10:12:06.999Z</time></trkpt><trkpt lat="40.88132810073861" lon="8.236248869610032"><ele>9.0</ele><time>2026-05-02T10:12:07.999Z</time></trkpt><trkpt lat="40.88155834473643" lon="8.236271205982975"><ele>8.0</ele><time>2026-05-02T10:12:08.999Z</time></trkpt><trkpt lat="40.881791448566474" lon="8.236296007999362"><ele>7.0</ele><time>2026-05-02T10:12:09.999Z</time></trkpt><trkpt lat="40.88202734453463" lon="8.236316666259306"><ele>7.0</ele><time>2026-05-02T10:12:10.999Z</time></trkpt><trkpt lat="40.88226526148455" lon="8.236333066724551"><ele>7.0</ele><time>2026-05-02T10:12:11.999Z</time></trkpt><trkpt lat="40.882508998972106" lon="8.23634484643017"><ele>7.0</ele><time>2026-05-02T10:12:12.999Z</time></trkpt><trkpt lat="40.88275465159305" lon="8.236345638004495"><ele>7.0</ele><time>2026-05-02T10:12:13.999Z</time></trkpt><trkpt lat="40.883003379136774" lon="8.236342247031317"><ele>7.0</ele><time>2026-05-02T10:12:14.999Z</time></trkpt><trkpt lat="40.883251113615266" lon="8.23633486103743"><ele>7.0</ele><time>2026-05-02T10:12:15.999Z</time></trkpt><trkpt lat="40.88349883155722" lon="8.236323628964705"><ele>6.0</ele><time>2026-05-02T10:12:16.999Z</time></trkpt><trkpt lat="40.88374374420486" lon="8.236308765789826"><ele>5.0</ele><time>2026-05-02T10:12:17.999Z</time></trkpt><trkpt lat="40.88398890699768" lon="8.236292879751849"><ele>5.0</ele><time>2026-05-02T10:12:18.999Z</time></trkpt><trkpt lat="40.88423385108417" lon="8.236276805672714"><ele>5.0</ele><time>2026-05-02T10:12:19.999Z</time></trkpt><trkpt lat="40.8844790055007" lon="8.236261758128864"><ele>4.5</ele><time>2026-05-02T10:12:20.999Z</time></trkpt><trkpt lat="40.88472326481084" lon="8.236250520460224"><ele>4.0</ele><time>2026-05-02T10:12:22Z</time></trkpt><trkpt lat="40.88496887739228" lon="8.236237346822389"><ele>3.5</ele><time>2026-05-02T10:12:23Z</time></trkpt><trkpt lat="40.88521443406742" lon="8.236225756258865"><ele>3.0</ele><time>2026-05-02T10:12:24Z</time></trkpt><trkpt lat="40.885461559733606" lon="8.236214642408399"><ele>3.0</ele><time>2026-05-02T10:12:25Z</time></trkpt><trkpt lat="40.88570563945232" lon="8.23620029000417"><ele>3.0</ele><time>2026-05-02T10:12:26Z</time></trkpt><trkpt lat="40.88593929489241" lon="8.236186805735434"><ele>3.0</ele><time>2026-05-02T10:12:27Z</time></trkpt><trkpt lat="40.88616105285056" lon="8.236174519290328"><ele>3.0</ele><time>2026-05-02T10:12:28Z</time></trkpt><trkpt lat="40.886391871645344" lon="8.236163458439071"><ele>3.0</ele><time>2026-05-02T10:12:29Z</time></trkpt><trkpt lat="40.88662346390107" lon="8.2361497804171"><ele>3.0</ele><time>2026-05-02T10:12:30Z</time></trkpt><trkpt lat="40.886840375070186" lon="8.236136017274129"><ele>3.0</ele><time>2026-05-02T10:12:31Z</time></trkpt><trkpt lat="40.88704508603402" lon="8.23612671167503"><ele>2.6666666666666665</ele><time>2026-05-02T10:12:32Z</time></trkpt><trkpt lat="40.88724031587459" lon="8.236114350010673"><ele>2.333333333333333</ele><time>2026-05-02T10:12:33Z</time></trkpt><trkpt lat="40.88743460927319" lon="8.236094758594922"><ele>2.0</ele><time>2026-05-02T10:12:34Z</time></trkpt><trkpt lat="40.88762365911171" lon="8.23608068279236"><ele>2.0</ele><time>2026-05-02T10:12:35Z</time></trkpt><trkpt lat="40.887816937179615" lon="8.236059606512423"><ele>2.0</ele><time>2026-05-02T10:12:36Z</time></trkpt><trkpt lat="40.8880245802327" lon="8.236036121818833"><ele>2.0</ele><time>2026-05-02T10:12:37Z</time></trkpt><trkpt lat="40.88822802906251" lon="8.23600100571118"><ele>2.0</ele><time>2026-05-02T10:12:38Z</time></trkpt><trkpt lat="40.88843460359403" lon="8.235962689327804"><ele>2.0</ele><time>2026-05-02T10:12:39Z</time></trkpt><trkpt lat="40.88864266333365" lon="8.235922088179295"><ele>2.0</ele><time>2026-05-02T10:12:40Z</time></trkpt><trkpt lat="40.888847594510764" lon="8.235863819540123"><ele>2.0</ele><time>2026-05-02T10:12:41Z</time></trkpt><trkpt lat="40.889049038550915" lon="8.235805341508154"><ele>2.0</ele><time>2026-05-02T10:12:42Z</time></trkpt><trkpt lat="40.88924813085557" lon="8.235740073103644"><ele>2.0</ele><time>2026-05-02T10:12:43Z</time></trkpt><trkpt lat="40.88944468972864" lon="8.235676780027196"><ele>2.0</ele><time>2026-05-02T10:12:44Z</time></trkpt><trkpt lat="40.889632273726825" lon="8.235612357162543"><ele>2.0</ele><time>2026-05-02T10:12:45Z</time></trkpt><trkpt lat="40.889801665748436" lon="8.235553074928438"><ele>2.0</ele><time>2026-05-02T10:12:46Z</time></trkpt><trkpt lat="40.88996859463227" lon="8.235490497768623"><ele>1.6666666666666665</ele><time>2026-05-02T10:12:47Z</time></trkpt><trkpt lat="40.89014439737734" lon="8.235415639891128"><ele>1.3333333333333333</ele><time>2026-05-02T10:12:48Z</time></trkpt><trkpt lat="40.89032966119526" lon="8.235324765510988"><ele>1.0</ele><time>2026-05-02T10:12:49Z</time></trkpt><trkpt lat="40.89051895243521" lon="8.235219534810682"><ele>1.0</ele><time>2026-05-02T10:12:50Z</time></trkpt><trkpt lat="40.890700963946486" lon="8.235115799399688"><ele>1.0</ele><time>2026-05-02T10:12:51Z</time></trkpt><trkpt lat="40.89087554822366" lon="8.235016431566647"><ele>1.0</ele><time>2026-05-02T10:12:52Z</time></trkpt><trkpt lat="40.89103536207589" lon="8.234924763756451"><ele>1.0</ele><time>2026-05-02T10:12:53Z</time></trkpt><trkpt lat="40.89118093121645" lon="8.234840494603452"><ele>1.0</ele><time>2026-05-02T10:12:54Z</time></trkpt><trkpt lat="40.89132059694527" lon="8.234761006697243"><ele>1.0</ele><time>2026-05-02T10:12:55Z</time></trkpt><trkpt lat="40.89146224978424" lon="8.234681396839283"><ele>1.3333333333333333</ele><time>2026-05-02T10:12:56Z</time></trkpt><trkpt lat="40.891613880033276" lon="8.234592279832482"><ele>1.6666666666666665</ele><time>2026-05-02T10:12:57Z</time></trkpt><trkpt lat="40.891772672505915" lon="8.234499991505754"><ele>2.0</ele><time>2026-05-02T10:12:58Z</time></trkpt><trkpt lat="40.8919337746811" lon="8.234405758930885"><ele>2.0</ele><time>2026-05-02T10:12:59Z</time></trkpt><trkpt lat="40.892099244524374" lon="8.23431268513588"><ele>2.0</ele><time>2026-05-02T10:13:00Z</time></trkpt><trkpt lat="40.89227803715642" lon="8.23419887403273"><ele>2.0</ele><time>2026-05-02T10:13:01Z</time></trkpt><trkpt lat="40.89247529324463" lon="8.234078204498637"><ele>2.0</ele><time>2026-05-02T10:13:02Z</time></trkpt><trkpt lat="40.892693264909674" lon="8.23395037027427"><ele>2.0</ele><time>2026-05-02T10:13:02.999Z</time></trkpt><trkpt lat="40.89292557225205" lon="8.233819792167399"><ele>2.0</ele><time>2026-05-02T10:13:03.999Z</time></trkpt><trkpt lat="40.89314800580438" lon="8.233698366053012"><ele>2.0</ele><time>2026-05-02T10:13:04.999Z</time></trkpt><trkpt lat="40.8933524155875" lon="8.233600186439926"><ele>2.333333333333333</ele><time>2026-05-02T10:13:05.999Z</time></trkpt><trkpt lat="40.89353722734157" lon="8.23350463204317"><ele>2.6666666666666665</ele><time>2026-05-02T10:13:06.999Z</time></trkpt><trkpt lat="40.893724722255925" lon="8.233397399835024"><ele>3.0</ele><time>2026-05-02T10:13:07.999Z</time></trkpt><trkpt lat="40.89393094154679" lon="8.233295486524511"><ele>3.0</ele><time>2026-05-02T10:13:08.999Z</time></trkpt><trkpt lat="40.89415764566774" lon="8.23321303869105"><ele>3.0</ele><time>2026-05-02T10:13:09.999Z</time></trkpt><trkpt lat="40.89440165884417" lon="8.233151810654837"><ele>3.0</ele><time>2026-05-02T10:13:10.999Z</time></trkpt><trkpt lat="40.89464907016517" lon="8.233093399140182"><ele>3.0</ele><time>2026-05-02T10:13:11.999Z</time></trkpt><trkpt lat="40.89490806136913" lon="8.2330469163342"><ele>2.5</ele><time>2026-05-02T10:13:12.999Z</time></trkpt><trkpt lat="40.895174866886904" lon="8.233018648966105"><ele>2.0</ele><time>2026-05-02T10:13:13.999Z</time></trkpt><trkpt lat="40.895448614174484" lon="8.233014438472901"><ele>2.0</ele><time>2026-05-02T10:13:14.999Z</time></trkpt><trkpt lat="40.895728200635624" lon="8.233031609766664"><ele>2.0</ele><time>2026-05-02T10:13:15.999Z</time></trkpt><trkpt lat="40.89601199750321" lon="8.233068114144624"><ele>2.5</ele><time>2026-05-02T10:13:16.999Z</time></trkpt><trkpt lat="40.896298168130414" lon="8.23312571446519"><ele>3.0</ele><time>2026-05-02T10:13:17.999Z</time></trkpt><trkpt lat="40.89658639254986" lon="8.233194509384566"><ele>2.5</ele><time>2026-05-02T10:13:18.999Z</time></trkpt><trkpt lat="40.8968785583365" lon="8.233267532337951"><ele>2.0</ele><time>2026-05-02T10:13:19.999Z</time></trkpt><trkpt lat="40.89717199620065" lon="8.2333383446173"><ele>2.0</ele><time>2026-05-02T10:13:20.999Z</time></trkpt><trkpt lat="40.89746180636448" lon="8.233406530075818"><ele>2.0</ele><time>2026-05-02T10:13:21.999Z</time></trkpt><trkpt lat="40.897741974828804" lon="8.233471003728088"><ele>3.0</ele><time>2026-05-02T10:13:22.999Z</time></trkpt><trkpt lat="40.898010260220175" lon="8.23353194095661"><ele>4.0</ele><time>2026-05-02T10:13:23.999Z</time></trkpt><trkpt lat="40.89826548229406" lon="8.233593335595318"><ele>5.0</ele><time>2026-05-02T10:13:24.999Z</time></trkpt><trkpt lat="40.89849726754429" lon="8.233648675613905"><ele>6.0</ele><time>2026-05-02T10:13:25.999Z</time></trkpt><trkpt lat="40.89872580551629" lon="8.233703472662064"><ele>6.0</ele><time>2026-05-02T10:13:26.999Z</time></trkpt><trkpt lat="40.89895766113835" lon="8.233753236851392"><ele>6.0</ele><time>2026-05-02T10:13:27.999Z</time></trkpt><trkpt lat="40.89920466943749" lon="8.233788414674127"><ele>6.0</ele><time>2026-05-02T10:13:28.999Z</time></trkpt><trkpt lat="40.89946409777721" lon="8.233802301154322"><ele>6.0</ele><time>2026-05-02T10:13:29.999Z</time></trkpt><trkpt lat="40.89973216353794" lon="8.233788396594386"><ele>6.0</ele><time>2026-05-02T10:13:30.999Z</time></trkpt><trkpt lat="40.90000311355523" lon="8.23374625478134"><ele>6.0</ele><time>2026-05-02T10:13:31.999Z</time></trkpt><trkpt lat="40.90027172569106" lon="8.233677786297802"><ele>5.5</ele><time>2026-05-02T10:13:32.999Z</time></trkpt><trkpt lat="40.90053586498071" lon="8.233566227699338"><ele>5.0</ele><time>2026-05-02T10:13:33.999Z</time></trkpt><trkpt lat="40.900799212858225" lon="8.233430558036382"><ele>4.5</ele><time>2026-05-02T10:13:34.999Z</time></trkpt><trkpt lat="40.901062870805504" lon="8.233282333395284"><ele>4.0</ele><time>2026-05-02T10:13:35.999Z</time></trkpt><trkpt lat="40.901331279778525" lon="8.233131624530674"><ele>4.0</ele><time>2026-05-02T10:13:36.999Z</time></trkpt><trkpt lat="40.90160443552358" lon="8.23298394946273"><ele>4.0</ele><time>2026-05-02T10:13:37.999Z</time></trkpt><trkpt lat="40.90187907961651" lon="8.232838745408369"><ele>4.0</ele><time>2026-05-02T10:13:38.999Z</time></trkpt><trkpt lat="40.902128661651666" lon="8.232708597501462"><ele>4.0</ele><time>2026-05-02T10:13:39.999Z</time></trkpt><trkpt lat="40.9023622843641" lon="8.232585498053286"><ele>4.0</ele><time>2026-05-02T10:13:40.999Z</time></trkpt><trkpt lat="40.902578551124975" lon="8.23247108571369"><ele>4.0</ele><time>2026-05-02T10:13:41.999Z</time></trkpt><trkpt lat="40.902785460848236" lon="8.232361466328145"><ele>3.333333333333333</ele><time>2026-05-02T10:13:42.999Z</time></trkpt><trkpt lat="40.902986077356914" lon="8.232253378661708"><ele>2.6666666666666665</ele><time>2026-05-02T10:13:43.999Z</time></trkpt><trkpt lat="40.90317615258299" lon="8.23215149535832"><ele>2.0</ele><time>2026-05-02T10:13:44.999Z</time></trkpt><trkpt lat="40.90335447264575" lon="8.232058984824603"><ele>2.333333333333333</ele><time>2026-05-02T10:13:45.999Z</time></trkpt><trkpt lat="40.90352353777494" lon="8.23197394140433"><ele>2.6666666666666665</ele><time>2026-05-02T10:13:46.999Z</time></trkpt><trkpt lat="40.903680596986106" lon="8.231890484639134"><ele>3.0</ele><time>2026-05-02T10:13:47.999Z</time></trkpt><trkpt lat="40.90383144187077" lon="8.231813355544084"><ele>3.0</ele><time>2026-05-02T10:13:48.999Z</time></trkpt><trkpt lat="40.90397292172461" lon="8.231733963257613"><ele>3.0</ele><time>2026-05-02T10:13:49.999Z</time></trkpt><trkpt lat="40.90410412309835" lon="8.23166076364517"><ele>3.0</ele><time>2026-05-02T10:13:50.999Z</time></trkpt><trkpt lat="40.9042270469958" lon="8.231591956142132"><ele>3.0</ele><time>2026-05-02T10:13:51.999Z</time></trkpt><trkpt lat="40.90433894832238" lon="8.231532397661573"><ele>3.0</ele><time>2026-05-02T10:13:52.999Z</time></trkpt><trkpt lat="40.90443368823084" lon="8.231489334188344"><ele>3.0</ele><time>2026-05-02T10:13:53.999Z</time></trkpt><trkpt lat="40.90452177288424" lon="8.231459431180323"><ele>3.0</ele><time>2026-05-02T10:13:54.999Z</time></trkpt><trkpt lat="40.90460556653324" lon="8.231441131212712"><ele>3.0</ele><time>2026-05-02T10:13:55.999Z</time></trkpt><trkpt lat="40.90468109778732" lon="8.231446049461338"><ele>3.0</ele><time>2026-05-02T10:13:56.999Z</time></trkpt><trkpt lat="40.90482271482626" lon="8.231555753929673"><ele>3.0</ele><time>2026-05-02T10:13:58.999Z</time></trkpt><trkpt lat="40.90489486426013" lon="8.231638844277734"><ele>3.0</ele><time>2026-05-02T10:13:59.999Z</time></trkpt><trkpt lat="40.904982057833244" lon="8.23168958906649"><ele>3.0</ele><time>2026-05-02T10:14:00.999Z</time></trkpt><trkpt lat="40.90508687160003" lon="8.231695346456748"><ele>3.0</ele><time>2026-05-02T10:14:01.999Z</time></trkpt><trkpt lat="40.905191918093166" lon="8.231655662262362"><ele>3.0</ele><time>2026-05-02T10:14:02.999Z</time></trkpt><trkpt lat="40.90528523228122" lon="8.231560216739755"><ele>3.0</ele><time>2026-05-02T10:14:03.999Z</time></trkpt><trkpt lat="40.90535841242795" lon="8.231429677925993"><ele>3.0</ele><time>2026-05-02T10:14:04.999Z</time></trkpt><trkpt lat="40.905387293097114" lon="8.231283776430367"><ele>3.0</ele><time>2026-05-02T10:14:05.999Z</time></trkpt><trkpt lat="40.90542464818243" lon="8.231150733433893"><ele>3.0</ele><time>2026-05-02T10:14:06.999Z</time></trkpt><trkpt lat="40.90563323686118" lon="8.231129022800541"><ele>3.0</ele><time>2026-05-02T10:14:07.999Z</time></trkpt><trkpt lat="40.9057649230005" lon="8.231090692195739"><ele>3.0</ele><time>2026-05-02T10:14:08.999Z</time></trkpt><trkpt lat="40.90592506378414" lon="8.231055621531116"><ele>3.0</ele><time>2026-05-02T10:14:09.999Z</time></trkpt><trkpt lat="40.90610374722346" lon="8.231016802921069"><ele>3.333333333333333</ele><time>2026-05-02T10:14:10.999Z</time></trkpt><trkpt lat="40.90630261213893" lon="8.230967844282674"><ele>3.6666666666666665</ele><time>2026-05-02T10:14:11.999Z</time></trkpt><trkpt lat="40.90651986096385" lon="8.23091286067382"><ele>4.0</ele><time>2026-05-02T10:14:12.999Z</time></trkpt><trkpt lat="40.90674390172764" lon="8.230853681911395"><ele>4.0</ele><time>2026-05-02T10:14:13.999Z</time></trkpt><trkpt lat="40.90698406100029" lon="8.230794690483616"><ele>4.0</ele><time>2026-05-02T10:14:14.999Z</time></trkpt><trkpt lat="40.90723111973718" lon="8.230737994481418"><ele>4.0</ele><time>2026-05-02T10:14:15.999Z</time></trkpt><trkpt lat="40.90748386111236" lon="8.23069058592397"><ele>4.0</ele><time>2026-05-02T10:14:16.999Z</time></trkpt><trkpt lat="40.907730479193134" lon="8.230641899389529"><ele>4.0</ele><time>2026-05-02T10:14:17.999Z</time></trkpt><trkpt lat="40.9079698906516" lon="8.230583083621406"><ele>4.0</ele><time>2026-05-02T10:14:18.999Z</time></trkpt><trkpt lat="40.90818597921066" lon="8.230529141909516"><ele>4.0</ele><time>2026-05-02T10:14:19.999Z</time></trkpt><trkpt lat="40.9083949939594" lon="8.230477851831063"><ele>4.0</ele><time>2026-05-02T10:14:20.999Z</time></trkpt><trkpt lat="40.90859423764713" lon="8.23043161223707"><ele>4.0</ele><time>2026-05-02T10:14:21.999Z</time></trkpt><trkpt lat="40.9088032942672" lon="8.230385366735154"><ele>3.333333333333333</ele><time>2026-05-02T10:14:22.999Z</time></trkpt><trkpt lat="40.90901420424715" lon="8.230337238924497"><ele>2.6666666666666665</ele><time>2026-05-02T10:14:23.999Z</time></trkpt><trkpt lat="40.909226531616774" lon="8.230287084016615"><ele>2.0</ele><time>2026-05-02T10:14:24.999Z</time></trkpt><trkpt lat="40.90944007070986" lon="8.23023654640333"><ele>2.0</ele><time>2026-05-02T10:14:25.999Z</time></trkpt><trkpt lat="40.909653642522315" lon="8.230186907696668"><ele>2.0</ele><time>2026-05-02T10:14:26.999Z</time></trkpt><trkpt lat="40.909868031017574" lon="8.2301395634853"><ele>2.0</ele><time>2026-05-02T10:14:28Z</time></trkpt><trkpt lat="40.91008472164244" lon="8.230100672700674"><ele>2.333333333333333</ele><time>2026-05-02T10:14:29Z</time></trkpt><trkpt lat="40.91029997595766" lon="8.230069142575859"><ele>2.6666666666666665</ele><time>2026-05-02T10:14:30Z</time></trkpt><trkpt lat="40.910516493346606" lon="8.23004232766485"><ele>3.0</ele><time>2026-05-02T10:14:31Z</time></trkpt><trkpt lat="40.91073763955514" lon="8.23002156253576"><ele>2.5</ele><time>2026-05-02T10:14:32Z</time></trkpt><trkpt lat="40.91096659921009" lon="8.230005366978167"><ele>2.0</ele><time>2026-05-02T10:14:33Z</time></trkpt><trkpt lat="40.91120495398148" lon="8.229993832270361"><ele>2.0</ele><time>2026-05-02T10:14:34Z</time></trkpt><trkpt lat="40.91144968908488" lon="8.229992053183645"><ele>2.0</ele><time>2026-05-02T10:14:35Z</time></trkpt><trkpt lat="40.91169783869679" lon="8.229999903151139"><ele>1.5</ele><time>2026-05-02T10:14:36Z</time></trkpt><trkpt lat="40.9119372804334" lon="8.23001198828191"><ele>1.0</ele><time>2026-05-02T10:14:37Z</time></trkpt><trkpt lat="40.9121598971014" lon="8.230021679080199"><ele>1.0</ele><time>2026-05-02T10:14:38Z</time></trkpt><trkpt lat="40.91238015415726" lon="8.230033935420733"><ele>1.0</ele><time>2026-05-02T10:14:39Z</time></trkpt><trkpt lat="40.91259259302515" lon="8.230044245383585"><ele>1.0</ele><time>2026-05-02T10:14:40Z</time></trkpt><trkpt lat="40.912787433606" lon="8.23005292476755"><ele>1.3333333333333333</ele><time>2026-05-02T10:14:41Z</time></trkpt><trkpt lat="40.91297798968426" lon="8.230061103654064"><ele>1.6666666666666665</ele><time>2026-05-02T10:14:42Z</time></trkpt><trkpt lat="40.91316980857946" lon="8.230070340255267"><ele>2.0</ele><time>2026-05-02T10:14:43Z</time></trkpt><trkpt lat="40.91336538448962" lon="8.230080284883758"><ele>1.3333333333333333</ele><time>2026-05-02T10:14:44Z</time></trkpt><trkpt lat="40.91356184394667" lon="8.230090973677406"><ele>0.6666666666666666</ele><time>2026-05-02T10:14:45Z</time></trkpt><trkpt lat="40.913760264712984" lon="8.230102225677427"><ele>0.0</ele><time>2026-05-02T10:14:46Z</time></trkpt><trkpt lat="40.913961835176224" lon="8.230111583610482"><ele>0.0</ele><time>2026-05-02T10:14:47Z</time></trkpt><trkpt lat="40.91416831219684" lon="8.230121465965617"><ele>0.0</ele><time>2026-05-02T10:14:48Z</time></trkpt><trkpt lat="40.914376877180516" lon="8.230132989530192"><ele>0.0</ele><time>2026-05-02T10:14:49Z</time></trkpt><trkpt lat="40.914588826594226" lon="8.230147101524627"><ele>0.3333333333333333</ele><time>2026-05-02T10:14:50Z</time></trkpt><trkpt lat="40.91480139508859" lon="8.230157005305408"><ele>0.6666666666666666</ele><time>2026-05-02T10:14:51Z</time></trkpt><trkpt lat="40.91501527768954" lon="8.230167822166747"><ele>1.0</ele><time>2026-05-02T10:14:52Z</time></trkpt><trkpt lat="40.91523142688565" lon="8.230182520286165"><ele>2.3333333333333335</ele><time>2026-05-02T10:14:53Z</time></trkpt><trkpt lat="40.91544619161011" lon="8.230195745718715"><ele>3.666666666666667</ele><time>2026-05-02T10:14:54Z</time></trkpt><trkpt lat="40.915660808166436" lon="8.230208316486966"><ele>5.0</ele><time>2026-05-02T10:14:55Z</time></trkpt><trkpt lat="40.915868586386885" lon="8.230218029314136"><ele>6.666666666666667</ele><time>2026-05-02T10:14:56Z</time></trkpt><trkpt lat="40.91607358997162" lon="8.230227472128568"><ele>8.333333333333334</ele><time>2026-05-02T10:14:57Z</time></trkpt><trkpt lat="40.91627435766679" lon="8.230234196936586"><ele>10.0</ele><time>2026-05-02T10:14:58Z</time></trkpt><trkpt lat="40.916477892983096" lon="8.230236638379207"><ele>10.0</ele><time>2026-05-02T10:14:59Z</time></trkpt><trkpt lat="40.916684266824205" lon="8.230231818146152"><ele>10.0</ele><time>2026-05-02T10:15:00Z</time></trkpt><trkpt lat="40.9168914622591" lon="8.230220337831524"><ele>10.0</ele><time>2026-05-02T10:15:01Z</time></trkpt><trkpt lat="40.91709896562398" lon="8.230200532381401"><ele>11.333333333333334</ele><time>2026-05-02T10:15:02Z</time></trkpt><trkpt lat="40.917307929035346" lon="8.230170406353437"><ele>12.666666666666668</ele><time>2026-05-02T10:15:03Z</time></trkpt><trkpt lat="40.91751719710573" lon="8.230132803815716"><ele>14.0</ele><time>2026-05-02T10:15:04Z</time></trkpt><trkpt lat="40.917730066239564" lon="8.230090432351558"><ele>14.333333333333334</ele><time>2026-05-02T10:15:05Z</time></trkpt><trkpt lat="40.917943467727646" lon="8.2300475718117"><ele>14.666666666666668</ele><time>2026-05-02T10:15:06Z</time></trkpt><trkpt lat="40.91815735781237" lon="8.230004051578057"><ele>15.0</ele><time>2026-05-02T10:15:07Z</time></trkpt><trkpt lat="40.91837431317672" lon="8.229959844027567"><ele>14.666666666666668</ele><time>2026-05-02T10:15:08Z</time></trkpt><trkpt lat="40.918592280044024" lon="8.229914561914418"><ele>14.333333333333334</ele><time>2026-05-02T10:15:09Z</time></trkpt><trkpt lat="40.91880973649383" lon="8.229864458486"><ele>14.0</ele><time>2026-05-02T10:15:10Z</time></trkpt><trkpt lat="40.91902843026583" lon="8.229802573925996"><ele>14.0</ele><time>2026-05-02T10:15:11Z</time></trkpt><trkpt lat="40.919243611239494" lon="8.229727906545055"><ele>14.0</ele><time>2026-05-02T10:15:12Z</time></trkpt><trkpt lat="40.919454714278835" lon="8.229635229268245"><ele>14.0</ele><time>2026-05-02T10:15:13Z</time></trkpt><trkpt lat="40.9196567522722" lon="8.229526326282157"><ele>14.0</ele><time>2026-05-02T10:15:14Z</time></trkpt><trkpt lat="40.91985514601223" lon="8.229407830038177"><ele>14.0</ele><time>2026-05-02T10:15:15Z</time></trkpt><trkpt lat="40.92004520668764" lon="8.229283473154158"><ele>14.0</ele><time>2026-05-02T10:15:16Z</time></trkpt><trkpt lat="40.9202480806081" lon="8.229178114142757"><ele>14.666666666666668</ele><time>2026-05-02T10:15:17Z</time></trkpt><trkpt lat="40.920439326405486" lon="8.229022793071085"><ele>15.333333333333332</ele><time>2026-05-02T10:15:18Z</time></trkpt><trkpt lat="40.9206420889729" lon="8.22889456442468"><ele>16.0</ele><time>2026-05-02T10:15:18.999Z</time></trkpt><trkpt lat="40.920846282013535" lon="8.228765097989617"><ele>16.5</ele><time>2026-05-02T10:15:19.999Z</time></trkpt><trkpt lat="40.92105344179481" lon="8.228636342002687"><ele>17.0</ele><time>2026-05-02T10:15:20.999Z</time></trkpt><trkpt lat="40.92125990827665" lon="8.228502572061505"><ele>17.0</ele><time>2026-05-02T10:15:21.999Z</time></trkpt><trkpt lat="40.921469320392426" lon="8.228365399085378"><ele>17.0</ele><time>2026-05-02T10:15:22.999Z</time></trkpt><trkpt lat="40.921679330143995" lon="8.228227240331822"><ele>16.0</ele><time>2026-05-02T10:15:23.999Z</time></trkpt><trkpt lat="40.92189087779993" lon="8.228090767259715"><ele>15.0</ele><time>2026-05-02T10:15:24.999Z</time></trkpt><trkpt lat="40.92210277979794" lon="8.227951557099397"><ele>15.0</ele><time>2026-05-02T10:15:25.999Z</time></trkpt><trkpt lat="40.922317437537885" lon="8.227810913117965"><ele>15.0</ele><time>2026-05-02T10:15:27Z</time></trkpt><trkpt lat="40.92253214805369" lon="8.227669770665369"><ele>13.5</ele><time>2026-05-02T10:15:27.999Z</time></trkpt><trkpt lat="40.922744513404396" lon="8.227527686433122"><ele>12.0</ele><time>2026-05-02T10:15:28.999Z</time></trkpt><trkpt lat="40.92295129183701" lon="8.227391271796785"><ele>13.0</ele><time>2026-05-02T10:15:29.999Z</time></trkpt><trkpt lat="40.92314489322524" lon="8.227267090507395"><ele>14.0</ele><time>2026-05-02T10:15:30.999Z</time></trkpt><trkpt lat="40.92333332487665" lon="8.227146491293382"><ele>15.0</ele><time>2026-05-02T10:15:31.999Z</time></trkpt><trkpt lat="40.923526261887524" lon="8.227021923868374"><ele>15.0</ele><time>2026-05-02T10:15:32.999Z</time></trkpt><trkpt lat="40.923723803172045" lon="8.226893747343773"><ele>15.0</ele><time>2026-05-02T10:15:33.999Z</time></trkpt><trkpt lat="40.92392491862852" lon="8.226764258863215"><ele>15.0</ele><time>2026-05-02T10:15:34.999Z</time></trkpt><trkpt lat="40.92412924572094" lon="8.226634400220068"><ele>15.5</ele><time>2026-05-02T10:15:35.999Z</time></trkpt><trkpt lat="40.924335428949654" lon="8.22650909431614"><ele>16.0</ele><time>2026-05-02T10:15:36.999Z</time></trkpt><trkpt lat="40.92454452930755" lon="8.226392736439779"><ele>17.0</ele><time>2026-05-02T10:15:37.999Z</time></trkpt><trkpt lat="40.92475696645429" lon="8.226286926012309"><ele>18.0</ele><time>2026-05-02T10:15:38.999Z</time></trkpt><trkpt lat="40.924973303514115" lon="8.226189181421347"><ele>15.0</ele><time>2026-05-02T10:15:39.999Z</time></trkpt><trkpt lat="40.925194052389244" lon="8.226096201713755"><ele>12.0</ele><time>2026-05-02T10:15:40.999Z</time></trkpt><trkpt lat="40.9254193585729" lon="8.22601219035483"><ele>12.0</ele><time>2026-05-02T10:15:41.999Z</time></trkpt><trkpt lat="40.92564818916109" lon="8.225932404885887"><ele>12.0</ele><time>2026-05-02T10:15:42.999Z</time></trkpt><trkpt lat="40.925876314854136" lon="8.225854769878223"><ele>9.5</ele><time>2026-05-02T10:15:43.999Z</time></trkpt><trkpt lat="40.92611191956695" lon="8.225779829988388"><ele>7.0</ele><time>2026-05-02T10:15:44.999Z</time></trkpt><trkpt lat="40.926349443627906" lon="8.225704855423395"><ele>8.0</ele><time>2026-05-02T10:15:45.999Z</time></trkpt><trkpt lat="40.92658801997467" lon="8.225627062686884"><ele>9.0</ele><time>2026-05-02T10:15:46.999Z</time></trkpt><trkpt lat="40.92682775946569" lon="8.225543949762267"><ele>9.0</ele><time>2026-05-02T10:15:47.999Z</time></trkpt><trkpt lat="40.92706987199872" lon="8.225464521721916"><ele>9.0</ele><time>2026-05-02T10:15:48.999Z</time></trkpt><trkpt lat="40.927312615916335" lon="8.225380149388881"><ele>9.0</ele><time>2026-05-02T10:15:49.999Z</time></trkpt><trkpt lat="40.927557920375065" lon="8.225309242625606"><ele>9.0</ele><time>2026-05-02T10:15:50.999Z</time></trkpt><trkpt lat="40.92780172845302" lon="8.225230446346982"><ele>10.5</ele><time>2026-05-02T10:15:51.999Z</time></trkpt><trkpt lat="40.92804613990767" lon="8.22514851965937"><ele>12.0</ele><time>2026-05-02T10:15:52.999Z</time></trkpt><trkpt lat="40.92828847805522" lon="8.225051233788907"><ele>10.5</ele><time>2026-05-02T10:15:53.999Z</time></trkpt><trkpt lat="40.92853076988573" lon="8.224953173803982"><ele>9.0</ele><time>2026-05-02T10:15:54.999Z</time></trkpt><trkpt lat="40.92877311805888" lon="8.224856231500274"><ele>9.5</ele><time>2026-05-02T10:15:55.999Z</time></trkpt><trkpt lat="40.929017483497546" lon="8.224768119930719"><ele>10.0</ele><time>2026-05-02T10:15:56.999Z</time></trkpt><trkpt lat="40.92925968984116" lon="8.224753367008955"><ele>10.0</ele><time>2026-05-02T10:15:57.999Z</time></trkpt><trkpt lat="40.92949927197011" lon="8.224669570093644"><ele>10.0</ele><time>2026-05-02T10:15:58.999Z</time></trkpt><trkpt lat="40.92973698682885" lon="8.224594035380349"><ele>10.0</ele><time>2026-05-02T10:15:59.999Z</time></trkpt><trkpt lat="40.92997555178856" lon="8.224519450540852"><ele>10.0</ele><time>2026-05-02T10:16:00.999Z</time></trkpt><trkpt lat="40.93021142739813" lon="8.224443458441664"><ele>10.0</ele><time>2026-05-02T10:16:01.999Z</time></trkpt><trkpt lat="40.93044763686304" lon="8.224366180654437"><ele>10.0</ele><time>2026-05-02T10:16:02.999Z</time></trkpt><trkpt lat="40.930682754467526" lon="8.224287809579208"><ele>11.5</ele><time>2026-05-02T10:16:03.999Z</time></trkpt><trkpt lat="40.93091905966015" lon="8.224205983640708"><ele>13.0</ele><time>2026-05-02T10:16:04.999Z</time></trkpt><trkpt lat="40.93115465338533" lon="8.224124757314529"><ele>13.0</ele><time>2026-05-02T10:16:05.999Z</time></trkpt><trkpt lat="40.93138912682659" lon="8.224043792522956"><ele>13.0</ele><time>2026-05-02T10:16:06.999Z</time></trkpt><trkpt lat="40.93162521062504" lon="8.223967008584577"><ele>17.0</ele><time>2026-05-02T10:16:07.999Z</time></trkpt><trkpt lat="40.931864747855535" lon="8.223894118106958"><ele>21.0</ele><time>2026-05-02T10:16:08.999Z</time></trkpt><trkpt lat="40.93210323037571" lon="8.223822482780843"><ele>21.0</ele><time>2026-05-02T10:16:09.999Z</time></trkpt><trkpt lat="40.93233929151377" lon="8.223748173657036"><ele>21.0</ele><time>2026-05-02T10:16:10.999Z</time></trkpt><trkpt lat="40.93256778490608" lon="8.223669848345176"><ele>22.666666666666664</ele><time>2026-05-02T10:16:11.999Z</time></trkpt><trkpt lat="40.93277049722773" lon="8.22359901032489"><ele>24.333333333333332</ele><time>2026-05-02T10:16:12.999Z</time></trkpt><trkpt lat="40.932939720624724" lon="8.223539178158981"><ele>26.0</ele><time>2026-05-02T10:16:13.999Z</time></trkpt><trkpt lat="40.93309185424729" lon="8.223483886111318"><ele>26.0</ele><time>2026-05-02T10:16:14.999Z</time></trkpt><trkpt lat="40.93323239892189" lon="8.223431150546647"><ele>26.0</ele><time>2026-05-02T10:16:15.999Z</time></trkpt><trkpt lat="40.933375023555996" lon="8.223375289035321"><ele>26.0</ele><time>2026-05-02T10:16:16.999Z</time></trkpt><trkpt lat="40.93350527412416" lon="8.223342730446324"><ele>26.0</ele><time>2026-05-02T10:16:17.999Z</time></trkpt><trkpt lat="40.93363459143221" lon="8.223338301776527"><ele>25.333333333333332</ele><time>2026-05-02T10:16:18.999Z</time></trkpt><trkpt lat="40.933739817810896" lon="8.223350610159903"><ele>24.666666666666664</ele><time>2026-05-02T10:16:19.999Z</time></trkpt><trkpt lat="40.933837643323315" lon="8.223291784676759"><ele>24.0</ele><time>2026-05-02T10:16:20.999Z</time></trkpt><trkpt lat="40.93400346721702" lon="8.223049386865046"><ele>24.0</ele><time>2026-05-02T10:16:22.999Z</time></trkpt><trkpt lat="40.93410722466814" lon="8.222885952017007"><ele>24.0</ele><time>2026-05-02T10:16:23.999Z</time></trkpt><trkpt lat="40.93429040851085" lon="8.222813878088884"><ele>24.0</ele><time>2026-05-02T10:16:24.999Z</time></trkpt><trkpt lat="40.934478795683084" lon="8.222706942736814"><ele>23.666666666666668</ele><time>2026-05-02T10:16:25.999Z</time></trkpt><trkpt lat="40.93467281734843" lon="8.222600727495495"><ele>23.333333333333336</ele><time>2026-05-02T10:16:26.999Z</time></trkpt><trkpt lat="40.93486811657407" lon="8.22249195999195"><ele>23.0</ele><time>2026-05-02T10:16:27.999Z</time></trkpt><trkpt lat="40.935059361432856" lon="8.222379046177009"><ele>23.333333333333336</ele><time>2026-05-02T10:16:28.999Z</time></trkpt><trkpt lat="40.93525301204921" lon="8.222260782037923"><ele>23.666666666666668</ele><time>2026-05-02T10:16:29.999Z</time></trkpt><trkpt lat="40.935450769763506" lon="8.222144428076222"><ele>24.0</ele><time>2026-05-02T10:16:30.999Z</time></trkpt><trkpt lat="40.93565116205779" lon="8.22202638198135"><ele>24.0</ele><time>2026-05-02T10:16:31.999Z</time></trkpt><trkpt lat="40.93585628786342" lon="8.221908918652666"><ele>24.0</ele><time>2026-05-02T10:16:32.999Z</time></trkpt><trkpt lat="40.93606011972354" lon="8.221801158336056"><ele>24.0</ele><time>2026-05-02T10:16:34Z</time></trkpt><trkpt lat="40.936267503402746" lon="8.2217108701298"><ele>22.666666666666668</ele><time>2026-05-02T10:16:35Z</time></trkpt><trkpt lat="40.93647646606803" lon="8.221646172569635"><ele>21.333333333333336</ele><time>2026-05-02T10:16:36Z</time></trkpt><trkpt lat="40.93667441666259" lon="8.221610566121814"><ele>20.0</ele><time>2026-05-02T10:16:37Z</time></trkpt><trkpt lat="40.93687054695787" lon="8.221589486536704"><ele>20.0</ele><time>2026-05-02T10:16:38Z</time></trkpt><trkpt lat="40.937077654436" lon="8.221573780958185"><ele>20.0</ele><time>2026-05-02T10:16:39Z</time></trkpt><trkpt lat="40.93729186914389" lon="8.22156922036655"><ele>20.0</ele><time>2026-05-02T10:16:40Z</time></trkpt><trkpt lat="40.937499169413336" lon="8.221586534962906"><ele>20.0</ele><time>2026-05-02T10:16:41Z</time></trkpt><trkpt lat="40.93768987884583" lon="8.221618461391175"><ele>20.0</ele><time>2026-05-02T10:16:42Z</time></trkpt><trkpt lat="40.93788264560016" lon="8.221665317998971"><ele>20.0</ele><time>2026-05-02T10:16:43Z</time></trkpt><trkpt lat="40.93808131853353" lon="8.221726764999572"><ele>20.0</ele><time>2026-05-02T10:16:44Z</time></trkpt><trkpt lat="40.93828547560857" lon="8.221804329527195"><ele>20.0</ele><time>2026-05-02T10:16:45Z</time></trkpt><trkpt lat="40.938494359887684" lon="8.221889592233257"><ele>20.0</ele><time>2026-05-02T10:16:46Z</time></trkpt><trkpt lat="40.93870603486107" lon="8.221973889439562"><ele>21.0</ele><time>2026-05-02T10:16:47Z</time></trkpt><trkpt lat="40.938920086173475" lon="8.22205992461178"><ele>22.0</ele><time>2026-05-02T10:16:48Z</time></trkpt><trkpt lat="40.93913690746365" lon="8.222144882724336"><ele>20.666666666666664</ele><time>2026-05-02T10:16:49Z</time></trkpt><trkpt lat="40.93935444887326" lon="8.222228868186205"><ele>19.333333333333332</ele><time>2026-05-02T10:16:50Z</time></trkpt><trkpt lat="40.93955839269279" lon="8.222306584220652"><ele>18.0</ele><time>2026-05-02T10:16:51Z</time></trkpt><trkpt lat="40.939746045584" lon="8.222378805991983"><ele>19.0</ele><time>2026-05-02T10:16:52Z</time></trkpt><trkpt lat="40.939936782363574" lon="8.222453177093218"><ele>20.0</ele><time>2026-05-02T10:16:53Z</time></trkpt><trkpt lat="40.94013139636454" lon="8.222535376638952"><ele>21.0</ele><time>2026-05-02T10:16:54Z</time></trkpt><trkpt lat="40.94031814596067" lon="8.222617444215041"><ele>21.0</ele><time>2026-05-02T10:16:55Z</time></trkpt><trkpt lat="40.940491028997485" lon="8.222701512355224"><ele>21.0</ele><time>2026-05-02T10:16:56Z</time></trkpt><trkpt lat="40.940646438880556" lon="8.222790365312417"><ele>21.0</ele><time>2026-05-02T10:16:57Z</time></trkpt><trkpt lat="40.94079758992831" lon="8.222889238880919"><ele>21.0</ele><time>2026-05-02T10:16:58Z</time></trkpt><trkpt lat="40.9409528135761" lon="8.22300223958675"><ele>21.0</ele><time>2026-05-02T10:16:59Z</time></trkpt><trkpt lat="40.941107965759215" lon="8.22312463347452"><ele>21.0</ele><time>2026-05-02T10:17:00Z</time></trkpt><trkpt lat="40.94125937723364" lon="8.223255678956182"><ele>21.0</ele><time>2026-05-02T10:17:01Z</time></trkpt><trkpt lat="40.94139482662206" lon="8.223390199566705"><ele>21.0</ele><time>2026-05-02T10:17:02Z</time></trkpt><trkpt lat="40.94151290781666" lon="8.223514200863905"><ele>21.0</ele><time>2026-05-02T10:17:03Z</time></trkpt><trkpt lat="40.94161403538484" lon="8.223623173672697"><ele>21.0</ele><time>2026-05-02T10:17:04Z</time></trkpt><trkpt lat="40.94169890267241" lon="8.223713952081386"><ele>21.0</ele><time>2026-05-02T10:17:05Z</time></trkpt><trkpt lat="40.94177734973815" lon="8.223806361749983"><ele>21.0</ele><time>2026-05-02T10:17:06Z</time></trkpt><trkpt lat="40.94182274055615" lon="8.22391233065247"><ele>21.0</ele><time>2026-05-02T10:17:07Z</time></trkpt><trkpt lat="40.94181941006461" lon="8.224034839246896"><ele>21.0</ele><time>2026-05-02T10:17:08Z</time></trkpt><trkpt lat="40.94178960558234" lon="8.224165954931237"><ele>21.5</ele><time>2026-05-02T10:17:09Z</time></trkpt><trkpt lat="40.941773097488564" lon="8.224268011424957"><ele>22.0</ele><time>2026-05-02T10:17:10Z</time></trkpt><trkpt lat="40.941798938983624" lon="8.224360619819972"><ele>22.5</ele><time>2026-05-02T10:17:11Z</time></trkpt><trkpt lat="40.94187619580126" lon="8.224413090791614"><ele>23.0</ele><time>2026-05-02T10:17:12Z</time></trkpt><trkpt lat="40.94196640325627" lon="8.224429674299682"><ele>23.5</ele><time>2026-05-02T10:17:13Z</time></trkpt><trkpt lat="40.942072547368745" lon="8.224410216767373"><ele>24.0</ele><time>2026-05-02T10:17:14Z</time></trkpt><trkpt lat="40.942194121004036" lon="8.224371085879817"><ele>24.0</ele><time>2026-05-02T10:17:15Z</time></trkpt><trkpt lat="40.94232973529565" lon="8.224380608927058"><ele>24.0</ele><time>2026-05-02T10:17:16Z</time></trkpt><trkpt lat="40.94245714328431" lon="8.224454036541534"><ele>24.0</ele><time>2026-05-02T10:17:17Z</time></trkpt><trkpt lat="40.94256958748554" lon="8.224571321846456"><ele>24.0</ele><time>2026-05-02T10:17:18Z</time></trkpt><trkpt lat="40.9426815791721" lon="8.224694686150402"><ele>26.0</ele><time>2026-05-02T10:17:18.999Z</time></trkpt><trkpt lat="40.94279728898734" lon="8.224817581477547"><ele>28.0</ele><time>2026-05-02T10:17:19.999Z</time></trkpt><trkpt lat="40.94291937677231" lon="8.224936338312869"><ele>30.0</ele><time>2026-05-02T10:17:20.999Z</time></trkpt><trkpt lat="40.94304383055816" lon="8.225060947016571"><ele>30.0</ele><time>2026-05-02T10:17:21.999Z</time></trkpt><trkpt lat="40.943160023303825" lon="8.225184243449457"><ele>30.0</ele><time>2026-05-02T10:17:22.999Z</time></trkpt><trkpt lat="40.94326149100612" lon="8.225293668051096"><ele>30.0</ele><time>2026-05-02T10:17:23.999Z</time></trkpt><trkpt lat="40.9433550995367" lon="8.225390723656183"><ele>30.0</ele><time>2026-05-02T10:17:24.999Z</time></trkpt><trkpt lat="40.9434419974049" lon="8.225477479713698"><ele>30.5</ele><time>2026-05-02T10:17:25.999Z</time></trkpt><trkpt lat="40.94352236199629" lon="8.225554360380965"><ele>31.0</ele><time>2026-05-02T10:17:26.999Z</time></trkpt><trkpt lat="40.94358676597492" lon="8.22561756920284"><ele>31.5</ele><time>2026-05-02T10:17:27.999Z</time></trkpt><trkpt lat="40.94363826249858" lon="8.225676919023256"><ele>32.0</ele><time>2026-05-02T10:17:29.999Z</time></trkpt><trkpt lat="40.94370955004492" lon="8.225791484655177"><ele>32.5</ele><time>2026-05-02T10:17:32.999Z</time></trkpt><trkpt lat="40.94375171010065" lon="8.22586203595476"><ele>33.0</ele><time>2026-05-02T10:17:33.999Z</time></trkpt><trkpt lat="40.94383233524409" lon="8.225926783845642"><ele>33.5</ele><time>2026-05-02T10:17:35.999Z</time></trkpt><trkpt lat="40.94396294601196" lon="8.225901150951445"><ele>34.0</ele><time>2026-05-02T10:17:37.999Z</time></trkpt><trkpt lat="40.94405231459142" lon="8.225857110407336"><ele>34.5</ele><time>2026-05-02T10:17:38.999Z</time></trkpt><trkpt lat="40.94417727475627" lon="8.22582407879089"><ele>35.0</ele><time>2026-05-02T10:17:39.999Z</time></trkpt><trkpt lat="40.94432283444932" lon="8.225796650905101"><ele>36.0</ele><time>2026-05-02T10:17:40.999Z</time></trkpt><trkpt lat="40.94447698227929" lon="8.225758698726603"><ele>37.0</ele><time>2026-05-02T10:17:41.999Z</time></trkpt><trkpt lat="40.9446363722123" lon="8.225712419487586"><ele>38.0</ele><time>2026-05-02T10:17:42.999Z</time></trkpt><trkpt lat="40.94481543182387" lon="8.22568946836254"><ele>38.666666666666664</ele><time>2026-05-02T10:17:43.999Z</time></trkpt><trkpt lat="40.945017055939644" lon="8.225641092462121"><ele>39.333333333333336</ele><time>2026-05-02T10:17:44.999Z</time></trkpt><trkpt lat="40.94519221957208" lon="8.22558209213766"><ele>40.0</ele><time>2026-05-02T10:17:45.999Z</time></trkpt><trkpt lat="40.94533763165529" lon="8.225557977341179"><ele>41.25</ele><time>2026-05-02T10:17:46.999Z</time></trkpt><trkpt lat="40.94546283651209" lon="8.225531242262603"><ele>42.5</ele><time>2026-05-02T10:17:47.999Z</time></trkpt><trkpt lat="40.945571140706775" lon="8.225500204754114"><ele>43.75</ele><time>2026-05-02T10:17:48.999Z</time></trkpt><trkpt lat="40.945676475111576" lon="8.225464716821731"><ele>45.0</ele><time>2026-05-02T10:17:49.999Z</time></trkpt><trkpt lat="40.945814057662844" lon="8.225428369906366"><ele>45.0</ele><time>2026-05-02T10:17:50.999Z</time></trkpt><trkpt lat="40.945969914588304" lon="8.225393596023677"><ele>45.0</ele><time>2026-05-02T10:17:51.999Z</time></trkpt><trkpt lat="40.946112062529714" lon="8.225350335485606"><ele>45.0</ele><time>2026-05-02T10:17:52.999Z</time></trkpt><trkpt lat="40.94624537405164" lon="8.225296079397676"><ele>45.0</ele><time>2026-05-02T10:17:53.999Z</time></trkpt><trkpt lat="40.946376268464824" lon="8.2252398994709"><ele>45.0</ele><time>2026-05-02T10:17:54.999Z</time></trkpt><trkpt lat="40.94650530047447" lon="8.225184158768169"><ele>45.0</ele><time>2026-05-02T10:17:55.999Z</time></trkpt><trkpt lat="40.946640559783106" lon="8.225125215674964"><ele>45.0</ele><time>2026-05-02T10:17:56.999Z</time></trkpt><trkpt lat="40.94678281268836" lon="8.225062162848129"><ele>45.0</ele><time>2026-05-02T10:17:57.999Z</time></trkpt><trkpt lat="40.946929138267215" lon="8.224997436952064"><ele>44.0</ele><time>2026-05-02T10:17:58.999Z</time></trkpt><trkpt lat="40.947079948344715" lon="8.224931938344834"><ele>43.0</ele><time>2026-05-02T10:17:59.999Z</time></trkpt><trkpt lat="40.9472406681933" lon="8.224859805646357"><ele>42.0</ele><time>2026-05-02T10:18:00.999Z</time></trkpt><trkpt lat="40.94738774988724" lon="8.224801360904545"><ele>42.0</ele><time>2026-05-02T10:18:01.999Z</time></trkpt><trkpt lat="40.94753726352632" lon="8.224730253441336"><ele>42.0</ele><time>2026-05-02T10:18:02.999Z</time></trkpt><trkpt lat="40.947678789906014" lon="8.224669581637157"><ele>42.0</ele><time>2026-05-02T10:18:03.999Z</time></trkpt><trkpt lat="40.94781286514782" lon="8.224614193248536"><ele>42.0</ele><time>2026-05-02T10:18:04.999Z</time></trkpt><trkpt lat="40.94794265295315" lon="8.224559481129011"><ele>40.0</ele><time>2026-05-02T10:18:05.999Z</time></trkpt><trkpt lat="40.94806852574848" lon="8.224507877815679"><ele>38.0</ele><time>2026-05-02T10:18:06.999Z</time></trkpt><trkpt lat="40.94818834560112" lon="8.224455435092667"><ele>36.0</ele><time>2026-05-02T10:18:07.999Z</time></trkpt><trkpt lat="40.948309443569244" lon="8.224400775013322"><ele>34.0</ele><time>2026-05-02T10:18:08.999Z</time></trkpt><trkpt lat="40.94843846269358" lon="8.224345890765468"><ele>33.0</ele><time>2026-05-02T10:18:09.999Z</time></trkpt><trkpt lat="40.94857198652845" lon="8.224289952623455"><ele>32.0</ele><time>2026-05-02T10:18:10.999Z</time></trkpt><trkpt lat="40.94870746699352" lon="8.224230533192923"><ele>31.0</ele><time>2026-05-02T10:18:11.999Z</time></trkpt><trkpt lat="40.94884716297872" lon="8.224168679571198"><ele>30.0</ele><time>2026-05-02T10:18:12.999Z</time></trkpt><trkpt lat="40.948989374946876" lon="8.224105870801875"><ele>30.0</ele><time>2026-05-02T10:18:13.999Z</time></trkpt><trkpt lat="40.9491371023916" lon="8.224045737580578"><ele>30.0</ele><time>2026-05-02T10:18:14.999Z</time></trkpt><trkpt lat="40.949287080305446" lon="8.223982177639622"><ele>30.0</ele><time>2026-05-02T10:18:15.999Z</time></trkpt><trkpt lat="40.94944008888404" lon="8.22392033211867"><ele>28.0</ele><time>2026-05-02T10:18:16.999Z</time></trkpt><trkpt lat="40.94959487010615" lon="8.223861673810793"><ele>26.0</ele><time>2026-05-02T10:18:17.999Z</time></trkpt><trkpt lat="40.94975199814639" lon="8.223809692303886"><ele>24.0</ele><time>2026-05-02T10:18:18.999Z</time></trkpt><trkpt lat="40.94991274624681" lon="8.223820098374896"><ele>24.666666666666664</ele><time>2026-05-02T10:18:19.999Z</time></trkpt><trkpt lat="40.950076202722606" lon="8.223834881184946"><ele>25.333333333333332</ele><time>2026-05-02T10:18:20.999Z</time></trkpt><trkpt lat="40.95024439450414" lon="8.223836874088871"><ele>26.0</ele><time>2026-05-02T10:18:21.999Z</time></trkpt><trkpt lat="40.950414033201774" lon="8.22386247343554"><ele>26.0</ele><time>2026-05-02T10:18:22.999Z</time></trkpt><trkpt lat="40.95058400292921" lon="8.223878394512473"><ele>26.0</ele><time>2026-05-02T10:18:23.999Z</time></trkpt><trkpt lat="40.95075410089494" lon="8.223894034212853"><ele>26.0</ele><time>2026-05-02T10:18:24.999Z</time></trkpt><trkpt lat="40.95092157659359" lon="8.223903762983502"><ele>25.5</ele><time>2026-05-02T10:18:25.999Z</time></trkpt><trkpt lat="40.95108306400884" lon="8.223904748859722"><ele>25.0</ele><time>2026-05-02T10:18:26.999Z</time></trkpt><trkpt lat="40.95122671475992" lon="8.223881167679727"><ele>24.5</ele><time>2026-05-02T10:18:27.999Z</time></trkpt><trkpt lat="40.9513518812588" lon="8.223814851667287"><ele>24.0</ele><time>2026-05-02T10:18:28.999Z</time></trkpt><trkpt lat="40.9514570014923" lon="8.223705364628287"><ele>24.0</ele><time>2026-05-02T10:18:29.999Z</time></trkpt><trkpt lat="40.951559701728634" lon="8.223586897318619"><ele>24.0</ele><time>2026-05-02T10:18:30.999Z</time></trkpt><trkpt lat="40.95165208995649" lon="8.223454573431896"><ele>24.0</ele><time>2026-05-02T10:18:31.999Z</time></trkpt><trkpt lat="40.951738671438235" lon="8.223310802526429"><ele>24.0</ele><time>2026-05-02T10:18:32.999Z</time></trkpt><trkpt lat="40.951828084312424" lon="8.223160765641193"><ele>22.5</ele><time>2026-05-02T10:18:33.999Z</time></trkpt><trkpt lat="40.951924503410034" lon="8.223013877820048"><ele>21.0</ele><time>2026-05-02T10:18:34.999Z</time></trkpt><trkpt lat="40.952022058763916" lon="8.222865740823059"><ele>19.5</ele><time>2026-05-02T10:18:35.999Z</time></trkpt><trkpt lat="40.9521189233866" lon="8.22271717067758"><ele>18.0</ele><time>2026-05-02T10:18:36.999Z</time></trkpt><trkpt lat="40.952213944903406" lon="8.22258460073711"><ele>18.0</ele><time>2026-05-02T10:18:37.999Z</time></trkpt><trkpt lat="40.952324667100015" lon="8.22248876365714"><ele>18.0</ele><time>2026-05-02T10:18:38.999Z</time></trkpt><trkpt lat="40.95245722919706" lon="8.222441285217306"><ele>18.0</ele><time>2026-05-02T10:18:40Z</time></trkpt><trkpt lat="40.95259439871899" lon="8.222434462653517"><ele>18.0</ele><time>2026-05-02T10:18:41Z</time></trkpt><trkpt lat="40.95273038432223" lon="8.222455391827614"><ele>17.0</ele><time>2026-05-02T10:18:42Z</time></trkpt><trkpt lat="40.952862807684305" lon="8.222483646581773"><ele>16.0</ele><time>2026-05-02T10:18:43Z</time></trkpt><trkpt lat="40.95299506980493" lon="8.222508673888177"><ele>15.0</ele><time>2026-05-02T10:18:44Z</time></trkpt><trkpt lat="40.95311789392792" lon="8.222521262391602"><ele>14.0</ele><time>2026-05-02T10:18:45Z</time></trkpt><trkpt lat="40.953234734613126" lon="8.22250934424977"><ele>14.0</ele><time>2026-05-02T10:18:46Z</time></trkpt><trkpt lat="40.953347407207" lon="8.222462835010814"><ele>14.0</ele><time>2026-05-02T10:18:47Z</time></trkpt><trkpt lat="40.95345743851085" lon="8.222394219793124"><ele>14.0</ele><time>2026-05-02T10:18:48Z</time></trkpt><trkpt lat="40.95356327864132" lon="8.222306531542674"><ele>14.0</ele><time>2026-05-02T10:18:49Z</time></trkpt><trkpt lat="40.953666674400246" lon="8.222206367817495"><ele>13.25</ele><time>2026-05-02T10:18:50Z</time></trkpt><trkpt lat="40.95377504135864" lon="8.222108697241012"><ele>12.5</ele><time>2026-05-02T10:18:51Z</time></trkpt><trkpt lat="40.95390211900984" lon="8.222032323430584"><ele>11.75</ele><time>2026-05-02T10:18:52Z</time></trkpt><trkpt lat="40.9540429132978" lon="8.221977857316046"><ele>11.0</ele><time>2026-05-02T10:18:53Z</time></trkpt><trkpt lat="40.9541873031537" lon="8.221923053132429"><ele>10.666666666666666</ele><time>2026-05-02T10:18:54Z</time></trkpt><trkpt lat="40.954332309057484" lon="8.221865859621724"><ele>10.333333333333334</ele><time>2026-05-02T10:18:55Z</time></trkpt><trkpt lat="40.954475739765485" lon="8.221801591071229"><ele>10.0</ele><time>2026-05-02T10:18:56Z</time></trkpt><trkpt lat="40.95461865880462" lon="8.221732757241908"><ele>10.0</ele><time>2026-05-02T10:18:57Z</time></trkpt><trkpt lat="40.954760702746235" lon="8.221670129603282"><ele>10.0</ele><time>2026-05-02T10:18:58Z</time></trkpt><trkpt lat="40.954902470925774" lon="8.221612755986136"><ele>10.0</ele><time>2026-05-02T10:18:59Z</time></trkpt><trkpt lat="40.95504350619361" lon="8.221560523831252"><ele>10.0</ele><time>2026-05-02T10:19:00Z</time></trkpt><trkpt lat="40.955181996519634" lon="8.221504218592807"><ele>11.0</ele><time>2026-05-02T10:19:01Z</time></trkpt><trkpt lat="40.955317357730344" lon="8.221443738842751"><ele>12.0</ele><time>2026-05-02T10:19:02Z</time></trkpt><trkpt lat="40.95545086408597" lon="8.22138228141892"><ele>13.0</ele><time>2026-05-02T10:19:03Z</time></trkpt><trkpt lat="40.955574396253304" lon="8.221298867394477"><ele>14.0</ele><time>2026-05-02T10:19:04Z</time></trkpt><trkpt lat="40.95568766081501" lon="8.22117001066916"><ele>14.0</ele><time>2026-05-02T10:19:05Z</time></trkpt><trkpt lat="40.95579286693955" lon="8.221011402812529"><ele>14.0</ele><time>2026-05-02T10:19:06Z</time></trkpt><trkpt lat="40.955898682039454" lon="8.220851690761888"><ele>14.0</ele><time>2026-05-02T10:19:07Z</time></trkpt><trkpt lat="40.95600795235774" lon="8.220689352958239"><ele>12.333333333333334</ele><time>2026-05-02T10:19:08Z</time></trkpt><trkpt lat="40.956114887558705" lon="8.220520046592611"><ele>10.666666666666668</ele><time>2026-05-02T10:19:09Z</time></trkpt><trkpt lat="40.95620906037129" lon="8.22035828059371"><ele>9.0</ele><time>2026-05-02T10:19:10Z</time></trkpt><trkpt lat="40.956323908406404" lon="8.22024159673285"><ele>9.0</ele><time>2026-05-02T10:19:11Z</time></trkpt><trkpt lat="40.95641534634935" lon="8.220107124272618"><ele>9.0</ele><time>2026-05-02T10:19:12Z</time></trkpt><trkpt lat="40.95650101534003" lon="8.219996484305012"><ele>9.0</ele><time>2026-05-02T10:19:13Z</time></trkpt><trkpt lat="40.95655518642806" lon="8.219918328550596"><ele>9.0</ele><time>2026-05-02T10:19:14Z</time></trkpt><trkpt lat="40.95660617938317" lon="8.21984735318559"><ele>9.0</ele><time>2026-05-02T10:19:16Z</time></trkpt><trkpt lat="40.95667556973399" lon="8.219732125822356"><ele>8.4</ele><time>2026-05-02T10:19:24Z</time></trkpt><trkpt lat="40.95675284685614" lon="8.21962334318709"><ele>7.800000000000001</ele><time>2026-05-02T10:19:26Z</time></trkpt><trkpt lat="40.956813503953235" lon="8.219537761664562"><ele>7.199999999999999</ele><time>2026-05-02T10:19:27.999Z</time></trkpt><trkpt lat="40.95688422222389" lon="8.21943241926695"><ele>6.6</ele><time>2026-05-02T10:19:29.999Z</time></trkpt><trkpt lat="40.956966201409415" lon="8.219307265007432"><ele>6.0</ele><time>2026-05-02T10:19:31.999Z</time></trkpt><trkpt lat="40.95702065315366" lon="8.219237489272608"><ele>6.0</ele><time>2026-05-02T10:19:32.999Z</time></trkpt><trkpt lat="40.95708360033521" lon="8.219158499740109"><ele>6.0</ele><time>2026-05-02T10:19:33.999Z</time></trkpt><trkpt lat="40.95714718153198" lon="8.219050301671313"><ele>6.0</ele><time>2026-05-02T10:19:34.999Z</time></trkpt><trkpt lat="40.957213149594715" lon="8.218944698421033"><ele>6.0</ele><time>2026-05-02T10:19:35.999Z</time></trkpt><trkpt lat="40.957280797929464" lon="8.218842930562296"><ele>6.0</ele><time>2026-05-02T10:19:36.999Z</time></trkpt><trkpt lat="40.957344789919595" lon="8.21872781759876"><ele>6.75</ele><time>2026-05-02T10:19:37.999Z</time></trkpt><trkpt lat="40.95740744120208" lon="8.218611781269264"><ele>7.5</ele><time>2026-05-02T10:19:38.999Z</time></trkpt><trkpt lat="40.95746275986975" lon="8.21848374107509"><ele>8.25</ele><time>2026-05-02T10:19:39.999Z</time></trkpt><trkpt lat="40.95751201835196" lon="8.218345767528794"><ele>9.0</ele><time>2026-05-02T10:19:40.999Z</time></trkpt><trkpt lat="40.95755851296928" lon="8.218196815337295"><ele>7.25</ele><time>2026-05-02T10:19:41.999Z</time></trkpt><trkpt lat="40.95760607742436" lon="8.218038044740078"><ele>5.5</ele><time>2026-05-02T10:19:42.999Z</time></trkpt><trkpt lat="40.95765806011528" lon="8.217877113866221"><ele>3.75</ele><time>2026-05-02T10:19:43.999Z</time></trkpt><trkpt lat="40.957713015524085" lon="8.217710186895767"><ele>2.0</ele><time>2026-05-02T10:19:44.999Z</time></trkpt><trkpt lat="40.95776612910725" lon="8.217543094290667"><ele>2.0</ele><time>2026-05-02T10:19:45.999Z</time></trkpt><trkpt lat="40.957819140224245" lon="8.217380523798322"><ele>2.0</ele><time>2026-05-02T10:19:46.999Z</time></trkpt><trkpt lat="40.95787038689243" lon="8.21721647805617"><ele>2.0</ele><time>2026-05-02T10:19:47.999Z</time></trkpt><trkpt lat="40.95791920861537" lon="8.217056303289395"><ele>2.0</ele><time>2026-05-02T10:19:48.999Z</time></trkpt><trkpt lat="40.957967159259724" lon="8.21689973345836"><ele>2.5</ele><time>2026-05-02T10:19:49.999Z</time></trkpt><trkpt lat="40.958015199909724" lon="8.216748118153223"><ele>3.0</ele><time>2026-05-02T10:19:50.999Z</time></trkpt><trkpt lat="40.95806307886023" lon="8.216599467557112"><ele>3.5</ele><time>2026-05-02T10:19:51.999Z</time></trkpt><trkpt lat="40.95811052418608" lon="8.216450355062891"><ele>4.0</ele><time>2026-05-02T10:19:52.999Z</time></trkpt><trkpt lat="40.9581573439587" lon="8.216302332967645"><ele>4.75</ele><time>2026-05-02T10:19:53.999Z</time></trkpt><trkpt lat="40.958202777755325" lon="8.216155699071525"><ele>5.5</ele><time>2026-05-02T10:19:54.999Z</time></trkpt><trkpt lat="40.95824955635884" lon="8.216008466225645"><ele>6.25</ele><time>2026-05-02T10:19:55.999Z</time></trkpt><trkpt lat="40.958297939377275" lon="8.21585464671426"><ele>7.0</ele><time>2026-05-02T10:19:56.999Z</time></trkpt><trkpt lat="40.958349750023764" lon="8.21569431301373"><ele>6.5</ele><time>2026-05-02T10:19:57.999Z</time></trkpt><trkpt lat="40.95840403141668" lon="8.21552973597876"><ele>6.0</ele><time>2026-05-02T10:19:58.999Z</time></trkpt><trkpt lat="40.95845565717897" lon="8.215357717873172"><ele>5.5</ele><time>2026-05-02T10:19:59.999Z</time></trkpt><trkpt lat="40.95851088286285" lon="8.215184072134173"><ele>5.0</ele><time>2026-05-02T10:20:00.999Z</time></trkpt><trkpt lat="40.95856630095716" lon="8.215007571453246"><ele>5.0</ele><time>2026-05-02T10:20:01.999Z</time></trkpt><trkpt lat="40.95862253827022" lon="8.21483018939634"><ele>5.0</ele><time>2026-05-02T10:20:02.999Z</time></trkpt><trkpt lat="40.95867645080754" lon="8.21465083120421"><ele>5.0</ele><time>2026-05-02T10:20:03.999Z</time></trkpt><trkpt lat="40.95873093293839" lon="8.214472644994324"><ele>5.0</ele><time>2026-05-02T10:20:04.999Z</time></trkpt><trkpt lat="40.958789215096886" lon="8.214294356174921"><ele>5.75</ele><time>2026-05-02T10:20:05.999Z</time></trkpt><trkpt lat="40.95884634017038" lon="8.21411811196212"><ele>6.5</ele><time>2026-05-02T10:20:06.999Z</time></trkpt><trkpt lat="40.95890321402456" lon="8.2139476550607"><ele>7.25</ele><time>2026-05-02T10:20:07.999Z</time></trkpt><trkpt lat="40.958954665442924" lon="8.213779128269907"><ele>8.0</ele><time>2026-05-02T10:20:08.999Z</time></trkpt><trkpt lat="40.95900956348445" lon="8.21365961154177"><ele>7.999999999999999</ele><time>2026-05-02T10:20:09.999Z</time></trkpt><trkpt lat="40.95905708968655" lon="8.213538515801806"><ele>8.0</ele><time>2026-05-02T10:20:10.999Z</time></trkpt><trkpt lat="40.95910968722323" lon="8.21343391394309"><ele>8.0</ele><time>2026-05-02T10:20:11.999Z</time></trkpt><trkpt lat="40.95916035396058" lon="8.21334119472551"><ele>8.0</ele><time>2026-05-02T10:20:12.999Z</time></trkpt><trkpt lat="40.95920891991253" lon="8.213262849423204"><ele>7.999999999999999</ele><time>2026-05-02T10:20:13.999Z</time></trkpt><trkpt lat="40.9592555736918" lon="8.213183944125978"><ele>8.0</ele><time>2026-05-02T10:20:14.999Z</time></trkpt><trkpt lat="40.95930796413004" lon="8.21309041494234"><ele>8.0</ele><time>2026-05-02T10:20:15.999Z</time></trkpt><trkpt lat="40.95937152762758" lon="8.212976145309788"><ele>8.0</ele><time>2026-05-02T10:20:16.999Z</time></trkpt><trkpt lat="40.959439659161596" lon="8.212872878644268"><ele>8.0</ele><time>2026-05-02T10:20:17.999Z</time></trkpt><trkpt lat="40.9595049156543" lon="8.212794738854827"><ele>8.0</ele><time>2026-05-02T10:20:18.999Z</time></trkpt><trkpt lat="40.959555438039274" lon="8.21273020159809"><ele>8.0</ele><time>2026-05-02T10:20:19.999Z</time></trkpt><trkpt lat="40.95962501573203" lon="8.212627943104575"><ele>8.0</ele><time>2026-05-02T10:20:21.999Z</time></trkpt><trkpt lat="40.95970488639501" lon="8.212505318753866"><ele>8.0</ele><time>2026-05-02T10:20:23.999Z</time></trkpt><trkpt lat="40.9597524540243" lon="8.212433190718981"><ele>8.0</ele><time>2026-05-02T10:20:24.999Z</time></trkpt><trkpt lat="40.959806499070226" lon="8.212353002401152"><ele>8.0</ele><time>2026-05-02T10:20:25.999Z</time></trkpt><trkpt lat="40.95987070070441" lon="8.212269870124226"><ele>8.0</ele><time>2026-05-02T10:20:26.999Z</time></trkpt><trkpt lat="40.95994822023808" lon="8.212195412318994"><ele>7.6000000000000005</ele><time>2026-05-02T10:20:27.999Z</time></trkpt><trkpt lat="40.96003658588063" lon="8.212134524011075"><ele>7.200000000000001</ele><time>2026-05-02T10:20:28.999Z</time></trkpt><trkpt lat="40.960118152765475" lon="8.212102623388086"><ele>6.8</ele><time>2026-05-02T10:20:29.999Z</time></trkpt><trkpt lat="40.960219144637705" lon="8.21208543027802"><ele>6.4</ele><time>2026-05-02T10:20:31.999Z</time></trkpt><trkpt lat="40.960301259042716" lon="8.212072770041651"><ele>6.0</ele><time>2026-05-02T10:20:33.999Z</time></trkpt><trkpt lat="40.96039753718742" lon="8.212065688692878"><ele>6.0</ele><time>2026-05-02T10:20:35.999Z</time></trkpt><trkpt lat="40.96050810935202" lon="8.212057554913818"><ele>6.0</ele><time>2026-05-02T10:20:37.999Z</time></trkpt><trkpt lat="40.96060372095131" lon="8.212038439103647"><ele>6.0</ele><time>2026-05-02T10:20:39.999Z</time></trkpt><trkpt lat="40.96068652816895" lon="8.212018072651265"><ele>6.0</ele><time>2026-05-02T10:23:25Z</time></trkpt><trkpt lat="40.96076581032579" lon="8.212045812951244"><ele>6.0</ele><time>2026-05-02T10:23:27Z</time></trkpt><trkpt lat="40.960840394779545" lon="8.212040639815827"><ele>6.0</ele><time>2026-05-02T10:23:28Z</time></trkpt><trkpt lat="40.96092643938686" lon="8.212024742271673"><ele>6.199999999999999</ele><time>2026-05-02T10:23:29Z</time></trkpt><trkpt lat="40.961021108800814" lon="8.21201711787745"><ele>6.3999999999999995</ele><time>2026-05-02T10:23:30Z</time></trkpt><trkpt lat="40.961119873871574" lon="8.212015885704876"><ele>6.6</ele><time>2026-05-02T10:23:31Z</time></trkpt><trkpt lat="40.96122064363832" lon="8.212010516075205"><ele>6.8</ele><time>2026-05-02T10:23:32Z</time></trkpt><trkpt lat="40.96131971872308" lon="8.212012896177903"><ele>7.0</ele><time>2026-05-02T10:23:33Z</time></trkpt><trkpt lat="40.9614143687661" lon="8.211986455006222"><ele>7.000000000000001</ele><time>2026-05-02T10:23:34Z</time></trkpt><trkpt lat="40.961506270352025" lon="8.211979099554386"><ele>7.0</ele><time>2026-05-02T10:23:35Z</time></trkpt><trkpt lat="40.961597434532564" lon="8.211971140579053"><ele>7.0</ele><time>2026-05-02T10:23:36Z</time></trkpt><trkpt lat="40.96168901416647" lon="8.211965105905517"><ele>7.0</ele><time>2026-05-02T10:23:37Z</time></trkpt><trkpt lat="40.96175796022311" lon="8.211959972642553"><ele>7.000000000000001</ele><time>2026-05-02T10:23:38Z</time></trkpt><trkpt lat="40.96185665663424" lon="8.211954571656372"><ele>7.0</ele><time>2026-05-02T10:23:39Z</time></trkpt><trkpt lat="40.96196793675075" lon="8.211946919901944"><ele>6.8</ele><time>2026-05-02T10:23:40Z</time></trkpt><trkpt lat="40.96205888388809" lon="8.211940174538398"><ele>6.6</ele><time>2026-05-02T10:23:41Z</time></trkpt><trkpt lat="40.9621444302426" lon="8.21193027378509"><ele>6.3999999999999995</ele><time>2026-05-02T10:23:42Z</time></trkpt><trkpt lat="40.962233604892084" lon="8.211908285003384"><ele>6.199999999999999</ele><time>2026-05-02T10:23:42.999Z</time></trkpt><trkpt lat="40.962323586058616" lon="8.211864278174078"><ele>6.0</ele><time>2026-05-02T10:23:43.999Z</time></trkpt><trkpt lat="40.96241750796233" lon="8.211809306110952"><ele>6.0</ele><time>2026-05-02T10:23:44.999Z</time></trkpt><trkpt lat="40.962501603273424" lon="8.211748308802363"><ele>6.0</ele><time>2026-05-02T10:23:45.999Z</time></trkpt><trkpt lat="40.96258064887754" lon="8.211694029259201"><ele>6.0</ele><time>2026-05-02T10:23:46.999Z</time></trkpt><trkpt lat="40.962648473650795" lon="8.211645431382424"><ele>6.0</ele><time>2026-05-02T10:23:47.999Z</time></trkpt><trkpt lat="40.96271045561239" lon="8.211601446459895"><ele>6.0</ele><time>2026-05-02T10:23:48.999Z</time></trkpt><trkpt lat="40.96280910754582" lon="8.211532149580695"><ele>6.0</ele><time>2026-05-02T10:23:50.999Z</time></trkpt><trkpt lat="40.96289916410323" lon="8.211470551433512"><ele>6.333333333333333</ele><time>2026-05-02T10:23:52.999Z</time></trkpt><trkpt lat="40.96298279975369" lon="8.211402059858502"><ele>6.666666666666666</ele><time>2026-05-02T10:24:00.999Z</time></trkpt><trkpt lat="40.96306193771758" lon="8.211328452908269"><ele>7.0</ele><time>2026-05-02T10:24:02.999Z</time></trkpt><trkpt lat="40.963131082781864" lon="8.2112577324467"><ele>7.333333333333333</ele><time>2026-05-02T10:24:04.999Z</time></trkpt><trkpt lat="40.963194776412564" lon="8.21119503786763"><ele>7.666666666666666</ele><time>2026-05-02T10:24:08.999Z</time></trkpt><trkpt lat="40.96324269937564" lon="8.211139148653855"><ele>8.0</ele><time>2026-05-02T10:24:10.999Z</time></trkpt><trkpt lat="40.96331868961437" lon="8.211035495286582"><ele>8.166666666666666</ele><time>2026-05-02T10:24:12.999Z</time></trkpt><trkpt lat="40.96337178665691" lon="8.210982782066644"><ele>8.333333333333332</ele><time>2026-05-02T10:24:13.999Z</time></trkpt><trkpt lat="40.963461645032716" lon="8.21089654275816"><ele>8.5</ele><time>2026-05-02T10:24:15.999Z</time></trkpt><trkpt lat="40.96352503779692" lon="8.210861157412527"><ele>8.666666666666666</ele><time>2026-05-02T10:24:23.999Z</time></trkpt><trkpt lat="40.96360151525272" lon="8.210801520517226"><ele>8.833333333333334</ele><time>2026-05-02T10:24:26.999Z</time></trkpt><trkpt lat="40.96367180344078" lon="8.21072277538982"><ele>9.0</ele><time>2026-05-02T10:24:30.999Z</time></trkpt><trkpt lat="40.963738404301665" lon="8.210654102025657"><ele>9.0</ele><time>2026-05-02T10:24:32.999Z</time></trkpt><trkpt lat="40.963789545371085" lon="8.21059529201395"><ele>9.0</ele><time>2026-05-02T10:24:34.999Z</time></trkpt><trkpt lat="40.96384054715579" lon="8.210532736584236"><ele>9.0</ele><time>2026-05-02T10:24:37.999Z</time></trkpt><trkpt lat="40.96389418549515" lon="8.21044781948998"><ele>9.0</ele><time>2026-05-02T10:24:39.999Z</time></trkpt><trkpt lat="40.963969619886186" lon="8.21035877894587"><ele>9.0</ele><time>2026-05-02T10:24:41.999Z</time></trkpt><trkpt lat="40.96404076070412" lon="8.210260116611094"><ele>9.0</ele><time>2026-05-02T10:24:43.999Z</time></trkpt><trkpt lat="40.964127007403036" lon="8.210136554248736"><ele>9.0</ele><time>2026-05-02T10:24:45.999Z</time></trkpt><trkpt lat="40.964177651752635" lon="8.210058799103688"><ele>9.0</ele><time>2026-05-02T10:24:46.999Z</time></trkpt><trkpt lat="40.96422753407267" lon="8.209981738618616"><ele>9.0</ele><time>2026-05-02T10:24:47.999Z</time></trkpt><trkpt lat="40.96427061177419" lon="8.209916619190588"><ele>9.0</ele><time>2026-05-02T10:24:48.999Z</time></trkpt><trkpt lat="40.96432888207017" lon="8.209830365580851"><ele>9.0</ele><time>2026-05-02T10:24:50.999Z</time></trkpt><trkpt lat="40.96438245604117" lon="8.20974951511298"><ele>9.0</ele><time>2026-05-02T10:24:52.999Z</time></trkpt><trkpt lat="40.96446353194189" lon="8.209632065651036"><ele>9.0</ele><time>2026-05-02T10:24:54.999Z</time></trkpt><trkpt lat="40.96453269341063" lon="8.209538090776153"><ele>9.0</ele><time>2026-05-02T10:24:56.999Z</time></trkpt><trkpt lat="40.964605060664944" lon="8.209441836336314"><ele>9.0</ele><time>2026-05-02T10:24:59Z</time></trkpt><trkpt lat="40.964699652773696" lon="8.209360545588808"><ele>9.0</ele><time>2026-05-02T10:25:01Z</time></trkpt><trkpt lat="40.96479490077601" lon="8.209298538771323"><ele>9.0</ele><time>2026-05-02T10:25:03Z</time></trkpt><trkpt lat="40.96488404992057" lon="8.209255454017432"><ele>9.0</ele><time>2026-05-02T10:25:05Z</time></trkpt><trkpt lat="40.96497124830271" lon="8.209199570175457"><ele>9.0</ele><time>2026-05-02T10:25:07Z</time></trkpt><trkpt lat="40.96505435261111" lon="8.209136309556017"><ele>9.0</ele><time>2026-05-02T10:25:09Z</time></trkpt><trkpt lat="40.96513332016848" lon="8.20910084771471"><ele>9.0</ele><time>2026-05-02T10:25:12Z</time></trkpt><trkpt lat="40.96520744844627" lon="8.209051137401117"><ele>9.0</ele><time>2026-05-02T10:25:14Z</time></trkpt><trkpt lat="40.96530285176635" lon="8.208979061190115"><ele>9.2</ele><time>2026-05-02T10:25:16Z</time></trkpt><trkpt lat="40.96537641237486" lon="8.208911271417984"><ele>9.4</ele><time>2026-05-02T10:25:18Z</time></trkpt><trkpt lat="40.965443271086606" lon="8.208835443029834"><ele>9.6</ele><time>2026-05-02T10:25:20Z</time></trkpt><trkpt lat="40.9655365364696" lon="8.208741895705288"><ele>9.8</ele><time>2026-05-02T10:25:22Z</time></trkpt><trkpt lat="40.96563093819428" lon="8.20865720058335"><ele>10.0</ele><time>2026-05-02T10:25:24Z</time></trkpt><trkpt lat="40.965721378730755" lon="8.208569025475377"><ele>10.0</ele><time>2026-05-02T10:25:26Z</time></trkpt><trkpt lat="40.96581393735267" lon="8.208462035908598"><ele>10.0</ele><time>2026-05-02T10:25:28Z</time></trkpt><trkpt lat="40.96588741554826" lon="8.208377571726617"><ele>10.0</ele><time>2026-05-02T10:25:30Z</time></trkpt><trkpt lat="40.96595002510361" lon="8.208309689972388"><ele>10.0</ele><time>2026-05-02T10:25:32Z</time></trkpt><trkpt lat="40.96603075296678" lon="8.208222869063212"><ele>10.0</ele><time>2026-05-02T10:25:34Z</time></trkpt><trkpt lat="40.96609497313061" lon="8.208136799903892"><ele>10.285714285714285</ele><time>2026-05-02T10:25:36Z</time></trkpt><trkpt lat="40.96615225774077" lon="8.208102226622529"><ele>10.571428571428571</ele><time>2026-05-02T10:30:27.999Z</time></trkpt><trkpt lat="40.96620478242378" lon="8.208160602969382"><ele>10.857142857142858</ele><time>2026-05-02T10:33:01.999Z</time></trkpt><trkpt lat="40.96625219479338" lon="8.208220094227512"><ele>11.142857142857142</ele><time>2026-05-02T10:33:16.999Z</time></trkpt><trkpt lat="40.96630329292978" lon="8.208293626794351"><ele>11.428571428571429</ele><time>2026-05-02T10:33:35Z</time></trkpt><trkpt lat="40.96634347490775" lon="8.208363234931847"><ele>11.714285714285714</ele><time>2026-05-02T10:33:41Z</time></trkpt><trkpt lat="40.966379917781865" lon="8.208440009145443"><ele>12.0</ele><time>2026-05-02T10:34:09Z</time></trkpt><trkpt lat="40.96641269152659" lon="8.208511821564459"><ele>10.999999999999998</ele><time>2026-05-02T10:34:16Z</time></trkpt><trkpt lat="40.96644642073205" lon="8.208583292665908"><ele>10.0</ele><time>2026-05-02T10:34:34.999Z</time></trkpt><trkpt lat="40.966513115420646" lon="8.208565221577713"><ele>9.0</ele><time>2026-05-02T10:35:25.999Z</time></trkpt><trkpt lat="40.96656134833436" lon="8.208504750021131"><ele>8.0</ele><time>2026-05-02T10:35:33Z</time></trkpt><trkpt lat="40.96651553621296" lon="8.208563756610172"><ele>7.0</ele><time>2026-05-02T10:42:50.999Z</time></trkpt><trkpt lat="40.96646256583325" lon="8.208618423150469"><ele>6.0</ele><time>2026-05-02T10:42:56.999Z</time></trkpt><trkpt lat="40.96642448684321" lon="8.208547924539975"><ele>5.0</ele><time>2026-05-02T10:43:08.999Z</time></trkpt><trkpt lat="40.96638952644805" lon="8.208477927963415"><ele>5.0</ele><time>2026-05-02T10:43:14.999Z</time></trkpt><trkpt lat="40.96635936765755" lon="8.208404173524617"><ele>5.0</ele><time>2026-05-02T10:43:19.999Z</time></trkpt><trkpt lat="40.966322256759184" lon="8.208335037354225"><ele>5.0</ele><time>2026-05-02T10:43:27.999Z</time></trkpt><trkpt lat="40.96628179726538" lon="8.208266766113177"><ele>5.0</ele><time>2026-05-02T10:43:32.999Z</time></trkpt><trkpt lat="40.96623278294823" lon="8.208195438950874"><ele>5.0</ele><time>2026-05-02T10:43:39.999Z</time></trkpt><trkpt lat="40.96618570839606" lon="8.2081262656754"><ele>5.0</ele><time>2026-05-02T10:43:45.999Z</time></trkpt><trkpt lat="40.96612551006223" lon="8.208153360926453"><ele>5.0</ele><time>2026-05-02T10:43:53Z</time></trkpt><trkpt lat="40.9660849970365" lon="8.208080501035498"><ele>6.166666666666667</ele><time>2026-05-02T10:44:23Z</time></trkpt><trkpt lat="40.966164216544506" lon="8.208087398910006"><ele>7.333333333333334</ele><time>2026-05-02T10:49:53.999Z</time></trkpt><trkpt lat="40.96622659292076" lon="8.208002851481274"><ele>8.5</ele><time>2026-05-02T10:49:55.999Z</time></trkpt><trkpt lat="40.966280107612185" lon="8.207944471940182"><ele>9.666666666666666</ele><time>2026-05-02T10:49:57.999Z</time></trkpt><trkpt lat="40.96633520513286" lon="8.207879632734224"><ele>10.833333333333334</ele><time>2026-05-02T10:49:59.999Z</time></trkpt><trkpt lat="40.966441112599014" lon="8.207766595329705"><ele>12.0</ele><time>2026-05-02T10:50:01.999Z</time></trkpt><trkpt lat="40.966500848203225" lon="8.207702451917172"><ele>12.0</ele><time>2026-05-02T10:50:02.999Z</time></trkpt><trkpt lat="40.96655252864054" lon="8.207642072774457"><ele>12.0</ele><time>2026-05-02T10:50:03.999Z</time></trkpt><trkpt lat="40.96663521344797" lon="8.207551721662984"><ele>12.0</ele><time>2026-05-02T10:50:05.999Z</time></trkpt><trkpt lat="40.966738262528544" lon="8.207446824358852"><ele>12.0</ele><time>2026-05-02T10:50:07.999Z</time></trkpt><trkpt lat="40.966794243970796" lon="8.20739647838372"><ele>12.0</ele><time>2026-05-02T10:50:08.999Z</time></trkpt><trkpt lat="40.9668443971784" lon="8.207344278797255"><ele>12.0</ele><time>2026-05-02T10:50:10Z</time></trkpt><trkpt lat="40.966936190225" lon="8.207252361622547"><ele>11.8</ele><time>2026-05-02T10:50:12Z</time></trkpt><trkpt lat="40.96700263156365" lon="8.207186572543662"><ele>11.6</ele><time>2026-05-02T10:50:14Z</time></trkpt><trkpt lat="40.967079146392756" lon="8.207110915704579"><ele>11.4</ele><time>2026-05-02T10:50:17Z</time></trkpt><trkpt lat="40.96715075599275" lon="8.20705174059158"><ele>11.200000000000001</ele><time>2026-05-02T10:50:19Z</time></trkpt><trkpt lat="40.96725042457588" lon="8.206971656962809"><ele>11.0</ele><time>2026-05-02T10:50:21Z</time></trkpt><trkpt lat="40.967361565822735" lon="8.20689158095119"><ele>11.0</ele><time>2026-05-02T10:50:23Z</time></trkpt><trkpt lat="40.96747123527658" lon="8.206817495088215"><ele>11.0</ele><time>2026-05-02T10:50:25Z</time></trkpt><trkpt lat="40.96757821514319" lon="8.20675440946362"><ele>11.0</ele><time>2026-05-02T10:50:27Z</time></trkpt><trkpt lat="40.96768580795575" lon="8.20666676500869"><ele>11.0</ele><time>2026-05-02T10:50:29Z</time></trkpt><trkpt lat="40.967735215485305" lon="8.20661381778744"><ele>11.0</ele><time>2026-05-02T10:50:30Z</time></trkpt><trkpt lat="40.967795411371405" lon="8.20657676253008"><ele>11.5</ele><time>2026-05-02T10:50:31Z</time></trkpt><trkpt lat="40.9679142839403" lon="8.206493797650728"><ele>12.0</ele><time>2026-05-02T10:50:33Z</time></trkpt><trkpt lat="40.96797250400279" lon="8.206459566621794"><ele>12.5</ele><time>2026-05-02T10:50:34Z</time></trkpt><trkpt lat="40.96802987620952" lon="8.206419616145462"><ele>13.0</ele><time>2026-05-02T10:50:35Z</time></trkpt><trkpt lat="40.96808843563286" lon="8.20637802255899"><ele>13.500000000000002</ele><time>2026-05-02T10:50:36Z</time></trkpt><trkpt lat="40.96815220030601" lon="8.20634008776035"><ele>14.0</ele><time>2026-05-02T10:50:37Z</time></trkpt><trkpt lat="40.968217362021626" lon="8.206298047375368"><ele>14.0</ele><time>2026-05-02T10:50:38Z</time></trkpt><trkpt lat="40.9682834926996" lon="8.20624939679472"><ele>13.999999999999998</ele><time>2026-05-02T10:50:39Z</time></trkpt><trkpt lat="40.96838240749902" lon="8.206190249937116"><ele>13.999999999999998</ele><time>2026-05-02T10:50:41Z</time></trkpt><trkpt lat="40.96846385341528" lon="8.206134472410263"><ele>14.0</ele><time>2026-05-02T10:50:43Z</time></trkpt><trkpt lat="40.968555648907184" lon="8.206060944745536"><ele>14.0</ele><time>2026-05-02T10:50:45Z</time></trkpt><trkpt lat="40.96865701167569" lon="8.20596030182026"><ele>14.333333333333334</ele><time>2026-05-02T10:50:47Z</time></trkpt><trkpt lat="40.96870102755647" lon="8.20589621207187"><ele>14.666666666666668</ele><time>2026-05-02T10:50:48Z</time></trkpt><trkpt lat="40.96873854356992" lon="8.205828008767508"><ele>15.0</ele><time>2026-05-02T10:50:49Z</time></trkpt><trkpt lat="40.96877531402603" lon="8.205758384699923"><ele>15.333333333333332</ele><time>2026-05-02T10:50:50Z</time></trkpt><trkpt lat="40.96880180566049" lon="8.205681972967419"><ele>15.666666666666666</ele><time>2026-05-02T10:50:51Z</time></trkpt><trkpt lat="40.96884441965084" lon="8.205532605544787"><ele>16.0</ele><time>2026-05-02T10:50:53Z</time></trkpt><trkpt lat="40.968877364268195" lon="8.205375691832002"><ele>15.999999999999998</ele><time>2026-05-02T10:50:55Z</time></trkpt><trkpt lat="40.96889373905916" lon="8.205282770987846"><ele>16.0</ele><time>2026-05-02T10:50:56Z</time></trkpt><trkpt lat="40.96890756055642" lon="8.205181696689518"><ele>16.0</ele><time>2026-05-02T10:50:57Z</time></trkpt><trkpt lat="40.968923698388316" lon="8.205083854633887"><ele>16.0</ele><time>2026-05-02T10:50:58Z</time></trkpt><trkpt lat="40.9689325892544" lon="8.204979862098252"><ele>15.999999999999998</ele><time>2026-05-02T10:50:59Z</time></trkpt><trkpt lat="40.968930009559045" lon="8.20487762079264"><ele>16.0</ele><time>2026-05-02T10:51:00Z</time></trkpt><trkpt lat="40.96891451192737" lon="8.204782833252956"><ele>18.333333333333332</ele><time>2026-05-02T10:51:01Z</time></trkpt><trkpt lat="40.968875669076645" lon="8.204710255162672"><ele>20.666666666666664</ele><time>2026-05-02T10:51:02Z</time></trkpt><trkpt lat="40.96882038180814" lon="8.204660224929386"><ele>23.0</ele><time>2026-05-02T10:51:03Z</time></trkpt><trkpt lat="40.968707500965934" lon="8.204625066817874"><ele>25.333333333333332</ele><time>2026-05-02T10:51:05Z</time></trkpt><trkpt lat="40.96861740703822" lon="8.204602281489004"><ele>27.666666666666668</ele><time>2026-05-02T10:51:07Z</time></trkpt><trkpt lat="40.96854712675983" lon="8.204591750371875"><ele>30.0</ele><time>2026-05-02T10:51:09Z</time></trkpt><trkpt lat="40.96845739486614" lon="8.204552985894251"><ele>30.0</ele><time>2026-05-02T10:51:12Z</time></trkpt><trkpt lat="40.96838982391895" lon="8.204532899521006"><ele>30.0</ele><time>2026-05-02T10:52:19Z</time></trkpt><trkpt lat="40.96833989442945" lon="8.20443648002414"><ele>30.0</ele><time>2026-05-02T10:52:21Z</time></trkpt><trkpt lat="40.96831978734665" lon="8.204295142598836"><ele>30.0</ele><time>2026-05-02T10:52:23Z</time></trkpt><trkpt lat="40.96838322159715" lon="8.204177802546619"><ele>30.0</ele><time>2026-05-02T10:52:25Z</time></trkpt><trkpt lat="40.9683695661776" lon="8.20405996807432"><ele>34.8</ele><time>2026-05-02T10:52:27Z</time></trkpt><trkpt lat="40.96829764853127" lon="8.203989181754002"><ele>39.6</ele><time>2026-05-02T10:52:29Z</time></trkpt><trkpt lat="40.96820739533858" lon="8.203953161016125"><ele>44.400000000000006</ele><time>2026-05-02T10:52:31Z</time></trkpt><trkpt lat="40.96811018186389" lon="8.20391085626896"><ele>49.2</ele><time>2026-05-02T10:52:33Z</time></trkpt><trkpt lat="40.968030780396305" lon="8.203845206018826"><ele>54.0</ele><time>2026-05-02T10:52:35Z</time></trkpt><trkpt lat="40.967948238277856" lon="8.20376501068783"><ele>54.0</ele><time>2026-05-02T10:52:37Z</time></trkpt><trkpt lat="40.96785263959907" lon="8.203688812951816"><ele>54.00000000000001</ele><time>2026-05-02T10:52:39Z</time></trkpt><trkpt lat="40.967743238597315" lon="8.203629182091385"><ele>54.00000000000001</ele><time>2026-05-02T10:52:41Z</time></trkpt><trkpt lat="40.9676142128745" lon="8.203622633920022"><ele>54.0</ele><time>2026-05-02T10:52:43Z</time></trkpt><trkpt lat="40.967545061595295" lon="8.203644177310053"><ele>54.0</ele><time>2026-05-02T10:52:44Z</time></trkpt><trkpt lat="40.967479088237226" lon="8.203671597898706"><ele>52.2</ele><time>2026-05-02T10:52:45Z</time></trkpt><trkpt lat="40.96741638007175" lon="8.203693624553916"><ele>50.400000000000006</ele><time>2026-05-02T10:52:46Z</time></trkpt><trkpt lat="40.96731628339855" lon="8.203727702187912"><ele>48.6</ele><time>2026-05-02T10:52:48Z</time></trkpt><trkpt lat="40.967237775686804" lon="8.203845012530243"><ele>46.8</ele><time>2026-05-02T10:52:50Z</time></trkpt><trkpt lat="40.96719064236348" lon="8.203929347266449"><ele>45.0</ele><time>2026-05-02T10:52:51Z</time></trkpt><trkpt lat="40.967133994478196" lon="8.204011491343302"><ele>44.0</ele><time>2026-05-02T10:52:52Z</time></trkpt><trkpt lat="40.96707766192796" lon="8.204101597842314"><ele>43.0</ele><time>2026-05-02T10:52:53Z</time></trkpt><trkpt lat="40.96702075833925" lon="8.204182126130963"><ele>42.0</ele><time>2026-05-02T10:52:54Z</time></trkpt><trkpt lat="40.96697181998178" lon="8.20424632432858"><ele>41.0</ele><time>2026-05-02T10:52:55Z</time></trkpt><trkpt lat="40.966927048038634" lon="8.204312630356402"><ele>40.0</ele><time>2026-05-02T10:52:56Z</time></trkpt><trkpt lat="40.9668809016327" lon="8.204382196520724"><ele>39.0</ele><time>2026-05-02T10:52:57Z</time></trkpt><trkpt lat="40.96680254857982" lon="8.204500925254063"><ele>39.0</ele><time>2026-05-02T10:52:59Z</time></trkpt><trkpt lat="40.96676448333782" lon="8.204657809178594"><ele>39.0</ele><time>2026-05-02T10:53:01Z</time></trkpt><trkpt lat="40.96675854425406" lon="8.20475821404179"><ele>39.0</ele><time>2026-05-02T10:53:02Z</time></trkpt><trkpt lat="40.96674262672008" lon="8.204866806189852"><ele>39.0</ele><time>2026-05-02T10:53:03Z</time></trkpt><trkpt lat="40.96670497506664" lon="8.20496343117167"><ele>39.0</ele><time>2026-05-02T10:53:04Z</time></trkpt><trkpt lat="40.966644378612486" lon="8.205045209599012"><ele>38.0</ele><time>2026-05-02T10:53:05Z</time></trkpt><trkpt lat="40.96657401330159" lon="8.205100708091146"><ele>37.0</ele><time>2026-05-02T10:53:06Z</time></trkpt><trkpt lat="40.966490806384336" lon="8.20505763267792"><ele>36.0</ele><time>2026-05-02T10:53:07Z</time></trkpt><trkpt lat="40.966405591581854" lon="8.20504666286059"><ele>35.0</ele><time>2026-05-02T10:53:08Z</time></trkpt><trkpt lat="40.96630769231171" lon="8.205023848293001"><ele>34.0</ele><time>2026-05-02T10:53:09Z</time></trkpt><trkpt lat="40.96620307779244" lon="8.204999104016016"><ele>34.0</ele><time>2026-05-02T10:53:10Z</time></trkpt><trkpt lat="40.96609043675532" lon="8.204972703835086"><ele>34.0</ele><time>2026-05-02T10:53:11Z</time></trkpt><trkpt lat="40.9659736301314" lon="8.204945935648619"><ele>34.0</ele><time>2026-05-02T10:53:12Z</time></trkpt><trkpt lat="40.96585112597404" lon="8.204941450925604"><ele>34.0</ele><time>2026-05-02T10:53:13Z</time></trkpt><trkpt lat="40.96573104382056" lon="8.2049177066303"><ele>33.0</ele><time>2026-05-02T10:53:14Z</time></trkpt><trkpt lat="40.96561098475095" lon="8.20490066558985"><ele>32.0</ele><time>2026-05-02T10:53:15Z</time></trkpt><trkpt lat="40.965492642223566" lon="8.20489006844054"><ele>31.0</ele><time>2026-05-02T10:53:16Z</time></trkpt><trkpt lat="40.965377079258396" lon="8.20488506567363"><ele>30.0</ele><time>2026-05-02T10:53:17Z</time></trkpt><trkpt lat="40.965264776096724" lon="8.204891145186222"><ele>30.0</ele><time>2026-05-02T10:53:18Z</time></trkpt><trkpt lat="40.96516172517734" lon="8.204901155543956"><ele>30.0</ele><time>2026-05-02T10:53:19Z</time></trkpt><trkpt lat="40.965069865985924" lon="8.204925197990528"><ele>30.0</ele><time>2026-05-02T10:53:20Z</time></trkpt><trkpt lat="40.964983391372755" lon="8.204952659142618"><ele>30.0</ele><time>2026-05-02T10:53:21Z</time></trkpt><trkpt lat="40.9649034172221" lon="8.20498815270809"><ele>30.0</ele><time>2026-05-02T10:53:22Z</time></trkpt><trkpt lat="40.96482569967419" lon="8.20502115110795"><ele>29.5</ele><time>2026-05-02T10:53:23Z</time></trkpt><trkpt lat="40.964750947192" lon="8.205054804607975"><ele>29.0</ele><time>2026-05-02T10:53:24Z</time></trkpt><trkpt lat="40.964680956748516" lon="8.205085037795012"><ele>28.5</ele><time>2026-05-02T10:53:25Z</time></trkpt><trkpt lat="40.96460865135163" lon="8.205096090656765"><ele>28.0</ele><time>2026-05-02T10:53:26Z</time></trkpt><trkpt lat="40.9645428421374" lon="8.20514271760522"><ele>27.5</ele><time>2026-05-02T10:53:26.999Z</time></trkpt><trkpt lat="40.96447053206524" lon="8.205179171244156"><ele>27.0</ele><time>2026-05-02T10:53:27.999Z</time></trkpt><trkpt lat="40.96439059976339" lon="8.205213935561853"><ele>27.0</ele><time>2026-05-02T10:53:28.999Z</time></trkpt><trkpt lat="40.96431088512406" lon="8.205258084174297"><ele>27.0</ele><time>2026-05-02T10:53:29.999Z</time></trkpt><trkpt lat="40.96423354405132" lon="8.205308551671806"><ele>27.0</ele><time>2026-05-02T10:53:30.999Z</time></trkpt><trkpt lat="40.96415895968227" lon="8.20536831177335"><ele>27.0</ele><time>2026-05-02T10:53:31.999Z</time></trkpt><trkpt lat="40.9640908165664" lon="8.205432834818776"><ele>27.0</ele><time>2026-05-02T10:53:32.999Z</time></trkpt><trkpt lat="40.96402641586883" lon="8.205477956027769"><ele>27.0</ele><time>2026-05-02T10:53:33.999Z</time></trkpt><trkpt lat="40.9639679021755" lon="8.205527032087097"><ele>26.200000000000003</ele><time>2026-05-02T10:53:34.999Z</time></trkpt><trkpt lat="40.96387721830745" lon="8.205605027495574"><ele>25.400000000000002</ele><time>2026-05-02T10:53:36.999Z</time></trkpt><trkpt lat="40.96379851550627" lon="8.205659865364366"><ele>24.6</ele><time>2026-05-02T10:53:38.999Z</time></trkpt><trkpt lat="40.963678216460956" lon="8.20574309587484"><ele>23.799999999999997</ele><time>2026-05-02T10:53:40.999Z</time></trkpt><trkpt lat="40.96358623059189" lon="8.205807662602924"><ele>23.0</ele><time>2026-05-02T10:53:41.999Z</time></trkpt><trkpt lat="40.963480208606164" lon="8.205883262963832"><ele>22.25</ele><time>2026-05-02T10:53:42.999Z</time></trkpt><trkpt lat="40.96335421920708" lon="8.205946383652005"><ele>21.5</ele><time>2026-05-02T10:53:43.999Z</time></trkpt><trkpt lat="40.96322405763364" lon="8.2060360941176"><ele>20.75</ele><time>2026-05-02T10:53:44.999Z</time></trkpt><trkpt lat="40.963089375165296" lon="8.20614401203739"><ele>20.0</ele><time>2026-05-02T10:53:45.999Z</time></trkpt><trkpt lat="40.96296660429048" lon="8.206286923074913"><ele>20.0</ele><time>2026-05-02T10:53:46.999Z</time></trkpt><trkpt lat="40.962835150797915" lon="8.206421424986162"><ele>20.0</ele><time>2026-05-02T10:53:47.999Z</time></trkpt><trkpt lat="40.96270215085712" lon="8.206578138846353"><ele>20.0</ele><time>2026-05-02T10:53:48.999Z</time></trkpt><trkpt lat="40.96256635796035" lon="8.206735142488329"><ele>18.333333333333336</ele><time>2026-05-02T10:53:49.999Z</time></trkpt><trkpt lat="40.962426085698446" lon="8.206891442404734"><ele>16.666666666666668</ele><time>2026-05-02T10:53:50.999Z</time></trkpt><trkpt lat="40.96228633505622" lon="8.207042471042449"><ele>15.0</ele><time>2026-05-02T10:53:51.999Z</time></trkpt><trkpt lat="40.96215927112347" lon="8.20718694482469"><ele>15.0</ele><time>2026-05-02T10:53:52.999Z</time></trkpt><trkpt lat="40.96204358289981" lon="8.20731391654909"><ele>15.0</ele><time>2026-05-02T10:53:53.999Z</time></trkpt><trkpt lat="40.96194859108567" lon="8.207425842373631"><ele>15.0</ele><time>2026-05-02T10:53:54.999Z</time></trkpt><trkpt lat="40.961871597878265" lon="8.20751143405661"><ele>15.0</ele><time>2026-05-02T10:53:55.999Z</time></trkpt><trkpt lat="40.96180593156566" lon="8.207585549242427"><ele>15.166666666666666</ele><time>2026-05-02T10:53:56.999Z</time></trkpt><trkpt lat="40.96173691959345" lon="8.207645641739948"><ele>15.333333333333332</ele><time>2026-05-02T10:53:57.999Z</time></trkpt><trkpt lat="40.96167592159267" lon="8.207713794497632"><ele>15.5</ele><time>2026-05-02T10:53:58.999Z</time></trkpt><trkpt lat="40.96162824471687" lon="8.207791126927388"><ele>15.666666666666666</ele><time>2026-05-02T10:53:59.999Z</time></trkpt><trkpt lat="40.961555305694766" lon="8.207864024767892"><ele>15.833333333333332</ele><time>2026-05-02T10:54:00.999Z</time></trkpt><trkpt lat="40.96147691956621" lon="8.20795253447596"><ele>16.0</ele><time>2026-05-02T10:54:01.999Z</time></trkpt><trkpt lat="40.96139652906413" lon="8.208051527239578"><ele>15.0</ele><time>2026-05-02T10:54:02.999Z</time></trkpt><trkpt lat="40.961305834755386" lon="8.208153112871447"><ele>14.0</ele><time>2026-05-02T10:54:03.999Z</time></trkpt><trkpt lat="40.96120804030037" lon="8.20825603532261"><ele>13.0</ele><time>2026-05-02T10:54:04.999Z</time></trkpt><trkpt lat="40.96111051677139" lon="8.208362519183318"><ele>12.0</ele><time>2026-05-02T10:54:05.999Z</time></trkpt><trkpt lat="40.96101408142857" lon="8.20847250917483"><ele>12.0</ele><time>2026-05-02T10:54:06.999Z</time></trkpt><trkpt lat="40.96091627340259" lon="8.208582818312342"><ele>12.0</ele><time>2026-05-02T10:54:07.999Z</time></trkpt><trkpt lat="40.960812731420624" lon="8.208699347953374"><ele>12.0</ele><time>2026-05-02T10:54:08.999Z</time></trkpt><trkpt lat="40.96070833841978" lon="8.20880817630236"><ele>12.0</ele><time>2026-05-02T10:54:09.999Z</time></trkpt><trkpt lat="40.96058444526101" lon="8.208897518581386"><ele>11.25</ele><time>2026-05-02T10:54:10.999Z</time></trkpt><trkpt lat="40.960461340097694" lon="8.208996493395949"><ele>10.5</ele><time>2026-05-02T10:54:11.999Z</time></trkpt><trkpt lat="40.960332014268694" lon="8.209099342969186"><ele>9.75</ele><time>2026-05-02T10:54:12.999Z</time></trkpt><trkpt lat="40.96020334788142" lon="8.209207769084998"><ele>9.0</ele><time>2026-05-02T10:54:13.999Z</time></trkpt><trkpt lat="40.96007596920365" lon="8.209319238604577"><ele>9.0</ele><time>2026-05-02T10:54:14.999Z</time></trkpt><trkpt lat="40.95994944637222" lon="8.209420540622043"><ele>9.0</ele><time>2026-05-02T10:54:15.999Z</time></trkpt><trkpt lat="40.95983007407299" lon="8.209532639182024"><ele>9.0</ele><time>2026-05-02T10:54:16.999Z</time></trkpt><trkpt lat="40.959727644365785" lon="8.209654493328072"><ele>9.0</ele><time>2026-05-02T10:54:17.999Z</time></trkpt><trkpt lat="40.9596509846394" lon="8.209785035009155"><ele>8.5</ele><time>2026-05-02T10:54:18.999Z</time></trkpt><trkpt lat="40.95959962717086" lon="8.209931090095413"><ele>8.0</ele><time>2026-05-02T10:54:19.999Z</time></trkpt><trkpt lat="40.95957111363187" lon="8.210101857168734"><ele>7.5</ele><time>2026-05-02T10:54:20.999Z</time></trkpt><trkpt lat="40.9595652990295" lon="8.210290112712626"><ele>7.0</ele><time>2026-05-02T10:54:22Z</time></trkpt><trkpt lat="40.959559372290585" lon="8.21049076710601"><ele>7.333333333333334</ele><time>2026-05-02T10:54:23Z</time></trkpt><trkpt lat="40.95954942267916" lon="8.210691186815085"><ele>7.666666666666666</ele><time>2026-05-02T10:54:24Z</time></trkpt><trkpt lat="40.95953118614636" lon="8.210896194702068"><ele>8.0</ele><time>2026-05-02T10:54:25Z</time></trkpt><trkpt lat="40.959514440937994" lon="8.211103233231967"><ele>8.0</ele><time>2026-05-02T10:54:26Z</time></trkpt><trkpt lat="40.95950060628163" lon="8.211314126456443"><ele>8.0</ele><time>2026-05-02T10:54:27Z</time></trkpt><trkpt lat="40.95948574511232" lon="8.211529706016735"><ele>8.0</ele><time>2026-05-02T10:54:28Z</time></trkpt><trkpt lat="40.95947113809264" lon="8.211747593450289"><ele>8.0</ele><time>2026-05-02T10:54:29Z</time></trkpt><trkpt lat="40.95945494492763" lon="8.211963837763035"><ele>8.0</ele><time>2026-05-02T10:54:30Z</time></trkpt><trkpt lat="40.95944079313872" lon="8.212165852670758"><ele>8.0</ele><time>2026-05-02T10:54:31Z</time></trkpt><trkpt lat="40.95942755166311" lon="8.212344428099094"><ele>8.0</ele><time>2026-05-02T10:54:32Z</time></trkpt><trkpt lat="40.95941360986698" lon="8.212511201974817"><ele>8.0</ele><time>2026-05-02T10:54:33Z</time></trkpt><trkpt lat="40.95939653614562" lon="8.212669025629348"><ele>8.0</ele><time>2026-05-02T10:54:34Z</time></trkpt><trkpt lat="40.95936974980282" lon="8.21281434770665"><ele>8.0</ele><time>2026-05-02T10:54:35Z</time></trkpt><trkpt lat="40.95932432565597" lon="8.212969632758494"><ele>8.0</ele><time>2026-05-02T10:54:36Z</time></trkpt><trkpt lat="40.95925141987693" lon="8.213125177877656"><ele>8.0</ele><time>2026-05-02T10:54:37Z</time></trkpt><trkpt lat="40.95916832274258" lon="8.213276542466316"><ele>8.0</ele><time>2026-05-02T10:54:38Z</time></trkpt><trkpt lat="40.959087280394435" lon="8.21341664063089"><ele>8.0</ele><time>2026-05-02T10:54:39Z</time></trkpt><trkpt lat="40.959014478378705" lon="8.213541179193752"><ele>8.0</ele><time>2026-05-02T10:54:40Z</time></trkpt><trkpt lat="40.95894422175621" lon="8.213698234802237"><ele>8.0</ele><time>2026-05-02T10:54:41Z</time></trkpt><trkpt lat="40.9588781091827" lon="8.213897510318345"><ele>8.0</ele><time>2026-05-02T10:54:42Z</time></trkpt><trkpt lat="40.958815219712484" lon="8.214137345200381"><ele>8.0</ele><time>2026-05-02T10:54:43Z</time></trkpt><trkpt lat="40.95872450484247" lon="8.214384368169666"><ele>8.0</ele><time>2026-05-02T10:54:44Z</time></trkpt><trkpt lat="40.958654677568354" lon="8.21465525348837"><ele>8.0</ele><time>2026-05-02T10:54:45Z</time></trkpt><trkpt lat="40.95856813445531" lon="8.214928464561565"><ele>7.666666666666666</ele><time>2026-05-02T10:54:46Z</time></trkpt><trkpt lat="40.95848225738909" lon="8.215196258625351"><ele>7.333333333333334</ele><time>2026-05-02T10:54:47Z</time></trkpt><trkpt lat="40.95838742031554" lon="8.21546705408442"><ele>7.0</ele><time>2026-05-02T10:54:48Z</time></trkpt><trkpt lat="40.958319755446595" lon="8.21570248198814"><ele>7.0</ele><time>2026-05-02T10:54:49Z</time></trkpt><trkpt lat="40.958242531906706" lon="8.215947265530447"><ele>7.0</ele><time>2026-05-02T10:54:50Z</time></trkpt><trkpt lat="40.95816316073747" lon="8.216211011190252"><ele>7.0</ele><time>2026-05-02T10:54:51Z</time></trkpt><trkpt lat="40.958073159665545" lon="8.216481963267979"><ele>5.5</ele><time>2026-05-02T10:54:52Z</time></trkpt><trkpt lat="40.95798271955494" lon="8.216759292037366"><ele>4.0</ele><time>2026-05-02T10:54:53Z</time></trkpt><trkpt lat="40.95789460561289" lon="8.217042352735287"><ele>3.0</ele><time>2026-05-02T10:54:54Z</time></trkpt><trkpt lat="40.9578062739486" lon="8.217326432203663"><ele>2.0</ele><time>2026-05-02T10:54:55Z</time></trkpt><trkpt lat="40.95771663878131" lon="8.217607278465577"><ele>2.0</ele><time>2026-05-02T10:54:56Z</time></trkpt><trkpt lat="40.957632562318025" lon="8.217877938007875"><ele>2.0</ele><time>2026-05-02T10:54:57Z</time></trkpt><trkpt lat="40.9575537139886" lon="8.218128926004242"><ele>2.0</ele><time>2026-05-02T10:54:58Z</time></trkpt><trkpt lat="40.957481110516824" lon="8.218346366276744"><ele>3.4000000000000004</ele><time>2026-05-02T10:54:59Z</time></trkpt><trkpt lat="40.95742054231502" lon="8.218512433637958"><ele>4.800000000000001</ele><time>2026-05-02T10:55:00Z</time></trkpt><trkpt lat="40.95735843451404" lon="8.218622256581762"><ele>6.2</ele><time>2026-05-02T10:55:01Z</time></trkpt><trkpt lat="40.95731883883891" lon="8.218697232218448"><ele>7.6000000000000005</ele><time>2026-05-02T10:55:02Z</time></trkpt><trkpt lat="40.95727665367034" lon="8.218771778649176"><ele>9.0</ele><time>2026-05-02T10:55:04Z</time></trkpt><trkpt lat="40.95722527807496" lon="8.218855656130975"><ele>9.0</ele><time>2026-05-02T10:55:31Z</time></trkpt><trkpt lat="40.95717653571972" lon="8.218928121588819"><ele>9.0</ele><time>2026-05-02T10:55:32Z</time></trkpt><trkpt lat="40.95707915186114" lon="8.219082949590943"><ele>9.0</ele><time>2026-05-02T10:55:34Z</time></trkpt><trkpt lat="40.95698618117752" lon="8.219210696549556"><ele>9.0</ele><time>2026-05-02T10:55:35Z</time></trkpt><trkpt lat="40.95688786448842" lon="8.219355890188114"><ele>9.0</ele><time>2026-05-02T10:55:36Z</time></trkpt><trkpt lat="40.95678412767113" lon="8.21950664678376"><ele>9.0</ele><time>2026-05-02T10:55:37Z</time></trkpt><trkpt lat="40.9566756941998" lon="8.219663047055267"><ele>9.0</ele><time>2026-05-02T10:55:38Z</time></trkpt><trkpt lat="40.956563748577864" lon="8.219824945611377"><ele>9.0</ele><time>2026-05-02T10:55:39Z</time></trkpt><trkpt lat="40.95644748759132" lon="8.21999280793841"><ele>9.0</ele><time>2026-05-02T10:55:40Z</time></trkpt><trkpt lat="40.95632608432332" lon="8.220169453885035"><ele>9.0</ele><time>2026-05-02T10:55:41Z</time></trkpt><trkpt lat="40.956205121511886" lon="8.220352728075003"><ele>9.0</ele><time>2026-05-02T10:55:42Z</time></trkpt><trkpt lat="40.95608145300371" lon="8.2205356960889"><ele>9.0</ele><time>2026-05-02T10:55:43Z</time></trkpt><trkpt lat="40.95595488530066" lon="8.220721070968175"><ele>9.0</ele><time>2026-05-02T10:55:44Z</time></trkpt><trkpt lat="40.955823300789405" lon="8.220900800245703"><ele>10.666666666666668</ele><time>2026-05-02T10:55:44.999Z</time></trkpt><trkpt lat="40.95571193446092" lon="8.221070843864753"><ele>12.333333333333334</ele><time>2026-05-02T10:55:45.999Z</time></trkpt><trkpt lat="40.95560502109498" lon="8.221226574608524"><ele>14.0</ele><time>2026-05-02T10:55:46.999Z</time></trkpt><trkpt lat="40.95546601374879" lon="8.22132848190404"><ele>14.0</ele><time>2026-05-02T10:55:47.999Z</time></trkpt><trkpt lat="40.955315295256305" lon="8.221405315074415"><ele>14.0</ele><time>2026-05-02T10:55:48.999Z</time></trkpt><trkpt lat="40.95514559726581" lon="8.22147296124033"><ele>14.0</ele><time>2026-05-02T10:55:49.999Z</time></trkpt><trkpt lat="40.95496116962954" lon="8.221549601581536"><ele>12.666666666666668</ele><time>2026-05-02T10:55:50.999Z</time></trkpt><trkpt lat="40.95477065638387" lon="8.221628807368193"><ele>11.333333333333334</ele><time>2026-05-02T10:55:51.999Z</time></trkpt><trkpt lat="40.9545748181374" lon="8.221710197924175"><ele>10.0</ele><time>2026-05-02T10:55:52.999Z</time></trkpt><trkpt lat="40.95438194368385" lon="8.221814448486523"><ele>10.333333333333334</ele><time>2026-05-02T10:55:53.999Z</time></trkpt><trkpt lat="40.954190939648804" lon="8.221893892185765"><ele>10.666666666666666</ele><time>2026-05-02T10:55:54.999Z</time></trkpt><trkpt lat="40.954024909550974" lon="8.221952044348493"><ele>11.0</ele><time>2026-05-02T10:55:55.999Z</time></trkpt><trkpt lat="40.95386858578273" lon="8.2220184018671"><ele>11.0</ele><time>2026-05-02T10:55:56.999Z</time></trkpt><trkpt lat="40.95373001416813" lon="8.222093499713454"><ele>11.0</ele><time>2026-05-02T10:55:57.999Z</time></trkpt><trkpt lat="40.95359846908384" lon="8.222202942029348"><ele>11.0</ele><time>2026-05-02T10:55:58.999Z</time></trkpt><trkpt lat="40.9534735879735" lon="8.222333798156875"><ele>12.0</ele><time>2026-05-02T10:55:59.999Z</time></trkpt><trkpt lat="40.953328831921624" lon="8.222439595089945"><ele>13.0</ele><time>2026-05-02T10:56:00.999Z</time></trkpt><trkpt lat="40.95317092069364" lon="8.222498710561396"><ele>14.0</ele><time>2026-05-02T10:56:01.999Z</time></trkpt><trkpt lat="40.953010088980214" lon="8.222467473744558"><ele>14.0</ele><time>2026-05-02T10:56:02.999Z</time></trkpt><trkpt lat="40.95284790889613" lon="8.222440472443177"><ele>14.0</ele><time>2026-05-02T10:56:03.999Z</time></trkpt><trkpt lat="40.95267279468844" lon="8.222428036359277"><ele>14.0</ele><time>2026-05-02T10:56:04.999Z</time></trkpt><trkpt lat="40.95251623160862" lon="8.222396005461887"><ele>15.0</ele><time>2026-05-02T10:56:05.999Z</time></trkpt><trkpt lat="40.95237399464621" lon="8.222402713226748"><ele>16.0</ele><time>2026-05-02T10:56:06.999Z</time></trkpt><trkpt lat="40.952243362568886" lon="8.222477367304819"><ele>17.0</ele><time>2026-05-02T10:56:07.999Z</time></trkpt><trkpt lat="40.95212670670574" lon="8.222604498716457"><ele>18.0</ele><time>2026-05-02T10:56:08.999Z</time></trkpt><trkpt lat="40.95201464212529" lon="8.222772090922012"><ele>18.0</ele><time>2026-05-02T10:56:09.999Z</time></trkpt><trkpt lat="40.95190598299259" lon="8.222980933695782"><ele>18.0</ele><time>2026-05-02T10:56:10.999Z</time></trkpt><trkpt lat="40.95177821845968" lon="8.223209851244471"><ele>18.0</ele><time>2026-05-02T10:56:11.999Z</time></trkpt><trkpt lat="40.95164531796558" lon="8.223415803554852"><ele>20.0</ele><time>2026-05-02T10:56:12.999Z</time></trkpt><trkpt lat="40.95152480152358" lon="8.223586059867078"><ele>22.0</ele><time>2026-05-02T10:56:13.999Z</time></trkpt><trkpt lat="40.951400655637855" lon="8.223705091705709"><ele>24.0</ele><time>2026-05-02T10:56:14.999Z</time></trkpt><trkpt lat="40.95128020451685" lon="8.22379848338915"><ele>24.0</ele><time>2026-05-02T10:56:15.999Z</time></trkpt><trkpt lat="40.95115998664245" lon="8.22383475210734"><ele>24.0</ele><time>2026-05-02T10:56:16.999Z</time></trkpt><trkpt lat="40.95105295233923" lon="8.223855945258357"><ele>24.0</ele><time>2026-05-02T10:56:17.999Z</time></trkpt><trkpt lat="40.95093636913771" lon="8.223858227229764"><ele>24.0</ele><time>2026-05-02T10:56:18.999Z</time></trkpt><trkpt lat="40.950797687151805" lon="8.223849192791164"><ele>24.666666666666664</ele><time>2026-05-02T10:56:19.999Z</time></trkpt><trkpt lat="40.9506163232132" lon="8.223835383509545"><ele>25.333333333333332</ele><time>2026-05-02T10:56:20.999Z</time></trkpt><trkpt lat="40.95040211359561" lon="8.223819073328793"><ele>26.0</ele><time>2026-05-02T10:56:21.999Z</time></trkpt><trkpt lat="40.9501792024596" lon="8.22380024459149"><ele>25.333333333333332</ele><time>2026-05-02T10:56:22.999Z</time></trkpt><trkpt lat="40.94998264755533" lon="8.22378958082721"><ele>24.666666666666664</ele><time>2026-05-02T10:56:23.999Z</time></trkpt><trkpt lat="40.94980753546957" lon="8.223777298513287"><ele>24.0</ele><time>2026-05-02T10:56:24.999Z</time></trkpt><trkpt lat="40.94964292882385" lon="8.223797339492391"><ele>24.0</ele><time>2026-05-02T10:56:25.999Z</time></trkpt><trkpt lat="40.94947116037629" lon="8.223860574199541"><ele>24.0</ele><time>2026-05-02T10:56:26.999Z</time></trkpt><trkpt lat="40.94929282229676" lon="8.223941865905743"><ele>24.0</ele><time>2026-05-02T10:56:28Z</time></trkpt><trkpt lat="40.949114860693804" lon="8.22402568567859"><ele>26.0</ele><time>2026-05-02T10:56:29Z</time></trkpt><trkpt lat="40.948934100075" lon="8.224101057205935"><ele>28.0</ele><time>2026-05-02T10:56:30Z</time></trkpt><trkpt lat="40.94875082436238" lon="8.224180270562742"><ele>30.0</ele><time>2026-05-02T10:56:31Z</time></trkpt><trkpt lat="40.94856402441748" lon="8.224257087331875"><ele>31.333333333333336</ele><time>2026-05-02T10:56:32Z</time></trkpt><trkpt lat="40.948375787128626" lon="8.224336728822944"><ele>32.66666666666667</ele><time>2026-05-02T10:56:33Z</time></trkpt><trkpt lat="40.94818842009915" lon="8.224417403091921"><ele>34.0</ele><time>2026-05-02T10:56:34Z</time></trkpt><trkpt lat="40.94800217391098" lon="8.224496175601779"><ele>34.0</ele><time>2026-05-02T10:56:35Z</time></trkpt><trkpt lat="40.94781604888696" lon="8.224575804342955"><ele>34.0</ele><time>2026-05-02T10:56:36Z</time></trkpt><trkpt lat="40.94762659875274" lon="8.224658285370445"><ele>34.0</ele><time>2026-05-02T10:56:37Z</time></trkpt><trkpt lat="40.94743700061343" lon="8.224741176288521"><ele>34.66666666666667</ele><time>2026-05-02T10:56:38Z</time></trkpt><trkpt lat="40.94724541590398" lon="8.224822987648807"><ele>35.333333333333336</ele><time>2026-05-02T10:56:39Z</time></trkpt><trkpt lat="40.94705414413034" lon="8.224902772345025"><ele>36.0</ele><time>2026-05-02T10:56:40Z</time></trkpt><trkpt lat="40.94686291624101" lon="8.224984662537114"><ele>39.0</ele><time>2026-05-02T10:56:41Z</time></trkpt><trkpt lat="40.94667680665286" lon="8.225065278690225"><ele>42.0</ele><time>2026-05-02T10:56:42Z</time></trkpt><trkpt lat="40.94649605428175" lon="8.225143613827424"><ele>45.0</ele><time>2026-05-02T10:56:43Z</time></trkpt><trkpt lat="40.94631426798043" lon="8.225221649390866"><ele>45.0</ele><time>2026-05-02T10:56:44Z</time></trkpt><trkpt lat="40.94612505400195" lon="8.22530339031517"><ele>45.0</ele><time>2026-05-02T10:56:45Z</time></trkpt><trkpt lat="40.94593116902004" lon="8.225380256795363"><ele>45.0</ele><time>2026-05-02T10:56:46Z</time></trkpt><trkpt lat="40.9457290769997" lon="8.225424797748952"><ele>45.0</ele><time>2026-05-02T10:56:47Z</time></trkpt><trkpt lat="40.94553269876719" lon="8.225492270477174"><ele>45.0</ele><time>2026-05-02T10:56:48Z</time></trkpt><trkpt lat="40.9453412162764" lon="8.225532236041124"><ele>45.0</ele><time>2026-05-02T10:56:49Z</time></trkpt><trkpt lat="40.945160751608" lon="8.2255693376698"><ele>43.333333333333336</ele><time>2026-05-02T10:56:50Z</time></trkpt><trkpt lat="40.94499012278852" lon="8.225609398619088"><ele>41.66666666666667</ele><time>2026-05-02T10:56:51Z</time></trkpt><trkpt lat="40.944823486309396" lon="8.22565145025987"><ele>40.0</ele><time>2026-05-02T10:56:52Z</time></trkpt><trkpt lat="40.944666246831765" lon="8.225692694724312"><ele>39.5</ele><time>2026-05-02T10:56:53Z</time></trkpt><trkpt lat="40.94451684281533" lon="8.225732636070923"><ele>39.0</ele><time>2026-05-02T10:56:54Z</time></trkpt><trkpt lat="40.9443724726928" lon="8.22576571572995"><ele>38.5</ele><time>2026-05-02T10:56:55Z</time></trkpt><trkpt lat="40.944243967260284" lon="8.225789487041238"><ele>38.0</ele><time>2026-05-02T10:56:56Z</time></trkpt><trkpt lat="40.94413573348142" lon="8.22578743765309"><ele>37.4</ele><time>2026-05-02T10:56:57Z</time></trkpt><trkpt lat="40.94405386033812" lon="8.225748694714373"><ele>36.8</ele><time>2026-05-02T10:56:58Z</time></trkpt><trkpt lat="40.94399825751139" lon="8.225631877140025"><ele>36.2</ele><time>2026-05-02T10:56:59Z</time></trkpt><trkpt lat="40.943906154315215" lon="8.22559310882075"><ele>35.6</ele><time>2026-05-02T10:57:00Z</time></trkpt><trkpt lat="40.94381836657104" lon="8.225529978108534"><ele>35.0</ele><time>2026-05-02T10:57:01Z</time></trkpt><trkpt lat="40.94369340181944" lon="8.225566522888284"><ele>34.5</ele><time>2026-05-02T10:57:02Z</time></trkpt><trkpt lat="40.94356323444039" lon="8.225543915477491"><ele>34.0</ele><time>2026-05-02T10:57:03Z</time></trkpt><trkpt lat="40.943451855221184" lon="8.225420708215369"><ele>33.5</ele><time>2026-05-02T10:57:04Z</time></trkpt><trkpt lat="40.94333444122588" lon="8.225304124719013"><ele>33.0</ele><time>2026-05-02T10:57:05Z</time></trkpt><trkpt lat="40.94320909176386" lon="8.225177329712539"><ele>32.0</ele><time>2026-05-02T10:57:06Z</time></trkpt><trkpt lat="40.94305918605443" lon="8.225025695415956"><ele>31.0</ele><time>2026-05-02T10:57:07Z</time></trkpt><trkpt lat="40.9428967878253" lon="8.224888462446204"><ele>30.0</ele><time>2026-05-02T10:57:08Z</time></trkpt><trkpt lat="40.94274832322385" lon="8.224722444982199"><ele>29.666666666666664</ele><time>2026-05-02T10:57:09Z</time></trkpt><trkpt lat="40.94260078376083" lon="8.224572229778957"><ele>29.333333333333332</ele><time>2026-05-02T10:57:10Z</time></trkpt><trkpt lat="40.94246641234521" lon="8.224439618850246"><ele>29.0</ele><time>2026-05-02T10:57:11Z</time></trkpt><trkpt lat="40.942349429286985" lon="8.224350246630355"><ele>27.75</ele><time>2026-05-02T10:57:12Z</time></trkpt><trkpt lat="40.94224090523921" lon="8.224291479219632"><ele>26.5</ele><time>2026-05-02T10:57:13Z</time></trkpt><trkpt lat="40.94214497315364" lon="8.22423850031349"><ele>25.25</ele><time>2026-05-02T10:57:14Z</time></trkpt><trkpt lat="40.94206640040913" lon="8.224146082450149"><ele>24.0</ele><time>2026-05-02T10:57:15Z</time></trkpt><trkpt lat="40.94200276268928" lon="8.22398953130156"><ele>23.666666666666668</ele><time>2026-05-02T10:57:16Z</time></trkpt><trkpt lat="40.941888812408315" lon="8.223884958625511"><ele>23.333333333333336</ele><time>2026-05-02T10:57:17Z</time></trkpt><trkpt lat="40.941771764706566" lon="8.223758396201212"><ele>23.0</ele><time>2026-05-02T10:57:18Z</time></trkpt><trkpt lat="40.94164860690295" lon="8.223618716343458"><ele>22.333333333333336</ele><time>2026-05-02T10:57:19Z</time></trkpt><trkpt lat="40.94151926780315" lon="8.223477320827676"><ele>21.666666666666668</ele><time>2026-05-02T10:57:20Z</time></trkpt><trkpt lat="40.94137961771172" lon="8.223339438526319"><ele>21.0</ele><time>2026-05-02T10:57:21Z</time></trkpt><trkpt lat="40.941248976188774" lon="8.223210259073834"><ele>21.0</ele><time>2026-05-02T10:57:22Z</time></trkpt><trkpt lat="40.94112863978052" lon="8.223094931373081"><ele>21.0</ele><time>2026-05-02T10:57:23Z</time></trkpt><trkpt lat="40.94100992707199" lon="8.222987973457101"><ele>21.0</ele><time>2026-05-02T10:57:24Z</time></trkpt><trkpt lat="40.94088669329956" lon="8.222899499041755"><ele>21.0</ele><time>2026-05-02T10:57:25Z</time></trkpt><trkpt lat="40.94074999221678" lon="8.222811739594595"><ele>21.0</ele><time>2026-05-02T10:57:26Z</time></trkpt><trkpt lat="40.9406051217885" lon="8.222723470787908"><ele>21.0</ele><time>2026-05-02T10:57:27Z</time></trkpt><trkpt lat="40.940454286119206" lon="8.222638737500077"><ele>21.0</ele><time>2026-05-02T10:57:28Z</time></trkpt><trkpt lat="40.94029820355382" lon="8.22256144113041"><ele>21.0</ele><time>2026-05-02T10:57:29Z</time></trkpt><trkpt lat="40.94013888213934" lon="8.222488874887581"><ele>21.0</ele><time>2026-05-02T10:57:30Z</time></trkpt><trkpt lat="40.93997392281669" lon="8.222423326143979"><ele>21.0</ele><time>2026-05-02T10:57:31Z</time></trkpt><trkpt lat="40.939807267127634" lon="8.222362061298897"><ele>20.0</ele><time>2026-05-02T10:57:32Z</time></trkpt><trkpt lat="40.93963828854575" lon="8.22229948093694"><ele>19.0</ele><time>2026-05-02T10:57:33Z</time></trkpt><trkpt lat="40.93947393132702" lon="8.222231598997421"><ele>18.0</ele><time>2026-05-02T10:57:34Z</time></trkpt><trkpt lat="40.93931434571493" lon="8.222166886424377"><ele>19.333333333333332</ele><time>2026-05-02T10:57:35Z</time></trkpt><trkpt lat="40.93915865598563" lon="8.22210386315155"><ele>20.666666666666664</ele><time>2026-05-02T10:57:36Z</time></trkpt><trkpt lat="40.939000138170634" lon="8.22204264207563"><ele>22.0</ele><time>2026-05-02T10:57:37Z</time></trkpt><trkpt lat="40.93884157161163" lon="8.221982120332802"><ele>22.0</ele><time>2026-05-02T10:57:38Z</time></trkpt><trkpt lat="40.938683263672374" lon="8.221921048931764"><ele>22.0</ele><time>2026-05-02T10:57:39Z</time></trkpt><trkpt lat="40.9385238394288" lon="8.221858906132045"><ele>22.0</ele><time>2026-05-02T10:57:40Z</time></trkpt><trkpt lat="40.93836554825663" lon="8.221794677407024"><ele>21.333333333333332</ele><time>2026-05-02T10:57:41Z</time></trkpt><trkpt lat="40.93820125781199" lon="8.221736119684625"><ele>20.666666666666668</ele><time>2026-05-02T10:57:42Z</time></trkpt><trkpt lat="40.93803871464693" lon="8.221674772111621"><ele>20.0</ele><time>2026-05-02T10:57:43Z</time></trkpt><trkpt lat="40.937872243685206" lon="8.221619882843"><ele>20.0</ele><time>2026-05-02T10:57:44Z</time></trkpt><trkpt lat="40.93770449545558" lon="8.221576454403994"><ele>20.0</ele><time>2026-05-02T10:57:44.999Z</time></trkpt><trkpt lat="40.937537620466" lon="8.22154721988906"><ele>20.0</ele><time>2026-05-02T10:57:45.999Z</time></trkpt><trkpt lat="40.93737080500064" lon="8.221527717626635"><ele>20.0</ele><time>2026-05-02T10:57:46.999Z</time></trkpt><trkpt lat="40.9371985512976" lon="8.221528229650739"><ele>20.0</ele><time>2026-05-02T10:57:47.999Z</time></trkpt><trkpt lat="40.9370278905793" lon="8.22152961756368"><ele>20.0</ele><time>2026-05-02T10:57:48.999Z</time></trkpt><trkpt lat="40.936859129564965" lon="8.221541335338651"><ele>19.666666666666668</ele><time>2026-05-02T10:57:49.999Z</time></trkpt><trkpt lat="40.93668865367503" lon="8.221566595172087"><ele>19.333333333333332</ele><time>2026-05-02T10:57:50.999Z</time></trkpt><trkpt lat="40.93651947373037" lon="8.221598054661346"><ele>19.0</ele><time>2026-05-02T10:57:51.999Z</time></trkpt><trkpt lat="40.93617738495577" lon="8.221704203228697"><ele>19.0</ele><time>2026-05-02T10:57:53.999Z</time></trkpt><trkpt lat="40.93600830489288" lon="8.221780849252603"><ele>19.0</ele><time>2026-05-02T10:57:54.999Z</time></trkpt><trkpt lat="40.935840030257616" lon="8.221866410450255"><ele>19.0</ele><time>2026-05-02T10:57:55.999Z</time></trkpt><trkpt lat="40.93567220701699" lon="8.2219602685301"><ele>20.666666666666664</ele><time>2026-05-02T10:57:56.999Z</time></trkpt><trkpt lat="40.93550433726455" lon="8.222059691164267"><ele>22.333333333333332</ele><time>2026-05-02T10:57:57.999Z</time></trkpt><trkpt lat="40.93533646825462" lon="8.222162001554894"><ele>24.0</ele><time>2026-05-02T10:57:58.999Z</time></trkpt><trkpt lat="40.935167037211606" lon="8.222262656767095"><ele>23.666666666666668</ele><time>2026-05-02T10:57:59.999Z</time></trkpt><trkpt lat="40.93500025596052" lon="8.222362962805818"><ele>23.333333333333336</ele><time>2026-05-02T10:58:00.999Z</time></trkpt><trkpt lat="40.93483430281985" lon="8.22246203173001"><ele>23.0</ele><time>2026-05-02T10:58:01.999Z</time></trkpt><trkpt lat="40.934669423304086" lon="8.222558393281433"><ele>23.0</ele><time>2026-05-02T10:58:02.999Z</time></trkpt><trkpt lat="40.93451325241115" lon="8.222648413763245"><ele>23.0</ele><time>2026-05-02T10:58:03.999Z</time></trkpt><trkpt lat="40.93436653724667" lon="8.222734056628182"><ele>23.0</ele><time>2026-05-02T10:58:04.999Z</time></trkpt><trkpt lat="40.93422707153199" lon="8.222813139808721"><ele>23.25</ele><time>2026-05-02T10:58:05.999Z</time></trkpt><trkpt lat="40.93409422417912" lon="8.222880372745543"><ele>23.5</ele><time>2026-05-02T10:58:06.999Z</time></trkpt><trkpt lat="40.93396395340702" lon="8.222926514062573"><ele>23.75</ele><time>2026-05-02T10:58:07.999Z</time></trkpt><trkpt lat="40.933836924378696" lon="8.222949714978526"><ele>24.0</ele><time>2026-05-02T10:58:08.999Z</time></trkpt><trkpt lat="40.933723282084124" lon="8.222948982370385"><ele>24.0</ele><time>2026-05-02T10:58:09.999Z</time></trkpt><trkpt lat="40.93360998133574" lon="8.2229574077119"><ele>24.0</ele><time>2026-05-02T10:58:10.999Z</time></trkpt><trkpt lat="40.93352029195185" lon="8.223075240768164"><ele>24.0</ele><time>2026-05-02T10:58:11.999Z</time></trkpt><trkpt lat="40.93343334600954" lon="8.223195945277475"><ele>24.0</ele><time>2026-05-02T10:58:12.999Z</time></trkpt><trkpt lat="40.933325718907696" lon="8.223311521685487"><ele>24.666666666666664</ele><time>2026-05-02T10:58:13.999Z</time></trkpt><trkpt lat="40.93317479542185" lon="8.223387377711347"><ele>25.333333333333332</ele><time>2026-05-02T10:58:14.999Z</time></trkpt><trkpt lat="40.93302053448931" lon="8.223453732675333"><ele>26.0</ele><time>2026-05-02T10:58:15.999Z</time></trkpt><trkpt lat="40.93285454861493" lon="8.223517602768148"><ele>26.0</ele><time>2026-05-02T10:58:16.999Z</time></trkpt><trkpt lat="40.93267488358798" lon="8.223578256195442"><ele>26.0</ele><time>2026-05-02T10:58:17.999Z</time></trkpt><trkpt lat="40.93248296948019" lon="8.223641258485179"><ele>26.0</ele><time>2026-05-02T10:58:18.999Z</time></trkpt><trkpt lat="40.9322829718955" lon="8.223707386252396"><ele>24.333333333333332</ele><time>2026-05-02T10:58:19.999Z</time></trkpt><trkpt lat="40.93207398705306" lon="8.223776268053799"><ele>22.666666666666664</ele><time>2026-05-02T10:58:20.999Z</time></trkpt><trkpt lat="40.931857007062106" lon="8.223843944357847"><ele>21.0</ele><time>2026-05-02T10:58:21.999Z</time></trkpt><trkpt lat="40.931631138073364" lon="8.22390643686055"><ele>19.0</ele><time>2026-05-02T10:58:22.999Z</time></trkpt><trkpt lat="40.93139615896684" lon="8.223967695518906"><ele>17.0</ele><time>2026-05-02T10:58:23.999Z</time></trkpt><trkpt lat="40.93115255896316" lon="8.224025579581385"><ele>15.0</ele><time>2026-05-02T10:58:24.999Z</time></trkpt><trkpt lat="40.930897245320374" lon="8.224079553556662"><ele>13.0</ele><time>2026-05-02T10:58:25.999Z</time></trkpt><trkpt lat="40.93066449049706" lon="8.224212348981098"><ele>11.5</ele><time>2026-05-02T10:58:26.999Z</time></trkpt><trkpt lat="40.9304095777394" lon="8.224296030789196"><ele>10.0</ele><time>2026-05-02T10:58:27.999Z</time></trkpt><trkpt lat="40.93015059034985" lon="8.224386571640453"><ele>10.0</ele><time>2026-05-02T10:58:28.999Z</time></trkpt><trkpt lat="40.929887326919015" lon="8.224477252993191"><ele>10.0</ele><time>2026-05-02T10:58:29.999Z</time></trkpt><trkpt lat="40.92962087897416" lon="8.22456902112478"><ele>10.0</ele><time>2026-05-02T10:58:30.999Z</time></trkpt><trkpt lat="40.92935052660191" lon="8.224659943155087"><ele>10.0</ele><time>2026-05-02T10:58:31.999Z</time></trkpt><trkpt lat="40.929078254449514" lon="8.224751948815353"><ele>9.5</ele><time>2026-05-02T10:58:32.999Z</time></trkpt><trkpt lat="40.92880091809593" lon="8.224845012896624"><ele>9.0</ele><time>2026-05-02T10:58:34Z</time></trkpt><trkpt lat="40.92852265073619" lon="8.224939019359486"><ele>10.5</ele><time>2026-05-02T10:58:35Z</time></trkpt><trkpt lat="40.92824202780821" lon="8.225037095142744"><ele>12.0</ele><time>2026-05-02T10:58:36Z</time></trkpt><trkpt lat="40.9279593227973" lon="8.225137130636604"><ele>12.0</ele><time>2026-05-02T10:58:37Z</time></trkpt><trkpt lat="40.92766958417611" lon="8.225216232018498"><ele>12.0</ele><time>2026-05-02T10:58:38Z</time></trkpt><trkpt lat="40.92739651680413" lon="8.225310331931457"><ele>10.5</ele><time>2026-05-02T10:58:39Z</time></trkpt><trkpt lat="40.927117216926" lon="8.225403336746185"><ele>9.0</ele><time>2026-05-02T10:58:40Z</time></trkpt><trkpt lat="40.92683805927907" lon="8.225492356061856"><ele>10.0</ele><time>2026-05-02T10:58:41Z</time></trkpt><trkpt lat="40.92656091483778" lon="8.225583524113716"><ele>11.0</ele><time>2026-05-02T10:58:42Z</time></trkpt><trkpt lat="40.92628943327384" lon="8.225676627876839"><ele>11.5</ele><time>2026-05-02T10:58:43Z</time></trkpt><trkpt lat="40.92601597169536" lon="8.225765201241154"><ele>12.0</ele><time>2026-05-02T10:58:44Z</time></trkpt><trkpt lat="40.92574518805203" lon="8.225852682924696"><ele>12.0</ele><time>2026-05-02T10:58:45Z</time></trkpt><trkpt lat="40.92547491647634" lon="8.225939920394522"><ele>12.0</ele><time>2026-05-02T10:58:46Z</time></trkpt><trkpt lat="40.92520812565425" lon="8.226032286610815"><ele>15.0</ele><time>2026-05-02T10:58:47Z</time></trkpt><trkpt lat="40.92494220103933" lon="8.226140067918237"><ele>18.0</ele><time>2026-05-02T10:58:48Z</time></trkpt><trkpt lat="40.92467636012692" lon="8.22626477913628"><ele>18.0</ele><time>2026-05-02T10:58:49Z</time></trkpt><trkpt lat="40.92441644224631" lon="8.226407254320796"><ele>18.0</ele><time>2026-05-02T10:58:50Z</time></trkpt><trkpt lat="40.9241577964706" lon="8.226558847538316"><ele>16.5</ele><time>2026-05-02T10:58:51Z</time></trkpt><trkpt lat="40.92389994728217" lon="8.226720096141293"><ele>15.0</ele><time>2026-05-02T10:58:52Z</time></trkpt><trkpt lat="40.92364080260891" lon="8.226888554946514"><ele>15.0</ele><time>2026-05-02T10:58:53Z</time></trkpt><trkpt lat="40.92338189950657" lon="8.22704999161837"><ele>15.0</ele><time>2026-05-02T10:58:54Z</time></trkpt><trkpt lat="40.92312460970217" lon="8.227221511752298"><ele>13.5</ele><time>2026-05-02T10:58:55Z</time></trkpt><trkpt lat="40.922867081531805" lon="8.227391573538675"><ele>12.0</ele><time>2026-05-02T10:58:56Z</time></trkpt><trkpt lat="40.92261330246134" lon="8.227559392654346"><ele>13.5</ele><time>2026-05-02T10:58:57Z</time></trkpt><trkpt lat="40.92235958803931" lon="8.227725335197952"><ele>15.0</ele><time>2026-05-02T10:58:58Z</time></trkpt><trkpt lat="40.922106757060696" lon="8.227891876740408"><ele>15.0</ele><time>2026-05-02T10:58:59Z</time></trkpt><trkpt lat="40.92185426626725" lon="8.228057148210459"><ele>15.0</ele><time>2026-05-02T10:59:00Z</time></trkpt><trkpt lat="40.92160391214754" lon="8.228222673438466"><ele>16.0</ele><time>2026-05-02T10:59:01Z</time></trkpt><trkpt lat="40.92136537947394" lon="8.228374728191726"><ele>17.0</ele><time>2026-05-02T10:59:02Z</time></trkpt><trkpt lat="40.92114629947755" lon="8.228516246468727"><ele>17.0</ele><time>2026-05-02T10:59:03Z</time></trkpt><trkpt lat="40.92094001710845" lon="8.2286485407845"><ele>17.0</ele><time>2026-05-02T10:59:04Z</time></trkpt><trkpt lat="40.9207461764508" lon="8.228774944331871"><ele>17.0</ele><time>2026-05-02T10:59:05Z</time></trkpt><trkpt lat="40.92054892289286" lon="8.22890857294007"><ele>16.666666666666668</ele><time>2026-05-02T10:59:06Z</time></trkpt><trkpt lat="40.920346110844356" lon="8.229043126502207"><ele>16.333333333333332</ele><time>2026-05-02T10:59:07Z</time></trkpt><trkpt lat="40.92015232403806" lon="8.229167594333093"><ele>16.0</ele><time>2026-05-02T10:59:08Z</time></trkpt><trkpt lat="40.919975854641756" lon="8.229282421509081"><ele>15.333333333333332</ele><time>2026-05-02T10:59:09Z</time></trkpt><trkpt lat="40.9198100675479" lon="8.229390360460963"><ele>14.666666666666668</ele><time>2026-05-02T10:59:10Z</time></trkpt><trkpt lat="40.91965631138868" lon="8.229489979597176"><ele>14.0</ele><time>2026-05-02T10:59:11Z</time></trkpt><trkpt lat="40.919511021912264" lon="8.229581678556855"><ele>14.0</ele><time>2026-05-02T10:59:12Z</time></trkpt><trkpt lat="40.91935763401772" lon="8.229636963399177"><ele>14.0</ele><time>2026-05-02T10:59:13Z</time></trkpt><trkpt lat="40.919224598832095" lon="8.229693917830216"><ele>14.0</ele><time>2026-05-02T10:59:14Z</time></trkpt><trkpt lat="40.919120740810854" lon="8.229731150349247"><ele>14.0</ele><time>2026-05-02T10:59:15Z</time></trkpt><trkpt lat="40.919044099845124" lon="8.229753377197389"><ele>14.0</ele><time>2026-05-02T10:59:16Z</time></trkpt><trkpt lat="40.9189394131992" lon="8.229781603908188"><ele>13.999999999999998</ele><time>2026-05-02T10:59:18Z</time></trkpt><trkpt lat="40.91887366681496" lon="8.229796929401413"><ele>13.999999999999998</ele><time>2026-05-02T10:59:19Z</time></trkpt><trkpt lat="40.91878399578984" lon="8.229817240251435"><ele>14.0</ele><time>2026-05-02T10:59:20Z</time></trkpt><trkpt lat="40.918654533811925" lon="8.229846562990433"><ele>14.0</ele><time>2026-05-02T10:59:21Z</time></trkpt><trkpt lat="40.91849368632413" lon="8.229922455294115"><ele>14.333333333333334</ele><time>2026-05-02T10:59:22Z</time></trkpt><trkpt lat="40.91831220904327" lon="8.229959285018488"><ele>14.666666666666668</ele><time>2026-05-02T10:59:23Z</time></trkpt><trkpt lat="40.91811127237338" lon="8.229998510891361"><ele>15.0</ele><time>2026-05-02T10:59:24Z</time></trkpt><trkpt lat="40.91789717296368" lon="8.230043595214607"><ele>15.0</ele><time>2026-05-02T10:59:25Z</time></trkpt><trkpt lat="40.917669615599216" lon="8.23005025350074"><ele>15.0</ele><time>2026-05-02T10:59:26Z</time></trkpt><trkpt lat="40.917448323233785" lon="8.230112308077858"><ele>14.666666666666668</ele><time>2026-05-02T10:59:27Z</time></trkpt><trkpt lat="40.917223479443194" lon="8.230147350817195"><ele>14.333333333333334</ele><time>2026-05-02T10:59:28Z</time></trkpt><trkpt lat="40.91700194572026" lon="8.23018065441468"><ele>14.0</ele><time>2026-05-02T10:59:29Z</time></trkpt><trkpt lat="40.91677478691678" lon="8.230176155065605"><ele>12.0</ele><time>2026-05-02T10:59:30Z</time></trkpt><trkpt lat="40.91654304507925" lon="8.230201450711611"><ele>10.0</ele><time>2026-05-02T10:59:31Z</time></trkpt><trkpt lat="40.916306496829904" lon="8.230197207233417"><ele>10.0</ele><time>2026-05-02T10:59:32Z</time></trkpt><trkpt lat="40.91606784296642" lon="8.23019462930128"><ele>10.0</ele><time>2026-05-02T10:59:33Z</time></trkpt><trkpt lat="40.91582769345629" lon="8.23016411982309"><ele>7.5</ele><time>2026-05-02T10:59:34Z</time></trkpt><trkpt lat="40.91558085992824" lon="8.23015110745759"><ele>5.0</ele><time>2026-05-02T10:59:35Z</time></trkpt><trkpt lat="40.915334744458484" lon="8.230138132939553"><ele>5.0</ele><time>2026-05-02T10:59:36Z</time></trkpt><trkpt lat="40.915084290955335" lon="8.23014415436896"><ele>5.0</ele><time>2026-05-02T10:59:37Z</time></trkpt><trkpt lat="40.9148340623924" lon="8.230130436631423"><ele>3.0</ele><time>2026-05-02T10:59:38Z</time></trkpt><trkpt lat="40.91458315612492" lon="8.230116406549271"><ele>1.0</ele><time>2026-05-02T10:59:39Z</time></trkpt><trkpt lat="40.91433045344221" lon="8.23010200983049"><ele>0.5</ele><time>2026-05-02T10:59:39.999Z</time></trkpt><trkpt lat="40.914080952824875" lon="8.230085149900438"><ele>0.0</ele><time>2026-05-02T10:59:40.999Z</time></trkpt><trkpt lat="40.91383189530313" lon="8.230069536089971"><ele>0.0</ele><time>2026-05-02T10:59:41.999Z</time></trkpt><trkpt lat="40.913585693819314" lon="8.230058548347355"><ele>0.0</ele><time>2026-05-02T10:59:42.999Z</time></trkpt><trkpt lat="40.91334187499898" lon="8.23004706990151"><ele>1.0</ele><time>2026-05-02T10:59:43.999Z</time></trkpt><trkpt lat="40.913104019385585" lon="8.230033922491392"><ele>2.0</ele><time>2026-05-02T10:59:44.999Z</time></trkpt><trkpt lat="40.912867613350464" lon="8.230021100821158"><ele>2.0</ele><time>2026-05-02T10:59:45.999Z</time></trkpt><trkpt lat="40.91263107399882" lon="8.230008548456855"><ele>2.0</ele><time>2026-05-02T10:59:46.999Z</time></trkpt><trkpt lat="40.91239194211911" lon="8.22999558685232"><ele>1.5</ele><time>2026-05-02T10:59:47.999Z</time></trkpt><trkpt lat="40.91214951870577" lon="8.229982029750895"><ele>1.0</ele><time>2026-05-02T10:59:48.999Z</time></trkpt><trkpt lat="40.91190385791138" lon="8.229966375268791"><ele>1.5</ele><time>2026-05-02T10:59:49.999Z</time></trkpt><trkpt lat="40.911659505089546" lon="8.229951489606142"><ele>2.0</ele><time>2026-05-02T10:59:50.999Z</time></trkpt><trkpt lat="40.91140386945874" lon="8.22994572779212"><ele>2.0</ele><time>2026-05-02T10:59:51.999Z</time></trkpt><trkpt lat="40.91114752177359" lon="8.229943378284078"><ele>2.0</ele><time>2026-05-02T10:59:52.999Z</time></trkpt><trkpt lat="40.91088774073991" lon="8.229956651530545"><ele>2.5</ele><time>2026-05-02T10:59:53.999Z</time></trkpt><trkpt lat="40.910624552863794" lon="8.229981248241748"><ele>3.0</ele><time>2026-05-02T10:59:54.999Z</time></trkpt><trkpt lat="40.91035960044604" lon="8.230012997065064"><ele>3.0</ele><time>2026-05-02T10:59:55.999Z</time></trkpt><trkpt lat="40.91009236988418" lon="8.23005376055236"><ele>3.0</ele><time>2026-05-02T10:59:56.999Z</time></trkpt><trkpt lat="40.90982221087537" lon="8.230103115474332"><ele>2.5</ele><time>2026-05-02T10:59:57.999Z</time></trkpt><trkpt lat="40.90954965135529" lon="8.23015895679132"><ele>2.0</ele><time>2026-05-02T10:59:58.999Z</time></trkpt><trkpt lat="40.9092752054127" lon="8.230223048392086"><ele>2.0</ele><time>2026-05-02T10:59:59.999Z</time></trkpt><trkpt lat="40.908997758153966" lon="8.230292067719986"><ele>2.0</ele><time>2026-05-02T11:00:00.999Z</time></trkpt><trkpt lat="40.90871971896431" lon="8.230361084270053"><ele>2.0</ele><time>2026-05-02T11:00:01.999Z</time></trkpt><trkpt lat="40.908440580591645" lon="8.23042775333267"><ele>2.0</ele><time>2026-05-02T11:00:02.999Z</time></trkpt><trkpt lat="40.908160933026274" lon="8.230493419229997"><ele>3.0</ele><time>2026-05-02T11:00:03.999Z</time></trkpt><trkpt lat="40.907882355734465" lon="8.230559177481544"><ele>4.0</ele><time>2026-05-02T11:00:04.999Z</time></trkpt><trkpt lat="40.90760625077646" lon="8.230624485561133"><ele>4.0</ele><time>2026-05-02T11:00:05.999Z</time></trkpt><trkpt lat="40.90733249133088" lon="8.23068940094216"><ele>4.0</ele><time>2026-05-02T11:00:06.999Z</time></trkpt><trkpt lat="40.90706101691148" lon="8.230754349450438"><ele>4.0</ele><time>2026-05-02T11:00:07.999Z</time></trkpt><trkpt lat="40.906793578685566" lon="8.230815095357249"><ele>4.0</ele><time>2026-05-02T11:00:08.999Z</time></trkpt><trkpt lat="40.90653028507053" lon="8.230878508858408"><ele>4.0</ele><time>2026-05-02T11:00:09.999Z</time></trkpt><trkpt lat="40.906276402373486" lon="8.23093378051748"><ele>4.0</ele><time>2026-05-02T11:00:10.999Z</time></trkpt><trkpt lat="40.90604810125129" lon="8.230996473611864"><ele>3.6666666666666665</ele><time>2026-05-02T11:00:11.999Z</time></trkpt><trkpt lat="40.905845485983036" lon="8.23104608032711"><ele>3.333333333333333</ele><time>2026-05-02T11:00:12.999Z</time></trkpt><trkpt lat="40.90567994076019" lon="8.231082017241619"><ele>3.0</ele><time>2026-05-02T11:00:13.999Z</time></trkpt><trkpt lat="40.90555468511331" lon="8.23110782748372"><ele>3.0</ele><time>2026-05-02T11:00:14.999Z</time></trkpt><trkpt lat="40.905466657878904" lon="8.231116813900872"><ele>3.0</ele><time>2026-05-02T11:00:15.999Z</time></trkpt><trkpt lat="40.90538108108172" lon="8.231105847958478"><ele>3.0</ele><time>2026-05-02T11:00:17.999Z</time></trkpt><trkpt lat="40.905297516237205" lon="8.231045055846208"><ele>3.0</ele><time>2026-05-02T11:00:19.999Z</time></trkpt><trkpt lat="40.905247230557116" lon="8.230967909248863"><ele>3.0</ele><time>2026-05-02T11:00:20.999Z</time></trkpt><trkpt lat="40.90518595863345" lon="8.230887394679979"><ele>3.0</ele><time>2026-05-02T11:00:21.999Z</time></trkpt><trkpt lat="40.90509442443117" lon="8.230834090025674"><ele>3.25</ele><time>2026-05-02T11:00:22.999Z</time></trkpt><trkpt lat="40.904977963413245" lon="8.23083982550439"><ele>3.5</ele><time>2026-05-02T11:00:23.999Z</time></trkpt><trkpt lat="40.90485823733565" lon="8.230855741364916"><ele>3.75</ele><time>2026-05-02T11:00:24.999Z</time></trkpt><trkpt lat="40.90476206091979" lon="8.230979896026703"><ele>4.0</ele><time>2026-05-02T11:00:25.999Z</time></trkpt><trkpt lat="40.904681265009465" lon="8.231124756258998"><ele>4.0</ele><time>2026-05-02T11:00:26.999Z</time></trkpt><trkpt lat="40.90464818988021" lon="8.231300841883629"><ele>4.0</ele><time>2026-05-02T11:00:27.999Z</time></trkpt><trkpt lat="40.90466094803678" lon="8.231450663836638"><ele>4.0</ele><time>2026-05-02T11:00:28.999Z</time></trkpt><trkpt lat="40.90436067729431" lon="8.231474484917674"><ele>3.6666666666666665</ele><time>2026-05-02T11:00:29.999Z</time></trkpt><trkpt lat="40.90420007218492" lon="8.231558342698523"><ele>3.333333333333333</ele><time>2026-05-02T11:00:30.999Z</time></trkpt><trkpt lat="40.90403553028081" lon="8.23166352935006"><ele>3.0</ele><time>2026-05-02T11:00:31.999Z</time></trkpt><trkpt lat="40.90385160407051" lon="8.231754758304765"><ele>3.0</ele><time>2026-05-02T11:00:32.999Z</time></trkpt><trkpt lat="40.90365624704349" lon="8.2318553641237"><ele>3.0</ele><time>2026-05-02T11:00:33.999Z</time></trkpt><trkpt lat="40.903448470509645" lon="8.231962775370189"><ele>3.0</ele><time>2026-05-02T11:00:34.999Z</time></trkpt><trkpt lat="40.90323584943791" lon="8.23207770714213"><ele>2.5</ele><time>2026-05-02T11:00:35.999Z</time></trkpt><trkpt lat="40.903017612586346" lon="8.232196360661248"><ele>2.0</ele><time>2026-05-02T11:00:36.999Z</time></trkpt><trkpt lat="40.902792647806734" lon="8.232317845069042"><ele>3.0</ele><time>2026-05-02T11:00:37.999Z</time></trkpt><trkpt lat="40.90256143846937" lon="8.232437565415989"><ele>4.0</ele><time>2026-05-02T11:00:38.999Z</time></trkpt><trkpt lat="40.902326318092776" lon="8.232562403173809"><ele>4.0</ele><time>2026-05-02T11:00:40Z</time></trkpt><trkpt lat="40.902088827905224" lon="8.232695800319409"><ele>4.0</ele><time>2026-05-02T11:00:41Z</time></trkpt><trkpt lat="40.90184710723809" lon="8.232827342097156"><ele>4.0</ele><time>2026-05-02T11:00:42Z</time></trkpt><trkpt lat="40.90160242218795" lon="8.232960496286788"><ele>4.0</ele><time>2026-05-02T11:00:43Z</time></trkpt><trkpt lat="40.901349448877575" lon="8.23307241395545"><ele>4.0</ele><time>2026-05-02T11:00:44Z</time></trkpt><trkpt lat="40.901098689868164" lon="8.233204508919584"><ele>4.0</ele><time>2026-05-02T11:00:45Z</time></trkpt><trkpt lat="40.90085116202345" lon="8.233355207941013"><ele>4.5</ele><time>2026-05-02T11:00:46Z</time></trkpt><trkpt lat="40.90059174321414" lon="8.233472717957483"><ele>5.0</ele><time>2026-05-02T11:00:47Z</time></trkpt><trkpt lat="40.90033395375147" lon="8.23359015210904"><ele>5.5</ele><time>2026-05-02T11:00:48Z</time></trkpt><trkpt lat="40.900069476275554" lon="8.233682115657126"><ele>6.0</ele><time>2026-05-02T11:00:49Z</time></trkpt><trkpt lat="40.89979754971292" lon="8.23372311683044"><ele>6.0</ele><time>2026-05-02T11:00:50Z</time></trkpt><trkpt lat="40.89952852826958" lon="8.233750028362012"><ele>6.0</ele><time>2026-05-02T11:00:51Z</time></trkpt><trkpt lat="40.89927232437909" lon="8.23374317213239"><ele>6.0</ele><time>2026-05-02T11:00:52Z</time></trkpt><trkpt lat="40.89901204233971" lon="8.23371192032995"><ele>6.0</ele><time>2026-05-02T11:00:53Z</time></trkpt><trkpt lat="40.898747728974556" lon="8.233650386848597"><ele>6.0</ele><time>2026-05-02T11:00:54Z</time></trkpt><trkpt lat="40.89847801697136" lon="8.233589138757685"><ele>6.0</ele><time>2026-05-02T11:00:55Z</time></trkpt><trkpt lat="40.898203966319635" lon="8.2335395240248"><ele>5.0</ele><time>2026-05-02T11:00:56Z</time></trkpt><trkpt lat="40.89793042581278" lon="8.233473731400743"><ele>4.0</ele><time>2026-05-02T11:00:57Z</time></trkpt><trkpt lat="40.89765573193429" lon="8.23341119291504"><ele>3.0</ele><time>2026-05-02T11:00:58Z</time></trkpt><trkpt lat="40.89738192768428" lon="8.233347888590556"><ele>2.0</ele><time>2026-05-02T11:00:59Z</time></trkpt><trkpt lat="40.8971090298376" lon="8.233281430840863"><ele>2.0</ele><time>2026-05-02T11:01:00Z</time></trkpt><trkpt lat="40.89683735809856" lon="8.233215180078188"><ele>2.0</ele><time>2026-05-02T11:01:01Z</time></trkpt><trkpt lat="40.89656533732997" lon="8.233151354914495"><ele>2.5</ele><time>2026-05-02T11:01:02Z</time></trkpt><trkpt lat="40.89629171317393" lon="8.233092900160992"><ele>3.0</ele><time>2026-05-02T11:01:03Z</time></trkpt><trkpt lat="40.896018447068776" lon="8.233036807325437"><ele>2.5</ele><time>2026-05-02T11:01:04Z</time></trkpt><trkpt lat="40.8957456367359" lon="8.232996215794383"><ele>2.0</ele><time>2026-05-02T11:01:05Z</time></trkpt><trkpt lat="40.895471005934766" lon="8.232978650177442"><ele>2.0</ele><time>2026-05-02T11:01:06Z</time></trkpt><trkpt lat="40.8951934935877" lon="8.232983082387493"><ele>2.0</ele><time>2026-05-02T11:01:07Z</time></trkpt><trkpt lat="40.89491440509886" lon="8.233008527070023"><ele>2.5</ele><time>2026-05-02T11:01:08Z</time></trkpt><trkpt lat="40.894636391100434" lon="8.233050350066256"><ele>3.0</ele><time>2026-05-02T11:01:09Z</time></trkpt><trkpt lat="40.894363011302474" lon="8.233121389393766"><ele>3.0</ele><time>2026-05-02T11:01:10Z</time></trkpt><trkpt lat="40.89408997765202" lon="8.233214751785821"><ele>3.0</ele><time>2026-05-02T11:01:11Z</time></trkpt><trkpt lat="40.8938237372544" lon="8.233322747874077"><ele>3.0</ele><time>2026-05-02T11:01:12Z</time></trkpt><trkpt lat="40.893562554114496" lon="8.233444665769262"><ele>3.0</ele><time>2026-05-02T11:01:13Z</time></trkpt><trkpt lat="40.893308412392784" lon="8.233585239483935"><ele>2.5</ele><time>2026-05-02T11:01:14Z</time></trkpt><trkpt lat="40.893054712550956" lon="8.233730103001246"><ele>2.0</ele><time>2026-05-02T11:01:15Z</time></trkpt><trkpt lat="40.89280291192322" lon="8.233875962036384"><ele>2.0</ele><time>2026-05-02T11:01:16Z</time></trkpt><trkpt lat="40.89254785600856" lon="8.234018148405736"><ele>2.0</ele><time>2026-05-02T11:01:17Z</time></trkpt><trkpt lat="40.89229382838032" lon="8.234161646453115"><ele>2.0</ele><time>2026-05-02T11:01:18Z</time></trkpt><trkpt lat="40.89204057637711" lon="8.234308695183248"><ele>2.0</ele><time>2026-05-02T11:01:19Z</time></trkpt><trkpt lat="40.89178828289599" lon="8.234456930143303"><ele>2.5</ele><time>2026-05-02T11:01:20Z</time></trkpt><trkpt lat="40.89153753965188" lon="8.234605214345157"><ele>3.0</ele><time>2026-05-02T11:01:21Z</time></trkpt><trkpt lat="40.89128622815831" lon="8.23475077264593"><ele>2.0</ele><time>2026-05-02T11:01:22Z</time></trkpt><trkpt lat="40.89103633794878" lon="8.234894327949393"><ele>1.0</ele><time>2026-05-02T11:01:23Z</time></trkpt><trkpt lat="40.89078807680578" lon="8.235038304294402"><ele>1.0</ele><time>2026-05-02T11:01:24Z</time></trkpt><trkpt lat="40.890540401186556" lon="8.235178955809737"><ele>1.0</ele><time>2026-05-02T11:01:25Z</time></trkpt><trkpt lat="40.890289519392574" lon="8.235310395811306"><ele>1.5</ele><time>2026-05-02T11:01:26Z</time></trkpt><trkpt lat="40.890033745029385" lon="8.235427063709801"><ele>2.0</ele><time>2026-05-02T11:01:27Z</time></trkpt><trkpt lat="40.88977958974394" lon="8.235532712567021"><ele>2.0</ele><time>2026-05-02T11:01:28Z</time></trkpt><trkpt lat="40.88952168821672" lon="8.235630213320393"><ele>2.0</ele><time>2026-05-02T11:01:29Z</time></trkpt><trkpt lat="40.88925972193475" lon="8.235721431706127"><ele>2.0</ele><time>2026-05-02T11:01:30Z</time></trkpt><trkpt lat="40.8889932155268" lon="8.235800005872907"><ele>2.0</ele><time>2026-05-02T11:01:31Z</time></trkpt><trkpt lat="40.88872285159276" lon="8.235865576689315"><ele>2.0</ele><time>2026-05-02T11:01:32Z</time></trkpt><trkpt lat="40.88844960047665" lon="8.23592559168807"><ele>2.0</ele><time>2026-05-02T11:01:33Z</time></trkpt><trkpt lat="40.8881725948968" lon="8.235978300846309"><ele>2.0</ele><time>2026-05-02T11:01:34Z</time></trkpt><trkpt lat="40.887892071309885" lon="8.236020308535872"><ele>2.0</ele><time>2026-05-02T11:01:35Z</time></trkpt><trkpt lat="40.88761107146729" lon="8.236052674567254"><ele>2.0</ele><time>2026-05-02T11:01:36Z</time></trkpt><trkpt lat="40.88732774332137" lon="8.236071751857414"><ele>2.0</ele><time>2026-05-02T11:01:37Z</time></trkpt><trkpt lat="40.887042774108195" lon="8.2360880026838"><ele>2.5</ele><time>2026-05-02T11:01:38Z</time></trkpt><trkpt lat="40.886758608046335" lon="8.23610231700734"><ele>3.0</ele><time>2026-05-02T11:01:39Z</time></trkpt><trkpt lat="40.88647572908214" lon="8.236119263704664"><ele>3.0</ele><time>2026-05-02T11:01:40Z</time></trkpt><trkpt lat="40.88619280513362" lon="8.23613244941314"><ele>3.0</ele><time>2026-05-02T11:01:41Z</time></trkpt><trkpt lat="40.88591268398303" lon="8.236145737460873"><ele>3.0</ele><time>2026-05-02T11:01:42Z</time></trkpt><trkpt lat="40.885633728595266" lon="8.236162031081644"><ele>3.0</ele><time>2026-05-02T11:01:43Z</time></trkpt><trkpt lat="40.88535669613746" lon="8.236181099147286"><ele>3.5</ele><time>2026-05-02T11:01:44Z</time></trkpt><trkpt lat="40.885077080373605" lon="8.236199324552699"><ele>4.0</ele><time>2026-05-02T11:01:45Z</time></trkpt><trkpt lat="40.88479833116802" lon="8.236215263903068"><ele>4.0</ele><time>2026-05-02T11:01:46Z</time></trkpt><trkpt lat="40.884519470086325" lon="8.236229814716763"><ele>4.0</ele><time>2026-05-02T11:01:47Z</time></trkpt><trkpt lat="40.88424289749186" lon="8.236243218136472"><ele>4.5</ele><time>2026-05-02T11:01:48Z</time></trkpt><trkpt lat="40.883967539340055" lon="8.236253469373063"><ele>5.0</ele><time>2026-05-02T11:01:49Z</time></trkpt><trkpt lat="40.88369192772702" lon="8.236263288561721"><ele>6.0</ele><time>2026-05-02T11:01:50Z</time></trkpt><trkpt lat="40.8834172797011" lon="8.236277281128064"><ele>7.0</ele><time>2026-05-02T11:01:51Z</time></trkpt><trkpt lat="40.88314198581886" lon="8.236290027932371"><ele>7.0</ele><time>2026-05-02T11:01:52Z</time></trkpt><trkpt lat="40.88286398860285" lon="8.236295915534686"><ele>7.0</ele><time>2026-05-02T11:01:53Z</time></trkpt><trkpt lat="40.88258470915624" lon="8.236295497484322"><ele>7.0</ele><time>2026-05-02T11:01:54Z</time></trkpt><trkpt lat="40.882304132313756" lon="8.236288949077753"><ele>7.0</ele><time>2026-05-02T11:01:55Z</time></trkpt><trkpt lat="40.882023244333034" lon="8.236274832534084"><ele>8.0</ele><time>2026-05-02T11:01:56Z</time></trkpt><trkpt lat="40.881742901441434" lon="8.236251097247282"><ele>9.0</ele><time>2026-05-02T11:01:57Z</time></trkpt><trkpt lat="40.88146447690472" lon="8.236221242293466"><ele>9.0</ele><time>2026-05-02T11:01:57.999Z</time></trkpt><trkpt lat="40.881184887696" lon="8.236188175604765"><ele>9.0</ele><time>2026-05-02T11:01:58.999Z</time></trkpt><trkpt lat="40.880908342980355" lon="8.236156562937236"><ele>8.5</ele><time>2026-05-02T11:01:59.999Z</time></trkpt><trkpt lat="40.88063403736312" lon="8.236126056006432"><ele>8.0</ele><time>2026-05-02T11:02:00.999Z</time></trkpt><trkpt lat="40.88036242266991" lon="8.236093331114544"><ele>8.0</ele><time>2026-05-02T11:02:01.999Z</time></trkpt><trkpt lat="40.880092523774536" lon="8.236062278823844"><ele>8.0</ele><time>2026-05-02T11:02:02.999Z</time></trkpt><trkpt lat="40.87982214066216" lon="8.236031515474666"><ele>8.0</ele><time>2026-05-02T11:02:03.999Z</time></trkpt><trkpt lat="40.87955185768055" lon="8.236000338325454"><ele>8.0</ele><time>2026-05-02T11:02:04.999Z</time></trkpt><trkpt lat="40.87928141483878" lon="8.235968235218564"><ele>9.0</ele><time>2026-05-02T11:02:05.999Z</time></trkpt><trkpt lat="40.87901066924245" lon="8.235937947637685"><ele>10.0</ele><time>2026-05-02T11:02:06.999Z</time></trkpt><trkpt lat="40.87873945748651" lon="8.235902220792934"><ele>10.0</ele><time>2026-05-02T11:02:08Z</time></trkpt><trkpt lat="40.87846510246389" lon="8.235862630341778"><ele>10.0</ele><time>2026-05-02T11:02:09Z</time></trkpt><trkpt lat="40.8781873676903" lon="8.235820638387233"><ele>11.0</ele><time>2026-05-02T11:02:09.999Z</time></trkpt><trkpt lat="40.87791308974656" lon="8.235775954179982"><ele>12.0</ele><time>2026-05-02T11:02:10.999Z</time></trkpt><trkpt lat="40.87764154909543" lon="8.235731762106347"><ele>12.0</ele><time>2026-05-02T11:02:11.999Z</time></trkpt><trkpt lat="40.877371372428215" lon="8.235686413337708"><ele>12.0</ele><time>2026-05-02T11:02:12.999Z</time></trkpt><trkpt lat="40.87710404863592" lon="8.235635414176418"><ele>12.5</ele><time>2026-05-02T11:02:13.999Z</time></trkpt><trkpt lat="40.87683606263722" lon="8.235581949198165"><ele>13.0</ele><time>2026-05-02T11:02:14.999Z</time></trkpt><trkpt lat="40.876568501069144" lon="8.235527610513426"><ele>13.0</ele><time>2026-05-02T11:02:15.999Z</time></trkpt><trkpt lat="40.87630001885062" lon="8.235473458378312"><ele>13.0</ele><time>2026-05-02T11:02:16.999Z</time></trkpt><trkpt lat="40.87603111116704" lon="8.235419685448385"><ele>13.5</ele><time>2026-05-02T11:02:17.999Z</time></trkpt><trkpt lat="40.875761066774345" lon="8.235366957328642"><ele>14.0</ele><time>2026-05-02T11:02:18.999Z</time></trkpt><trkpt lat="40.875491652094425" lon="8.235313482001091"><ele>14.0</ele><time>2026-05-02T11:02:19.999Z</time></trkpt><trkpt lat="40.875219772300895" lon="8.235261641200584"><ele>14.0</ele><time>2026-05-02T11:02:20.999Z</time></trkpt><trkpt lat="40.874949381183306" lon="8.235209394336634"><ele>15.0</ele><time>2026-05-02T11:02:21.999Z</time></trkpt><trkpt lat="40.87468100583762" lon="8.235154968679996"><ele>16.0</ele><time>2026-05-02T11:02:22.999Z</time></trkpt><trkpt lat="40.8744153702528" lon="8.235104862309365"><ele>16.0</ele><time>2026-05-02T11:02:23.999Z</time></trkpt><trkpt lat="40.874150362718964" lon="8.235057736398433"><ele>16.0</ele><time>2026-05-02T11:02:24.999Z</time></trkpt><trkpt lat="40.87388591952548" lon="8.235017137161533"><ele>16.0</ele><time>2026-05-02T11:02:25.999Z</time></trkpt><trkpt lat="40.87362050368381" lon="8.234986786233426"><ele>16.0</ele><time>2026-05-02T11:02:26.999Z</time></trkpt><trkpt lat="40.8733537972206" lon="8.234955771523195"><ele>15.0</ele><time>2026-05-02T11:02:27.999Z</time></trkpt><trkpt lat="40.87309074418066" lon="8.234929153157802"><ele>14.0</ele><time>2026-05-02T11:02:28.999Z</time></trkpt><trkpt lat="40.87282827491245" lon="8.234909210312995"><ele>14.0</ele><time>2026-05-02T11:02:29.999Z</time></trkpt><trkpt lat="40.87256532207238" lon="8.234903396641485"><ele>14.0</ele><time>2026-05-02T11:02:30.999Z</time></trkpt><trkpt lat="40.87230141348478" lon="8.234900608179315"><ele>14.0</ele><time>2026-05-02T11:02:31.999Z</time></trkpt><trkpt lat="40.87203887247529" lon="8.234896624459044"><ele>14.0</ele><time>2026-05-02T11:02:32.999Z</time></trkpt><trkpt lat="40.87177927661589" lon="8.234894614641368"><ele>15.0</ele><time>2026-05-02T11:02:33.999Z</time></trkpt><trkpt lat="40.87152219519807" lon="8.234891132995719"><ele>16.0</ele><time>2026-05-02T11:02:34.999Z</time></trkpt><trkpt lat="40.87126849156037" lon="8.234888542324278"><ele>16.0</ele><time>2026-05-02T11:02:35.999Z</time></trkpt><trkpt lat="40.871017981223545" lon="8.234904570004955"><ele>16.0</ele><time>2026-05-02T11:02:36.999Z</time></trkpt><trkpt lat="40.87076615251634" lon="8.234953153565808"><ele>16.5</ele><time>2026-05-02T11:02:37.999Z</time></trkpt><trkpt lat="40.87052038562602" lon="8.235029301245872"><ele>17.0</ele><time>2026-05-02T11:02:38.999Z</time></trkpt><trkpt lat="40.87028166296656" lon="8.235132634320065"><ele>18.5</ele><time>2026-05-02T11:02:39.999Z</time></trkpt><trkpt lat="40.8700485284697" lon="8.235259208962583"><ele>20.0</ele><time>2026-05-02T11:02:40.999Z</time></trkpt><trkpt lat="40.869816232373175" lon="8.235395765099506"><ele>20.0</ele><time>2026-05-02T11:02:41.999Z</time></trkpt><trkpt lat="40.869580965315876" lon="8.235532215950956"><ele>20.0</ele><time>2026-05-02T11:02:42.999Z</time></trkpt><trkpt lat="40.869343864251505" lon="8.235663639607223"><ele>20.5</ele><time>2026-05-02T11:02:43.999Z</time></trkpt><trkpt lat="40.86910668408711" lon="8.235796397751782"><ele>21.0</ele><time>2026-05-02T11:02:44.999Z</time></trkpt><trkpt lat="40.868867286473275" lon="8.235929137643131"><ele>21.0</ele><time>2026-05-02T11:02:46Z</time></trkpt><trkpt lat="40.86862904520549" lon="8.236061319920715"><ele>21.0</ele><time>2026-05-02T11:02:47Z</time></trkpt><trkpt lat="40.86838980391672" lon="8.236194405946565"><ele>21.0</ele><time>2026-05-02T11:02:48Z</time></trkpt><trkpt lat="40.868151381381715" lon="8.236327542565052"><ele>21.0</ele><time>2026-05-02T11:02:49Z</time></trkpt><trkpt lat="40.86791463322278" lon="8.236461687521619"><ele>20.5</ele><time>2026-05-02T11:02:50Z</time></trkpt><trkpt lat="40.867681464628184" lon="8.2365897303134"><ele>20.0</ele><time>2026-05-02T11:02:51Z</time></trkpt><trkpt lat="40.867450190223884" lon="8.236716038269124"><ele>19.5</ele><time>2026-05-02T11:02:52Z</time></trkpt><trkpt lat="40.867232178584224" lon="8.23683169932186"><ele>19.0</ele><time>2026-05-02T11:02:53Z</time></trkpt><trkpt lat="40.86703084976272" lon="8.236935679657487"><ele>19.0</ele><time>2026-05-02T11:02:54Z</time></trkpt><trkpt lat="40.8668593102636" lon="8.237018050135058"><ele>19.0</ele><time>2026-05-02T11:02:55Z</time></trkpt><trkpt lat="40.866714504993" lon="8.237078272611441"><ele>19.0</ele><time>2026-05-02T11:02:56Z</time></trkpt><trkpt lat="40.86659097230636" lon="8.237118872871136"><ele>19.0</ele><time>2026-05-02T11:02:57Z</time></trkpt><trkpt lat="40.86647809324894" lon="8.23712363137634"><ele>19.0</ele><time>2026-05-02T11:02:58Z</time></trkpt><trkpt lat="40.86635803283478" lon="8.237082126031193"><ele>19.0</ele><time>2026-05-02T11:02:59Z</time></trkpt><trkpt lat="40.866240188159495" lon="8.237070599200955"><ele>19.0</ele><time>2026-05-02T11:03:00Z</time></trkpt><trkpt lat="40.866139364800944" lon="8.237124527530245"><ele>19.0</ele><time>2026-05-02T11:03:01Z</time></trkpt><trkpt lat="40.86606765050008" lon="8.237226003264759"><ele>19.0</ele><time>2026-05-02T11:03:02Z</time></trkpt><trkpt lat="40.8659979029708" lon="8.237355161166677"><ele>19.0</ele><time>2026-05-02T11:03:03Z</time></trkpt><trkpt lat="40.86591449970226" lon="8.237483055382622"><ele>19.0</ele><time>2026-05-02T11:03:04Z</time></trkpt><trkpt lat="40.86577631667658" lon="8.237576391490565"><ele>19.333333333333332</ele><time>2026-05-02T11:03:05Z</time></trkpt><trkpt lat="40.86561277870934" lon="8.237640150385689"><ele>19.666666666666668</ele><time>2026-05-02T11:03:06Z</time></trkpt><trkpt lat="40.86543090844826" lon="8.23771513540792"><ele>20.0</ele><time>2026-05-02T11:03:07Z</time></trkpt><trkpt lat="40.86524088717474" lon="8.237804965030818"><ele>20.666666666666668</ele><time>2026-05-02T11:03:08Z</time></trkpt><trkpt lat="40.865043705783926" lon="8.237902924718773"><ele>21.333333333333332</ele><time>2026-05-02T11:03:09Z</time></trkpt><trkpt lat="40.864835459607626" lon="8.238004300733396"><ele>22.0</ele><time>2026-05-02T11:03:10Z</time></trkpt><trkpt lat="40.86462113183043" lon="8.238104242818713"><ele>22.5</ele><time>2026-05-02T11:03:11Z</time></trkpt><trkpt lat="40.86440303245531" lon="8.238207880548524"><ele>23.0</ele><time>2026-05-02T11:03:12Z</time></trkpt><trkpt lat="40.86418259080397" lon="8.238315759536134"><ele>23.0</ele><time>2026-05-02T11:03:13Z</time></trkpt><trkpt lat="40.86395910252948" lon="8.238424622295055"><ele>23.0</ele><time>2026-05-02T11:03:14Z</time></trkpt><trkpt lat="40.863733351322466" lon="8.238531909513435"><ele>23.0</ele><time>2026-05-02T11:03:15Z</time></trkpt><trkpt lat="40.863506201445205" lon="8.238637635603562"><ele>23.0</ele><time>2026-05-02T11:03:16Z</time></trkpt><trkpt lat="40.863274293580936" lon="8.238737414373585"><ele>25.5</ele><time>2026-05-02T11:03:17Z</time></trkpt><trkpt lat="40.86303697967952" lon="8.23882370736758"><ele>28.0</ele><time>2026-05-02T11:03:18Z</time></trkpt><trkpt lat="40.86279270760637" lon="8.238887607372446"><ele>28.5</ele><time>2026-05-02T11:03:19Z</time></trkpt><trkpt lat="40.86254563365214" lon="8.238938326819316"><ele>29.0</ele><time>2026-05-02T11:03:20Z</time></trkpt><trkpt lat="40.86229517064015" lon="8.23898045137669"><ele>28.0</ele><time>2026-05-02T11:03:21Z</time></trkpt><trkpt lat="40.862041716439975" lon="8.239011064951358"><ele>27.0</ele><time>2026-05-02T11:03:22Z</time></trkpt><trkpt lat="40.86178415732585" lon="8.239031488358048"><ele>28.0</ele><time>2026-05-02T11:03:23Z</time></trkpt><trkpt lat="40.8615227992428" lon="8.239048035389398"><ele>29.0</ele><time>2026-05-02T11:03:24Z</time></trkpt><trkpt lat="40.86125875338943" lon="8.239059004851663"><ele>29.0</ele><time>2026-05-02T11:03:25Z</time></trkpt><trkpt lat="40.86100070341671" lon="8.239110647360892"><ele>29.0</ele><time>2026-05-02T11:03:26Z</time></trkpt><trkpt lat="40.86081302546802" lon="8.239235570967752"><ele>28.0</ele><time>2026-05-02T11:03:27Z</time></trkpt><trkpt lat="40.86058080975262" lon="8.23927299232215"><ele>27.0</ele><time>2026-05-02T11:03:28Z</time></trkpt><trkpt lat="40.86034586696082" lon="8.23931083559883"><ele>28.0</ele><time>2026-05-02T11:03:29Z</time></trkpt><trkpt lat="40.86011575828643" lon="8.23934158652868"><ele>29.0</ele><time>2026-05-02T11:03:30Z</time></trkpt><trkpt lat="40.85989058050088" lon="8.2394008671461"><ele>29.0</ele><time>2026-05-02T11:03:31Z</time></trkpt><trkpt lat="40.859671834261526" lon="8.239482753059274"><ele>29.0</ele><time>2026-05-02T11:03:32Z</time></trkpt><trkpt lat="40.85945724192508" lon="8.239590538489159"><ele>29.5</ele><time>2026-05-02T11:03:33Z</time></trkpt><trkpt lat="40.85925111604458" lon="8.239718081013077"><ele>30.0</ele><time>2026-05-02T11:03:34Z</time></trkpt><trkpt lat="40.85905234115395" lon="8.239882506551005"><ele>30.0</ele><time>2026-05-02T11:03:35Z</time></trkpt><trkpt lat="40.85884883466095" lon="8.24008750424416"><ele>30.0</ele><time>2026-05-02T11:03:36Z</time></trkpt><trkpt lat="40.858633690703726" lon="8.240298601373215"><ele>30.5</ele><time>2026-05-02T11:03:37Z</time></trkpt><trkpt lat="40.858406785396696" lon="8.240490486537999"><ele>31.0</ele><time>2026-05-02T11:03:38Z</time></trkpt><trkpt lat="40.85818024743898" lon="8.240673463016943"><ele>31.0</ele><time>2026-05-02T11:03:39Z</time></trkpt><trkpt lat="40.85775583017397" lon="8.241047620413303"><ele>29.5</ele><time>2026-05-02T11:03:41Z</time></trkpt><trkpt lat="40.857558592840306" lon="8.241223846941"><ele>28.0</ele><time>2026-05-02T11:03:42Z</time></trkpt><trkpt lat="40.857351659459255" lon="8.241391501035272"><ele>28.5</ele><time>2026-05-02T11:03:43Z</time></trkpt><trkpt lat="40.857141810066516" lon="8.241556741231548"><ele>29.0</ele><time>2026-05-02T11:03:44Z</time></trkpt><trkpt lat="40.85690757334271" lon="8.241669373914494"><ele>28.0</ele><time>2026-05-02T11:03:45Z</time></trkpt><trkpt lat="40.856664732010124" lon="8.241766202559592"><ele>27.0</ele><time>2026-05-02T11:03:46Z</time></trkpt><trkpt lat="40.85641536130872" lon="8.24182149387134"><ele>27.0</ele><time>2026-05-02T11:03:47Z</time></trkpt><trkpt lat="40.856157383273285" lon="8.241857432154049"><ele>27.0</ele><time>2026-05-02T11:03:48Z</time></trkpt><trkpt lat="40.85588968782618" lon="8.24189174003397"><ele>27.0</ele><time>2026-05-02T11:03:49Z</time></trkpt><trkpt lat="40.8556200123687" lon="8.24192630177529"><ele>27.0</ele><time>2026-05-02T11:03:50Z</time></trkpt><trkpt lat="40.855349780871045" lon="8.241962746662386"><ele>27.0</ele><time>2026-05-02T11:03:51Z</time></trkpt><trkpt lat="40.855079981022435" lon="8.241998234735501"><ele>27.0</ele><time>2026-05-02T11:03:52Z</time></trkpt><trkpt lat="40.854807942916345" lon="8.2420522967017"><ele>27.0</ele><time>2026-05-02T11:03:53Z</time></trkpt><trkpt lat="40.854537629794955" lon="8.242068992846223"><ele>27.0</ele><time>2026-05-02T11:03:54Z</time></trkpt><trkpt lat="40.85426093945233" lon="8.242121996469242"><ele>27.0</ele><time>2026-05-02T11:03:55Z</time></trkpt><trkpt lat="40.85398242691331" lon="8.242157214047712"><ele>27.0</ele><time>2026-05-02T11:03:56Z</time></trkpt><trkpt lat="40.853704679420055" lon="8.242193328827689"><ele>26.5</ele><time>2026-05-02T11:03:57Z</time></trkpt><trkpt lat="40.85342477122313" lon="8.242227373398173"><ele>26.0</ele><time>2026-05-02T11:03:58Z</time></trkpt><trkpt lat="40.85314635024341" lon="8.242260251625734"><ele>26.0</ele><time>2026-05-02T11:03:59Z</time></trkpt><trkpt lat="40.8528739359278" lon="8.242298154610816"><ele>26.0</ele><time>2026-05-02T11:03:59.999Z</time></trkpt><trkpt lat="40.85260167333519" lon="8.242337590475943"><ele>26.5</ele><time>2026-05-02T11:04:00.999Z</time></trkpt><trkpt lat="40.85232918161072" lon="8.242377777769686"><ele>27.0</ele><time>2026-05-02T11:04:01.999Z</time></trkpt><trkpt lat="40.852057322623146" lon="8.242416876760355"><ele>29.0</ele><time>2026-05-02T11:04:02.999Z</time></trkpt><trkpt lat="40.85178748188987" lon="8.242452889345886"><ele>31.0</ele><time>2026-05-02T11:04:03.999Z</time></trkpt><trkpt lat="40.851522676855424" lon="8.242486860355509"><ele>31.0</ele><time>2026-05-02T11:04:04.999Z</time></trkpt><trkpt lat="40.85125007649118" lon="8.242523991389335"><ele>31.0</ele><time>2026-05-02T11:04:05.999Z</time></trkpt><trkpt lat="40.850982564461106" lon="8.242559157787055"><ele>33.5</ele><time>2026-05-02T11:04:06.999Z</time></trkpt><trkpt lat="40.85071539404637" lon="8.242598501725706"><ele>36.0</ele><time>2026-05-02T11:04:07.999Z</time></trkpt><trkpt lat="40.85045101300545" lon="8.242638225963212"><ele>36.0</ele><time>2026-05-02T11:04:08.999Z</time></trkpt><trkpt lat="40.85018596514491" lon="8.24266542192099"><ele>36.0</ele><time>2026-05-02T11:04:09.999Z</time></trkpt><trkpt lat="40.849915991867206" lon="8.242665784815411"><ele>37.5</ele><time>2026-05-02T11:04:10.999Z</time></trkpt><trkpt lat="40.84964999851725" lon="8.242613812393254"><ele>39.0</ele><time>2026-05-02T11:04:11.999Z</time></trkpt><trkpt lat="40.84938518334552" lon="8.242550213834335"><ele>39.0</ele><time>2026-05-02T11:04:12.999Z</time></trkpt><trkpt lat="40.849118317244525" lon="8.242469753912456"><ele>39.0</ele><time>2026-05-02T11:04:13.999Z</time></trkpt><trkpt lat="40.848851759240524" lon="8.242387380806086"><ele>39.0</ele><time>2026-05-02T11:04:14.999Z</time></trkpt><trkpt lat="40.848580641663474" lon="8.242321273741705"><ele>39.0</ele><time>2026-05-02T11:04:15.999Z</time></trkpt><trkpt lat="40.848314368027424" lon="8.242237183883487"><ele>39.5</ele><time>2026-05-02T11:04:16.999Z</time></trkpt><trkpt lat="40.84804845396335" lon="8.242163249781337"><ele>40.0</ele><time>2026-05-02T11:04:17.999Z</time></trkpt><trkpt lat="40.84778334175828" lon="8.242104934370216"><ele>39.5</ele><time>2026-05-02T11:04:18.999Z</time></trkpt><trkpt lat="40.84751846414035" lon="8.242069690037573"><ele>39.0</ele><time>2026-05-02T11:04:19.999Z</time></trkpt><trkpt lat="40.84725149069526" lon="8.242063093869932"><ele>39.0</ele><time>2026-05-02T11:04:20.999Z</time></trkpt><trkpt lat="40.846987380086006" lon="8.242096587128513"><ele>39.0</ele><time>2026-05-02T11:04:21.999Z</time></trkpt><trkpt lat="40.846722938990496" lon="8.242162548266954"><ele>39.0</ele><time>2026-05-02T11:04:22.999Z</time></trkpt><trkpt lat="40.84646844385421" lon="8.24225988566213"><ele>39.0</ele><time>2026-05-02T11:04:23.999Z</time></trkpt><trkpt lat="40.846208650907265" lon="8.242383499744607"><ele>38.5</ele><time>2026-05-02T11:04:24.999Z</time></trkpt><trkpt lat="40.84594710951252" lon="8.242510817425547"><ele>38.0</ele><time>2026-05-02T11:04:25.999Z</time></trkpt><trkpt lat="40.8456769658561" lon="8.24263516930544"><ele>38.0</ele><time>2026-05-02T11:04:26.999Z</time></trkpt><trkpt lat="40.84540480927537" lon="8.242754281896365"><ele>38.0</ele><time>2026-05-02T11:04:27.999Z</time></trkpt><trkpt lat="40.845133743792466" lon="8.242869574301666"><ele>36.0</ele><time>2026-05-02T11:04:28.999Z</time></trkpt><trkpt lat="40.84486529931617" lon="8.24298905813947"><ele>34.0</ele><time>2026-05-02T11:04:29.999Z</time></trkpt><trkpt lat="40.84459966207421" lon="8.243099288039026"><ele>35.0</ele><time>2026-05-02T11:04:30.999Z</time></trkpt><trkpt lat="40.84435461414843" lon="8.24320330800253"><ele>36.0</ele><time>2026-05-02T11:04:31.999Z</time></trkpt><trkpt lat="40.84412811715349" lon="8.243306653335202"><ele>34.0</ele><time>2026-05-02T11:04:32.999Z</time></trkpt><trkpt lat="40.84391191360483" lon="8.243402282370738"><ele>32.0</ele><time>2026-05-02T11:04:33.999Z</time></trkpt><trkpt lat="40.84370818002852" lon="8.243493928092684"><ele>30.0</ele><time>2026-05-02T11:04:34.999Z</time></trkpt><trkpt lat="40.84351439988788" lon="8.24357374861353"><ele>31.0</ele><time>2026-05-02T11:04:35.999Z</time></trkpt><trkpt lat="40.84333063070761" lon="8.243650632914148"><ele>32.0</ele><time>2026-05-02T11:04:36.999Z</time></trkpt><trkpt lat="40.84315474308498" lon="8.243724613864078"><ele>33.0</ele><time>2026-05-02T11:04:37.999Z</time></trkpt><trkpt lat="40.842988640341396" lon="8.24379757032948"><ele>33.0</ele><time>2026-05-02T11:04:38.999Z</time></trkpt><trkpt lat="40.8428280946303" lon="8.243868487731186"><ele>33.0</ele><time>2026-05-02T11:04:39.999Z</time></trkpt><trkpt lat="40.842669313846095" lon="8.243927293206434"><ele>33.0</ele><time>2026-05-02T11:04:40.999Z</time></trkpt><trkpt lat="40.84250598978719" lon="8.243941970226624"><ele>34.666666666666664</ele><time>2026-05-02T11:04:41.999Z</time></trkpt><trkpt lat="40.84233665007073" lon="8.243963072112011"><ele>36.33333333333333</ele><time>2026-05-02T11:04:42.999Z</time></trkpt><trkpt lat="40.84215817616925" lon="8.243971443978209"><ele>38.0</ele><time>2026-05-02T11:04:43.999Z</time></trkpt><trkpt lat="40.84197372135682" lon="8.243987887659314"><ele>38.666666666666664</ele><time>2026-05-02T11:04:44.999Z</time></trkpt><trkpt lat="40.84178553411664" lon="8.243967866866862"><ele>39.333333333333336</ele><time>2026-05-02T11:04:45.999Z</time></trkpt><trkpt lat="40.84159677674163" lon="8.243946004088825"><ele>40.0</ele><time>2026-05-02T11:04:46.999Z</time></trkpt><trkpt lat="40.84141145524848" lon="8.243927902026368"><ele>40.0</ele><time>2026-05-02T11:04:47.999Z</time></trkpt><trkpt lat="40.8412296601751" lon="8.243920698497234"><ele>40.0</ele><time>2026-05-02T11:04:48.999Z</time></trkpt><trkpt lat="40.84104774297653" lon="8.243919598493282"><ele>40.0</ele><time>2026-05-02T11:04:49.999Z</time></trkpt><trkpt lat="40.84086114073525" lon="8.243919113626282"><ele>39.66666666666667</ele><time>2026-05-02T11:04:51Z</time></trkpt><trkpt lat="40.840685517587424" lon="8.243934719167202"><ele>39.333333333333336</ele><time>2026-05-02T11:04:52Z</time></trkpt><trkpt lat="40.840504825837435" lon="8.243957806548565"><ele>39.0</ele><time>2026-05-02T11:04:53Z</time></trkpt><trkpt lat="40.84032972183681" lon="8.243985397864556"><ele>39.0</ele><time>2026-05-02T11:04:54Z</time></trkpt><trkpt lat="40.84015260164006" lon="8.244021371162274"><ele>39.0</ele><time>2026-05-02T11:04:55Z</time></trkpt><trkpt lat="40.83997353757023" lon="8.244074716155158"><ele>39.0</ele><time>2026-05-02T11:04:56Z</time></trkpt><trkpt lat="40.83980713366675" lon="8.244139715721055"><ele>38.666666666666664</ele><time>2026-05-02T11:04:57Z</time></trkpt><trkpt lat="40.839630615456265" lon="8.244199375272952"><ele>38.33333333333333</ele><time>2026-05-02T11:04:58Z</time></trkpt><trkpt lat="40.83946173162139" lon="8.24425950783098"><ele>38.0</ele><time>2026-05-02T11:04:59Z</time></trkpt><trkpt lat="40.839293185275395" lon="8.24431267940781"><ele>38.0</ele><time>2026-05-02T11:05:00Z</time></trkpt><trkpt lat="40.839128936062274" lon="8.244369414353207"><ele>38.0</ele><time>2026-05-02T11:05:01Z</time></trkpt><trkpt lat="40.838965451897586" lon="8.244423490964754"><ele>38.0</ele><time>2026-05-02T11:05:02Z</time></trkpt><trkpt lat="40.83880851846872" lon="8.244476404220265"><ele>38.0</ele><time>2026-05-02T11:05:03Z</time></trkpt><trkpt lat="40.83865488553505" lon="8.244525867000297"><ele>38.0</ele><time>2026-05-02T11:05:04Z</time></trkpt><trkpt lat="40.83851414522583" lon="8.244577720702248"><ele>38.0</ele><time>2026-05-02T11:05:05Z</time></trkpt><trkpt lat="40.838380534875945" lon="8.244626686959425"><ele>38.0</ele><time>2026-05-02T11:05:06Z</time></trkpt><trkpt lat="40.83825793028216" lon="8.244665044951715"><ele>38.4</ele><time>2026-05-02T11:05:07Z</time></trkpt><trkpt lat="40.83813918393193" lon="8.24469655838193"><ele>38.8</ele><time>2026-05-02T11:05:08Z</time></trkpt><trkpt lat="40.838027169186844" lon="8.244721203476491"><ele>39.2</ele><time>2026-05-02T11:05:09Z</time></trkpt><trkpt lat="40.83791978536211" lon="8.24474270669324"><ele>39.6</ele><time>2026-05-02T11:05:10Z</time></trkpt><trkpt lat="40.83781533774474" lon="8.244761915281728"><ele>40.0</ele><time>2026-05-02T11:05:11Z</time></trkpt><trkpt lat="40.837719379032194" lon="8.244780557587593"><ele>40.0</ele><time>2026-05-02T11:05:12Z</time></trkpt><trkpt lat="40.83762474223016" lon="8.244794297685246"><ele>40.0</ele><time>2026-05-02T11:05:14Z</time></trkpt><trkpt lat="40.83753848680798" lon="8.244819998552428"><ele>40.0</ele><time>2026-05-02T11:05:26Z</time></trkpt><trkpt lat="40.83745795397789" lon="8.244852303233925"><ele>40.0</ele><time>2026-05-02T11:05:28Z</time></trkpt><trkpt lat="40.83739430262616" lon="8.24487043936682"><ele>40.0</ele><time>2026-05-02T11:05:29Z</time></trkpt><trkpt lat="40.83731865853556" lon="8.244878370458606"><ele>40.0</ele><time>2026-05-02T11:05:30Z</time></trkpt><trkpt lat="40.83724610767881" lon="8.244896008759719"><ele>40.0</ele><time>2026-05-02T11:05:31Z</time></trkpt><trkpt lat="40.83716756333554" lon="8.244915843827997"><ele>40.0</ele><time>2026-05-02T11:05:32Z</time></trkpt><trkpt lat="40.837085911635405" lon="8.244938197676555"><ele>40.0</ele><time>2026-05-02T11:05:33Z</time></trkpt><trkpt lat="40.83701063591683" lon="8.244949724465087"><ele>40.0</ele><time>2026-05-02T11:05:34Z</time></trkpt><trkpt lat="40.83693981748411" lon="8.244937824413798"><ele>40.0</ele><time>2026-05-02T11:05:35Z</time></trkpt><trkpt lat="40.83686819592701" lon="8.244912592737727"><ele>40.0</ele><time>2026-05-02T11:05:36Z</time></trkpt><trkpt lat="40.836777803465324" lon="8.244904171061602"><ele>40.0</ele><time>2026-05-02T11:05:38Z</time></trkpt><trkpt lat="40.836723971327935" lon="8.244832722573715"><ele>40.0</ele><time>2026-05-02T11:05:39Z</time></trkpt><trkpt lat="40.8366754394434" lon="8.24467393466637"><ele>40.0</ele><time>2026-05-02T11:05:41Z</time></trkpt><trkpt lat="40.836688484210946" lon="8.244575783924388"><ele>40.0</ele><time>2026-05-02T11:05:42Z</time></trkpt><trkpt lat="40.83672395802668" lon="8.244464092828897"><ele>40.0</ele><time>2026-05-02T11:05:43Z</time></trkpt><trkpt lat="40.836748073594386" lon="8.244340166362374"><ele>40.0</ele><time>2026-05-02T11:05:44Z</time></trkpt><trkpt lat="40.83676045394546" lon="8.244195768167728"><ele>40.0</ele><time>2026-05-02T11:05:45Z</time></trkpt><trkpt lat="40.836793415" lon="8.244070591433728"><ele>40.0</ele><time>2026-05-02T11:05:46Z</time></trkpt><trkpt lat="40.8368189858363" lon="8.243957068110511"><ele>40.0</ele><time>2026-05-02T11:05:47Z</time></trkpt><trkpt lat="40.8368417563073" lon="8.243845873003561"><ele>40.0</ele><time>2026-05-02T11:05:48Z</time></trkpt><trkpt lat="40.83686962576866" lon="8.243739698003298"><ele>40.0</ele><time>2026-05-02T11:05:49Z</time></trkpt><trkpt lat="40.836896695762555" lon="8.24361382076955"><ele>40.0</ele><time>2026-05-02T11:05:50Z</time></trkpt><trkpt lat="40.83691742614116" lon="8.24348837877582"><ele>40.0</ele><time>2026-05-02T11:05:51Z</time></trkpt><trkpt lat="40.83692888108551" lon="8.243352920970983"><ele>40.0</ele><time>2026-05-02T11:05:52Z</time></trkpt><trkpt lat="40.83692051647827" lon="8.243210934600043"><ele>40.0</ele><time>2026-05-02T11:05:53Z</time></trkpt><trkpt lat="40.836911857906664" lon="8.243067237274952"><ele>40.0</ele><time>2026-05-02T11:05:54Z</time></trkpt><trkpt lat="40.836884535125584" lon="8.242926749936574"><ele>40.0</ele><time>2026-05-02T11:05:55Z</time></trkpt><trkpt lat="40.836860252133384" lon="8.242780606281903"><ele>40.0</ele><time>2026-05-02T11:05:56Z</time></trkpt><trkpt lat="40.836832636289834" lon="8.242629507128514"><ele>40.0</ele><time>2026-05-02T11:05:57Z</time></trkpt><trkpt lat="40.836808678809724" lon="8.242471549584678"><ele>40.25</ele><time>2026-05-02T11:05:58Z</time></trkpt><trkpt lat="40.836783038516785" lon="8.242313541552717"><ele>40.5</ele><time>2026-05-02T11:05:59Z</time></trkpt><trkpt lat="40.83675616155681" lon="8.242146460415915"><ele>40.75</ele><time>2026-05-02T11:06:00Z</time></trkpt><trkpt lat="40.836725026325766" lon="8.241969747113144"><ele>41.0</ele><time>2026-05-02T11:06:01Z</time></trkpt><trkpt lat="40.83669377155233" lon="8.241786423769456"><ele>41.33333333333333</ele><time>2026-05-02T11:06:02Z</time></trkpt><trkpt lat="40.836661958389506" lon="8.241591533414162"><ele>41.666666666666664</ele><time>2026-05-02T11:06:03Z</time></trkpt><trkpt lat="40.83662878865217" lon="8.241391708008457"><ele>42.0</ele><time>2026-05-02T11:06:04Z</time></trkpt><trkpt lat="40.83659558519937" lon="8.241180657875741"><ele>42.0</ele><time>2026-05-02T11:06:05Z</time></trkpt><trkpt lat="40.836557976821" lon="8.240968859299283"><ele>42.0</ele><time>2026-05-02T11:06:06Z</time></trkpt><trkpt lat="40.836534235316634" lon="8.240732773670686"><ele>42.0</ele><time>2026-05-02T11:06:07Z</time></trkpt><trkpt lat="40.83649319281119" lon="8.240492453622112"><ele>42.333333333333336</ele><time>2026-05-02T11:06:08Z</time></trkpt><trkpt lat="40.83645162825112" lon="8.240244731697606"><ele>42.66666666666667</ele><time>2026-05-02T11:06:09Z</time></trkpt><trkpt lat="40.83639932296083" lon="8.239993804653952"><ele>43.0</ele><time>2026-05-02T11:06:10Z</time></trkpt><trkpt lat="40.836359257966514" lon="8.23973403156472"><ele>43.0</ele><time>2026-05-02T11:06:11Z</time></trkpt><trkpt lat="40.83632607058284" lon="8.239474503175408"><ele>43.0</ele><time>2026-05-02T11:06:12Z</time></trkpt><trkpt lat="40.83629979784018" lon="8.239215809196851"><ele>43.0</ele><time>2026-05-02T11:06:13Z</time></trkpt><trkpt lat="40.83627615393274" lon="8.238957159664373"><ele>43.333333333333336</ele><time>2026-05-02T11:06:14Z</time></trkpt><trkpt lat="40.83625338429578" lon="8.23869876351154"><ele>43.666666666666664</ele><time>2026-05-02T11:06:15Z</time></trkpt><trkpt lat="40.836231596180646" lon="8.23844033895095"><ele>44.0</ele><time>2026-05-02T11:06:16Z</time></trkpt><trkpt lat="40.836210519938646" lon="8.238188860602815"><ele>44.0</ele><time>2026-05-02T11:06:17Z</time></trkpt><trkpt lat="40.836187752952306" lon="8.23794036264684"><ele>44.0</ele><time>2026-05-02T11:06:18Z</time></trkpt><trkpt lat="40.83616421698686" lon="8.237693198292185"><ele>44.0</ele><time>2026-05-02T11:06:19Z</time></trkpt><trkpt lat="40.83615259726158" lon="8.237453850639623"><ele>44.0</ele><time>2026-05-02T11:06:20Z</time></trkpt><trkpt lat="40.836131786008224" lon="8.237215657522874"><ele>44.0</ele><time>2026-05-02T11:06:21Z</time></trkpt><trkpt lat="40.83609680347568" lon="8.23696462686579"><ele>44.0</ele><time>2026-05-02T11:06:22Z</time></trkpt><trkpt lat="40.83607431234572" lon="8.236726345088897"><ele>44.0</ele><time>2026-05-02T11:06:23Z</time></trkpt><trkpt lat="40.836048490072145" lon="8.236484820337594"><ele>44.0</ele><time>2026-05-02T11:06:24Z</time></trkpt><trkpt lat="40.83602091322789" lon="8.236243277628704"><ele>44.0</ele><time>2026-05-02T11:06:25Z</time></trkpt><trkpt lat="40.83597147488682" lon="8.236003807504543"><ele>43.666666666666664</ele><time>2026-05-02T11:06:26Z</time></trkpt><trkpt lat="40.83591308025015" lon="8.235757851709575"><ele>43.333333333333336</ele><time>2026-05-02T11:06:26.999Z</time></trkpt><trkpt lat="40.83585149909312" lon="8.235500143367945"><ele>43.0</ele><time>2026-05-02T11:06:27.999Z</time></trkpt><trkpt lat="40.83579239917728" lon="8.235227996050437"><ele>42.0</ele><time>2026-05-02T11:06:28.999Z</time></trkpt><trkpt lat="40.8357316356622" lon="8.23494034100261"><ele>41.0</ele><time>2026-05-02T11:06:29.999Z</time></trkpt><trkpt lat="40.83566947216337" lon="8.234645727505155"><ele>40.0</ele><time>2026-05-02T11:06:30.999Z</time></trkpt><trkpt lat="40.83560609510669" lon="8.234340260137838"><ele>39.0</ele><time>2026-05-02T11:06:31.999Z</time></trkpt><trkpt lat="40.835541658715364" lon="8.234027956637089"><ele>39.5</ele><time>2026-05-02T11:06:32.999Z</time></trkpt><trkpt lat="40.835479764441025" lon="8.233714473231611"><ele>40.0</ele><time>2026-05-02T11:06:33.999Z</time></trkpt><trkpt lat="40.83540702037726" lon="8.233396670764524"><ele>41.0</ele><time>2026-05-02T11:06:34.999Z</time></trkpt><trkpt lat="40.83533927930191" lon="8.23308471441335"><ele>42.0</ele><time>2026-05-02T11:06:35.999Z</time></trkpt><trkpt lat="40.83527197138082" lon="8.232779947219262"><ele>42.0</ele><time>2026-05-02T11:06:36.999Z</time></trkpt><trkpt lat="40.83520888651241" lon="8.232499270643222"><ele>42.0</ele><time>2026-05-02T11:06:37.999Z</time></trkpt><trkpt lat="40.835134724816214" lon="8.232247604984925"><ele>42.0</ele><time>2026-05-02T11:06:38.999Z</time></trkpt><trkpt lat="40.83503872425436" lon="8.232012689954557"><ele>42.666666666666664</ele><time>2026-05-02T11:06:39.999Z</time></trkpt><trkpt lat="40.83488340865906" lon="8.231822359218887"><ele>43.33333333333333</ele><time>2026-05-02T11:06:40.999Z</time></trkpt><trkpt lat="40.83470429721913" lon="8.231681023902842"><ele>44.0</ele><time>2026-05-02T11:06:41.999Z</time></trkpt><trkpt lat="40.83449909111192" lon="8.23157346460387"><ele>43.5</ele><time>2026-05-02T11:06:42.999Z</time></trkpt><trkpt lat="40.83425946511085" lon="8.231497417220831"><ele>43.0</ele><time>2026-05-02T11:06:43.999Z</time></trkpt><trkpt lat="40.8340465978022" lon="8.231377821064632"><ele>43.0</ele><time>2026-05-02T11:06:44.999Z</time></trkpt><trkpt lat="40.83385982412749" lon="8.231217829684569"><ele>43.0</ele><time>2026-05-02T11:06:45.999Z</time></trkpt><trkpt lat="40.83369656335423" lon="8.231045170192566"><ele>43.0</ele><time>2026-05-02T11:06:46.999Z</time></trkpt><trkpt lat="40.8335492318186" lon="8.23082908215281"><ele>44.0</ele><time>2026-05-02T11:06:47.999Z</time></trkpt><trkpt lat="40.83340733634159" lon="8.23059444585037"><ele>45.0</ele><time>2026-05-02T11:06:48.999Z</time></trkpt><trkpt lat="40.833262947314964" lon="8.230353356820778"><ele>45.0</ele><time>2026-05-02T11:06:49.999Z</time></trkpt><trkpt lat="40.833107038554175" lon="8.230114962950514"><ele>45.0</ele><time>2026-05-02T11:06:50.999Z</time></trkpt><trkpt lat="40.83297004838717" lon="8.229886536458158"><ele>45.333333333333336</ele><time>2026-05-02T11:06:51.999Z</time></trkpt><trkpt lat="40.8328464390538" lon="8.229669964904279"><ele>45.66666666666667</ele><time>2026-05-02T11:06:52.999Z</time></trkpt><trkpt lat="40.83277741567949" lon="8.229424452998508"><ele>46.0</ele><time>2026-05-02T11:06:53.999Z</time></trkpt><trkpt lat="40.83272806167213" lon="8.229166758039545"><ele>43.5</ele><time>2026-05-02T11:06:54.999Z</time></trkpt><trkpt lat="40.832700093925745" lon="8.228867935064839"><ele>41.0</ele><time>2026-05-02T11:06:55.999Z</time></trkpt><trkpt lat="40.832669204110964" lon="8.228555583885223"><ele>38.0</ele><time>2026-05-02T11:06:57Z</time></trkpt><trkpt lat="40.83262778591691" lon="8.228232902542194"><ele>35.0</ele><time>2026-05-02T11:06:58Z</time></trkpt><trkpt lat="40.83259794869523" lon="8.227905867986356"><ele>35.0</ele><time>2026-05-02T11:06:59Z</time></trkpt><trkpt lat="40.83256782361098" lon="8.227581247011882"><ele>35.0</ele><time>2026-05-02T11:07:00Z</time></trkpt><trkpt lat="40.832539477852436" lon="8.227259268756857"><ele>36.0</ele><time>2026-05-02T11:07:01Z</time></trkpt><trkpt lat="40.83251209754685" lon="8.226929562204804"><ele>37.0</ele><time>2026-05-02T11:07:02Z</time></trkpt><trkpt lat="40.83249073186844" lon="8.226619437899322"><ele>37.5</ele><time>2026-05-02T11:07:03Z</time></trkpt><trkpt lat="40.83246341523242" lon="8.226311858345909"><ele>38.0</ele><time>2026-05-02T11:07:04Z</time></trkpt><trkpt lat="40.83241873107867" lon="8.226021083238363"><ele>38.0</ele><time>2026-05-02T11:07:05Z</time></trkpt><trkpt lat="40.832342663853574" lon="8.225756767724036"><ele>38.0</ele><time>2026-05-02T11:07:06Z</time></trkpt><trkpt lat="40.832221661637895" lon="8.225498417322068"><ele>38.0</ele><time>2026-05-02T11:07:07Z</time></trkpt><trkpt lat="40.832094689633244" lon="8.225225712720018"><ele>39.5</ele><time>2026-05-02T11:07:08Z</time></trkpt><trkpt lat="40.83196511478948" lon="8.224931534753237"><ele>41.0</ele><time>2026-05-02T11:07:09Z</time></trkpt><trkpt lat="40.831838237290675" lon="8.224631534632968"><ele>39.5</ele><time>2026-05-02T11:07:10Z</time></trkpt><trkpt lat="40.83170787561707" lon="8.224323663535229"><ele>38.0</ele><time>2026-05-02T11:07:11Z</time></trkpt><trkpt lat="40.8315757613431" lon="8.224037084784515"><ele>40.0</ele><time>2026-05-02T11:07:12Z</time></trkpt><trkpt lat="40.83145112405537" lon="8.223736752096219"><ele>42.0</ele><time>2026-05-02T11:07:13Z</time></trkpt><trkpt lat="40.83132466621295" lon="8.223425935136499"><ele>44.5</ele><time>2026-05-02T11:07:14Z</time></trkpt><trkpt lat="40.831196706371685" lon="8.223138598139924"><ele>47.0</ele><time>2026-05-02T11:07:15Z</time></trkpt><trkpt lat="40.831068917272454" lon="8.222851655938195"><ele>48.5</ele><time>2026-05-02T11:07:16Z</time></trkpt><trkpt lat="40.83094519146379" lon="8.222567864810552"><ele>50.0</ele><time>2026-05-02T11:07:17Z</time></trkpt><trkpt lat="40.83082198429571" lon="8.222284012178504"><ele>50.5</ele><time>2026-05-02T11:07:18Z</time></trkpt><trkpt lat="40.83070583134229" lon="8.222024576490579"><ele>51.0</ele><time>2026-05-02T11:07:19Z</time></trkpt><trkpt lat="40.8305966958023" lon="8.221763641758994"><ele>51.0</ele><time>2026-05-02T11:07:20Z</time></trkpt><trkpt lat="40.830480377136894" lon="8.221500338769996"><ele>51.0</ele><time>2026-05-02T11:07:21Z</time></trkpt><trkpt lat="40.830363830277044" lon="8.221232298233835"><ele>52.5</ele><time>2026-05-02T11:07:22Z</time></trkpt><trkpt lat="40.830249964634994" lon="8.220960172128736"><ele>54.0</ele><time>2026-05-02T11:07:23Z</time></trkpt><trkpt lat="40.83014537725528" lon="8.220683866243988"><ele>53.0</ele><time>2026-05-02T11:07:24Z</time></trkpt><trkpt lat="40.83005619183653" lon="8.220397413920763"><ele>52.0</ele><time>2026-05-02T11:07:25Z</time></trkpt><trkpt lat="40.82998923935018" lon="8.220113150732399"><ele>52.0</ele><time>2026-05-02T11:07:26Z</time></trkpt><trkpt lat="40.82993444971431" lon="8.219817775452672"><ele>52.0</ele><time>2026-05-02T11:07:27Z</time></trkpt><trkpt lat="40.829888154876336" lon="8.219536781746879"><ele>52.0</ele><time>2026-05-02T11:07:28Z</time></trkpt><trkpt lat="40.829856708879625" lon="8.219229912924918"><ele>51.0</ele><time>2026-05-02T11:07:29Z</time></trkpt><trkpt lat="40.8298281295036" lon="8.218912352504628"><ele>50.0</ele><time>2026-05-02T11:07:30Z</time></trkpt><trkpt lat="40.82980824344303" lon="8.21857103402674"><ele>50.0</ele><time>2026-05-02T11:07:31Z</time></trkpt><trkpt lat="40.82978879237133" lon="8.218237636929981"><ele>50.0</ele><time>2026-05-02T11:07:32Z</time></trkpt><trkpt lat="40.829737445459294" lon="8.217900962402291"><ele>48.0</ele><time>2026-05-02T11:07:33Z</time></trkpt><trkpt lat="40.82971748104444" lon="8.21757527208008"><ele>46.0</ele><time>2026-05-02T11:07:34Z</time></trkpt><trkpt lat="40.82968687889918" lon="8.21727407251624"><ele>46.0</ele><time>2026-05-02T11:07:35Z</time></trkpt><trkpt lat="40.82965323472271" lon="8.216987686100511"><ele>46.0</ele><time>2026-05-02T11:07:36Z</time></trkpt><trkpt lat="40.82959526683286" lon="8.21672904301981"><ele>46.0</ele><time>2026-05-02T11:07:37Z</time></trkpt><trkpt lat="40.82949439924225" lon="8.21650219206799"><ele>47.0</ele><time>2026-05-02T11:07:38Z</time></trkpt><trkpt lat="40.82935252741458" lon="8.216292260233665"><ele>48.0</ele><time>2026-05-02T11:07:39Z</time></trkpt><trkpt lat="40.82919562519666" lon="8.2160841712839"><ele>49.0</ele><time>2026-05-02T11:07:40Z</time></trkpt><trkpt lat="40.82903906227052" lon="8.215861946590238"><ele>50.0</ele><time>2026-05-02T11:07:41Z</time></trkpt><trkpt lat="40.828882753893666" lon="8.215631885263445"><ele>51.0</ele><time>2026-05-02T11:07:42Z</time></trkpt><trkpt lat="40.82873835499411" lon="8.215414668457802"><ele>51.0</ele><time>2026-05-02T11:07:43Z</time></trkpt><trkpt lat="40.828607516313504" lon="8.215210751063527"><ele>51.0</ele><time>2026-05-02T11:07:44Z</time></trkpt><trkpt lat="40.82851146348204" lon="8.214999834949992"><ele>51.0</ele><time>2026-05-02T11:07:45Z</time></trkpt><trkpt lat="40.82845009797131" lon="8.214774194492579"><ele>50.66666666666667</ele><time>2026-05-02T11:07:46Z</time></trkpt><trkpt lat="40.82841765504014" lon="8.214523024485663"><ele>50.333333333333336</ele><time>2026-05-02T11:07:47Z</time></trkpt><trkpt lat="40.82838544801954" lon="8.214238082341453"><ele>50.0</ele><time>2026-05-02T11:07:48Z</time></trkpt><trkpt lat="40.828346059210375" lon="8.213933268793253"><ele>49.0</ele><time>2026-05-02T11:07:49Z</time></trkpt><trkpt lat="40.8283039230454" lon="8.213619061311297"><ele>48.0</ele><time>2026-05-02T11:07:50Z</time></trkpt><trkpt lat="40.82826038220474" lon="8.213313337784355"><ele>48.0</ele><time>2026-05-02T11:07:51Z</time></trkpt><trkpt lat="40.828222760671" lon="8.213026941238825"><ele>48.0</ele><time>2026-05-02T11:07:52Z</time></trkpt><trkpt lat="40.828177673100406" lon="8.21276433061656"><ele>48.0</ele><time>2026-05-02T11:07:53Z</time></trkpt><trkpt lat="40.828096807422824" lon="8.212527622879277"><ele>48.33333333333333</ele><time>2026-05-02T11:07:54Z</time></trkpt><trkpt lat="40.827965611080444" lon="8.212308194021805"><ele>48.666666666666664</ele><time>2026-05-02T11:07:55Z</time></trkpt><trkpt lat="40.827794914286194" lon="8.212125745954607"><ele>49.0</ele><time>2026-05-02T11:07:56Z</time></trkpt><trkpt lat="40.82760051561035" lon="8.211964293487126"><ele>49.0</ele><time>2026-05-02T11:07:57Z</time></trkpt><trkpt lat="40.827413710863624" lon="8.211789486886879"><ele>49.0</ele><time>2026-05-02T11:07:58Z</time></trkpt><trkpt lat="40.82723341909525" lon="8.211594067026622"><ele>49.5</ele><time>2026-05-02T11:07:59Z</time></trkpt><trkpt lat="40.827046933576625" lon="8.211394927763585"><ele>50.0</ele><time>2026-05-02T11:08:00Z</time></trkpt><trkpt lat="40.826861335939505" lon="8.2112035991657"><ele>50.5</ele><time>2026-05-02T11:08:01Z</time></trkpt><trkpt lat="40.82668600303162" lon="8.211013271555194"><ele>51.0</ele><time>2026-05-02T11:08:02Z</time></trkpt><trkpt lat="40.82650880843599" lon="8.210831284597733"><ele>51.66666666666667</ele><time>2026-05-02T11:08:03Z</time></trkpt><trkpt lat="40.82633980493357" lon="8.210650902872034"><ele>52.333333333333336</ele><time>2026-05-02T11:08:04Z</time></trkpt><trkpt lat="40.82617602677281" lon="8.210472451906197"><ele>53.0</ele><time>2026-05-02T11:08:05Z</time></trkpt><trkpt lat="40.82600829697852" lon="8.210306112924542"><ele>52.66666666666667</ele><time>2026-05-02T11:08:06Z</time></trkpt><trkpt lat="40.82584509289108" lon="8.210136892652333"><ele>52.33333333333333</ele><time>2026-05-02T11:08:07Z</time></trkpt><trkpt lat="40.82569091279398" lon="8.209967734901868"><ele>52.0</ele><time>2026-05-02T11:08:08Z</time></trkpt><trkpt lat="40.82552191186188" lon="8.20979446290202"><ele>51.666666666666664</ele><time>2026-05-02T11:08:09Z</time></trkpt><trkpt lat="40.825355224719104" lon="8.209606044963099"><ele>51.33333333333333</ele><time>2026-05-02T11:08:10Z</time></trkpt><trkpt lat="40.82520442150971" lon="8.209389112787251"><ele>51.0</ele><time>2026-05-02T11:08:11Z</time></trkpt><trkpt lat="40.82507009766618" lon="8.209143051995069"><ele>52.0</ele><time>2026-05-02T11:08:12Z</time></trkpt><trkpt lat="40.82494834607029" lon="8.208903552260313"><ele>53.0</ele><time>2026-05-02T11:08:13Z</time></trkpt><trkpt lat="40.82482971503293" lon="8.208648381641867"><ele>54.0</ele><time>2026-05-02T11:08:14Z</time></trkpt><trkpt lat="40.824720598072446" lon="8.208422193166527"><ele>54.0</ele><time>2026-05-02T11:08:14.999Z</time></trkpt><trkpt lat="40.82461377382921" lon="8.208208577537723"><ele>54.0</ele><time>2026-05-02T11:08:15.999Z</time></trkpt><trkpt lat="40.82450945920657" lon="8.208005253437053"><ele>54.0</ele><time>2026-05-02T11:08:16.999Z</time></trkpt><trkpt lat="40.824405924427225" lon="8.207802761179767"><ele>54.33333333333333</ele><time>2026-05-02T11:08:17.999Z</time></trkpt><trkpt lat="40.82431660378237" lon="8.207599856261197"><ele>54.666666666666664</ele><time>2026-05-02T11:08:18.999Z</time></trkpt><trkpt lat="40.824234943945896" lon="8.20740037545964"><ele>55.0</ele><time>2026-05-02T11:08:19.999Z</time></trkpt><trkpt lat="40.824176991493744" lon="8.207184065507175"><ele>55.0</ele><time>2026-05-02T11:08:20.999Z</time></trkpt><trkpt lat="40.82414078088958" lon="8.206942087494053"><ele>55.0</ele><time>2026-05-02T11:08:21.999Z</time></trkpt><trkpt lat="40.8241106142768" lon="8.206681363626213"><ele>55.0</ele><time>2026-05-02T11:08:22.999Z</time></trkpt><trkpt lat="40.82407145607351" lon="8.206414168959475"><ele>55.666666666666664</ele><time>2026-05-02T11:08:23.999Z</time></trkpt><trkpt lat="40.82402712302151" lon="8.206143997100721"><ele>56.33333333333333</ele><time>2026-05-02T11:08:24.999Z</time></trkpt><trkpt lat="40.82398876568166" lon="8.205877188737752"><ele>57.0</ele><time>2026-05-02T11:08:25.999Z</time></trkpt><trkpt lat="40.82395020197957" lon="8.20565311782508"><ele>57.66666666666667</ele><time>2026-05-02T11:08:26.999Z</time></trkpt><trkpt lat="40.823907288625776" lon="8.205411010389048"><ele>58.333333333333336</ele><time>2026-05-02T11:08:27.999Z</time></trkpt><trkpt lat="40.82386115960759" lon="8.205149315229278"><ele>59.0</ele><time>2026-05-02T11:08:28.999Z</time></trkpt><trkpt lat="40.823815723074894" lon="8.204874455472098"><ele>58.5</ele><time>2026-05-02T11:08:29.999Z</time></trkpt><trkpt lat="40.823769518884205" lon="8.204577998150192"><ele>58.0</ele><time>2026-05-02T11:08:30.999Z</time></trkpt><trkpt lat="40.82371398223366" lon="8.20427684329143"><ele>57.5</ele><time>2026-05-02T11:08:31.999Z</time></trkpt><trkpt lat="40.823660336485254" lon="8.203951755717858"><ele>57.0</ele><time>2026-05-02T11:08:32.999Z</time></trkpt><trkpt lat="40.82359805363235" lon="8.20361981943212"><ele>57.0</ele><time>2026-05-02T11:08:33.999Z</time></trkpt><trkpt lat="40.82353555162413" lon="8.203271681032245"><ele>57.0</ele><time>2026-05-02T11:08:34.999Z</time></trkpt><trkpt lat="40.82348059735873" lon="8.202921286460187"><ele>56.5</ele><time>2026-05-02T11:08:35.999Z</time></trkpt><trkpt lat="40.82342989651383" lon="8.202571298975332"><ele>56.0</ele><time>2026-05-02T11:08:36.999Z</time></trkpt><trkpt lat="40.823394462278365" lon="8.202240151458152"><ele>56.0</ele><time>2026-05-02T11:08:37.999Z</time></trkpt><trkpt lat="40.823344332681586" lon="8.201918078097053"><ele>56.0</ele><time>2026-05-02T11:08:38.999Z</time></trkpt><trkpt lat="40.82328965253827" lon="8.201603282034808"><ele>56.5</ele><time>2026-05-02T11:08:39.999Z</time></trkpt><trkpt lat="40.823237450512195" lon="8.201291964639664"><ele>57.0</ele><time>2026-05-02T11:08:40.999Z</time></trkpt><trkpt lat="40.82318837751673" lon="8.20098598345499"><ele>57.0</ele><time>2026-05-02T11:08:41.999Z</time></trkpt><trkpt lat="40.8231413586534" lon="8.200685935179129"><ele>57.0</ele><time>2026-05-02T11:08:42.999Z</time></trkpt><trkpt lat="40.82309262574127" lon="8.20040267010022"><ele>57.33333333333333</ele><time>2026-05-02T11:08:43.999Z</time></trkpt><trkpt lat="40.823038338643485" lon="8.200137271723856"><ele>57.666666666666664</ele><time>2026-05-02T11:08:44.999Z</time></trkpt><trkpt lat="40.82298733440345" lon="8.199858985350431"><ele>58.0</ele><time>2026-05-02T11:08:45.999Z</time></trkpt><trkpt lat="40.82291545837296" lon="8.199589466901"><ele>58.5</ele><time>2026-05-02T11:08:46.999Z</time></trkpt><trkpt lat="40.82281633766532" lon="8.1993107941206"><ele>59.0</ele><time>2026-05-02T11:08:47.999Z</time></trkpt><trkpt lat="40.82269224249926" lon="8.199039612354632"><ele>59.5</ele><time>2026-05-02T11:08:48.999Z</time></trkpt><trkpt lat="40.822546993808444" lon="8.198775610477925"><ele>60.0</ele><time>2026-05-02T11:08:49.999Z</time></trkpt><trkpt lat="40.82236740787168" lon="8.1985318047593"><ele>60.0</ele><time>2026-05-02T11:08:50.999Z</time></trkpt><trkpt lat="40.822164224373985" lon="8.198313427010175"><ele>60.0</ele><time>2026-05-02T11:08:51.999Z</time></trkpt><trkpt lat="40.821943300196864" lon="8.198139084306808"><ele>59.0</ele><time>2026-05-02T11:08:52.999Z</time></trkpt><trkpt lat="40.82170505071292" lon="8.19798378210025"><ele>58.0</ele><time>2026-05-02T11:08:53.999Z</time></trkpt><trkpt lat="40.821456121075705" lon="8.197875249232295"><ele>58.0</ele><time>2026-05-02T11:08:54.999Z</time></trkpt><trkpt lat="40.82120474702895" lon="8.197757225457636"><ele>58.0</ele><time>2026-05-02T11:08:55.999Z</time></trkpt><trkpt lat="40.820961635085794" lon="8.197640003514529"><ele>58.0</ele><time>2026-05-02T11:08:56.999Z</time></trkpt><trkpt lat="40.82073518967547" lon="8.197522949094822"><ele>58.0</ele><time>2026-05-02T11:08:57.999Z</time></trkpt><trkpt lat="40.82051054453529" lon="8.197425591508992"><ele>58.666666666666664</ele><time>2026-05-02T11:08:58.999Z</time></trkpt><trkpt lat="40.82029959057338" lon="8.197329533576637"><ele>59.33333333333333</ele><time>2026-05-02T11:08:59.999Z</time></trkpt><trkpt lat="40.820102597056376" lon="8.197234349460501"><ele>60.0</ele><time>2026-05-02T11:09:00.999Z</time></trkpt><trkpt lat="40.81990599021835" lon="8.197140577823323"><ele>60.66666666666667</ele><time>2026-05-02T11:09:01.999Z</time></trkpt><trkpt lat="40.81970920997847" lon="8.19704767373587"><ele>61.333333333333336</ele><time>2026-05-02T11:09:03Z</time></trkpt><trkpt lat="40.819525364668074" lon="8.196955827588534"><ele>62.0</ele><time>2026-05-02T11:09:04Z</time></trkpt><trkpt lat="40.81935411343604" lon="8.196875113217263"><ele>62.5</ele><time>2026-05-02T11:09:05Z</time></trkpt><trkpt lat="40.81920424277399" lon="8.196805066315825"><ele>63.0</ele><time>2026-05-02T11:09:06Z</time></trkpt><trkpt lat="40.81907197800588" lon="8.1967503429339"><ele>63.5</ele><time>2026-05-02T11:09:07Z</time></trkpt><trkpt lat="40.81894177893791" lon="8.196706981144777"><ele>64.0</ele><time>2026-05-02T11:09:08Z</time></trkpt><trkpt lat="40.81880157617973" lon="8.19667787063981"><ele>64.0</ele><time>2026-05-02T11:09:09Z</time></trkpt><trkpt lat="40.818646236946705" lon="8.19666564496024"><ele>64.0</ele><time>2026-05-02T11:09:10Z</time></trkpt><trkpt lat="40.818483498019596" lon="8.196668916979062"><ele>64.0</ele><time>2026-05-02T11:09:11Z</time></trkpt><trkpt lat="40.818314023019184" lon="8.196670631499005"><ele>63.666666666666664</ele><time>2026-05-02T11:09:12Z</time></trkpt><trkpt lat="40.81813790618858" lon="8.196674941054534"><ele>63.33333333333333</ele><time>2026-05-02T11:09:13Z</time></trkpt><trkpt lat="40.8179541244049" lon="8.196681593338178"><ele>63.0</ele><time>2026-05-02T11:09:14Z</time></trkpt><trkpt lat="40.81777096752934" lon="8.19669776823782"><ele>63.66666666666667</ele><time>2026-05-02T11:09:15Z</time></trkpt><trkpt lat="40.817588978190706" lon="8.196706118809775"><ele>64.33333333333334</ele><time>2026-05-02T11:09:16Z</time></trkpt><trkpt lat="40.817409114621405" lon="8.196714947866363"><ele>65.0</ele><time>2026-05-02T11:09:17Z</time></trkpt><trkpt lat="40.81723264263392" lon="8.196722355337897"><ele>65.0</ele><time>2026-05-02T11:09:18Z</time></trkpt><trkpt lat="40.817060150687894" lon="8.196730470895528"><ele>65.0</ele><time>2026-05-02T11:09:19Z</time></trkpt><trkpt lat="40.81688892548232" lon="8.196733315805666"><ele>65.0</ele><time>2026-05-02T11:09:20Z</time></trkpt><trkpt lat="40.8167214826749" lon="8.196730911451864"><ele>65.66666666666667</ele><time>2026-05-02T11:09:21Z</time></trkpt><trkpt lat="40.816552949832136" lon="8.19672118838731"><ele>66.33333333333333</ele><time>2026-05-02T11:09:22Z</time></trkpt><trkpt lat="40.816390577682355" lon="8.196654597945017"><ele>67.0</ele><time>2026-05-02T11:09:23Z</time></trkpt><trkpt lat="40.81622173373874" lon="8.196594881197997"><ele>67.0</ele><time>2026-05-02T11:09:24Z</time></trkpt><trkpt lat="40.816039410217826" lon="8.196530041259209"><ele>67.0</ele><time>2026-05-02T11:09:25Z</time></trkpt><trkpt lat="40.8158432433106" lon="8.1964741603372"><ele>67.0</ele><time>2026-05-02T11:09:26Z</time></trkpt><trkpt lat="40.81564349120055" lon="8.196400377606759"><ele>66.66666666666666</ele><time>2026-05-02T11:09:27Z</time></trkpt><trkpt lat="40.815427360397386" lon="8.19632951851439"><ele>66.33333333333333</ele><time>2026-05-02T11:09:28Z</time></trkpt><trkpt lat="40.81521082808446" lon="8.196255978521789"><ele>66.0</ele><time>2026-05-02T11:09:29Z</time></trkpt><trkpt lat="40.81499653241684" lon="8.196158703741734"><ele>66.0</ele><time>2026-05-02T11:09:30Z</time></trkpt><trkpt lat="40.81477776550879" lon="8.196080240116334"><ele>66.0</ele><time>2026-05-02T11:09:31Z</time></trkpt><trkpt lat="40.814528987687744" lon="8.195991303219143"><ele>67.66666666666667</ele><time>2026-05-02T11:09:32Z</time></trkpt><trkpt lat="40.814307225280785" lon="8.19591304773366"><ele>69.33333333333334</ele><time>2026-05-02T11:09:33Z</time></trkpt><trkpt lat="40.814103463700874" lon="8.195858957935247"><ele>71.0</ele><time>2026-05-02T11:09:34Z</time></trkpt><trkpt lat="40.81390161552213" lon="8.195782043091167"><ele>71.0</ele><time>2026-05-02T11:09:35Z</time></trkpt><trkpt lat="40.813696927331" lon="8.19570886489947"><ele>71.0</ele><time>2026-05-02T11:09:36Z</time></trkpt><trkpt lat="40.81349598678314" lon="8.19562606996483"><ele>71.0</ele><time>2026-05-02T11:09:37Z</time></trkpt><trkpt lat="40.813279951833714" lon="8.195584594178861"><ele>73.0</ele><time>2026-05-02T11:09:38Z</time></trkpt><trkpt lat="40.81306819208764" lon="8.195556698960457"><ele>75.0</ele><time>2026-05-02T11:09:39Z</time></trkpt><trkpt lat="40.81284055426008" lon="8.195540879875233"><ele>77.0</ele><time>2026-05-02T11:09:40Z</time></trkpt><trkpt lat="40.8126122150004" lon="8.195535639050537"><ele>78.5</ele><time>2026-05-02T11:09:41Z</time></trkpt><trkpt lat="40.81238206628022" lon="8.195530356695262"><ele>80.0</ele><time>2026-05-02T11:09:42Z</time></trkpt><trkpt lat="40.81214496887608" lon="8.195524914850775"><ele>80.0</ele><time>2026-05-02T11:09:43Z</time></trkpt><trkpt lat="40.8119053566764" lon="8.195520049081862"><ele>80.0</ele><time>2026-05-02T11:09:44Z</time></trkpt><trkpt lat="40.811666722970784" lon="8.195536238587732"><ele>80.5</ele><time>2026-05-02T11:09:45Z</time></trkpt><trkpt lat="40.81142457304145" lon="8.195509009751879"><ele>81.0</ele><time>2026-05-02T11:09:46Z</time></trkpt><trkpt lat="40.81118170525625" lon="8.195524693071299"><ele>82.0</ele><time>2026-05-02T11:09:47Z</time></trkpt><trkpt lat="40.810932838625725" lon="8.195497434799877"><ele>83.0</ele><time>2026-05-02T11:09:48Z</time></trkpt><trkpt lat="40.810692341812015" lon="8.19549008532202"><ele>83.0</ele><time>2026-05-02T11:09:49Z</time></trkpt><trkpt lat="40.81044593838894" lon="8.195482652691435"><ele>83.0</ele><time>2026-05-02T11:09:50Z</time></trkpt><trkpt lat="40.81019521747406" lon="8.195475600437778"><ele>85.5</ele><time>2026-05-02T11:09:51Z</time></trkpt><trkpt lat="40.80994817743471" lon="8.195468651722136"><ele>88.0</ele><time>2026-05-02T11:09:52Z</time></trkpt><trkpt lat="40.80970089928116" lon="8.195461697895349"><ele>88.0</ele><time>2026-05-02T11:09:53Z</time></trkpt><trkpt lat="40.80945490193364" lon="8.1954777702771"><ele>88.0</ele><time>2026-05-02T11:09:54Z</time></trkpt><trkpt lat="40.80922400055861" lon="8.195473052599603"><ele>91.33333333333333</ele><time>2026-05-02T11:09:55Z</time></trkpt><trkpt lat="40.80901409928274" lon="8.195466477637023"><ele>94.66666666666666</ele><time>2026-05-02T11:09:56Z</time></trkpt><trkpt lat="40.80880906992199" lon="8.195444006693144"><ele>98.0</ele><time>2026-05-02T11:09:57Z</time></trkpt><trkpt lat="40.80860735309122" lon="8.19544005745212"><ele>98.66666666666666</ele><time>2026-05-02T11:09:58Z</time></trkpt><trkpt lat="40.808396758908195" lon="8.195463792439515"><ele>99.33333333333334</ele><time>2026-05-02T11:09:59Z</time></trkpt><trkpt lat="40.80818700655478" lon="8.195463931404825"><ele>100.0</ele><time>2026-05-02T11:10:00Z</time></trkpt><trkpt lat="40.807966937990244" lon="8.195511696338468"><ele>100.0</ele><time>2026-05-02T11:10:01Z</time></trkpt><trkpt lat="40.807746003234186" lon="8.195548737821595"><ele>100.0</ele><time>2026-05-02T11:10:02Z</time></trkpt><trkpt lat="40.80752477871781" lon="8.195590660155085"><ele>100.0</ele><time>2026-05-02T11:10:03Z</time></trkpt><trkpt lat="40.80730820579825" lon="8.195646161516189"><ele>98.66666666666667</ele><time>2026-05-02T11:10:04Z</time></trkpt><trkpt lat="40.80711653673843" lon="8.195700560707902"><ele>97.33333333333334</ele><time>2026-05-02T11:10:05Z</time></trkpt><trkpt lat="40.80691508453737" lon="8.19575653450148"><ele>96.0</ele><time>2026-05-02T11:10:06Z</time></trkpt><trkpt lat="40.80671078474494" lon="8.195815595592721"><ele>96.0</ele><time>2026-05-02T11:10:07Z</time></trkpt><trkpt lat="40.80650372398217" lon="8.195873869335195"><ele>96.0</ele><time>2026-05-02T11:10:08Z</time></trkpt><trkpt lat="40.806295111311904" lon="8.195928535818046"><ele>96.0</ele><time>2026-05-02T11:10:09Z</time></trkpt><trkpt lat="40.806083469555254" lon="8.195977579673396"><ele>96.0</ele><time>2026-05-02T11:10:09.999Z</time></trkpt><trkpt lat="40.80586897350329" lon="8.196017682078756"><ele>96.0</ele><time>2026-05-02T11:10:10.999Z</time></trkpt><trkpt lat="40.80565103159698" lon="8.196042480164811"><ele>96.0</ele><time>2026-05-02T11:10:11.999Z</time></trkpt><trkpt lat="40.80543168829972" lon="8.196056653514702"><ele>96.0</ele><time>2026-05-02T11:10:12.999Z</time></trkpt><trkpt lat="40.80520837551676" lon="8.196070435985211"><ele>96.0</ele><time>2026-05-02T11:10:13.999Z</time></trkpt><trkpt lat="40.804999159280584" lon="8.196080712615862"><ele>96.0</ele><time>2026-05-02T11:10:14.999Z</time></trkpt><trkpt lat="40.804806645793946" lon="8.19609127257761"><ele>95.66666666666667</ele><time>2026-05-02T11:10:15.999Z</time></trkpt><trkpt lat="40.80462298311748" lon="8.196106769529893"><ele>95.33333333333334</ele><time>2026-05-02T11:10:16.999Z</time></trkpt><trkpt lat="40.804449973685045" lon="8.19611968580433"><ele>95.0</ele><time>2026-05-02T11:10:17.999Z</time></trkpt><trkpt lat="40.80428557505328" lon="8.196133004287239"><ele>95.0</ele><time>2026-05-02T11:10:18.999Z</time></trkpt><trkpt lat="40.804127443825884" lon="8.196156126196378"><ele>95.0</ele><time>2026-05-02T11:10:19.999Z</time></trkpt><trkpt lat="40.80397973548275" lon="8.196199979601781"><ele>95.0</ele><time>2026-05-02T11:10:20.999Z</time></trkpt><trkpt lat="40.803840884334996" lon="8.196286371361737"><ele>95.0</ele><time>2026-05-02T11:10:21.999Z</time></trkpt><trkpt lat="40.80370654962224" lon="8.196417643366889"><ele>95.0</ele><time>2026-05-02T11:10:22.999Z</time></trkpt><trkpt lat="40.803588966723275" lon="8.196595251072"><ele>95.0</ele><time>2026-05-02T11:10:23.999Z</time></trkpt><trkpt lat="40.80347571545082" lon="8.196778978522577"><ele>95.0</ele><time>2026-05-02T11:10:24.999Z</time></trkpt><trkpt lat="40.80337431343154" lon="8.196949499815387"><ele>95.0</ele><time>2026-05-02T11:10:25.999Z</time></trkpt><trkpt lat="40.80327879681264" lon="8.19710098871359"><ele>95.0</ele><time>2026-05-02T11:10:26.999Z</time></trkpt><trkpt lat="40.80319231311499" lon="8.197236263817338"><ele>95.0</ele><time>2026-05-02T11:10:27.999Z</time></trkpt><trkpt lat="40.80311832127842" lon="8.197351619190286"><ele>94.83333333333334</ele><time>2026-05-02T11:10:28.999Z</time></trkpt><trkpt lat="40.80306355398582" lon="8.197436564864162"><ele>94.66666666666667</ele><time>2026-05-02T11:10:29.999Z</time></trkpt><trkpt lat="40.80301097993259" lon="8.197519959144092"><ele>94.5</ele><time>2026-05-02T11:10:30.999Z</time></trkpt><trkpt lat="40.80295704133984" lon="8.197595693039279"><ele>94.33333333333333</ele><time>2026-05-02T11:10:31.999Z</time></trkpt><trkpt lat="40.80290579543882" lon="8.197671596265183"><ele>94.16666666666666</ele><time>2026-05-02T11:10:32.999Z</time></trkpt><trkpt lat="40.80285456234506" lon="8.197751431767726"><ele>94.0</ele><time>2026-05-02T11:10:33.999Z</time></trkpt><trkpt lat="40.80280748397056" lon="8.197842359070703"><ele>94.0</ele><time>2026-05-02T11:10:34.999Z</time></trkpt><trkpt lat="40.80274512164559" lon="8.197943284770897"><ele>94.0</ele><time>2026-05-02T11:10:35.999Z</time></trkpt><trkpt lat="40.802673610886536" lon="8.198048325162816"><ele>94.0</ele><time>2026-05-02T11:10:36.999Z</time></trkpt><trkpt lat="40.80259260294522" lon="8.198158564986688"><ele>94.0</ele><time>2026-05-02T11:10:37.999Z</time></trkpt><trkpt lat="40.80250394767691" lon="8.198282743986935"><ele>93.66666666666666</ele><time>2026-05-02T11:10:38.999Z</time></trkpt><trkpt lat="40.80240392713271" lon="8.198417681503214"><ele>93.33333333333333</ele><time>2026-05-02T11:10:39.999Z</time></trkpt><trkpt lat="40.80228989699639" lon="8.198560062305226"><ele>93.0</ele><time>2026-05-02T11:10:40.999Z</time></trkpt><trkpt lat="40.80215945025814" lon="8.198701768947767"><ele>93.0</ele><time>2026-05-02T11:10:41.999Z</time></trkpt><trkpt lat="40.80201363217128" lon="8.198840902985419"><ele>93.0</ele><time>2026-05-02T11:10:42.999Z</time></trkpt><trkpt lat="40.80185495073109" lon="8.19898577637867"><ele>93.0</ele><time>2026-05-02T11:10:43.999Z</time></trkpt><trkpt lat="40.80169507572797" lon="8.199122562028492"><ele>91.66666666666667</ele><time>2026-05-02T11:10:44.999Z</time></trkpt><trkpt lat="40.80151623799792" lon="8.199248907000413"><ele>90.33333333333334</ele><time>2026-05-02T11:10:45.999Z</time></trkpt><trkpt lat="40.80133059569847" lon="8.199368955530284"><ele>89.0</ele><time>2026-05-02T11:10:46.999Z</time></trkpt><trkpt lat="40.80113151267749" lon="8.19947781037782"><ele>88.66666666666667</ele><time>2026-05-02T11:10:47.999Z</time></trkpt><trkpt lat="40.8009293194751" lon="8.199568613965898"><ele>88.33333333333333</ele><time>2026-05-02T11:10:48.999Z</time></trkpt><trkpt lat="40.80072629980928" lon="8.19965436297551"><ele>88.0</ele><time>2026-05-02T11:10:49.999Z</time></trkpt><trkpt lat="40.800525927721345" lon="8.199740271066313"><ele>88.0</ele><time>2026-05-02T11:10:50.999Z</time></trkpt><trkpt lat="40.80032994017553" lon="8.199828503957702"><ele>88.0</ele><time>2026-05-02T11:10:51.999Z</time></trkpt><trkpt lat="40.800130017714" lon="8.199918176763205"><ele>88.0</ele><time>2026-05-02T11:10:52.999Z</time></trkpt><trkpt lat="40.79992250369301" lon="8.200004825942896"><ele>89.0</ele><time>2026-05-02T11:10:53.999Z</time></trkpt><trkpt lat="40.79975147926544" lon="8.20008989062678"><ele>90.0</ele><time>2026-05-02T11:10:54.999Z</time></trkpt><trkpt lat="40.79958617190877" lon="8.200153241240253"><ele>91.0</ele><time>2026-05-02T11:10:55.999Z</time></trkpt><trkpt lat="40.799418487402434" lon="8.200191176676594"><ele>92.66666666666666</ele><time>2026-05-02T11:10:56.999Z</time></trkpt><trkpt lat="40.79921966431885" lon="8.20016957606288"><ele>94.33333333333333</ele><time>2026-05-02T11:10:57.999Z</time></trkpt><trkpt lat="40.799037794395566" lon="8.200083417783429"><ele>96.0</ele><time>2026-05-02T11:10:58.999Z</time></trkpt><trkpt lat="40.79883403669154" lon="8.199980302290374"><ele>96.0</ele><time>2026-05-02T11:10:59.999Z</time></trkpt><trkpt lat="40.798625226148616" lon="8.199870353841076"><ele>96.0</ele><time>2026-05-02T11:11:00.999Z</time></trkpt><trkpt lat="40.79840141625578" lon="8.199784862898085"><ele>97.0</ele><time>2026-05-02T11:11:01.999Z</time></trkpt><trkpt lat="40.798176294165124" lon="8.199689011250294"><ele>98.0</ele><time>2026-05-02T11:11:02.999Z</time></trkpt><trkpt lat="40.79795094746986" lon="8.199588666940716"><ele>98.0</ele><time>2026-05-02T11:11:03.999Z</time></trkpt><trkpt lat="40.79772639035498" lon="8.199487160157648"><ele>98.0</ele><time>2026-05-02T11:11:04.999Z</time></trkpt><trkpt lat="40.79750127338912" lon="8.199386683306141"><ele>102.0</ele><time>2026-05-02T11:11:05.999Z</time></trkpt><trkpt lat="40.79727658159502" lon="8.19928960980412"><ele>106.0</ele><time>2026-05-02T11:11:06.999Z</time></trkpt><trkpt lat="40.79706647683713" lon="8.199202612429362"><ele>106.0</ele><time>2026-05-02T11:11:07.999Z</time></trkpt><trkpt lat="40.79685725864551" lon="8.199129485137053"><ele>106.0</ele><time>2026-05-02T11:11:09Z</time></trkpt><trkpt lat="40.79662379004139" lon="8.199088333700784"><ele>106.0</ele><time>2026-05-02T11:11:10Z</time></trkpt><trkpt lat="40.79637124405473" lon="8.199050651016952"><ele>106.0</ele><time>2026-05-02T11:11:11Z</time></trkpt><trkpt lat="40.79611026584966" lon="8.199007041735348"><ele>106.5</ele><time>2026-05-02T11:11:12Z</time></trkpt><trkpt lat="40.795840563073675" lon="8.198960225297885"><ele>107.0</ele><time>2026-05-02T11:11:13Z</time></trkpt><trkpt lat="40.79556792801923" lon="8.198912964067834"><ele>107.0</ele><time>2026-05-02T11:11:14Z</time></trkpt><trkpt lat="40.795298534622724" lon="8.198865095530822"><ele>107.0</ele><time>2026-05-02T11:11:15Z</time></trkpt><trkpt lat="40.7950360485709" lon="8.1988186966085"><ele>110.5</ele><time>2026-05-02T11:11:16Z</time></trkpt><trkpt lat="40.794780226253444" lon="8.198772560010456"><ele>114.0</ele><time>2026-05-02T11:11:17Z</time></trkpt><trkpt lat="40.79452819909288" lon="8.198729995113883"><ele>115.0</ele><time>2026-05-02T11:11:18Z</time></trkpt><trkpt lat="40.794283546148705" lon="8.198687398910058"><ele>116.0</ele><time>2026-05-02T11:11:19Z</time></trkpt><trkpt lat="40.794039177241736" lon="8.198640473528444"><ele>116.0</ele><time>2026-05-02T11:11:20Z</time></trkpt><trkpt lat="40.793807649153386" lon="8.198599483869007"><ele>116.0</ele><time>2026-05-02T11:11:21Z</time></trkpt><trkpt lat="40.79358826132577" lon="8.198555182680199"><ele>118.0</ele><time>2026-05-02T11:11:22Z</time></trkpt><trkpt lat="40.793378637732964" lon="8.198564561202327"><ele>120.0</ele><time>2026-05-02T11:11:23Z</time></trkpt><trkpt lat="40.79315657112053" lon="8.198581144558371"><ele>122.0</ele><time>2026-05-02T11:11:24Z</time></trkpt><trkpt lat="40.79298109493584" lon="8.198660130177718"><ele>122.0</ele><time>2026-05-02T11:11:25Z</time></trkpt><trkpt lat="40.7928205036461" lon="8.198835288492102"><ele>122.0</ele><time>2026-05-02T11:11:26Z</time></trkpt><trkpt lat="40.792665253785934" lon="8.199029173026487"><ele>122.0</ele><time>2026-05-02T11:11:27Z</time></trkpt><trkpt lat="40.79251035240316" lon="8.199227067717914"><ele>123.0</ele><time>2026-05-02T11:11:28Z</time></trkpt><trkpt lat="40.79235958607392" lon="8.199412884893649"><ele>124.0</ele><time>2026-05-02T11:11:29Z</time></trkpt><trkpt lat="40.79219930297075" lon="8.199585033468022"><ele>125.0</ele><time>2026-05-02T11:11:30Z</time></trkpt><trkpt lat="40.79200000215899" lon="8.199620791054128"><ele>125.0</ele><time>2026-05-02T11:11:31Z</time></trkpt><trkpt lat="40.79184491732314" lon="8.199681794644874"><ele>125.0</ele><time>2026-05-02T11:11:32Z</time></trkpt><trkpt lat="40.79166165733931" lon="8.199719704387542"><ele>125.0</ele><time>2026-05-02T11:11:33Z</time></trkpt><trkpt lat="40.79145876138861" lon="8.199771085496037"><ele>124.66666666666666</ele><time>2026-05-02T11:11:34Z</time></trkpt><trkpt lat="40.791245289936406" lon="8.199832877188395"><ele>124.33333333333334</ele><time>2026-05-02T11:11:35Z</time></trkpt><trkpt lat="40.79103828549516" lon="8.19989279082358"><ele>124.0</ele><time>2026-05-02T11:11:36Z</time></trkpt><trkpt lat="40.79082686534559" lon="8.199945016696592"><ele>122.0</ele><time>2026-05-02T11:11:37Z</time></trkpt><trkpt lat="40.79062123542424" lon="8.199997952577807"><ele>120.0</ele><time>2026-05-02T11:11:38Z</time></trkpt><trkpt lat="40.79043214237085" lon="8.200048809857371"><ele>118.0</ele><time>2026-05-02T11:11:39Z</time></trkpt><trkpt lat="40.790225038213066" lon="8.200107265467091"><ele>118.0</ele><time>2026-05-02T11:11:40Z</time></trkpt><trkpt lat="40.79000510477234" lon="8.20017292932935"><ele>118.0</ele><time>2026-05-02T11:11:41Z</time></trkpt><trkpt lat="40.78977688183514" lon="8.200227372033734"><ele>118.0</ele><time>2026-05-02T11:11:42Z</time></trkpt><trkpt lat="40.78954428472408" lon="8.200289321684247"><ele>118.0</ele><time>2026-05-02T11:11:43Z</time></trkpt><trkpt lat="40.78930998529855" lon="8.20035432125011"><ele>118.5</ele><time>2026-05-02T11:11:44Z</time></trkpt><trkpt lat="40.789078795244386" lon="8.200417460642068"><ele>119.0</ele><time>2026-05-02T11:11:45Z</time></trkpt><trkpt lat="40.788863662861964" lon="8.200476095127897"><ele>119.0</ele><time>2026-05-02T11:11:46Z</time></trkpt><trkpt lat="40.78866167004617" lon="8.200533433448593"><ele>119.0</ele><time>2026-05-02T11:11:47Z</time></trkpt><trkpt lat="40.78847241595334" lon="8.200586405843707"><ele>119.0</ele><time>2026-05-02T11:11:48Z</time></trkpt><trkpt lat="40.78828725712163" lon="8.200638698711474"><ele>120.33333333333333</ele><time>2026-05-02T11:11:49Z</time></trkpt><trkpt lat="40.78810539188762" lon="8.200691242843035"><ele>121.66666666666666</ele><time>2026-05-02T11:11:50Z</time></trkpt><trkpt lat="40.78792495626572" lon="8.200746429196116"><ele>123.0</ele><time>2026-05-02T11:11:50.999Z</time></trkpt><trkpt lat="40.787753276759794" lon="8.200797398715185"><ele>125.33333333333334</ele><time>2026-05-02T11:11:51.999Z</time></trkpt><trkpt lat="40.78759381961695" lon="8.200831358694046"><ele>127.66666666666667</ele><time>2026-05-02T11:11:52.999Z</time></trkpt><trkpt lat="40.7874218988312" lon="8.200809614835284"><ele>130.0</ele><time>2026-05-02T11:11:53.999Z</time></trkpt><trkpt lat="40.78723707478524" lon="8.200756212936566"><ele>130.0</ele><time>2026-05-02T11:11:54.999Z</time></trkpt><trkpt lat="40.78704656339974" lon="8.200672033919536"><ele>130.0</ele><time>2026-05-02T11:11:55.999Z</time></trkpt><trkpt lat="40.786847626967926" lon="8.200569077711517"><ele>130.0</ele><time>2026-05-02T11:11:56.999Z</time></trkpt><trkpt lat="40.78664315316527" lon="8.200483392465063"><ele>131.0</ele><time>2026-05-02T11:11:57.999Z</time></trkpt><trkpt lat="40.78643150563895" lon="8.200405896140037"><ele>132.0</ele><time>2026-05-02T11:11:58.999Z</time></trkpt><trkpt lat="40.786234823757354" lon="8.200326739300012"><ele>133.0</ele><time>2026-05-02T11:11:59.999Z</time></trkpt><trkpt lat="40.78606950471958" lon="8.200238456438269"><ele>133.33333333333334</ele><time>2026-05-02T11:12:00.999Z</time></trkpt><trkpt lat="40.785906373656246" lon="8.200131824436252"><ele>133.66666666666666</ele><time>2026-05-02T11:12:01.999Z</time></trkpt><trkpt lat="40.785762128459794" lon="8.199962353817428"><ele>134.0</ele><time>2026-05-02T11:12:02.999Z</time></trkpt><trkpt lat="40.785638702239225" lon="8.19973587099381"><ele>135.33333333333331</ele><time>2026-05-02T11:12:03.999Z</time></trkpt><trkpt lat="40.785511520264876" lon="8.199499955203017"><ele>136.66666666666666</ele><time>2026-05-02T11:12:04.999Z</time></trkpt><trkpt lat="40.78537757938924" lon="8.199268027063683"><ele>138.0</ele><time>2026-05-02T11:12:05.999Z</time></trkpt><trkpt lat="40.78524216474079" lon="8.199043362627208"><ele>138.0</ele><time>2026-05-02T11:12:06.999Z</time></trkpt><trkpt lat="40.785111214179246" lon="8.198822473414559"><ele>138.0</ele><time>2026-05-02T11:12:07.999Z</time></trkpt><trkpt lat="40.78498284882485" lon="8.198608473369138"><ele>138.0</ele><time>2026-05-02T11:12:08.999Z</time></trkpt><trkpt lat="40.78486204314501" lon="8.19838546967961"><ele>138.0</ele><time>2026-05-02T11:12:09.999Z</time></trkpt><trkpt lat="40.784733668805345" lon="8.198196023561149"><ele>138.0</ele><time>2026-05-02T11:12:10.999Z</time></trkpt><trkpt lat="40.78459286274453" lon="8.198035069747169"><ele>138.0</ele><time>2026-05-02T11:12:11.999Z</time></trkpt><trkpt lat="40.78442261723273" lon="8.197913289076615"><ele>140.0</ele><time>2026-05-02T11:12:12.999Z</time></trkpt><trkpt lat="40.78425751374785" lon="8.197848834730847"><ele>142.0</ele><time>2026-05-02T11:12:13.999Z</time></trkpt><trkpt lat="40.78409144937279" lon="8.1977933403664"><ele>144.0</ele><time>2026-05-02T11:12:14.999Z</time></trkpt><trkpt lat="40.78388591877643" lon="8.197656996406485"><ele>144.0</ele><time>2026-05-02T11:12:15.999Z</time></trkpt><trkpt lat="40.78368611114759" lon="8.19757132699747"><ele>144.0</ele><time>2026-05-02T11:12:16.999Z</time></trkpt><trkpt lat="40.783476031374484" lon="8.19747920894845"><ele>144.0</ele><time>2026-05-02T11:12:17.999Z</time></trkpt><trkpt lat="40.78325839460033" lon="8.197383583908483"><ele>146.5</ele><time>2026-05-02T11:12:18.999Z</time></trkpt><trkpt lat="40.7830422626839" lon="8.197293500192789"><ele>149.0</ele><time>2026-05-02T11:12:19.999Z</time></trkpt><trkpt lat="40.78282985480777" lon="8.19719861076564"><ele>149.66666666666666</ele><time>2026-05-02T11:12:20.999Z</time></trkpt><trkpt lat="40.782633799775645" lon="8.197114313485976"><ele>150.33333333333334</ele><time>2026-05-02T11:12:21.999Z</time></trkpt><trkpt lat="40.78245253361936" lon="8.197033719246248"><ele>151.0</ele><time>2026-05-02T11:12:22.999Z</time></trkpt><trkpt lat="40.78227452729318" lon="8.196920968219722"><ele>151.0</ele><time>2026-05-02T11:12:23.999Z</time></trkpt><trkpt lat="40.78208686103005" lon="8.196774377139214"><ele>151.0</ele><time>2026-05-02T11:12:24.999Z</time></trkpt><trkpt lat="40.78198719536731" lon="8.196552229396687"><ele>151.0</ele><time>2026-05-02T11:12:25.999Z</time></trkpt><trkpt lat="40.781880866965714" lon="8.196320391806326"><ele>151.66666666666669</ele><time>2026-05-02T11:12:26.999Z</time></trkpt><trkpt lat="40.78175833870656" lon="8.196091854544564"><ele>152.33333333333334</ele><time>2026-05-02T11:12:27.999Z</time></trkpt><trkpt lat="40.78162869839851" lon="8.195861315736096"><ele>153.0</ele><time>2026-05-02T11:12:28.999Z</time></trkpt><trkpt lat="40.781487940095374" lon="8.195627678615836"><ele>153.0</ele><time>2026-05-02T11:12:29.999Z</time></trkpt><trkpt lat="40.781346285731956" lon="8.195380210373758"><ele>153.0</ele><time>2026-05-02T11:12:30.999Z</time></trkpt><trkpt lat="40.78120334400613" lon="8.195139688869027"><ele>153.0</ele><time>2026-05-02T11:12:31.999Z</time></trkpt><trkpt lat="40.78106750364078" lon="8.19491379817479"><ele>153.0</ele><time>2026-05-02T11:12:32.999Z</time></trkpt><trkpt lat="40.78094252966622" lon="8.194696764219534"><ele>153.0</ele><time>2026-05-02T11:12:33.999Z</time></trkpt><trkpt lat="40.78081866399029" lon="8.194479414486958"><ele>150.33333333333334</ele><time>2026-05-02T11:12:34.999Z</time></trkpt><trkpt lat="40.780703817754215" lon="8.194259469837846"><ele>147.66666666666669</ele><time>2026-05-02T11:12:35.999Z</time></trkpt><trkpt lat="40.78062166462656" lon="8.194018674656988"><ele>145.0</ele><time>2026-05-02T11:12:36.999Z</time></trkpt><trkpt lat="40.780578893004424" lon="8.193755739267562"><ele>143.33333333333334</ele><time>2026-05-02T11:12:37.999Z</time></trkpt><trkpt lat="40.78056053897745" lon="8.193474143676108"><ele>141.66666666666666</ele><time>2026-05-02T11:12:38.999Z</time></trkpt><trkpt lat="40.78054936449663" lon="8.193197572982907"><ele>140.0</ele><time>2026-05-02T11:12:39.999Z</time></trkpt><trkpt lat="40.78053165849338" lon="8.192939013523889"><ele>138.0</ele><time>2026-05-02T11:12:40.999Z</time></trkpt><trkpt lat="40.78050909190082" lon="8.192711616279611"><ele>136.0</ele><time>2026-05-02T11:12:41.999Z</time></trkpt><trkpt lat="40.78047201035446" lon="8.192516766184383"><ele>134.0</ele><time>2026-05-02T11:12:42.999Z</time></trkpt><trkpt lat="40.780409381709624" lon="8.19232477128218"><ele>133.0</ele><time>2026-05-02T11:12:43.999Z</time></trkpt><trkpt lat="40.78030999073742" lon="8.192162052080775"><ele>132.0</ele><time>2026-05-02T11:12:44.999Z</time></trkpt><trkpt lat="40.78017150632982" lon="8.192045870233454"><ele>131.0</ele><time>2026-05-02T11:12:45.999Z</time></trkpt><trkpt lat="40.77996087460793" lon="8.192004903594535"><ele>131.0</ele><time>2026-05-02T11:12:46.999Z</time></trkpt><trkpt lat="40.779779600455115" lon="8.191929801908467"><ele>131.0</ele><time>2026-05-02T11:12:47.999Z</time></trkpt><trkpt lat="40.77959380564584" lon="8.191845909627828"><ele>131.0</ele><time>2026-05-02T11:12:48.999Z</time></trkpt><trkpt lat="40.779393015358984" lon="8.19177739451535"><ele>132.0</ele><time>2026-05-02T11:12:49.999Z</time></trkpt><trkpt lat="40.77917225720918" lon="8.191743941079404"><ele>133.0</ele><time>2026-05-02T11:12:50.999Z</time></trkpt><trkpt lat="40.778950626431275" lon="8.191726726652107"><ele>134.0</ele><time>2026-05-02T11:12:51.999Z</time></trkpt><trkpt lat="40.77873797679445" lon="8.191717910072596"><ele>134.0</ele><time>2026-05-02T11:12:52.999Z</time></trkpt><trkpt lat="40.77853992190147" lon="8.191703208390912"><ele>134.0</ele><time>2026-05-02T11:12:53.999Z</time></trkpt><trkpt lat="40.778347482184344" lon="8.191687669751794"><ele>134.0</ele><time>2026-05-02T11:12:54.999Z</time></trkpt><trkpt lat="40.77815067185464" lon="8.191675772642185"><ele>134.0</ele><time>2026-05-02T11:12:55.999Z</time></trkpt><trkpt lat="40.777952379895886" lon="8.191652369802728"><ele>134.0</ele><time>2026-05-02T11:12:56.999Z</time></trkpt><trkpt lat="40.77776064749825" lon="8.191608247898497"><ele>134.0</ele><time>2026-05-02T11:12:57.999Z</time></trkpt><trkpt lat="40.777571845788394" lon="8.19149967660042"><ele>134.0</ele><time>2026-05-02T11:12:58.999Z</time></trkpt><trkpt lat="40.77739239808563" lon="8.191361033067615"><ele>134.0</ele><time>2026-05-02T11:12:59.999Z</time></trkpt><trkpt lat="40.777231422096094" lon="8.191200210392596"><ele>134.0</ele><time>2026-05-02T11:13:00.999Z</time></trkpt><trkpt lat="40.77707386017109" lon="8.19105289666242"><ele>134.0</ele><time>2026-05-02T11:13:01.999Z</time></trkpt><trkpt lat="40.77690086604434" lon="8.190929440438373"><ele>134.0</ele><time>2026-05-02T11:13:02.999Z</time></trkpt><trkpt lat="40.77670480717764" lon="8.190846620756002"><ele>134.0</ele><time>2026-05-02T11:13:03.999Z</time></trkpt><trkpt lat="40.77649682493263" lon="8.19082803696428"><ele>136.0</ele><time>2026-05-02T11:13:04.999Z</time></trkpt><trkpt lat="40.776276859809315" lon="8.190814874167426"><ele>138.0</ele><time>2026-05-02T11:13:05.999Z</time></trkpt><trkpt lat="40.77603926095591" lon="8.190801954140944"><ele>139.5</ele><time>2026-05-02T11:13:06.999Z</time></trkpt><trkpt lat="40.77580352048342" lon="8.190778234200643"><ele>141.0</ele><time>2026-05-02T11:13:07.999Z</time></trkpt><trkpt lat="40.775567188007834" lon="8.190743159045587"><ele>141.0</ele><time>2026-05-02T11:13:08.999Z</time></trkpt><trkpt lat="40.77533432109012" lon="8.190727566308484"><ele>141.0</ele><time>2026-05-02T11:13:09.999Z</time></trkpt><trkpt lat="40.77510746021791" lon="8.19069110090814"><ele>142.33333333333334</ele><time>2026-05-02T11:13:10.999Z</time></trkpt><trkpt lat="40.77490381223058" lon="8.19067358298948"><ele>143.66666666666669</ele><time>2026-05-02T11:13:11.999Z</time></trkpt><trkpt lat="40.77471267217997" lon="8.19063137839099"><ele>145.0</ele><time>2026-05-02T11:13:12.999Z</time></trkpt><trkpt lat="40.77453720583436" lon="8.190541966663131"><ele>145.66666666666669</ele><time>2026-05-02T11:13:13.999Z</time></trkpt><trkpt lat="40.774352980058026" lon="8.190404879555551"><ele>146.33333333333334</ele><time>2026-05-02T11:13:15Z</time></trkpt><trkpt lat="40.77416706807211" lon="8.190257412168082"><ele>147.0</ele><time>2026-05-02T11:13:16Z</time></trkpt><trkpt lat="40.77398612182495" lon="8.190113908936558"><ele>147.0</ele><time>2026-05-02T11:13:17Z</time></trkpt><trkpt lat="40.77379509106203" lon="8.190008172600894"><ele>147.0</ele><time>2026-05-02T11:13:18Z</time></trkpt><trkpt lat="40.77360203483504" lon="8.189887746830387"><ele>147.0</ele><time>2026-05-02T11:13:19Z</time></trkpt><trkpt lat="40.773406106068656" lon="8.189749995710235"><ele>147.0</ele><time>2026-05-02T11:13:20Z</time></trkpt><trkpt lat="40.77322015539743" lon="8.189621042287886"><ele>147.0</ele><time>2026-05-02T11:13:21Z</time></trkpt><trkpt lat="40.7730522149504" lon="8.189502995333875"><ele>147.0</ele><time>2026-05-02T11:13:22Z</time></trkpt><trkpt lat="40.772896008316984" lon="8.189391216055418"><ele>147.0</ele><time>2026-05-02T11:13:23Z</time></trkpt><trkpt lat="40.772737268262446" lon="8.189304489238431"><ele>147.0</ele><time>2026-05-02T11:13:24Z</time></trkpt><trkpt lat="40.77256869339575" lon="8.189240863632708"><ele>147.0</ele><time>2026-05-02T11:13:25Z</time></trkpt><trkpt lat="40.77238610536461" lon="8.189224263873609"><ele>148.66666666666666</ele><time>2026-05-02T11:13:26Z</time></trkpt><trkpt lat="40.77218583700766" lon="8.189233992559078"><ele>150.33333333333331</ele><time>2026-05-02T11:13:27Z</time></trkpt><trkpt lat="40.77197916397889" lon="8.189236116002512"><ele>152.0</ele><time>2026-05-02T11:13:28Z</time></trkpt><trkpt lat="40.771770392006296" lon="8.18923787588078"><ele>153.66666666666666</ele><time>2026-05-02T11:13:29Z</time></trkpt><trkpt lat="40.77154358963057" lon="8.189219604724018"><ele>155.33333333333334</ele><time>2026-05-02T11:13:30Z</time></trkpt><trkpt lat="40.77132358841672" lon="8.189209750740787"><ele>157.0</ele><time>2026-05-02T11:13:31Z</time></trkpt><trkpt lat="40.77109786123032" lon="8.189228894772908"><ele>156.0</ele><time>2026-05-02T11:13:32Z</time></trkpt><trkpt lat="40.77087140742445" lon="8.189290677658153"><ele>155.0</ele><time>2026-05-02T11:13:33Z</time></trkpt><trkpt lat="40.77065415344257" lon="8.189394308867469"><ele>155.0</ele><time>2026-05-02T11:13:34Z</time></trkpt><trkpt lat="40.770447648702955" lon="8.189518011447182"><ele>155.0</ele><time>2026-05-02T11:13:35Z</time></trkpt><trkpt lat="40.77022120134431" lon="8.189635169777883"><ele>154.5</ele><time>2026-05-02T11:13:36Z</time></trkpt><trkpt lat="40.769996093824055" lon="8.189743316219477"><ele>154.0</ele><time>2026-05-02T11:13:37Z</time></trkpt><trkpt lat="40.769772640248476" lon="8.18984672051329"><ele>154.0</ele><time>2026-05-02T11:13:38Z</time></trkpt><trkpt lat="40.76954906621652" lon="8.189951848621877"><ele>154.0</ele><time>2026-05-02T11:13:39Z</time></trkpt><trkpt lat="40.769329811580945" lon="8.190056563170454"><ele>157.0</ele><time>2026-05-02T11:13:40Z</time></trkpt><trkpt lat="40.76910222614939" lon="8.190157981044539"><ele>160.0</ele><time>2026-05-02T11:13:41Z</time></trkpt><trkpt lat="40.76887551649007" lon="8.190252687743174"><ele>160.0</ele><time>2026-05-02T11:13:42Z</time></trkpt><trkpt lat="40.76865853581673" lon="8.190335550516409"><ele>160.0</ele><time>2026-05-02T11:13:43Z</time></trkpt><trkpt lat="40.768457692931605" lon="8.190407100919732"><ele>160.0</ele><time>2026-05-02T11:13:44Z</time></trkpt><trkpt lat="40.76826960813681" lon="8.19048941789879"><ele>162.0</ele><time>2026-05-02T11:13:45Z</time></trkpt><trkpt lat="40.76808598441436" lon="8.190585910482106"><ele>164.0</ele><time>2026-05-02T11:13:46Z</time></trkpt><trkpt lat="40.76788079753691" lon="8.190639037282908"><ele>166.0</ele><time>2026-05-02T11:13:47Z</time></trkpt><trkpt lat="40.76771668223996" lon="8.1907329150644"><ele>166.66666666666669</ele><time>2026-05-02T11:13:48Z</time></trkpt><trkpt lat="40.767579295977804" lon="8.190863764892278"><ele>167.33333333333334</ele><time>2026-05-02T11:13:49Z</time></trkpt><trkpt lat="40.76746111387207" lon="8.191041069609321"><ele>168.0</ele><time>2026-05-02T11:13:50Z</time></trkpt><trkpt lat="40.767354425269424" lon="8.19123811698198"><ele>168.0</ele><time>2026-05-02T11:13:51Z</time></trkpt><trkpt lat="40.76726107961204" lon="8.191444321091467"><ele>168.0</ele><time>2026-05-02T11:13:52Z</time></trkpt><trkpt lat="40.767167549614754" lon="8.191661624605825"><ele>168.0</ele><time>2026-05-02T11:13:53Z</time></trkpt><trkpt lat="40.767063500534626" lon="8.191881083146598"><ele>168.33333333333334</ele><time>2026-05-02T11:13:54Z</time></trkpt><trkpt lat="40.76695108030507" lon="8.192095217377819"><ele>168.66666666666669</ele><time>2026-05-02T11:13:55Z</time></trkpt><trkpt lat="40.766835040420425" lon="8.19232139408141"><ele>169.0</ele><time>2026-05-02T11:13:56Z</time></trkpt><trkpt lat="40.766711689502486" lon="8.192554344074786"><ele>167.0</ele><time>2026-05-02T11:13:57Z</time></trkpt><trkpt lat="40.76659271835792" lon="8.192792627685902"><ele>165.0</ele><time>2026-05-02T11:13:58Z</time></trkpt><trkpt lat="40.76647004904403" lon="8.193036894889397"><ele>163.0</ele><time>2026-05-02T11:13:59Z</time></trkpt><trkpt lat="40.76635579584131" lon="8.193272836656446"><ele>159.33333333333334</ele><time>2026-05-02T11:14:00Z</time></trkpt><trkpt lat="40.76624866216885" lon="8.19349359555642"><ele>155.66666666666666</ele><time>2026-05-02T11:14:01Z</time></trkpt><trkpt lat="40.766145070595094" lon="8.193706348628151"><ele>152.0</ele><time>2026-05-02T11:14:02Z</time></trkpt><trkpt lat="40.76603787398259" lon="8.193905267633557"><ele>149.0</ele><time>2026-05-02T11:14:03Z</time></trkpt><trkpt lat="40.76591437889786" lon="8.194096359645286"><ele>146.0</ele><time>2026-05-02T11:14:04Z</time></trkpt><trkpt lat="40.765756732973614" lon="8.19426944879765"><ele>143.0</ele><time>2026-05-02T11:14:05Z</time></trkpt><trkpt lat="40.76557018586251" lon="8.19444262363894"><ele>143.0</ele><time>2026-05-02T11:14:06Z</time></trkpt><trkpt lat="40.765370833704154" lon="8.194624970350702"><ele>143.0</ele><time>2026-05-02T11:14:07Z</time></trkpt><trkpt lat="40.76517180260552" lon="8.194818218367175"><ele>137.5</ele><time>2026-05-02T11:14:08Z</time></trkpt><trkpt lat="40.7649694035668" lon="8.195018454154985"><ele>132.0</ele><time>2026-05-02T11:14:09Z</time></trkpt><trkpt lat="40.76476337750248" lon="8.195222452818411"><ele>132.0</ele><time>2026-05-02T11:14:10Z</time></trkpt><trkpt lat="40.76455754995753" lon="8.195425871614106"><ele>132.0</ele><time>2026-05-02T11:14:11Z</time></trkpt><trkpt lat="40.76436157819876" lon="8.19561787761581"><ele>128.0</ele><time>2026-05-02T11:14:12Z</time></trkpt><trkpt lat="40.76417687232807" lon="8.19579892696654"><ele>124.0</ele><time>2026-05-02T11:14:13Z</time></trkpt><trkpt lat="40.76399815935642" lon="8.195974050561327"><ele>124.0</ele><time>2026-05-02T11:14:14Z</time></trkpt><trkpt lat="40.76383065099594" lon="8.19614317098468"><ele>124.0</ele><time>2026-05-02T11:14:15Z</time></trkpt><trkpt lat="40.76367862931423" lon="8.196295199710418"><ele>124.0</ele><time>2026-05-02T11:14:16Z</time></trkpt><trkpt lat="40.763528468059285" lon="8.196419337184969"><ele>123.33333333333334</ele><time>2026-05-02T11:14:17Z</time></trkpt><trkpt lat="40.76336721101369" lon="8.196489573055471"><ele>122.66666666666666</ele><time>2026-05-02T11:14:18Z</time></trkpt><trkpt lat="40.763188916725305" lon="8.19648938304439"><ele>122.0</ele><time>2026-05-02T11:14:19Z</time></trkpt><trkpt lat="40.76301125560224" lon="8.196477866120794"><ele>122.0</ele><time>2026-05-02T11:14:20Z</time></trkpt><trkpt lat="40.7628294226869" lon="8.196499053412522"><ele>122.0</ele><time>2026-05-02T11:14:21Z</time></trkpt><trkpt lat="40.76266107832231" lon="8.196560224742088"><ele>122.0</ele><time>2026-05-02T11:14:22Z</time></trkpt><trkpt lat="40.76249388836768" lon="8.196680731308064"><ele>121.33333333333333</ele><time>2026-05-02T11:14:23Z</time></trkpt><trkpt lat="40.76232671198576" lon="8.196840675091849"><ele>120.66666666666666</ele><time>2026-05-02T11:14:24Z</time></trkpt><trkpt lat="40.7621579841325" lon="8.197027279062274"><ele>120.0</ele><time>2026-05-02T11:14:25Z</time></trkpt><trkpt lat="40.76197788414618" lon="8.197217017107995"><ele>119.0</ele><time>2026-05-02T11:14:26Z</time></trkpt><trkpt lat="40.76180083534491" lon="8.197411743154035"><ele>118.0</ele><time>2026-05-02T11:14:27Z</time></trkpt><trkpt lat="40.76163196627935" lon="8.197629769587452"><ele>118.0</ele><time>2026-05-02T11:14:27.999Z</time></trkpt><trkpt lat="40.761486887026855" lon="8.197874634695548"><ele>118.0</ele><time>2026-05-02T11:14:28.999Z</time></trkpt><trkpt lat="40.76135981594119" lon="8.19811215144991"><ele>117.33333333333334</ele><time>2026-05-02T11:14:29.999Z</time></trkpt><trkpt lat="40.76124751441365" lon="8.198337571844132"><ele>116.66666666666666</ele><time>2026-05-02T11:14:30.999Z</time></trkpt><trkpt lat="40.761137941701044" lon="8.19856104378033"><ele>116.0</ele><time>2026-05-02T11:14:31.999Z</time></trkpt><trkpt lat="40.76101972729544" lon="8.198784724870684"><ele>115.33333333333333</ele><time>2026-05-02T11:14:32.999Z</time></trkpt><trkpt lat="40.760906229854314" lon="8.198995756578071"><ele>114.66666666666666</ele><time>2026-05-02T11:14:33.999Z</time></trkpt><trkpt lat="40.76080200401121" lon="8.19919148123232"><ele>114.0</ele><time>2026-05-02T11:14:34.999Z</time></trkpt><trkpt lat="40.760707496359956" lon="8.199371955782656"><ele>113.75</ele><time>2026-05-02T11:14:35.999Z</time></trkpt><trkpt lat="40.76061833639187" lon="8.19953348171244"><ele>113.5</ele><time>2026-05-02T11:14:36.999Z</time></trkpt><trkpt lat="40.76052613732598" lon="8.199671028425604"><ele>113.25</ele><time>2026-05-02T11:14:37.999Z</time></trkpt><trkpt lat="40.76041389022181" lon="8.19974089344707"><ele>113.0</ele><time>2026-05-02T11:14:38.999Z</time></trkpt><trkpt lat="40.76031003382787" lon="8.199797350271375"><ele>112.25</ele><time>2026-05-02T11:14:39.999Z</time></trkpt><trkpt lat="40.76019620065424" lon="8.199737604996923"><ele>111.5</ele><time>2026-05-02T11:14:40.999Z</time></trkpt><trkpt lat="40.76008440429478" lon="8.199645782750858"><ele>110.75</ele><time>2026-05-02T11:14:41.999Z</time></trkpt><trkpt lat="40.75995445712204" lon="8.199536697737592"><ele>110.0</ele><time>2026-05-02T11:14:42.999Z</time></trkpt><trkpt lat="40.75980925082603" lon="8.1994148652502"><ele>110.0</ele><time>2026-05-02T11:14:43.999Z</time></trkpt><trkpt lat="40.759647292184155" lon="8.19929331177619"><ele>110.0</ele><time>2026-05-02T11:14:44.999Z</time></trkpt><trkpt lat="40.75948048444472" lon="8.199157672552913"><ele>110.0</ele><time>2026-05-02T11:14:45.999Z</time></trkpt><trkpt lat="40.759307684997694" lon="8.199007585484647"><ele>111.0</ele><time>2026-05-02T11:14:46.999Z</time></trkpt><trkpt lat="40.759122074661796" lon="8.198858660536986"><ele>112.0</ele><time>2026-05-02T11:14:47.999Z</time></trkpt><trkpt lat="40.75893638885572" lon="8.198699048017968"><ele>113.0</ele><time>2026-05-02T11:14:48.999Z</time></trkpt><trkpt lat="40.75875415833029" lon="8.198546727839565"><ele>113.0</ele><time>2026-05-02T11:14:49.999Z</time></trkpt><trkpt lat="40.75858115222335" lon="8.198405175469404"><ele>113.0</ele><time>2026-05-02T11:14:50.999Z</time></trkpt><trkpt lat="40.75842614082884" lon="8.198274839407787"><ele>113.0</ele><time>2026-05-02T11:14:51.999Z</time></trkpt><trkpt lat="40.75827691428008" lon="8.198146765670563"><ele>113.66666666666666</ele><time>2026-05-02T11:14:52.999Z</time></trkpt><trkpt lat="40.75812524690315" lon="8.198021015831202"><ele>114.33333333333334</ele><time>2026-05-02T11:14:53.999Z</time></trkpt><trkpt lat="40.75797320879021" lon="8.197897694559417"><ele>115.0</ele><time>2026-05-02T11:14:54.999Z</time></trkpt><trkpt lat="40.75782277572535" lon="8.197774512774641"><ele>115.33333333333334</ele><time>2026-05-02T11:14:55.999Z</time></trkpt><trkpt lat="40.75767484096304" lon="8.197650027059755"><ele>115.66666666666666</ele><time>2026-05-02T11:14:56.999Z</time></trkpt><trkpt lat="40.75752793263595" lon="8.197525900210962"><ele>116.0</ele><time>2026-05-02T11:14:57.999Z</time></trkpt><trkpt lat="40.75738006568471" lon="8.197397980421263"><ele>116.33333333333333</ele><time>2026-05-02T11:14:58.999Z</time></trkpt><trkpt lat="40.75722673147856" lon="8.197270347247933"><ele>116.66666666666666</ele><time>2026-05-02T11:14:59.999Z</time></trkpt><trkpt lat="40.75707039441193" lon="8.197142268264054"><ele>117.0</ele><time>2026-05-02T11:15:00.999Z</time></trkpt><trkpt lat="40.75690961253525" lon="8.197006448470082"><ele>118.0</ele><time>2026-05-02T11:15:01.999Z</time></trkpt><trkpt lat="40.75674712051413" lon="8.196868333786828"><ele>119.0</ele><time>2026-05-02T11:15:02.999Z</time></trkpt><trkpt lat="40.75657879462163" lon="8.196726323961917"><ele>120.0</ele><time>2026-05-02T11:15:03.999Z</time></trkpt><trkpt lat="40.75640684686375" lon="8.196567982458212"><ele>120.33333333333334</ele><time>2026-05-02T11:15:04.999Z</time></trkpt><trkpt lat="40.75623689860026" lon="8.196385418797622"><ele>120.66666666666667</ele><time>2026-05-02T11:15:05.999Z</time></trkpt><trkpt lat="40.75607043498967" lon="8.196186705267746"><ele>121.0</ele><time>2026-05-02T11:15:06.999Z</time></trkpt><trkpt lat="40.75589996778633" lon="8.195981629007104"><ele>121.0</ele><time>2026-05-02T11:15:07.999Z</time></trkpt><trkpt lat="40.75572575582406" lon="8.195781223359145"><ele>121.0</ele><time>2026-05-02T11:15:08.999Z</time></trkpt><trkpt lat="40.755552096414924" lon="8.195581254867948"><ele>122.0</ele><time>2026-05-02T11:15:09.999Z</time></trkpt><trkpt lat="40.7553823454797" lon="8.195379447043942"><ele>123.0</ele><time>2026-05-02T11:15:10.999Z</time></trkpt><trkpt lat="40.75521441152479" lon="8.195176224245762"><ele>123.5</ele><time>2026-05-02T11:15:11.999Z</time></trkpt><trkpt lat="40.7550465154933" lon="8.194972911186351"><ele>124.0</ele><time>2026-05-02T11:15:12.999Z</time></trkpt><trkpt lat="40.75488126559968" lon="8.1947722679152"><ele>124.66666666666667</ele><time>2026-05-02T11:15:13.999Z</time></trkpt><trkpt lat="40.75471745111043" lon="8.194577365507891"><ele>125.33333333333334</ele><time>2026-05-02T11:15:14.999Z</time></trkpt><trkpt lat="40.75455639395999" lon="8.194381812411224"><ele>126.0</ele><time>2026-05-02T11:15:15.999Z</time></trkpt><trkpt lat="40.75439816445217" lon="8.194188393107272"><ele>127.33333333333334</ele><time>2026-05-02T11:15:16.999Z</time></trkpt><trkpt lat="40.75424351797232" lon="8.194018247393148"><ele>128.66666666666669</ele><time>2026-05-02T11:15:17.999Z</time></trkpt><trkpt lat="40.754089656391194" lon="8.193835082503384"><ele>130.0</ele><time>2026-05-02T11:15:18.999Z</time></trkpt><trkpt lat="40.75393030437887" lon="8.193658801915202"><ele>130.33333333333334</ele><time>2026-05-02T11:15:19.999Z</time></trkpt><trkpt lat="40.75376633160788" lon="8.1934889051916"><ele>130.66666666666666</ele><time>2026-05-02T11:15:21Z</time></trkpt><trkpt lat="40.75360276932825" lon="8.193321187397277"><ele>131.0</ele><time>2026-05-02T11:15:22Z</time></trkpt><trkpt lat="40.753437064379334" lon="8.193161282634835"><ele>132.33333333333331</ele><time>2026-05-02T11:15:23Z</time></trkpt><trkpt lat="40.753276207137326" lon="8.193006527408919"><ele>133.66666666666666</ele><time>2026-05-02T11:15:24Z</time></trkpt><trkpt lat="40.7531259388768" lon="8.192861392035772"><ele>135.0</ele><time>2026-05-02T11:15:25Z</time></trkpt><trkpt lat="40.75298044449918" lon="8.192723753981221"><ele>135.0</ele><time>2026-05-02T11:15:26Z</time></trkpt><trkpt lat="40.752834519652986" lon="8.192587796109025"><ele>135.0</ele><time>2026-05-02T11:15:27Z</time></trkpt><trkpt lat="40.752688426492554" lon="8.192451793338947"><ele>135.0</ele><time>2026-05-02T11:15:28Z</time></trkpt><trkpt lat="40.75254488297991" lon="8.19231458168779"><ele>134.33333333333334</ele><time>2026-05-02T11:15:29Z</time></trkpt><trkpt lat="40.752401065112494" lon="8.192177874433535"><ele>133.66666666666669</ele><time>2026-05-02T11:15:30Z</time></trkpt><trkpt lat="40.75225825355387" lon="8.192039930954266"><ele>133.0</ele><time>2026-05-02T11:15:31Z</time></trkpt><trkpt lat="40.75211259904628" lon="8.191902508372138"><ele>133.0</ele><time>2026-05-02T11:15:32Z</time></trkpt><trkpt lat="40.751966697870785" lon="8.191764175662774"><ele>133.0</ele><time>2026-05-02T11:15:33Z</time></trkpt><trkpt lat="40.75182027412188" lon="8.1916247017244"><ele>133.0</ele><time>2026-05-02T11:15:34Z</time></trkpt><trkpt lat="40.75167328959635" lon="8.191485706312646"><ele>134.0</ele><time>2026-05-02T11:15:35Z</time></trkpt><trkpt lat="40.75152739325632" lon="8.191346265753477"><ele>135.0</ele><time>2026-05-02T11:15:36Z</time></trkpt><trkpt lat="40.751383815784166" lon="8.191205002899874"><ele>136.0</ele><time>2026-05-02T11:15:37Z</time></trkpt><trkpt lat="40.75124080727195" lon="8.191066507618956"><ele>136.0</ele><time>2026-05-02T11:15:38Z</time></trkpt><trkpt lat="40.75109825917029" lon="8.190930619519605"><ele>136.0</ele><time>2026-05-02T11:15:39Z</time></trkpt><trkpt lat="40.75095551792511" lon="8.190797670782873"><ele>136.0</ele><time>2026-05-02T11:15:40Z</time></trkpt><trkpt lat="40.75081350563252" lon="8.190666308209886"><ele>136.0</ele><time>2026-05-02T11:15:41Z</time></trkpt><trkpt lat="40.75068010107037" lon="8.190538066268296"><ele>136.0</ele><time>2026-05-02T11:15:42Z</time></trkpt><trkpt lat="40.75056178681002" lon="8.190420190399909"><ele>136.0</ele><time>2026-05-02T11:15:43Z</time></trkpt><trkpt lat="40.7504542849083" lon="8.190313084789002"><ele>136.0</ele><time>2026-05-02T11:15:44Z</time></trkpt><trkpt lat="40.750356599822645" lon="8.190216217420902"><ele>136.0</ele><time>2026-05-02T11:15:45Z</time></trkpt><trkpt lat="40.750268417025836" lon="8.190128825138885"><ele>136.0</ele><time>2026-05-02T11:15:46Z</time></trkpt><trkpt lat="40.75019057697092" lon="8.19005254853224"><ele>136.0</ele><time>2026-05-02T11:15:47Z</time></trkpt><trkpt lat="40.750123030586515" lon="8.18998365440608"><ele>136.0</ele><time>2026-05-02T11:15:48Z</time></trkpt><trkpt lat="40.75006908073172" lon="8.189925271610148"><ele>136.0</ele><time>2026-05-02T11:15:49Z</time></trkpt><trkpt lat="40.74998749593361" lon="8.189848567591115"><ele>136.0</ele><time>2026-05-02T11:15:51Z</time></trkpt><trkpt lat="40.74993082390618" lon="8.189799260475125"><ele>136.0</ele><time>2026-05-02T11:15:53Z</time></trkpt><trkpt lat="40.74986761833014" lon="8.189733227763634"><ele>136.0</ele><time>2026-05-02T11:17:31Z</time></trkpt><trkpt lat="40.749803352904195" lon="8.189692384203967"><ele>136.0</ele><time>2026-05-02T11:17:33Z</time></trkpt><trkpt lat="40.749718209757226" lon="8.189615357072572"><ele>136.0</ele><time>2026-05-02T11:17:35Z</time></trkpt><trkpt lat="40.749623823706564" lon="8.189524266849801"><ele>136.0</ele><time>2026-05-02T11:17:37Z</time></trkpt><trkpt lat="40.749530609742436" lon="8.189416401881857"><ele>136.0</ele><time>2026-05-02T11:17:39Z</time></trkpt><trkpt lat="40.74942945710557" lon="8.189319901188764"><ele>136.0</ele><time>2026-05-02T11:17:41Z</time></trkpt><trkpt lat="40.74936967951002" lon="8.189285041088919"><ele>136.0</ele><time>2026-05-02T11:17:42Z</time></trkpt><trkpt lat="40.74931602413412" lon="8.189230142395456"><ele>136.0</ele><time>2026-05-02T11:17:43Z</time></trkpt><trkpt lat="40.74925661868341" lon="8.189173146409228"><ele>136.0</ele><time>2026-05-02T11:17:44Z</time></trkpt><trkpt lat="40.74919525540568" lon="8.189109766891068"><ele>136.0</ele><time>2026-05-02T11:17:45Z</time></trkpt><trkpt lat="40.74913112452956" lon="8.189042738452326"><ele>136.0</ele><time>2026-05-02T11:17:46Z</time></trkpt><trkpt lat="40.74906336378197" lon="8.188974718055546"><ele>136.0</ele><time>2026-05-02T11:17:47Z</time></trkpt><trkpt lat="40.74899178722107" lon="8.188903818961146"><ele>136.0</ele><time>2026-05-02T11:17:48Z</time></trkpt><trkpt lat="40.74892019443273" lon="8.188826634666082"><ele>136.0</ele><time>2026-05-02T11:17:49Z</time></trkpt><trkpt lat="40.74886730582371" lon="8.188723362789887"><ele>136.0</ele><time>2026-05-02T11:17:50Z</time></trkpt><trkpt lat="40.748805483658856" lon="8.18863083247013"><ele>136.0</ele><time>2026-05-02T11:17:51Z</time></trkpt><trkpt lat="40.74874944775888" lon="8.188539554757641"><ele>136.0</ele><time>2026-05-02T11:17:52Z</time></trkpt><trkpt lat="40.74870267066058" lon="8.188453747036792"><ele>136.0</ele><time>2026-05-02T11:17:53Z</time></trkpt><trkpt lat="40.74865036803125" lon="8.188385861512216"><ele>136.0</ele><time>2026-05-02T11:17:55Z</time></trkpt><trkpt lat="40.748513946279424" lon="8.188516094608008"><ele>136.0</ele><time>2026-05-02T11:17:56Z</time></trkpt><trkpt lat="40.748479202397085" lon="8.188588113438692"><ele>136.16666666666669</ele><time>2026-05-02T11:17:57Z</time></trkpt><trkpt lat="40.748439252744156" lon="8.18867582193558"><ele>136.33333333333334</ele><time>2026-05-02T11:17:58Z</time></trkpt><trkpt lat="40.74839157420373" lon="8.188764172529106"><ele>136.5</ele><time>2026-05-02T11:17:59Z</time></trkpt><trkpt lat="40.74834034712059" lon="8.18885512858742"><ele>136.66666666666666</ele><time>2026-05-02T11:18:00Z</time></trkpt><trkpt lat="40.74828244707176" lon="8.188952730339599"><ele>136.83333333333331</ele><time>2026-05-02T11:18:01Z</time></trkpt><trkpt lat="40.74822423113742" lon="8.189060987345075"><ele>137.0</ele><time>2026-05-02T11:18:02Z</time></trkpt><trkpt lat="40.74816215229612" lon="8.189179190866234"><ele>137.0</ele><time>2026-05-02T11:18:03Z</time></trkpt><trkpt lat="40.748097256497296" lon="8.1893004775715"><ele>137.0</ele><time>2026-05-02T11:18:04Z</time></trkpt><trkpt lat="40.748025726668665" lon="8.189424141146377"><ele>137.0</ele><time>2026-05-02T11:18:05Z</time></trkpt><trkpt lat="40.74794268589767" lon="8.189540311932815"><ele>137.0</ele><time>2026-05-02T11:18:06Z</time></trkpt><trkpt lat="40.74784157907734" lon="8.18963148539406"><ele>137.0</ele><time>2026-05-02T11:18:07Z</time></trkpt><trkpt lat="40.747756517947" lon="8.189748286143626"><ele>137.0</ele><time>2026-05-02T11:18:08Z</time></trkpt><trkpt lat="40.747666578608424" lon="8.189846578111666"><ele>137.0</ele><time>2026-05-02T11:18:09Z</time></trkpt><trkpt lat="40.74757782212039" lon="8.18994268889241"><ele>137.0</ele><time>2026-05-02T11:18:10Z</time></trkpt><trkpt lat="40.747487353648985" lon="8.190040552811745"><ele>138.0</ele><time>2026-05-02T11:18:11Z</time></trkpt><trkpt lat="40.747385402334274" lon="8.190117685893004"><ele>139.0</ele><time>2026-05-02T11:18:12Z</time></trkpt><trkpt lat="40.74730721786185" lon="8.190231636437613"><ele>140.0</ele><time>2026-05-02T11:18:13Z</time></trkpt><trkpt lat="40.74720808595717" lon="8.19031217512453"><ele>141.0</ele><time>2026-05-02T11:18:14Z</time></trkpt><trkpt lat="40.74712949984286" lon="8.190425374415451"><ele>141.0</ele><time>2026-05-02T11:18:15Z</time></trkpt><trkpt lat="40.74704083509113" lon="8.190519775457437"><ele>141.0</ele><time>2026-05-02T11:18:16Z</time></trkpt><trkpt lat="40.74695203617304" lon="8.190611989888898"><ele>141.0</ele><time>2026-05-02T11:18:17Z</time></trkpt><trkpt lat="40.746865066992136" lon="8.190705346800401"><ele>141.0</ele><time>2026-05-02T11:18:18Z</time></trkpt><trkpt lat="40.74677977346517" lon="8.190799055390736"><ele>142.0</ele><time>2026-05-02T11:18:19Z</time></trkpt><trkpt lat="40.74669505614682" lon="8.190892102520223"><ele>143.0</ele><time>2026-05-02T11:18:20Z</time></trkpt><trkpt lat="40.746609695145054" lon="8.190983654005558"><ele>144.0</ele><time>2026-05-02T11:18:21Z</time></trkpt><trkpt lat="40.7465252901009" lon="8.191075329570378"><ele>145.0</ele><time>2026-05-02T11:18:22Z</time></trkpt><trkpt lat="40.74643632986677" lon="8.191168057582138"><ele>146.0</ele><time>2026-05-02T11:18:23Z</time></trkpt><trkpt lat="40.74634884014355" lon="8.191263906899636"><ele>146.0</ele><time>2026-05-02T11:18:24Z</time></trkpt><trkpt lat="40.74626077549609" lon="8.191363172610156"><ele>146.0</ele><time>2026-05-02T11:18:25Z</time></trkpt><trkpt lat="40.746169378531654" lon="8.191462102416665"><ele>146.0</ele><time>2026-05-02T11:18:26Z</time></trkpt><trkpt lat="40.746077169715306" lon="8.191558433852384"><ele>146.0</ele><time>2026-05-02T11:18:27Z</time></trkpt><trkpt lat="40.745987790084236" lon="8.191655045777738"><ele>145.5</ele><time>2026-05-02T11:18:28Z</time></trkpt><trkpt lat="40.74590112395699" lon="8.191753659371505"><ele>145.0</ele><time>2026-05-02T11:18:29Z</time></trkpt><trkpt lat="40.74580640662081" lon="8.19184321022107"><ele>144.5</ele><time>2026-05-02T11:18:30Z</time></trkpt><trkpt lat="40.74572800135239" lon="8.191956804289632"><ele>144.0</ele><time>2026-05-02T11:18:31Z</time></trkpt><trkpt lat="40.745653875012025" lon="8.192079040387831"><ele>144.0</ele><time>2026-05-02T11:18:32Z</time></trkpt><trkpt lat="40.74558146791106" lon="8.192203190353482"><ele>144.0</ele><time>2026-05-02T11:18:33Z</time></trkpt><trkpt lat="40.745523724456746" lon="8.192341970381262"><ele>144.0</ele><time>2026-05-02T11:18:34Z</time></trkpt><trkpt lat="40.74545138204622" lon="8.192467146888305"><ele>144.0</ele><time>2026-05-02T11:18:34.999Z</time></trkpt><trkpt lat="40.745381641474474" lon="8.192594001373418"><ele>144.0</ele><time>2026-05-02T11:18:35.999Z</time></trkpt><trkpt lat="40.745314359620735" lon="8.192720774817394"><ele>144.0</ele><time>2026-05-02T11:18:36.999Z</time></trkpt><trkpt lat="40.74525346226985" lon="8.192844119084631"><ele>144.0</ele><time>2026-05-02T11:18:37.999Z</time></trkpt><trkpt lat="40.745210358092436" lon="8.192978816903434"><ele>144.0</ele><time>2026-05-02T11:18:38.999Z</time></trkpt><trkpt lat="40.745188091771944" lon="8.193119694753005"><ele>144.0</ele><time>2026-05-02T11:18:39.999Z</time></trkpt><trkpt lat="40.74520802255936" lon="8.193252268521103"><ele>142.5</ele><time>2026-05-02T11:18:40.999Z</time></trkpt><trkpt lat="40.74526092258647" lon="8.193387819009638"><ele>141.0</ele><time>2026-05-02T11:18:41.999Z</time></trkpt><trkpt lat="40.74531854055138" lon="8.193533731932522"><ele>139.5</ele><time>2026-05-02T11:18:42.999Z</time></trkpt><trkpt lat="40.7453576301654" lon="8.193682574858581"><ele>138.0</ele><time>2026-05-02T11:18:43.999Z</time></trkpt><trkpt lat="40.74540913429883" lon="8.193832036596337"><ele>138.0</ele><time>2026-05-02T11:18:44.999Z</time></trkpt><trkpt lat="40.74545761049786" lon="8.193983209732778"><ele>138.0</ele><time>2026-05-02T11:18:45.999Z</time></trkpt><trkpt lat="40.74548802208673" lon="8.194134785559873"><ele>138.0</ele><time>2026-05-02T11:18:46.999Z</time></trkpt><trkpt lat="40.74549605807554" lon="8.19429435049345"><ele>138.0</ele><time>2026-05-02T11:18:47.999Z</time></trkpt><trkpt lat="40.745484602378774" lon="8.194457151995213"><ele>138.0</ele><time>2026-05-02T11:18:48.999Z</time></trkpt><trkpt lat="40.74546280849654" lon="8.194634859409886"><ele>138.0</ele><time>2026-05-02T11:18:49.999Z</time></trkpt><trkpt lat="40.745450711274394" lon="8.194823376612277"><ele>138.0</ele><time>2026-05-02T11:18:50.999Z</time></trkpt><trkpt lat="40.74541389477601" lon="8.195023338928701"><ele>138.0</ele><time>2026-05-02T11:18:51.999Z</time></trkpt><trkpt lat="40.74537319539446" lon="8.19523239174668"><ele>138.0</ele><time>2026-05-02T11:18:52.999Z</time></trkpt><trkpt lat="40.74533399866887" lon="8.195455169240153"><ele>138.0</ele><time>2026-05-02T11:18:53.999Z</time></trkpt><trkpt lat="40.74530322705499" lon="8.195684220257295"><ele>138.0</ele><time>2026-05-02T11:18:54.999Z</time></trkpt><trkpt lat="40.74532199363831" lon="8.195909311617296"><ele>138.0</ele><time>2026-05-02T11:18:55.999Z</time></trkpt><trkpt lat="40.74539656791423" lon="8.19614063761996"><ele>138.0</ele><time>2026-05-02T11:18:56.999Z</time></trkpt><trkpt lat="40.745428829460565" lon="8.196379277499766"><ele>138.0</ele><time>2026-05-02T11:18:57.999Z</time></trkpt><trkpt lat="40.74545837140631" lon="8.196618010324617"><ele>139.33333333333334</ele><time>2026-05-02T11:18:58.999Z</time></trkpt><trkpt lat="40.745499662948326" lon="8.196848714784549"><ele>140.66666666666669</ele><time>2026-05-02T11:18:59.999Z</time></trkpt><trkpt lat="40.74557443999743" lon="8.197057800949477"><ele>142.0</ele><time>2026-05-02T11:19:00.999Z</time></trkpt><trkpt lat="40.745672370807455" lon="8.19724589042449"><ele>143.33333333333334</ele><time>2026-05-02T11:19:01.999Z</time></trkpt><trkpt lat="40.745768405142265" lon="8.197431481913014"><ele>144.66666666666666</ele><time>2026-05-02T11:19:02.999Z</time></trkpt><trkpt lat="40.745858416202694" lon="8.197627070997108"><ele>146.0</ele><time>2026-05-02T11:19:03.999Z</time></trkpt><trkpt lat="40.745916083751865" lon="8.197828845535433"><ele>146.0</ele><time>2026-05-02T11:19:04.999Z</time></trkpt><trkpt lat="40.745947474733185" lon="8.198046236201959"><ele>146.0</ele><time>2026-05-02T11:19:05.999Z</time></trkpt><trkpt lat="40.74597682697855" lon="8.19826683721045"><ele>146.0</ele><time>2026-05-02T11:19:06.999Z</time></trkpt><trkpt lat="40.746001141598164" lon="8.198492514626277"><ele>146.66666666666666</ele><time>2026-05-02T11:19:07.999Z</time></trkpt><trkpt lat="40.74601503542015" lon="8.198716973628166"><ele>147.33333333333334</ele><time>2026-05-02T11:19:08.999Z</time></trkpt><trkpt lat="40.74600771934015" lon="8.198943134298363"><ele>148.0</ele><time>2026-05-02T11:19:09.999Z</time></trkpt><trkpt lat="40.74599092916267" lon="8.199180707517634"><ele>148.0</ele><time>2026-05-02T11:19:10.999Z</time></trkpt><trkpt lat="40.74597046450823" lon="8.199435938117148"><ele>148.0</ele><time>2026-05-02T11:19:11.999Z</time></trkpt><trkpt lat="40.74594927892702" lon="8.199698506617889"><ele>148.0</ele><time>2026-05-02T11:19:12.999Z</time></trkpt><trkpt lat="40.745931798278676" lon="8.199958905650046"><ele>146.33333333333334</ele><time>2026-05-02T11:19:13.999Z</time></trkpt><trkpt lat="40.74593649133378" lon="8.20019715719385"><ele>144.66666666666666</ele><time>2026-05-02T11:19:14.999Z</time></trkpt><trkpt lat="40.745936180299324" lon="8.200421487611944"><ele>143.0</ele><time>2026-05-02T11:19:15.999Z</time></trkpt><trkpt lat="40.745993420039206" lon="8.20062124251686"><ele>140.66666666666666</ele><time>2026-05-02T11:19:16.999Z</time></trkpt><trkpt lat="40.74606423227941" lon="8.200805903057084"><ele>138.33333333333334</ele><time>2026-05-02T11:19:17.999Z</time></trkpt><trkpt lat="40.74617238078634" lon="8.200995605307067"><ele>136.0</ele><time>2026-05-02T11:19:18.999Z</time></trkpt><trkpt lat="40.74628220998216" lon="8.201198223313657"><ele>136.0</ele><time>2026-05-02T11:19:19.999Z</time></trkpt><trkpt lat="40.7463869591752" lon="8.20140687403323"><ele>136.0</ele><time>2026-05-02T11:19:20.999Z</time></trkpt><trkpt lat="40.746476273304275" lon="8.201609463858938"><ele>136.0</ele><time>2026-05-02T11:19:21.999Z</time></trkpt><trkpt lat="40.746514196802" lon="8.20181944594435"><ele>135.66666666666669</ele><time>2026-05-02T11:19:22.999Z</time></trkpt><trkpt lat="40.74650193503813" lon="8.20201599552599"><ele>135.33333333333334</ele><time>2026-05-02T11:19:23.999Z</time></trkpt><trkpt lat="40.746465044129565" lon="8.202204372896738"><ele>135.0</ele><time>2026-05-02T11:19:24.999Z</time></trkpt><trkpt lat="40.746409117597686" lon="8.202425358437424"><ele>135.0</ele><time>2026-05-02T11:19:25.999Z</time></trkpt><trkpt lat="40.74635246716285" lon="8.202662044349422"><ele>135.0</ele><time>2026-05-02T11:19:26.999Z</time></trkpt><trkpt lat="40.7462908569048" lon="8.202919452176205"><ele>135.0</ele><time>2026-05-02T11:19:27.999Z</time></trkpt><trkpt lat="40.74622956381232" lon="8.203175534930416"><ele>136.33333333333334</ele><time>2026-05-02T11:19:28.999Z</time></trkpt><trkpt lat="40.74618190645232" lon="8.203438858294465"><ele>137.66666666666669</ele><time>2026-05-02T11:19:29.999Z</time></trkpt><trkpt lat="40.74611443503974" lon="8.203702597131905"><ele>139.0</ele><time>2026-05-02T11:19:30.999Z</time></trkpt><trkpt lat="40.746056337303926" lon="8.203971213718612"><ele>140.0</ele><time>2026-05-02T11:19:31.999Z</time></trkpt><trkpt lat="40.745990230781146" lon="8.204226665808527"><ele>141.0</ele><time>2026-05-02T11:19:33Z</time></trkpt><trkpt lat="40.74593080628331" lon="8.204470876382333"><ele>142.0</ele><time>2026-05-02T11:19:34Z</time></trkpt><trkpt lat="40.745856586511536" lon="8.204709719857162"><ele>142.0</ele><time>2026-05-02T11:19:35Z</time></trkpt><trkpt lat="40.745792730476225" lon="8.204922410567997"><ele>142.0</ele><time>2026-05-02T11:19:36Z</time></trkpt><trkpt lat="40.74570150487712" lon="8.205100819035065"><ele>142.0</ele><time>2026-05-02T11:19:37Z</time></trkpt><trkpt lat="40.74559908533325" lon="8.205277684344695"><ele>142.0</ele><time>2026-05-02T11:19:38Z</time></trkpt><trkpt lat="40.745501640845205" lon="8.20544595839965"><ele>142.0</ele><time>2026-05-02T11:19:39Z</time></trkpt><trkpt lat="40.7454362315237" lon="8.205586493250712"><ele>142.0</ele><time>2026-05-02T11:19:40Z</time></trkpt><trkpt lat="40.74536778065838" lon="8.205655773406066"><ele>142.0</ele><time>2026-05-02T11:19:41Z</time></trkpt><trkpt lat="40.7452918026967" lon="8.205670751760938"><ele>142.0</ele><time>2026-05-02T11:19:42Z</time></trkpt><trkpt lat="40.74519898660465" lon="8.205564252968836"><ele>141.5</ele><time>2026-05-02T11:19:43Z</time></trkpt><trkpt lat="40.74506807884301" lon="8.20559096738829"><ele>141.0</ele><time>2026-05-02T11:19:44Z</time></trkpt><trkpt lat="40.74493062631625" lon="8.205653788638669"><ele>140.5</ele><time>2026-05-02T11:19:45Z</time></trkpt><trkpt lat="40.744774014235354" lon="8.205726791044848"><ele>140.0</ele><time>2026-05-02T11:19:46Z</time></trkpt><trkpt lat="40.74460361353082" lon="8.205780101251982"><ele>139.0</ele><time>2026-05-02T11:19:47Z</time></trkpt><trkpt lat="40.74443835587996" lon="8.205847392939223"><ele>138.0</ele><time>2026-05-02T11:19:48Z</time></trkpt><trkpt lat="40.74427121023885" lon="8.205915453420209"><ele>137.0</ele><time>2026-05-02T11:19:49Z</time></trkpt><trkpt lat="40.744107315433986" lon="8.20598249700419"><ele>137.0</ele><time>2026-05-02T11:19:50Z</time></trkpt><trkpt lat="40.74394508430903" lon="8.206048949077699"><ele>137.0</ele><time>2026-05-02T11:19:51Z</time></trkpt><trkpt lat="40.743788567030656" lon="8.206113060670145"><ele>137.0</ele><time>2026-05-02T11:19:52Z</time></trkpt><trkpt lat="40.74363689082081" lon="8.206173963521149"><ele>139.0</ele><time>2026-05-02T11:19:53Z</time></trkpt><trkpt lat="40.743487540110145" lon="8.206224969836612"><ele>141.0</ele><time>2026-05-02T11:19:54Z</time></trkpt><trkpt lat="40.74333776179516" lon="8.206267367924497"><ele>143.0</ele><time>2026-05-02T11:19:55Z</time></trkpt><trkpt lat="40.74318555536175" lon="8.206300945784132"><ele>143.0</ele><time>2026-05-02T11:19:56Z</time></trkpt><trkpt lat="40.743032659519564" lon="8.2063309164068"><ele>143.0</ele><time>2026-05-02T11:19:57Z</time></trkpt><trkpt lat="40.742878707551114" lon="8.20636053671533"><ele>143.0</ele><time>2026-05-02T11:19:58Z</time></trkpt><trkpt lat="40.742726794839804" lon="8.206411884962769"><ele>143.33333333333331</ele><time>2026-05-02T11:19:59Z</time></trkpt><trkpt lat="40.74256857048173" lon="8.206420208607186"><ele>143.66666666666666</ele><time>2026-05-02T11:20:00Z</time></trkpt><trkpt lat="40.742412262488976" lon="8.20645028222669"><ele>144.0</ele><time>2026-05-02T11:20:01Z</time></trkpt><trkpt lat="40.74225871890354" lon="8.206502901249497"><ele>143.0</ele><time>2026-05-02T11:20:02Z</time></trkpt><trkpt lat="40.74209869310263" lon="8.206533640205093"><ele>142.0</ele><time>2026-05-02T11:20:03Z</time></trkpt><trkpt lat="40.7419363840552" lon="8.206563152033514"><ele>141.0</ele><time>2026-05-02T11:20:04Z</time></trkpt><trkpt lat="40.74177500933724" lon="8.206595951829016"><ele>141.0</ele><time>2026-05-02T11:20:05Z</time></trkpt><trkpt lat="40.741610751123396" lon="8.206607565160441"><ele>141.0</ele><time>2026-05-02T11:20:06Z</time></trkpt><trkpt lat="40.741447496130135" lon="8.206638863434891"><ele>141.0</ele><time>2026-05-02T11:20:07Z</time></trkpt><trkpt lat="40.74128170938726" lon="8.20667245686554"><ele>141.0</ele><time>2026-05-02T11:20:08Z</time></trkpt><trkpt lat="40.74111309314588" lon="8.2067052868447"><ele>141.0</ele><time>2026-05-02T11:20:09Z</time></trkpt><trkpt lat="40.7409366270139" lon="8.206739625008998"><ele>141.0</ele><time>2026-05-02T11:20:10Z</time></trkpt><trkpt lat="40.74075495562043" lon="8.20678098180333"><ele>141.0</ele><time>2026-05-02T11:20:11Z</time></trkpt><trkpt lat="40.740570209109336" lon="8.206839047802552"><ele>141.0</ele><time>2026-05-02T11:20:12Z</time></trkpt><trkpt lat="40.740382590418264" lon="8.206906000916431"><ele>141.0</ele><time>2026-05-02T11:20:13Z</time></trkpt><trkpt lat="40.74019219048357" lon="8.206997296885161"><ele>140.66666666666666</ele><time>2026-05-02T11:20:14Z</time></trkpt><trkpt lat="40.73998778729373" lon="8.207050549326523"><ele>140.33333333333331</ele><time>2026-05-02T11:20:15Z</time></trkpt><trkpt lat="40.73979089237031" lon="8.207145136857932"><ele>140.0</ele><time>2026-05-02T11:20:16Z</time></trkpt><trkpt lat="40.739583017129156" lon="8.207222141463818"><ele>140.33333333333331</ele><time>2026-05-02T11:20:17Z</time></trkpt><trkpt lat="40.73937465977031" lon="8.207299268220783"><ele>140.66666666666666</ele><time>2026-05-02T11:20:18Z</time></trkpt><trkpt lat="40.73916740191819" lon="8.207374185191025"><ele>141.0</ele><time>2026-05-02T11:20:19Z</time></trkpt><trkpt lat="40.73895087553498" lon="8.207452850448588"><ele>139.33333333333334</ele><time>2026-05-02T11:20:20Z</time></trkpt><trkpt lat="40.7387386652871" lon="8.207532108841999"><ele>137.66666666666669</ele><time>2026-05-02T11:20:21Z</time></trkpt><trkpt lat="40.7385205552477" lon="8.20761026151773"><ele>136.0</ele><time>2026-05-02T11:20:22Z</time></trkpt><trkpt lat="40.73831693369151" lon="8.207687189264146"><ele>136.0</ele><time>2026-05-02T11:20:23Z</time></trkpt><trkpt lat="40.738125139258166" lon="8.207768810832"><ele>136.0</ele><time>2026-05-02T11:20:24Z</time></trkpt><trkpt lat="40.7379344988192" lon="8.20783774070113"><ele>136.0</ele><time>2026-05-02T11:20:25Z</time></trkpt><trkpt lat="40.73775353340843" lon="8.207955706863546"><ele>136.0</ele><time>2026-05-02T11:20:26Z</time></trkpt><trkpt lat="40.73759364013223" lon="8.208108795081277"><ele>136.0</ele><time>2026-05-02T11:20:27Z</time></trkpt><trkpt lat="40.737438003614486" lon="8.20827807035854"><ele>136.0</ele><time>2026-05-02T11:20:28Z</time></trkpt><trkpt lat="40.737285588480006" lon="8.208466339129625"><ele>134.66666666666669</ele><time>2026-05-02T11:20:29Z</time></trkpt><trkpt lat="40.737130643083674" lon="8.20865465815554"><ele>133.33333333333334</ele><time>2026-05-02T11:20:30Z</time></trkpt><trkpt lat="40.736961391878594" lon="8.208831530204236"><ele>132.0</ele><time>2026-05-02T11:20:31Z</time></trkpt><trkpt lat="40.73680827091858" lon="8.209044847713493"><ele>131.33333333333334</ele><time>2026-05-02T11:20:32Z</time></trkpt><trkpt lat="40.736632777366694" lon="8.209227986272744"><ele>130.66666666666669</ele><time>2026-05-02T11:20:33Z</time></trkpt><trkpt lat="40.73646823348419" lon="8.20942317444769"><ele>130.0</ele><time>2026-05-02T11:20:34Z</time></trkpt><trkpt lat="40.73631492640773" lon="8.209634601895925"><ele>130.0</ele><time>2026-05-02T11:20:35Z</time></trkpt><trkpt lat="40.73614174528039" lon="8.209814605122098"><ele>130.0</ele><time>2026-05-02T11:20:36Z</time></trkpt><trkpt lat="40.735973602047764" lon="8.210008393117889"><ele>130.0</ele><time>2026-05-02T11:20:37Z</time></trkpt><trkpt lat="40.73580459833228" lon="8.2101850882997"><ele>132.5</ele><time>2026-05-02T11:20:38Z</time></trkpt><trkpt lat="40.735617760748475" lon="8.210360288641883"><ele>135.0</ele><time>2026-05-02T11:20:39Z</time></trkpt><trkpt lat="40.735420530744456" lon="8.210525529259186"><ele>134.33333333333334</ele><time>2026-05-02T11:20:40Z</time></trkpt><trkpt lat="40.73522279515361" lon="8.21068021984642"><ele>133.66666666666669</ele><time>2026-05-02T11:20:41Z</time></trkpt><trkpt lat="40.735037098219806" lon="8.21082068976369"><ele>133.0</ele><time>2026-05-02T11:20:42Z</time></trkpt><trkpt lat="40.73486383094941" lon="8.210950348126833"><ele>134.66666666666669</ele><time>2026-05-02T11:20:43Z</time></trkpt><trkpt lat="40.73470526305652" lon="8.211075220561206"><ele>136.33333333333334</ele><time>2026-05-02T11:20:44Z</time></trkpt><trkpt lat="40.73456633637725" lon="8.211223478737548"><ele>138.0</ele><time>2026-05-02T11:20:45Z</time></trkpt><trkpt lat="40.73441627523797" lon="8.211376799823384"><ele>137.0</ele><time>2026-05-02T11:20:46Z</time></trkpt><trkpt lat="40.73426321208981" lon="8.211545601554155"><ele>136.0</ele><time>2026-05-02T11:20:47Z</time></trkpt><trkpt lat="40.73408688637503" lon="8.211705869124074"><ele>135.0</ele><time>2026-05-02T11:20:48Z</time></trkpt><trkpt lat="40.733926090405184" lon="8.21191198028636"><ele>135.0</ele><time>2026-05-02T11:20:49Z</time></trkpt><trkpt lat="40.73375654686585" lon="8.212106689873574"><ele>135.0</ele><time>2026-05-02T11:20:50Z</time></trkpt><trkpt lat="40.73359711181917" lon="8.212316749350506"><ele>134.0</ele><time>2026-05-02T11:20:51Z</time></trkpt><trkpt lat="40.733446059489935" lon="8.21252955727895"><ele>133.0</ele><time>2026-05-02T11:20:51.999Z</time></trkpt><trkpt lat="40.73329815300175" lon="8.212745695033512"><ele>132.0</ele><time>2026-05-02T11:20:52.999Z</time></trkpt><trkpt lat="40.73315746203823" lon="8.212957502833461"><ele>131.66666666666666</ele><time>2026-05-02T11:20:53.999Z</time></trkpt><trkpt lat="40.73302033265167" lon="8.213167171353213"><ele>131.33333333333331</ele><time>2026-05-02T11:20:54.999Z</time></trkpt><trkpt lat="40.73287978508353" lon="8.213369915605437"><ele>131.0</ele><time>2026-05-02T11:20:55.999Z</time></trkpt><trkpt lat="40.73273454200675" lon="8.213564980564396"><ele>132.0</ele><time>2026-05-02T11:20:56.999Z</time></trkpt><trkpt lat="40.73264141598677" lon="8.21378046779388"><ele>133.0</ele><time>2026-05-02T11:20:57.999Z</time></trkpt><trkpt lat="40.73250745320833" lon="8.213949609692447"><ele>134.0</ele><time>2026-05-02T11:20:58.999Z</time></trkpt><trkpt lat="40.7323644133269" lon="8.214101343610412"><ele>135.0</ele><time>2026-05-02T11:20:59.999Z</time></trkpt><trkpt lat="40.73221240968505" lon="8.214235945742619"><ele>136.0</ele><time>2026-05-02T11:21:00.999Z</time></trkpt><trkpt lat="40.732053189409044" lon="8.214360469772142"><ele>137.0</ele><time>2026-05-02T11:21:01.999Z</time></trkpt><trkpt lat="40.73187535363284" lon="8.214499877052894"><ele>137.0</ele><time>2026-05-02T11:21:02.999Z</time></trkpt><trkpt lat="40.731682387859394" lon="8.214581252812273"><ele>137.0</ele><time>2026-05-02T11:21:03.999Z</time></trkpt><trkpt lat="40.731527454013644" lon="8.21462256572541"><ele>137.0</ele><time>2026-05-02T11:21:04.999Z</time></trkpt><trkpt lat="40.73137843083058" lon="8.214698748675808"><ele>137.0</ele><time>2026-05-02T11:21:05.999Z</time></trkpt><trkpt lat="40.731238175775594" lon="8.214768852054553"><ele>137.0</ele><time>2026-05-02T11:21:06.999Z</time></trkpt><trkpt lat="40.73110062612682" lon="8.214876628744705"><ele>137.0</ele><time>2026-05-02T11:21:07.999Z</time></trkpt><trkpt lat="40.73096471961629" lon="8.214997877649678"><ele>137.0</ele><time>2026-05-02T11:21:08.999Z</time></trkpt><trkpt lat="40.73081850750204" lon="8.215123340343395"><ele>137.0</ele><time>2026-05-02T11:21:09.999Z</time></trkpt><trkpt lat="40.730672336917465" lon="8.21524876740115"><ele>137.0</ele><time>2026-05-02T11:21:10.999Z</time></trkpt><trkpt lat="40.73053921470895" lon="8.21537096079167"><ele>137.0</ele><time>2026-05-02T11:21:11.999Z</time></trkpt><trkpt lat="40.730374765312895" lon="8.21544722764768"><ele>137.0</ele><time>2026-05-02T11:21:12.999Z</time></trkpt><trkpt lat="40.730180965433654" lon="8.215487516580017"><ele>137.0</ele><time>2026-05-02T11:21:13.999Z</time></trkpt><trkpt lat="40.72999187097106" lon="8.21552514730593"><ele>137.66666666666666</ele><time>2026-05-02T11:21:14.999Z</time></trkpt><trkpt lat="40.72980776629972" lon="8.21555067308703"><ele>138.33333333333334</ele><time>2026-05-02T11:21:15.999Z</time></trkpt><trkpt lat="40.729625149862684" lon="8.215550999660591"><ele>139.0</ele><time>2026-05-02T11:21:16.999Z</time></trkpt><trkpt lat="40.72944343949271" lon="8.21550220108851"><ele>140.25</ele><time>2026-05-02T11:21:17.999Z</time></trkpt><trkpt lat="40.72926636089321" lon="8.215439669430616"><ele>141.5</ele><time>2026-05-02T11:21:18.999Z</time></trkpt><trkpt lat="40.72913330959877" lon="8.215388710564541"><ele>142.75</ele><time>2026-05-02T11:21:19.999Z</time></trkpt><trkpt lat="40.72903270899519" lon="8.215355765685512"><ele>144.0</ele><time>2026-05-02T11:21:20.999Z</time></trkpt><trkpt lat="40.72894585295617" lon="8.21531761864531"><ele>144.0</ele><time>2026-05-02T11:21:21.999Z</time></trkpt><trkpt lat="40.72885642037391" lon="8.215287202806843"><ele>144.0</ele><time>2026-05-02T11:21:22.999Z</time></trkpt><trkpt lat="40.72877408836495" lon="8.215262873767085"><ele>144.0</ele><time>2026-05-02T11:21:23.999Z</time></trkpt><trkpt lat="40.72870011508047" lon="8.215247913189506"><ele>144.0</ele><time>2026-05-02T11:21:24.999Z</time></trkpt><trkpt lat="40.72862744657538" lon="8.21522955012919"><ele>144.0</ele><time>2026-05-02T11:21:26.999Z</time></trkpt><trkpt lat="40.728552180672104" lon="8.215188550973144"><ele>144.0</ele><time>2026-05-02T11:21:30.999Z</time></trkpt><trkpt lat="40.72848728571041" lon="8.215174789795231"><ele>144.5</ele><time>2026-05-02T11:21:31.999Z</time></trkpt><trkpt lat="40.728420601044164" lon="8.215154219603418"><ele>145.0</ele><time>2026-05-02T11:21:32.999Z</time></trkpt><trkpt lat="40.728344424220964" lon="8.215125858555561"><ele>145.5</ele><time>2026-05-02T11:21:33.999Z</time></trkpt><trkpt lat="40.72825898632032" lon="8.215109461132332"><ele>146.0</ele><time>2026-05-02T11:21:34.999Z</time></trkpt><trkpt lat="40.728183648928116" lon="8.215102150854175"><ele>146.5</ele><time>2026-05-02T11:21:35.999Z</time></trkpt><trkpt lat="40.728065276203" lon="8.215101586382898"><ele>147.0</ele><time>2026-05-02T11:21:37.999Z</time></trkpt><trkpt lat="40.72798684625542" lon="8.215109395580916"><ele>147.0</ele><time>2026-05-02T11:21:39Z</time></trkpt><trkpt lat="40.72790261306121" lon="8.215130621233474"><ele>147.0</ele><time>2026-05-02T11:21:40Z</time></trkpt><trkpt lat="40.72781075084059" lon="8.215168243960457"><ele>147.0</ele><time>2026-05-02T11:21:41Z</time></trkpt><trkpt lat="40.72770926260236" lon="8.215208770923427"><ele>147.0</ele><time>2026-05-02T11:21:42Z</time></trkpt><trkpt lat="40.72759853562535" lon="8.215262885983188"><ele>147.0</ele><time>2026-05-02T11:21:43Z</time></trkpt><trkpt lat="40.72747752508979" lon="8.215310335051683"><ele>148.25</ele><time>2026-05-02T11:21:44Z</time></trkpt><trkpt lat="40.727351643632375" lon="8.215343985933199"><ele>149.5</ele><time>2026-05-02T11:21:45Z</time></trkpt><trkpt lat="40.72721575570229" lon="8.215371757675008"><ele>150.75</ele><time>2026-05-02T11:21:46Z</time></trkpt><trkpt lat="40.72707285162984" lon="8.215400263617704"><ele>152.0</ele><time>2026-05-02T11:21:47Z</time></trkpt><trkpt lat="40.72693131445217" lon="8.215438020105166"><ele>153.33333333333331</ele><time>2026-05-02T11:21:48Z</time></trkpt><trkpt lat="40.72678647745094" lon="8.215483525703451"><ele>154.66666666666666</ele><time>2026-05-02T11:21:49Z</time></trkpt><trkpt lat="40.726643493740625" lon="8.215545800372627"><ele>156.0</ele><time>2026-05-02T11:21:50Z</time></trkpt><trkpt lat="40.726496046465876" lon="8.215608534521877"><ele>157.66666666666666</ele><time>2026-05-02T11:21:51Z</time></trkpt><trkpt lat="40.726359568954024" lon="8.215667825875277"><ele>159.33333333333331</ele><time>2026-05-02T11:21:52Z</time></trkpt><trkpt lat="40.726208369278794" lon="8.215686244654528"><ele>161.0</ele><time>2026-05-02T11:21:53Z</time></trkpt><trkpt lat="40.72605419661632" lon="8.215692080850282"><ele>161.75</ele><time>2026-05-02T11:21:54Z</time></trkpt><trkpt lat="40.72591533435016" lon="8.21566678660104"><ele>162.5</ele><time>2026-05-02T11:21:55Z</time></trkpt><trkpt lat="40.72577941192187" lon="8.21565824844247"><ele>163.25</ele><time>2026-05-02T11:21:56Z</time></trkpt><trkpt lat="40.7256628728972" lon="8.215670486855037"><ele>164.0</ele><time>2026-05-02T11:21:57Z</time></trkpt><trkpt lat="40.725547762221915" lon="8.215732914895005"><ele>164.0</ele><time>2026-05-02T11:21:58Z</time></trkpt><trkpt lat="40.72544638898752" lon="8.215840558006336"><ele>164.0</ele><time>2026-05-02T11:21:59Z</time></trkpt><trkpt lat="40.72537002776531" lon="8.215985566784754"><ele>164.0</ele><time>2026-05-02T11:22:00Z</time></trkpt><trkpt lat="40.72529116133562" lon="8.216135465848565"><ele>164.0</ele><time>2026-05-02T11:22:01Z</time></trkpt><trkpt lat="40.725185192227826" lon="8.216228217479948"><ele>162.0</ele><time>2026-05-02T11:22:02Z</time></trkpt><trkpt lat="40.72504215993726" lon="8.21627008653039"><ele>160.0</ele><time>2026-05-02T11:22:03Z</time></trkpt><trkpt lat="40.72488192445138" lon="8.216292955406143"><ele>158.0</ele><time>2026-05-02T11:22:04Z</time></trkpt><trkpt lat="40.7247347657763" lon="8.21631109375379"><ele>158.0</ele><time>2026-05-02T11:22:05Z</time></trkpt><trkpt lat="40.724582324599716" lon="8.216337889307438"><ele>158.0</ele><time>2026-05-02T11:22:06Z</time></trkpt><trkpt lat="40.72441216387745" lon="8.216373872619904"><ele>158.0</ele><time>2026-05-02T11:22:07Z</time></trkpt><trkpt lat="40.724241125547586" lon="8.216414170394742"><ele>156.33333333333331</ele><time>2026-05-02T11:22:08Z</time></trkpt><trkpt lat="40.72408988218046" lon="8.216483664919098"><ele>154.66666666666666</ele><time>2026-05-02T11:22:09Z</time></trkpt><trkpt lat="40.72394151427059" lon="8.216574224272714"><ele>153.0</ele><time>2026-05-02T11:22:10Z</time></trkpt><trkpt lat="40.72381810223672" lon="8.216698528597444"><ele>151.75</ele><time>2026-05-02T11:22:11Z</time></trkpt><trkpt lat="40.72370136588165" lon="8.216797295940934"><ele>150.5</ele><time>2026-05-02T11:22:12Z</time></trkpt><trkpt lat="40.723581836783005" lon="8.216829030278179"><ele>149.25</ele><time>2026-05-02T11:22:13Z</time></trkpt><trkpt lat="40.723450596568746" lon="8.21677872408956"><ele>148.0</ele><time>2026-05-02T11:22:14Z</time></trkpt><trkpt lat="40.7233189542342" lon="8.21670448986508"><ele>147.0</ele><time>2026-05-02T11:22:15Z</time></trkpt><trkpt lat="40.723196637566545" lon="8.216634549230745"><ele>146.0</ele><time>2026-05-02T11:22:16Z</time></trkpt><trkpt lat="40.723057209816474" lon="8.21656053095463"><ele>145.0</ele><time>2026-05-02T11:22:17Z</time></trkpt><trkpt lat="40.72290209274612" lon="8.21657288604572"><ele>144.0</ele><time>2026-05-02T11:22:18Z</time></trkpt><trkpt lat="40.72274848776708" lon="8.216624783142377"><ele>143.0</ele><time>2026-05-02T11:22:19Z</time></trkpt><trkpt lat="40.72259737666739" lon="8.21668684399292"><ele>142.0</ele><time>2026-05-02T11:22:20Z</time></trkpt><trkpt lat="40.72245035873872" lon="8.216689230297625"><ele>141.0</ele><time>2026-05-02T11:22:21Z</time></trkpt><trkpt lat="40.72228449467117" lon="8.216678324236616"><ele>141.0</ele><time>2026-05-02T11:22:22Z</time></trkpt><trkpt lat="40.72212247677264" lon="8.216683593440287"><ele>141.0</ele><time>2026-05-02T11:22:23Z</time></trkpt><trkpt lat="40.721967702895384" lon="8.216725748840098"><ele>141.0</ele><time>2026-05-02T11:22:24Z</time></trkpt><trkpt lat="40.721830900946486" lon="8.216827100146187"><ele>139.25</ele><time>2026-05-02T11:22:25Z</time></trkpt><trkpt lat="40.721706710883524" lon="8.216936310869691"><ele>137.5</ele><time>2026-05-02T11:22:26Z</time></trkpt><trkpt lat="40.72158724492854" lon="8.216971119867253"><ele>135.75</ele><time>2026-05-02T11:22:27Z</time></trkpt><trkpt lat="40.72147558743602" lon="8.216941743017177"><ele>134.0</ele><time>2026-05-02T11:22:28Z</time></trkpt><trkpt lat="40.72136158774014" lon="8.216833724053027"><ele>134.0</ele><time>2026-05-02T11:22:29Z</time></trkpt><trkpt lat="40.72125167060051" lon="8.216702540389917"><ele>134.0</ele><time>2026-05-02T11:22:30Z</time></trkpt><trkpt lat="40.721141998281496" lon="8.216552491125851"><ele>134.0</ele><time>2026-05-02T11:22:31Z</time></trkpt><trkpt lat="40.72102341246796" lon="8.216412841877347"><ele>134.0</ele><time>2026-05-02T11:22:32Z</time></trkpt><trkpt lat="40.72089564707137" lon="8.216306727279626"><ele>134.0</ele><time>2026-05-02T11:22:33Z</time></trkpt><trkpt lat="40.72077217654197" lon="8.216247918111614"><ele>134.0</ele><time>2026-05-02T11:22:34Z</time></trkpt><trkpt lat="40.720627121238095" lon="8.216267280417295"><ele>134.0</ele><time>2026-05-02T11:22:35Z</time></trkpt><trkpt lat="40.72049286036355" lon="8.216286796869932"><ele>133.33333333333331</ele><time>2026-05-02T11:22:36Z</time></trkpt><trkpt lat="40.720404575972495" lon="8.21651902679486"><ele>132.66666666666666</ele><time>2026-05-02T11:22:37Z</time></trkpt><trkpt lat="40.72029247212066" lon="8.21667660836075"><ele>132.0</ele><time>2026-05-02T11:22:38Z</time></trkpt><trkpt lat="40.720183842126254" lon="8.21683727765212"><ele>131.66666666666666</ele><time>2026-05-02T11:22:39Z</time></trkpt><trkpt lat="40.720079842624216" lon="8.217010863925998"><ele>131.33333333333331</ele><time>2026-05-02T11:22:40Z</time></trkpt><trkpt lat="40.71998991259055" lon="8.217202865625257"><ele>131.0</ele><time>2026-05-02T11:22:41Z</time></trkpt><trkpt lat="40.719906909601654" lon="8.217404571686913"><ele>131.0</ele><time>2026-05-02T11:22:42Z</time></trkpt><trkpt lat="40.71982532445897" lon="8.21760921112658"><ele>131.0</ele><time>2026-05-02T11:22:43Z</time></trkpt><trkpt lat="40.71974182052462" lon="8.217802895325821"><ele>131.0</ele><time>2026-05-02T11:22:44Z</time></trkpt><trkpt lat="40.719653658522695" lon="8.217973762107743"><ele>131.0</ele><time>2026-05-02T11:22:45Z</time></trkpt><trkpt lat="40.71954687976572" lon="8.218111745318529"><ele>131.0</ele><time>2026-05-02T11:22:46Z</time></trkpt><trkpt lat="40.71940982730172" lon="8.218214869009701"><ele>131.0</ele><time>2026-05-02T11:22:47Z</time></trkpt><trkpt lat="40.71926270314057" lon="8.2183026353706"><ele>128.33333333333331</ele><time>2026-05-02T11:22:48Z</time></trkpt><trkpt lat="40.719108674682076" lon="8.218377211319806"><ele>125.66666666666666</ele><time>2026-05-02T11:22:49Z</time></trkpt><trkpt lat="40.71895313870796" lon="8.218420844270474"><ele>123.0</ele><time>2026-05-02T11:22:50Z</time></trkpt><trkpt lat="40.71879680893367" lon="8.218411343174367"><ele>123.0</ele><time>2026-05-02T11:22:51Z</time></trkpt><trkpt lat="40.718639830814446" lon="8.21835508449731"><ele>123.0</ele><time>2026-05-02T11:22:52Z</time></trkpt><trkpt lat="40.71849123170056" lon="8.218257496288395"><ele>123.0</ele><time>2026-05-02T11:22:53Z</time></trkpt><trkpt lat="40.718349925695414" lon="8.218151196702077"><ele>123.0</ele><time>2026-05-02T11:22:54Z</time></trkpt><trkpt lat="40.718217848014845" lon="8.218068967394412"><ele>123.0</ele><time>2026-05-02T11:22:55Z</time></trkpt><trkpt lat="40.71808006959951" lon="8.218041279160287"><ele>123.0</ele><time>2026-05-02T11:22:55.999Z</time></trkpt><trkpt lat="40.71794258938509" lon="8.218082659781437"><ele>123.0</ele><time>2026-05-02T11:22:56.999Z</time></trkpt><trkpt lat="40.71781258137549" lon="8.218182249043789"><ele>120.66666666666666</ele><time>2026-05-02T11:22:57.999Z</time></trkpt><trkpt lat="40.7176807216975" lon="8.218311716337581"><ele>118.33333333333333</ele><time>2026-05-02T11:22:58.999Z</time></trkpt><trkpt lat="40.71753955810795" lon="8.218450197991933"><ele>116.0</ele><time>2026-05-02T11:22:59.999Z</time></trkpt><trkpt lat="40.717387712737796" lon="8.218582706486531"><ele>116.0</ele><time>2026-05-02T11:23:00.999Z</time></trkpt><trkpt lat="40.717228377149546" lon="8.218716256340405"><ele>116.0</ele><time>2026-05-02T11:23:01.999Z</time></trkpt><trkpt lat="40.71707560150204" lon="8.21884147700455"><ele>116.0</ele><time>2026-05-02T11:23:02.999Z</time></trkpt><trkpt lat="40.71692942041564" lon="8.218947686176955"><ele>115.66666666666666</ele><time>2026-05-02T11:23:03.999Z</time></trkpt><trkpt lat="40.71678055915387" lon="8.219009863475335"><ele>115.33333333333334</ele><time>2026-05-02T11:23:04.999Z</time></trkpt><trkpt lat="40.7166291715977" lon="8.219020709958725"><ele>115.0</ele><time>2026-05-02T11:23:05.999Z</time></trkpt><trkpt lat="40.71646690210463" lon="8.218980126601794"><ele>115.0</ele><time>2026-05-02T11:23:06.999Z</time></trkpt><trkpt lat="40.716310413003605" lon="8.218950091862089"><ele>115.0</ele><time>2026-05-02T11:23:07.999Z</time></trkpt><trkpt lat="40.71616646849994" lon="8.218968226460897"><ele>115.0</ele><time>2026-05-02T11:23:08.999Z</time></trkpt><trkpt lat="40.7160564598171" lon="8.219045505633407"><ele>115.0</ele><time>2026-05-02T11:23:09.999Z</time></trkpt><trkpt lat="40.71598339434796" lon="8.219172196671165"><ele>115.25</ele><time>2026-05-02T11:23:10.999Z</time></trkpt><trkpt lat="40.71596038865549" lon="8.219346444915402"><ele>115.5</ele><time>2026-05-02T11:23:11.999Z</time></trkpt><trkpt lat="40.715945479143066" lon="8.219542308864506"><ele>115.75</ele><time>2026-05-02T11:23:12.999Z</time></trkpt><trkpt lat="40.71591478734649" lon="8.219747012861243"><ele>116.0</ele><time>2026-05-02T11:23:13.999Z</time></trkpt><trkpt lat="40.71585604115954" lon="8.219948244332768"><ele>115.33333333333333</ele><time>2026-05-02T11:23:14.999Z</time></trkpt><trkpt lat="40.71576546730415" lon="8.220124886443287"><ele>114.66666666666666</ele><time>2026-05-02T11:23:15.999Z</time></trkpt><trkpt lat="40.715632293779315" lon="8.220259333371862"><ele>114.0</ele><time>2026-05-02T11:23:16.999Z</time></trkpt><trkpt lat="40.71547478101865" lon="8.220381407162023"><ele>114.0</ele><time>2026-05-02T11:23:17.999Z</time></trkpt><trkpt lat="40.71530381739766" lon="8.22051459941904"><ele>114.0</ele><time>2026-05-02T11:23:18.999Z</time></trkpt><trkpt lat="40.71512649053542" lon="8.220656832417761"><ele>114.0</ele><time>2026-05-02T11:23:19.999Z</time></trkpt><trkpt lat="40.714964423967245" lon="8.220789990041983"><ele>112.66666666666666</ele><time>2026-05-02T11:23:20.999Z</time></trkpt><trkpt lat="40.71482170686024" lon="8.220916032514074"><ele>111.33333333333333</ele><time>2026-05-02T11:23:21.999Z</time></trkpt><trkpt lat="40.714702537481166" lon="8.221059655262028"><ele>110.0</ele><time>2026-05-02T11:23:22.999Z</time></trkpt><trkpt lat="40.7146180931684" lon="8.221228842934805"><ele>110.0</ele><time>2026-05-02T11:23:23.999Z</time></trkpt><trkpt lat="40.714581944298494" lon="8.22143843546071"><ele>110.0</ele><time>2026-05-02T11:23:24.999Z</time></trkpt><trkpt lat="40.714588382434044" lon="8.221688153701564"><ele>110.0</ele><time>2026-05-02T11:23:25.999Z</time></trkpt><trkpt lat="40.714596828372215" lon="8.22196108690375"><ele>109.66666666666666</ele><time>2026-05-02T11:23:26.999Z</time></trkpt><trkpt lat="40.714599813203996" lon="8.222199165679891"><ele>109.33333333333334</ele><time>2026-05-02T11:23:27.999Z</time></trkpt><trkpt lat="40.71458806717925" lon="8.222394063168009"><ele>109.0</ele><time>2026-05-02T11:23:28.999Z</time></trkpt><trkpt lat="40.71454360635355" lon="8.222543656840813"><ele>109.5</ele><time>2026-05-02T11:23:29.999Z</time></trkpt><trkpt lat="40.71444959887645" lon="8.222646971814822"><ele>110.0</ele><time>2026-05-02T11:23:30.999Z</time></trkpt><trkpt lat="40.71432450734099" lon="8.222714618541007"><ele>110.5</ele><time>2026-05-02T11:23:31.999Z</time></trkpt><trkpt lat="40.714183734816146" lon="8.222724696433746"><ele>111.0</ele><time>2026-05-02T11:23:32.999Z</time></trkpt><trkpt lat="40.71404396433812" lon="8.222690976477407"><ele>110.5</ele><time>2026-05-02T11:23:33.999Z</time></trkpt><trkpt lat="40.713904499122634" lon="8.222650347215685"><ele>110.0</ele><time>2026-05-02T11:23:34.999Z</time></trkpt><trkpt lat="40.71376048594228" lon="8.22259439025987"><ele>109.5</ele><time>2026-05-02T11:23:35.999Z</time></trkpt><trkpt lat="40.71361212116411" lon="8.222537138130292"><ele>109.0</ele><time>2026-05-02T11:23:36.999Z</time></trkpt><trkpt lat="40.713458048090956" lon="8.222492554066612"><ele>109.0</ele><time>2026-05-02T11:23:37.999Z</time></trkpt><trkpt lat="40.71329680307621" lon="8.222490554861784"><ele>109.0</ele><time>2026-05-02T11:23:38.999Z</time></trkpt><trkpt lat="40.713132872742435" lon="8.22254704061209"><ele>109.0</ele><time>2026-05-02T11:23:39.999Z</time></trkpt><trkpt lat="40.71297575508509" lon="8.222641034342491"><ele>109.0</ele><time>2026-05-02T11:23:40.999Z</time></trkpt><trkpt lat="40.71282623423525" lon="8.222746065621116"><ele>109.0</ele><time>2026-05-02T11:23:41.999Z</time></trkpt><trkpt lat="40.712672685089835" lon="8.222816925070221"><ele>109.0</ele><time>2026-05-02T11:23:42.999Z</time></trkpt><trkpt lat="40.71250975745462" lon="8.222833477857568"><ele>112.0</ele><time>2026-05-02T11:23:43.999Z</time></trkpt><trkpt lat="40.71234069799694" lon="8.222819011517842"><ele>115.0</ele><time>2026-05-02T11:23:45Z</time></trkpt><trkpt lat="40.71216637142326" lon="8.222840022370747"><ele>118.0</ele><time>2026-05-02T11:23:45.999Z</time></trkpt><trkpt lat="40.71200906440529" lon="8.222945648027448"><ele>117.66666666666667</ele><time>2026-05-02T11:23:46.999Z</time></trkpt><trkpt lat="40.71184846984606" lon="8.223073273400814"><ele>117.33333333333334</ele><time>2026-05-02T11:23:47.999Z</time></trkpt><trkpt lat="40.711684620965954" lon="8.223207977528263"><ele>117.0</ele><time>2026-05-02T11:23:48.999Z</time></trkpt><trkpt lat="40.71151473010123" lon="8.223343596229624"><ele>114.66666666666666</ele><time>2026-05-02T11:23:49.999Z</time></trkpt><trkpt lat="40.711346840633084" lon="8.223471336375415"><ele>112.33333333333333</ele><time>2026-05-02T11:23:50.999Z</time></trkpt><trkpt lat="40.71118400430256" lon="8.22357734474219"><ele>110.0</ele><time>2026-05-02T11:23:51.999Z</time></trkpt><trkpt lat="40.71104474408382" lon="8.223671513729277"><ele>110.0</ele><time>2026-05-02T11:23:52.999Z</time></trkpt><trkpt lat="40.71093736894518" lon="8.223789605282656"><ele>110.0</ele><time>2026-05-02T11:23:53.999Z</time></trkpt><trkpt lat="40.71082963753745" lon="8.223945563309126"><ele>110.0</ele><time>2026-05-02T11:23:54.999Z</time></trkpt><trkpt lat="40.71073248631405" lon="8.224118263780198"><ele>110.66666666666666</ele><time>2026-05-02T11:23:55.999Z</time></trkpt><trkpt lat="40.71064754828838" lon="8.224315284250961"><ele>111.33333333333334</ele><time>2026-05-02T11:23:56.999Z</time></trkpt><trkpt lat="40.71057265852498" lon="8.224537785347653"><ele>112.0</ele><time>2026-05-02T11:23:57.999Z</time></trkpt><trkpt lat="40.710496451472395" lon="8.224769950288339"><ele>111.0</ele><time>2026-05-02T11:23:58.999Z</time></trkpt><trkpt lat="40.71040569824602" lon="8.22500296265087"><ele>110.0</ele><time>2026-05-02T11:23:59.999Z</time></trkpt><trkpt lat="40.71028319045299" lon="8.225226156217298"><ele>109.0</ele><time>2026-05-02T11:24:01Z</time></trkpt><trkpt lat="40.71014003345094" lon="8.225439713009854"><ele>109.0</ele><time>2026-05-02T11:24:02Z</time></trkpt><trkpt lat="40.710057002232645" lon="8.22560598400575"><ele>109.0</ele><time>2026-05-02T11:24:03Z</time></trkpt><trkpt lat="40.70989237867252" lon="8.225764053779388"><ele>109.0</ele><time>2026-05-02T11:24:04Z</time></trkpt><trkpt lat="40.709711289376216" lon="8.225910889796088"><ele>109.0</ele><time>2026-05-02T11:24:05Z</time></trkpt><trkpt lat="40.709520749949924" lon="8.22605949301586"><ele>109.0</ele><time>2026-05-02T11:24:06Z</time></trkpt><trkpt lat="40.70933044004098" lon="8.226217125048498"><ele>109.0</ele><time>2026-05-02T11:24:07Z</time></trkpt><trkpt lat="40.7091337449631" lon="8.22636763412565"><ele>105.33333333333334</ele><time>2026-05-02T11:24:08Z</time></trkpt><trkpt lat="40.708930260393835" lon="8.226498577182136"><ele>101.66666666666666</ele><time>2026-05-02T11:24:09Z</time></trkpt><trkpt lat="40.70872211180532" lon="8.226601604168602"><ele>98.0</ele><time>2026-05-02T11:24:10Z</time></trkpt><trkpt lat="40.708512139714806" lon="8.226674066922"><ele>96.66666666666666</ele><time>2026-05-02T11:24:11Z</time></trkpt><trkpt lat="40.70829741984941" lon="8.226733720591477"><ele>95.33333333333333</ele><time>2026-05-02T11:24:12Z</time></trkpt><trkpt lat="40.70808107349042" lon="8.226783439907226"><ele>94.0</ele><time>2026-05-02T11:24:13Z</time></trkpt><trkpt lat="40.707858968850466" lon="8.226803613062602"><ele>94.0</ele><time>2026-05-02T11:24:14Z</time></trkpt><trkpt lat="40.70764320707102" lon="8.226863945293804"><ele>94.0</ele><time>2026-05-02T11:24:15Z</time></trkpt><trkpt lat="40.70742363508999" lon="8.22692502708784"><ele>94.0</ele><time>2026-05-02T11:24:16Z</time></trkpt><trkpt lat="40.707205302870385" lon="8.226985144090921"><ele>94.0</ele><time>2026-05-02T11:24:17Z</time></trkpt><trkpt lat="40.706988962823914" lon="8.227044826907726"><ele>94.0</ele><time>2026-05-02T11:24:18Z</time></trkpt><trkpt lat="40.70677327044311" lon="8.227104331053194"><ele>94.0</ele><time>2026-05-02T11:24:19Z</time></trkpt><trkpt lat="40.70656018373611" lon="8.227163440041226"><ele>93.33333333333333</ele><time>2026-05-02T11:24:20Z</time></trkpt><trkpt lat="40.70634666492647" lon="8.2272229472268"><ele>92.66666666666667</ele><time>2026-05-02T11:24:21Z</time></trkpt><trkpt lat="40.70613741284172" lon="8.22728126528732"><ele>92.0</ele><time>2026-05-02T11:24:22Z</time></trkpt><trkpt lat="40.705930212057346" lon="8.227339011659977"><ele>92.0</ele><time>2026-05-02T11:24:23Z</time></trkpt><trkpt lat="40.705722895156796" lon="8.227396671386103"><ele>92.0</ele><time>2026-05-02T11:24:24Z</time></trkpt><trkpt lat="40.705515641441586" lon="8.227454451585533"><ele>92.0</ele><time>2026-05-02T11:24:25Z</time></trkpt><trkpt lat="40.70531273902223" lon="8.227511455224738"><ele>91.66666666666667</ele><time>2026-05-02T11:24:26Z</time></trkpt><trkpt lat="40.70511129089925" lon="8.227566540186563"><ele>91.33333333333333</ele><time>2026-05-02T11:24:27Z</time></trkpt><trkpt lat="40.70490584781856" lon="8.227620741230258"><ele>91.0</ele><time>2026-05-02T11:24:28Z</time></trkpt><trkpt lat="40.704705496675295" lon="8.227673753659317"><ele>91.0</ele><time>2026-05-02T11:24:29Z</time></trkpt><trkpt lat="40.70450437036932" lon="8.227727666341616"><ele>91.0</ele><time>2026-05-02T11:24:30Z</time></trkpt><trkpt lat="40.704301328772296" lon="8.227782638287179"><ele>91.0</ele><time>2026-05-02T11:24:31Z</time></trkpt><trkpt lat="40.704095503572255" lon="8.227838384849317"><ele>90.33333333333333</ele><time>2026-05-02T11:24:32Z</time></trkpt><trkpt lat="40.70388469863675" lon="8.227895931780429"><ele>89.66666666666667</ele><time>2026-05-02T11:24:33Z</time></trkpt><trkpt lat="40.703675110574835" lon="8.227975275395226"><ele>89.0</ele><time>2026-05-02T11:24:34Z</time></trkpt><trkpt lat="40.703460774670255" lon="8.228029619795599"><ele>88.5</ele><time>2026-05-02T11:24:35Z</time></trkpt><trkpt lat="40.703237894599944" lon="8.228092569140701"><ele>88.0</ele><time>2026-05-02T11:24:36Z</time></trkpt><trkpt lat="40.703023258054095" lon="8.228177541566495"><ele>87.0</ele><time>2026-05-02T11:24:37Z</time></trkpt><trkpt lat="40.70280757617975" lon="8.228277596401133"><ele>86.0</ele><time>2026-05-02T11:24:38Z</time></trkpt><trkpt lat="40.7025927658207" lon="8.22839739624137"><ele>84.5</ele><time>2026-05-02T11:24:39Z</time></trkpt><trkpt lat="40.70238017742314" lon="8.228541711542748"><ele>83.0</ele><time>2026-05-02T11:24:40Z</time></trkpt><trkpt lat="40.70217038902847" lon="8.228682693007912"><ele>83.0</ele><time>2026-05-02T11:24:41Z</time></trkpt><trkpt lat="40.70196862668059" lon="8.228826200488168"><ele>83.0</ele><time>2026-05-02T11:24:42Z</time></trkpt><trkpt lat="40.701779334295544" lon="8.228971176227436"><ele>83.0</ele><time>2026-05-02T11:24:43Z</time></trkpt><trkpt lat="40.701604603636774" lon="8.229131364949724"><ele>82.0</ele><time>2026-05-02T11:24:44Z</time></trkpt><trkpt lat="40.70143764067508" lon="8.22931321684874"><ele>81.0</ele><time>2026-05-02T11:24:45Z</time></trkpt><trkpt lat="40.7012730506121" lon="8.229507234090049"><ele>80.0</ele><time>2026-05-02T11:24:46Z</time></trkpt><trkpt lat="40.701120969269816" lon="8.229708464405379"><ele>80.33333333333334</ele><time>2026-05-02T11:24:47Z</time></trkpt><trkpt lat="40.70097247055966" lon="8.229912995146293"><ele>80.66666666666667</ele><time>2026-05-02T11:24:48Z</time></trkpt><trkpt lat="40.700824848066915" lon="8.230101591308575"><ele>81.0</ele><time>2026-05-02T11:24:49Z</time></trkpt><trkpt lat="40.70065324157439" lon="8.230236234592935"><ele>81.0</ele><time>2026-05-02T11:24:50Z</time></trkpt><trkpt lat="40.70048632413415" lon="8.23036469998907"><ele>81.0</ele><time>2026-05-02T11:24:51Z</time></trkpt><trkpt lat="40.70029933121247" lon="8.230477966087593"><ele>81.0</ele><time>2026-05-02T11:24:52Z</time></trkpt><trkpt lat="40.70010466949293" lon="8.230591903128861"><ele>79.66666666666667</ele><time>2026-05-02T11:24:53Z</time></trkpt><trkpt lat="40.699907581309986" lon="8.230707260328824"><ele>78.33333333333334</ele><time>2026-05-02T11:24:54Z</time></trkpt><trkpt lat="40.69971928127087" lon="8.23084027541873"><ele>77.0</ele><time>2026-05-02T11:24:55Z</time></trkpt><trkpt lat="40.69952533560335" lon="8.230952307824717"><ele>76.33333333333334</ele><time>2026-05-02T11:24:56Z</time></trkpt><trkpt lat="40.699329610727176" lon="8.231068891706368"><ele>75.66666666666667</ele><time>2026-05-02T11:24:57Z</time></trkpt><trkpt lat="40.6991305717575" lon="8.231187494781423"><ele>75.0</ele><time>2026-05-02T11:24:58Z</time></trkpt><trkpt lat="40.6989281640785" lon="8.231307768530524"><ele>75.0</ele><time>2026-05-02T11:24:59Z</time></trkpt><trkpt lat="40.69871540599611" lon="8.231407772017473"><ele>75.0</ele><time>2026-05-02T11:25:00Z</time></trkpt><trkpt lat="40.698514461780974" lon="8.231548311056676"><ele>75.0</ele><time>2026-05-02T11:25:01Z</time></trkpt><trkpt lat="40.698301889652825" lon="8.23167073143844"><ele>75.0</ele><time>2026-05-02T11:25:02Z</time></trkpt><trkpt lat="40.698087347129714" lon="8.231795520739022"><ele>75.0</ele><time>2026-05-02T11:25:03Z</time></trkpt><trkpt lat="40.69787323456533" lon="8.231921747394034"><ele>75.0</ele><time>2026-05-02T11:25:04Z</time></trkpt><trkpt lat="40.69767141143902" lon="8.232040785324937"><ele>74.66666666666667</ele><time>2026-05-02T11:25:05Z</time></trkpt><trkpt lat="40.69747700015748" lon="8.232151654640148"><ele>74.33333333333334</ele><time>2026-05-02T11:25:06Z</time></trkpt><trkpt lat="40.69728286144811" lon="8.232261399682598"><ele>74.0</ele><time>2026-05-02T11:25:07Z</time></trkpt><trkpt lat="40.69711011024928" lon="8.232361332712241"><ele>74.0</ele><time>2026-05-02T11:25:08Z</time></trkpt><trkpt lat="40.69695084074882" lon="8.232460935856189"><ele>74.0</ele><time>2026-05-02T11:25:09Z</time></trkpt><trkpt lat="40.696812171709006" lon="8.23259192371526"><ele>74.0</ele><time>2026-05-02T11:25:10Z</time></trkpt><trkpt lat="40.69671182712279" lon="8.232785568576382"><ele>72.66666666666667</ele><time>2026-05-02T11:25:11Z</time></trkpt><trkpt lat="40.696620995137245" lon="8.233022892192231"><ele>71.33333333333333</ele><time>2026-05-02T11:25:12Z</time></trkpt><trkpt lat="40.69651329740561" lon="8.233280948860974"><ele>70.0</ele><time>2026-05-02T11:25:13Z</time></trkpt><trkpt lat="40.69641198210208" lon="8.233534620270916"><ele>69.0</ele><time>2026-05-02T11:25:14Z</time></trkpt><trkpt lat="40.69631038516118" lon="8.233754721214211"><ele>68.0</ele><time>2026-05-02T11:25:15Z</time></trkpt><trkpt lat="40.6961949583575" lon="8.233972738506843"><ele>67.0</ele><time>2026-05-02T11:25:16Z</time></trkpt><trkpt lat="40.696088568998" lon="8.234174733064254"><ele>62.33333333333333</ele><time>2026-05-02T11:25:17Z</time></trkpt><trkpt lat="40.69595210992021" lon="8.234348705089213"><ele>57.66666666666667</ele><time>2026-05-02T11:25:18Z</time></trkpt><trkpt lat="40.695792697289654" lon="8.23451968559944"><ele>53.0</ele><time>2026-05-02T11:25:19Z</time></trkpt><trkpt lat="40.69560187888841" lon="8.234683726830758"><ele>52.5</ele><time>2026-05-02T11:25:20Z</time></trkpt><trkpt lat="40.69540178850356" lon="8.234808823630319"><ele>52.0</ele><time>2026-05-02T11:25:21Z</time></trkpt><trkpt lat="40.69518228339728" lon="8.234928415223363"><ele>49.5</ele><time>2026-05-02T11:25:22Z</time></trkpt><trkpt lat="40.694961228000444" lon="8.235045141322523"><ele>47.0</ele><time>2026-05-02T11:25:23Z</time></trkpt><trkpt lat="40.69474460062295" lon="8.235162083473861"><ele>47.0</ele><time>2026-05-02T11:25:24Z</time></trkpt><trkpt lat="40.694537171746674" lon="8.235281716467055"><ele>47.0</ele><time>2026-05-02T11:25:25Z</time></trkpt><trkpt lat="40.69433375167404" lon="8.235396577685346"><ele>47.0</ele><time>2026-05-02T11:25:26Z</time></trkpt><trkpt lat="40.69412778778032" lon="8.235513011508639"><ele>47.666666666666664</ele><time>2026-05-02T11:25:26.999Z</time></trkpt><trkpt lat="40.69392726006003" lon="8.235633931405069"><ele>48.33333333333333</ele><time>2026-05-02T11:25:27.999Z</time></trkpt><trkpt lat="40.69372287901479" lon="8.235740544272812"><ele>49.0</ele><time>2026-05-02T11:25:28.999Z</time></trkpt><trkpt lat="40.693518812933206" lon="8.23585113627663"><ele>52.0</ele><time>2026-05-02T11:25:29.999Z</time></trkpt><trkpt lat="40.693326049949384" lon="8.23595875366155"><ele>55.0</ele><time>2026-05-02T11:25:30.999Z</time></trkpt><trkpt lat="40.69314509980933" lon="8.236072578205034"><ele>58.0</ele><time>2026-05-02T11:25:31.999Z</time></trkpt><trkpt lat="40.69298014898128" lon="8.236199784777439"><ele>58.0</ele><time>2026-05-02T11:25:32.999Z</time></trkpt><trkpt lat="40.69283468938405" lon="8.236346787353458"><ele>58.0</ele><time>2026-05-02T11:25:33.999Z</time></trkpt><trkpt lat="40.69270196343823" lon="8.236503721527415"><ele>58.0</ele><time>2026-05-02T11:25:34.999Z</time></trkpt><trkpt lat="40.69257247231651" lon="8.236667413524454"><ele>61.666666666666664</ele><time>2026-05-02T11:25:35.999Z</time></trkpt><trkpt lat="40.69245040911107" lon="8.236848985173001"><ele>65.33333333333333</ele><time>2026-05-02T11:25:36.999Z</time></trkpt><trkpt lat="40.69235477709336" lon="8.237040395008771"><ele>69.0</ele><time>2026-05-02T11:25:37.999Z</time></trkpt><trkpt lat="40.69227410011665" lon="8.237255413028445"><ele>70.0</ele><time>2026-05-02T11:25:38.999Z</time></trkpt><trkpt lat="40.69219321685766" lon="8.237471276964625"><ele>71.0</ele><time>2026-05-02T11:25:39.999Z</time></trkpt><trkpt lat="40.692106875025786" lon="8.23768957932533"><ele>72.0</ele><time>2026-05-02T11:25:40.999Z</time></trkpt><trkpt lat="40.69201679026988" lon="8.237903616575126"><ele>71.66666666666667</ele><time>2026-05-02T11:25:41.999Z</time></trkpt><trkpt lat="40.69191827659455" lon="8.238122394982733"><ele>71.33333333333334</ele><time>2026-05-02T11:25:42.999Z</time></trkpt><trkpt lat="40.691823950057326" lon="8.238347186654574"><ele>71.0</ele><time>2026-05-02T11:25:43.999Z</time></trkpt><trkpt lat="40.69172083507881" lon="8.238586593657569"><ele>71.0</ele><time>2026-05-02T11:25:44.999Z</time></trkpt><trkpt lat="40.69161420401861" lon="8.238831165690321"><ele>71.0</ele><time>2026-05-02T11:25:45.999Z</time></trkpt><trkpt lat="40.69151658107309" lon="8.23907988335197"><ele>71.0</ele><time>2026-05-02T11:25:46.999Z</time></trkpt><trkpt lat="40.69140231783859" lon="8.239336087127805"><ele>70.5</ele><time>2026-05-02T11:25:47.999Z</time></trkpt><trkpt lat="40.69129117540233" lon="8.239591374297488"><ele>70.0</ele><time>2026-05-02T11:25:48.999Z</time></trkpt><trkpt lat="40.69118034445128" lon="8.239856461237315"><ele>69.0</ele><time>2026-05-02T11:25:49.999Z</time></trkpt><trkpt lat="40.69106892282766" lon="8.24012252914242"><ele>68.0</ele><time>2026-05-02T11:25:51Z</time></trkpt><trkpt lat="40.690953923009594" lon="8.240389387497682"><ele>68.0</ele><time>2026-05-02T11:25:52Z</time></trkpt><trkpt lat="40.69083828284306" lon="8.240655475042924"><ele>68.0</ele><time>2026-05-02T11:25:53Z</time></trkpt><trkpt lat="40.6907213997221" lon="8.240920583389284"><ele>68.0</ele><time>2026-05-02T11:25:54Z</time></trkpt><trkpt lat="40.690608380970154" lon="8.241185606575844"><ele>68.0</ele><time>2026-05-02T11:25:55Z</time></trkpt><trkpt lat="40.69049971093797" lon="8.241450416214514"><ele>68.0</ele><time>2026-05-02T11:25:56Z</time></trkpt><trkpt lat="40.69039681394245" lon="8.241697907006163"><ele>68.0</ele><time>2026-05-02T11:25:57Z</time></trkpt><trkpt lat="40.690302639435316" lon="8.241922830303507"><ele>68.0</ele><time>2026-05-02T11:25:58Z</time></trkpt><trkpt lat="40.69021624598323" lon="8.242090622857868"><ele>68.0</ele><time>2026-05-02T11:25:59Z</time></trkpt><trkpt lat="40.69012036181326" lon="8.242196728920375"><ele>68.0</ele><time>2026-05-02T11:26:00Z</time></trkpt><trkpt lat="40.68998904667145" lon="8.242248004407443"><ele>68.0</ele><time>2026-05-02T11:26:01Z</time></trkpt><trkpt lat="40.68984311823354" lon="8.24225440856832"><ele>68.0</ele><time>2026-05-02T11:26:02Z</time></trkpt><trkpt lat="40.68966927321062" lon="8.242245869234681"><ele>68.0</ele><time>2026-05-02T11:26:03Z</time></trkpt><trkpt lat="40.68947726091857" lon="8.24225517459905"><ele>68.0</ele><time>2026-05-02T11:26:04Z</time></trkpt><trkpt lat="40.689275484748485" lon="8.242274654267538"><ele>68.0</ele><time>2026-05-02T11:26:05Z</time></trkpt><trkpt lat="40.68906451986105" lon="8.242295511522645"><ele>67.33333333333334</ele><time>2026-05-02T11:26:06Z</time></trkpt><trkpt lat="40.68884422484695" lon="8.242315541923526"><ele>66.66666666666667</ele><time>2026-05-02T11:26:07Z</time></trkpt><trkpt lat="40.68861767784047" lon="8.242302476361628"><ele>66.0</ele><time>2026-05-02T11:26:08Z</time></trkpt><trkpt lat="40.68838654662525" lon="8.242325011164743"><ele>66.0</ele><time>2026-05-02T11:26:09Z</time></trkpt><trkpt lat="40.688150464908645" lon="8.242348013152661"><ele>66.0</ele><time>2026-05-02T11:26:10Z</time></trkpt><trkpt lat="40.687911723173926" lon="8.242371274326906"><ele>65.5</ele><time>2026-05-02T11:26:11Z</time></trkpt><trkpt lat="40.68766672922751" lon="8.242395144645037"><ele>65.0</ele><time>2026-05-02T11:26:12Z</time></trkpt><trkpt lat="40.68742002477112" lon="8.24241918162673"><ele>65.0</ele><time>2026-05-02T11:26:13Z</time></trkpt><trkpt lat="40.687172333843165" lon="8.24244132797646"><ele>65.0</ele><time>2026-05-02T11:26:14Z</time></trkpt><trkpt lat="40.68691853973477" lon="8.242465227076783"><ele>65.0</ele><time>2026-05-02T11:26:15Z</time></trkpt><trkpt lat="40.68666184190926" lon="8.242491678974865"><ele>65.0</ele><time>2026-05-02T11:26:16Z</time></trkpt><trkpt lat="40.6864084782899" lon="8.242517214243614"><ele>65.0</ele><time>2026-05-02T11:26:17Z</time></trkpt><trkpt lat="40.68614967276844" lon="8.242542407014746"><ele>65.0</ele><time>2026-05-02T11:26:18Z</time></trkpt><trkpt lat="40.685895628918715" lon="8.242566012127316"><ele>64.5</ele><time>2026-05-02T11:26:19Z</time></trkpt><trkpt lat="40.68564556566125" lon="8.242591594130909"><ele>64.0</ele><time>2026-05-02T11:26:20Z</time></trkpt><trkpt lat="40.68540719012039" lon="8.242618422841794"><ele>63.0</ele><time>2026-05-02T11:26:21Z</time></trkpt><trkpt lat="40.685171501566906" lon="8.242639906984037"><ele>62.0</ele><time>2026-05-02T11:26:22Z</time></trkpt><trkpt lat="40.68493106476035" lon="8.242661755165534"><ele>62.0</ele><time>2026-05-02T11:26:23Z</time></trkpt><trkpt lat="40.68469295836699" lon="8.24268339157897"><ele>62.0</ele><time>2026-05-02T11:26:24Z</time></trkpt><trkpt lat="40.68445153597717" lon="8.24270574975171"><ele>62.0</ele><time>2026-05-02T11:26:25Z</time></trkpt><trkpt lat="40.68421109702683" lon="8.242729521069169"><ele>62.0</ele><time>2026-05-02T11:26:26Z</time></trkpt><trkpt lat="40.683970020679396" lon="8.242753823939756"><ele>62.0</ele><time>2026-05-02T11:26:27Z</time></trkpt><trkpt lat="40.6837300659092" lon="8.24277827502594"><ele>62.0</ele><time>2026-05-02T11:26:28Z</time></trkpt><trkpt lat="40.683492922055656" lon="8.242803659818241"><ele>60.5</ele><time>2026-05-02T11:26:29Z</time></trkpt><trkpt lat="40.6832564213772" lon="8.24282959060301"><ele>59.0</ele><time>2026-05-02T11:26:30Z</time></trkpt><trkpt lat="40.68302335367674" lon="8.242852373702567"><ele>59.0</ele><time>2026-05-02T11:26:31Z</time></trkpt><trkpt lat="40.68279630544666" lon="8.242873475996847"><ele>59.0</ele><time>2026-05-02T11:26:32Z</time></trkpt><trkpt lat="40.682592081362834" lon="8.242893609189098"><ele>59.0</ele><time>2026-05-02T11:26:33Z</time></trkpt><trkpt lat="40.68238052877839" lon="8.242915557569335"><ele>58.66666666666667</ele><time>2026-05-02T11:26:34Z</time></trkpt><trkpt lat="40.682176356795686" lon="8.242937867375348"><ele>58.33333333333333</ele><time>2026-05-02T11:26:35Z</time></trkpt><trkpt lat="40.68196855140148" lon="8.242959457004128"><ele>58.0</ele><time>2026-05-02T11:26:36Z</time></trkpt><trkpt lat="40.68175768771971" lon="8.24298100902381"><ele>57.33333333333333</ele><time>2026-05-02T11:26:37Z</time></trkpt><trkpt lat="40.68154234282013" lon="8.243003019060348"><ele>56.66666666666667</ele><time>2026-05-02T11:26:38Z</time></trkpt><trkpt lat="40.68132660872128" lon="8.243025068881554"><ele>56.0</ele><time>2026-05-02T11:26:39Z</time></trkpt><trkpt lat="40.681113436184525" lon="8.243046856894127"><ele>55.66666666666667</ele><time>2026-05-02T11:26:40Z</time></trkpt><trkpt lat="40.68089146897323" lon="8.243069543689646"><ele>55.33333333333333</ele><time>2026-05-02T11:26:41Z</time></trkpt><trkpt lat="40.680671700530866" lon="8.243091384846938"><ele>55.0</ele><time>2026-05-02T11:26:42Z</time></trkpt><trkpt lat="40.68046823712673" lon="8.243113114750178"><ele>55.33333333333333</ele><time>2026-05-02T11:26:43Z</time></trkpt><trkpt lat="40.68027404709729" lon="8.243132118301519"><ele>55.66666666666667</ele><time>2026-05-02T11:26:44Z</time></trkpt><trkpt lat="40.68008610975889" lon="8.243150509945455"><ele>56.0</ele><time>2026-05-02T11:26:45Z</time></trkpt><trkpt lat="40.679909298344334" lon="8.2431678128155"><ele>56.0</ele><time>2026-05-02T11:26:46Z</time></trkpt><trkpt lat="40.67973952072457" lon="8.243184427319276"><ele>56.0</ele><time>2026-05-02T11:26:47Z</time></trkpt><trkpt lat="40.6795681584639" lon="8.243201196947973"><ele>56.0</ele><time>2026-05-02T11:26:48Z</time></trkpt><trkpt lat="40.67939458752007" lon="8.243218184291726"><ele>55.66666666666667</ele><time>2026-05-02T11:26:49Z</time></trkpt><trkpt lat="40.67922428414577" lon="8.243234850277615"><ele>55.33333333333333</ele><time>2026-05-02T11:26:50Z</time></trkpt><trkpt lat="40.67905707386301" lon="8.243251213569307"><ele>55.0</ele><time>2026-05-02T11:26:51Z</time></trkpt><trkpt lat="40.67888567491719" lon="8.24326798676659"><ele>55.0</ele><time>2026-05-02T11:26:52Z</time></trkpt><trkpt lat="40.67873482221017" lon="8.243282749299699"><ele>55.0</ele><time>2026-05-02T11:26:53Z</time></trkpt><trkpt lat="40.67859859077624" lon="8.243296080986031"><ele>55.0</ele><time>2026-05-02T11:26:54Z</time></trkpt><trkpt lat="40.67846055854771" lon="8.243309588894478"><ele>55.0</ele><time>2026-05-02T11:26:55Z</time></trkpt><trkpt lat="40.678314728667" lon="8.243323802053895"><ele>54.666666666666664</ele><time>2026-05-02T11:26:56Z</time></trkpt><trkpt lat="40.67815643141683" lon="8.243338383908458"><ele>54.33333333333333</ele><time>2026-05-02T11:26:57Z</time></trkpt><trkpt lat="40.677985968169274" lon="8.243354086461169"><ele>54.0</ele><time>2026-05-02T11:26:58Z</time></trkpt><trkpt lat="40.67780862471909" lon="8.243370732145738"><ele>53.66666666666667</ele><time>2026-05-02T11:26:59Z</time></trkpt><trkpt lat="40.67762446050006" lon="8.243388578989302"><ele>53.333333333333336</ele><time>2026-05-02T11:27:00Z</time></trkpt><trkpt lat="40.677442317868696" lon="8.243403600888307"><ele>53.0</ele><time>2026-05-02T11:27:01Z</time></trkpt><trkpt lat="40.67725072093767" lon="8.243425580185482"><ele>53.0</ele><time>2026-05-02T11:27:02Z</time></trkpt><trkpt lat="40.67707114673332" lon="8.243446688502553"><ele>53.0</ele><time>2026-05-02T11:27:03Z</time></trkpt><trkpt lat="40.67690979479809" lon="8.243464672303945"><ele>53.0</ele><time>2026-05-02T11:27:04Z</time></trkpt><trkpt lat="40.6767340304929" lon="8.243481929330171"><ele>52.333333333333336</ele><time>2026-05-02T11:27:05Z</time></trkpt><trkpt lat="40.67657147802561" lon="8.243497889176686"><ele>51.66666666666667</ele><time>2026-05-02T11:27:06Z</time></trkpt><trkpt lat="40.67641633756001" lon="8.243513121295946"><ele>51.0</ele><time>2026-05-02T11:27:07Z</time></trkpt><trkpt lat="40.67626187464392" lon="8.243528286893657"><ele>51.0</ele><time>2026-05-02T11:27:08Z</time></trkpt><trkpt lat="40.67612715694866" lon="8.243541513809513"><ele>51.0</ele><time>2026-05-02T11:27:09Z</time></trkpt><trkpt lat="40.675987333191614" lon="8.243553006375391"><ele>51.0</ele><time>2026-05-02T11:27:10Z</time></trkpt><trkpt lat="40.6758478026992" lon="8.24356672644938"><ele>51.0</ele><time>2026-05-02T11:27:11Z</time></trkpt><trkpt lat="40.67572564604111" lon="8.243599504975501"><ele>51.25</ele><time>2026-05-02T11:27:12Z</time></trkpt><trkpt lat="40.67559049710052" lon="8.243610112501147"><ele>51.5</ele><time>2026-05-02T11:27:13Z</time></trkpt><trkpt lat="40.6754472364348" lon="8.243619079358403"><ele>51.75</ele><time>2026-05-02T11:27:14Z</time></trkpt><trkpt lat="40.67529319008171" lon="8.243635030457318"><ele>52.0</ele><time>2026-05-02T11:27:15Z</time></trkpt><trkpt lat="40.67513363107369" lon="8.243652543163574"><ele>51.33333333333333</ele><time>2026-05-02T11:27:16Z</time></trkpt><trkpt lat="40.6749587087374" lon="8.243672512910354"><ele>50.66666666666667</ele><time>2026-05-02T11:27:17Z</time></trkpt><trkpt lat="40.67477720708142" lon="8.24368941060575"><ele>50.0</ele><time>2026-05-02T11:27:18Z</time></trkpt><trkpt lat="40.674588580391216" lon="8.24371194257447"><ele>49.333333333333336</ele><time>2026-05-02T11:27:19Z</time></trkpt><trkpt lat="40.67440372262461" lon="8.243730132753228"><ele>48.66666666666667</ele><time>2026-05-02T11:27:20Z</time></trkpt><trkpt lat="40.674215603617725" lon="8.243748793017748"><ele>48.0</ele><time>2026-05-02T11:27:21Z</time></trkpt><trkpt lat="40.67402455728956" lon="8.243771664654147"><ele>48.0</ele><time>2026-05-02T11:27:22Z</time></trkpt><trkpt lat="40.67383081511849" lon="8.243768803025494"><ele>48.0</ele><time>2026-05-02T11:27:23Z</time></trkpt><trkpt lat="40.673634826309026" lon="8.243787412857625"><ele>48.0</ele><time>2026-05-02T11:27:23.999Z</time></trkpt><trkpt lat="40.673435792179966" lon="8.243807244221735"><ele>47.0</ele><time>2026-05-02T11:27:24.999Z</time></trkpt><trkpt lat="40.67324048727458" lon="8.243840214255973"><ele>46.0</ele><time>2026-05-02T11:27:25.999Z</time></trkpt><trkpt lat="40.673074791518296" lon="8.243843213611074"><ele>45.0</ele><time>2026-05-02T11:27:26.999Z</time></trkpt><trkpt lat="40.67289566086632" lon="8.2438610618336"><ele>45.0</ele><time>2026-05-02T11:27:27.999Z</time></trkpt><trkpt lat="40.672712281014626" lon="8.243879438865111"><ele>45.0</ele><time>2026-05-02T11:27:28.999Z</time></trkpt><trkpt lat="40.67252218914009" lon="8.243900121731059"><ele>45.0</ele><time>2026-05-02T11:27:29.999Z</time></trkpt><trkpt lat="40.67233098487838" lon="8.243920925627961"><ele>45.0</ele><time>2026-05-02T11:27:30.999Z</time></trkpt><trkpt lat="40.67213319177868" lon="8.243941433279211"><ele>45.0</ele><time>2026-05-02T11:27:31.999Z</time></trkpt><trkpt lat="40.67193479798598" lon="8.24396184720692"><ele>45.0</ele><time>2026-05-02T11:27:32.999Z</time></trkpt><trkpt lat="40.6717319279397" lon="8.243981211536056"><ele>44.333333333333336</ele><time>2026-05-02T11:27:33.999Z</time></trkpt><trkpt lat="40.67152424958743" lon="8.24399990137335"><ele>43.66666666666667</ele><time>2026-05-02T11:27:34.999Z</time></trkpt><trkpt lat="40.67130284234527" lon="8.244019826732"><ele>43.0</ele><time>2026-05-02T11:27:35.999Z</time></trkpt><trkpt lat="40.67106805917873" lon="8.244042350105637"><ele>41.5</ele><time>2026-05-02T11:27:36.999Z</time></trkpt><trkpt lat="40.670831917209924" lon="8.24406512142781"><ele>40.0</ele><time>2026-05-02T11:27:37.999Z</time></trkpt><trkpt lat="40.67060688721669" lon="8.244087886561825"><ele>40.0</ele><time>2026-05-02T11:27:38.999Z</time></trkpt><trkpt lat="40.670401079909986" lon="8.244108785111358"><ele>40.0</ele><time>2026-05-02T11:27:39.999Z</time></trkpt><trkpt lat="40.67021096658885" lon="8.24412647193148"><ele>40.0</ele><time>2026-05-02T11:27:40.999Z</time></trkpt><trkpt lat="40.670030945074856" lon="8.24414322140761"><ele>40.333333333333336</ele><time>2026-05-02T11:27:41.999Z</time></trkpt><trkpt lat="40.669852635314925" lon="8.24416132811419"><ele>40.666666666666664</ele><time>2026-05-02T11:27:42.999Z</time></trkpt><trkpt lat="40.66967511094416" lon="8.244179869133925"><ele>41.0</ele><time>2026-05-02T11:27:43.999Z</time></trkpt><trkpt lat="40.66950842053922" lon="8.244196255671172"><ele>41.33333333333333</ele><time>2026-05-02T11:27:44.999Z</time></trkpt><trkpt lat="40.66934036880141" lon="8.24421093282312"><ele>41.666666666666664</ele><time>2026-05-02T11:27:45.999Z</time></trkpt><trkpt lat="40.669166158738975" lon="8.244226431485416"><ele>42.0</ele><time>2026-05-02T11:27:46.999Z</time></trkpt><trkpt lat="40.66898754453423" lon="8.244243350315129"><ele>42.0</ele><time>2026-05-02T11:27:47.999Z</time></trkpt><trkpt lat="40.66881753573278" lon="8.244259695359336"><ele>42.0</ele><time>2026-05-02T11:27:48.999Z</time></trkpt><trkpt lat="40.668652198545075" lon="8.244275591269256"><ele>42.0</ele><time>2026-05-02T11:27:49.999Z</time></trkpt><trkpt lat="40.668464096595365" lon="8.244293675837339"><ele>42.0</ele><time>2026-05-02T11:27:50.999Z</time></trkpt><trkpt lat="40.66828942837007" lon="8.244310481005506"><ele>42.0</ele><time>2026-05-02T11:27:51.999Z</time></trkpt><trkpt lat="40.66810202746771" lon="8.24432906240077"><ele>42.0</ele><time>2026-05-02T11:27:52.999Z</time></trkpt><trkpt lat="40.66791231839963" lon="8.244347872657693"><ele>42.0</ele><time>2026-05-02T11:27:53.999Z</time></trkpt><trkpt lat="40.66771738395316" lon="8.24436720102655"><ele>42.0</ele><time>2026-05-02T11:27:54.999Z</time></trkpt><trkpt lat="40.667518921134146" lon="8.244386879246415"><ele>42.0</ele><time>2026-05-02T11:27:55.999Z</time></trkpt><trkpt lat="40.66732185965201" lon="8.244406299968514"><ele>42.0</ele><time>2026-05-02T11:27:57Z</time></trkpt><trkpt lat="40.66711095996977" lon="8.24442656538684"><ele>42.0</ele><time>2026-05-02T11:27:58Z</time></trkpt><trkpt lat="40.66691228818717" lon="8.244446043949946"><ele>42.0</ele><time>2026-05-02T11:27:59Z</time></trkpt><trkpt lat="40.666706005617534" lon="8.24446680690225"><ele>41.666666666666664</ele><time>2026-05-02T11:28:00Z</time></trkpt><trkpt lat="40.66649994298068" lon="8.244487547715673"><ele>41.33333333333333</ele><time>2026-05-02T11:28:01Z</time></trkpt><trkpt lat="40.66629976386684" lon="8.24452893714769"><ele>41.0</ele><time>2026-05-02T11:28:02Z</time></trkpt><trkpt lat="40.66608552948355" lon="8.244529259665685"><ele>40.666666666666664</ele><time>2026-05-02T11:28:03Z</time></trkpt><trkpt lat="40.66588211116677" lon="8.24454973431632"><ele>40.333333333333336</ele><time>2026-05-02T11:28:04Z</time></trkpt><trkpt lat="40.66565472412917" lon="8.244589511931576"><ele>40.0</ele><time>2026-05-02T11:28:05Z</time></trkpt><trkpt lat="40.66543367705676" lon="8.244594383037363"><ele>39.66666666666667</ele><time>2026-05-02T11:28:06Z</time></trkpt><trkpt lat="40.665221690397644" lon="8.244614888746685"><ele>39.333333333333336</ele><time>2026-05-02T11:28:07Z</time></trkpt><trkpt lat="40.664988728902216" lon="8.24463674287517"><ele>39.0</ele><time>2026-05-02T11:28:08Z</time></trkpt><trkpt lat="40.664763072702506" lon="8.244657560117073"><ele>39.0</ele><time>2026-05-02T11:28:09Z</time></trkpt><trkpt lat="40.6645371463304" lon="8.244681747219246"><ele>39.0</ele><time>2026-05-02T11:28:10Z</time></trkpt><trkpt lat="40.66430224693431" lon="8.244706894987738"><ele>38.5</ele><time>2026-05-02T11:28:11Z</time></trkpt><trkpt lat="40.66407002024866" lon="8.244730510300236"><ele>38.0</ele><time>2026-05-02T11:28:12Z</time></trkpt><trkpt lat="40.66383677445413" lon="8.244754057951022"><ele>38.0</ele><time>2026-05-02T11:28:13Z</time></trkpt><trkpt lat="40.66360827435714" lon="8.244776885274261"><ele>38.0</ele><time>2026-05-02T11:28:14Z</time></trkpt><trkpt lat="40.663382657968995" lon="8.244799424514063"><ele>38.0</ele><time>2026-05-02T11:28:15Z</time></trkpt><trkpt lat="40.663162442875496" lon="8.244821424164392"><ele>38.0</ele><time>2026-05-02T11:28:16Z</time></trkpt><trkpt lat="40.66294294184226" lon="8.244841681562908"><ele>38.0</ele><time>2026-05-02T11:28:17Z</time></trkpt><trkpt lat="40.66272579727865" lon="8.244861747004359"><ele>37.33333333333333</ele><time>2026-05-02T11:28:18Z</time></trkpt><trkpt lat="40.662506015587645" lon="8.244882428929241"><ele>36.666666666666664</ele><time>2026-05-02T11:28:19Z</time></trkpt><trkpt lat="40.66228650814225" lon="8.244903977911681"><ele>36.0</ele><time>2026-05-02T11:28:20Z</time></trkpt><trkpt lat="40.662067838059876" lon="8.244925444691305"><ele>36.0</ele><time>2026-05-02T11:28:21Z</time></trkpt><trkpt lat="40.661850752301355" lon="8.24494675593825"><ele>36.0</ele><time>2026-05-02T11:28:22Z</time></trkpt><trkpt lat="40.66163409294504" lon="8.244968349449586"><ele>36.0</ele><time>2026-05-02T11:28:23Z</time></trkpt><trkpt lat="40.661417933241644" lon="8.244991571176893"><ele>36.0</ele><time>2026-05-02T11:28:24Z</time></trkpt><trkpt lat="40.66120254562714" lon="8.245014709960481"><ele>36.0</ele><time>2026-05-02T11:28:25Z</time></trkpt><trkpt lat="40.66098777548258" lon="8.245036446908703"><ele>36.0</ele><time>2026-05-02T11:28:26Z</time></trkpt><trkpt lat="40.66077284480283" lon="8.245055369845945"><ele>36.0</ele><time>2026-05-02T11:28:27Z</time></trkpt><trkpt lat="40.660559683703596" lon="8.245075965346194"><ele>36.0</ele><time>2026-05-02T11:28:28Z</time></trkpt><trkpt lat="40.66035017096012" lon="8.245116746372547"><ele>36.0</ele><time>2026-05-02T11:28:29Z</time></trkpt><trkpt lat="40.66014027823061" lon="8.245135515670986"><ele>36.333333333333336</ele><time>2026-05-02T11:28:30Z</time></trkpt><trkpt lat="40.65993168754664" lon="8.245154281834388"><ele>36.66666666666667</ele><time>2026-05-02T11:28:31Z</time></trkpt><trkpt lat="40.65972688716633" lon="8.24517358384159"><ele>37.0</ele><time>2026-05-02T11:28:32Z</time></trkpt><trkpt lat="40.659517606479426" lon="8.245198862107747"><ele>36.0</ele><time>2026-05-02T11:28:33Z</time></trkpt><trkpt lat="40.65930164256926" lon="8.245196698928776"><ele>35.0</ele><time>2026-05-02T11:28:34Z</time></trkpt><trkpt lat="40.659086865352336" lon="8.245221811607342"><ele>34.0</ele><time>2026-05-02T11:28:35Z</time></trkpt><trkpt lat="40.65887141594937" lon="8.245263298729965"><ele>34.0</ele><time>2026-05-02T11:28:36Z</time></trkpt><trkpt lat="40.658660783345084" lon="8.245281835565873"><ele>34.0</ele><time>2026-05-02T11:28:37Z</time></trkpt><trkpt lat="40.658453716026486" lon="8.245304523016436"><ele>34.0</ele><time>2026-05-02T11:28:38Z</time></trkpt><trkpt lat="40.65826522831933" lon="8.245301928315103"><ele>34.0</ele><time>2026-05-02T11:28:39Z</time></trkpt><trkpt lat="40.65808468850547" lon="8.245322054142449"><ele>34.0</ele><time>2026-05-02T11:28:40Z</time></trkpt><trkpt lat="40.657914394638205" lon="8.245337508994126"><ele>34.0</ele><time>2026-05-02T11:28:41Z</time></trkpt><trkpt lat="40.65774594859242" lon="8.245352176808828"><ele>33.66666666666667</ele><time>2026-05-02T11:28:42Z</time></trkpt><trkpt lat="40.65758437990031" lon="8.245368502870113"><ele>33.333333333333336</ele><time>2026-05-02T11:28:43Z</time></trkpt><trkpt lat="40.65743422118487" lon="8.245404463620684"><ele>33.0</ele><time>2026-05-02T11:28:44Z</time></trkpt><trkpt lat="40.657292639170464" lon="8.245419121493358"><ele>33.0</ele><time>2026-05-02T11:28:45Z</time></trkpt><trkpt lat="40.65716047642772" lon="8.245410060887968"><ele>33.0</ele><time>2026-05-02T11:28:46Z</time></trkpt><trkpt lat="40.65704630622596" lon="8.245437242003229"><ele>33.0</ele><time>2026-05-02T11:28:47Z</time></trkpt><trkpt lat="40.65694565483458" lon="8.245427746938038"><ele>33.0</ele><time>2026-05-02T11:28:48Z</time></trkpt><trkpt lat="40.656869444360645" lon="8.245405281270504"><ele>33.0</ele><time>2026-05-02T11:28:49Z</time></trkpt><trkpt lat="40.65681017744325" lon="8.245368959798856"><ele>33.25</ele><time>2026-05-02T11:28:50Z</time></trkpt><trkpt lat="40.65674494513754" lon="8.245365656378436"><ele>33.5</ele><time>2026-05-02T11:28:52Z</time></trkpt><trkpt lat="40.65671235294628" lon="8.245142112113346"><ele>33.75</ele><time>2026-05-02T11:28:53Z</time></trkpt><trkpt lat="40.65669728392617" lon="8.245013028219937"><ele>34.0</ele><time>2026-05-02T11:28:54Z</time></trkpt><trkpt lat="40.6566927721614" lon="8.244859654939598"><ele>33.5</ele><time>2026-05-02T11:28:55Z</time></trkpt><trkpt lat="40.65668466658346" lon="8.244682259170668"><ele>33.0</ele><time>2026-05-02T11:28:56Z</time></trkpt><trkpt lat="40.65667498996108" lon="8.244494450446362"><ele>32.5</ele><time>2026-05-02T11:28:57Z</time></trkpt><trkpt lat="40.65666095570692" lon="8.244289863700303"><ele>32.0</ele><time>2026-05-02T11:28:58Z</time></trkpt><trkpt lat="40.65664830646069" lon="8.244071824432531"><ele>32.666666666666664</ele><time>2026-05-02T11:28:59Z</time></trkpt><trkpt lat="40.65663720135797" lon="8.243841994970335"><ele>33.333333333333336</ele><time>2026-05-02T11:29:00Z</time></trkpt><trkpt lat="40.65662666792741" lon="8.243603863437293"><ele>34.0</ele><time>2026-05-02T11:29:01Z</time></trkpt><trkpt lat="40.656611005820274" lon="8.243357667923133"><ele>34.333333333333336</ele><time>2026-05-02T11:29:02Z</time></trkpt><trkpt lat="40.65659699236734" lon="8.243097322124818"><ele>34.666666666666664</ele><time>2026-05-02T11:29:03Z</time></trkpt><trkpt lat="40.65658403587954" lon="8.24284211343904"><ele>35.0</ele><time>2026-05-02T11:29:04Z</time></trkpt><trkpt lat="40.65656568611391" lon="8.242575291952761"><ele>35.0</ele><time>2026-05-02T11:29:05Z</time></trkpt><trkpt lat="40.65654272826514" lon="8.242302771141858"><ele>35.0</ele><time>2026-05-02T11:29:06Z</time></trkpt><trkpt lat="40.656524871173254" lon="8.24203731373352"><ele>35.0</ele><time>2026-05-02T11:29:07Z</time></trkpt><trkpt lat="40.65651297296656" lon="8.241769084706808"><ele>35.0</ele><time>2026-05-02T11:29:08Z</time></trkpt><trkpt lat="40.656499071233256" lon="8.24150642994111"><ele>35.0</ele><time>2026-05-02T11:29:09Z</time></trkpt><trkpt lat="40.65648987360012" lon="8.241259565513063"><ele>35.0</ele><time>2026-05-02T11:29:10Z</time></trkpt><trkpt lat="40.65646752153712" lon="8.240992908493615"><ele>35.0</ele><time>2026-05-02T11:29:11Z</time></trkpt><trkpt lat="40.65645534644161" lon="8.24074481231694"><ele>35.0</ele><time>2026-05-02T11:29:12Z</time></trkpt><trkpt lat="40.656444290592056" lon="8.240507996660211"><ele>35.0</ele><time>2026-05-02T11:29:13Z</time></trkpt><trkpt lat="40.65643107551386" lon="8.240256860687108"><ele>35.0</ele><time>2026-05-02T11:29:14Z</time></trkpt><trkpt lat="40.656417902853015" lon="8.240015362859186"><ele>35.0</ele><time>2026-05-02T11:29:15Z</time></trkpt><trkpt lat="40.656403098073106" lon="8.23977456535342"><ele>35.0</ele><time>2026-05-02T11:29:16Z</time></trkpt><trkpt lat="40.6563881735065" lon="8.239537175433925"><ele>35.0</ele><time>2026-05-02T11:29:17Z</time></trkpt><trkpt lat="40.65637836324348" lon="8.23929852908992"><ele>35.0</ele><time>2026-05-02T11:29:18Z</time></trkpt><trkpt lat="40.65636232212564" lon="8.239062279571934"><ele>35.0</ele><time>2026-05-02T11:29:19Z</time></trkpt><trkpt lat="40.656349215194346" lon="8.23882525385725"><ele>35.0</ele><time>2026-05-02T11:29:20Z</time></trkpt><trkpt lat="40.65633962342097" lon="8.23858467442614"><ele>35.0</ele><time>2026-05-02T11:29:21Z</time></trkpt><trkpt lat="40.65632031913896" lon="8.238344565637874"><ele>35.0</ele><time>2026-05-02T11:29:22Z</time></trkpt><trkpt lat="40.65630861401161" lon="8.23810302078533"><ele>35.0</ele><time>2026-05-02T11:29:23Z</time></trkpt><trkpt lat="40.65629616949839" lon="8.237885524018916"><ele>35.0</ele><time>2026-05-02T11:29:24Z</time></trkpt><trkpt lat="40.65628342482444" lon="8.237703567077395"><ele>35.0</ele><time>2026-05-02T11:29:25Z</time></trkpt><trkpt lat="40.6562745488405" lon="8.237557580989009"><ele>35.0</ele><time>2026-05-02T11:29:26Z</time></trkpt><trkpt lat="40.65627037128983" lon="8.237423500573486"><ele>35.0</ele><time>2026-05-02T11:29:27Z</time></trkpt><trkpt lat="40.65626489205605" lon="8.237309384226945"><ele>35.0</ele><time>2026-05-02T11:29:28Z</time></trkpt><trkpt lat="40.65626319184396" lon="8.237219229062209"><ele>35.0</ele><time>2026-05-02T11:29:29Z</time></trkpt><trkpt lat="40.65625991234797" lon="8.237109177383246"><ele>35.0</ele><time>2026-05-02T11:29:30.999Z</time></trkpt><trkpt lat="40.656245575501906" lon="8.236998911072387"><ele>35.0</ele><time>2026-05-02T11:29:32.999Z</time></trkpt><trkpt lat="40.656232169027454" lon="8.236913367928588"><ele>35.0</ele><time>2026-05-02T11:29:33.999Z</time></trkpt><trkpt lat="40.6562275979245" lon="8.236806116941299"><ele>35.0</ele><time>2026-05-02T11:29:34.999Z</time></trkpt><trkpt lat="40.656217159426085" lon="8.236688570256282"><ele>35.0</ele><time>2026-05-02T11:29:35.999Z</time></trkpt><trkpt lat="40.656212351357716" lon="8.23655879669208"><ele>35.0</ele><time>2026-05-02T11:29:36.999Z</time></trkpt><trkpt lat="40.65620502339776" lon="8.236427475320829"><ele>35.0</ele><time>2026-05-02T11:29:37.999Z</time></trkpt><trkpt lat="40.65619777029847" lon="8.236294229758881"><ele>35.0</ele><time>2026-05-02T11:29:38.999Z</time></trkpt><trkpt lat="40.65618938683714" lon="8.236174054246392"><ele>35.0</ele><time>2026-05-02T11:29:39.999Z</time></trkpt><trkpt lat="40.65618774249658" lon="8.23607439381647"><ele>35.0</ele><time>2026-05-02T11:29:40.999Z</time></trkpt><trkpt lat="40.65619171841708" lon="8.235989817009495"><ele>35.0</ele><time>2026-05-02T11:29:41.999Z</time></trkpt><trkpt lat="40.65619556883136" lon="8.235883741318935"><ele>35.0</ele><time>2026-05-02T11:29:43.999Z</time></trkpt><trkpt lat="40.65619139519275" lon="8.235789288279987"><ele>35.0</ele><time>2026-05-02T11:30:35Z</time></trkpt><trkpt lat="40.65615763684941" lon="8.23567506772363"><ele>35.0</ele><time>2026-05-02T11:30:38Z</time></trkpt><trkpt lat="40.65613653581062" lon="8.235595426234145"><ele>35.0</ele><time>2026-05-02T11:30:39Z</time></trkpt><trkpt lat="40.656118501272445" lon="8.235486945166835"><ele>35.5</ele><time>2026-05-02T11:30:40Z</time></trkpt><trkpt lat="40.65612828436934" lon="8.235347061100015"><ele>36.0</ele><time>2026-05-02T11:30:41Z</time></trkpt><trkpt lat="40.656125005573266" lon="8.235195497945108"><ele>36.5</ele><time>2026-05-02T11:30:42Z</time></trkpt><trkpt lat="40.656110546080754" lon="8.235029319634497"><ele>37.0</ele><time>2026-05-02T11:30:43Z</time></trkpt><trkpt lat="40.65610396932202" lon="8.234867205220768"><ele>36.75</ele><time>2026-05-02T11:30:44Z</time></trkpt><trkpt lat="40.65609453725223" lon="8.234693023024793"><ele>36.5</ele><time>2026-05-02T11:30:45Z</time></trkpt><trkpt lat="40.65608780848698" lon="8.234516271588639"><ele>36.25</ele><time>2026-05-02T11:30:46Z</time></trkpt><trkpt lat="40.65608300568996" lon="8.234331275616906"><ele>36.0</ele><time>2026-05-02T11:30:47Z</time></trkpt><trkpt lat="40.65607722364438" lon="8.234143277257715"><ele>36.0</ele><time>2026-05-02T11:30:48Z</time></trkpt><trkpt lat="40.65606489739671" lon="8.233953419911074"><ele>36.0</ele><time>2026-05-02T11:30:49Z</time></trkpt><trkpt lat="40.656053665089175" lon="8.2337572364551"><ele>36.0</ele><time>2026-05-02T11:30:50Z</time></trkpt><trkpt lat="40.656040896035016" lon="8.233557501985635"><ele>36.0</ele><time>2026-05-02T11:30:51Z</time></trkpt><trkpt lat="40.656031976936305" lon="8.233354332264785"><ele>36.0</ele><time>2026-05-02T11:30:52Z</time></trkpt><trkpt lat="40.65602218955769" lon="8.233149756670036"><ele>36.0</ele><time>2026-05-02T11:30:53Z</time></trkpt><trkpt lat="40.65601322415589" lon="8.232934925911126"><ele>36.0</ele><time>2026-05-02T11:30:54Z</time></trkpt><trkpt lat="40.656000062854595" lon="8.232715447069314"><ele>35.666666666666664</ele><time>2026-05-02T11:30:55Z</time></trkpt><trkpt lat="40.65598684459989" lon="8.2324961312192"><ele>35.33333333333333</ele><time>2026-05-02T11:30:56Z</time></trkpt><trkpt lat="40.65598208979753" lon="8.232271387188852"><ele>35.0</ele><time>2026-05-02T11:30:57Z</time></trkpt><trkpt lat="40.65595366125397" lon="8.232050843701517"><ele>35.0</ele><time>2026-05-02T11:30:58Z</time></trkpt><trkpt lat="40.65595456059417" lon="8.231840870678571"><ele>35.0</ele><time>2026-05-02T11:30:59Z</time></trkpt><trkpt lat="40.655941260537816" lon="8.23161252536378"><ele>35.0</ele><time>2026-05-02T11:31:00Z</time></trkpt><trkpt lat="40.65592810016992" lon="8.2313865782847"><ele>35.0</ele><time>2026-05-02T11:31:01Z</time></trkpt><trkpt lat="40.6559147309375" lon="8.231157045175157"><ele>35.0</ele><time>2026-05-02T11:31:02Z</time></trkpt><trkpt lat="40.65590167004495" lon="8.230932806046658"><ele>35.0</ele><time>2026-05-02T11:31:03Z</time></trkpt><trkpt lat="40.655889086309486" lon="8.230716758863503"><ele>35.25</ele><time>2026-05-02T11:31:04Z</time></trkpt><trkpt lat="40.6558778862013" lon="8.230524467019153"><ele>35.5</ele><time>2026-05-02T11:31:05Z</time></trkpt><trkpt lat="40.655869128984456" lon="8.230374116501697"><ele>35.75</ele><time>2026-05-02T11:31:06Z</time></trkpt><trkpt lat="40.655843526681" lon="8.230206534270764"><ele>36.0</ele><time>2026-05-02T11:31:07Z</time></trkpt><trkpt lat="40.6558514302643" lon="8.230070251578068"><ele>36.0</ele><time>2026-05-02T11:31:08Z</time></trkpt><trkpt lat="40.65583345599534" lon="8.22993407527946"><ele>36.0</ele><time>2026-05-02T11:31:09Z</time></trkpt><trkpt lat="40.65582186512666" lon="8.229805930290798"><ele>36.0</ele><time>2026-05-02T11:31:10Z</time></trkpt><trkpt lat="40.65581427198893" lon="8.229685972115577"><ele>36.0</ele><time>2026-05-02T11:31:11Z</time></trkpt><trkpt lat="40.655807393506294" lon="8.229579367410008"><ele>36.0</ele><time>2026-05-02T11:31:12Z</time></trkpt><trkpt lat="40.65580602732928" lon="8.229486592887074"><ele>36.0</ele><time>2026-05-02T11:31:13Z</time></trkpt><trkpt lat="40.655851674814166" lon="8.22936591319236"><ele>36.0</ele><time>2026-05-02T11:31:15Z</time></trkpt><trkpt lat="40.655951232380346" lon="8.229341372185552"><ele>36.0</ele><time>2026-05-02T11:31:17Z</time></trkpt><trkpt lat="40.65606896623939" lon="8.229338830010677"><ele>36.0</ele><time>2026-05-02T11:31:19Z</time></trkpt><trkpt lat="40.65614036391797" lon="8.229336812610287"><ele>36.0</ele><time>2026-05-02T11:31:20Z</time></trkpt><trkpt lat="40.65621842867253" lon="8.229326144601098"><ele>36.0</ele><time>2026-05-02T11:31:21Z</time></trkpt><trkpt lat="40.65630543526736" lon="8.229313823790406"><ele>36.2</ele><time>2026-05-02T11:31:22Z</time></trkpt><trkpt lat="40.656392836411534" lon="8.229306735520455"><ele>36.400000000000006</ele><time>2026-05-02T11:31:23Z</time></trkpt><trkpt lat="40.65650309117681" lon="8.229292893328374"><ele>36.6</ele><time>2026-05-02T11:31:24Z</time></trkpt><trkpt lat="40.656610711538" lon="8.229289221141276"><ele>36.800000000000004</ele><time>2026-05-02T11:31:25Z</time></trkpt><trkpt lat="40.65673799427409" lon="8.229276218498631"><ele>37.0</ele><time>2026-05-02T11:31:26Z</time></trkpt><trkpt lat="40.65685579123588" lon="8.229258729909022"><ele>36.5</ele><time>2026-05-02T11:31:26.999Z</time></trkpt><trkpt lat="40.65697983614054" lon="8.229241518148621"><ele>36.0</ele><time>2026-05-02T11:31:27.999Z</time></trkpt><trkpt lat="40.6571150876262" lon="8.229230939325339"><ele>35.5</ele><time>2026-05-02T11:31:28.999Z</time></trkpt><trkpt lat="40.65725337278618" lon="8.229218867198655"><ele>35.0</ele><time>2026-05-02T11:31:29.999Z</time></trkpt><trkpt lat="40.657401638819024" lon="8.229203878296941"><ele>35.0</ele><time>2026-05-02T11:31:30.999Z</time></trkpt><trkpt lat="40.65754302008278" lon="8.229191812068022"><ele>35.0</ele><time>2026-05-02T11:31:31.999Z</time></trkpt><trkpt lat="40.65769020542086" lon="8.229177436173153"><ele>35.0</ele><time>2026-05-02T11:31:32.999Z</time></trkpt><trkpt lat="40.657839809576416" lon="8.229164348754546"><ele>35.0</ele><time>2026-05-02T11:31:33.999Z</time></trkpt><trkpt lat="40.65798976576503" lon="8.229147841439993"><ele>35.33333333333333</ele><time>2026-05-02T11:31:34.999Z</time></trkpt><trkpt lat="40.658140676392065" lon="8.229132704038351"><ele>35.666666666666664</ele><time>2026-05-02T11:31:35.999Z</time></trkpt><trkpt lat="40.65829481785782" lon="8.229118346548164"><ele>36.0</ele><time>2026-05-02T11:31:36.999Z</time></trkpt><trkpt lat="40.65844354186284" lon="8.229097624866773"><ele>36.0</ele><time>2026-05-02T11:31:37.999Z</time></trkpt><trkpt lat="40.6585966538633" lon="8.229086575849468"><ele>36.0</ele><time>2026-05-02T11:31:38.999Z</time></trkpt><trkpt lat="40.65874785766007" lon="8.229071471076985"><ele>36.0</ele><time>2026-05-02T11:31:39.999Z</time></trkpt><trkpt lat="40.65889584149954" lon="8.229058123607537"><ele>36.0</ele><time>2026-05-02T11:31:40.999Z</time></trkpt><trkpt lat="40.65904312728832" lon="8.229041966819247"><ele>36.0</ele><time>2026-05-02T11:31:41.999Z</time></trkpt><trkpt lat="40.65918507909036" lon="8.229029395529622"><ele>36.0</ele><time>2026-05-02T11:31:42.999Z</time></trkpt><trkpt lat="40.659327406680326" lon="8.229017001269396"><ele>36.0</ele><time>2026-05-02T11:31:43.999Z</time></trkpt><trkpt lat="40.65946817283641" lon="8.229003301793583"><ele>36.0</ele><time>2026-05-02T11:31:44.999Z</time></trkpt><trkpt lat="40.65962367172529" lon="8.228988109072377"><ele>36.0</ele><time>2026-05-02T11:31:45.999Z</time></trkpt><trkpt lat="40.659761212647616" lon="8.228969453998843"><ele>36.0</ele><time>2026-05-02T11:31:46.999Z</time></trkpt><trkpt lat="40.65991745257226" lon="8.228953888943323"><ele>35.666666666666664</ele><time>2026-05-02T11:31:47.999Z</time></trkpt><trkpt lat="40.66007073615616" lon="8.228936988376331"><ele>35.33333333333333</ele><time>2026-05-02T11:31:48.999Z</time></trkpt><trkpt lat="40.660222208123145" lon="8.228925184722357"><ele>35.0</ele><time>2026-05-02T11:31:49.999Z</time></trkpt><trkpt lat="40.66038152872864" lon="8.228908945904196"><ele>35.0</ele><time>2026-05-02T11:31:50.999Z</time></trkpt><trkpt lat="40.66052640268013" lon="8.228904124363545"><ele>35.0</ele><time>2026-05-02T11:31:51.999Z</time></trkpt><trkpt lat="40.660678114002906" lon="8.228882059128207"><ele>35.0</ele><time>2026-05-02T11:31:52.999Z</time></trkpt><trkpt lat="40.66082950436379" lon="8.22887533534995"><ele>35.0</ele><time>2026-05-02T11:31:53.999Z</time></trkpt><trkpt lat="40.66097298136824" lon="8.22885853246237"><ele>35.666666666666664</ele><time>2026-05-02T11:31:54.999Z</time></trkpt><trkpt lat="40.661133211701156" lon="8.228833185724252"><ele>36.333333333333336</ele><time>2026-05-02T11:31:55.999Z</time></trkpt><trkpt lat="40.66128465057922" lon="8.228826643675408"><ele>37.0</ele><time>2026-05-02T11:31:56.999Z</time></trkpt><trkpt lat="40.66143897709014" lon="8.22879972259268"><ele>37.0</ele><time>2026-05-02T11:31:57.999Z</time></trkpt><trkpt lat="40.66158981359566" lon="8.228792603270195"><ele>37.0</ele><time>2026-05-02T11:31:58.999Z</time></trkpt><trkpt lat="40.661737639504764" lon="8.228769236259682"><ele>37.0</ele><time>2026-05-02T11:31:59.999Z</time></trkpt><trkpt lat="40.66186193509759" lon="8.228755053727538"><ele>37.0</ele><time>2026-05-02T11:32:00.999Z</time></trkpt><trkpt lat="40.66197702154571" lon="8.228754751261588"><ele>36.800000000000004</ele><time>2026-05-02T11:32:01.999Z</time></trkpt><trkpt lat="40.66208045650485" lon="8.228743699782965"><ele>36.6</ele><time>2026-05-02T11:32:02.999Z</time></trkpt><trkpt lat="40.662162549359266" lon="8.22872829403622"><ele>36.400000000000006</ele><time>2026-05-02T11:32:03.999Z</time></trkpt><trkpt lat="40.66227066381753" lon="8.228725774099763"><ele>36.2</ele><time>2026-05-02T11:32:05.999Z</time></trkpt><trkpt lat="40.662405444399134" lon="8.228699639885637"><ele>36.0</ele><time>2026-05-02T11:32:07.999Z</time></trkpt><trkpt lat="40.6624836435172" lon="8.228712614079791"><ele>36.0</ele><time>2026-05-02T11:32:09Z</time></trkpt><trkpt lat="40.66261250887309" lon="8.22868209938063"><ele>36.0</ele><time>2026-05-02T11:32:10Z</time></trkpt><trkpt lat="40.6627312092637" lon="8.228669470397387"><ele>36.0</ele><time>2026-05-02T11:32:11Z</time></trkpt><trkpt lat="40.66285608717691" lon="8.228676385666112"><ele>36.0</ele><time>2026-05-02T11:32:12Z</time></trkpt><trkpt lat="40.66299169936398" lon="8.22864354119186"><ele>35.75</ele><time>2026-05-02T11:32:13Z</time></trkpt><trkpt lat="40.663122480394335" lon="8.228651273693776"><ele>35.5</ele><time>2026-05-02T11:32:14Z</time></trkpt><trkpt lat="40.66326560826038" lon="8.228637863551018"><ele>35.25</ele><time>2026-05-02T11:32:15Z</time></trkpt><trkpt lat="40.66340595571445" lon="8.22860868297059"><ele>35.0</ele><time>2026-05-02T11:32:16Z</time></trkpt><trkpt lat="40.66356115472838" lon="8.228589575024007"><ele>35.33333333333333</ele><time>2026-05-02T11:32:17Z</time></trkpt><trkpt lat="40.6637133735856" lon="8.2285774211492"><ele>35.666666666666664</ele><time>2026-05-02T11:32:18Z</time></trkpt><trkpt lat="40.663863852221404" lon="8.228560488556736"><ele>36.0</ele><time>2026-05-02T11:32:19Z</time></trkpt><trkpt lat="40.66401923392133" lon="8.228563040557662"><ele>36.0</ele><time>2026-05-02T11:32:20Z</time></trkpt><trkpt lat="40.66417501426649" lon="8.228523618784749"><ele>36.0</ele><time>2026-05-02T11:32:21Z</time></trkpt><trkpt lat="40.66432918255299" lon="8.228514944421951"><ele>36.0</ele><time>2026-05-02T11:32:22Z</time></trkpt><trkpt lat="40.66448497385908" lon="8.228499313897366"><ele>36.333333333333336</ele><time>2026-05-02T11:32:22.999Z</time></trkpt><trkpt lat="40.66463830307918" lon="8.228485230890508"><ele>36.66666666666667</ele><time>2026-05-02T11:32:23.999Z</time></trkpt><trkpt lat="40.66479132481582" lon="8.228469600444168"><ele>37.0</ele><time>2026-05-02T11:32:24.999Z</time></trkpt><trkpt lat="40.66494493371365" lon="8.22845319319805"><ele>37.0</ele><time>2026-05-02T11:32:25.999Z</time></trkpt><trkpt lat="40.66509856385183" lon="8.228438347614894"><ele>37.0</ele><time>2026-05-02T11:32:26.999Z</time></trkpt><trkpt lat="40.665251338978955" lon="8.228429042838561"><ele>37.0</ele><time>2026-05-02T11:32:27.999Z</time></trkpt><trkpt lat="40.665403987567736" lon="8.228408043529543"><ele>37.0</ele><time>2026-05-02T11:32:28.999Z</time></trkpt><trkpt lat="40.66555790494727" lon="8.228396263639654"><ele>37.0</ele><time>2026-05-02T11:32:29.999Z</time></trkpt><trkpt lat="40.665709688000604" lon="8.22838090798583"><ele>37.0</ele><time>2026-05-02T11:32:30.999Z</time></trkpt><trkpt lat="40.66586688962572" lon="8.228365753911271"><ele>37.0</ele><time>2026-05-02T11:32:31.999Z</time></trkpt><trkpt lat="40.66602210378688" lon="8.228344823952801"><ele>37.0</ele><time>2026-05-02T11:32:32.999Z</time></trkpt><trkpt lat="40.66617953398472" lon="8.228332656513716"><ele>37.0</ele><time>2026-05-02T11:32:33.999Z</time></trkpt><trkpt lat="40.66633776696052" lon="8.228314909150013"><ele>37.66666666666667</ele><time>2026-05-02T11:32:34.999Z</time></trkpt><trkpt lat="40.666495227253286" lon="8.228301556290683"><ele>38.333333333333336</ele><time>2026-05-02T11:32:35.999Z</time></trkpt><trkpt lat="40.66665530453854" lon="8.22828520233313"><ele>39.0</ele><time>2026-05-02T11:32:36.999Z</time></trkpt><trkpt lat="40.666814523153874" lon="8.228269867845084"><ele>40.333333333333336</ele><time>2026-05-02T11:32:37.999Z</time></trkpt><trkpt lat="40.66697508463222" lon="8.228253600024951"><ele>41.66666666666667</ele><time>2026-05-02T11:32:38.999Z</time></trkpt><trkpt lat="40.667131519852155" lon="8.228242494021526"><ele>43.0</ele><time>2026-05-02T11:32:39.999Z</time></trkpt><trkpt lat="40.66729710534489" lon="8.228224351294793"><ele>43.0</ele><time>2026-05-02T11:32:40.999Z</time></trkpt><trkpt lat="40.667446083507336" lon="8.228210561093222"><ele>43.0</ele><time>2026-05-02T11:32:41.999Z</time></trkpt><trkpt lat="40.66760516380279" lon="8.228189687147102"><ele>43.0</ele><time>2026-05-02T11:32:42.999Z</time></trkpt><trkpt lat="40.667762321027155" lon="8.228183282723538"><ele>43.5</ele><time>2026-05-02T11:32:43.999Z</time></trkpt><trkpt lat="40.667917511100605" lon="8.228166080205876"><ele>44.0</ele><time>2026-05-02T11:32:44.999Z</time></trkpt><trkpt lat="40.668071301428824" lon="8.228151454101297"><ele>44.5</ele><time>2026-05-02T11:32:45.999Z</time></trkpt><trkpt lat="40.668207576286896" lon="8.228134316554208"><ele>45.0</ele><time>2026-05-02T11:32:46.999Z</time></trkpt><trkpt lat="40.66833062696551" lon="8.22812989749447"><ele>44.333333333333336</ele><time>2026-05-02T11:32:47.999Z</time></trkpt><trkpt lat="40.66843253663625" lon="8.228119722892938"><ele>43.666666666666664</ele><time>2026-05-02T11:32:48.999Z</time></trkpt><trkpt lat="40.66850380870445" lon="8.22811784609619"><ele>43.0</ele><time>2026-05-02T11:32:49.999Z</time></trkpt><trkpt lat="40.668583327979796" lon="8.228130420541735"><ele>42.33333333333333</ele><time>2026-05-02T11:32:51.999Z</time></trkpt><trkpt lat="40.668655128578585" lon="8.228131325364917"><ele>41.666666666666664</ele><time>2026-05-02T11:32:54.999Z</time></trkpt><trkpt lat="40.6687566312735" lon="8.228108170724404"><ele>41.0</ele><time>2026-05-02T11:32:56.999Z</time></trkpt><trkpt lat="40.668849253950675" lon="8.228105265231731"><ele>40.599999999999994</ele><time>2026-05-02T11:32:58.999Z</time></trkpt><trkpt lat="40.668954520889834" lon="8.228080566868798"><ele>40.199999999999996</ele><time>2026-05-02T11:33:00.999Z</time></trkpt><trkpt lat="40.669094826025955" lon="8.228073369256682"><ele>39.8</ele><time>2026-05-02T11:33:02.999Z</time></trkpt><trkpt lat="40.669182396408026" lon="8.228069526998281"><ele>39.4</ele><time>2026-05-02T11:33:03.999Z</time></trkpt><trkpt lat="40.66928093385836" lon="8.22805424487273"><ele>39.0</ele><time>2026-05-02T11:33:04.999Z</time></trkpt><trkpt lat="40.66939051400783" lon="8.228042108843754"><ele>38.75</ele><time>2026-05-02T11:33:05.999Z</time></trkpt><trkpt lat="40.669508618564535" lon="8.228028301609704"><ele>38.5</ele><time>2026-05-02T11:33:06.999Z</time></trkpt><trkpt lat="40.66963330730469" lon="8.228016692031844"><ele>38.25</ele><time>2026-05-02T11:33:07.999Z</time></trkpt><trkpt lat="40.66976499099741" lon="8.228005415828836"><ele>38.0</ele><time>2026-05-02T11:33:08.999Z</time></trkpt><trkpt lat="40.669901882713674" lon="8.22799176927628"><ele>38.0</ele><time>2026-05-02T11:33:09.999Z</time></trkpt><trkpt lat="40.67004366961047" lon="8.227975626361012"><ele>38.0</ele><time>2026-05-02T11:33:10.999Z</time></trkpt><trkpt lat="40.670195759298736" lon="8.227962868998256"><ele>38.0</ele><time>2026-05-02T11:33:11.999Z</time></trkpt><trkpt lat="40.67033930105872" lon="8.22794910500203"><ele>38.0</ele><time>2026-05-02T11:33:12.999Z</time></trkpt><trkpt lat="40.67049031594826" lon="8.22793471045469"><ele>38.33333333333333</ele><time>2026-05-02T11:33:13.999Z</time></trkpt><trkpt lat="40.67064379193906" lon="8.227927337428369"><ele>38.666666666666664</ele><time>2026-05-02T11:33:14.999Z</time></trkpt><trkpt lat="40.67080059667917" lon="8.227906221391303"><ele>39.0</ele><time>2026-05-02T11:33:15.999Z</time></trkpt><trkpt lat="40.67095911781843" lon="8.227886385401616"><ele>39.333333333333336</ele><time>2026-05-02T11:33:16.999Z</time></trkpt><trkpt lat="40.671120407257135" lon="8.227872313518324"><ele>39.66666666666667</ele><time>2026-05-02T11:33:17.999Z</time></trkpt><trkpt lat="40.67127915757067" lon="8.227853457789909"><ele>40.0</ele><time>2026-05-02T11:33:18.999Z</time></trkpt><trkpt lat="40.671440637526395" lon="8.22784919905637"><ele>40.0</ele><time>2026-05-02T11:33:19.999Z</time></trkpt><trkpt lat="40.67159630307699" lon="8.227829541627656"><ele>40.0</ele><time>2026-05-02T11:33:20.999Z</time></trkpt><trkpt lat="40.67175960204227" lon="8.227816233973986"><ele>40.0</ele><time>2026-05-02T11:33:21.999Z</time></trkpt><trkpt lat="40.67191895451623" lon="8.227794927194035"><ele>40.66666666666667</ele><time>2026-05-02T11:33:22.999Z</time></trkpt><trkpt lat="40.67207218703701" lon="8.227777923263165"><ele>41.333333333333336</ele><time>2026-05-02T11:33:23.999Z</time></trkpt><trkpt lat="40.672225182063414" lon="8.227763275097496"><ele>42.0</ele><time>2026-05-02T11:33:24.999Z</time></trkpt><trkpt lat="40.67237654048153" lon="8.227751500690353"><ele>42.0</ele><time>2026-05-02T11:33:25.999Z</time></trkpt><trkpt lat="40.67252913209267" lon="8.22772829806863"><ele>42.0</ele><time>2026-05-02T11:33:26.999Z</time></trkpt><trkpt lat="40.672674185258046" lon="8.227709480238746"><ele>42.0</ele><time>2026-05-02T11:33:27.999Z</time></trkpt><trkpt lat="40.672823151675864" lon="8.227699942790561"><ele>42.0</ele><time>2026-05-02T11:33:28.999Z</time></trkpt><trkpt lat="40.67296692942907" lon="8.227678047587467"><ele>42.25</ele><time>2026-05-02T11:33:29.999Z</time></trkpt><trkpt lat="40.67310997574881" lon="8.227668343311453"><ele>42.5</ele><time>2026-05-02T11:33:30.999Z</time></trkpt><trkpt lat="40.67323986389566" lon="8.227653884247873"><ele>42.75</ele><time>2026-05-02T11:33:31.999Z</time></trkpt><trkpt lat="40.673364756022025" lon="8.227637663852617"><ele>43.0</ele><time>2026-05-02T11:33:32.999Z</time></trkpt><trkpt lat="40.67348078178991" lon="8.22762795489545"><ele>43.0</ele><time>2026-05-02T11:33:33.999Z</time></trkpt><trkpt lat="40.67358206014757" lon="8.227616098177586"><ele>43.0</ele><time>2026-05-02T11:33:34.999Z</time></trkpt><trkpt lat="40.67367524639874" lon="8.227611973548512"><ele>43.0</ele><time>2026-05-02T11:33:35.999Z</time></trkpt><trkpt lat="40.67374758306152" lon="8.227605400805531"><ele>43.0</ele><time>2026-05-02T11:33:36.999Z</time></trkpt><trkpt lat="40.67383478045612" lon="8.227604609062974"><ele>43.0</ele><time>2026-05-02T11:33:37.999Z</time></trkpt><trkpt lat="40.67392845737871" lon="8.22760823974544"><ele>43.0</ele><time>2026-05-02T11:33:40.999Z</time></trkpt><trkpt lat="40.67385145657812" lon="8.227607864742195"><ele>42.8</ele><time>2026-05-02T11:34:15Z</time></trkpt><trkpt lat="40.673778790627026" lon="8.227615240709552"><ele>42.599999999999994</ele><time>2026-05-02T11:34:18Z</time></trkpt><trkpt lat="40.673834527788976" lon="8.227363774920294"><ele>42.400000000000006</ele><time>2026-05-02T11:37:25Z</time></trkpt><trkpt lat="40.67382627283942" lon="8.227276145781893"><ele>42.2</ele><time>2026-05-02T11:37:34Z</time></trkpt><trkpt lat="40.67388919018257" lon="8.22726604080472"><ele>42.0</ele><time>2026-05-02T12:15:18Z</time></trkpt><trkpt lat="40.673832308078154" lon="8.22732642189049"><ele>42.57142857142857</ele><time>2026-05-02T12:15:49Z</time></trkpt><trkpt lat="40.673815586372505" lon="8.227417461827093"><ele>43.14285714285714</ele><time>2026-05-02T12:16:08Z</time></trkpt><trkpt lat="40.6737653731244" lon="8.227479942629168"><ele>43.714285714285715</ele><time>2026-05-02T12:16:20Z</time></trkpt><trkpt lat="40.673828571328386" lon="8.227471101614231"><ele>44.285714285714285</ele><time>2026-05-02T12:20:47Z</time></trkpt><trkpt lat="40.67390763243108" lon="8.227476449637905"><ele>44.857142857142854</ele><time>2026-05-02T12:20:51Z</time></trkpt><trkpt lat="40.67393383668217" lon="8.227567567860564"><ele>45.42857142857143</ele><time>2026-05-02T12:20:55Z</time></trkpt><trkpt lat="40.67386682578836" lon="8.227625275960895"><ele>46.0</ele><time>2026-05-02T12:20:59Z</time></trkpt><trkpt lat="40.67378054162236" lon="8.227627019734895"><ele>46.0</ele><time>2026-05-02T12:21:01Z</time></trkpt><trkpt lat="40.67369563470336" lon="8.227626013683764"><ele>46.0</ele><time>2026-05-02T12:21:03Z</time></trkpt><trkpt lat="40.67359621333894" lon="8.22762743009703"><ele>46.0</ele><time>2026-05-02T12:21:05Z</time></trkpt><trkpt lat="40.67351515128877" lon="8.22762477875494"><ele>46.0</ele><time>2026-05-02T12:21:07Z</time></trkpt><trkpt lat="40.673440585942835" lon="8.227630458707639"><ele>46.0</ele><time>2026-05-02T12:21:10Z</time></trkpt><trkpt lat="40.67334000451025" lon="8.227660732873076"><ele>46.0</ele><time>2026-05-02T12:21:31Z</time></trkpt><trkpt lat="40.673211482644504" lon="8.227674779969746"><ele>45.5</ele><time>2026-05-02T12:21:33Z</time></trkpt><trkpt lat="40.67313402386012" lon="8.227631952676358"><ele>45.0</ele><time>2026-05-02T12:21:34Z</time></trkpt><trkpt lat="40.67305534926047" lon="8.227639345090337"><ele>44.5</ele><time>2026-05-02T12:21:35Z</time></trkpt><trkpt lat="40.67297848449979" lon="8.227646567462923"><ele>44.0</ele><time>2026-05-02T12:21:36Z</time></trkpt><trkpt lat="40.672903458481464" lon="8.227653617050738"><ele>43.5</ele><time>2026-05-02T12:21:37Z</time></trkpt><trkpt lat="40.67278501589962" lon="8.227665865609529"><ele>43.0</ele><time>2026-05-02T12:21:39Z</time></trkpt><trkpt lat="40.67267636349242" lon="8.227677322006294"><ele>42.833333333333336</ele><time>2026-05-02T12:21:41Z</time></trkpt><trkpt lat="40.672555261309036" lon="8.2276904957309"><ele>42.66666666666667</ele><time>2026-05-02T12:21:43Z</time></trkpt><trkpt lat="40.6724790832303" lon="8.22769903610462"><ele>42.5</ele><time>2026-05-02T12:21:44Z</time></trkpt><trkpt lat="40.672411524539584" lon="8.227706610132374"><ele>42.333333333333336</ele><time>2026-05-02T12:21:45Z</time></trkpt><trkpt lat="40.67233072240452" lon="8.227715668899467"><ele>42.166666666666664</ele><time>2026-05-02T12:21:46Z</time></trkpt><trkpt lat="40.6722626147031" lon="8.227722893167394"><ele>42.0</ele><time>2026-05-02T12:21:47Z</time></trkpt><trkpt lat="40.67217619107818" lon="8.22773173638487"><ele>42.0</ele><time>2026-05-02T12:21:48Z</time></trkpt><trkpt lat="40.67208249878521" lon="8.22774132333929"><ele>42.0</ele><time>2026-05-02T12:21:49Z</time></trkpt><trkpt lat="40.6720046032427" lon="8.227749293925793"><ele>42.0</ele><time>2026-05-02T12:21:50Z</time></trkpt><trkpt lat="40.67190906881852" lon="8.22775906937005"><ele>42.0</ele><time>2026-05-02T12:21:51Z</time></trkpt><trkpt lat="40.67181919155798" lon="8.227768265978687"><ele>42.0</ele><time>2026-05-02T12:21:52Z</time></trkpt><trkpt lat="40.6717206629317" lon="8.227778347814288"><ele>41.6</ele><time>2026-05-02T12:21:53Z</time></trkpt><trkpt lat="40.671625049840856" lon="8.227788131333124"><ele>41.2</ele><time>2026-05-02T12:21:54Z</time></trkpt><trkpt lat="40.67152727204938" lon="8.227798136342734"><ele>40.8</ele><time>2026-05-02T12:21:55Z</time></trkpt><trkpt lat="40.67142899772211" lon="8.227808192158442"><ele>40.4</ele><time>2026-05-02T12:21:56Z</time></trkpt><trkpt lat="40.671328094742684" lon="8.227818516951924"><ele>40.0</ele><time>2026-05-02T12:21:57Z</time></trkpt><trkpt lat="40.67121913105515" lon="8.227829666547922"><ele>40.0</ele><time>2026-05-02T12:21:58Z</time></trkpt><trkpt lat="40.67111163422451" lon="8.227840666049667"><ele>40.0</ele><time>2026-05-02T12:21:59Z</time></trkpt><trkpt lat="40.6710070728672" lon="8.227851365207629"><ele>40.0</ele><time>2026-05-02T12:22:00Z</time></trkpt><trkpt lat="40.67089105684716" lon="8.227863236393754"><ele>40.0</ele><time>2026-05-02T12:22:01Z</time></trkpt><trkpt lat="40.6707845878847" lon="8.22787337514397"><ele>40.0</ele><time>2026-05-02T12:22:02Z</time></trkpt><trkpt lat="40.67067712856895" lon="8.227883338818321"><ele>39.75</ele><time>2026-05-02T12:22:03Z</time></trkpt><trkpt lat="40.67056165185247" lon="8.227894045886465"><ele>39.5</ele><time>2026-05-02T12:22:04Z</time></trkpt><trkpt lat="40.67044658429721" lon="8.227905086540504"><ele>39.25</ele><time>2026-05-02T12:22:05Z</time></trkpt><trkpt lat="40.670332026724054" lon="8.227916764897579"><ele>39.0</ele><time>2026-05-02T12:22:06Z</time></trkpt><trkpt lat="40.67021199375033" lon="8.22792900141979"><ele>38.75</ele><time>2026-05-02T12:22:07Z</time></trkpt><trkpt lat="40.67009473427442" lon="8.227940618568798"><ele>38.5</ele><time>2026-05-02T12:22:08Z</time></trkpt><trkpt lat="40.66997553108783" lon="8.22795168690856"><ele>38.25</ele><time>2026-05-02T12:22:09Z</time></trkpt><trkpt lat="40.66985437136222" lon="8.227962936906078"><ele>38.0</ele><time>2026-05-02T12:22:10Z</time></trkpt><trkpt lat="40.669739935094135" lon="8.22797356261652"><ele>38.0</ele><time>2026-05-02T12:22:11Z</time></trkpt><trkpt lat="40.66962144868163" lon="8.227984877801607"><ele>38.0</ele><time>2026-05-02T12:22:12Z</time></trkpt><trkpt lat="40.669497969146676" lon="8.227997508263584"><ele>38.0</ele><time>2026-05-02T12:22:13Z</time></trkpt><trkpt lat="40.669391474986654" lon="8.228008401326136"><ele>38.0</ele><time>2026-05-02T12:22:14Z</time></trkpt><trkpt lat="40.66927033002998" lon="8.228020792979748"><ele>38.199999999999996</ele><time>2026-05-02T12:22:15Z</time></trkpt><trkpt lat="40.669158702262656" lon="8.228032211148202"><ele>38.4</ele><time>2026-05-02T12:22:16Z</time></trkpt><trkpt lat="40.669070478424686" lon="8.22804123537157"><ele>38.599999999999994</ele><time>2026-05-02T12:22:17Z</time></trkpt><trkpt lat="40.66898938226469" lon="8.228049530527118"><ele>38.8</ele><time>2026-05-02T12:22:18Z</time></trkpt><trkpt lat="40.6689160145651" lon="8.228057035151176"><ele>39.0</ele><time>2026-05-02T12:22:19Z</time></trkpt><trkpt lat="40.668795284884105" lon="8.22806821096155"><ele>39.0</ele><time>2026-05-02T12:22:21Z</time></trkpt><trkpt lat="40.66871962082772" lon="8.228073295761643"><ele>39.0</ele><time>2026-05-02T12:22:23Z</time></trkpt><trkpt lat="40.668654512551186" lon="8.228075266806432"><ele>39.0</ele><time>2026-05-02T12:22:25Z</time></trkpt><trkpt lat="40.668559003398926" lon="8.228078621058728"><ele>39.0</ele><time>2026-05-02T12:22:28Z</time></trkpt><trkpt lat="40.66849134895632" lon="8.228078925975392"><ele>39.0</ele><time>2026-05-02T12:22:29Z</time></trkpt><trkpt lat="40.66840235758913" lon="8.22808327001786"><ele>39.0</ele><time>2026-05-02T12:22:30Z</time></trkpt><trkpt lat="40.66831203132513" lon="8.228090057135981"><ele>38.8</ele><time>2026-05-02T12:22:31Z</time></trkpt><trkpt lat="40.66820897381698" lon="8.228099962444317"><ele>38.599999999999994</ele><time>2026-05-02T12:22:32Z</time></trkpt><trkpt lat="40.6681000312503" lon="8.228110435973038"><ele>38.4</ele><time>2026-05-02T12:22:33Z</time></trkpt><trkpt lat="40.667987480754526" lon="8.228121256342204"><ele>38.199999999999996</ele><time>2026-05-02T12:22:34Z</time></trkpt><trkpt lat="40.66787386371898" lon="8.228132179249556"><ele>38.0</ele><time>2026-05-02T12:22:35Z</time></trkpt><trkpt lat="40.667759515041304" lon="8.228143172503792"><ele>39.25</ele><time>2026-05-02T12:22:36Z</time></trkpt><trkpt lat="40.6676444587196" lon="8.228154233785592"><ele>40.5</ele><time>2026-05-02T12:22:37Z</time></trkpt><trkpt lat="40.66752474591715" lon="8.228165742731381"><ele>41.75</ele><time>2026-05-02T12:22:38Z</time></trkpt><trkpt lat="40.66740692396938" lon="8.228177069899095"><ele>43.0</ele><time>2026-05-02T12:22:39Z</time></trkpt><trkpt lat="40.66728690927429" lon="8.228188607873234"><ele>43.0</ele><time>2026-05-02T12:22:40Z</time></trkpt><trkpt lat="40.6671654768954" lon="8.228200282133107"><ele>43.0</ele><time>2026-05-02T12:22:41Z</time></trkpt><trkpt lat="40.667045773234825" lon="8.228211790199694"><ele>43.0</ele><time>2026-05-02T12:22:42Z</time></trkpt><trkpt lat="40.66692272807003" lon="8.228223619520373"><ele>43.0</ele><time>2026-05-02T12:22:43Z</time></trkpt><trkpt lat="40.666797806306896" lon="8.228235629248852"><ele>42.0</ele><time>2026-05-02T12:22:44Z</time></trkpt><trkpt lat="40.6666781438389" lon="8.228247359520566"><ele>41.0</ele><time>2026-05-02T12:22:45Z</time></trkpt><trkpt lat="40.66655297266842" lon="8.228259888898"><ele>40.0</ele><time>2026-05-02T12:22:46Z</time></trkpt><trkpt lat="40.666427244092645" lon="8.228272474076038"><ele>39.0</ele><time>2026-05-02T12:22:47Z</time></trkpt><trkpt lat="40.666300977698135" lon="8.228285113088488"><ele>39.0</ele><time>2026-05-02T12:22:48Z</time></trkpt><trkpt lat="40.66617155673321" lon="8.22829806786747"><ele>39.0</ele><time>2026-05-02T12:22:49Z</time></trkpt><trkpt lat="40.66604430859394" lon="8.228310805147805"><ele>39.0</ele><time>2026-05-02T12:22:50Z</time></trkpt><trkpt lat="40.66591152561258" lon="8.22832409645226"><ele>39.0</ele><time>2026-05-02T12:22:51Z</time></trkpt><trkpt lat="40.665779797347504" lon="8.228337282194323"><ele>38.5</ele><time>2026-05-02T12:22:52Z</time></trkpt><trkpt lat="40.66564829480743" lon="8.228350445330117"><ele>38.0</ele><time>2026-05-02T12:22:53Z</time></trkpt><trkpt lat="40.66551851294551" lon="8.228363436231094"><ele>37.5</ele><time>2026-05-02T12:22:54Z</time></trkpt><trkpt lat="40.665392647521735" lon="8.228375952678126"><ele>37.0</ele><time>2026-05-02T12:22:55Z</time></trkpt><trkpt lat="40.66527448609865" lon="8.228387715119084"><ele>37.0</ele><time>2026-05-02T12:22:56Z</time></trkpt><trkpt lat="40.66515656205912" lon="8.22840023932524"><ele>37.0</ele><time>2026-05-02T12:22:57Z</time></trkpt><trkpt lat="40.66503208517736" lon="8.228413459485873"><ele>37.0</ele><time>2026-05-02T12:22:58Z</time></trkpt><trkpt lat="40.664909305281604" lon="8.228426499415997"><ele>37.0</ele><time>2026-05-02T12:22:59Z</time></trkpt><trkpt lat="40.66477912044231" lon="8.228439607590971"><ele>37.0</ele><time>2026-05-02T12:23:00Z</time></trkpt><trkpt lat="40.664651965056464" lon="8.22845169431029"><ele>37.0</ele><time>2026-05-02T12:23:01Z</time></trkpt><trkpt lat="40.66452410832362" lon="8.228463847692032"><ele>37.0</ele><time>2026-05-02T12:23:02Z</time></trkpt><trkpt lat="40.66438985854397" lon="8.228476608767924"><ele>37.0</ele><time>2026-05-02T12:23:03Z</time></trkpt><trkpt lat="40.66425518062427" lon="8.228491496560046"><ele>36.75</ele><time>2026-05-02T12:23:04Z</time></trkpt><trkpt lat="40.6641173102971" lon="8.228507633035598"><ele>36.5</ele><time>2026-05-02T12:23:05Z</time></trkpt><trkpt lat="40.66398021692201" lon="8.228523678577783"><ele>36.25</ele><time>2026-05-02T12:23:06Z</time></trkpt><trkpt lat="40.66383884862894" lon="8.228537718743135"><ele>36.0</ele><time>2026-05-02T12:23:07Z</time></trkpt><trkpt lat="40.663698381965226" lon="8.228551506538677"><ele>35.75</ele><time>2026-05-02T12:23:08Z</time></trkpt><trkpt lat="40.663554683882566" lon="8.228565611517002"><ele>35.5</ele><time>2026-05-02T12:23:09Z</time></trkpt><trkpt lat="40.66341492910441" lon="8.228579329458862"><ele>35.25</ele><time>2026-05-02T12:23:10Z</time></trkpt><trkpt lat="40.66327393464917" lon="8.22859316905664"><ele>35.0</ele><time>2026-05-02T12:23:11Z</time></trkpt><trkpt lat="40.66313257705992" lon="8.228606497658266"><ele>35.0</ele><time>2026-05-02T12:23:12Z</time></trkpt><trkpt lat="40.66299366054179" lon="8.228619107487656"><ele>35.0</ele><time>2026-05-02T12:23:13Z</time></trkpt><trkpt lat="40.66286545552994" lon="8.22863154851547"><ele>35.0</ele><time>2026-05-02T12:23:14Z</time></trkpt><trkpt lat="40.66274778739292" lon="8.228643498213831"><ele>35.0</ele><time>2026-05-02T12:23:15Z</time></trkpt><trkpt lat="40.66263451634913" lon="8.2286547494824"><ele>35.2</ele><time>2026-05-02T12:23:16Z</time></trkpt><trkpt lat="40.66252325684202" lon="8.228665073889205"><ele>35.4</ele><time>2026-05-02T12:23:17Z</time></trkpt><trkpt lat="40.66242254293067" lon="8.228674419722086"><ele>35.6</ele><time>2026-05-02T12:23:18Z</time></trkpt><trkpt lat="40.66233560636392" lon="8.228682487081876"><ele>35.8</ele><time>2026-05-02T12:23:19Z</time></trkpt><trkpt lat="40.66223874711676" lon="8.228691475250047"><ele>36.0</ele><time>2026-05-02T12:23:21Z</time></trkpt><trkpt lat="40.66216005846623" lon="8.228699362873833"><ele>36.0</ele><time>2026-05-02T12:23:23Z</time></trkpt><trkpt lat="40.66208749524519" lon="8.228706603777724"><ele>36.0</ele><time>2026-05-02T12:23:24Z</time></trkpt><trkpt lat="40.6620064229799" lon="8.228714692069614"><ele>36.0</ele><time>2026-05-02T12:23:25Z</time></trkpt><trkpt lat="40.661913993647" lon="8.228723913421236"><ele>36.0</ele><time>2026-05-02T12:23:26Z</time></trkpt><trkpt lat="40.66181548714818" lon="8.228733741070908"><ele>36.0</ele><time>2026-05-02T12:23:27Z</time></trkpt><trkpt lat="40.66170749489207" lon="8.228744699983634"><ele>36.25</ele><time>2026-05-02T12:23:28Z</time></trkpt><trkpt lat="40.66159314460413" lon="8.228756431485461"><ele>36.5</ele><time>2026-05-02T12:23:29Z</time></trkpt><trkpt lat="40.66147642447565" lon="8.228768406116012"><ele>36.75</ele><time>2026-05-02T12:23:30Z</time></trkpt><trkpt lat="40.66135538180143" lon="8.228780824207268"><ele>37.0</ele><time>2026-05-02T12:23:31Z</time></trkpt><trkpt lat="40.66123291995343" lon="8.228793387897639"><ele>36.5</ele><time>2026-05-02T12:23:32Z</time></trkpt><trkpt lat="40.66110737748862" lon="8.228806267635656"><ele>36.0</ele><time>2026-05-02T12:23:33Z</time></trkpt><trkpt lat="40.66098130299507" lon="8.228819201955183"><ele>35.5</ele><time>2026-05-02T12:23:34Z</time></trkpt><trkpt lat="40.66085299879551" lon="8.228832365025596"><ele>35.0</ele><time>2026-05-02T12:23:35Z</time></trkpt><trkpt lat="40.660718172837214" lon="8.228864543827221"><ele>35.0</ele><time>2026-05-02T12:23:36Z</time></trkpt><trkpt lat="40.66059208184308" lon="8.228859133198005"><ele>35.0</ele><time>2026-05-02T12:23:37Z</time></trkpt><trkpt lat="40.66046157647925" lon="8.228872522087297"><ele>35.0</ele><time>2026-05-02T12:23:38Z</time></trkpt><trkpt lat="40.66032835134335" lon="8.228885216662517"><ele>35.0</ele><time>2026-05-02T12:23:39Z</time></trkpt><trkpt lat="40.660197712051094" lon="8.228913384076122"><ele>35.0</ele><time>2026-05-02T12:23:40Z</time></trkpt><trkpt lat="40.660072147723895" lon="8.228908969886083"><ele>35.0</ele><time>2026-05-02T12:23:41Z</time></trkpt><trkpt lat="40.65995123513245" lon="8.228920338758005"><ele>35.0</ele><time>2026-05-02T12:23:42Z</time></trkpt><trkpt lat="40.65983050366254" lon="8.228932243289476"><ele>35.0</ele><time>2026-05-02T12:23:43Z</time></trkpt><trkpt lat="40.659706663462046" lon="8.228944454350179"><ele>35.0</ele><time>2026-05-02T12:23:44Z</time></trkpt><trkpt lat="40.659579241797" lon="8.228974745549051"><ele>35.0</ele><time>2026-05-02T12:23:45Z</time></trkpt><trkpt lat="40.6594589766614" lon="8.228968877108402"><ele>35.0</ele><time>2026-05-02T12:23:46Z</time></trkpt><trkpt lat="40.65932684954746" lon="8.228999327345257"><ele>35.0</ele><time>2026-05-02T12:23:47Z</time></trkpt><trkpt lat="40.65919790851291" lon="8.228994619310967"><ele>35.5</ele><time>2026-05-02T12:23:48Z</time></trkpt><trkpt lat="40.65906434891734" lon="8.229007788739183"><ele>36.0</ele><time>2026-05-02T12:23:49Z</time></trkpt><trkpt lat="40.65892971381969" lon="8.229021659387586"><ele>36.5</ele><time>2026-05-02T12:23:50Z</time></trkpt><trkpt lat="40.6587935072121" lon="8.229035933385653"><ele>37.0</ele><time>2026-05-02T12:23:51Z</time></trkpt><trkpt lat="40.65865685008428" lon="8.229050254596517"><ele>36.75</ele><time>2026-05-02T12:23:52Z</time></trkpt><trkpt lat="40.65851865027784" lon="8.229063507855543"><ele>36.5</ele><time>2026-05-02T12:23:53Z</time></trkpt><trkpt lat="40.658382326795184" lon="8.229076437761808"><ele>36.25</ele><time>2026-05-02T12:23:54Z</time></trkpt><trkpt lat="40.65824657417649" lon="8.229110342711317"><ele>36.0</ele><time>2026-05-02T12:23:55Z</time></trkpt><trkpt lat="40.658112216414935" lon="8.229103008139353"><ele>36.0</ele><time>2026-05-02T12:23:56Z</time></trkpt><trkpt lat="40.657982508868265" lon="8.22911666007839"><ele>36.0</ele><time>2026-05-02T12:23:57Z</time></trkpt><trkpt lat="40.657857063600815" lon="8.229129863404694"><ele>36.0</ele><time>2026-05-02T12:23:58Z</time></trkpt><trkpt lat="40.65773055421336" lon="8.229142979710211"><ele>36.0</ele><time>2026-05-02T12:23:59Z</time></trkpt><trkpt lat="40.65760343177016" lon="8.22915457830736"><ele>35.75</ele><time>2026-05-02T12:24:00Z</time></trkpt><trkpt lat="40.657476944784115" lon="8.229166118835298"><ele>35.5</ele><time>2026-05-02T12:24:01Z</time></trkpt><trkpt lat="40.65735064957369" lon="8.22917764193298"><ele>35.25</ele><time>2026-05-02T12:24:02Z</time></trkpt><trkpt lat="40.6572231914971" lon="8.229190266997097"><ele>35.0</ele><time>2026-05-02T12:24:03Z</time></trkpt><trkpt lat="40.6570972271567" lon="8.229203306667738"><ele>35.0</ele><time>2026-05-02T12:24:04Z</time></trkpt><trkpt lat="40.65697096569924" lon="8.229216377091273"><ele>35.0</ele><time>2026-05-02T12:24:05Z</time></trkpt><trkpt lat="40.65684641351865" lon="8.22922901883028"><ele>35.0</ele><time>2026-05-02T12:24:06Z</time></trkpt><trkpt lat="40.6567200669427" lon="8.229240256187593"><ele>35.0</ele><time>2026-05-02T12:24:07Z</time></trkpt><trkpt lat="40.65659407290324" lon="8.229251462190621"><ele>35.25</ele><time>2026-05-02T12:24:08Z</time></trkpt><trkpt lat="40.65647508931702" lon="8.229262044678945"><ele>35.5</ele><time>2026-05-02T12:24:09Z</time></trkpt><trkpt lat="40.65634348160387" lon="8.22928793784423"><ele>35.75</ele><time>2026-05-02T12:24:10Z</time></trkpt><trkpt lat="40.65622300118945" lon="8.229284465581902"><ele>36.0</ele><time>2026-05-02T12:24:11Z</time></trkpt><trkpt lat="40.656113141592556" lon="8.22929423657436"><ele>36.0</ele><time>2026-05-02T12:24:12Z</time></trkpt><trkpt lat="40.65601920053728" lon="8.229302591761938"><ele>36.0</ele><time>2026-05-02T12:24:13Z</time></trkpt><trkpt lat="40.65593726590575" lon="8.229309879088301"><ele>36.0</ele><time>2026-05-02T12:24:14Z</time></trkpt><trkpt lat="40.65585089735036" lon="8.229330776732674"><ele>36.0</ele><time>2026-05-02T12:24:16Z</time></trkpt><trkpt lat="40.655797109721966" lon="8.229281963695753"><ele>36.0</ele><time>2026-05-02T12:24:21Z</time></trkpt><trkpt lat="40.655782796371945" lon="8.229156697419343"><ele>36.0</ele><time>2026-05-02T12:24:23Z</time></trkpt><trkpt lat="40.655783247216384" lon="8.229054793805531"><ele>36.0</ele><time>2026-05-02T12:24:24Z</time></trkpt><trkpt lat="40.65577929800124" lon="8.22894097336612"><ele>36.0</ele><time>2026-05-02T12:24:25Z</time></trkpt><trkpt lat="40.6557712827531" lon="8.22880762720134"><ele>36.0</ele><time>2026-05-02T12:24:26Z</time></trkpt><trkpt lat="40.655763816920974" lon="8.228662167063217"><ele>36.0</ele><time>2026-05-02T12:24:27Z</time></trkpt><trkpt lat="40.65575365748396" lon="8.228502787531676"><ele>36.0</ele><time>2026-05-02T12:24:28Z</time></trkpt><trkpt lat="40.6557483925243" lon="8.228332239288893"><ele>36.0</ele><time>2026-05-02T12:24:29Z</time></trkpt><trkpt lat="40.65573849490428" lon="8.228150494122394"><ele>36.0</ele><time>2026-05-02T12:24:30Z</time></trkpt><trkpt lat="40.655729335528875" lon="8.227966151534664"><ele>36.0</ele><time>2026-05-02T12:24:31Z</time></trkpt><trkpt lat="40.65571696241676" lon="8.227775011682356"><ele>36.0</ele><time>2026-05-02T12:24:32Z</time></trkpt><trkpt lat="40.65570338685147" lon="8.227583399280435"><ele>35.5</ele><time>2026-05-02T12:24:33Z</time></trkpt><trkpt lat="40.65568996783323" lon="8.227387663433374"><ele>35.0</ele><time>2026-05-02T12:24:34Z</time></trkpt><trkpt lat="40.65568182992098" lon="8.227189319694592"><ele>34.5</ele><time>2026-05-02T12:24:35Z</time></trkpt><trkpt lat="40.65566850902992" lon="8.226993652925831"><ele>34.0</ele><time>2026-05-02T12:24:36Z</time></trkpt><trkpt lat="40.65566160643475" lon="8.226798274656305"><ele>34.0</ele><time>2026-05-02T12:24:37Z</time></trkpt><trkpt lat="40.655642922592286" lon="8.226610097587255"><ele>34.0</ele><time>2026-05-02T12:24:38Z</time></trkpt><trkpt lat="40.65563372829016" lon="8.226427584067572"><ele>34.0</ele><time>2026-05-02T12:24:39Z</time></trkpt><trkpt lat="40.65562291997353" lon="8.226238416837198"><ele>34.0</ele><time>2026-05-02T12:24:40Z</time></trkpt><trkpt lat="40.65561395637633" lon="8.226042921216733"><ele>34.0</ele><time>2026-05-02T12:24:41Z</time></trkpt><trkpt lat="40.65560343997391" lon="8.225853642871733"><ele>34.0</ele><time>2026-05-02T12:24:42Z</time></trkpt><trkpt lat="40.65559207073081" lon="8.225660620875196"><ele>34.0</ele><time>2026-05-02T12:24:43Z</time></trkpt><trkpt lat="40.655578837324384" lon="8.2254752535006"><ele>34.0</ele><time>2026-05-02T12:24:44Z</time></trkpt><trkpt lat="40.655570322294075" lon="8.225287313732853"><ele>34.0</ele><time>2026-05-02T12:24:45Z</time></trkpt><trkpt lat="40.655559629358535" lon="8.225107917096652"><ele>34.0</ele><time>2026-05-02T12:24:46Z</time></trkpt><trkpt lat="40.655549946068774" lon="8.224926669892515"><ele>34.0</ele><time>2026-05-02T12:24:47Z</time></trkpt><trkpt lat="40.65554105447923" lon="8.224747303705337"><ele>34.0</ele><time>2026-05-02T12:24:48Z</time></trkpt><trkpt lat="40.655535182263044" lon="8.22457585269349"><ele>34.0</ele><time>2026-05-02T12:24:49Z</time></trkpt><trkpt lat="40.655519297469134" lon="8.224394694419566"><ele>34.0</ele><time>2026-05-02T12:24:50Z</time></trkpt><trkpt lat="40.65551076112446" lon="8.224216285433878"><ele>34.0</ele><time>2026-05-02T12:24:51Z</time></trkpt><trkpt lat="40.65549865388813" lon="8.224021466074465"><ele>34.0</ele><time>2026-05-02T12:24:52Z</time></trkpt><trkpt lat="40.65548712976706" lon="8.223831882948618"><ele>34.333333333333336</ele><time>2026-05-02T12:24:53Z</time></trkpt><trkpt lat="40.65547737820521" lon="8.22363682206234"><ele>34.666666666666664</ele><time>2026-05-02T12:24:54Z</time></trkpt><trkpt lat="40.65545382191629" lon="8.223423166314204"><ele>35.0</ele><time>2026-05-02T12:24:55Z</time></trkpt><trkpt lat="40.65545653744102" lon="8.223197964683424"><ele>34.75</ele><time>2026-05-02T12:24:56Z</time></trkpt><trkpt lat="40.65543759095147" lon="8.223033818220244"><ele>34.5</ele><time>2026-05-02T12:24:57Z</time></trkpt><trkpt lat="40.655426219789064" lon="8.222832241167515"><ele>34.25</ele><time>2026-05-02T12:24:58Z</time></trkpt><trkpt lat="40.655413188109776" lon="8.222619603580178"><ele>34.0</ele><time>2026-05-02T12:24:59Z</time></trkpt><trkpt lat="40.65540504457169" lon="8.222411347595212"><ele>34.0</ele><time>2026-05-02T12:25:00Z</time></trkpt><trkpt lat="40.655391450217316" lon="8.222211771472434"><ele>34.0</ele><time>2026-05-02T12:25:01Z</time></trkpt><trkpt lat="40.655380972520035" lon="8.221994029609846"><ele>34.0</ele><time>2026-05-02T12:25:02Z</time></trkpt><trkpt lat="40.655368551949685" lon="8.221791081684543"><ele>34.0</ele><time>2026-05-02T12:25:03Z</time></trkpt><trkpt lat="40.65535151784797" lon="8.221571818140486"><ele>34.0</ele><time>2026-05-02T12:25:04Z</time></trkpt><trkpt lat="40.655342460473406" lon="8.221364209381683"><ele>34.0</ele><time>2026-05-02T12:25:05Z</time></trkpt><trkpt lat="40.655330664243905" lon="8.221151101681265"><ele>34.333333333333336</ele><time>2026-05-02T12:25:06Z</time></trkpt><trkpt lat="40.65531692772822" lon="8.220934630352263"><ele>34.666666666666664</ele><time>2026-05-02T12:25:07Z</time></trkpt><trkpt lat="40.65529976397772" lon="8.22071974074076"><ele>35.0</ele><time>2026-05-02T12:25:08Z</time></trkpt><trkpt lat="40.65529323472425" lon="8.220501890571034"><ele>35.0</ele><time>2026-05-02T12:25:09Z</time></trkpt><trkpt lat="40.65528732952994" lon="8.22026456944451"><ele>35.0</ele><time>2026-05-02T12:25:10Z</time></trkpt><trkpt lat="40.65527293535353" lon="8.220015575596204"><ele>35.0</ele><time>2026-05-02T12:25:11Z</time></trkpt><trkpt lat="40.655248614907265" lon="8.219840256937864"><ele>35.666666666666664</ele><time>2026-05-02T12:25:12Z</time></trkpt><trkpt lat="40.65524891875509" lon="8.219599197530307"><ele>36.333333333333336</ele><time>2026-05-02T12:25:13Z</time></trkpt><trkpt lat="40.655235224465734" lon="8.21936177818826"><ele>37.0</ele><time>2026-05-02T12:25:14Z</time></trkpt><trkpt lat="40.65522106783363" lon="8.219116343211997"><ele>37.0</ele><time>2026-05-02T12:25:15Z</time></trkpt><trkpt lat="40.655207588083805" lon="8.2188826433953"><ele>37.0</ele><time>2026-05-02T12:25:16Z</time></trkpt><trkpt lat="40.65517841398813" lon="8.218646036520958"><ele>37.0</ele><time>2026-05-02T12:25:17Z</time></trkpt><trkpt lat="40.655164831023704" lon="8.218405352994461"><ele>37.0</ele><time>2026-05-02T12:25:18Z</time></trkpt><trkpt lat="40.65515164835348" lon="8.218165343445342"><ele>37.0</ele><time>2026-05-02T12:25:19Z</time></trkpt><trkpt lat="40.65513993202105" lon="8.217927720842285"><ele>37.0</ele><time>2026-05-02T12:25:20Z</time></trkpt><trkpt lat="40.65512449750407" lon="8.217690826107603"><ele>37.0</ele><time>2026-05-02T12:25:21Z</time></trkpt><trkpt lat="40.65512479162064" lon="8.217452447981746"><ele>37.0</ele><time>2026-05-02T12:25:22Z</time></trkpt><trkpt lat="40.65509386717533" lon="8.217205323964334"><ele>37.0</ele><time>2026-05-02T12:25:23Z</time></trkpt><trkpt lat="40.655095908140154" lon="8.216959800990828"><ele>37.0</ele><time>2026-05-02T12:25:24Z</time></trkpt><trkpt lat="40.655081473618466" lon="8.216713600629888"><ele>37.0</ele><time>2026-05-02T12:25:25Z</time></trkpt><trkpt lat="40.655053243037415" lon="8.216468248536946"><ele>37.0</ele><time>2026-05-02T12:25:26Z</time></trkpt><trkpt lat="40.655053016810214" lon="8.216221415660721"><ele>37.0</ele><time>2026-05-02T12:25:27Z</time></trkpt><trkpt lat="40.6550269477158" lon="8.21597617606476"><ele>37.0</ele><time>2026-05-02T12:25:28Z</time></trkpt><trkpt lat="40.655012744691504" lon="8.215734953624663"><ele>37.0</ele><time>2026-05-02T12:25:29Z</time></trkpt><trkpt lat="40.65499592101225" lon="8.215496401675074"><ele>37.0</ele><time>2026-05-02T12:25:30Z</time></trkpt><trkpt lat="40.65498514877836" lon="8.215271216229832"><ele>37.0</ele><time>2026-05-02T12:25:31Z</time></trkpt><trkpt lat="40.65498571128968" lon="8.21505188683023"><ele>37.0</ele><time>2026-05-02T12:25:32Z</time></trkpt><trkpt lat="40.65497304086736" lon="8.214831720299202"><ele>37.0</ele><time>2026-05-02T12:25:33Z</time></trkpt><trkpt lat="40.654946870431274" lon="8.21461115349401"><ele>37.0</ele><time>2026-05-02T12:25:34Z</time></trkpt><trkpt lat="40.65493114883852" lon="8.214378697304111"><ele>37.0</ele><time>2026-05-02T12:25:35Z</time></trkpt><trkpt lat="40.654923965696796" lon="8.214159918325228"><ele>36.66666666666667</ele><time>2026-05-02T12:25:36Z</time></trkpt><trkpt lat="40.65490950665078" lon="8.213923709523346"><ele>36.333333333333336</ele><time>2026-05-02T12:25:37Z</time></trkpt><trkpt lat="40.654895172933244" lon="8.213692850242106"><ele>36.0</ele><time>2026-05-02T12:25:38Z</time></trkpt><trkpt lat="40.654882001332574" lon="8.213456324141124"><ele>36.0</ele><time>2026-05-02T12:25:39Z</time></trkpt><trkpt lat="40.654869447655734" lon="8.213218906487631"><ele>36.0</ele><time>2026-05-02T12:25:40Z</time></trkpt><trkpt lat="40.654856621058684" lon="8.212981128662797"><ele>36.0</ele><time>2026-05-02T12:25:41Z</time></trkpt><trkpt lat="40.65484202865972" lon="8.212741948681876"><ele>36.0</ele><time>2026-05-02T12:25:42Z</time></trkpt><trkpt lat="40.65482863078361" lon="8.212502268096339"><ele>36.0</ele><time>2026-05-02T12:25:43Z</time></trkpt><trkpt lat="40.65481447305062" lon="8.21226347174896"><ele>36.0</ele><time>2026-05-02T12:25:44Z</time></trkpt><trkpt lat="40.654800316498026" lon="8.212023760029707"><ele>36.0</ele><time>2026-05-02T12:25:45Z</time></trkpt><trkpt lat="40.65478543421655" lon="8.211782651485906"><ele>36.0</ele><time>2026-05-02T12:25:46Z</time></trkpt><trkpt lat="40.65477198780805" lon="8.211538153749377"><ele>36.0</ele><time>2026-05-02T12:25:47Z</time></trkpt><trkpt lat="40.65475996851894" lon="8.211289829739691"><ele>36.333333333333336</ele><time>2026-05-02T12:25:48Z</time></trkpt><trkpt lat="40.65474709799117" lon="8.211037566694717"><ele>36.66666666666667</ele><time>2026-05-02T12:25:49Z</time></trkpt><trkpt lat="40.65473675322589" lon="8.210786933693852"><ele>37.0</ele><time>2026-05-02T12:25:50Z</time></trkpt><trkpt lat="40.65472105166611" lon="8.210536572645605"><ele>37.333333333333336</ele><time>2026-05-02T12:25:51Z</time></trkpt><trkpt lat="40.65468517236709" lon="8.210284968229411"><ele>37.666666666666664</ele><time>2026-05-02T12:25:52Z</time></trkpt><trkpt lat="40.65463314857501" lon="8.210034779268222"><ele>38.0</ele><time>2026-05-02T12:25:53Z</time></trkpt><trkpt lat="40.654577778540975" lon="8.209786223881009"><ele>38.33333333333333</ele><time>2026-05-02T12:25:54Z</time></trkpt><trkpt lat="40.65445133620965" lon="8.209654006672192"><ele>38.666666666666664</ele><time>2026-05-02T12:25:55Z</time></trkpt><trkpt lat="40.65434720297046" lon="8.20947126361721"><ele>39.0</ele><time>2026-05-02T12:25:56Z</time></trkpt><trkpt lat="40.6542316661655" lon="8.209300968502555"><ele>39.0</ele><time>2026-05-02T12:25:57Z</time></trkpt><trkpt lat="40.65410759056817" lon="8.209145030590273"><ele>39.0</ele><time>2026-05-02T12:25:58Z</time></trkpt><trkpt lat="40.65398452305995" lon="8.208987198771064"><ele>39.0</ele><time>2026-05-02T12:25:59Z</time></trkpt><trkpt lat="40.65386282648128" lon="8.208822155955641"><ele>38.666666666666664</ele><time>2026-05-02T12:26:00Z</time></trkpt><trkpt lat="40.653739532246846" lon="8.208654384381548"><ele>38.33333333333333</ele><time>2026-05-02T12:26:01Z</time></trkpt><trkpt lat="40.65361980091273" lon="8.20848127399318"><ele>38.0</ele><time>2026-05-02T12:26:02Z</time></trkpt><trkpt lat="40.65349451249189" lon="8.208317132995125"><ele>37.33333333333333</ele><time>2026-05-02T12:26:03Z</time></trkpt><trkpt lat="40.65337332293449" lon="8.208151542030754"><ele>36.666666666666664</ele><time>2026-05-02T12:26:04Z</time></trkpt><trkpt lat="40.653252931843255" lon="8.207986475852026"><ele>36.0</ele><time>2026-05-02T12:26:05Z</time></trkpt><trkpt lat="40.65313192386537" lon="8.207818976780617"><ele>36.0</ele><time>2026-05-02T12:26:06Z</time></trkpt><trkpt lat="40.653013800606374" lon="8.20765387813161"><ele>36.0</ele><time>2026-05-02T12:26:07Z</time></trkpt><trkpt lat="40.65289199358575" lon="8.207486413796905"><ele>36.0</ele><time>2026-05-02T12:26:08Z</time></trkpt><trkpt lat="40.65276907572435" lon="8.207318129592808"><ele>36.0</ele><time>2026-05-02T12:26:09Z</time></trkpt><trkpt lat="40.65264235525024" lon="8.20714875938508"><ele>36.0</ele><time>2026-05-02T12:26:10Z</time></trkpt><trkpt lat="40.65251527226838" lon="8.206975476053817"><ele>36.0</ele><time>2026-05-02T12:26:11Z</time></trkpt><trkpt lat="40.65238683558255" lon="8.206804127769308"><ele>36.0</ele><time>2026-05-02T12:26:12Z</time></trkpt><trkpt lat="40.65225262802615" lon="8.20663106106701"><ele>36.0</ele><time>2026-05-02T12:26:13Z</time></trkpt><trkpt lat="40.65212480902065" lon="8.206454371107478"><ele>36.0</ele><time>2026-05-02T12:26:14Z</time></trkpt><trkpt lat="40.65200659447806" lon="8.206264324854788"><ele>35.666666666666664</ele><time>2026-05-02T12:26:15Z</time></trkpt><trkpt lat="40.6518763164923" lon="8.206085114423013"><ele>35.33333333333333</ele><time>2026-05-02T12:26:16Z</time></trkpt><trkpt lat="40.651738964842146" lon="8.205919801885521"><ele>35.0</ele><time>2026-05-02T12:26:17Z</time></trkpt><trkpt lat="40.651611658170026" lon="8.205735653581078"><ele>34.666666666666664</ele><time>2026-05-02T12:26:18Z</time></trkpt><trkpt lat="40.651485660851606" lon="8.205553787056795"><ele>34.333333333333336</ele><time>2026-05-02T12:26:19Z</time></trkpt><trkpt lat="40.65135494669194" lon="8.2053735070031"><ele>34.0</ele><time>2026-05-02T12:26:20Z</time></trkpt><trkpt lat="40.6512229455883" lon="8.20519860182958"><ele>34.0</ele><time>2026-05-02T12:26:21Z</time></trkpt><trkpt lat="40.65108844211438" lon="8.205018804406757"><ele>34.0</ele><time>2026-05-02T12:26:22Z</time></trkpt><trkpt lat="40.65095718092425" lon="8.204840458016815"><ele>34.0</ele><time>2026-05-02T12:26:23Z</time></trkpt><trkpt lat="40.650829328926875" lon="8.204664084970746"><ele>34.333333333333336</ele><time>2026-05-02T12:26:24Z</time></trkpt><trkpt lat="40.65069875074061" lon="8.204478987813875"><ele>34.666666666666664</ele><time>2026-05-02T12:26:25Z</time></trkpt><trkpt lat="40.65057050221734" lon="8.204311403388084"><ele>35.0</ele><time>2026-05-02T12:26:26Z</time></trkpt><trkpt lat="40.650436448037404" lon="8.204125999086415"><ele>34.666666666666664</ele><time>2026-05-02T12:26:27Z</time></trkpt><trkpt lat="40.65030183274106" lon="8.203942002535262"><ele>34.333333333333336</ele><time>2026-05-02T12:26:28Z</time></trkpt><trkpt lat="40.65018308774154" lon="8.203753765682974"><ele>34.0</ele><time>2026-05-02T12:26:29Z</time></trkpt><trkpt lat="40.650035896300174" lon="8.203582731104047"><ele>33.66666666666667</ele><time>2026-05-02T12:26:30Z</time></trkpt><trkpt lat="40.649903837870426" lon="8.20340086601607"><ele>33.333333333333336</ele><time>2026-05-02T12:26:31Z</time></trkpt><trkpt lat="40.64977179219682" lon="8.203217055119053"><ele>33.0</ele><time>2026-05-02T12:26:32Z</time></trkpt><trkpt lat="40.649636092988686" lon="8.203032493690552"><ele>33.0</ele><time>2026-05-02T12:26:33Z</time></trkpt><trkpt lat="40.64950426694049" lon="8.202847823742113"><ele>33.0</ele><time>2026-05-02T12:26:34Z</time></trkpt><trkpt lat="40.64937037682192" lon="8.202664275801606"><ele>33.0</ele><time>2026-05-02T12:26:35Z</time></trkpt><trkpt lat="40.6492357763335" lon="8.202480407817609"><ele>32.666666666666664</ele><time>2026-05-02T12:26:36Z</time></trkpt><trkpt lat="40.64910680798946" lon="8.202298613179495"><ele>32.33333333333333</ele><time>2026-05-02T12:26:37Z</time></trkpt><trkpt lat="40.648973372062414" lon="8.202114414180974"><ele>32.0</ele><time>2026-05-02T12:26:38Z</time></trkpt><trkpt lat="40.64884346097598" lon="8.201930726980242"><ele>32.0</ele><time>2026-05-02T12:26:39Z</time></trkpt><trkpt lat="40.64871203639256" lon="8.20174954181218"><ele>32.0</ele><time>2026-05-02T12:26:40Z</time></trkpt><trkpt lat="40.6485758165503" lon="8.20157165966216"><ele>32.0</ele><time>2026-05-02T12:26:41Z</time></trkpt><trkpt lat="40.64843514261194" lon="8.201408215347701"><ele>32.0</ele><time>2026-05-02T12:26:41.999Z</time></trkpt><trkpt lat="40.648293866149785" lon="8.201243906381285"><ele>32.0</ele><time>2026-05-02T12:26:42.999Z</time></trkpt><trkpt lat="40.648130100549515" lon="8.201117079685618"><ele>32.0</ele><time>2026-05-02T12:26:44Z</time></trkpt><trkpt lat="40.64795832709765" lon="8.20101968683681"><ele>31.666666666666664</ele><time>2026-05-02T12:26:45Z</time></trkpt><trkpt lat="40.64778284057995" lon="8.200935946690208"><ele>31.333333333333336</ele><time>2026-05-02T12:26:46Z</time></trkpt><trkpt lat="40.64759959445391" lon="8.20087953922507"><ele>31.0</ele><time>2026-05-02T12:26:47Z</time></trkpt><trkpt lat="40.6474135519169" lon="8.200846802039838"><ele>31.0</ele><time>2026-05-02T12:26:48Z</time></trkpt><trkpt lat="40.64721852260995" lon="8.200795711925114"><ele>31.0</ele><time>2026-05-02T12:26:49Z</time></trkpt><trkpt lat="40.64701958835747" lon="8.20075649719577"><ele>31.0</ele><time>2026-05-02T12:26:50Z</time></trkpt><trkpt lat="40.64680142430114" lon="8.200714610588259"><ele>31.0</ele><time>2026-05-02T12:26:51Z</time></trkpt><trkpt lat="40.64658621916962" lon="8.200673597958591"><ele>31.0</ele><time>2026-05-02T12:26:52Z</time></trkpt><trkpt lat="40.64636633610417" lon="8.200631693845631"><ele>31.0</ele><time>2026-05-02T12:26:53Z</time></trkpt><trkpt lat="40.64614489267768" lon="8.200589492371556"><ele>30.5</ele><time>2026-05-02T12:26:54Z</time></trkpt><trkpt lat="40.645922006638564" lon="8.200547015971793"><ele>30.0</ele><time>2026-05-02T12:26:55Z</time></trkpt><trkpt lat="40.64569909047189" lon="8.20050453382579"><ele>30.0</ele><time>2026-05-02T12:26:56Z</time></trkpt><trkpt lat="40.645475207990216" lon="8.200461867536452"><ele>30.0</ele><time>2026-05-02T12:26:57Z</time></trkpt><trkpt lat="40.64525214143358" lon="8.2004197581405"><ele>29.666666666666664</ele><time>2026-05-02T12:26:58Z</time></trkpt><trkpt lat="40.64503000395331" lon="8.200378638943409"><ele>29.333333333333332</ele><time>2026-05-02T12:26:59Z</time></trkpt><trkpt lat="40.64480895068147" lon="8.200337720441578"><ele>29.0</ele><time>2026-05-02T12:27:00Z</time></trkpt><trkpt lat="40.64458953699503" lon="8.20029691947569"><ele>29.0</ele><time>2026-05-02T12:27:01Z</time></trkpt><trkpt lat="40.64436977765815" lon="8.200254646205583"><ele>29.0</ele><time>2026-05-02T12:27:02Z</time></trkpt><trkpt lat="40.644151915716726" lon="8.200212737922088"><ele>29.0</ele><time>2026-05-02T12:27:03Z</time></trkpt><trkpt lat="40.64393586532876" lon="8.200171178110923"><ele>29.0</ele><time>2026-05-02T12:27:04Z</time></trkpt><trkpt lat="40.64372035210768" lon="8.20012972163278"><ele>29.0</ele><time>2026-05-02T12:27:05Z</time></trkpt><trkpt lat="40.64350677295895" lon="8.200088637194009"><ele>29.0</ele><time>2026-05-02T12:27:06Z</time></trkpt><trkpt lat="40.6432956151073" lon="8.200048018521917"><ele>28.666666666666664</ele><time>2026-05-02T12:27:07Z</time></trkpt><trkpt lat="40.643085316400985" lon="8.200007565113411"><ele>28.333333333333336</ele><time>2026-05-02T12:27:08Z</time></trkpt><trkpt lat="40.64287611261662" lon="8.199967322326277"><ele>28.0</ele><time>2026-05-02T12:27:09Z</time></trkpt><trkpt lat="40.64266604859951" lon="8.199926913959223"><ele>28.0</ele><time>2026-05-02T12:27:10Z</time></trkpt><trkpt lat="40.64245551679193" lon="8.199886005730225"><ele>28.0</ele><time>2026-05-02T12:27:11Z</time></trkpt><trkpt lat="40.642244080859214" lon="8.199844963469333"><ele>28.0</ele><time>2026-05-02T12:27:12Z</time></trkpt><trkpt lat="40.64203314490993" lon="8.199804018264818"><ele>27.333333333333336</ele><time>2026-05-02T12:27:13Z</time></trkpt><trkpt lat="40.64182129505742" lon="8.199762895574016"><ele>26.666666666666664</ele><time>2026-05-02T12:27:14Z</time></trkpt><trkpt lat="40.64160845276902" lon="8.19972232659835"><ele>26.0</ele><time>2026-05-02T12:27:15Z</time></trkpt><trkpt lat="40.64139523502836" lon="8.199681583470094"><ele>26.0</ele><time>2026-05-02T12:27:16Z</time></trkpt><trkpt lat="40.64118107682631" lon="8.199640660629996"><ele>26.0</ele><time>2026-05-02T12:27:17Z</time></trkpt><trkpt lat="40.64096592965604" lon="8.199599548811086"><ele>26.0</ele><time>2026-05-02T12:27:18Z</time></trkpt><trkpt lat="40.640753072708335" lon="8.199559497427982"><ele>26.0</ele><time>2026-05-02T12:27:19Z</time></trkpt><trkpt lat="40.64053705758221" lon="8.199518958932508"><ele>26.0</ele><time>2026-05-02T12:27:20Z</time></trkpt><trkpt lat="40.64032134529845" lon="8.199478477266261"><ele>26.0</ele><time>2026-05-02T12:27:21Z</time></trkpt><trkpt lat="40.6401078762373" lon="8.199438260197283"><ele>26.0</ele><time>2026-05-02T12:27:22Z</time></trkpt><trkpt lat="40.639891956703174" lon="8.199397257242605"><ele>26.0</ele><time>2026-05-02T12:27:23Z</time></trkpt><trkpt lat="40.63967478243203" lon="8.199356016015432"><ele>26.0</ele><time>2026-05-02T12:27:24Z</time></trkpt><trkpt lat="40.63945543281847" lon="8.19931436169133"><ele>26.0</ele><time>2026-05-02T12:27:25Z</time></trkpt><trkpt lat="40.63923531816506" lon="8.199271786924271"><ele>26.0</ele><time>2026-05-02T12:27:26Z</time></trkpt><trkpt lat="40.639015652433706" lon="8.199228510547037"><ele>26.0</ele><time>2026-05-02T12:27:27Z</time></trkpt><trkpt lat="40.63879955844279" lon="8.199185937464735"><ele>25.666666666666664</ele><time>2026-05-02T12:27:28Z</time></trkpt><trkpt lat="40.63858082984528" lon="8.19914284523186"><ele>25.333333333333336</ele><time>2026-05-02T12:27:29Z</time></trkpt><trkpt lat="40.638360981680044" lon="8.199099532430681"><ele>25.0</ele><time>2026-05-02T12:27:30Z</time></trkpt><trkpt lat="40.63813652879243" lon="8.199098485148191"><ele>25.0</ele><time>2026-05-02T12:27:31Z</time></trkpt><trkpt lat="40.637917525634215" lon="8.199059288855306"><ele>25.0</ele><time>2026-05-02T12:27:32Z</time></trkpt><trkpt lat="40.637697032877256" lon="8.199013537009415"><ele>25.0</ele><time>2026-05-02T12:27:33Z</time></trkpt><trkpt lat="40.63747745902108" lon="8.198970671032788"><ele>25.0</ele><time>2026-05-02T12:27:34Z</time></trkpt><trkpt lat="40.63725649196305" lon="8.198927632648086"><ele>25.0</ele><time>2026-05-02T12:27:35Z</time></trkpt><trkpt lat="40.63703826128965" lon="8.198885901912078"><ele>25.0</ele><time>2026-05-02T12:27:36Z</time></trkpt><trkpt lat="40.63682063205056" lon="8.198844124950458"><ele>24.666666666666668</ele><time>2026-05-02T12:27:37Z</time></trkpt><trkpt lat="40.636603838252405" lon="8.198801452747816"><ele>24.333333333333336</ele><time>2026-05-02T12:27:38Z</time></trkpt><trkpt lat="40.63638848126932" lon="8.198760709771713"><ele>24.0</ele><time>2026-05-02T12:27:39Z</time></trkpt><trkpt lat="40.6361743990241" lon="8.19872076396077"><ele>23.666666666666668</ele><time>2026-05-02T12:27:40Z</time></trkpt><trkpt lat="40.63595979317212" lon="8.198680073926198"><ele>23.333333333333336</ele><time>2026-05-02T12:27:41Z</time></trkpt><trkpt lat="40.63574684797357" lon="8.198633860447938"><ele>23.0</ele><time>2026-05-02T12:27:42Z</time></trkpt><trkpt lat="40.63553275466136" lon="8.198599629421441"><ele>23.0</ele><time>2026-05-02T12:27:43Z</time></trkpt><trkpt lat="40.6353176235038" lon="8.198555437850871"><ele>23.0</ele><time>2026-05-02T12:27:44Z</time></trkpt><trkpt lat="40.635106298054296" lon="8.19851413661565"><ele>23.0</ele><time>2026-05-02T12:27:45Z</time></trkpt><trkpt lat="40.634892527173115" lon="8.19847473078266"><ele>22.333333333333336</ele><time>2026-05-02T12:27:46Z</time></trkpt><trkpt lat="40.634673136188674" lon="8.198435940160987"><ele>21.666666666666668</ele><time>2026-05-02T12:27:47Z</time></trkpt><trkpt lat="40.63445477108647" lon="8.198392826544584"><ele>21.0</ele><time>2026-05-02T12:27:48Z</time></trkpt><trkpt lat="40.634222690609064" lon="8.198353524269812"><ele>20.5</ele><time>2026-05-02T12:27:49Z</time></trkpt><trkpt lat="40.633992568836206" lon="8.19830803752882"><ele>20.0</ele><time>2026-05-02T12:27:50Z</time></trkpt><trkpt lat="40.633757583383606" lon="8.198263827149102"><ele>19.5</ele><time>2026-05-02T12:27:51Z</time></trkpt><trkpt lat="40.63352497257743" lon="8.198214301816641"><ele>19.0</ele><time>2026-05-02T12:27:52Z</time></trkpt><trkpt lat="40.63328821418907" lon="8.198170543291088"><ele>18.5</ele><time>2026-05-02T12:27:53Z</time></trkpt><trkpt lat="40.63304808623964" lon="8.198126742863655"><ele>18.0</ele><time>2026-05-02T12:27:54Z</time></trkpt><trkpt lat="40.632821647780936" lon="8.198077721444891"><ele>17.5</ele><time>2026-05-02T12:27:55Z</time></trkpt><trkpt lat="40.632580858676256" lon="8.19804173335219"><ele>17.0</ele><time>2026-05-02T12:27:56Z</time></trkpt><trkpt lat="40.63235105551032" lon="8.197995179713848"><ele>17.0</ele><time>2026-05-02T12:27:57Z</time></trkpt><trkpt lat="40.63212725502006" lon="8.19794651437747"><ele>17.0</ele><time>2026-05-02T12:27:58Z</time></trkpt><trkpt lat="40.63188581840103" lon="8.197908362926606"><ele>16.5</ele><time>2026-05-02T12:27:59Z</time></trkpt><trkpt lat="40.631656270536304" lon="8.197860126238433"><ele>16.0</ele><time>2026-05-02T12:28:00Z</time></trkpt><trkpt lat="40.631427156100976" lon="8.19781412425583"><ele>16.0</ele><time>2026-05-02T12:28:01Z</time></trkpt><trkpt lat="40.63119496499643" lon="8.197772383965063"><ele>16.0</ele><time>2026-05-02T12:28:02Z</time></trkpt><trkpt lat="40.63096379385396" lon="8.197733175996337"><ele>15.0</ele><time>2026-05-02T12:28:03Z</time></trkpt><trkpt lat="40.63073087698116" lon="8.197690219949035"><ele>14.0</ele><time>2026-05-02T12:28:04Z</time></trkpt><trkpt lat="40.63049548548054" lon="8.197642301702153"><ele>14.0</ele><time>2026-05-02T12:28:05Z</time></trkpt><trkpt lat="40.63026305529861" lon="8.19759538894747"><ele>14.0</ele><time>2026-05-02T12:28:06Z</time></trkpt><trkpt lat="40.630027344866704" lon="8.197555878383161"><ele>14.0</ele><time>2026-05-02T12:28:07Z</time></trkpt><trkpt lat="40.62979428638218" lon="8.197510333134932"><ele>14.0</ele><time>2026-05-02T12:28:08Z</time></trkpt><trkpt lat="40.629562162891276" lon="8.197465665622214"><ele>13.5</ele><time>2026-05-02T12:28:09Z</time></trkpt><trkpt lat="40.629328240000504" lon="8.197421311823426"><ele>13.0</ele><time>2026-05-02T12:28:10Z</time></trkpt><trkpt lat="40.62909376703829" lon="8.197384440855528"><ele>13.0</ele><time>2026-05-02T12:28:11Z</time></trkpt><trkpt lat="40.62886316137957" lon="8.197329332428295"><ele>13.0</ele><time>2026-05-02T12:28:12Z</time></trkpt><trkpt lat="40.62862777813748" lon="8.197289730823243"><ele>12.0</ele><time>2026-05-02T12:28:13Z</time></trkpt><trkpt lat="40.62839207750789" lon="8.19724142858062"><ele>11.0</ele><time>2026-05-02T12:28:14Z</time></trkpt><trkpt lat="40.628158352244476" lon="8.197197289915831"><ele>11.0</ele><time>2026-05-02T12:28:15Z</time></trkpt><trkpt lat="40.62792307745343" lon="8.19715277233807"><ele>11.0</ele><time>2026-05-02T12:28:16Z</time></trkpt><trkpt lat="40.62769006344488" lon="8.19710730483531"><ele>9.5</ele><time>2026-05-02T12:28:17Z</time></trkpt><trkpt lat="40.627458765185025" lon="8.19706398587281"><ele>8.0</ele><time>2026-05-02T12:28:18Z</time></trkpt><trkpt lat="40.62722966569107" lon="8.197021257203664"><ele>8.0</ele><time>2026-05-02T12:28:19Z</time></trkpt><trkpt lat="40.62700136835945" lon="8.196978423497965"><ele>8.0</ele><time>2026-05-02T12:28:20Z</time></trkpt><trkpt lat="40.626776617772336" lon="8.196936547982235"><ele>7.666666666666666</ele><time>2026-05-02T12:28:21Z</time></trkpt><trkpt lat="40.62655236470626" lon="8.196891552932401"><ele>7.333333333333334</ele><time>2026-05-02T12:28:22Z</time></trkpt><trkpt lat="40.62633504554526" lon="8.196852254830779"><ele>7.0</ele><time>2026-05-02T12:28:23Z</time></trkpt><trkpt lat="40.62611540963942" lon="8.196807529779049"><ele>7.0</ele><time>2026-05-02T12:28:24Z</time></trkpt><trkpt lat="40.62590228263015" lon="8.196766537719274"><ele>7.0</ele><time>2026-05-02T12:28:25Z</time></trkpt><trkpt lat="40.625688646048474" lon="8.196723252666283"><ele>7.0</ele><time>2026-05-02T12:28:26Z</time></trkpt><trkpt lat="40.62547416847034" lon="8.196684839362227"><ele>6.333333333333334</ele><time>2026-05-02T12:28:27Z</time></trkpt><trkpt lat="40.625259862984976" lon="8.196644551212122"><ele>5.666666666666667</ele><time>2026-05-02T12:28:28Z</time></trkpt><trkpt lat="40.62506182026241" lon="8.196598945729262"><ele>5.0</ele><time>2026-05-02T12:28:29Z</time></trkpt><trkpt lat="40.62486699859777" lon="8.196568222670363"><ele>5.0</ele><time>2026-05-02T12:28:30Z</time></trkpt><trkpt lat="40.62468719541587" lon="8.19653313109834"><ele>5.0</ele><time>2026-05-02T12:28:31Z</time></trkpt><trkpt lat="40.62453059775259" lon="8.196498640510628"><ele>5.0</ele><time>2026-05-02T12:28:32Z</time></trkpt><trkpt lat="40.624388786206936" lon="8.196471693510256"><ele>4.75</ele><time>2026-05-02T12:28:33Z</time></trkpt><trkpt lat="40.6242555259709" lon="8.196430622926966"><ele>4.5</ele><time>2026-05-02T12:28:33.999Z</time></trkpt><trkpt lat="40.624132142163404" lon="8.196374918102604"><ele>4.25</ele><time>2026-05-02T12:28:34.999Z</time></trkpt><trkpt lat="40.624027102676386" lon="8.196296715910563"><ele>4.0</ele><time>2026-05-02T12:28:35.999Z</time></trkpt><trkpt lat="40.62395274058637" lon="8.196212380829317"><ele>4.0</ele><time>2026-05-02T12:28:36.999Z</time></trkpt><trkpt lat="40.623887341334424" lon="8.196112673996627"><ele>4.0</ele><time>2026-05-02T12:28:37.999Z</time></trkpt><trkpt lat="40.623829853278366" lon="8.195999056487338"><ele>4.0</ele><time>2026-05-02T12:28:38.999Z</time></trkpt><trkpt lat="40.62377269260065" lon="8.195857331759207"><ele>4.0</ele><time>2026-05-02T12:28:39.999Z</time></trkpt><trkpt lat="40.623679479451155" lon="8.19572455893307"><ele>3.6666666666666665</ele><time>2026-05-02T12:28:40.999Z</time></trkpt><trkpt lat="40.62357983222966" lon="8.195598144389223"><ele>3.333333333333333</ele><time>2026-05-02T12:28:41.999Z</time></trkpt><trkpt lat="40.62346040016827" lon="8.195475952774506"><ele>3.0</ele><time>2026-05-02T12:28:42.999Z</time></trkpt><trkpt lat="40.62333101945214" lon="8.195351934177435"><ele>3.0</ele><time>2026-05-02T12:28:43.999Z</time></trkpt><trkpt lat="40.62319810091114" lon="8.195220118177742"><ele>3.0</ele><time>2026-05-02T12:28:44.999Z</time></trkpt><trkpt lat="40.62305649537576" lon="8.1950809706313"><ele>3.0</ele><time>2026-05-02T12:28:45.999Z</time></trkpt><trkpt lat="40.622915697222204" lon="8.194941626056117"><ele>2.6666666666666665</ele><time>2026-05-02T12:28:46.999Z</time></trkpt><trkpt lat="40.62278932623159" lon="8.194818541077815"><ele>2.333333333333333</ele><time>2026-05-02T12:28:47.999Z</time></trkpt><trkpt lat="40.622663792376116" lon="8.194696440246222"><ele>2.0</ele><time>2026-05-02T12:28:48.999Z</time></trkpt><trkpt lat="40.62254048948347" lon="8.194575545229544"><ele>2.0</ele><time>2026-05-02T12:28:50Z</time></trkpt><trkpt lat="40.62241615696254" lon="8.194454219754856"><ele>2.0</ele><time>2026-05-02T12:28:51Z</time></trkpt><trkpt lat="40.62229085707815" lon="8.194332318110185"><ele>2.0</ele><time>2026-05-02T12:28:52Z</time></trkpt><trkpt lat="40.622165266478426" lon="8.194210067981686"><ele>2.0</ele><time>2026-05-02T12:28:53Z</time></trkpt><trkpt lat="40.62203901387852" lon="8.194090974449855"><ele>2.0</ele><time>2026-05-02T12:28:54Z</time></trkpt><trkpt lat="40.621913695728324" lon="8.193968852720644"><ele>2.0</ele><time>2026-05-02T12:28:55Z</time></trkpt><trkpt lat="40.621785464591945" lon="8.19384579228365"><ele>2.0</ele><time>2026-05-02T12:28:56Z</time></trkpt><trkpt lat="40.62165551319229" lon="8.193721711666672"><ele>2.0</ele><time>2026-05-02T12:28:57Z</time></trkpt><trkpt lat="40.62152605753179" lon="8.193595061636522"><ele>2.0</ele><time>2026-05-02T12:28:58Z</time></trkpt><trkpt lat="40.621398838701694" lon="8.193470811720934"><ele>2.0</ele><time>2026-05-02T12:28:59Z</time></trkpt><trkpt lat="40.621271993662255" lon="8.193346005809898"><ele>2.0</ele><time>2026-05-02T12:29:00Z</time></trkpt><trkpt lat="40.62114619767279" lon="8.193222159577259"><ele>2.0</ele><time>2026-05-02T12:29:01Z</time></trkpt><trkpt lat="40.62102061458104" lon="8.193100518366984"><ele>2.0</ele><time>2026-05-02T12:29:02Z</time></trkpt><trkpt lat="40.620895971679246" lon="8.192980988438523"><ele>2.0</ele><time>2026-05-02T12:29:03Z</time></trkpt><trkpt lat="40.620771656346825" lon="8.19286092840186"><ele>2.0</ele><time>2026-05-02T12:29:04Z</time></trkpt><trkpt lat="40.62064869272508" lon="8.192740338875957"><ele>2.0</ele><time>2026-05-02T12:29:05Z</time></trkpt><trkpt lat="40.620527304209595" lon="8.192621494266199"><ele>2.0</ele><time>2026-05-02T12:29:06Z</time></trkpt><trkpt lat="40.62040600409112" lon="8.192505855632254"><ele>2.0</ele><time>2026-05-02T12:29:07Z</time></trkpt><trkpt lat="40.62028713960017" lon="8.192392215380956"><ele>2.0</ele><time>2026-05-02T12:29:08Z</time></trkpt><trkpt lat="40.62017038688087" lon="8.19227610165396"><ele>2.25</ele><time>2026-05-02T12:29:09Z</time></trkpt><trkpt lat="40.62005261149713" lon="8.192161278244617"><ele>2.5</ele><time>2026-05-02T12:29:10Z</time></trkpt><trkpt lat="40.61993163334847" lon="8.192046386867506"><ele>2.75</ele><time>2026-05-02T12:29:11Z</time></trkpt><trkpt lat="40.61980853272727" lon="8.191925881916719"><ele>3.0</ele><time>2026-05-02T12:29:12Z</time></trkpt><trkpt lat="40.61968282202251" lon="8.19180211855956"><ele>3.0</ele><time>2026-05-02T12:29:13Z</time></trkpt><trkpt lat="40.61955494432647" lon="8.191673024619222"><ele>3.0</ele><time>2026-05-02T12:29:14Z</time></trkpt><trkpt lat="40.61942168878457" lon="8.191541184401354"><ele>3.0</ele><time>2026-05-02T12:29:15Z</time></trkpt><trkpt lat="40.61928353078831" lon="8.191406630796724"><ele>3.0</ele><time>2026-05-02T12:29:16Z</time></trkpt><trkpt lat="40.61914084724222" lon="8.191268045623593"><ele>3.0</ele><time>2026-05-02T12:29:17Z</time></trkpt><trkpt lat="40.61899314966981" lon="8.191123954781284"><ele>3.0</ele><time>2026-05-02T12:29:18Z</time></trkpt><trkpt lat="40.61883951094392" lon="8.190977365826637"><ele>3.0</ele><time>2026-05-02T12:29:19Z</time></trkpt><trkpt lat="40.61868322880664" lon="8.19082690379582"><ele>3.0</ele><time>2026-05-02T12:29:20Z</time></trkpt><trkpt lat="40.618523218684544" lon="8.190660265761396"><ele>3.0</ele><time>2026-05-02T12:29:21Z</time></trkpt><trkpt lat="40.61836258449508" lon="8.19048153745351"><ele>3.0</ele><time>2026-05-02T12:29:22Z</time></trkpt><trkpt lat="40.61820116066661" lon="8.190289804963864"><ele>3.0</ele><time>2026-05-02T12:29:23Z</time></trkpt><trkpt lat="40.61801589154629" lon="8.190129246152184"><ele>3.0</ele><time>2026-05-02T12:29:24Z</time></trkpt><trkpt lat="40.61783669725357" lon="8.18995436713975"><ele>3.0</ele><time>2026-05-02T12:29:25Z</time></trkpt><trkpt lat="40.617674460680234" lon="8.189846647104918"><ele>3.0</ele><time>2026-05-02T12:29:26Z</time></trkpt><trkpt lat="40.61749786036305" lon="8.189669689762153"><ele>3.0</ele><time>2026-05-02T12:29:27Z</time></trkpt><trkpt lat="40.617318647462966" lon="8.189494884877599"><ele>3.0</ele><time>2026-05-02T12:29:28Z</time></trkpt><trkpt lat="40.61713978326363" lon="8.189326107773834"><ele>3.0</ele><time>2026-05-02T12:29:29Z</time></trkpt><trkpt lat="40.616971567149434" lon="8.18913826569206"><ele>3.0</ele><time>2026-05-02T12:29:30Z</time></trkpt><trkpt lat="40.61679885216966" lon="8.18896990163727"><ele>4.666666666666666</ele><time>2026-05-02T12:29:31Z</time></trkpt><trkpt lat="40.61661579163184" lon="8.18882256875496"><ele>6.333333333333333</ele><time>2026-05-02T12:29:32Z</time></trkpt><trkpt lat="40.61644322499884" lon="8.188662669984893"><ele>8.0</ele><time>2026-05-02T12:29:33Z</time></trkpt><trkpt lat="40.616264221660934" lon="8.18853564925288"><ele>7.666666666666666</ele><time>2026-05-02T12:29:34Z</time></trkpt><trkpt lat="40.61609267794968" lon="8.1884461748843"><ele>7.333333333333334</ele><time>2026-05-02T12:29:35Z</time></trkpt><trkpt lat="40.615928002609316" lon="8.188381831531629"><ele>7.0</ele><time>2026-05-02T12:29:36Z</time></trkpt><trkpt lat="40.61576077857953" lon="8.188326784529076"><ele>7.0</ele><time>2026-05-02T12:29:37Z</time></trkpt><trkpt lat="40.61558707320763" lon="8.18828261287062"><ele>7.0</ele><time>2026-05-02T12:29:38Z</time></trkpt><trkpt lat="40.61540727182231" lon="8.188246220863858"><ele>7.0</ele><time>2026-05-02T12:29:39Z</time></trkpt><trkpt lat="40.61522662098282" lon="8.188211265087727"><ele>10.0</ele><time>2026-05-02T12:29:40Z</time></trkpt><trkpt lat="40.61503852587346" lon="8.188174478058299"><ele>13.0</ele><time>2026-05-02T12:29:41Z</time></trkpt><trkpt lat="40.61485074055437" lon="8.188140262462309"><ele>16.0</ele><time>2026-05-02T12:29:42Z</time></trkpt><trkpt lat="40.614656322442464" lon="8.188100677785194"><ele>16.333333333333332</ele><time>2026-05-02T12:29:43Z</time></trkpt><trkpt lat="40.61446519432413" lon="8.188040453843726"><ele>16.666666666666668</ele><time>2026-05-02T12:29:44Z</time></trkpt><trkpt lat="40.61427310184666" lon="8.187999286784995"><ele>17.0</ele><time>2026-05-02T12:29:45Z</time></trkpt><trkpt lat="40.61407399079749" lon="8.187958825734778"><ele>17.0</ele><time>2026-05-02T12:29:46Z</time></trkpt><trkpt lat="40.61388016966533" lon="8.187920046312383"><ele>17.0</ele><time>2026-05-02T12:29:47Z</time></trkpt><trkpt lat="40.613682571768486" lon="8.187899877298017"><ele>17.0</ele><time>2026-05-02T12:29:48Z</time></trkpt><trkpt lat="40.61348552456532" lon="8.18786004922148"><ele>16.666666666666668</ele><time>2026-05-02T12:29:49Z</time></trkpt><trkpt lat="40.61329034323247" lon="8.187798974981282"><ele>16.333333333333332</ele><time>2026-05-02T12:29:50Z</time></trkpt><trkpt lat="40.61309015928584" lon="8.187779502656968"><ele>16.0</ele><time>2026-05-02T12:29:51Z</time></trkpt><trkpt lat="40.612895884019466" lon="8.18773564151781"><ele>16.666666666666664</ele><time>2026-05-02T12:29:52Z</time></trkpt><trkpt lat="40.61270524555529" lon="8.187692737861946"><ele>17.333333333333332</ele><time>2026-05-02T12:29:53Z</time></trkpt><trkpt lat="40.61251672013419" lon="8.187651435746394"><ele>18.0</ele><time>2026-05-02T12:29:54Z</time></trkpt><trkpt lat="40.61233113646777" lon="8.187614298877495"><ele>18.0</ele><time>2026-05-02T12:29:55Z</time></trkpt><trkpt lat="40.61215645660313" lon="8.187559661874253"><ele>18.0</ele><time>2026-05-02T12:29:56Z</time></trkpt><trkpt lat="40.611973248615875" lon="8.187539267761707"><ele>18.0</ele><time>2026-05-02T12:29:57Z</time></trkpt><trkpt lat="40.6117992658656" lon="8.18748299762353"><ele>18.666666666666668</ele><time>2026-05-02T12:29:58Z</time></trkpt><trkpt lat="40.61161765015422" lon="8.187445449852254"><ele>19.333333333333336</ele><time>2026-05-02T12:29:59Z</time></trkpt><trkpt lat="40.611432697288095" lon="8.187428453053574"><ele>20.0</ele><time>2026-05-02T12:30:00Z</time></trkpt><trkpt lat="40.61124896755407" lon="8.18738547733985"><ele>21.666666666666668</ele><time>2026-05-02T12:30:01Z</time></trkpt><trkpt lat="40.611069869872736" lon="8.187335815765234"><ele>23.333333333333336</ele><time>2026-05-02T12:30:02Z</time></trkpt><trkpt lat="40.610918905702384" lon="8.187233533757254"><ele>25.0</ele><time>2026-05-02T12:30:03Z</time></trkpt><trkpt lat="40.61076619624772" lon="8.187120600169298"><ele>25.0</ele><time>2026-05-02T12:30:04Z</time></trkpt><trkpt lat="40.61060048984301" lon="8.18699949659447"><ele>25.0</ele><time>2026-05-02T12:30:05Z</time></trkpt><trkpt lat="40.61043251858991" lon="8.186873990715442"><ele>25.0</ele><time>2026-05-02T12:30:06Z</time></trkpt><trkpt lat="40.610261898451604" lon="8.18674655592931"><ele>25.333333333333336</ele><time>2026-05-02T12:30:07Z</time></trkpt><trkpt lat="40.61008998034378" lon="8.186618397628449"><ele>25.666666666666664</ele><time>2026-05-02T12:30:08Z</time></trkpt><trkpt lat="40.60991944639612" lon="8.18649140370897"><ele>26.0</ele><time>2026-05-02T12:30:09Z</time></trkpt><trkpt lat="40.609749180113056" lon="8.186364609069921"><ele>26.0</ele><time>2026-05-02T12:30:10Z</time></trkpt><trkpt lat="40.609577880922785" lon="8.1862374244725"><ele>26.0</ele><time>2026-05-02T12:30:11Z</time></trkpt><trkpt lat="40.60940796552139" lon="8.186112968957772"><ele>26.0</ele><time>2026-05-02T12:30:12Z</time></trkpt><trkpt lat="40.6092380043026" lon="8.185988479951359"><ele>26.0</ele><time>2026-05-02T12:30:13Z</time></trkpt><trkpt lat="40.609068055220035" lon="8.185862658282065"><ele>26.0</ele><time>2026-05-02T12:30:14Z</time></trkpt><trkpt lat="40.60889431637548" lon="8.185756671979075"><ele>26.0</ele><time>2026-05-02T12:30:15Z</time></trkpt><trkpt lat="40.60872259845885" lon="8.185628886801558"><ele>25.333333333333332</ele><time>2026-05-02T12:30:16Z</time></trkpt><trkpt lat="40.60855444473039" lon="8.185502547231541"><ele>24.666666666666664</ele><time>2026-05-02T12:30:17Z</time></trkpt><trkpt lat="40.60838719819039" lon="8.18538083780313"><ele>24.0</ele><time>2026-05-02T12:30:18Z</time></trkpt><trkpt lat="40.60821860685936" lon="8.185257691922223"><ele>24.0</ele><time>2026-05-02T12:30:19Z</time></trkpt><trkpt lat="40.60806060807335" lon="8.18511650347926"><ele>24.0</ele><time>2026-05-02T12:30:20Z</time></trkpt><trkpt lat="40.60789507449344" lon="8.184994733061638"><ele>24.0</ele><time>2026-05-02T12:30:21Z</time></trkpt><trkpt lat="40.607722319518444" lon="8.184890606604096"><ele>24.333333333333336</ele><time>2026-05-02T12:30:22Z</time></trkpt><trkpt lat="40.607556321551534" lon="8.184769591210097"><ele>24.666666666666668</ele><time>2026-05-02T12:30:23Z</time></trkpt><trkpt lat="40.607389341560534" lon="8.184646264746437"><ele>25.0</ele><time>2026-05-02T12:30:24Z</time></trkpt><trkpt lat="40.60722360978" lon="8.184522179762931"><ele>25.0</ele><time>2026-05-02T12:30:25Z</time></trkpt><trkpt lat="40.60705928954753" lon="8.184399686805973"><ele>25.0</ele><time>2026-05-02T12:30:26Z</time></trkpt><trkpt lat="40.60689589796044" lon="8.184276237601908"><ele>25.0</ele><time>2026-05-02T12:30:27Z</time></trkpt><trkpt lat="40.606730229932744" lon="8.184156417478267"><ele>26.0</ele><time>2026-05-02T12:30:28Z</time></trkpt><trkpt lat="40.606568389554255" lon="8.184015600956645"><ele>27.0</ele><time>2026-05-02T12:30:29Z</time></trkpt><trkpt lat="40.606395410063655" lon="8.18388802481286"><ele>28.0</ele><time>2026-05-02T12:30:30Z</time></trkpt><trkpt lat="40.60621834104953" lon="8.183757432471946"><ele>25.333333333333336</ele><time>2026-05-02T12:30:31Z</time></trkpt><trkpt lat="40.60603441661962" lon="8.183643495439801"><ele>22.666666666666668</ele><time>2026-05-02T12:30:32Z</time></trkpt><trkpt lat="40.60586074081113" lon="8.183513441368035"><ele>20.0</ele><time>2026-05-02T12:30:33Z</time></trkpt><trkpt lat="40.60570082788884" lon="8.183379917840016"><ele>20.0</ele><time>2026-05-02T12:30:34Z</time></trkpt><trkpt lat="40.60552028859722" lon="8.183300784790752"><ele>20.0</ele><time>2026-05-02T12:30:35Z</time></trkpt><trkpt lat="40.60533202194294" lon="8.183229993216054"><ele>20.0</ele><time>2026-05-02T12:30:36Z</time></trkpt><trkpt lat="40.60514347810527" lon="8.183170426906749"><ele>23.333333333333336</ele><time>2026-05-02T12:30:37Z</time></trkpt><trkpt lat="40.604949651565924" lon="8.183112604941188"><ele>26.666666666666668</ele><time>2026-05-02T12:30:38Z</time></trkpt><trkpt lat="40.60476795948604" lon="8.183031866957938"><ele>30.0</ele><time>2026-05-02T12:30:39Z</time></trkpt><trkpt lat="40.604574624022234" lon="8.182985360798485"><ele>29.0</ele><time>2026-05-02T12:30:40Z</time></trkpt><trkpt lat="40.60439257863966" lon="8.18292963141973"><ele>28.0</ele><time>2026-05-02T12:30:41Z</time></trkpt><trkpt lat="40.604209084129295" lon="8.18287113558674"><ele>27.0</ele><time>2026-05-02T12:30:42Z</time></trkpt><trkpt lat="40.60402796698641" lon="8.182813317750536"><ele>27.0</ele><time>2026-05-02T12:30:43Z</time></trkpt><trkpt lat="40.60385443727641" lon="8.182754439911287"><ele>27.0</ele><time>2026-05-02T12:30:44Z</time></trkpt><trkpt lat="40.603692088298104" lon="8.1826705632564"><ele>27.0</ele><time>2026-05-02T12:30:45Z</time></trkpt><trkpt lat="40.603535162810594" lon="8.18258298522151"><ele>25.666666666666668</ele><time>2026-05-02T12:30:46Z</time></trkpt><trkpt lat="40.60337654253343" lon="8.182477945955698"><ele>24.333333333333336</ele><time>2026-05-02T12:30:47Z</time></trkpt><trkpt lat="40.603215648667906" lon="8.182368927511584"><ele>23.0</ele><time>2026-05-02T12:30:47.999Z</time></trkpt><trkpt lat="40.603049637744306" lon="8.182257496973062"><ele>26.333333333333336</ele><time>2026-05-02T12:30:48.999Z</time></trkpt><trkpt lat="40.60287503670203" lon="8.182161508892307"><ele>29.666666666666668</ele><time>2026-05-02T12:30:49.999Z</time></trkpt><trkpt lat="40.60270685450438" lon="8.182045873402988"><ele>33.0</ele><time>2026-05-02T12:30:50.999Z</time></trkpt><trkpt lat="40.6025368525748" lon="8.181932380374882"><ele>33.0</ele><time>2026-05-02T12:30:51.999Z</time></trkpt><trkpt lat="40.6023679584457" lon="8.181817631987958"><ele>33.0</ele><time>2026-05-02T12:30:52.999Z</time></trkpt><trkpt lat="40.60220221965688" lon="8.181706614275456"><ele>33.0</ele><time>2026-05-02T12:30:53.999Z</time></trkpt><trkpt lat="40.60203996516305" lon="8.1816117650692"><ele>32.333333333333336</ele><time>2026-05-02T12:30:54.999Z</time></trkpt><trkpt lat="40.6018726732047" lon="8.18155211637572"><ele>31.666666666666668</ele><time>2026-05-02T12:30:56Z</time></trkpt><trkpt lat="40.60169064615346" lon="8.181533844141397"><ele>31.0</ele><time>2026-05-02T12:30:57Z</time></trkpt><trkpt lat="40.60150076470153" lon="8.18154221142829"><ele>31.0</ele><time>2026-05-02T12:30:58Z</time></trkpt><trkpt lat="40.60131208863494" lon="8.181556504344137"><ele>31.0</ele><time>2026-05-02T12:30:59Z</time></trkpt><trkpt lat="40.60112484514149" lon="8.181538434809902"><ele>31.0</ele><time>2026-05-02T12:31:00Z</time></trkpt><trkpt lat="40.6009368294421" lon="8.181538139642614"><ele>30.333333333333336</ele><time>2026-05-02T12:31:01Z</time></trkpt><trkpt lat="40.600752369622136" lon="8.18152308130262"><ele>29.666666666666664</ele><time>2026-05-02T12:31:02Z</time></trkpt><trkpt lat="40.60057225155059" lon="8.18147987617521"><ele>29.0</ele><time>2026-05-02T12:31:03Z</time></trkpt><trkpt lat="40.60039915267673" lon="8.181414354185753"><ele>37.33333333333333</ele><time>2026-05-02T12:31:04Z</time></trkpt><trkpt lat="40.60022847736849" lon="8.181344286856124"><ele>45.666666666666664</ele><time>2026-05-02T12:31:05Z</time></trkpt><trkpt lat="40.600065870471084" lon="8.181303232619888"><ele>54.0</ele><time>2026-05-02T12:31:06Z</time></trkpt><trkpt lat="40.59990920613443" lon="8.181273387414704"><ele>54.0</ele><time>2026-05-02T12:31:07Z</time></trkpt><trkpt lat="40.59974637320049" lon="8.181287795638582"><ele>54.0</ele><time>2026-05-02T12:31:08Z</time></trkpt><trkpt lat="40.59957825256089" lon="8.18133037155093"><ele>54.0</ele><time>2026-05-02T12:31:09Z</time></trkpt><trkpt lat="40.599409471026775" lon="8.181341109668784"><ele>55.0</ele><time>2026-05-02T12:31:10Z</time></trkpt><trkpt lat="40.599249980100225" lon="8.181260126554152"><ele>56.0</ele><time>2026-05-02T12:31:11Z</time></trkpt><trkpt lat="40.59908345207818" lon="8.18117025311299"><ele>57.0</ele><time>2026-05-02T12:31:12Z</time></trkpt><trkpt lat="40.59891764644824" lon="8.181077577327407"><ele>57.0</ele><time>2026-05-02T12:31:13Z</time></trkpt><trkpt lat="40.598752925945604" lon="8.180999628692817"><ele>57.0</ele><time>2026-05-02T12:31:14Z</time></trkpt><trkpt lat="40.59861028059865" lon="8.180917696201217"><ele>57.0</ele><time>2026-05-02T12:31:15Z</time></trkpt><trkpt lat="40.59846904423181" lon="8.180829553770245"><ele>58.33333333333333</ele><time>2026-05-02T12:31:16Z</time></trkpt><trkpt lat="40.59833550976423" lon="8.180697164226853"><ele>59.666666666666664</ele><time>2026-05-02T12:31:17Z</time></trkpt><trkpt lat="40.59823686008125" lon="8.180511594795558"><ele>61.0</ele><time>2026-05-02T12:31:18Z</time></trkpt><trkpt lat="40.59814898395379" lon="8.180319356509075"><ele>61.0</ele><time>2026-05-02T12:31:19Z</time></trkpt><trkpt lat="40.59806086755606" lon="8.180131150047979"><ele>61.0</ele><time>2026-05-02T12:31:20Z</time></trkpt><trkpt lat="40.59797847329129" lon="8.17996446332687"><ele>61.0</ele><time>2026-05-02T12:31:21Z</time></trkpt><trkpt lat="40.59787301488628" lon="8.179829861077787"><ele>60.0</ele><time>2026-05-02T12:31:22Z</time></trkpt><trkpt lat="40.59774135579604" lon="8.17974163142221"><ele>59.0</ele><time>2026-05-02T12:31:23Z</time></trkpt><trkpt lat="40.5976032863845" lon="8.179693330937594"><ele>58.0</ele><time>2026-05-02T12:31:24Z</time></trkpt><trkpt lat="40.59748558363345" lon="8.17962202837008"><ele>57.0</ele><time>2026-05-02T12:31:25Z</time></trkpt><trkpt lat="40.59740347789393" lon="8.17950231276478"><ele>57.0</ele><time>2026-05-02T12:31:26Z</time></trkpt><trkpt lat="40.59734829260958" lon="8.179390741587456"><ele>57.0</ele><time>2026-05-02T12:31:27Z</time></trkpt><trkpt lat="40.597285785268646" lon="8.179294714326186"><ele>57.0</ele><time>2026-05-02T12:31:28Z</time></trkpt><trkpt lat="40.59724436511777" lon="8.179188435734194"><ele>57.0</ele><time>2026-05-02T12:31:29Z</time></trkpt><trkpt lat="40.59719607747848" lon="8.179086758041757"><ele>57.0</ele><time>2026-05-02T12:31:30Z</time></trkpt><trkpt lat="40.59714095798013" lon="8.178984288054952"><ele>53.6</ele><time>2026-05-02T12:31:31Z</time></trkpt><trkpt lat="40.59708075212135" lon="8.178872823361699"><ele>50.2</ele><time>2026-05-02T12:31:32Z</time></trkpt><trkpt lat="40.59701938264274" lon="8.178750290585473"><ele>46.8</ele><time>2026-05-02T12:31:33Z</time></trkpt><trkpt lat="40.59695925250325" lon="8.178621504287788"><ele>43.4</ele><time>2026-05-02T12:31:34Z</time></trkpt><trkpt lat="40.596908883954384" lon="8.178484159220044"><ele>40.0</ele><time>2026-05-02T12:31:35Z</time></trkpt><trkpt lat="40.596877546600105" lon="8.178335347168616"><ele>40.0</ele><time>2026-05-02T12:31:36Z</time></trkpt><trkpt lat="40.59684422441283" lon="8.178185329388686"><ele>40.0</ele><time>2026-05-02T12:31:37Z</time></trkpt><trkpt lat="40.5967870472013" lon="8.178041168983961"><ele>40.0</ele><time>2026-05-02T12:31:38Z</time></trkpt><trkpt lat="40.59670102725114" lon="8.177911890656507"><ele>40.0</ele><time>2026-05-02T12:31:39Z</time></trkpt><trkpt lat="40.59660525433946" lon="8.177788964283152"><ele>44.25</ele><time>2026-05-02T12:31:40Z</time></trkpt><trkpt lat="40.596516155757186" lon="8.177659351922172"><ele>48.5</ele><time>2026-05-02T12:31:41Z</time></trkpt><trkpt lat="40.596438398275296" lon="8.177516549864295"><ele>52.75</ele><time>2026-05-02T12:31:42Z</time></trkpt><trkpt lat="40.59637484904447" lon="8.177366744649039"><ele>57.0</ele><time>2026-05-02T12:31:43Z</time></trkpt><trkpt lat="40.59633007347341" lon="8.177207832721566"><ele>60.75</ele><time>2026-05-02T12:31:44Z</time></trkpt><trkpt lat="40.596301010958115" lon="8.17704268700543"><ele>64.5</ele><time>2026-05-02T12:31:45Z</time></trkpt><trkpt lat="40.5962593786746" lon="8.176887319389738"><ele>68.25</ele><time>2026-05-02T12:31:46Z</time></trkpt><trkpt lat="40.59620234858819" lon="8.176731769620952"><ele>72.0</ele><time>2026-05-02T12:31:47Z</time></trkpt><trkpt lat="40.59612053519358" lon="8.176598608883248"><ele>68.0</ele><time>2026-05-02T12:31:48Z</time></trkpt><trkpt lat="40.59601252230382" lon="8.176484252262329"><ele>64.0</ele><time>2026-05-02T12:31:49Z</time></trkpt><trkpt lat="40.595898542406324" lon="8.17637570610504"><ele>60.0</ele><time>2026-05-02T12:31:50Z</time></trkpt><trkpt lat="40.59578069888737" lon="8.17625092729364"><ele>56.0</ele><time>2026-05-02T12:31:51Z</time></trkpt><trkpt lat="40.59566153704423" lon="8.1761173958616"><ele>56.0</ele><time>2026-05-02T12:31:52Z</time></trkpt><trkpt lat="40.595534467463295" lon="8.17598650284921"><ele>56.0</ele><time>2026-05-02T12:31:53Z</time></trkpt><trkpt lat="40.59540742475761" lon="8.175846449592587"><ele>56.0</ele><time>2026-05-02T12:31:54Z</time></trkpt><trkpt lat="40.59527946217249" lon="8.175704840975104"><ele>51.333333333333336</ele><time>2026-05-02T12:31:55Z</time></trkpt><trkpt lat="40.595153932776334" lon="8.175561564102452"><ele>46.66666666666667</ele><time>2026-05-02T12:31:56Z</time></trkpt><trkpt lat="40.595031846197486" lon="8.175425481413521"><ele>42.0</ele><time>2026-05-02T12:31:57Z</time></trkpt><trkpt lat="40.594915733806666" lon="8.175308662348517"><ele>42.0</ele><time>2026-05-02T12:31:58Z</time></trkpt><trkpt lat="40.594811524550074" lon="8.175192125690886"><ele>42.0</ele><time>2026-05-02T12:31:59Z</time></trkpt><trkpt lat="40.59474113081523" lon="8.175038563792866"><ele>42.0</ele><time>2026-05-02T12:32:00Z</time></trkpt><trkpt lat="40.59472466584963" lon="8.174871879961863"><ele>42.0</ele><time>2026-05-02T12:32:01Z</time></trkpt><trkpt lat="40.59474967463632" lon="8.174721842416606"><ele>40.75</ele><time>2026-05-02T12:32:02Z</time></trkpt><trkpt lat="40.594811919193674" lon="8.174584504942263"><ele>39.5</ele><time>2026-05-02T12:32:03Z</time></trkpt><trkpt lat="40.59487965571623" lon="8.174405730062729"><ele>38.25</ele><time>2026-05-02T12:32:04Z</time></trkpt><trkpt lat="40.59495016711404" lon="8.174218146498252"><ele>37.0</ele><time>2026-05-02T12:32:05Z</time></trkpt><trkpt lat="40.595015764305714" lon="8.174018212995675"><ele>34.0</ele><time>2026-05-02T12:32:06Z</time></trkpt><trkpt lat="40.59509589172862" lon="8.17382029789154"><ele>31.0</ele><time>2026-05-02T12:32:07Z</time></trkpt><trkpt lat="40.59516072682446" lon="8.17360662021579"><ele>28.0</ele><time>2026-05-02T12:32:08Z</time></trkpt><trkpt lat="40.59520488905134" lon="8.173374379509625"><ele>25.333333333333336</ele><time>2026-05-02T12:32:09Z</time></trkpt><trkpt lat="40.595228955188944" lon="8.173137020636482"><ele>22.666666666666668</ele><time>2026-05-02T12:32:10Z</time></trkpt><trkpt lat="40.595248463564715" lon="8.172906810927724"><ele>20.0</ele><time>2026-05-02T12:32:11Z</time></trkpt><trkpt lat="40.5952713898327" lon="8.172692793304543"><ele>20.0</ele><time>2026-05-02T12:32:12Z</time></trkpt><trkpt lat="40.59529625061627" lon="8.17247857920548"><ele>20.0</ele><time>2026-05-02T12:32:13Z</time></trkpt><trkpt lat="40.59532891945856" lon="8.17226304257841"><ele>20.0</ele><time>2026-05-02T12:32:14Z</time></trkpt><trkpt lat="40.59537516711884" lon="8.172051251282689"><ele>21.0</ele><time>2026-05-02T12:32:15Z</time></trkpt><trkpt lat="40.595432742167525" lon="8.171845471228576"><ele>22.0</ele><time>2026-05-02T12:32:16Z</time></trkpt><trkpt lat="40.59549347022964" lon="8.17164064627565"><ele>23.0</ele><time>2026-05-02T12:32:17Z</time></trkpt><trkpt lat="40.595550598763644" lon="8.171438660248834"><ele>23.0</ele><time>2026-05-02T12:32:18Z</time></trkpt><trkpt lat="40.59560752745152" lon="8.171237374907026"><ele>23.0</ele><time>2026-05-02T12:32:19Z</time></trkpt><trkpt lat="40.595663524516084" lon="8.17103872055267"><ele>23.0</ele><time>2026-05-02T12:32:20Z</time></trkpt><trkpt lat="40.595718778439455" lon="8.170840725440973"><ele>20.333333333333336</ele><time>2026-05-02T12:32:21Z</time></trkpt><trkpt lat="40.59577244948266" lon="8.170645354140587"><ele>17.666666666666668</ele><time>2026-05-02T12:32:22Z</time></trkpt><trkpt lat="40.59582811025837" lon="8.170447973097898"><ele>15.0</ele><time>2026-05-02T12:32:23Z</time></trkpt><trkpt lat="40.595875032196204" lon="8.170253613804146"><ele>15.0</ele><time>2026-05-02T12:32:24Z</time></trkpt><trkpt lat="40.595931476105775" lon="8.170060205396464"><ele>15.0</ele><time>2026-05-02T12:32:25Z</time></trkpt><trkpt lat="40.59598528220945" lon="8.169860735464804"><ele>15.0</ele><time>2026-05-02T12:32:26Z</time></trkpt><trkpt lat="40.59603935077824" lon="8.169662950842861"><ele>14.0</ele><time>2026-05-02T12:32:27Z</time></trkpt><trkpt lat="40.59609085610154" lon="8.16946408017496"><ele>13.0</ele><time>2026-05-02T12:32:28Z</time></trkpt><trkpt lat="40.596129312764056" lon="8.169269861302766"><ele>12.0</ele><time>2026-05-02T12:32:29Z</time></trkpt><trkpt lat="40.59614756073018" lon="8.1690809054137"><ele>11.75</ele><time>2026-05-02T12:32:30Z</time></trkpt><trkpt lat="40.59614566235251" lon="8.168896257286901"><ele>11.5</ele><time>2026-05-02T12:32:31Z</time></trkpt><trkpt lat="40.5961296754663" lon="8.168718876371795"><ele>11.25</ele><time>2026-05-02T12:32:32Z</time></trkpt><trkpt lat="40.59610156117417" lon="8.168544316117519"><ele>11.0</ele><time>2026-05-02T12:32:33Z</time></trkpt><trkpt lat="40.596073181722154" lon="8.168368830011154"><ele>11.0</ele><time>2026-05-02T12:32:34Z</time></trkpt><trkpt lat="40.596028353733516" lon="8.168190680616393"><ele>11.0</ele><time>2026-05-02T12:32:35Z</time></trkpt><trkpt lat="40.59594798737107" lon="8.168027163470938"><ele>11.0</ele><time>2026-05-02T12:32:36Z</time></trkpt><trkpt lat="40.59587799784643" lon="8.167871553002241"><ele>11.0</ele><time>2026-05-02T12:32:37Z</time></trkpt><trkpt lat="40.59577836133878" lon="8.167730101394314"><ele>11.0</ele><time>2026-05-02T12:32:38Z</time></trkpt><trkpt lat="40.59567238524372" lon="8.16759507297881"><ele>11.0</ele><time>2026-05-02T12:32:39Z</time></trkpt><trkpt lat="40.59555298524477" lon="8.16747762044472"><ele>11.0</ele><time>2026-05-02T12:32:40Z</time></trkpt><trkpt lat="40.595428233363" lon="8.167371315272298"><ele>11.0</ele><time>2026-05-02T12:32:41Z</time></trkpt><trkpt lat="40.59530231165073" lon="8.167266263178098"><ele>10.0</ele><time>2026-05-02T12:32:42Z</time></trkpt><trkpt lat="40.59517275859699" lon="8.167160388277415"><ele>9.0</ele><time>2026-05-02T12:32:43Z</time></trkpt><trkpt lat="40.59504710232945" lon="8.167059141833223"><ele>8.0</ele><time>2026-05-02T12:32:44Z</time></trkpt><trkpt lat="40.5949295873306" lon="8.166964453940015"><ele>7.0</ele><time>2026-05-02T12:32:45Z</time></trkpt><trkpt lat="40.59481553126678" lon="8.166872552890682"><ele>7.0</ele><time>2026-05-02T12:32:46Z</time></trkpt><trkpt lat="40.594702368412925" lon="8.166781371671478"><ele>7.0</ele><time>2026-05-02T12:32:47Z</time></trkpt><trkpt lat="40.59459041508485" lon="8.166691164948059"><ele>7.0</ele><time>2026-05-02T12:32:48Z</time></trkpt><trkpt lat="40.594477218376454" lon="8.166599959049032"><ele>7.0</ele><time>2026-05-02T12:32:49Z</time></trkpt><trkpt lat="40.59436175847112" lon="8.166507472839236"><ele>7.199999999999999</ele><time>2026-05-02T12:32:50Z</time></trkpt><trkpt lat="40.594253437148346" lon="8.16642058476001"><ele>7.3999999999999995</ele><time>2026-05-02T12:32:51Z</time></trkpt><trkpt lat="40.59416018558051" lon="8.166345783666452"><ele>7.6000000000000005</ele><time>2026-05-02T12:32:52Z</time></trkpt><trkpt lat="40.59407379685105" lon="8.166298658764589"><ele>7.800000000000001</ele><time>2026-05-02T12:32:53Z</time></trkpt><trkpt lat="40.5940150000946" lon="8.16625075326412"><ele>8.0</ele><time>2026-05-02T12:32:54Z</time></trkpt><trkpt lat="40.593928240680206" lon="8.166159114683909"><ele>8.0</ele><time>2026-05-02T12:32:55.999Z</time></trkpt><trkpt lat="40.59385271236178" lon="8.166098083826256"><ele>8.0</ele><time>2026-05-02T12:32:57.999Z</time></trkpt><trkpt lat="40.593778824447504" lon="8.166038378597046"><ele>8.0</ele><time>2026-05-02T12:32:59.999Z</time></trkpt><trkpt lat="40.59367499383211" lon="8.165954478077364"><ele>8.0</ele><time>2026-05-02T12:33:02Z</time></trkpt><trkpt lat="40.59360528027642" lon="8.165898144873426"><ele>8.0</ele><time>2026-05-02T12:33:03Z</time></trkpt><trkpt lat="40.59352802191111" lon="8.165835189729636"><ele>8.4</ele><time>2026-05-02T12:33:04Z</time></trkpt><trkpt lat="40.59344424175703" lon="8.165769415203453"><ele>8.8</ele><time>2026-05-02T12:33:05Z</time></trkpt><trkpt lat="40.59335478203349" lon="8.165704318272207"><ele>9.2</ele><time>2026-05-02T12:33:06Z</time></trkpt><trkpt lat="40.593257168350156" lon="8.165643776983964"><ele>9.6</ele><time>2026-05-02T12:33:07Z</time></trkpt><trkpt lat="40.59314097990336" lon="8.165626053232169"><ele>10.0</ele><time>2026-05-02T12:33:08Z</time></trkpt><trkpt lat="40.59301826536915" lon="8.16561214822856"><ele>11.333333333333334</ele><time>2026-05-02T12:33:09Z</time></trkpt><trkpt lat="40.59286661151686" lon="8.165612178338579"><ele>12.666666666666668</ele><time>2026-05-02T12:33:10Z</time></trkpt><trkpt lat="40.592670326546944" lon="8.165609126404247"><ele>14.0</ele><time>2026-05-02T12:33:11Z</time></trkpt><trkpt lat="40.59246269929234" lon="8.165607323124206"><ele>14.666666666666668</ele><time>2026-05-02T12:33:12Z</time></trkpt><trkpt lat="40.59227525492511" lon="8.165606038930775"><ele>15.333333333333332</ele><time>2026-05-02T12:33:13Z</time></trkpt><trkpt lat="40.59212425704788" lon="8.16560447870342"><ele>16.0</ele><time>2026-05-02T12:33:14Z</time></trkpt><trkpt lat="40.59198493987732" lon="8.165597242463042"><ele>16.666666666666664</ele><time>2026-05-02T12:33:15Z</time></trkpt><trkpt lat="40.591839210162256" lon="8.165588695198194"><ele>17.333333333333332</ele><time>2026-05-02T12:33:16Z</time></trkpt><trkpt lat="40.591681708325304" lon="8.16557733243905"><ele>18.0</ele><time>2026-05-02T12:33:17Z</time></trkpt><trkpt lat="40.59153465112518" lon="8.165569389417012"><ele>18.0</ele><time>2026-05-02T12:33:18Z</time></trkpt><trkpt lat="40.59138278174956" lon="8.165561186475124"><ele>18.0</ele><time>2026-05-02T12:33:19Z</time></trkpt><trkpt lat="40.591240251160166" lon="8.165553233005035"><ele>18.0</ele><time>2026-05-02T12:33:20Z</time></trkpt><trkpt lat="40.591098552395565" lon="8.165545998853082"><ele>18.0</ele><time>2026-05-02T12:33:21Z</time></trkpt><trkpt lat="40.59094163884037" lon="8.165542316933381"><ele>18.333333333333332</ele><time>2026-05-02T12:33:22Z</time></trkpt><trkpt lat="40.59077201118613" lon="8.165538467283152"><ele>18.666666666666664</ele><time>2026-05-02T12:33:23Z</time></trkpt><trkpt lat="40.59059068960116" lon="8.16553600346762"><ele>19.0</ele><time>2026-05-02T12:33:24Z</time></trkpt><trkpt lat="40.59039823994652" lon="8.165533389982162"><ele>19.333333333333332</ele><time>2026-05-02T12:33:25Z</time></trkpt><trkpt lat="40.59019674507964" lon="8.165530652047943"><ele>19.666666666666668</ele><time>2026-05-02T12:33:26Z</time></trkpt><trkpt lat="40.58999647813865" lon="8.165527930802119"><ele>20.0</ele><time>2026-05-02T12:33:27Z</time></trkpt><trkpt lat="40.58981621249538" lon="8.165525481331978"><ele>20.0</ele><time>2026-05-02T12:33:28Z</time></trkpt><trkpt lat="40.58965349992464" lon="8.16552327037643"><ele>20.0</ele><time>2026-05-02T12:33:29Z</time></trkpt><trkpt lat="40.58950391482188" lon="8.16552182144497"><ele>20.0</ele><time>2026-05-02T12:33:30Z</time></trkpt><trkpt lat="40.589347034156226" lon="8.165520572505983"><ele>20.666666666666668</ele><time>2026-05-02T12:33:31Z</time></trkpt><trkpt lat="40.58918437658341" lon="8.1655192775772"><ele>21.333333333333332</ele><time>2026-05-02T12:33:32Z</time></trkpt><trkpt lat="40.58901867118884" lon="8.165517958384287"><ele>22.0</ele><time>2026-05-02T12:33:33Z</time></trkpt><trkpt lat="40.588854610935066" lon="8.165515398931454"><ele>22.0</ele><time>2026-05-02T12:33:34Z</time></trkpt><trkpt lat="40.58869255299091" lon="8.165510770362685"><ele>22.0</ele><time>2026-05-02T12:33:35Z</time></trkpt><trkpt lat="40.58853406287701" lon="8.16550624375544"><ele>22.0</ele><time>2026-05-02T12:33:36Z</time></trkpt><trkpt lat="40.58838424992891" lon="8.165502927301972"><ele>22.0</ele><time>2026-05-02T12:33:37Z</time></trkpt><trkpt lat="40.5882334024541" lon="8.165479711577317"><ele>22.0</ele><time>2026-05-02T12:33:38Z</time></trkpt><trkpt lat="40.58808428054984" lon="8.165428543719367"><ele>22.0</ele><time>2026-05-02T12:33:39Z</time></trkpt><trkpt lat="40.58793254026572" lon="8.16536609380053"><ele>21.666666666666664</ele><time>2026-05-02T12:33:40Z</time></trkpt><trkpt lat="40.587781885819666" lon="8.165304041930533"><ele>21.333333333333332</ele><time>2026-05-02T12:33:41Z</time></trkpt><trkpt lat="40.58763086594033" lon="8.165243011808249"><ele>21.0</ele><time>2026-05-02T12:33:42Z</time></trkpt><trkpt lat="40.58747728788631" lon="8.165181480915964"><ele>21.0</ele><time>2026-05-02T12:33:43Z</time></trkpt><trkpt lat="40.58732280290963" lon="8.165119586824638"><ele>21.0</ele><time>2026-05-02T12:33:44Z</time></trkpt><trkpt lat="40.58717113159993" lon="8.165040723350321"><ele>21.0</ele><time>2026-05-02T12:33:45Z</time></trkpt><trkpt lat="40.58702815560956" lon="8.164933071094874"><ele>21.666666666666668</ele><time>2026-05-02T12:33:46Z</time></trkpt><trkpt lat="40.58688316268658" lon="8.164813675830613"><ele>22.333333333333336</ele><time>2026-05-02T12:33:47Z</time></trkpt><trkpt lat="40.58673669571957" lon="8.164685893727137"><ele>23.0</ele><time>2026-05-02T12:33:48Z</time></trkpt><trkpt lat="40.58658695992206" lon="8.164557963715195"><ele>23.0</ele><time>2026-05-02T12:33:49Z</time></trkpt><trkpt lat="40.586433527956245" lon="8.164428719693237"><ele>23.0</ele><time>2026-05-02T12:33:50Z</time></trkpt><trkpt lat="40.586269518355145" lon="8.164314872502022"><ele>23.0</ele><time>2026-05-02T12:33:51Z</time></trkpt><trkpt lat="40.586115349388955" lon="8.164181280558624"><ele>23.666666666666668</ele><time>2026-05-02T12:33:52Z</time></trkpt><trkpt lat="40.58596890033866" lon="8.164030154901909"><ele>24.333333333333336</ele><time>2026-05-02T12:33:53Z</time></trkpt><trkpt lat="40.58581404038049" lon="8.163897460371096"><ele>25.0</ele><time>2026-05-02T12:33:54Z</time></trkpt><trkpt lat="40.58565871917441" lon="8.163765243330348"><ele>25.0</ele><time>2026-05-02T12:33:55Z</time></trkpt><trkpt lat="40.585503506313586" lon="8.163633118241128"><ele>25.0</ele><time>2026-05-02T12:33:56Z</time></trkpt><trkpt lat="40.58534813427232" lon="8.163501298042755"><ele>25.0</ele><time>2026-05-02T12:33:57Z</time></trkpt><trkpt lat="40.585186197016796" lon="8.163386681253028"><ele>25.333333333333336</ele><time>2026-05-02T12:33:58Z</time></trkpt><trkpt lat="40.58503429111924" lon="8.163256120890521"><ele>25.666666666666664</ele><time>2026-05-02T12:33:59Z</time></trkpt><trkpt lat="40.58488238273612" lon="8.163127948468539"><ele>26.0</ele><time>2026-05-02T12:34:00Z</time></trkpt><trkpt lat="40.58473266009151" lon="8.162999692933914"><ele>26.0</ele><time>2026-05-02T12:34:01Z</time></trkpt><trkpt lat="40.584586202907495" lon="8.16287173912386"><ele>26.0</ele><time>2026-05-02T12:34:02Z</time></trkpt><trkpt lat="40.58443933826723" lon="8.16274935831041"><ele>26.0</ele><time>2026-05-02T12:34:03Z</time></trkpt><trkpt lat="40.58428716231772" lon="8.16264079462803"><ele>25.333333333333332</ele><time>2026-05-02T12:34:04Z</time></trkpt><trkpt lat="40.584126275269135" lon="8.162557724715029"><ele>24.666666666666664</ele><time>2026-05-02T12:34:05Z</time></trkpt><trkpt lat="40.58395654233002" lon="8.162497120494793"><ele>24.0</ele><time>2026-05-02T12:34:06Z</time></trkpt><trkpt lat="40.58379248374795" lon="8.162414406604578"><ele>25.666666666666664</ele><time>2026-05-02T12:34:07Z</time></trkpt><trkpt lat="40.583625090309134" lon="8.162348553200054"><ele>27.333333333333332</ele><time>2026-05-02T12:34:08Z</time></trkpt><trkpt lat="40.58345911139149" lon="8.162283256287706"><ele>29.0</ele><time>2026-05-02T12:34:09Z</time></trkpt><trkpt lat="40.58329180458974" lon="8.162239113749884"><ele>29.0</ele><time>2026-05-02T12:34:10Z</time></trkpt><trkpt lat="40.58313146657483" lon="8.162174064964644"><ele>29.0</ele><time>2026-05-02T12:34:11Z</time></trkpt><trkpt lat="40.582971587436575" lon="8.162109714552182"><ele>29.0</ele><time>2026-05-02T12:34:12Z</time></trkpt><trkpt lat="40.58281398049014" lon="8.162044838038812"><ele>28.666666666666664</ele><time>2026-05-02T12:34:13Z</time></trkpt><trkpt lat="40.58265871191811" lon="8.16198253112787"><ele>28.333333333333336</ele><time>2026-05-02T12:34:14Z</time></trkpt><trkpt lat="40.58250009462617" lon="8.161922973704947"><ele>28.0</ele><time>2026-05-02T12:34:15Z</time></trkpt><trkpt lat="40.582340549587904" lon="8.161859637748785"><ele>28.0</ele><time>2026-05-02T12:34:16Z</time></trkpt><trkpt lat="40.5821719479905" lon="8.161800684276967"><ele>28.0</ele><time>2026-05-02T12:34:17Z</time></trkpt><trkpt lat="40.58199271055345" lon="8.161759418124495"><ele>28.0</ele><time>2026-05-02T12:34:18Z</time></trkpt><trkpt lat="40.58180405819045" lon="8.161731021919936"><ele>28.0</ele><time>2026-05-02T12:34:19Z</time></trkpt><trkpt lat="40.58160846432886" lon="8.161706489486301"><ele>28.0</ele><time>2026-05-02T12:34:20Z</time></trkpt><trkpt lat="40.581411810316645" lon="8.161684466719782"><ele>28.0</ele><time>2026-05-02T12:34:21Z</time></trkpt><trkpt lat="40.58121991025419" lon="8.161661002658937"><ele>27.333333333333336</ele><time>2026-05-02T12:34:22Z</time></trkpt><trkpt lat="40.5810450437965" lon="8.161641996182519"><ele>26.666666666666664</ele><time>2026-05-02T12:34:23Z</time></trkpt><trkpt lat="40.580876110485946" lon="8.16162134932004"><ele>26.0</ele><time>2026-05-02T12:34:24Z</time></trkpt><trkpt lat="40.580701621382886" lon="8.161598826624545"><ele>26.0</ele><time>2026-05-02T12:34:25Z</time></trkpt><trkpt lat="40.580524371118834" lon="8.161575163794295"><ele>26.0</ele><time>2026-05-02T12:34:26Z</time></trkpt><trkpt lat="40.580349246785836" lon="8.16154913851688"><ele>26.0</ele><time>2026-05-02T12:34:27Z</time></trkpt><trkpt lat="40.58017719223117" lon="8.161523602122797"><ele>30.333333333333332</ele><time>2026-05-02T12:34:28Z</time></trkpt><trkpt lat="40.580008415644606" lon="8.161500273807157"><ele>34.666666666666664</ele><time>2026-05-02T12:34:29Z</time></trkpt><trkpt lat="40.57984045865329" lon="8.161479727820728"><ele>39.0</ele><time>2026-05-02T12:34:30Z</time></trkpt><trkpt lat="40.57967320276166" lon="8.161440773649023"><ele>37.333333333333336</ele><time>2026-05-02T12:34:31Z</time></trkpt><trkpt lat="40.579504850850334" lon="8.161418147919031"><ele>35.66666666666667</ele><time>2026-05-02T12:34:32Z</time></trkpt><trkpt lat="40.57933521617605" lon="8.1613953497857"><ele>34.0</ele><time>2026-05-02T12:34:33Z</time></trkpt><trkpt lat="40.57916297613225" lon="8.161372201496935"><ele>34.0</ele><time>2026-05-02T12:34:34Z</time></trkpt><trkpt lat="40.57898546622582" lon="8.16134628388588"><ele>34.0</ele><time>2026-05-02T12:34:35Z</time></trkpt><trkpt lat="40.57880782675234" lon="8.16130963007697"><ele>34.0</ele><time>2026-05-02T12:34:36Z</time></trkpt><trkpt lat="40.57863122711709" lon="8.161260894040227"><ele>32.66666666666667</ele><time>2026-05-02T12:34:37Z</time></trkpt><trkpt lat="40.57845778073991" lon="8.161210148311495"><ele>31.333333333333336</ele><time>2026-05-02T12:34:38Z</time></trkpt><trkpt lat="40.57828979244097" lon="8.161157920380592"><ele>30.0</ele><time>2026-05-02T12:34:39Z</time></trkpt><trkpt lat="40.57812979914824" lon="8.16110353308492"><ele>30.0</ele><time>2026-05-02T12:34:40Z</time></trkpt><trkpt lat="40.57798285069182" lon="8.161046967395684"><ele>30.0</ele><time>2026-05-02T12:34:41Z</time></trkpt><trkpt lat="40.57784397935849" lon="8.160990482366671"><ele>30.0</ele><time>2026-05-02T12:34:42Z</time></trkpt><trkpt lat="40.57770843513901" lon="8.16095322926059"><ele>30.0</ele><time>2026-05-02T12:34:43Z</time></trkpt><trkpt lat="40.577577429367835" lon="8.160896864283785"><ele>30.25</ele><time>2026-05-02T12:34:44Z</time></trkpt><trkpt lat="40.57744416833422" lon="8.160839596474798"><ele>30.5</ele><time>2026-05-02T12:34:45Z</time></trkpt><trkpt lat="40.57731895315204" lon="8.160763225791838"><ele>30.75</ele><time>2026-05-02T12:34:46Z</time></trkpt><trkpt lat="40.57720598143148" lon="8.160653647069378"><ele>31.0</ele><time>2026-05-02T12:34:47Z</time></trkpt><trkpt lat="40.577108212155586" lon="8.160517064288683"><ele>31.0</ele><time>2026-05-02T12:34:48Z</time></trkpt><trkpt lat="40.57705266546406" lon="8.160351040288612"><ele>31.0</ele><time>2026-05-02T12:34:49Z</time></trkpt><trkpt lat="40.57699962859852" lon="8.160184057007271"><ele>31.0</ele><time>2026-05-02T12:34:50Z</time></trkpt><trkpt lat="40.57694174421355" lon="8.16002092620195"><ele>31.0</ele><time>2026-05-02T12:34:51Z</time></trkpt><trkpt lat="40.57689843432259" lon="8.159853543065253"><ele>29.5</ele><time>2026-05-02T12:34:52Z</time></trkpt><trkpt lat="40.57684683087106" lon="8.159686887778497"><ele>28.0</ele><time>2026-05-02T12:34:53Z</time></trkpt><trkpt lat="40.576805220314114" lon="8.159521399710385"><ele>26.5</ele><time>2026-05-02T12:34:54Z</time></trkpt><trkpt lat="40.576766431083534" lon="8.159368100433175"><ele>25.0</ele><time>2026-05-02T12:34:55Z</time></trkpt><trkpt lat="40.576705222073116" lon="8.159242028870084"><ele>25.0</ele><time>2026-05-02T12:34:56Z</time></trkpt><trkpt lat="40.57660522020849" lon="8.15916208846342"><ele>25.0</ele><time>2026-05-02T12:34:57Z</time></trkpt><trkpt lat="40.576533120101274" lon="8.159058700339502"><ele>25.0</ele><time>2026-05-02T12:34:58Z</time></trkpt><trkpt lat="40.57643522233264" lon="8.158992037106282"><ele>25.0</ele><time>2026-05-02T12:34:59Z</time></trkpt><trkpt lat="40.576350705092054" lon="8.158919467103008"><ele>25.0</ele><time>2026-05-02T12:35:00Z</time></trkpt><trkpt lat="40.57626040591247" lon="8.15884971553527"><ele>25.75</ele><time>2026-05-02T12:35:01Z</time></trkpt><trkpt lat="40.57616964875625" lon="8.158758216200496"><ele>26.5</ele><time>2026-05-02T12:35:02Z</time></trkpt><trkpt lat="40.576059409910016" lon="8.158694177742891"><ele>27.25</ele><time>2026-05-02T12:35:03Z</time></trkpt><trkpt lat="40.575935100410696" lon="8.158684933213214"><ele>28.0</ele><time>2026-05-02T12:35:04Z</time></trkpt><trkpt lat="40.57580494354163" lon="8.158665748963188"><ele>28.0</ele><time>2026-05-02T12:35:05Z</time></trkpt><trkpt lat="40.57567125864899" lon="8.158722588263844"><ele>28.0</ele><time>2026-05-02T12:35:06Z</time></trkpt><trkpt lat="40.575547905696205" lon="8.158810580254084"><ele>28.0</ele><time>2026-05-02T12:35:07Z</time></trkpt><trkpt lat="40.575430236753114" lon="8.158912625503033"><ele>28.0</ele><time>2026-05-02T12:35:08Z</time></trkpt><trkpt lat="40.575312644996416" lon="8.15901587438228"><ele>30.5</ele><time>2026-05-02T12:35:09Z</time></trkpt><trkpt lat="40.57519355684991" lon="8.15912043718777"><ele>33.0</ele><time>2026-05-02T12:35:10Z</time></trkpt><trkpt lat="40.57507369920677" lon="8.159225675616204"><ele>35.5</ele><time>2026-05-02T12:35:11Z</time></trkpt><trkpt lat="40.574958165859236" lon="8.159327117152154"><ele>38.0</ele><time>2026-05-02T12:35:12Z</time></trkpt><trkpt lat="40.574847114209184" lon="8.159424623749024"><ele>38.0</ele><time>2026-05-02T12:35:13Z</time></trkpt><trkpt lat="40.57474767306699" lon="8.159537392364461"><ele>38.0</ele><time>2026-05-02T12:35:14Z</time></trkpt><trkpt lat="40.57463575958585" lon="8.159634248912273"><ele>38.0</ele><time>2026-05-02T12:35:15Z</time></trkpt><trkpt lat="40.574513437000505" lon="8.159738556424765"><ele>38.0</ele><time>2026-05-02T12:35:16Z</time></trkpt><trkpt lat="40.57438338769851" lon="8.159848036443059"><ele>39.666666666666664</ele><time>2026-05-02T12:35:17Z</time></trkpt><trkpt lat="40.57424885348046" lon="8.159967119480173"><ele>41.333333333333336</ele><time>2026-05-02T12:35:18Z</time></trkpt><trkpt lat="40.5741122487059" lon="8.160098195203368"><ele>43.0</ele><time>2026-05-02T12:35:19Z</time></trkpt><trkpt lat="40.57397865737712" lon="8.160240180528046"><ele>43.0</ele><time>2026-05-02T12:35:20Z</time></trkpt><trkpt lat="40.57386362771994" lon="8.160388413007864"><ele>43.0</ele><time>2026-05-02T12:35:21Z</time></trkpt><trkpt lat="40.5737747244794" lon="8.160567128532778"><ele>43.0</ele><time>2026-05-02T12:35:22Z</time></trkpt><trkpt lat="40.57368441802524" lon="8.160738131433124"><ele>45.8</ele><time>2026-05-02T12:35:23Z</time></trkpt><trkpt lat="40.57360673911217" lon="8.160877755310413"><ele>48.599999999999994</ele><time>2026-05-02T12:35:24Z</time></trkpt><trkpt lat="40.57353747060682" lon="8.161002635399123"><ele>51.400000000000006</ele><time>2026-05-02T12:35:25Z</time></trkpt><trkpt lat="40.57347738315629" lon="8.161108258781697"><ele>54.2</ele><time>2026-05-02T12:35:26Z</time></trkpt><trkpt lat="40.573424084591345" lon="8.161193975639556"><ele>57.0</ele><time>2026-05-02T12:35:27Z</time></trkpt><trkpt lat="40.57337796814954" lon="8.161272305307888"><ele>57.0</ele><time>2026-05-02T12:35:28Z</time></trkpt><trkpt lat="40.57333371231457" lon="8.161348394168174"><ele>57.0</ele><time>2026-05-02T12:35:29Z</time></trkpt><trkpt lat="40.573262527021576" lon="8.161471814370842"><ele>57.0</ele><time>2026-05-02T12:35:31Z</time></trkpt><trkpt lat="40.5732216059896" lon="8.161541560619272"><ele>57.0</ele><time>2026-05-02T12:35:32Z</time></trkpt><trkpt lat="40.57317848146496" lon="8.161619021403277"><ele>57.0</ele><time>2026-05-02T12:35:33Z</time></trkpt><trkpt lat="40.573128508325915" lon="8.161708740442672"><ele>57.0</ele><time>2026-05-02T12:35:34Z</time></trkpt><trkpt lat="40.573073680726544" lon="8.161803068318699"><ele>56.2</ele><time>2026-05-02T12:35:35Z</time></trkpt><trkpt lat="40.572999583815054" lon="8.161888233479399"><ele>55.400000000000006</ele><time>2026-05-02T12:35:36Z</time></trkpt><trkpt lat="40.572922969865104" lon="8.161979811767395"><ele>54.599999999999994</ele><time>2026-05-02T12:35:37Z</time></trkpt><trkpt lat="40.5728417932095" lon="8.16208591829266"><ele>53.8</ele><time>2026-05-02T12:35:38Z</time></trkpt><trkpt lat="40.57275323381759" lon="8.162183683502821"><ele>53.0</ele><time>2026-05-02T12:35:39Z</time></trkpt><trkpt lat="40.57266361323156" lon="8.162279448800284"><ele>54.599999999999994</ele><time>2026-05-02T12:35:40Z</time></trkpt><trkpt lat="40.572572315748936" lon="8.162373236938341"><ele>56.199999999999996</ele><time>2026-05-02T12:35:41Z</time></trkpt><trkpt lat="40.5724845023983" lon="8.162467326058717"><ele>57.8</ele><time>2026-05-02T12:35:42Z</time></trkpt><trkpt lat="40.57239923757245" lon="8.162560304658"><ele>59.4</ele><time>2026-05-02T12:35:43Z</time></trkpt><trkpt lat="40.57231547249057" lon="8.1626476119884"><ele>61.0</ele><time>2026-05-02T12:35:44Z</time></trkpt><trkpt lat="40.57223577200886" lon="8.162740268309703"><ele>61.0</ele><time>2026-05-02T12:35:45Z</time></trkpt><trkpt lat="40.572154023495884" lon="8.162823721318345"><ele>60.99999999999999</ele><time>2026-05-02T12:35:46Z</time></trkpt><trkpt lat="40.57207360159092" lon="8.162904093418799"><ele>60.99999999999999</ele><time>2026-05-02T12:35:47Z</time></trkpt><trkpt lat="40.57199201450442" lon="8.162991202268657"><ele>61.0</ele><time>2026-05-02T12:35:48Z</time></trkpt><trkpt lat="40.571893658361304" lon="8.163067224179462"><ele>61.0</ele><time>2026-05-02T12:35:49Z</time></trkpt><trkpt lat="40.5717749388231" lon="8.163081576364283"><ele>65.25</ele><time>2026-05-02T12:35:50Z</time></trkpt><trkpt lat="40.571660505307584" lon="8.16304863213502"><ele>69.5</ele><time>2026-05-02T12:35:51Z</time></trkpt><trkpt lat="40.571534901223835" lon="8.163021073111668"><ele>73.75</ele><time>2026-05-02T12:35:52Z</time></trkpt><trkpt lat="40.57140808888112" lon="8.163002439595331"><ele>78.0</ele><time>2026-05-02T12:35:53Z</time></trkpt><trkpt lat="40.57128046757657" lon="8.162949944073805"><ele>78.75</ele><time>2026-05-02T12:35:54Z</time></trkpt><trkpt lat="40.57115338297111" lon="8.162897768103162"><ele>79.5</ele><time>2026-05-02T12:35:55Z</time></trkpt><trkpt lat="40.571011044840205" lon="8.162831625423792"><ele>80.25</ele><time>2026-05-02T12:35:56Z</time></trkpt><trkpt lat="40.57086268998039" lon="8.162757414378088"><ele>81.0</ele><time>2026-05-02T12:35:57Z</time></trkpt><trkpt lat="40.570705981808565" lon="8.16268551323978"><ele>81.0</ele><time>2026-05-02T12:35:58Z</time></trkpt><trkpt lat="40.57055246751032" lon="8.1626132725661"><ele>81.0</ele><time>2026-05-02T12:35:59Z</time></trkpt><trkpt lat="40.57041038044313" lon="8.162571933098613"><ele>81.0</ele><time>2026-05-02T12:36:00Z</time></trkpt><trkpt lat="40.57026009965427" lon="8.16259529533478"><ele>84.0</ele><time>2026-05-02T12:36:01Z</time></trkpt><trkpt lat="40.570094636359656" lon="8.162675625459604"><ele>87.0</ele><time>2026-05-02T12:36:02Z</time></trkpt><trkpt lat="40.569917667000375" lon="8.162787800920961"><ele>90.0</ele><time>2026-05-02T12:36:03Z</time></trkpt><trkpt lat="40.569730415548065" lon="8.162902580602266"><ele>90.0</ele><time>2026-05-02T12:36:04Z</time></trkpt><trkpt lat="40.56954739156195" lon="8.16299401538238"><ele>90.0</ele><time>2026-05-02T12:36:05Z</time></trkpt><trkpt lat="40.569389970502456" lon="8.16307354634942"><ele>90.0</ele><time>2026-05-02T12:36:06Z</time></trkpt><trkpt lat="40.56924980227985" lon="8.163136026352522"><ele>89.0</ele><time>2026-05-02T12:36:07Z</time></trkpt><trkpt lat="40.569118576596516" lon="8.16318942427638"><ele>88.0</ele><time>2026-05-02T12:36:08Z</time></trkpt><trkpt lat="40.568988680207504" lon="8.163244370840168"><ele>87.0</ele><time>2026-05-02T12:36:09Z</time></trkpt><trkpt lat="40.56886627792009" lon="8.163299203545815"><ele>86.0</ele><time>2026-05-02T12:36:10Z</time></trkpt><trkpt lat="40.56874074687996" lon="8.163355300506845"><ele>90.0</ele><time>2026-05-02T12:36:11Z</time></trkpt><trkpt lat="40.56860963666228" lon="8.163413953575335"><ele>94.0</ele><time>2026-05-02T12:36:12Z</time></trkpt><trkpt lat="40.56847407890122" lon="8.163472726330445"><ele>98.0</ele><time>2026-05-02T12:36:13Z</time></trkpt><trkpt lat="40.56833729641156" lon="8.16353141500707"><ele>102.0</ele><time>2026-05-02T12:36:14Z</time></trkpt><trkpt lat="40.56819847207539" lon="8.163587040855237"><ele>102.0</ele><time>2026-05-02T12:36:15Z</time></trkpt><trkpt lat="40.56805801670725" lon="8.163640734522215"><ele>102.0</ele><time>2026-05-02T12:36:16Z</time></trkpt><trkpt lat="40.56792002270555" lon="8.163694874977974"><ele>102.0</ele><time>2026-05-02T12:36:17Z</time></trkpt><trkpt lat="40.567789665173905" lon="8.163747161090836"><ele>102.0</ele><time>2026-05-02T12:36:18Z</time></trkpt><trkpt lat="40.56767360788962" lon="8.163792546827644"><ele>104.83333333333333</ele><time>2026-05-02T12:36:19Z</time></trkpt><trkpt lat="40.56757348718118" lon="8.163827666551882"><ele>107.66666666666666</ele><time>2026-05-02T12:36:20Z</time></trkpt><trkpt lat="40.5674828175218" lon="8.163857832311546"><ele>110.5</ele><time>2026-05-02T12:36:21Z</time></trkpt><trkpt lat="40.56739064886774" lon="8.1638691572869"><ele>113.33333333333333</ele><time>2026-05-02T12:36:22Z</time></trkpt><trkpt lat="40.56731412655543" lon="8.163889322304954"><ele>116.16666666666666</ele><time>2026-05-02T12:36:23Z</time></trkpt><trkpt lat="40.56724104829737" lon="8.163905553532345"><ele>119.0</ele><time>2026-05-02T12:36:24Z</time></trkpt><trkpt lat="40.56717229310817" lon="8.163915367157264"><ele>119.0</ele><time>2026-05-02T12:36:25Z</time></trkpt><trkpt lat="40.56708927811573" lon="8.163924055754018"><ele>119.0</ele><time>2026-05-02T12:36:26Z</time></trkpt><trkpt lat="40.566998447548244" lon="8.163929681787026"><ele>119.0</ele><time>2026-05-02T12:36:27Z</time></trkpt><trkpt lat="40.566902526244654" lon="8.163933641176163"><ele>119.0</ele><time>2026-05-02T12:36:28Z</time></trkpt><trkpt lat="40.566805985192865" lon="8.163929790050718"><ele>119.0</ele><time>2026-05-02T12:36:29Z</time></trkpt><trkpt lat="40.56670941336915" lon="8.163921658127501"><ele>120.4</ele><time>2026-05-02T12:36:30Z</time></trkpt><trkpt lat="40.56661465359357" lon="8.163907770292653"><ele>121.80000000000001</ele><time>2026-05-02T12:36:31Z</time></trkpt><trkpt lat="40.566519707947975" lon="8.163899639672511"><ele>123.19999999999999</ele><time>2026-05-02T12:36:32Z</time></trkpt><trkpt lat="40.56642682372091" lon="8.163901044025083"><ele>124.6</ele><time>2026-05-02T12:36:33Z</time></trkpt><trkpt lat="40.56633568060555" lon="8.163966752842494"><ele>126.0</ele><time>2026-05-02T12:36:34Z</time></trkpt><trkpt lat="40.56626441342208" lon="8.164040364431155"><ele>121.33333333333333</ele><time>2026-05-02T12:36:35Z</time></trkpt><trkpt lat="40.566205985911175" lon="8.164136490100866"><ele>116.66666666666666</ele><time>2026-05-02T12:36:36Z</time></trkpt><trkpt lat="40.56614721588306" lon="8.164223275147345"><ele>112.0</ele><time>2026-05-02T12:36:37Z</time></trkpt><trkpt lat="40.566074679186656" lon="8.164286921381006"><ele>107.33333333333333</ele><time>2026-05-02T12:36:38Z</time></trkpt><trkpt lat="40.566001006984976" lon="8.16435421208385"><ele>102.66666666666666</ele><time>2026-05-02T12:36:39Z</time></trkpt><trkpt lat="40.56591715895651" lon="8.164396668788283"><ele>98.0</ele><time>2026-05-02T12:36:40Z</time></trkpt><trkpt lat="40.56583181741269" lon="8.164433006428457"><ele>98.0</ele><time>2026-05-02T12:36:41Z</time></trkpt><trkpt lat="40.56574915308699" lon="8.164467913817987"><ele>98.0</ele><time>2026-05-02T12:36:42Z</time></trkpt><trkpt lat="40.56568634771135" lon="8.16448983056456"><ele>98.0</ele><time>2026-05-02T12:36:43Z</time></trkpt><trkpt lat="40.565574902185745" lon="8.164520363068833"><ele>98.0</ele><time>2026-05-02T12:36:45Z</time></trkpt><trkpt lat="40.56551141182752" lon="8.1645266108252"><ele>98.0</ele><time>2026-05-02T12:36:46Z</time></trkpt><trkpt lat="40.56538939039778" lon="8.164532777708724"><ele>98.0</ele><time>2026-05-02T12:36:48Z</time></trkpt><trkpt lat="40.56525763565041" lon="8.164520961727817"><ele>98.0</ele><time>2026-05-02T12:36:50Z</time></trkpt><trkpt lat="40.565169153490196" lon="8.164502001709826"><ele>98.0</ele><time>2026-05-02T12:36:51Z</time></trkpt><trkpt lat="40.56507245965789" lon="8.164477607052621"><ele>98.0</ele><time>2026-05-02T12:36:52Z</time></trkpt><trkpt lat="40.56499362149388" lon="8.164454610063874"><ele>98.0</ele><time>2026-05-02T12:36:53Z</time></trkpt><trkpt lat="40.56490433290543" lon="8.164428564673011"><ele>97.99999999999999</ele><time>2026-05-02T12:36:55Z</time></trkpt><trkpt lat="40.56481850917158" lon="8.164403529763565"><ele>98.0</ele><time>2026-05-02T12:36:57Z</time></trkpt><trkpt lat="40.564700066789" lon="8.164376241147432"><ele>98.0</ele><time>2026-05-02T12:36:59Z</time></trkpt><trkpt lat="40.56462565818183" lon="8.164396266509188"><ele>98.0</ele><time>2026-05-02T12:37:00Z</time></trkpt><trkpt lat="40.56455110695232" lon="8.164389493033129"><ele>97.99999999999999</ele><time>2026-05-02T12:37:01Z</time></trkpt><trkpt lat="40.56447519314534" lon="8.164382814062627"><ele>98.0</ele><time>2026-05-02T12:37:02Z</time></trkpt><trkpt lat="40.56440459349849" lon="8.164372025661587"><ele>98.0</ele><time>2026-05-02T12:37:03Z</time></trkpt><trkpt lat="40.56434866566046" lon="8.16431827603631"><ele>98.0</ele><time>2026-05-02T12:37:04Z</time></trkpt><trkpt lat="40.5642474342902" lon="8.164268845235906"><ele>98.0</ele><time>2026-05-02T12:37:06Z</time></trkpt><trkpt lat="40.56414850164352" lon="8.164195393906093"><ele>98.0</ele><time>2026-05-02T12:37:08Z</time></trkpt><trkpt lat="40.56405727359931" lon="8.164109026699563"><ele>98.0</ele><time>2026-05-02T12:37:10Z</time></trkpt><trkpt lat="40.563960106773315" lon="8.164008319654014"><ele>97.99999999999999</ele><time>2026-05-02T12:37:11.999Z</time></trkpt><trkpt lat="40.563905824713835" lon="8.16394576933817"><ele>98.0</ele><time>2026-05-02T12:37:12.999Z</time></trkpt><trkpt lat="40.56385144822076" lon="8.163878438895116"><ele>98.0</ele><time>2026-05-02T12:37:14Z</time></trkpt><trkpt lat="40.56378717393622" lon="8.163820817015765"><ele>98.0</ele><time>2026-05-02T12:37:15Z</time></trkpt><trkpt lat="40.563735335526204" lon="8.163727548984582"><ele>97.99999999999999</ele><time>2026-05-02T12:37:16Z</time></trkpt><trkpt lat="40.56366986225704" lon="8.163663269983978"><ele>98.0</ele><time>2026-05-02T12:37:17Z</time></trkpt><trkpt lat="40.5636116979443" lon="8.163585654253865"><ele>97.99999999999999</ele><time>2026-05-02T12:37:18Z</time></trkpt><trkpt lat="40.56355692493354" lon="8.163516160971705"><ele>98.0</ele><time>2026-05-02T12:37:19Z</time></trkpt><trkpt lat="40.56349510056376" lon="8.163367490362402"><ele>98.0</ele><time>2026-05-02T12:37:21Z</time></trkpt><trkpt lat="40.563450331939165" lon="8.163272665533952"><ele>98.0</ele><time>2026-05-02T12:37:23Z</time></trkpt><trkpt lat="40.56340460397193" lon="8.163195884335696"><ele>97.99999999999999</ele><time>2026-05-02T12:37:25Z</time></trkpt><trkpt lat="40.56334744445373" lon="8.163160521011568"><ele>98.0</ele><time>2026-05-02T12:37:38Z</time></trkpt><trkpt lat="40.56339738743311" lon="8.163219351765338"><ele>98.0</ele><time>2026-05-02T12:39:04Z</time></trkpt><trkpt lat="40.5634373098271" lon="8.163287008351743"><ele>98.0</ele><time>2026-05-02T12:39:11.999Z</time></trkpt><trkpt lat="40.56348471123647" lon="8.163379234114528"><ele>98.0</ele><time>2026-05-02T12:39:14.999Z</time></trkpt><trkpt lat="40.56353278875005" lon="8.163476690068713"><ele>98.0</ele><time>2026-05-02T12:39:15.999Z</time></trkpt><trkpt lat="40.56358047062476" lon="8.163534728592209"><ele>98.0</ele><time>2026-05-02T12:39:16.999Z</time></trkpt><trkpt lat="40.56363673699049" lon="8.163587152157985"><ele>98.0</ele><time>2026-05-02T12:39:17.999Z</time></trkpt><trkpt lat="40.563700360727886" lon="8.16362225061954"><ele>98.0</ele><time>2026-05-02T12:39:18.999Z</time></trkpt><trkpt lat="40.56373737033879" lon="8.163746385792255"><ele>98.0</ele><time>2026-05-02T12:39:20Z</time></trkpt><trkpt lat="40.56378067523303" lon="8.163811329811507"><ele>98.0</ele><time>2026-05-02T12:39:21Z</time></trkpt><trkpt lat="40.56382320846243" lon="8.163875674505459"><ele>98.0</ele><time>2026-05-02T12:39:22Z</time></trkpt><trkpt lat="40.56386790734046" lon="8.163939046260122"><ele>98.0</ele><time>2026-05-02T12:39:23Z</time></trkpt><trkpt lat="40.56391602135476" lon="8.164000952098307"><ele>98.0</ele><time>2026-05-02T12:39:24Z</time></trkpt><trkpt lat="40.56397130948171" lon="8.164066379668164"><ele>98.0</ele><time>2026-05-02T12:39:25Z</time></trkpt><trkpt lat="40.564034317375" lon="8.164134482438932"><ele>98.0</ele><time>2026-05-02T12:39:26Z</time></trkpt><trkpt lat="40.56409949513934" lon="8.164199456743418"><ele>97.99999999999999</ele><time>2026-05-02T12:39:27Z</time></trkpt><trkpt lat="40.56416995972357" lon="8.16426238664029"><ele>98.0</ele><time>2026-05-02T12:39:28Z</time></trkpt><trkpt lat="40.56424230791205" lon="8.164323940220026"><ele>98.0</ele><time>2026-05-02T12:39:29Z</time></trkpt><trkpt lat="40.5643045870271" lon="8.16436227067823"><ele>98.0</ele><time>2026-05-02T12:39:30Z</time></trkpt><trkpt lat="40.56442698631177" lon="8.164388989513062"><ele>97.99999999999999</ele><time>2026-05-02T12:39:32Z</time></trkpt><trkpt lat="40.56449108072423" lon="8.16439628342206"><ele>98.0</ele><time>2026-05-02T12:39:33Z</time></trkpt><trkpt lat="40.56455440442467" lon="8.164407190640278"><ele>98.0</ele><time>2026-05-02T12:39:34Z</time></trkpt><trkpt lat="40.56462234228564" lon="8.164417181691974"><ele>98.0</ele><time>2026-05-02T12:39:35Z</time></trkpt><trkpt lat="40.56468868431475" lon="8.164426088390696"><ele>98.0</ele><time>2026-05-02T12:39:36Z</time></trkpt><trkpt lat="40.56476614601434" lon="8.164431155997454"><ele>98.0</ele><time>2026-05-02T12:39:37Z</time></trkpt><trkpt lat="40.56483874938016" lon="8.164446802578137"><ele>98.0</ele><time>2026-05-02T12:39:38Z</time></trkpt><trkpt lat="40.56491189695953" lon="8.164474560798423"><ele>98.0</ele><time>2026-05-02T12:39:39Z</time></trkpt><trkpt lat="40.56497750449727" lon="8.164498490257392"><ele>98.0</ele><time>2026-05-02T12:39:40Z</time></trkpt><trkpt lat="40.565038846533575" lon="8.16451712023037"><ele>97.99999999999999</ele><time>2026-05-02T12:39:41Z</time></trkpt><trkpt lat="40.565107507028515" lon="8.164538329172563"><ele>98.0</ele><time>2026-05-02T12:39:42Z</time></trkpt><trkpt lat="40.56518037194822" lon="8.164556219469814"><ele>98.0</ele><time>2026-05-02T12:39:43Z</time></trkpt><trkpt lat="40.56525957840008" lon="8.164568302557777"><ele>98.0</ele><time>2026-05-02T12:39:44Z</time></trkpt><trkpt lat="40.56534338889881" lon="8.164578683765075"><ele>97.99999999999999</ele><time>2026-05-02T12:39:45Z</time></trkpt><trkpt lat="40.56543090717275" lon="8.164586779075117"><ele>98.0</ele><time>2026-05-02T12:39:46Z</time></trkpt><trkpt lat="40.56551296526899" lon="8.164580714888844"><ele>98.0</ele><time>2026-05-02T12:39:47Z</time></trkpt><trkpt lat="40.56558945455033" lon="8.164566724867322"><ele>98.0</ele><time>2026-05-02T12:39:48Z</time></trkpt><trkpt lat="40.56566217321851" lon="8.164549634463208"><ele>98.0</ele><time>2026-05-02T12:39:49Z</time></trkpt><trkpt lat="40.565731527698595" lon="8.164529084100831"><ele>98.0</ele><time>2026-05-02T12:39:50Z</time></trkpt><trkpt lat="40.56579647146435" lon="8.164505916072688"><ele>98.0</ele><time>2026-05-02T12:39:51Z</time></trkpt><trkpt lat="40.565859765134604" lon="8.16448048669724"><ele>98.0</ele><time>2026-05-02T12:39:52Z</time></trkpt><trkpt lat="40.56592441321769" lon="8.164451309951172"><ele>98.0</ele><time>2026-05-02T12:39:53Z</time></trkpt><trkpt lat="40.565989563442855" lon="8.164418469380958"><ele>97.99999999999999</ele><time>2026-05-02T12:39:54Z</time></trkpt><trkpt lat="40.566053492750314" lon="8.164370907961215"><ele>98.0</ele><time>2026-05-02T12:39:55Z</time></trkpt><trkpt lat="40.56611684991161" lon="8.164309180053179"><ele>98.0</ele><time>2026-05-02T12:39:56Z</time></trkpt><trkpt lat="40.56617712295999" lon="8.164235186924213"><ele>98.0</ele><time>2026-05-02T12:39:57Z</time></trkpt><trkpt lat="40.56623862639065" lon="8.164155806719947"><ele>97.99999999999999</ele><time>2026-05-02T12:39:58Z</time></trkpt><trkpt lat="40.566302003725376" lon="8.16406931044289"><ele>98.0</ele><time>2026-05-02T12:39:59Z</time></trkpt><trkpt lat="40.566368225230335" lon="8.16399120747999"><ele>102.66666666666666</ele><time>2026-05-02T12:40:00Z</time></trkpt><trkpt lat="40.56645119110024" lon="8.163946222126631"><ele>107.33333333333333</ele><time>2026-05-02T12:40:01Z</time></trkpt><trkpt lat="40.56654115725284" lon="8.163942474062877"><ele>112.0</ele><time>2026-05-02T12:40:02Z</time></trkpt><trkpt lat="40.566629868581245" lon="8.1639513078211"><ele>116.66666666666666</ele><time>2026-05-02T12:40:03Z</time></trkpt><trkpt lat="40.566716423941585" lon="8.163970712143705"><ele>121.33333333333333</ele><time>2026-05-02T12:40:04Z</time></trkpt><trkpt lat="40.5668049610716" lon="8.16398444104976"><ele>126.0</ele><time>2026-05-02T12:40:05Z</time></trkpt><trkpt lat="40.5668928348479" lon="8.163989106222106"><ele>126.0</ele><time>2026-05-02T12:40:06Z</time></trkpt><trkpt lat="40.56698015116592" lon="8.163989683587529"><ele>126.0</ele><time>2026-05-02T12:40:07Z</time></trkpt><trkpt lat="40.56706598108943" lon="8.1639874077091"><ele>126.0</ele><time>2026-05-02T12:40:08Z</time></trkpt><trkpt lat="40.56715001604704" lon="8.163980788856575"><ele>126.0</ele><time>2026-05-02T12:40:09Z</time></trkpt><trkpt lat="40.5672300622745" lon="8.163968280511645"><ele>126.0</ele><time>2026-05-02T12:40:10Z</time></trkpt><trkpt lat="40.567317993860094" lon="8.163948374059473"><ele>126.0</ele><time>2026-05-02T12:40:11Z</time></trkpt><trkpt lat="40.56741200427219" lon="8.16392107840012"><ele>124.6</ele><time>2026-05-02T12:40:12Z</time></trkpt><trkpt lat="40.56751254757158" lon="8.163886417388278"><ele>123.19999999999999</ele><time>2026-05-02T12:40:13Z</time></trkpt><trkpt lat="40.56761528653127" lon="8.163848206303019"><ele>121.80000000000001</ele><time>2026-05-02T12:40:14Z</time></trkpt><trkpt lat="40.56771915855099" lon="8.16380802063174"><ele>120.4</ele><time>2026-05-02T12:40:15Z</time></trkpt><trkpt lat="40.567818607416086" lon="8.163770972512197"><ele>119.0</ele><time>2026-05-02T12:40:16Z</time></trkpt><trkpt lat="40.567918782516045" lon="8.163733744297149"><ele>114.75</ele><time>2026-05-02T12:40:17Z</time></trkpt><trkpt lat="40.568022105658216" lon="8.163692820217754"><ele>110.5</ele><time>2026-05-02T12:40:18Z</time></trkpt><trkpt lat="40.568129234952664" lon="8.163652594805752"><ele>106.25</ele><time>2026-05-02T12:40:19Z</time></trkpt><trkpt lat="40.568241160519925" lon="8.163605272931067"><ele>102.0</ele><time>2026-05-02T12:40:20Z</time></trkpt><trkpt lat="40.56835533792187" lon="8.163559332449886"><ele>102.0</ele><time>2026-05-02T12:40:21Z</time></trkpt><trkpt lat="40.56846823549446" lon="8.163515148786846"><ele>102.0</ele><time>2026-05-02T12:40:22Z</time></trkpt><trkpt lat="40.568579547462484" lon="8.163470557724326"><ele>102.0</ele><time>2026-05-02T12:40:23Z</time></trkpt><trkpt lat="40.568690625358514" lon="8.163422860623808"><ele>102.0</ele><time>2026-05-02T12:40:24Z</time></trkpt><trkpt lat="40.56879918255227" lon="8.16337328514124"><ele>104.0</ele><time>2026-05-02T12:40:25Z</time></trkpt><trkpt lat="40.56890425837983" lon="8.163324197110297"><ele>106.0</ele><time>2026-05-02T12:40:26Z</time></trkpt><trkpt lat="40.5690001433358" lon="8.163280043671772"><ele>107.99999999999999</ele><time>2026-05-02T12:40:27Z</time></trkpt><trkpt lat="40.5690905592954" lon="8.163241677611348"><ele>110.0</ele><time>2026-05-02T12:40:28Z</time></trkpt><trkpt lat="40.56917572097794" lon="8.163206931249773"><ele>112.0</ele><time>2026-05-02T12:40:29Z</time></trkpt><trkpt lat="40.569257324437544" lon="8.163173286974741"><ele>112.00000000000001</ele><time>2026-05-02T12:40:30Z</time></trkpt><trkpt lat="40.569339542284894" lon="8.163136728368528"><ele>112.0</ele><time>2026-05-02T12:40:31Z</time></trkpt><trkpt lat="40.56941639335686" lon="8.163099498893976"><ele>112.0</ele><time>2026-05-02T12:40:32Z</time></trkpt><trkpt lat="40.56948939287356" lon="8.163064692361706"><ele>112.0</ele><time>2026-05-02T12:40:33Z</time></trkpt><trkpt lat="40.569560879530876" lon="8.163030075334909"><ele>112.00000000000001</ele><time>2026-05-02T12:40:34Z</time></trkpt><trkpt lat="40.56963059858717" lon="8.16299528314759"><ele>112.0</ele><time>2026-05-02T12:40:35Z</time></trkpt><trkpt lat="40.569698270521705" lon="8.162958037585307"><ele>108.33333333333334</ele><time>2026-05-02T12:40:36Z</time></trkpt><trkpt lat="40.56976996888677" lon="8.16291831699655"><ele>104.66666666666667</ele><time>2026-05-02T12:40:37Z</time></trkpt><trkpt lat="40.56984398484163" lon="8.162878940417414"><ele>101.0</ele><time>2026-05-02T12:40:38Z</time></trkpt><trkpt lat="40.56992317191589" lon="8.162838148186305"><ele>97.33333333333334</ele><time>2026-05-02T12:40:39Z</time></trkpt><trkpt lat="40.57000848565538" lon="8.16279187652708"><ele>93.66666666666667</ele><time>2026-05-02T12:40:40Z</time></trkpt><trkpt lat="40.570099175190286" lon="8.162743128673636"><ele>90.0</ele><time>2026-05-02T12:40:41Z</time></trkpt><trkpt lat="40.57019397921418" lon="8.162694663943014"><ele>90.0</ele><time>2026-05-02T12:40:42Z</time></trkpt><trkpt lat="40.57029509754992" lon="8.162651220015023"><ele>90.0</ele><time>2026-05-02T12:40:43Z</time></trkpt><trkpt lat="40.57040366884864" lon="8.162622721954758"><ele>90.0</ele><time>2026-05-02T12:40:44Z</time></trkpt><trkpt lat="40.5705233297691" lon="8.16263531861795"><ele>90.0</ele><time>2026-05-02T12:40:45Z</time></trkpt><trkpt lat="40.57063271141935" lon="8.162678560741282"><ele>87.75</ele><time>2026-05-02T12:40:46Z</time></trkpt><trkpt lat="40.57075731285253" lon="8.162742736792843"><ele>85.5</ele><time>2026-05-02T12:40:47Z</time></trkpt><trkpt lat="40.57088015834023" lon="8.16279938686812"><ele>83.25</ele><time>2026-05-02T12:40:48Z</time></trkpt><trkpt lat="40.5710048282802" lon="8.162859276776473"><ele>81.0</ele><time>2026-05-02T12:40:49Z</time></trkpt><trkpt lat="40.57113011931161" lon="8.162922837914605"><ele>80.25</ele><time>2026-05-02T12:40:50Z</time></trkpt><trkpt lat="40.5712572812595" lon="8.162978716896443"><ele>79.5</ele><time>2026-05-02T12:40:51Z</time></trkpt><trkpt lat="40.571386873589205" lon="8.163026600572385"><ele>78.75</ele><time>2026-05-02T12:40:52Z</time></trkpt><trkpt lat="40.57151443333357" lon="8.163068086631386"><ele>78.0</ele><time>2026-05-02T12:40:53Z</time></trkpt><trkpt lat="40.571644379046965" lon="8.163112007751371"><ele>78.0</ele><time>2026-05-02T12:40:54Z</time></trkpt><trkpt lat="40.57176017595914" lon="8.163131671221311"><ele>78.0</ele><time>2026-05-02T12:40:55Z</time></trkpt><trkpt lat="40.57187346996596" lon="8.16312763585894"><ele>78.0</ele><time>2026-05-02T12:40:56Z</time></trkpt><trkpt lat="40.57197832383985" lon="8.163088520847033"><ele>78.0</ele><time>2026-05-02T12:40:57Z</time></trkpt><trkpt lat="40.572065019265864" lon="8.162991807081957"><ele>73.75</ele><time>2026-05-02T12:40:58Z</time></trkpt><trkpt lat="40.57216310529237" lon="8.1629068795687"><ele>69.5</ele><time>2026-05-02T12:40:59Z</time></trkpt><trkpt lat="40.57225185018019" lon="8.16278732105424"><ele>65.25</ele><time>2026-05-02T12:41:00Z</time></trkpt><trkpt lat="40.572349610632656" lon="8.162672043754014"><ele>61.0</ele><time>2026-05-02T12:41:01Z</time></trkpt><trkpt lat="40.572450961010574" lon="8.162555666103158"><ele>61.0</ele><time>2026-05-02T12:41:02Z</time></trkpt><trkpt lat="40.572554562522924" lon="8.162438236328459"><ele>61.0</ele><time>2026-05-02T12:41:03Z</time></trkpt><trkpt lat="40.57265952297453" lon="8.162319861080638"><ele>61.0</ele><time>2026-05-02T12:41:04Z</time></trkpt><trkpt lat="40.57276478039743" lon="8.162202248579916"><ele>61.0</ele><time>2026-05-02T12:41:05Z</time></trkpt><trkpt lat="40.572865271956864" lon="8.162089141928599"><ele>59.4</ele><time>2026-05-02T12:41:06Z</time></trkpt><trkpt lat="40.57295717568398" lon="8.16198863325959"><ele>57.8</ele><time>2026-05-02T12:41:07Z</time></trkpt><trkpt lat="40.57304133261858" lon="8.161893911681961"><ele>56.199999999999996</ele><time>2026-05-02T12:41:08Z</time></trkpt><trkpt lat="40.57311707239095" lon="8.161788950161304"><ele>54.599999999999994</ele><time>2026-05-02T12:41:09Z</time></trkpt><trkpt lat="40.57318099676387" lon="8.161672550165715"><ele>53.0</ele><time>2026-05-02T12:41:10Z</time></trkpt><trkpt lat="40.57324830062814" lon="8.161556790762074"><ele>53.8</ele><time>2026-05-02T12:41:11Z</time></trkpt><trkpt lat="40.57330922602016" lon="8.161449166236165"><ele>54.599999999999994</ele><time>2026-05-02T12:41:12Z</time></trkpt><trkpt lat="40.57336839134268" lon="8.161344935738365"><ele>55.400000000000006</ele><time>2026-05-02T12:41:13Z</time></trkpt><trkpt lat="40.57342473683226" lon="8.16124535235222"><ele>56.2</ele><time>2026-05-02T12:41:14Z</time></trkpt><trkpt lat="40.573481012959824" lon="8.161149636635752"><ele>57.0</ele><time>2026-05-02T12:41:15Z</time></trkpt><trkpt lat="40.573520020145644" lon="8.161056276843553"><ele>57.0</ele><time>2026-05-02T12:41:16Z</time></trkpt><trkpt lat="40.57357807689783" lon="8.160979481269766"><ele>57.0</ele><time>2026-05-02T12:41:17Z</time></trkpt><trkpt lat="40.573551770685675" lon="8.16082559582801"><ele>57.0</ele><time>2026-05-02T12:41:18Z</time></trkpt><trkpt lat="40.573556174610715" lon="8.160713228235867"><ele>57.0</ele><time>2026-05-02T12:41:19Z</time></trkpt><trkpt lat="40.57358404555818" lon="8.160627514768679"><ele>57.0</ele><time>2026-05-02T12:41:20Z</time></trkpt><trkpt lat="40.573601010345136" lon="8.160478629425187"><ele>56.8</ele><time>2026-05-02T12:41:22Z</time></trkpt><trkpt lat="40.57362486947924" lon="8.160344076365327"><ele>56.6</ele><time>2026-05-02T12:41:24Z</time></trkpt><trkpt lat="40.57366794859068" lon="8.160169509646352"><ele>56.39999999999999</ele><time>2026-05-02T12:41:26Z</time></trkpt><trkpt lat="40.57367563902161" lon="8.160056954528754"><ele>56.199999999999996</ele><time>2026-05-02T12:41:27Z</time></trkpt><trkpt lat="40.57369519272164" lon="8.159943943764866"><ele>56.0</ele><time>2026-05-02T12:41:28Z</time></trkpt><trkpt lat="40.57371643816721" lon="8.159829123159419"><ele>54.333333333333336</ele><time>2026-05-02T12:41:29Z</time></trkpt><trkpt lat="40.573739838700014" lon="8.159723310965676"><ele>52.66666666666667</ele><time>2026-05-02T12:41:30Z</time></trkpt><trkpt lat="40.573753332281406" lon="8.15963841308715"><ele>51.0</ele><time>2026-05-02T12:41:31Z</time></trkpt><trkpt lat="40.57378047648687" lon="8.159499739057331"><ele>49.333333333333336</ele><time>2026-05-02T12:41:33Z</time></trkpt><trkpt lat="40.57383452878742" lon="8.15938530460476"><ele>47.66666666666667</ele><time>2026-05-02T12:41:35Z</time></trkpt><trkpt lat="40.57388255793584" lon="8.159311835229389"><ele>46.0</ele><time>2026-05-02T12:42:58Z</time></trkpt><trkpt lat="40.57387257966471" lon="8.159222561127125"><ele>46.0</ele><time>2026-05-02T12:43:06Z</time></trkpt><trkpt lat="40.57386926581181" lon="8.159129528478896"><ele>46.0</ele><time>2026-05-02T12:43:13Z</time></trkpt><trkpt lat="40.573849174657376" lon="8.159043337450335"><ele>46.0</ele><time>2026-05-02T12:43:25Z</time></trkpt><trkpt lat="40.573891232329316" lon="8.159113365536763"><ele>46.0</ele><time>2026-05-02T12:45:25Z</time></trkpt><trkpt lat="40.57394218732664" lon="8.159163601969379"><ele>46.0</ele><time>2026-05-02T12:45:34.999Z</time></trkpt><trkpt lat="40.57392616659619" lon="8.15925745044128"><ele>46.0</ele><time>2026-05-02T12:45:42Z</time></trkpt><trkpt lat="40.573870842994026" lon="8.15932406353918"><ele>46.0</ele><time>2026-05-02T12:46:21Z</time></trkpt><trkpt lat="40.573816834166585" lon="8.159413284133034"><ele>46.0</ele><time>2026-05-02T12:49:38.999Z</time></trkpt><trkpt lat="40.5737674912083" lon="8.159530451874272"><ele>46.0</ele><time>2026-05-02T12:49:40.999Z</time></trkpt><trkpt lat="40.57373830413497" lon="8.15968043644977"><ele>46.0</ele><time>2026-05-02T12:49:42.999Z</time></trkpt><trkpt lat="40.57371828422142" lon="8.159793822353095"><ele>46.0</ele><time>2026-05-02T12:49:44.999Z</time></trkpt><trkpt lat="40.57369594316177" lon="8.159897219236855"><ele>46.0</ele><time>2026-05-02T12:49:46.999Z</time></trkpt><trkpt lat="40.57367517618008" lon="8.160008213086556"><ele>48.0</ele><time>2026-05-02T12:49:48.999Z</time></trkpt><trkpt lat="40.57365558572233" lon="8.160123687230204"><ele>50.0</ele><time>2026-05-02T12:49:51Z</time></trkpt><trkpt lat="40.57363167052205" lon="8.160245025849433"><ele>51.99999999999999</ele><time>2026-05-02T12:49:53Z</time></trkpt><trkpt lat="40.573597091760035" lon="8.160367790935384"><ele>54.0</ele><time>2026-05-02T12:49:55Z</time></trkpt><trkpt lat="40.5735873823945" lon="8.160502643594217"><ele>56.0</ele><time>2026-05-02T12:49:57Z</time></trkpt><trkpt lat="40.57356367900592" lon="8.160622861329644"><ele>56.16666666666667</ele><time>2026-05-02T12:49:59Z</time></trkpt><trkpt lat="40.57354135921845" lon="8.160728646401036"><ele>56.333333333333336</ele><time>2026-05-02T12:50:01Z</time></trkpt><trkpt lat="40.57353864687346" lon="8.160816940112998"><ele>56.5</ele><time>2026-05-02T12:50:03Z</time></trkpt><trkpt lat="40.57353611802455" lon="8.160905045469114"><ele>56.66666666666667</ele><time>2026-05-02T12:50:07Z</time></trkpt><trkpt lat="40.57366991910033" lon="8.160817374784664"><ele>56.833333333333336</ele><time>2026-05-02T12:50:11Z</time></trkpt><trkpt lat="40.573704332371136" lon="8.160730471744566"><ele>57.0</ele><time>2026-05-02T12:50:12Z</time></trkpt><trkpt lat="40.57376438171966" lon="8.160636425246544"><ele>54.2</ele><time>2026-05-02T12:50:13Z</time></trkpt><trkpt lat="40.57382529058947" lon="8.160533465147163"><ele>51.400000000000006</ele><time>2026-05-02T12:50:14Z</time></trkpt><trkpt lat="40.573889607250564" lon="8.16042121297101"><ele>48.599999999999994</ele><time>2026-05-02T12:50:15Z</time></trkpt><trkpt lat="40.57395782458979" lon="8.16031237105192"><ele>45.8</ele><time>2026-05-02T12:50:16Z</time></trkpt><trkpt lat="40.57403123109938" lon="8.160213810453108"><ele>43.0</ele><time>2026-05-02T12:50:17Z</time></trkpt><trkpt lat="40.5741053956669" lon="8.160133805105874"><ele>43.0</ele><time>2026-05-02T12:50:18Z</time></trkpt><trkpt lat="40.57418617373945" lon="8.160056886184428"><ele>43.0</ele><time>2026-05-02T12:50:19Z</time></trkpt><trkpt lat="40.57426388829949" lon="8.159988466557458"><ele>43.0</ele><time>2026-05-02T12:50:20Z</time></trkpt><trkpt lat="40.5743384749145" lon="8.159921622871304"><ele>43.0</ele><time>2026-05-02T12:50:21Z</time></trkpt><trkpt lat="40.57440982073857" lon="8.159857342065528"><ele>43.0</ele><time>2026-05-02T12:50:22Z</time></trkpt><trkpt lat="40.57448373793408" lon="8.159792557198344"><ele>42.0</ele><time>2026-05-02T12:50:23Z</time></trkpt><trkpt lat="40.5745608919112" lon="8.159728438861844"><ele>41.0</ele><time>2026-05-02T12:50:24Z</time></trkpt><trkpt lat="40.57464235470494" lon="8.159659769025655"><ele>40.0</ele><time>2026-05-02T12:50:25Z</time></trkpt><trkpt lat="40.574726341465066" lon="8.159586702571398"><ele>39.0</ele><time>2026-05-02T12:50:26Z</time></trkpt><trkpt lat="40.57481313917742" lon="8.159510572348864"><ele>38.0</ele><time>2026-05-02T12:50:27Z</time></trkpt><trkpt lat="40.57490307312198" lon="8.15943141366146"><ele>38.0</ele><time>2026-05-02T12:50:28Z</time></trkpt><trkpt lat="40.57499576322633" lon="8.159348425354173"><ele>38.0</ele><time>2026-05-02T12:50:29Z</time></trkpt><trkpt lat="40.57509174861891" lon="8.159263654535597"><ele>38.0</ele><time>2026-05-02T12:50:30Z</time></trkpt><trkpt lat="40.575190094167155" lon="8.159177716405116"><ele>38.0</ele><time>2026-05-02T12:50:31Z</time></trkpt><trkpt lat="40.575288965999846" lon="8.15908748214359"><ele>35.5</ele><time>2026-05-02T12:50:32Z</time></trkpt><trkpt lat="40.575390641391984" lon="8.158998375646071"><ele>33.0</ele><time>2026-05-02T12:50:33Z</time></trkpt><trkpt lat="40.575494549279355" lon="8.15890998594501"><ele>30.5</ele><time>2026-05-02T12:50:34Z</time></trkpt><trkpt lat="40.57560155882082" lon="8.158825095094027"><ele>28.0</ele><time>2026-05-02T12:50:35Z</time></trkpt><trkpt lat="40.57571701189444" lon="8.158754441318731"><ele>28.0</ele><time>2026-05-02T12:50:36Z</time></trkpt><trkpt lat="40.57584307579828" lon="8.15870797950516"><ele>28.0</ele><time>2026-05-02T12:50:37Z</time></trkpt><trkpt lat="40.57597600896489" lon="8.158716197900059"><ele>28.0</ele><time>2026-05-02T12:50:38Z</time></trkpt><trkpt lat="40.5761027021389" lon="8.158760625730217"><ele>28.0</ele><time>2026-05-02T12:50:39Z</time></trkpt><trkpt lat="40.576222605369935" lon="8.158836501996332"><ele>27.4</ele><time>2026-05-02T12:50:40Z</time></trkpt><trkpt lat="40.57632400911064" lon="8.158917952510672"><ele>26.799999999999997</ele><time>2026-05-02T12:50:41Z</time></trkpt><trkpt lat="40.57641267019014" lon="8.158997144859281"><ele>26.2</ele><time>2026-05-02T12:50:42Z</time></trkpt><trkpt lat="40.57649687295832" lon="8.1590755488111"><ele>25.6</ele><time>2026-05-02T12:50:43Z</time></trkpt><trkpt lat="40.576580758157476" lon="8.159158404724728"><ele>25.0</ele><time>2026-05-02T12:50:44Z</time></trkpt><trkpt lat="40.576657102986125" lon="8.159260284072296"><ele>25.0</ele><time>2026-05-02T12:50:45Z</time></trkpt><trkpt lat="40.57672514519604" lon="8.159376145528828"><ele>25.0</ele><time>2026-05-02T12:50:46Z</time></trkpt><trkpt lat="40.57677883734998" lon="8.15951230327473"><ele>25.0</ele><time>2026-05-02T12:50:47Z</time></trkpt><trkpt lat="40.57682386116607" lon="8.159656654479626"><ele>25.0</ele><time>2026-05-02T12:50:48Z</time></trkpt><trkpt lat="40.57686328752267" lon="8.159788550408658"><ele>23.5</ele><time>2026-05-02T12:50:49Z</time></trkpt><trkpt lat="40.576901098037915" lon="8.159933858238723"><ele>22.0</ele><time>2026-05-02T12:50:50Z</time></trkpt><trkpt lat="40.57693727697703" lon="8.16008100717326"><ele>20.5</ele><time>2026-05-02T12:50:51Z</time></trkpt><trkpt lat="40.57697555605963" lon="8.160227263425012"><ele>19.0</ele><time>2026-05-02T12:50:52Z</time></trkpt><trkpt lat="40.57701990496899" lon="8.160362341957166"><ele>20.5</ele><time>2026-05-02T12:50:53Z</time></trkpt><trkpt lat="40.57707426938102" lon="8.160492267138926"><ele>22.0</ele><time>2026-05-02T12:50:54Z</time></trkpt><trkpt lat="40.577145670657295" lon="8.160616359352147"><ele>23.5</ele><time>2026-05-02T12:50:55Z</time></trkpt><trkpt lat="40.57723132578908" lon="8.160721115436122"><ele>25.0</ele><time>2026-05-02T12:50:56Z</time></trkpt><trkpt lat="40.577335960990546" lon="8.160806172735649"><ele>25.0</ele><time>2026-05-02T12:50:57Z</time></trkpt><trkpt lat="40.57745522214389" lon="8.160874150459627"><ele>25.0</ele><time>2026-05-02T12:50:58Z</time></trkpt><trkpt lat="40.577587776450855" lon="8.160937630175443"><ele>25.0</ele><time>2026-05-02T12:50:59Z</time></trkpt><trkpt lat="40.57772207607327" lon="8.161007757209175"><ele>25.0</ele><time>2026-05-02T12:51:00Z</time></trkpt><trkpt lat="40.57784476490324" lon="8.161053433165344"><ele>26.25</ele><time>2026-05-02T12:51:01Z</time></trkpt><trkpt lat="40.57797727024469" lon="8.161100501408859"><ele>27.5</ele><time>2026-05-02T12:51:02Z</time></trkpt><trkpt lat="40.57811196439891" lon="8.161146866446819"><ele>28.75</ele><time>2026-05-02T12:51:03Z</time></trkpt><trkpt lat="40.578251482154435" lon="8.16119508886463"><ele>30.0</ele><time>2026-05-02T12:51:04Z</time></trkpt><trkpt lat="40.578389983683586" lon="8.16124174436523"><ele>30.0</ele><time>2026-05-02T12:51:05Z</time></trkpt><trkpt lat="40.57853311799785" lon="8.161284363843722"><ele>30.0</ele><time>2026-05-02T12:51:06Z</time></trkpt><trkpt lat="40.578673931721305" lon="8.161324036629992"><ele>30.0</ele><time>2026-05-02T12:51:07Z</time></trkpt><trkpt lat="40.578817164735504" lon="8.1613633479139"><ele>30.0</ele><time>2026-05-02T12:51:08Z</time></trkpt><trkpt lat="40.57896204430901" lon="8.161395314597476"><ele>31.0</ele><time>2026-05-02T12:51:09Z</time></trkpt><trkpt lat="40.57910735199391" lon="8.161416593831577"><ele>32.0</ele><time>2026-05-02T12:51:10Z</time></trkpt><trkpt lat="40.5792517492601" lon="8.161435867179101"><ele>33.0</ele><time>2026-05-02T12:51:11Z</time></trkpt><trkpt lat="40.579396928596005" lon="8.16145135733246"><ele>34.0</ele><time>2026-05-02T12:51:12Z</time></trkpt><trkpt lat="40.57954291103893" lon="8.161468018006126"><ele>35.25</ele><time>2026-05-02T12:51:13Z</time></trkpt><trkpt lat="40.57969143168824" lon="8.161493756432494"><ele>36.5</ele><time>2026-05-02T12:51:14Z</time></trkpt><trkpt lat="40.57983876408382" lon="8.161515339847718"><ele>37.75</ele><time>2026-05-02T12:51:15Z</time></trkpt><trkpt lat="40.57998752769244" lon="8.161533670846413"><ele>39.0</ele><time>2026-05-02T12:51:16Z</time></trkpt><trkpt lat="40.58013758587396" lon="8.161550508478758"><ele>35.333333333333336</ele><time>2026-05-02T12:51:17Z</time></trkpt><trkpt lat="40.58028755562007" lon="8.161569315425167"><ele>31.666666666666668</ele><time>2026-05-02T12:51:18Z</time></trkpt><trkpt lat="40.580438218751915" lon="8.161588265056936"><ele>28.0</ele><time>2026-05-02T12:51:19Z</time></trkpt><trkpt lat="40.58058859045436" lon="8.161607983352942"><ele>28.0</ele><time>2026-05-02T12:51:20Z</time></trkpt><trkpt lat="40.58073776146508" lon="8.161628301286026"><ele>28.0</ele><time>2026-05-02T12:51:21Z</time></trkpt><trkpt lat="40.58088623415013" lon="8.161647846376779"><ele>28.0</ele><time>2026-05-02T12:51:22Z</time></trkpt><trkpt lat="40.58103468893235" lon="8.161665342031384"><ele>28.0</ele><time>2026-05-02T12:51:23Z</time></trkpt><trkpt lat="40.58118348190291" lon="8.161683565590893"><ele>28.0</ele><time>2026-05-02T12:51:24Z</time></trkpt><trkpt lat="40.581336167647606" lon="8.161705403418107"><ele>28.0</ele><time>2026-05-02T12:51:25Z</time></trkpt><trkpt lat="40.58149092320067" lon="8.161727132323307"><ele>28.0</ele><time>2026-05-02T12:51:26Z</time></trkpt><trkpt lat="40.58164707212808" lon="8.161749635791892"><ele>28.0</ele><time>2026-05-02T12:51:27Z</time></trkpt><trkpt lat="40.58180540784738" lon="8.161770932043009"><ele>28.0</ele><time>2026-05-02T12:51:28Z</time></trkpt><trkpt lat="40.581967129185834" lon="8.161794945240032"><ele>28.0</ele><time>2026-05-02T12:51:29Z</time></trkpt><trkpt lat="40.582127944754745" lon="8.161828282616314"><ele>28.0</ele><time>2026-05-02T12:51:30Z</time></trkpt><trkpt lat="40.58229415098526" lon="8.161872938080993"><ele>28.0</ele><time>2026-05-02T12:51:31Z</time></trkpt><trkpt lat="40.582466948991275" lon="8.161939850677891"><ele>28.0</ele><time>2026-05-02T12:51:32Z</time></trkpt><trkpt lat="40.58264352838909" lon="8.162007620226325"><ele>28.0</ele><time>2026-05-02T12:51:33Z</time></trkpt><trkpt lat="40.58282382397273" lon="8.162077792209901"><ele>28.0</ele><time>2026-05-02T12:51:34Z</time></trkpt><trkpt lat="40.58300523955422" lon="8.162149649467146"><ele>28.0</ele><time>2026-05-02T12:51:35Z</time></trkpt><trkpt lat="40.583188888264694" lon="8.162222757452888"><ele>28.333333333333336</ele><time>2026-05-02T12:51:36Z</time></trkpt><trkpt lat="40.58337199524615" lon="8.16229864616363"><ele>28.666666666666664</ele><time>2026-05-02T12:51:37Z</time></trkpt><trkpt lat="40.58355382548774" lon="8.162374232712223"><ele>29.0</ele><time>2026-05-02T12:51:38Z</time></trkpt><trkpt lat="40.58373618494983" lon="8.162448005375916"><ele>27.333333333333332</ele><time>2026-05-02T12:51:39Z</time></trkpt><trkpt lat="40.58391874642869" lon="8.16252034318188"><ele>25.666666666666664</ele><time>2026-05-02T12:51:40Z</time></trkpt><trkpt lat="40.58410054967334" lon="8.162592264877773"><ele>24.0</ele><time>2026-05-02T12:51:41Z</time></trkpt><trkpt lat="40.58428126460731" lon="8.162676757548875"><ele>24.0</ele><time>2026-05-02T12:51:42Z</time></trkpt><trkpt lat="40.584452712669005" lon="8.16279319588518"><ele>24.0</ele><time>2026-05-02T12:51:43Z</time></trkpt><trkpt lat="40.58461711296657" lon="8.16293441262539"><ele>24.0</ele><time>2026-05-02T12:51:44Z</time></trkpt><trkpt lat="40.584782559847405" lon="8.163075517834429"><ele>23.0</ele><time>2026-05-02T12:51:45Z</time></trkpt><trkpt lat="40.58493671470084" lon="8.163209418640658"><ele>22.0</ele><time>2026-05-02T12:51:46Z</time></trkpt><trkpt lat="40.58507984944441" lon="8.16333699598723"><ele>21.0</ele><time>2026-05-02T12:51:47Z</time></trkpt><trkpt lat="40.585226792515414" lon="8.163464539811251"><ele>22.333333333333336</ele><time>2026-05-02T12:51:48Z</time></trkpt><trkpt lat="40.58537652392941" lon="8.16359071583802"><ele>23.666666666666668</ele><time>2026-05-02T12:51:49Z</time></trkpt><trkpt lat="40.58552672463783" lon="8.163715284518615"><ele>25.0</ele><time>2026-05-02T12:51:50Z</time></trkpt><trkpt lat="40.58567644983642" lon="8.163838963897716"><ele>25.0</ele><time>2026-05-02T12:51:51Z</time></trkpt><trkpt lat="40.58582236573088" lon="8.16396276681888"><ele>25.0</ele><time>2026-05-02T12:51:52Z</time></trkpt><trkpt lat="40.5859660065793" lon="8.164084525375852"><ele>25.0</ele><time>2026-05-02T12:51:53Z</time></trkpt><trkpt lat="40.58610432953633" lon="8.16420246997559"><ele>24.333333333333336</ele><time>2026-05-02T12:51:54Z</time></trkpt><trkpt lat="40.586237602683475" lon="8.164316395216893"><ele>23.666666666666668</ele><time>2026-05-02T12:51:55Z</time></trkpt><trkpt lat="40.58637226801588" lon="8.164431843734453"><ele>23.0</ele><time>2026-05-02T12:51:56Z</time></trkpt><trkpt lat="40.58650540817283" lon="8.164544981057556"><ele>23.0</ele><time>2026-05-02T12:51:57Z</time></trkpt><trkpt lat="40.586638146556325" lon="8.164657595310965"><ele>23.0</ele><time>2026-05-02T12:51:58Z</time></trkpt><trkpt lat="40.586765748278744" lon="8.164769112342437"><ele>23.0</ele><time>2026-05-02T12:51:59Z</time></trkpt><trkpt lat="40.58689119351042" lon="8.16487916842286"><ele>22.333333333333336</ele><time>2026-05-02T12:52:00Z</time></trkpt><trkpt lat="40.58701967205445" lon="8.164987118826883"><ele>21.666666666666668</ele><time>2026-05-02T12:52:01Z</time></trkpt><trkpt lat="40.587153415164494" lon="8.165079868477854"><ele>21.0</ele><time>2026-05-02T12:52:02Z</time></trkpt><trkpt lat="40.58729366341881" lon="8.165153234730127"><ele>21.0</ele><time>2026-05-02T12:52:03Z</time></trkpt><trkpt lat="40.587437229055396" lon="8.16521530483751"><ele>21.0</ele><time>2026-05-02T12:52:04Z</time></trkpt><trkpt lat="40.58757609676599" lon="8.16527368151668"><ele>21.0</ele><time>2026-05-02T12:52:05Z</time></trkpt><trkpt lat="40.58771403804091" lon="8.165332190764298"><ele>21.0</ele><time>2026-05-02T12:52:06Z</time></trkpt><trkpt lat="40.58784979373119" lon="8.165390217998366"><ele>21.25</ele><time>2026-05-02T12:52:07Z</time></trkpt><trkpt lat="40.5879872502174" lon="8.165445226142108"><ele>21.5</ele><time>2026-05-02T12:52:08Z</time></trkpt><trkpt lat="40.588129180435956" lon="8.165498244976506"><ele>21.75</ele><time>2026-05-02T12:52:09Z</time></trkpt><trkpt lat="40.58827711808284" lon="8.16553926436541"><ele>22.0</ele><time>2026-05-02T12:52:10Z</time></trkpt><trkpt lat="40.58843167251391" lon="8.1655587159377"><ele>22.0</ele><time>2026-05-02T12:52:11Z</time></trkpt><trkpt lat="40.58858935317137" lon="8.165564938397498"><ele>22.0</ele><time>2026-05-02T12:52:12Z</time></trkpt><trkpt lat="40.58874994942254" lon="8.165566271785329"><ele>22.0</ele><time>2026-05-02T12:52:13Z</time></trkpt><trkpt lat="40.58890878112503" lon="8.165567377160162"><ele>22.0</ele><time>2026-05-02T12:52:14Z</time></trkpt><trkpt lat="40.589068283459305" lon="8.165568658678728"><ele>22.0</ele><time>2026-05-02T12:52:15Z</time></trkpt><trkpt lat="40.58922677345029" lon="8.16557001915675"><ele>22.0</ele><time>2026-05-02T12:52:16Z</time></trkpt><trkpt lat="40.589386012445324" lon="8.16557217559706"><ele>21.333333333333332</ele><time>2026-05-02T12:52:17Z</time></trkpt><trkpt lat="40.58954025101643" lon="8.165571533390755"><ele>20.666666666666668</ele><time>2026-05-02T12:52:18Z</time></trkpt><trkpt lat="40.58969655986766" lon="8.165574176961696"><ele>20.0</ele><time>2026-05-02T12:52:19Z</time></trkpt><trkpt lat="40.589851019552924" lon="8.165576086251013"><ele>20.0</ele><time>2026-05-02T12:52:20Z</time></trkpt><trkpt lat="40.59000638745081" lon="8.165578125854429"><ele>20.0</ele><time>2026-05-02T12:52:21Z</time></trkpt><trkpt lat="40.59016380587004" lon="8.165579351927157"><ele>20.0</ele><time>2026-05-02T12:52:22Z</time></trkpt><trkpt lat="40.59032180437648" lon="8.165582141661671"><ele>19.666666666666668</ele><time>2026-05-02T12:52:23Z</time></trkpt><trkpt lat="40.59048074941865" lon="8.16558482268788"><ele>19.333333333333332</ele><time>2026-05-02T12:52:24Z</time></trkpt><trkpt lat="40.5906396308411" lon="8.165586603414193"><ele>19.0</ele><time>2026-05-02T12:52:25Z</time></trkpt><trkpt lat="40.590797989513646" lon="8.165587727595423"><ele>19.0</ele><time>2026-05-02T12:52:26Z</time></trkpt><trkpt lat="40.590955587948216" lon="8.165589998112772"><ele>19.0</ele><time>2026-05-02T12:52:27Z</time></trkpt><trkpt lat="40.591112610664325" lon="8.165595059528334"><ele>19.0</ele><time>2026-05-02T12:52:28Z</time></trkpt><trkpt lat="40.591269643311996" lon="8.165603140580709"><ele>18.666666666666664</ele><time>2026-05-02T12:52:29Z</time></trkpt><trkpt lat="40.59142720299338" lon="8.165613473752497"><ele>18.333333333333332</ele><time>2026-05-02T12:52:30Z</time></trkpt><trkpt lat="40.59158279743737" lon="8.165624457656008"><ele>18.0</ele><time>2026-05-02T12:52:31Z</time></trkpt><trkpt lat="40.59173833269582" lon="8.165637954328277"><ele>18.0</ele><time>2026-05-02T12:52:32Z</time></trkpt><trkpt lat="40.59188941902969" lon="8.165647884835353"><ele>18.0</ele><time>2026-05-02T12:52:33Z</time></trkpt><trkpt lat="40.59203922919589" lon="8.165650130635182"><ele>18.0</ele><time>2026-05-02T12:52:34Z</time></trkpt><trkpt lat="40.592186621691965" lon="8.165650997795392"><ele>18.0</ele><time>2026-05-02T12:52:35Z</time></trkpt><trkpt lat="40.59233259482258" lon="8.16565389070576"><ele>17.5</ele><time>2026-05-02T12:52:36Z</time></trkpt><trkpt lat="40.592476429348004" lon="8.165652232670073"><ele>17.0</ele><time>2026-05-02T12:52:37Z</time></trkpt><trkpt lat="40.59262009611069" lon="8.165652838762274"><ele>16.5</ele><time>2026-05-02T12:52:38Z</time></trkpt><trkpt lat="40.59276241177745" lon="8.16565152084417"><ele>16.0</ele><time>2026-05-02T12:52:39Z</time></trkpt><trkpt lat="40.59290617490324" lon="8.165653330868432"><ele>15.5</ele><time>2026-05-02T12:52:40Z</time></trkpt><trkpt lat="40.59304960664441" lon="8.165658205335335"><ele>15.0</ele><time>2026-05-02T12:52:41Z</time></trkpt><trkpt lat="40.59319013603326" lon="8.165675878391157"><ele>14.5</ele><time>2026-05-02T12:52:42Z</time></trkpt><trkpt lat="40.59332314419684" lon="8.165733391796692"><ele>14.0</ele><time>2026-05-02T12:52:43Z</time></trkpt><trkpt lat="40.593446696994626" lon="8.165822060048335"><ele>13.0</ele><time>2026-05-02T12:52:44Z</time></trkpt><trkpt lat="40.593568225507525" lon="8.165918439926184"><ele>12.0</ele><time>2026-05-02T12:52:45Z</time></trkpt><trkpt lat="40.59369243094585" lon="8.166017102796792"><ele>11.0</ele><time>2026-05-02T12:52:46Z</time></trkpt><trkpt lat="40.59381809369962" lon="8.166117751819753"><ele>10.0</ele><time>2026-05-02T12:52:47Z</time></trkpt><trkpt lat="40.59394735172404" lon="8.166220582601978"><ele>9.333333333333334</ele><time>2026-05-02T12:52:48Z</time></trkpt><trkpt lat="40.59407682780976" lon="8.166322966495024"><ele>8.666666666666666</ele><time>2026-05-02T12:52:49Z</time></trkpt><trkpt lat="40.59420755798919" lon="8.1664266847985"><ele>8.0</ele><time>2026-05-02T12:52:50Z</time></trkpt><trkpt lat="40.59433753982837" lon="8.166534118930212"><ele>8.0</ele><time>2026-05-02T12:52:51Z</time></trkpt><trkpt lat="40.594469807889965" lon="8.16663985573825"><ele>8.0</ele><time>2026-05-02T12:52:52Z</time></trkpt><trkpt lat="40.59460274475331" lon="8.166749478782686"><ele>8.0</ele><time>2026-05-02T12:52:53Z</time></trkpt><trkpt lat="40.59473308425967" lon="8.16686447293286"><ele>7.666666666666666</ele><time>2026-05-02T12:52:54Z</time></trkpt><trkpt lat="40.59486548921863" lon="8.166978134226893"><ele>7.333333333333334</ele><time>2026-05-02T12:52:55Z</time></trkpt><trkpt lat="40.59499930998634" lon="8.167086866509925"><ele>7.0</ele><time>2026-05-02T12:52:56Z</time></trkpt><trkpt lat="40.5951343289307" lon="8.167190899197964"><ele>7.0</ele><time>2026-05-02T12:52:57Z</time></trkpt><trkpt lat="40.5952703708187" lon="8.16729655662289"><ele>7.0</ele><time>2026-05-02T12:52:58Z</time></trkpt><trkpt lat="40.595406166862304" lon="8.167403001915424"><ele>7.0</ele><time>2026-05-02T12:52:59Z</time></trkpt><trkpt lat="40.59553868569848" lon="8.167518804047537"><ele>8.333333333333334</ele><time>2026-05-02T12:53:00Z</time></trkpt><trkpt lat="40.59566637526221" lon="8.167652946952506"><ele>9.666666666666666</ele><time>2026-05-02T12:53:01Z</time></trkpt><trkpt lat="40.59578393906868" lon="8.16780833946131"><ele>11.0</ele><time>2026-05-02T12:53:02Z</time></trkpt><trkpt lat="40.59589023594605" lon="8.167976928477547"><ele>11.0</ele><time>2026-05-02T12:53:03Z</time></trkpt><trkpt lat="40.59597693892594" lon="8.168163448260122"><ele>11.0</ele><time>2026-05-02T12:53:04Z</time></trkpt><trkpt lat="40.596033630145634" lon="8.168366104689015"><ele>11.0</ele><time>2026-05-02T12:53:05Z</time></trkpt><trkpt lat="40.59607089546353" lon="8.168576336121372"><ele>11.0</ele><time>2026-05-02T12:53:06Z</time></trkpt><trkpt lat="40.59609958265483" lon="8.168789795762658"><ele>11.0</ele><time>2026-05-02T12:53:07Z</time></trkpt><trkpt lat="40.596113235023026" lon="8.169007462767153"><ele>11.0</ele><time>2026-05-02T12:53:08Z</time></trkpt><trkpt lat="40.59610616688431" lon="8.169228204944417"><ele>11.333333333333332</ele><time>2026-05-02T12:53:09Z</time></trkpt><trkpt lat="40.596071711861185" lon="8.169439440299596"><ele>11.666666666666666</ele><time>2026-05-02T12:53:10Z</time></trkpt><trkpt lat="40.59601588202933" lon="8.169642700248868"><ele>12.0</ele><time>2026-05-02T12:53:11Z</time></trkpt><trkpt lat="40.59596128323002" lon="8.16984978361425"><ele>13.0</ele><time>2026-05-02T12:53:12Z</time></trkpt><trkpt lat="40.59590406803311" lon="8.170059816515405"><ele>14.0</ele><time>2026-05-02T12:53:13Z</time></trkpt><trkpt lat="40.59584598088991" lon="8.170272420853502"><ele>15.0</ele><time>2026-05-02T12:53:14Z</time></trkpt><trkpt lat="40.595788667341836" lon="8.170487818816392"><ele>17.666666666666668</ele><time>2026-05-02T12:53:15Z</time></trkpt><trkpt lat="40.59573002928763" lon="8.170702303476455"><ele>20.333333333333336</ele><time>2026-05-02T12:53:16Z</time></trkpt><trkpt lat="40.59567032117176" lon="8.170915310662394"><ele>23.0</ele><time>2026-05-02T12:53:17Z</time></trkpt><trkpt lat="40.5956095814017" lon="8.171129101472006"><ele>23.0</ele><time>2026-05-02T12:53:18Z</time></trkpt><trkpt lat="40.59554895456122" lon="8.171348664085631"><ele>23.0</ele><time>2026-05-02T12:53:19Z</time></trkpt><trkpt lat="40.59548852598448" lon="8.171569968445974"><ele>23.0</ele><time>2026-05-02T12:53:20Z</time></trkpt><trkpt lat="40.595427357281956" lon="8.171789233820197"><ele>22.0</ele><time>2026-05-02T12:53:21Z</time></trkpt><trkpt lat="40.59536917634866" lon="8.172005584246042"><ele>21.0</ele><time>2026-05-02T12:53:22Z</time></trkpt><trkpt lat="40.59531187970942" lon="8.172220632192781"><ele>20.0</ele><time>2026-05-02T12:53:23Z</time></trkpt><trkpt lat="40.595265171542486" lon="8.172444547924881"><ele>20.0</ele><time>2026-05-02T12:53:24Z</time></trkpt><trkpt lat="40.59522966567024" lon="8.172674001473087"><ele>20.0</ele><time>2026-05-02T12:53:25Z</time></trkpt><trkpt lat="40.59520677058636" lon="8.172904397740007"><ele>20.0</ele><time>2026-05-02T12:53:26Z</time></trkpt><trkpt lat="40.5951798872957" lon="8.17314170101016"><ele>22.666666666666668</ele><time>2026-05-02T12:53:27Z</time></trkpt><trkpt lat="40.59514886628376" lon="8.173374295112579"><ele>25.333333333333336</ele><time>2026-05-02T12:53:28Z</time></trkpt><trkpt lat="40.59511259896134" lon="8.17359943374067"><ele>28.0</ele><time>2026-05-02T12:53:29Z</time></trkpt><trkpt lat="40.59506310978723" lon="8.173820523218714"><ele>31.0</ele><time>2026-05-02T12:53:30Z</time></trkpt><trkpt lat="40.59499401101477" lon="8.174025102054054"><ele>34.0</ele><time>2026-05-02T12:53:31Z</time></trkpt><trkpt lat="40.594918579258156" lon="8.174220850424849"><ele>37.0</ele><time>2026-05-02T12:53:32Z</time></trkpt><trkpt lat="40.59484533597937" lon="8.174419313238824"><ele>37.0</ele><time>2026-05-02T12:53:33Z</time></trkpt><trkpt lat="40.59477442081436" lon="8.174611808062325"><ele>37.0</ele><time>2026-05-02T12:53:34Z</time></trkpt><trkpt lat="40.59471938148974" lon="8.17478538540808"><ele>37.0</ele><time>2026-05-02T12:53:35Z</time></trkpt><trkpt lat="40.59470686846939" lon="8.174951737631073"><ele>37.0</ele><time>2026-05-02T12:53:36Z</time></trkpt><trkpt lat="40.59474556261662" lon="8.175120611002017"><ele>38.25</ele><time>2026-05-02T12:53:37Z</time></trkpt><trkpt lat="40.5948292065718" lon="8.17525976538959"><ele>39.5</ele><time>2026-05-02T12:53:38Z</time></trkpt><trkpt lat="40.594944972766996" lon="8.175380701161014"><ele>40.75</ele><time>2026-05-02T12:53:39Z</time></trkpt><trkpt lat="40.59506822144072" lon="8.175508127960569"><ele>42.0</ele><time>2026-05-02T12:53:40Z</time></trkpt><trkpt lat="40.59519582301171" lon="8.17564329419302"><ele>39.0</ele><time>2026-05-02T12:53:41Z</time></trkpt><trkpt lat="40.59532905177144" lon="8.175783657647765"><ele>36.0</ele><time>2026-05-02T12:53:42Z</time></trkpt><trkpt lat="40.59546450944472" lon="8.1759311672209"><ele>33.0</ele><time>2026-05-02T12:53:43Z</time></trkpt><trkpt lat="40.59560195597623" lon="8.176084978727806"><ele>35.666666666666664</ele><time>2026-05-02T12:53:44Z</time></trkpt><trkpt lat="40.59574105455688" lon="8.176236616223306"><ele>38.33333333333333</ele><time>2026-05-02T12:53:45Z</time></trkpt><trkpt lat="40.59587839349589" lon="8.176385903567102"><ele>41.0</ele><time>2026-05-02T12:53:46Z</time></trkpt><trkpt lat="40.59601029481456" lon="8.176530827803749"><ele>41.0</ele><time>2026-05-02T12:53:47Z</time></trkpt><trkpt lat="40.596123381945475" lon="8.176666404705301"><ele>41.0</ele><time>2026-05-02T12:53:48Z</time></trkpt><trkpt lat="40.59621328062266" lon="8.176816468490536"><ele>41.0</ele><time>2026-05-02T12:53:49Z</time></trkpt><trkpt lat="40.59628234258075" lon="8.17700570267154"><ele>46.33333333333333</ele><time>2026-05-02T12:53:50Z</time></trkpt><trkpt lat="40.5963201198557" lon="8.177218382465101"><ele>51.666666666666664</ele><time>2026-05-02T12:53:51Z</time></trkpt><trkpt lat="40.596367296072074" lon="8.177416170302449"><ele>57.0</ele><time>2026-05-02T12:53:52Z</time></trkpt><trkpt lat="40.59645264968478" lon="8.177609775051193"><ele>57.0</ele><time>2026-05-02T12:53:53Z</time></trkpt><trkpt lat="40.59656494698444" lon="8.17778217790108"><ele>57.0</ele><time>2026-05-02T12:53:54Z</time></trkpt><trkpt lat="40.59668260458543" lon="8.17794105481086"><ele>57.0</ele><time>2026-05-02T12:53:55Z</time></trkpt><trkpt lat="40.59678004431449" lon="8.178103760567597"><ele>51.333333333333336</ele><time>2026-05-02T12:53:56Z</time></trkpt><trkpt lat="40.596847829700614" lon="8.178277761260496"><ele>45.66666666666667</ele><time>2026-05-02T12:53:57Z</time></trkpt><trkpt lat="40.59687858092647" lon="8.178474595857312"><ele>40.0</ele><time>2026-05-02T12:53:58Z</time></trkpt><trkpt lat="40.596959221939386" lon="8.178657292061281"><ele>45.66666666666667</ele><time>2026-05-02T12:53:59Z</time></trkpt><trkpt lat="40.59704298822745" lon="8.17885311674024"><ele>51.333333333333336</ele><time>2026-05-02T12:54:00Z</time></trkpt><trkpt lat="40.5971362171071" lon="8.179049694111802"><ele>57.0</ele><time>2026-05-02T12:54:01Z</time></trkpt><trkpt lat="40.59723120668342" lon="8.17924626868097"><ele>57.0</ele><time>2026-05-02T12:54:02Z</time></trkpt><trkpt lat="40.59732562994099" lon="8.179435612313682"><ele>57.0</ele><time>2026-05-02T12:54:03Z</time></trkpt><trkpt lat="40.59742528851735" lon="8.17959571666708"><ele>57.0</ele><time>2026-05-02T12:54:04Z</time></trkpt><trkpt lat="40.59755481841526" lon="8.179710094534592"><ele>57.0</ele><time>2026-05-02T12:54:05Z</time></trkpt><trkpt lat="40.597708438544345" lon="8.179790147120357"><ele>57.0</ele><time>2026-05-02T12:54:06Z</time></trkpt><trkpt lat="40.59785640591587" lon="8.179875522554033"><ele>57.0</ele><time>2026-05-02T12:54:07Z</time></trkpt><trkpt lat="40.59797142710843" lon="8.180001527588919"><ele>58.33333333333333</ele><time>2026-05-02T12:54:08Z</time></trkpt><trkpt lat="40.598052108002285" lon="8.180186437454894"><ele>59.666666666666664</ele><time>2026-05-02T12:54:09Z</time></trkpt><trkpt lat="40.5981487690339" lon="8.180406381111395"><ele>61.0</ele><time>2026-05-02T12:54:10Z</time></trkpt><trkpt lat="40.59826176584193" lon="8.180627222552411"><ele>59.666666666666664</ele><time>2026-05-02T12:54:11Z</time></trkpt><trkpt lat="40.59839703174601" lon="8.180801623355874"><ele>58.33333333333333</ele><time>2026-05-02T12:54:12Z</time></trkpt><trkpt lat="40.598587148232106" lon="8.180918193157513"><ele>57.0</ele><time>2026-05-02T12:54:13Z</time></trkpt><trkpt lat="40.59873201692472" lon="8.181047145420969"><ele>57.0</ele><time>2026-05-02T12:54:14Z</time></trkpt><trkpt lat="40.59895375698919" lon="8.181168986584073"><ele>57.0</ele><time>2026-05-02T12:54:15Z</time></trkpt><trkpt lat="40.59915820038841" lon="8.181301953170102"><ele>57.0</ele><time>2026-05-02T12:54:16Z</time></trkpt><trkpt lat="40.59934936733934" lon="8.181389164201555"><ele>57.0</ele><time>2026-05-02T12:54:17Z</time></trkpt><trkpt lat="40.599519345948096" lon="8.18139560383876"><ele>57.0</ele><time>2026-05-02T12:54:18Z</time></trkpt><trkpt lat="40.599702629686576" lon="8.181367236377426"><ele>56.0</ele><time>2026-05-02T12:54:19Z</time></trkpt><trkpt lat="40.59991387965025" lon="8.181334074114213"><ele>55.0</ele><time>2026-05-02T12:54:20Z</time></trkpt><trkpt lat="40.600097421032345" lon="8.181337434827102"><ele>54.0</ele><time>2026-05-02T12:54:21Z</time></trkpt><trkpt lat="40.600272539739045" lon="8.181408179618508"><ele>53.0</ele><time>2026-05-02T12:54:22Z</time></trkpt><trkpt lat="40.60047559965233" lon="8.181489202733776"><ele>52.0</ele><time>2026-05-02T12:54:23Z</time></trkpt><trkpt lat="40.60072818368843" lon="8.181541389070654"><ele>41.5</ele><time>2026-05-02T12:54:24Z</time></trkpt><trkpt lat="40.60094900351329" lon="8.181585637919158"><ele>31.0</ele><time>2026-05-02T12:54:25Z</time></trkpt><trkpt lat="40.601205019447164" lon="8.181588455144047"><ele>31.0</ele><time>2026-05-02T12:54:26Z</time></trkpt><trkpt lat="40.60147742308927" lon="8.181575994107348"><ele>31.0</ele><time>2026-05-02T12:54:27Z</time></trkpt><trkpt lat="40.60171811203082" lon="8.18157249991445"><ele>31.0</ele><time>2026-05-02T12:54:28Z</time></trkpt><trkpt lat="40.60191895631832" lon="8.181583267685145"><ele>31.0</ele><time>2026-05-02T12:54:29Z</time></trkpt><trkpt lat="40.60208840402331" lon="8.181665724066871"><ele>31.0</ele><time>2026-05-02T12:54:30Z</time></trkpt><trkpt lat="40.602257537201176" lon="8.181771425440365"><ele>32.0</ele><time>2026-05-02T12:54:31Z</time></trkpt><trkpt lat="40.60245945417513" lon="8.181908469015637"><ele>33.0</ele><time>2026-05-02T12:54:32Z</time></trkpt><trkpt lat="40.602658884465576" lon="8.182043094968009"><ele>34.0</ele><time>2026-05-02T12:54:33Z</time></trkpt><trkpt lat="40.60284035458134" lon="8.182165597077244"><ele>35.0</ele><time>2026-05-02T12:54:34Z</time></trkpt><trkpt lat="40.60302321309984" lon="8.182267936401649"><ele>36.0</ele><time>2026-05-02T12:54:35Z</time></trkpt><trkpt lat="40.60319756816424" lon="8.182391858339374"><ele>33.0</ele><time>2026-05-02T12:54:36Z</time></trkpt><trkpt lat="40.603373527233956" lon="8.182514157731575"><ele>30.0</ele><time>2026-05-02T12:54:37Z</time></trkpt><trkpt lat="40.60355349094911" lon="8.18263979883462"><ele>27.0</ele><time>2026-05-02T12:54:38Z</time></trkpt><trkpt lat="40.60373709892884" lon="8.18275304157427"><ele>27.0</ele><time>2026-05-02T12:54:39Z</time></trkpt><trkpt lat="40.60393392251346" lon="8.182828405587642"><ele>27.0</ele><time>2026-05-02T12:54:40Z</time></trkpt><trkpt lat="40.60413739794916" lon="8.182895768316984"><ele>27.0</ele><time>2026-05-02T12:54:41Z</time></trkpt><trkpt lat="40.60434555396308" lon="8.182960270663743"><ele>28.0</ele><time>2026-05-02T12:54:42Z</time></trkpt><trkpt lat="40.60455206929738" lon="8.183027156370851"><ele>29.0</ele><time>2026-05-02T12:54:43Z</time></trkpt><trkpt lat="40.60475889565494" lon="8.183077441588667"><ele>30.0</ele><time>2026-05-02T12:54:44Z</time></trkpt><trkpt lat="40.604949324802305" lon="8.183143788193167"><ele>26.666666666666668</ele><time>2026-05-02T12:54:45Z</time></trkpt><trkpt lat="40.605128049974596" lon="8.183203448271211"><ele>23.333333333333336</ele><time>2026-05-02T12:54:46Z</time></trkpt><trkpt lat="40.60530084315364" lon="8.183254353422077"><ele>20.0</ele><time>2026-05-02T12:54:47Z</time></trkpt><trkpt lat="40.60546664361402" lon="8.183307239590254"><ele>20.0</ele><time>2026-05-02T12:54:48Z</time></trkpt><trkpt lat="40.60562270765843" lon="8.183370343246915"><ele>20.0</ele><time>2026-05-02T12:54:49Z</time></trkpt><trkpt lat="40.60577436308799" lon="8.183460828491368"><ele>20.0</ele><time>2026-05-02T12:54:50Z</time></trkpt><trkpt lat="40.60592573130431" lon="8.183579001182567"><ele>20.0</ele><time>2026-05-02T12:54:51Z</time></trkpt><trkpt lat="40.60607525992757" lon="8.183701269947981"><ele>20.0</ele><time>2026-05-02T12:54:52Z</time></trkpt><trkpt lat="40.60622695018842" lon="8.183816007654608"><ele>20.0</ele><time>2026-05-02T12:54:53Z</time></trkpt><trkpt lat="40.60637689134689" lon="8.183928629050154"><ele>19.666666666666668</ele><time>2026-05-02T12:54:54Z</time></trkpt><trkpt lat="40.606521031513076" lon="8.184036421566233"><ele>19.333333333333332</ele><time>2026-05-02T12:54:55Z</time></trkpt><trkpt lat="40.60665360721704" lon="8.184136343656624"><ele>19.0</ele><time>2026-05-02T12:54:56Z</time></trkpt><trkpt lat="40.606787227480766" lon="8.184234851668089"><ele>19.0</ele><time>2026-05-02T12:54:57Z</time></trkpt><trkpt lat="40.606924538460746" lon="8.184336046061912"><ele>19.0</ele><time>2026-05-02T12:54:58Z</time></trkpt><trkpt lat="40.607067068150805" lon="8.18443752966862"><ele>19.0</ele><time>2026-05-02T12:54:59Z</time></trkpt><trkpt lat="40.607213439949305" lon="8.184543054483285"><ele>18.666666666666664</ele><time>2026-05-02T12:55:00Z</time></trkpt><trkpt lat="40.607362359911505" lon="8.184655535199749"><ele>18.333333333333332</ele><time>2026-05-02T12:55:01Z</time></trkpt><trkpt lat="40.60751526709303" lon="8.184772747078101"><ele>18.0</ele><time>2026-05-02T12:55:02Z</time></trkpt><trkpt lat="40.60767470776671" lon="8.184890789774798"><ele>20.0</ele><time>2026-05-02T12:55:03Z</time></trkpt><trkpt lat="40.60783812587762" lon="8.185010049648012"><ele>22.0</ele><time>2026-05-02T12:55:04Z</time></trkpt><trkpt lat="40.60800465725665" lon="8.185131372030757"><ele>24.0</ele><time>2026-05-02T12:55:05Z</time></trkpt><trkpt lat="40.608175406204744" lon="8.185255497571344"><ele>24.0</ele><time>2026-05-02T12:55:06Z</time></trkpt><trkpt lat="40.608358267809095" lon="8.185384781913172"><ele>24.0</ele><time>2026-05-02T12:55:07Z</time></trkpt><trkpt lat="40.60854868507501" lon="8.185521416166852"><ele>24.0</ele><time>2026-05-02T12:55:08Z</time></trkpt><trkpt lat="40.60874454535789" lon="8.185660862985122"><ele>22.5</ele><time>2026-05-02T12:55:09Z</time></trkpt><trkpt lat="40.608948100841815" lon="8.185799434839385"><ele>21.0</ele><time>2026-05-02T12:55:10Z</time></trkpt><trkpt lat="40.609146518507245" lon="8.185971230405181"><ele>21.0</ele><time>2026-05-02T12:55:11Z</time></trkpt><trkpt lat="40.609362215775135" lon="8.186106392159099"><ele>21.0</ele><time>2026-05-02T12:55:12Z</time></trkpt><trkpt lat="40.60956182775784" lon="8.186273957884469"><ele>20.5</ele><time>2026-05-02T12:55:13Z</time></trkpt><trkpt lat="40.60975766155295" lon="8.186429752367564"><ele>20.0</ele><time>2026-05-02T12:55:14Z</time></trkpt><trkpt lat="40.60995171872209" lon="8.186571707061898"><ele>20.0</ele><time>2026-05-02T12:55:15Z</time></trkpt><trkpt lat="40.61013400136881" lon="8.186702536277238"><ele>20.0</ele><time>2026-05-02T12:55:16Z</time></trkpt><trkpt lat="40.61030274885582" lon="8.18682432860545"><ele>20.0</ele><time>2026-05-02T12:55:17Z</time></trkpt><trkpt lat="40.61046835909728" lon="8.186946523627741"><ele>21.666666666666668</ele><time>2026-05-02T12:55:18Z</time></trkpt><trkpt lat="40.610634911136394" lon="8.187072328987497"><ele>23.333333333333336</ele><time>2026-05-02T12:55:19Z</time></trkpt><trkpt lat="40.610806558392355" lon="8.187194578251056"><ele>25.0</ele><time>2026-05-02T12:55:20Z</time></trkpt><trkpt lat="40.610977424933665" lon="8.187306686742534"><ele>23.333333333333336</ele><time>2026-05-02T12:55:21Z</time></trkpt><trkpt lat="40.611147491569135" lon="8.187395444075303"><ele>21.666666666666668</ele><time>2026-05-02T12:55:22Z</time></trkpt><trkpt lat="40.61133229112279" lon="8.187447638141355"><ele>20.0</ele><time>2026-05-02T12:55:23Z</time></trkpt><trkpt lat="40.61152594343493" lon="8.187474763357864"><ele>20.0</ele><time>2026-05-02T12:55:24Z</time></trkpt><trkpt lat="40.61172416806039" lon="8.187512093600336"><ele>20.0</ele><time>2026-05-02T12:55:25Z</time></trkpt><trkpt lat="40.61192742576524" lon="8.18756383022631"><ele>20.0</ele><time>2026-05-02T12:55:26Z</time></trkpt><trkpt lat="40.61213305178467" lon="8.187600351702303"><ele>19.333333333333336</ele><time>2026-05-02T12:55:27Z</time></trkpt><trkpt lat="40.612339520898225" lon="8.187652275280747"><ele>18.666666666666668</ele><time>2026-05-02T12:55:28Z</time></trkpt><trkpt lat="40.61255471465284" lon="8.187685519762962"><ele>18.0</ele><time>2026-05-02T12:55:29Z</time></trkpt><trkpt lat="40.612769843424914" lon="8.18773044077638"><ele>17.333333333333332</ele><time>2026-05-02T12:55:30Z</time></trkpt><trkpt lat="40.612984900426966" lon="8.187773868138501"><ele>16.666666666666664</ele><time>2026-05-02T12:55:31Z</time></trkpt><trkpt lat="40.61320557467642" lon="8.187835045310461"><ele>16.0</ele><time>2026-05-02T12:55:32Z</time></trkpt><trkpt lat="40.61342036959307" lon="8.187869001374095"><ele>16.0</ele><time>2026-05-02T12:55:33Z</time></trkpt><trkpt lat="40.61363916525086" lon="8.187914768706749"><ele>16.0</ele><time>2026-05-02T12:55:34Z</time></trkpt><trkpt lat="40.61386053772158" lon="8.187968558953555"><ele>16.0</ele><time>2026-05-02T12:55:35Z</time></trkpt><trkpt lat="40.6140765134206" lon="8.188010331163008"><ele>16.0</ele><time>2026-05-02T12:55:36Z</time></trkpt><trkpt lat="40.6142958021048" lon="8.188055417663161"><ele>16.0</ele><time>2026-05-02T12:55:37Z</time></trkpt><trkpt lat="40.6145116039428" lon="8.188098648384305"><ele>16.0</ele><time>2026-05-02T12:55:38Z</time></trkpt><trkpt lat="40.614733628759936" lon="8.188144073899823"><ele>13.333333333333332</ele><time>2026-05-02T12:55:39Z</time></trkpt><trkpt lat="40.61495809616936" lon="8.188185963220393"><ele>10.666666666666666</ele><time>2026-05-02T12:55:40Z</time></trkpt><trkpt lat="40.615173108988714" lon="8.18823865258253"><ele>8.0</ele><time>2026-05-02T12:55:41Z</time></trkpt><trkpt lat="40.61538732292622" lon="8.188280199382675"><ele>7.666666666666666</ele><time>2026-05-02T12:55:42Z</time></trkpt><trkpt lat="40.615600325459916" lon="8.18832792476507"><ele>7.333333333333334</ele><time>2026-05-02T12:55:43Z</time></trkpt><trkpt lat="40.61580695115906" lon="8.188379909589374"><ele>7.0</ele><time>2026-05-02T12:55:44Z</time></trkpt><trkpt lat="40.61600990948212" lon="8.188451874358172"><ele>7.333333333333334</ele><time>2026-05-02T12:55:45Z</time></trkpt><trkpt lat="40.61620342161496" lon="8.18854317840684"><ele>7.666666666666666</ele><time>2026-05-02T12:55:46Z</time></trkpt><trkpt lat="40.616392785019436" lon="8.188656343808985"><ele>8.0</ele><time>2026-05-02T12:55:47Z</time></trkpt><trkpt lat="40.6165668190058" lon="8.188780016806628"><ele>8.0</ele><time>2026-05-02T12:55:48Z</time></trkpt><trkpt lat="40.616737691836654" lon="8.188949102987007"><ele>8.0</ele><time>2026-05-02T12:55:49Z</time></trkpt><trkpt lat="40.616900014130515" lon="8.189117405034862"><ele>8.0</ele><time>2026-05-02T12:55:50Z</time></trkpt><trkpt lat="40.61706381446975" lon="8.189284589021538"><ele>6.666666666666666</ele><time>2026-05-02T12:55:51Z</time></trkpt><trkpt lat="40.617229017888285" lon="8.189444257607041"><ele>5.333333333333333</ele><time>2026-05-02T12:55:52Z</time></trkpt><trkpt lat="40.61739233230362" lon="8.189603082340351"><ele>4.0</ele><time>2026-05-02T12:55:53Z</time></trkpt><trkpt lat="40.61755200514781" lon="8.189758194804492"><ele>3.6666666666666665</ele><time>2026-05-02T12:55:54Z</time></trkpt><trkpt lat="40.61771120681289" lon="8.189914153536623"><ele>3.333333333333333</ele><time>2026-05-02T12:55:55Z</time></trkpt><trkpt lat="40.617875814835116" lon="8.190071697057617"><ele>3.0</ele><time>2026-05-02T12:55:56Z</time></trkpt><trkpt lat="40.618041799333994" lon="8.190230410426679"><ele>3.0</ele><time>2026-05-02T12:55:57Z</time></trkpt><trkpt lat="40.61820681210029" lon="8.190394944672674"><ele>3.0</ele><time>2026-05-02T12:55:58Z</time></trkpt><trkpt lat="40.61836801027104" lon="8.190560660451798"><ele>3.0</ele><time>2026-05-02T12:55:59Z</time></trkpt><trkpt lat="40.618527689064244" lon="8.190720050961454"><ele>3.0</ele><time>2026-05-02T12:56:00Z</time></trkpt><trkpt lat="40.61868500488519" lon="8.190873140987799"><ele>3.0</ele><time>2026-05-02T12:56:01Z</time></trkpt><trkpt lat="40.618842888157644" lon="8.191022571823321"><ele>3.0</ele><time>2026-05-02T12:56:02Z</time></trkpt><trkpt lat="40.61899843722512" lon="8.191170988916268"><ele>3.0</ele><time>2026-05-02T12:56:03Z</time></trkpt><trkpt lat="40.61915273238758" lon="8.191321374533553"><ele>3.0</ele><time>2026-05-02T12:56:04Z</time></trkpt><trkpt lat="40.61930643438411" lon="8.19147004599873"><ele>3.0</ele><time>2026-05-02T12:56:05Z</time></trkpt><trkpt lat="40.61945996634974" lon="8.191618651044841"><ele>3.0</ele><time>2026-05-02T12:56:06Z</time></trkpt><trkpt lat="40.619611057280196" lon="8.191766524433012"><ele>3.0</ele><time>2026-05-02T12:56:07Z</time></trkpt><trkpt lat="40.61976348735235" lon="8.191914957798616"><ele>3.0</ele><time>2026-05-02T12:56:08Z</time></trkpt><trkpt lat="40.61991806938261" lon="8.192064998963795"><ele>3.0</ele><time>2026-05-02T12:56:09Z</time></trkpt><trkpt lat="40.62007427931211" lon="8.192220642062258"><ele>3.0</ele><time>2026-05-02T12:56:10Z</time></trkpt><trkpt lat="40.62023269898017" lon="8.192377693165513"><ele>3.0</ele><time>2026-05-02T12:56:11Z</time></trkpt><trkpt lat="40.62039078797836" lon="8.192535777825602"><ele>2.6666666666666665</ele><time>2026-05-02T12:56:12Z</time></trkpt><trkpt lat="40.62055051767685" lon="8.192695373802987"><ele>2.333333333333333</ele><time>2026-05-02T12:56:13Z</time></trkpt><trkpt lat="40.62071304180051" lon="8.19285162211422"><ele>2.0</ele><time>2026-05-02T12:56:14Z</time></trkpt><trkpt lat="40.62087652994302" lon="8.193004474712506"><ele>2.0</ele><time>2026-05-02T12:56:15Z</time></trkpt><trkpt lat="40.62104192412991" lon="8.19315959157815"><ele>2.0</ele><time>2026-05-02T12:56:16Z</time></trkpt><trkpt lat="40.62120565949779" lon="8.193319084239425"><ele>2.0</ele><time>2026-05-02T12:56:17Z</time></trkpt><trkpt lat="40.6213720847235" lon="8.19348152663922"><ele>2.0</ele><time>2026-05-02T12:56:18Z</time></trkpt><trkpt lat="40.621538973200494" lon="8.19364693767875"><ele>2.0</ele><time>2026-05-02T12:56:19Z</time></trkpt><trkpt lat="40.621708298694855" lon="8.193813510191944"><ele>2.0</ele><time>2026-05-02T12:56:20Z</time></trkpt><trkpt lat="40.621872174269186" lon="8.193976045489258"><ele>2.0</ele><time>2026-05-02T12:56:21Z</time></trkpt><trkpt lat="40.622039203383665" lon="8.194134802169323"><ele>2.0</ele><time>2026-05-02T12:56:22Z</time></trkpt><trkpt lat="40.62220310417729" lon="8.194294900407476"><ele>2.0</ele><time>2026-05-02T12:56:23Z</time></trkpt><trkpt lat="40.62236729735139" lon="8.194456668210213"><ele>2.0</ele><time>2026-05-02T12:56:24Z</time></trkpt><trkpt lat="40.62253092741446" lon="8.19461795286655"><ele>2.0</ele><time>2026-05-02T12:56:25Z</time></trkpt><trkpt lat="40.622697122783435" lon="8.1947745371439"><ele>2.0</ele><time>2026-05-02T12:56:26Z</time></trkpt><trkpt lat="40.622865216975306" lon="8.194936244530334"><ele>2.333333333333333</ele><time>2026-05-02T12:56:27Z</time></trkpt><trkpt lat="40.62303131602229" lon="8.195100135438654"><ele>2.6666666666666665</ele><time>2026-05-02T12:56:28Z</time></trkpt><trkpt lat="40.62319919739472" lon="8.195265005956875"><ele>3.0</ele><time>2026-05-02T12:56:29Z</time></trkpt><trkpt lat="40.62336312590264" lon="8.195426042406854"><ele>3.0</ele><time>2026-05-02T12:56:30Z</time></trkpt><trkpt lat="40.623521438870746" lon="8.195580411090663"><ele>3.0</ele><time>2026-05-02T12:56:31Z</time></trkpt><trkpt lat="40.62366967082804" lon="8.195738225081898"><ele>3.0</ele><time>2026-05-02T12:56:32Z</time></trkpt><trkpt lat="40.62376228523089" lon="8.195927789379482"><ele>3.0</ele><time>2026-05-02T12:56:33Z</time></trkpt><trkpt lat="40.62383554706491" lon="8.196136856250439"><ele>3.0</ele><time>2026-05-02T12:56:34Z</time></trkpt><trkpt lat="40.62389233939613" lon="8.196340417661633"><ele>3.0</ele><time>2026-05-02T12:56:35Z</time></trkpt><trkpt lat="40.62392199672077" lon="8.196546663997749"><ele>3.0</ele><time>2026-05-02T12:56:36Z</time></trkpt><trkpt lat="40.623935045813624" lon="8.196752139357177"><ele>3.0</ele><time>2026-05-02T12:56:37Z</time></trkpt><trkpt lat="40.62390997243798" lon="8.196961831283387"><ele>3.0</ele><time>2026-05-02T12:56:38Z</time></trkpt><trkpt lat="40.623833095391404" lon="8.19715579987203"><ele>3.333333333333333</ele><time>2026-05-02T12:56:39Z</time></trkpt><trkpt lat="40.62377538193921" lon="8.197355245624568"><ele>3.6666666666666665</ele><time>2026-05-02T12:56:40Z</time></trkpt><trkpt lat="40.62373152519556" lon="8.197554838130719"><ele>4.0</ele><time>2026-05-02T12:56:41Z</time></trkpt><trkpt lat="40.62367081780843" lon="8.197743832051442"><ele>4.0</ele><time>2026-05-02T12:56:42Z</time></trkpt><trkpt lat="40.62361296029852" lon="8.197935402225708"><ele>4.0</ele><time>2026-05-02T12:56:43Z</time></trkpt><trkpt lat="40.62356018453941" lon="8.198131343954106"><ele>4.0</ele><time>2026-05-02T12:56:44Z</time></trkpt><trkpt lat="40.62349713389307" lon="8.198342541893135"><ele>4.333333333333333</ele><time>2026-05-02T12:56:45Z</time></trkpt><trkpt lat="40.62343516526741" lon="8.19856852651926"><ele>4.666666666666667</ele><time>2026-05-02T12:56:46Z</time></trkpt><trkpt lat="40.62336757094844" lon="8.198804428382148"><ele>5.0</ele><time>2026-05-02T12:56:47Z</time></trkpt><trkpt lat="40.62329752839207" lon="8.199050152097517"><ele>5.0</ele><time>2026-05-02T12:56:48Z</time></trkpt><trkpt lat="40.623224312340774" lon="8.199302895147689"><ele>5.0</ele><time>2026-05-02T12:56:49Z</time></trkpt><trkpt lat="40.62314886377747" lon="8.19956524540669"><ele>5.0</ele><time>2026-05-02T12:56:50Z</time></trkpt><trkpt lat="40.62307072433766" lon="8.19983380241033"><ele>5.0</ele><time>2026-05-02T12:56:51Z</time></trkpt><trkpt lat="40.62299073516018" lon="8.200106319563677"><ele>5.0</ele><time>2026-05-02T12:56:52Z</time></trkpt><trkpt lat="40.62291200630318" lon="8.200375835111558"><ele>5.0</ele><time>2026-05-02T12:56:53Z</time></trkpt><trkpt lat="40.622834878934505" lon="8.200639890386732"><ele>5.666666666666667</ele><time>2026-05-02T12:56:54Z</time></trkpt><trkpt lat="40.62276211495746" lon="8.200891557631666"><ele>6.333333333333334</ele><time>2026-05-02T12:56:55Z</time></trkpt><trkpt lat="40.6226901614359" lon="8.201137512379136"><ele>7.0</ele><time>2026-05-02T12:56:56Z</time></trkpt><trkpt lat="40.622616705828314" lon="8.201388771516726"><ele>7.333333333333334</ele><time>2026-05-02T12:56:57Z</time></trkpt><trkpt lat="40.62254233308029" lon="8.201644245852666"><ele>7.666666666666666</ele><time>2026-05-02T12:56:58Z</time></trkpt><trkpt lat="40.62246729149021" lon="8.201903755282354"><ele>8.0</ele><time>2026-05-02T12:56:59Z</time></trkpt><trkpt lat="40.622393740791736" lon="8.202162595507108"><ele>7.666666666666666</ele><time>2026-05-02T12:57:00Z</time></trkpt><trkpt lat="40.62232056379962" lon="8.20242374153348"><ele>7.333333333333334</ele><time>2026-05-02T12:57:01Z</time></trkpt><trkpt lat="40.622245718585965" lon="8.2026922532609"><ele>7.0</ele><time>2026-05-02T12:57:02Z</time></trkpt><trkpt lat="40.622161477456956" lon="8.202958438721366"><ele>7.0</ele><time>2026-05-02T12:57:03Z</time></trkpt><trkpt lat="40.6220812045231" lon="8.203234646550841"><ele>7.0</ele><time>2026-05-02T12:57:04Z</time></trkpt><trkpt lat="40.622012203822784" lon="8.203484427626123"><ele>7.0</ele><time>2026-05-02T12:57:05Z</time></trkpt><trkpt lat="40.6219470008632" lon="8.203724908256179"><ele>7.333333333333334</ele><time>2026-05-02T12:57:06Z</time></trkpt><trkpt lat="40.62186957615839" lon="8.203975756578858"><ele>7.666666666666666</ele><time>2026-05-02T12:57:07Z</time></trkpt><trkpt lat="40.62179141524099" lon="8.20423333365151"><ele>8.0</ele><time>2026-05-02T12:57:08Z</time></trkpt><trkpt lat="40.62171525481937" lon="8.204500501964095"><ele>8.0</ele><time>2026-05-02T12:57:09Z</time></trkpt><trkpt lat="40.62163889285755" lon="8.204767518562578"><ele>8.0</ele><time>2026-05-02T12:57:10Z</time></trkpt><trkpt lat="40.62156632525457" lon="8.205019762650883"><ele>8.0</ele><time>2026-05-02T12:57:11Z</time></trkpt><trkpt lat="40.6214974198645" lon="8.205256395805735"><ele>8.0</ele><time>2026-05-02T12:57:12Z</time></trkpt><trkpt lat="40.6214300372984" lon="8.205489765136127"><ele>8.0</ele><time>2026-05-02T12:57:13Z</time></trkpt><trkpt lat="40.621361090548305" lon="8.205725093331113"><ele>8.0</ele><time>2026-05-02T12:57:14Z</time></trkpt><trkpt lat="40.62129474708824" lon="8.205961128584557"><ele>8.0</ele><time>2026-05-02T12:57:15Z</time></trkpt><trkpt lat="40.62122734196808" lon="8.20620297289017"><ele>8.0</ele><time>2026-05-02T12:57:16Z</time></trkpt><trkpt lat="40.621156440477414" lon="8.206450399983472"><ele>8.0</ele><time>2026-05-02T12:57:17Z</time></trkpt><trkpt lat="40.62108562074355" lon="8.206699896938662"><ele>8.0</ele><time>2026-05-02T12:57:18Z</time></trkpt><trkpt lat="40.62101217498204" lon="8.206951739842415"><ele>8.0</ele><time>2026-05-02T12:57:19Z</time></trkpt><trkpt lat="40.62093975907001" lon="8.207205749813"><ele>8.0</ele><time>2026-05-02T12:57:20Z</time></trkpt><trkpt lat="40.620865174972366" lon="8.207457481580285"><ele>7.666666666666666</ele><time>2026-05-02T12:57:21Z</time></trkpt><trkpt lat="40.6207521947502" lon="8.20768197953079"><ele>7.333333333333334</ele><time>2026-05-02T12:57:22Z</time></trkpt><trkpt lat="40.62062272100405" lon="8.207886235707383"><ele>7.0</ele><time>2026-05-02T12:57:23Z</time></trkpt><trkpt lat="40.62047363961039" lon="8.208089858515535"><ele>7.5</ele><time>2026-05-02T12:57:24Z</time></trkpt><trkpt lat="40.62031758894241" lon="8.208300158762276"><ele>8.0</ele><time>2026-05-02T12:57:25Z</time></trkpt><trkpt lat="40.62016452388806" lon="8.208537575574582"><ele>8.0</ele><time>2026-05-02T12:57:26Z</time></trkpt><trkpt lat="40.61999712094453" lon="8.20876270934653"><ele>8.0</ele><time>2026-05-02T12:57:27Z</time></trkpt><trkpt lat="40.619823405130525" lon="8.209000265272142"><ele>8.5</ele><time>2026-05-02T12:57:28Z</time></trkpt><trkpt lat="40.61964255269343" lon="8.209245766328145"><ele>9.0</ele><time>2026-05-02T12:57:29Z</time></trkpt><trkpt lat="40.61945632894746" lon="8.209495154574512"><ele>9.5</ele><time>2026-05-02T12:57:30Z</time></trkpt><trkpt lat="40.61927055790968" lon="8.209746278997603"><ele>10.0</ele><time>2026-05-02T12:57:31Z</time></trkpt><trkpt lat="40.619080884135585" lon="8.209976941419095"><ele>10.0</ele><time>2026-05-02T12:57:32Z</time></trkpt><trkpt lat="40.61890055097406" lon="8.210220869309236"><ele>10.0</ele><time>2026-05-02T12:57:33Z</time></trkpt><trkpt lat="40.61871106539184" lon="8.210475987280812"><ele>10.5</ele><time>2026-05-02T12:57:34Z</time></trkpt><trkpt lat="40.61852653500786" lon="8.210724178189217"><ele>11.0</ele><time>2026-05-02T12:57:35Z</time></trkpt><trkpt lat="40.61836714653331" lon="8.210968281394342"><ele>11.0</ele><time>2026-05-02T12:57:36Z</time></trkpt><trkpt lat="40.61820885273491" lon="8.211176990880501"><ele>11.0</ele><time>2026-05-02T12:57:37Z</time></trkpt><trkpt lat="40.618052419599174" lon="8.211388436023327"><ele>11.0</ele><time>2026-05-02T12:57:38Z</time></trkpt><trkpt lat="40.61789624179193" lon="8.211601590068003"><ele>12.0</ele><time>2026-05-02T12:57:39Z</time></trkpt><trkpt lat="40.61774126796738" lon="8.211812205568824"><ele>13.0</ele><time>2026-05-02T12:57:40Z</time></trkpt><trkpt lat="40.617587118957346" lon="8.212020696006155"><ele>14.0</ele><time>2026-05-02T12:57:41Z</time></trkpt><trkpt lat="40.61743359276942" lon="8.21222579049723"><ele>15.0</ele><time>2026-05-02T12:57:42Z</time></trkpt><trkpt lat="40.617281626041525" lon="8.21243185725769"><ele>16.0</ele><time>2026-05-02T12:57:43Z</time></trkpt><trkpt lat="40.61712966787823" lon="8.212640404278565"><ele>17.0</ele><time>2026-05-02T12:57:44Z</time></trkpt><trkpt lat="40.61697643890911" lon="8.212848491656226"><ele>17.0</ele><time>2026-05-02T12:57:45Z</time></trkpt><trkpt lat="40.61682344959825" lon="8.213056840152255"><ele>17.0</ele><time>2026-05-02T12:57:46Z</time></trkpt><trkpt lat="40.616668675919364" lon="8.21326414901694"><ele>17.0</ele><time>2026-05-02T12:57:47Z</time></trkpt><trkpt lat="40.61651272509494" lon="8.213471390475476"><ele>18.0</ele><time>2026-05-02T12:57:48Z</time></trkpt><trkpt lat="40.61635879464864" lon="8.213681596851092"><ele>19.0</ele><time>2026-05-02T12:57:49Z</time></trkpt><trkpt lat="40.616205771178194" lon="8.213893713138699"><ele>20.0</ele><time>2026-05-02T12:57:50Z</time></trkpt><trkpt lat="40.616054669049404" lon="8.214107047735514"><ele>20.333333333333336</ele><time>2026-05-02T12:57:51Z</time></trkpt><trkpt lat="40.61589657596401" lon="8.214315044750025"><ele>20.666666666666668</ele><time>2026-05-02T12:57:52Z</time></trkpt><trkpt lat="40.61574193654973" lon="8.214525046530857"><ele>21.0</ele><time>2026-05-02T12:57:53Z</time></trkpt><trkpt lat="40.615589289615066" lon="8.214730458234648"><ele>21.0</ele><time>2026-05-02T12:57:54Z</time></trkpt><trkpt lat="40.615443393919875" lon="8.21493062524574"><ele>21.0</ele><time>2026-05-02T12:57:55Z</time></trkpt><trkpt lat="40.61530291255743" lon="8.21511387723665"><ele>21.0</ele><time>2026-05-02T12:57:56Z</time></trkpt><trkpt lat="40.615173704761126" lon="8.215292919008089"><ele>20.666666666666668</ele><time>2026-05-02T12:57:57Z</time></trkpt><trkpt lat="40.61505256963062" lon="8.21546225211027"><ele>20.333333333333336</ele><time>2026-05-02T12:57:58Z</time></trkpt><trkpt lat="40.61493079110055" lon="8.215608245916394"><ele>20.0</ele><time>2026-05-02T12:57:59Z</time></trkpt><trkpt lat="40.61479804759505" lon="8.215708250397897"><ele>20.0</ele><time>2026-05-02T12:58:00Z</time></trkpt><trkpt lat="40.61466149989796" lon="8.215793919104659"><ele>20.0</ele><time>2026-05-02T12:58:01Z</time></trkpt><trkpt lat="40.61451848237207" lon="8.21585891750861"><ele>20.0</ele><time>2026-05-02T12:58:02Z</time></trkpt><trkpt lat="40.61436768012079" lon="8.215919598299966"><ele>19.333333333333336</ele><time>2026-05-02T12:58:03Z</time></trkpt><trkpt lat="40.61420932511903" lon="8.21598263990061"><ele>18.666666666666668</ele><time>2026-05-02T12:58:04Z</time></trkpt><trkpt lat="40.614044510105565" lon="8.216044745783684"><ele>18.0</ele><time>2026-05-02T12:58:05Z</time></trkpt><trkpt lat="40.613874940235306" lon="8.216108642160071"><ele>18.0</ele><time>2026-05-02T12:58:06Z</time></trkpt><trkpt lat="40.61369693536302" lon="8.21617571526695"><ele>18.0</ele><time>2026-05-02T12:58:07Z</time></trkpt><trkpt lat="40.613504527765606" lon="8.216248215391303"><ele>18.0</ele><time>2026-05-02T12:58:08Z</time></trkpt><trkpt lat="40.61331392558551" lon="8.216356713619021"><ele>18.0</ele><time>2026-05-02T12:58:09Z</time></trkpt><trkpt lat="40.61311674625427" lon="8.216446095286893"><ele>18.0</ele><time>2026-05-02T12:58:10Z</time></trkpt><trkpt lat="40.612906878273286" lon="8.216530142400131"><ele>18.0</ele><time>2026-05-02T12:58:11Z</time></trkpt><trkpt lat="40.61267920431498" lon="8.216620813077627"><ele>17.5</ele><time>2026-05-02T12:58:12Z</time></trkpt><trkpt lat="40.61245149846084" lon="8.216695561538272"><ele>17.0</ele><time>2026-05-02T12:58:13Z</time></trkpt><trkpt lat="40.612230305169945" lon="8.216764566233142"><ele>17.0</ele><time>2026-05-02T12:58:14Z</time></trkpt><trkpt lat="40.61201867338719" lon="8.216840972709004"><ele>17.0</ele><time>2026-05-02T12:58:15Z</time></trkpt><trkpt lat="40.61182376125229" lon="8.216918633520528"><ele>17.0</ele><time>2026-05-02T12:58:16Z</time></trkpt><trkpt lat="40.61164102245513" lon="8.216988229229957"><ele>17.0</ele><time>2026-05-02T12:58:17Z</time></trkpt><trkpt lat="40.61146736046111" lon="8.217052717935013"><ele>17.0</ele><time>2026-05-02T12:58:18Z</time></trkpt><trkpt lat="40.61129511215238" lon="8.21711479197315"><ele>17.0</ele><time>2026-05-02T12:58:19Z</time></trkpt><trkpt lat="40.61112020119235" lon="8.217182211362674"><ele>17.0</ele><time>2026-05-02T12:58:20Z</time></trkpt><trkpt lat="40.61094474882513" lon="8.217249003668783"><ele>17.0</ele><time>2026-05-02T12:58:21Z</time></trkpt><trkpt lat="40.6107765655584" lon="8.217312699465257"><ele>17.0</ele><time>2026-05-02T12:58:22Z</time></trkpt><trkpt lat="40.61062289182511" lon="8.217368604471115"><ele>16.75</ele><time>2026-05-02T12:58:23Z</time></trkpt><trkpt lat="40.61048096440863" lon="8.217427135595143"><ele>16.5</ele><time>2026-05-02T12:58:24Z</time></trkpt><trkpt lat="40.61034162684659" lon="8.217483249030488"><ele>16.25</ele><time>2026-05-02T12:58:25Z</time></trkpt><trkpt lat="40.61020020929052" lon="8.217536101802867"><ele>16.0</ele><time>2026-05-02T12:58:26Z</time></trkpt><trkpt lat="40.61005707091539" lon="8.21758898131485"><ele>15.75</ele><time>2026-05-02T12:58:27Z</time></trkpt><trkpt lat="40.60991589286317" lon="8.217645031741363"><ele>15.5</ele><time>2026-05-02T12:58:28Z</time></trkpt><trkpt lat="40.609775736794234" lon="8.217701033266371"><ele>15.25</ele><time>2026-05-02T12:58:29Z</time></trkpt><trkpt lat="40.60963211579962" lon="8.217758901990662"><ele>15.0</ele><time>2026-05-02T12:58:30Z</time></trkpt><trkpt lat="40.609484412256066" lon="8.217816669841264"><ele>15.0</ele><time>2026-05-02T12:58:31Z</time></trkpt><trkpt lat="40.6093364225856" lon="8.217871467257611"><ele>15.0</ele><time>2026-05-02T12:58:32Z</time></trkpt><trkpt lat="40.6091940522492" lon="8.217930609191663"><ele>15.0</ele><time>2026-05-02T12:58:33Z</time></trkpt><trkpt lat="40.60906501125384" lon="8.217971919669663"><ele>15.0</ele><time>2026-05-02T12:58:34Z</time></trkpt><trkpt lat="40.608935784750685" lon="8.218020832467671"><ele>15.0</ele><time>2026-05-02T12:58:35Z</time></trkpt><trkpt lat="40.608795837199885" lon="8.218069961355054"><ele>15.0</ele><time>2026-05-02T12:58:36Z</time></trkpt><trkpt lat="40.60864589592373" lon="8.218125764361089"><ele>15.0</ele><time>2026-05-02T12:58:37Z</time></trkpt><trkpt lat="40.60848998026277" lon="8.218189388154125"><ele>15.0</ele><time>2026-05-02T12:58:38Z</time></trkpt><trkpt lat="40.60832528866045" lon="8.218252670778053"><ele>15.0</ele><time>2026-05-02T12:58:39Z</time></trkpt><trkpt lat="40.608153916602554" lon="8.218320874344244"><ele>15.0</ele><time>2026-05-02T12:58:40Z</time></trkpt><trkpt lat="40.607975288917544" lon="8.218390850420748"><ele>15.333333333333332</ele><time>2026-05-02T12:58:41Z</time></trkpt><trkpt lat="40.607790726791215" lon="8.21846488288318"><ele>15.666666666666666</ele><time>2026-05-02T12:58:42Z</time></trkpt><trkpt lat="40.60760286952829" lon="8.218533975040883"><ele>16.0</ele><time>2026-05-02T12:58:43Z</time></trkpt><trkpt lat="40.607411804507855" lon="8.218609307512011"><ele>16.0</ele><time>2026-05-02T12:58:44Z</time></trkpt><trkpt lat="40.607215813255095" lon="8.218692005763206"><ele>16.0</ele><time>2026-05-02T12:58:45Z</time></trkpt><trkpt lat="40.607019177314136" lon="8.218766385726646"><ele>16.0</ele><time>2026-05-02T12:58:46Z</time></trkpt><trkpt lat="40.60681324958313" lon="8.218838497767166"><ele>16.0</ele><time>2026-05-02T12:58:47Z</time></trkpt><trkpt lat="40.606604479613445" lon="8.218914555903023"><ele>16.0</ele><time>2026-05-02T12:58:48Z</time></trkpt><trkpt lat="40.606389625169385" lon="8.21899537690632"><ele>16.0</ele><time>2026-05-02T12:58:49Z</time></trkpt><trkpt lat="40.6061726939526" lon="8.219081961526557"><ele>15.0</ele><time>2026-05-02T12:58:50Z</time></trkpt><trkpt lat="40.605953314425406" lon="8.219168021153996"><ele>14.0</ele><time>2026-05-02T12:58:51Z</time></trkpt><trkpt lat="40.60572561403748" lon="8.219243982605724"><ele>14.0</ele><time>2026-05-02T12:58:52Z</time></trkpt><trkpt lat="40.605505852085855" lon="8.219326934409859"><ele>14.0</ele><time>2026-05-02T12:58:53Z</time></trkpt><trkpt lat="40.60528759936978" lon="8.219418185604908"><ele>12.5</ele><time>2026-05-02T12:58:54Z</time></trkpt><trkpt lat="40.60506509184073" lon="8.21950064531843"><ele>11.0</ele><time>2026-05-02T12:58:55Z</time></trkpt><trkpt lat="40.60484583210415" lon="8.21958253684009"><ele>11.0</ele><time>2026-05-02T12:58:56Z</time></trkpt><trkpt lat="40.60463063010834" lon="8.219666291061888"><ele>11.0</ele><time>2026-05-02T12:58:57Z</time></trkpt><trkpt lat="40.604403030402324" lon="8.2197397920596"><ele>10.333333333333332</ele><time>2026-05-02T12:58:58Z</time></trkpt><trkpt lat="40.60420024119934" lon="8.21983027129602"><ele>9.666666666666666</ele><time>2026-05-02T12:58:59Z</time></trkpt><trkpt lat="40.60398617049393" lon="8.21990860592148"><ele>9.0</ele><time>2026-05-02T12:59:00Z</time></trkpt><trkpt lat="40.6037817889902" lon="8.219989544882216"><ele>8.666666666666666</ele><time>2026-05-02T12:59:01Z</time></trkpt><trkpt lat="40.603576451737545" lon="8.220066674498678"><ele>8.333333333333332</ele><time>2026-05-02T12:59:02Z</time></trkpt><trkpt lat="40.60337226639488" lon="8.220144969192711"><ele>8.0</ele><time>2026-05-02T12:59:03Z</time></trkpt><trkpt lat="40.60317097300368" lon="8.22022418079614"><ele>8.0</ele><time>2026-05-02T12:59:04Z</time></trkpt><trkpt lat="40.60296968983178" lon="8.22030004866052"><ele>8.0</ele><time>2026-05-02T12:59:05Z</time></trkpt><trkpt lat="40.60277346308448" lon="8.220380287291144"><ele>8.0</ele><time>2026-05-02T12:59:06Z</time></trkpt><trkpt lat="40.602576692338246" lon="8.22045292934474"><ele>8.0</ele><time>2026-05-02T12:59:07Z</time></trkpt><trkpt lat="40.60237903299354" lon="8.220528088434506"><ele>8.0</ele><time>2026-05-02T12:59:08Z</time></trkpt><trkpt lat="40.60218570434801" lon="8.22059858227265"><ele>8.0</ele><time>2026-05-02T12:59:09Z</time></trkpt><trkpt lat="40.60199071095511" lon="8.220676223070372"><ele>7.333333333333333</ele><time>2026-05-02T12:59:10Z</time></trkpt><trkpt lat="40.6017980314996" lon="8.220752984969597"><ele>6.666666666666666</ele><time>2026-05-02T12:59:11Z</time></trkpt><trkpt lat="40.60160028273782" lon="8.220828977315454"><ele>6.0</ele><time>2026-05-02T12:59:12Z</time></trkpt><trkpt lat="40.60140313100229" lon="8.220903633763879"><ele>6.0</ele><time>2026-05-02T12:59:13Z</time></trkpt><trkpt lat="40.60120476358417" lon="8.220980239312683"><ele>6.0</ele><time>2026-05-02T12:59:14Z</time></trkpt><trkpt lat="40.60100496573863" lon="8.221055738266955"><ele>6.0</ele><time>2026-05-02T12:59:15Z</time></trkpt><trkpt lat="40.60080546096319" lon="8.221130221915834"><ele>7.333333333333334</ele><time>2026-05-02T12:59:16Z</time></trkpt><trkpt lat="40.60060589094789" lon="8.221207820895273"><ele>8.666666666666668</ele><time>2026-05-02T12:59:17Z</time></trkpt><trkpt lat="40.600404601036644" lon="8.221285791935411"><ele>10.0</ele><time>2026-05-02T12:59:18Z</time></trkpt><trkpt lat="40.600031966775994" lon="8.221425516978218"><ele>10.333333333333334</ele><time>2026-05-02T12:59:20Z</time></trkpt><trkpt lat="40.599859809879064" lon="8.221478527909783"><ele>10.666666666666666</ele><time>2026-05-02T12:59:21Z</time></trkpt><trkpt lat="40.59968879167063" lon="8.221545066949732"><ele>11.0</ele><time>2026-05-02T12:59:22Z</time></trkpt><trkpt lat="40.59951591704184" lon="8.221623585558875"><ele>10.333333333333332</ele><time>2026-05-02T12:59:23Z</time></trkpt><trkpt lat="40.5993398597177" lon="8.221690481620483"><ele>9.666666666666666</ele><time>2026-05-02T12:59:24Z</time></trkpt><trkpt lat="40.5991651009924" lon="8.221754276147859"><ele>9.0</ele><time>2026-05-02T12:59:25Z</time></trkpt><trkpt lat="40.59900379631384" lon="8.221816384116348"><ele>9.0</ele><time>2026-05-02T12:59:26Z</time></trkpt><trkpt lat="40.598859257776745" lon="8.221872725267831"><ele>9.0</ele><time>2026-05-02T12:59:27Z</time></trkpt><trkpt lat="40.59872997563572" lon="8.221924598467123"><ele>9.0</ele><time>2026-05-02T12:59:28Z</time></trkpt><trkpt lat="40.5986204538837" lon="8.221968570146672"><ele>9.0</ele><time>2026-05-02T12:59:29Z</time></trkpt><trkpt lat="40.59853006448357" lon="8.22200255035264"><ele>9.333333333333334</ele><time>2026-05-02T12:59:30Z</time></trkpt><trkpt lat="40.59844289745635" lon="8.222036310213781"><ele>9.666666666666666</ele><time>2026-05-02T12:59:31Z</time></trkpt><trkpt lat="40.59836524320429" lon="8.222057842742931"><ele>10.0</ele><time>2026-05-02T12:59:32Z</time></trkpt><trkpt lat="40.598283600759586" lon="8.222059252179143"><ele>10.333333333333332</ele><time>2026-05-02T12:59:33Z</time></trkpt><trkpt lat="40.598204984029444" lon="8.222028921586574"><ele>10.666666666666666</ele><time>2026-05-02T12:59:34Z</time></trkpt><trkpt lat="40.59812888927756" lon="8.222021950283022"><ele>11.0</ele><time>2026-05-02T12:59:35Z</time></trkpt><trkpt lat="40.598073574706504" lon="8.222080416409158"><ele>11.0</ele><time>2026-05-02T12:59:36Z</time></trkpt><trkpt lat="40.59804089461135" lon="8.22218100785784"><ele>11.0</ele><time>2026-05-02T12:59:37Z</time></trkpt><trkpt lat="40.59802935563595" lon="8.22227645040563"><ele>11.0</ele><time>2026-05-02T12:59:38Z</time></trkpt><trkpt lat="40.59806249316432" lon="8.222406434976296"><ele>11.0</ele><time>2026-05-02T12:59:39Z</time></trkpt><trkpt lat="40.59808206586738" lon="8.222553495789674"><ele>11.0</ele><time>2026-05-02T12:59:40Z</time></trkpt><trkpt lat="40.5980726317638" lon="8.222721760970872"><ele>11.333333333333332</ele><time>2026-05-02T12:59:41Z</time></trkpt><trkpt lat="40.59803452882488" lon="8.222907376179116"><ele>11.666666666666666</ele><time>2026-05-02T12:59:42Z</time></trkpt><trkpt lat="40.59799834617358" lon="8.223103194724168"><ele>12.0</ele><time>2026-05-02T12:59:43Z</time></trkpt><trkpt lat="40.59796019079809" lon="8.223308215479888"><ele>12.333333333333332</ele><time>2026-05-02T12:59:44Z</time></trkpt><trkpt lat="40.59791930538294" lon="8.223530586497848"><ele>12.666666666666666</ele><time>2026-05-02T12:59:45Z</time></trkpt><trkpt lat="40.59787877217051" lon="8.223757841783078"><ele>13.0</ele><time>2026-05-02T12:59:46Z</time></trkpt><trkpt lat="40.597839232261855" lon="8.223989291379013"><ele>13.0</ele><time>2026-05-02T12:59:47Z</time></trkpt><trkpt lat="40.59780003876972" lon="8.224232060506528"><ele>13.0</ele><time>2026-05-02T12:59:48Z</time></trkpt><trkpt lat="40.597759557318135" lon="8.224471572847564"><ele>13.0</ele><time>2026-05-02T12:59:49Z</time></trkpt><trkpt lat="40.59771281507041" lon="8.224715374892837"><ele>13.333333333333332</ele><time>2026-05-02T12:59:50Z</time></trkpt><trkpt lat="40.597665873590024" lon="8.224958725315268"><ele>13.666666666666668</ele><time>2026-05-02T12:59:51Z</time></trkpt><trkpt lat="40.59762320137866" lon="8.22520338059519"><ele>14.0</ele><time>2026-05-02T12:59:52Z</time></trkpt><trkpt lat="40.597579949356636" lon="8.225443504231635"><ele>14.333333333333334</ele><time>2026-05-02T12:59:53Z</time></trkpt><trkpt lat="40.5975356106515" lon="8.225681160399253"><ele>14.666666666666668</ele><time>2026-05-02T12:59:54Z</time></trkpt><trkpt lat="40.597495188754266" lon="8.22591469567729"><ele>15.0</ele><time>2026-05-02T12:59:55Z</time></trkpt><trkpt lat="40.597451763577745" lon="8.226149802139913"><ele>15.0</ele><time>2026-05-02T12:59:56Z</time></trkpt><trkpt lat="40.59741173084956" lon="8.226375266160717"><ele>15.0</ele><time>2026-05-02T12:59:57Z</time></trkpt><trkpt lat="40.597372970577126" lon="8.226598557116136"><ele>15.0</ele><time>2026-05-02T12:59:58Z</time></trkpt><trkpt lat="40.597335196377465" lon="8.226817511640386"><ele>15.333333333333332</ele><time>2026-05-02T12:59:59Z</time></trkpt><trkpt lat="40.59729650345671" lon="8.227032709864828"><ele>15.666666666666666</ele><time>2026-05-02T13:00:00Z</time></trkpt><trkpt lat="40.59726076951181" lon="8.227245213375255"><ele>16.0</ele><time>2026-05-02T13:00:01Z</time></trkpt><trkpt lat="40.59722421378843" lon="8.227451778148538"><ele>16.666666666666664</ele><time>2026-05-02T13:00:02Z</time></trkpt><trkpt lat="40.59718624392562" lon="8.227658639126243"><ele>17.333333333333332</ele><time>2026-05-02T13:00:03Z</time></trkpt><trkpt lat="40.597147391309065" lon="8.227875856661019"><ele>18.0</ele><time>2026-05-02T13:00:04Z</time></trkpt><trkpt lat="40.59711012023041" lon="8.228088969074125"><ele>18.0</ele><time>2026-05-02T13:00:05Z</time></trkpt><trkpt lat="40.597069754982186" lon="8.228313633645813"><ele>18.0</ele><time>2026-05-02T13:00:06Z</time></trkpt><trkpt lat="40.59702726696182" lon="8.22853457004057"><ele>18.0</ele><time>2026-05-02T13:00:07Z</time></trkpt><trkpt lat="40.59698809047955" lon="8.228760078697473"><ele>18.666666666666668</ele><time>2026-05-02T13:00:08Z</time></trkpt><trkpt lat="40.596948616392936" lon="8.228980376515771"><ele>19.333333333333336</ele><time>2026-05-02T13:00:09Z</time></trkpt><trkpt lat="40.5968978285196" lon="8.229193247671441"><ele>20.0</ele><time>2026-05-02T13:00:10Z</time></trkpt><trkpt lat="40.596864926659954" lon="8.229404732738232"><ele>20.0</ele><time>2026-05-02T13:00:11Z</time></trkpt><trkpt lat="40.59682697336696" lon="8.229625691024689"><ele>20.0</ele><time>2026-05-02T13:00:12Z</time></trkpt><trkpt lat="40.59678256118475" lon="8.229834848870006"><ele>20.0</ele><time>2026-05-02T13:00:13Z</time></trkpt><trkpt lat="40.59674711594113" lon="8.230025356220182"><ele>22.0</ele><time>2026-05-02T13:00:14Z</time></trkpt><trkpt lat="40.59671735142991" lon="8.2302357287456"><ele>24.0</ele><time>2026-05-02T13:00:15Z</time></trkpt><trkpt lat="40.59666493149245" lon="8.230457384069876"><ele>26.0</ele><time>2026-05-02T13:00:16Z</time></trkpt><trkpt lat="40.59663104274325" lon="8.230656746547261"><ele>27.666666666666664</ele><time>2026-05-02T13:00:17Z</time></trkpt><trkpt lat="40.596589088764055" lon="8.230866515303019"><ele>29.333333333333336</ele><time>2026-05-02T13:00:17.999Z</time></trkpt><trkpt lat="40.5965500935832" lon="8.231086797434063"><ele>31.0</ele><time>2026-05-02T13:00:18.999Z</time></trkpt><trkpt lat="40.59651722228754" lon="8.231312401692668"><ele>31.333333333333336</ele><time>2026-05-02T13:00:20Z</time></trkpt><trkpt lat="40.59648450889314" lon="8.231550348189957"><ele>31.666666666666664</ele><time>2026-05-02T13:00:21Z</time></trkpt><trkpt lat="40.596444343228136" lon="8.231772033785466"><ele>32.0</ele><time>2026-05-02T13:00:22Z</time></trkpt><trkpt lat="40.59639062312677" lon="8.231994706612404"><ele>32.0</ele><time>2026-05-02T13:00:23Z</time></trkpt><trkpt lat="40.59632695728221" lon="8.232195802084302"><ele>32.0</ele><time>2026-05-02T13:00:24Z</time></trkpt><trkpt lat="40.59631297841068" lon="8.232479685377234"><ele>32.0</ele><time>2026-05-02T13:00:25Z</time></trkpt><trkpt lat="40.596271301591585" lon="8.232709706685489"><ele>32.666666666666664</ele><time>2026-05-02T13:00:26Z</time></trkpt><trkpt lat="40.59622861231001" lon="8.232943652267869"><ele>33.333333333333336</ele><time>2026-05-02T13:00:27Z</time></trkpt><trkpt lat="40.59617995715401" lon="8.2331778253622"><ele>34.0</ele><time>2026-05-02T13:00:28Z</time></trkpt><trkpt lat="40.596134137583846" lon="8.23341857570473"><ele>34.66666666666667</ele><time>2026-05-02T13:00:29Z</time></trkpt><trkpt lat="40.59609820533085" lon="8.233655979458641"><ele>35.333333333333336</ele><time>2026-05-02T13:00:30Z</time></trkpt><trkpt lat="40.59605918352171" lon="8.233887435998918"><ele>36.0</ele><time>2026-05-02T13:00:31Z</time></trkpt><trkpt lat="40.59601085710483" lon="8.234120705019421"><ele>37.333333333333336</ele><time>2026-05-02T13:00:32Z</time></trkpt><trkpt lat="40.59596317311921" lon="8.234350250348365"><ele>38.66666666666667</ele><time>2026-05-02T13:00:33Z</time></trkpt><trkpt lat="40.59592244995321" lon="8.234589368667441"><ele>40.0</ele><time>2026-05-02T13:00:34Z</time></trkpt><trkpt lat="40.5958820524356" lon="8.23483210852878"><ele>41.0</ele><time>2026-05-02T13:00:35Z</time></trkpt><trkpt lat="40.59583722223316" lon="8.235090288424797"><ele>42.0</ele><time>2026-05-02T13:00:36Z</time></trkpt><trkpt lat="40.59578831407637" lon="8.235346575317193"><ele>43.0</ele><time>2026-05-02T13:00:37Z</time></trkpt><trkpt lat="40.595739149293095" lon="8.235606569575916"><ele>44.333333333333336</ele><time>2026-05-02T13:00:38Z</time></trkpt><trkpt lat="40.59569246772324" lon="8.235873982891324"><ele>45.666666666666664</ele><time>2026-05-02T13:00:39Z</time></trkpt><trkpt lat="40.595642928479286" lon="8.23615055558877"><ele>47.0</ele><time>2026-05-02T13:00:40Z</time></trkpt><trkpt lat="40.59558997534367" lon="8.236428598116898"><ele>48.33333333333333</ele><time>2026-05-02T13:00:41Z</time></trkpt><trkpt lat="40.59553869703804" lon="8.236707620698304"><ele>49.666666666666664</ele><time>2026-05-02T13:00:42Z</time></trkpt><trkpt lat="40.59548958911685" lon="8.236994302311778"><ele>51.0</ele><time>2026-05-02T13:00:43Z</time></trkpt><trkpt lat="40.59543733194091" lon="8.237288256408009"><ele>52.0</ele><time>2026-05-02T13:00:44Z</time></trkpt><trkpt lat="40.595383311446106" lon="8.23758224394869"><ele>53.0</ele><time>2026-05-02T13:00:45Z</time></trkpt><trkpt lat="40.59532702462973" lon="8.237883066666653"><ele>54.0</ele><time>2026-05-02T13:00:46Z</time></trkpt><trkpt lat="40.595270607783" lon="8.238186400148036"><ele>55.0</ele><time>2026-05-02T13:00:47Z</time></trkpt><trkpt lat="40.595215488754945" lon="8.238495566759372"><ele>55.0</ele><time>2026-05-02T13:00:48Z</time></trkpt><trkpt lat="40.59515670399472" lon="8.238809753843652"><ele>55.0</ele><time>2026-05-02T13:00:49Z</time></trkpt><trkpt lat="40.59510141261938" lon="8.239122456514163"><ele>56.0</ele><time>2026-05-02T13:00:50Z</time></trkpt><trkpt lat="40.59504481628894" lon="8.239434724110932"><ele>57.0</ele><time>2026-05-02T13:00:51Z</time></trkpt><trkpt lat="40.594980588854156" lon="8.23974906193688"><ele>58.0</ele><time>2026-05-02T13:00:52Z</time></trkpt><trkpt lat="40.59493663344592" lon="8.240040586331618"><ele>59.0</ele><time>2026-05-02T13:00:53Z</time></trkpt><trkpt lat="40.594875073518175" lon="8.240353265192962"><ele>59.5</ele><time>2026-05-02T13:00:54Z</time></trkpt><trkpt lat="40.59481190886105" lon="8.240662283004385"><ele>60.0</ele><time>2026-05-02T13:00:55Z</time></trkpt><trkpt lat="40.594749595058936" lon="8.240968390078358"><ele>60.0</ele><time>2026-05-02T13:00:56Z</time></trkpt><trkpt lat="40.59468755997811" lon="8.241271636570282"><ele>60.0</ele><time>2026-05-02T13:00:57Z</time></trkpt><trkpt lat="40.59462832247947" lon="8.241581919643119"><ele>60.0</ele><time>2026-05-02T13:00:58Z</time></trkpt><trkpt lat="40.594571300398876" lon="8.241888599240422"><ele>60.0</ele><time>2026-05-02T13:00:59Z</time></trkpt><trkpt lat="40.594511781360666" lon="8.24219416993743"><ele>57.5</ele><time>2026-05-02T13:01:00Z</time></trkpt><trkpt lat="40.59445095305491" lon="8.242497012006698"><ele>55.0</ele><time>2026-05-02T13:01:01Z</time></trkpt><trkpt lat="40.59439081788766" lon="8.242797501671868"><ele>55.0</ele><time>2026-05-02T13:01:02Z</time></trkpt><trkpt lat="40.59432511432921" lon="8.24309831634071"><ele>55.0</ele><time>2026-05-02T13:01:03Z</time></trkpt><trkpt lat="40.59427084612476" lon="8.243394266861838"><ele>55.5</ele><time>2026-05-02T13:01:04Z</time></trkpt><trkpt lat="40.594208282671524" lon="8.24369341546057"><ele>56.0</ele><time>2026-05-02T13:01:05Z</time></trkpt><trkpt lat="40.59415120450807" lon="8.243987388577663"><ele>57.0</ele><time>2026-05-02T13:01:06Z</time></trkpt><trkpt lat="40.59409280393942" lon="8.244279388769732"><ele>58.0</ele><time>2026-05-02T13:01:07Z</time></trkpt><trkpt lat="40.594041082482605" lon="8.244563222125299"><ele>60.0</ele><time>2026-05-02T13:01:08Z</time></trkpt><trkpt lat="40.5939760416292" lon="8.244855443017704"><ele>62.0</ele><time>2026-05-02T13:01:09Z</time></trkpt><trkpt lat="40.59392136849813" lon="8.245139619401554"><ele>62.0</ele><time>2026-05-02T13:01:10Z</time></trkpt><trkpt lat="40.59386649211336" lon="8.245423176352375"><ele>62.0</ele><time>2026-05-02T13:01:11Z</time></trkpt><trkpt lat="40.59380889982442" lon="8.245703211218844"><ele>62.0</ele><time>2026-05-02T13:01:12Z</time></trkpt><trkpt lat="40.59375371081735" lon="8.245980262159586"><ele>63.66666666666667</ele><time>2026-05-02T13:01:13Z</time></trkpt><trkpt lat="40.59369622646778" lon="8.24625927831228"><ele>65.33333333333333</ele><time>2026-05-02T13:01:14Z</time></trkpt><trkpt lat="40.593638344253684" lon="8.24653788130394"><ele>67.0</ele><time>2026-05-02T13:01:15Z</time></trkpt><trkpt lat="40.59358314476881" lon="8.24681711665553"><ele>63.33333333333333</ele><time>2026-05-02T13:01:16Z</time></trkpt><trkpt lat="40.593529250771724" lon="8.247102258213012"><ele>59.66666666666667</ele><time>2026-05-02T13:01:17Z</time></trkpt><trkpt lat="40.593479842353844" lon="8.247388764141919"><ele>56.0</ele><time>2026-05-02T13:01:18Z</time></trkpt><trkpt lat="40.59342564653086" lon="8.24767007895666"><ele>56.0</ele><time>2026-05-02T13:01:19Z</time></trkpt><trkpt lat="40.593367392013825" lon="8.247951890220756"><ele>56.0</ele><time>2026-05-02T13:01:20Z</time></trkpt><trkpt lat="40.59330739877147" lon="8.248230054241084"><ele>56.0</ele><time>2026-05-02T13:01:21Z</time></trkpt><trkpt lat="40.59325528811813" lon="8.24851157268647"><ele>55.66666666666667</ele><time>2026-05-02T13:01:22Z</time></trkpt><trkpt lat="40.59319826711531" lon="8.248791750280967"><ele>55.33333333333333</ele><time>2026-05-02T13:01:23Z</time></trkpt><trkpt lat="40.59314458805328" lon="8.249073381434865"><ele>55.0</ele><time>2026-05-02T13:01:24Z</time></trkpt><trkpt lat="40.59309069292552" lon="8.249355293845445"><ele>55.0</ele><time>2026-05-02T13:01:25Z</time></trkpt><trkpt lat="40.59303542119889" lon="8.249636607303955"><ele>55.0</ele><time>2026-05-02T13:01:26Z</time></trkpt><trkpt lat="40.59297528118382" lon="8.249917065473396"><ele>55.0</ele><time>2026-05-02T13:01:27Z</time></trkpt><trkpt lat="40.59292458373899" lon="8.250199603696585"><ele>55.33333333333333</ele><time>2026-05-02T13:01:28Z</time></trkpt><trkpt lat="40.59286745417161" lon="8.25047993152262"><ele>55.66666666666667</ele><time>2026-05-02T13:01:29Z</time></trkpt><trkpt lat="40.592813406050325" lon="8.250758193846888"><ele>56.0</ele><time>2026-05-02T13:01:30Z</time></trkpt><trkpt lat="40.59275731347933" lon="8.25103578440869"><ele>54.66666666666667</ele><time>2026-05-02T13:01:31Z</time></trkpt><trkpt lat="40.59270172813181" lon="8.25131275571775"><ele>53.33333333333333</ele><time>2026-05-02T13:01:32Z</time></trkpt><trkpt lat="40.592647108062245" lon="8.25158991855017"><ele>52.0</ele><time>2026-05-02T13:01:33Z</time></trkpt><trkpt lat="40.592592553254335" lon="8.25186519837033"><ele>52.0</ele><time>2026-05-02T13:01:34Z</time></trkpt><trkpt lat="40.592537556046494" lon="8.252142240729514"><ele>52.0</ele><time>2026-05-02T13:01:35Z</time></trkpt><trkpt lat="40.59248314792218" lon="8.252418247527988"><ele>52.0</ele><time>2026-05-02T13:01:36Z</time></trkpt><trkpt lat="40.59242382302388" lon="8.252694198098323"><ele>52.0</ele><time>2026-05-02T13:01:37Z</time></trkpt><trkpt lat="40.59238056549053" lon="8.252989611835112"><ele>52.0</ele><time>2026-05-02T13:01:38Z</time></trkpt><trkpt lat="40.59231500234734" lon="8.253260987565508"><ele>52.0</ele><time>2026-05-02T13:01:39Z</time></trkpt><trkpt lat="40.59225860896866" lon="8.253548174261335"><ele>52.0</ele><time>2026-05-02T13:01:40Z</time></trkpt><trkpt lat="40.592200282144475" lon="8.253836512856743"><ele>52.0</ele><time>2026-05-02T13:01:41Z</time></trkpt><trkpt lat="40.5921441219618" lon="8.254117376338266"><ele>52.0</ele><time>2026-05-02T13:01:42Z</time></trkpt><trkpt lat="40.592085234760894" lon="8.254404432188146"><ele>51.666666666666664</ele><time>2026-05-02T13:01:43Z</time></trkpt><trkpt lat="40.592027573046394" lon="8.254687204221616"><ele>51.33333333333333</ele><time>2026-05-02T13:01:44Z</time></trkpt><trkpt lat="40.591966376382594" lon="8.254970881206903"><ele>51.0</ele><time>2026-05-02T13:01:45Z</time></trkpt><trkpt lat="40.5919167132358" lon="8.255235821420246"><ele>47.0</ele><time>2026-05-02T13:01:46Z</time></trkpt><trkpt lat="40.59186344238454" lon="8.255497685984762"><ele>43.0</ele><time>2026-05-02T13:01:47Z</time></trkpt><trkpt lat="40.59180813680719" lon="8.25575513619403"><ele>39.0</ele><time>2026-05-02T13:01:48Z</time></trkpt><trkpt lat="40.59175672372384" lon="8.256019255962897"><ele>38.333333333333336</ele><time>2026-05-02T13:01:49Z</time></trkpt><trkpt lat="40.59170956503319" lon="8.256281436709175"><ele>37.66666666666667</ele><time>2026-05-02T13:01:50Z</time></trkpt><trkpt lat="40.59165767281003" lon="8.256545707354721"><ele>37.0</ele><time>2026-05-02T13:01:51Z</time></trkpt><trkpt lat="40.59160525552324" lon="8.256805617204027"><ele>37.0</ele><time>2026-05-02T13:01:52Z</time></trkpt><trkpt lat="40.59155046782613" lon="8.257059788921307"><ele>37.0</ele><time>2026-05-02T13:01:53Z</time></trkpt><trkpt lat="40.59149768862535" lon="8.257317975566167"><ele>37.0</ele><time>2026-05-02T13:01:54Z</time></trkpt><trkpt lat="40.59145071248251" lon="8.257574635612242"><ele>37.0</ele><time>2026-05-02T13:01:55Z</time></trkpt><trkpt lat="40.59141079815929" lon="8.257832249990244"><ele>37.0</ele><time>2026-05-02T13:01:56Z</time></trkpt><trkpt lat="40.59139128831359" lon="8.258094955479944"><ele>37.0</ele><time>2026-05-02T13:01:57Z</time></trkpt><trkpt lat="40.59139771338678" lon="8.258371438844527"><ele>37.333333333333336</ele><time>2026-05-02T13:01:58Z</time></trkpt><trkpt lat="40.591432056918045" lon="8.25864487543801"><ele>37.666666666666664</ele><time>2026-05-02T13:01:59Z</time></trkpt><trkpt lat="40.59148472716357" lon="8.258918015050206"><ele>38.0</ele><time>2026-05-02T13:02:00Z</time></trkpt><trkpt lat="40.591537315924846" lon="8.259189854704934"><ele>36.33333333333333</ele><time>2026-05-02T13:02:01Z</time></trkpt><trkpt lat="40.5915860822221" lon="8.259462761737074"><ele>34.666666666666664</ele><time>2026-05-02T13:02:02Z</time></trkpt><trkpt lat="40.591633422726325" lon="8.259735448393412"><ele>33.0</ele><time>2026-05-02T13:02:03Z</time></trkpt><trkpt lat="40.591680911818145" lon="8.260005150637976"><ele>31.0</ele><time>2026-05-02T13:02:04Z</time></trkpt><trkpt lat="40.59172798627914" lon="8.260273671044981"><ele>29.0</ele><time>2026-05-02T13:02:05Z</time></trkpt><trkpt lat="40.59177571915583" lon="8.260547142870184"><ele>27.0</ele><time>2026-05-02T13:02:06Z</time></trkpt><trkpt lat="40.59182478635411" lon="8.260824821257149"><ele>25.666666666666668</ele><time>2026-05-02T13:02:07Z</time></trkpt><trkpt lat="40.59187199204906" lon="8.261104005520505"><ele>24.333333333333336</ele><time>2026-05-02T13:02:08Z</time></trkpt><trkpt lat="40.59192095329344" lon="8.261378575395021"><ele>23.0</ele><time>2026-05-02T13:02:09Z</time></trkpt><trkpt lat="40.591967089989105" lon="8.261656261576102"><ele>24.0</ele><time>2026-05-02T13:02:10Z</time></trkpt><trkpt lat="40.592021394281765" lon="8.261934472511799"><ele>25.0</ele><time>2026-05-02T13:02:11Z</time></trkpt><trkpt lat="40.59207347275893" lon="8.26223602441656"><ele>24.5</ele><time>2026-05-02T13:02:12Z</time></trkpt><trkpt lat="40.592129996164836" lon="8.262574528845056"><ele>24.0</ele><time>2026-05-02T13:02:13Z</time></trkpt><trkpt lat="40.592192850439446" lon="8.262908408556537"><ele>22.5</ele><time>2026-05-02T13:02:14Z</time></trkpt><trkpt lat="40.59224824258515" lon="8.26321727465246"><ele>21.0</ele><time>2026-05-02T13:02:15Z</time></trkpt><trkpt lat="40.59230819641549" lon="8.263540628274457"><ele>21.0</ele><time>2026-05-02T13:02:16Z</time></trkpt><trkpt lat="40.5923736070649" lon="8.26389680092953"><ele>21.0</ele><time>2026-05-02T13:02:17Z</time></trkpt><trkpt lat="40.59243228824001" lon="8.264232428838922"><ele>20.5</ele><time>2026-05-02T13:02:18Z</time></trkpt><trkpt lat="40.59247586739258" lon="8.26454114717194"><ele>20.0</ele><time>2026-05-02T13:02:19Z</time></trkpt><trkpt lat="40.592518484013" lon="8.264831000207113"><ele>19.666666666666668</ele><time>2026-05-02T13:02:20Z</time></trkpt><trkpt lat="40.592556466518985" lon="8.265091643808715"><ele>19.333333333333332</ele><time>2026-05-02T13:02:20.999Z</time></trkpt><trkpt lat="40.592612190949396" lon="8.265359899836213"><ele>19.0</ele><time>2026-05-02T13:02:21.999Z</time></trkpt><trkpt lat="40.59267629328879" lon="8.265614123967044"><ele>20.0</ele><time>2026-05-02T13:02:22.999Z</time></trkpt><trkpt lat="40.59275655433798" lon="8.265880459302425"><ele>21.0</ele><time>2026-05-02T13:02:23.999Z</time></trkpt><trkpt lat="40.59285410485518" lon="8.266160203592351"><ele>20.333333333333332</ele><time>2026-05-02T13:02:24.999Z</time></trkpt><trkpt lat="40.592778007411994" lon="8.266437381340566"><ele>19.666666666666664</ele><time>2026-05-02T13:02:26Z</time></trkpt><trkpt lat="40.59282827756878" lon="8.266719703673452"><ele>19.0</ele><time>2026-05-02T13:02:27Z</time></trkpt><trkpt lat="40.59287768266588" lon="8.26700264942772"><ele>19.0</ele><time>2026-05-02T13:02:28Z</time></trkpt><trkpt lat="40.59293175610652" lon="8.267292679213847"><ele>19.0</ele><time>2026-05-02T13:02:29Z</time></trkpt><trkpt lat="40.592984217209676" lon="8.267590000336208"><ele>19.0</ele><time>2026-05-02T13:02:30Z</time></trkpt><trkpt lat="40.59303431275163" lon="8.267883983118818"><ele>19.0</ele><time>2026-05-02T13:02:31Z</time></trkpt><trkpt lat="40.59308692530615" lon="8.26817768897762"><ele>18.0</ele><time>2026-05-02T13:02:32Z</time></trkpt><trkpt lat="40.59313478068153" lon="8.268473052145291"><ele>17.0</ele><time>2026-05-02T13:02:33Z</time></trkpt><trkpt lat="40.59318471369269" lon="8.268766157643173"><ele>16.5</ele><time>2026-05-02T13:02:34Z</time></trkpt><trkpt lat="40.59323296015275" lon="8.269061607962481"><ele>16.0</ele><time>2026-05-02T13:02:35Z</time></trkpt><trkpt lat="40.59328011285043" lon="8.269353326199171"><ele>16.0</ele><time>2026-05-02T13:02:36Z</time></trkpt><trkpt lat="40.59333089829746" lon="8.269642423424104"><ele>16.0</ele><time>2026-05-02T13:02:37Z</time></trkpt><trkpt lat="40.59338219845554" lon="8.269936720258858"><ele>17.0</ele><time>2026-05-02T13:02:38Z</time></trkpt><trkpt lat="40.59343347796061" lon="8.27023150140092"><ele>18.0</ele><time>2026-05-02T13:02:39Z</time></trkpt><trkpt lat="40.593484526917045" lon="8.270522759801842"><ele>17.0</ele><time>2026-05-02T13:02:40Z</time></trkpt><trkpt lat="40.5935354410176" lon="8.270820055332472"><ele>16.0</ele><time>2026-05-02T13:02:41Z</time></trkpt><trkpt lat="40.593589348055964" lon="8.271121199548368"><ele>16.0</ele><time>2026-05-02T13:02:42Z</time></trkpt><trkpt lat="40.59364196094967" lon="8.271423417633967"><ele>16.0</ele><time>2026-05-02T13:02:43Z</time></trkpt><trkpt lat="40.59369423013769" lon="8.271724018532662"><ele>16.5</ele><time>2026-05-02T13:02:44Z</time></trkpt><trkpt lat="40.593748008315465" lon="8.27202830320185"><ele>17.0</ele><time>2026-05-02T13:02:45Z</time></trkpt><trkpt lat="40.593801214589575" lon="8.272337316852147"><ele>15.0</ele><time>2026-05-02T13:02:46Z</time></trkpt><trkpt lat="40.59385278393088" lon="8.272645268200323"><ele>13.0</ele><time>2026-05-02T13:02:47Z</time></trkpt><trkpt lat="40.59390459592529" lon="8.272959964389711"><ele>13.5</ele><time>2026-05-02T13:02:48Z</time></trkpt><trkpt lat="40.59395893451269" lon="8.273275676511444"><ele>14.0</ele><time>2026-05-02T13:02:49Z</time></trkpt><trkpt lat="40.594011447452175" lon="8.273587560531457"><ele>14.0</ele><time>2026-05-02T13:02:50Z</time></trkpt><trkpt lat="40.594067132526256" lon="8.273901580069758"><ele>14.0</ele><time>2026-05-02T13:02:51Z</time></trkpt><trkpt lat="40.59412442619078" lon="8.27421674985523"><ele>14.0</ele><time>2026-05-02T13:02:52Z</time></trkpt><trkpt lat="40.59417830712556" lon="8.27453227318025"><ele>14.0</ele><time>2026-05-02T13:02:53Z</time></trkpt><trkpt lat="40.59423268790352" lon="8.274849872202617"><ele>14.0</ele><time>2026-05-02T13:02:54Z</time></trkpt><trkpt lat="40.59428344859644" lon="8.275170823290662"><ele>14.0</ele><time>2026-05-02T13:02:55Z</time></trkpt><trkpt lat="40.594335759052576" lon="8.275489095525076"><ele>12.5</ele><time>2026-05-02T13:02:56Z</time></trkpt><trkpt lat="40.594387728449256" lon="8.27579554222815"><ele>11.0</ele><time>2026-05-02T13:02:57Z</time></trkpt><trkpt lat="40.59443494490906" lon="8.276087853030353"><ele>11.0</ele><time>2026-05-02T13:02:58Z</time></trkpt><trkpt lat="40.594480598147754" lon="8.27636647516831"><ele>11.0</ele><time>2026-05-02T13:02:59Z</time></trkpt><trkpt lat="40.59452523492508" lon="8.276626648315425"><ele>11.0</ele><time>2026-05-02T13:03:00Z</time></trkpt><trkpt lat="40.594568301419166" lon="8.276882718102266"><ele>11.333333333333332</ele><time>2026-05-02T13:03:01Z</time></trkpt><trkpt lat="40.59461360309565" lon="8.277142172728638"><ele>11.666666666666666</ele><time>2026-05-02T13:03:02Z</time></trkpt><trkpt lat="40.59465584742477" lon="8.277397065974753"><ele>12.0</ele><time>2026-05-02T13:03:03Z</time></trkpt><trkpt lat="40.5946995242792" lon="8.27765151923578"><ele>12.0</ele><time>2026-05-02T13:03:04Z</time></trkpt><trkpt lat="40.594740062010644" lon="8.277904829120644"><ele>12.0</ele><time>2026-05-02T13:03:05Z</time></trkpt><trkpt lat="40.59478343242924" lon="8.278159030673498"><ele>12.0</ele><time>2026-05-02T13:03:06Z</time></trkpt><trkpt lat="40.59482334077859" lon="8.278402599349134"><ele>12.0</ele><time>2026-05-02T13:03:07Z</time></trkpt><trkpt lat="40.594862994002895" lon="8.278627923080299"><ele>12.0</ele><time>2026-05-02T13:03:08Z</time></trkpt><trkpt lat="40.594903722568475" lon="8.278860120853189"><ele>12.0</ele><time>2026-05-02T13:03:09Z</time></trkpt><trkpt lat="40.594950305626824" lon="8.27910578364"><ele>12.0</ele><time>2026-05-02T13:03:10Z</time></trkpt><trkpt lat="40.59499161610142" lon="8.279356503718567"><ele>12.0</ele><time>2026-05-02T13:03:11Z</time></trkpt><trkpt lat="40.595033073601655" lon="8.279602625448199"><ele>12.0</ele><time>2026-05-02T13:03:12Z</time></trkpt><trkpt lat="40.595078533565314" lon="8.279853814678946"><ele>11.666666666666666</ele><time>2026-05-02T13:03:13Z</time></trkpt><trkpt lat="40.59511011809509" lon="8.280124457460504"><ele>11.333333333333332</ele><time>2026-05-02T13:03:14Z</time></trkpt><trkpt lat="40.59515535182591" lon="8.280396777008914"><ele>11.0</ele><time>2026-05-02T13:03:15Z</time></trkpt><trkpt lat="40.59520212422875" lon="8.280678359856813"><ele>11.0</ele><time>2026-05-02T13:03:16Z</time></trkpt><trkpt lat="40.595262486756596" lon="8.280947418013415"><ele>11.0</ele><time>2026-05-02T13:03:17Z</time></trkpt><trkpt lat="40.59529653681462" lon="8.281212705506283"><ele>11.0</ele><time>2026-05-02T13:03:18Z</time></trkpt><trkpt lat="40.595335663742404" lon="8.281448558784454"><ele>10.5</ele><time>2026-05-02T13:03:19Z</time></trkpt><trkpt lat="40.59537179188333" lon="8.281650442012516"><ele>10.0</ele><time>2026-05-02T13:03:20Z</time></trkpt><trkpt lat="40.595401507704516" lon="8.281838247964167"><ele>9.5</ele><time>2026-05-02T13:03:21Z</time></trkpt><trkpt lat="40.59543099095581" lon="8.28201730072142"><ele>9.0</ele><time>2026-05-02T13:03:22Z</time></trkpt><trkpt lat="40.595460029998506" lon="8.282176041821204"><ele>9.4</ele><time>2026-05-02T13:03:23Z</time></trkpt><trkpt lat="40.59548184693841" lon="8.282314148913057"><ele>9.8</ele><time>2026-05-02T13:03:24Z</time></trkpt><trkpt lat="40.59549742154872" lon="8.282427522694764"><ele>10.200000000000001</ele><time>2026-05-02T13:03:25Z</time></trkpt><trkpt lat="40.59551029240836" lon="8.282515805043294"><ele>10.600000000000001</ele><time>2026-05-02T13:03:26Z</time></trkpt><trkpt lat="40.59552637048071" lon="8.282658893250106"><ele>11.0</ele><time>2026-05-02T13:03:28Z</time></trkpt><trkpt lat="40.595543090677694" lon="8.282811654581486"><ele>11.0</ele><time>2026-05-02T13:03:30Z</time></trkpt><trkpt lat="40.595560063834924" lon="8.28291283308069"><ele>11.0</ele><time>2026-05-02T13:03:31Z</time></trkpt><trkpt lat="40.595582384209315" lon="8.283025637703613"><ele>11.0</ele><time>2026-05-02T13:03:32Z</time></trkpt><trkpt lat="40.595599393708504" lon="8.28314877486022"><ele>11.0</ele><time>2026-05-02T13:03:33Z</time></trkpt><trkpt lat="40.59560496001414" lon="8.283283539046113"><ele>11.0</ele><time>2026-05-02T13:03:34Z</time></trkpt><trkpt lat="40.59559122479916" lon="8.28343032188949"><ele>11.0</ele><time>2026-05-02T13:03:35Z</time></trkpt><trkpt lat="40.595566265574355" lon="8.283586870596887"><ele>11.0</ele><time>2026-05-02T13:03:36Z</time></trkpt><trkpt lat="40.59554091269362" lon="8.283753184703562"><ele>11.0</ele><time>2026-05-02T13:03:37Z</time></trkpt><trkpt lat="40.59551862006357" lon="8.283929923156101"><ele>11.0</ele><time>2026-05-02T13:03:38Z</time></trkpt><trkpt lat="40.59549836940673" lon="8.284112801952114"><ele>10.25</ele><time>2026-05-02T13:03:39Z</time></trkpt><trkpt lat="40.59547849966313" lon="8.284294195034946"><ele>9.5</ele><time>2026-05-02T13:03:40Z</time></trkpt><trkpt lat="40.59545656986529" lon="8.284475106002091"><ele>8.75</ele><time>2026-05-02T13:03:41Z</time></trkpt><trkpt lat="40.595434495916706" lon="8.284655577110888"><ele>8.0</ele><time>2026-05-02T13:03:42Z</time></trkpt><trkpt lat="40.59541210575022" lon="8.284836631088941"><ele>7.75</ele><time>2026-05-02T13:03:43Z</time></trkpt><trkpt lat="40.595394836622184" lon="8.285013494426503"><ele>7.5</ele><time>2026-05-02T13:03:44Z</time></trkpt><trkpt lat="40.59537118735816" lon="8.285185179545508"><ele>7.25</ele><time>2026-05-02T13:03:45Z</time></trkpt><trkpt lat="40.59535152761437" lon="8.285352808402349"><ele>7.0</ele><time>2026-05-02T13:03:46Z</time></trkpt><trkpt lat="40.595331583728004" lon="8.285519789408509"><ele>7.75</ele><time>2026-05-02T13:03:47Z</time></trkpt><trkpt lat="40.595314603275874" lon="8.285684743633055"><ele>8.5</ele><time>2026-05-02T13:03:48Z</time></trkpt><trkpt lat="40.595294145330755" lon="8.28584584293446"><ele>9.25</ele><time>2026-05-02T13:03:49Z</time></trkpt><trkpt lat="40.59527546032958" lon="8.286008390049833"><ele>10.0</ele><time>2026-05-02T13:03:50Z</time></trkpt><trkpt lat="40.595256363869716" lon="8.286173971199133"><ele>10.0</ele><time>2026-05-02T13:03:51Z</time></trkpt><trkpt lat="40.59523198261741" lon="8.286342235375434"><ele>10.0</ele><time>2026-05-02T13:03:52Z</time></trkpt><trkpt lat="40.595213496270375" lon="8.286509544191752"><ele>10.0</ele><time>2026-05-02T13:03:53Z</time></trkpt><trkpt lat="40.59519559618417" lon="8.286683273506213"><ele>10.0</ele><time>2026-05-02T13:03:54Z</time></trkpt><trkpt lat="40.59517209392965" lon="8.286855487229111"><ele>8.75</ele><time>2026-05-02T13:03:55Z</time></trkpt><trkpt lat="40.59515092500876" lon="8.287035791187234"><ele>7.5</ele><time>2026-05-02T13:03:56Z</time></trkpt><trkpt lat="40.59512901442382" lon="8.287207641359423"><ele>6.25</ele><time>2026-05-02T13:03:57Z</time></trkpt><trkpt lat="40.595110348378185" lon="8.287366209850479"><ele>5.0</ele><time>2026-05-02T13:03:58Z</time></trkpt><trkpt lat="40.59509069310922" lon="8.287527164910086"><ele>4.5</ele><time>2026-05-02T13:03:59Z</time></trkpt><trkpt lat="40.59507196525724" lon="8.287703342703997"><ele>4.0</ele><time>2026-05-02T13:04:00Z</time></trkpt><trkpt lat="40.595051164023076" lon="8.28789410657774"><ele>3.5</ele><time>2026-05-02T13:04:01Z</time></trkpt><trkpt lat="40.59502719566132" lon="8.288091680854247"><ele>3.0</ele><time>2026-05-02T13:04:02Z</time></trkpt><trkpt lat="40.595000998099444" lon="8.288293291855124"><ele>3.0</ele><time>2026-05-02T13:04:03Z</time></trkpt><trkpt lat="40.594974187012106" lon="8.288493865261641"><ele>3.0</ele><time>2026-05-02T13:04:04Z</time></trkpt><trkpt lat="40.59494958693705" lon="8.288695067668277"><ele>3.0</ele><time>2026-05-02T13:04:05Z</time></trkpt><trkpt lat="40.594923903991486" lon="8.28889654351652"><ele>3.5</ele><time>2026-05-02T13:04:06Z</time></trkpt><trkpt lat="40.59490194068202" lon="8.289089209344358"><ele>4.0</ele><time>2026-05-02T13:04:07Z</time></trkpt><trkpt lat="40.5948788630876" lon="8.289266288879366"><ele>4.5</ele><time>2026-05-02T13:04:08Z</time></trkpt><trkpt lat="40.59486043366689" lon="8.289435224831047"><ele>5.0</ele><time>2026-05-02T13:04:09Z</time></trkpt><trkpt lat="40.59483806249572" lon="8.289603027705297"><ele>5.6</ele><time>2026-05-02T13:04:10Z</time></trkpt><trkpt lat="40.594818691022006" lon="8.289760269091554"><ele>6.2</ele><time>2026-05-02T13:04:11Z</time></trkpt><trkpt lat="40.59480076774261" lon="8.289905910636854"><ele>6.800000000000001</ele><time>2026-05-02T13:04:12Z</time></trkpt><trkpt lat="40.59478291529782" lon="8.290043876978961"><ele>7.4</ele><time>2026-05-02T13:04:13Z</time></trkpt><trkpt lat="40.594766881489015" lon="8.290170737066529"><ele>8.0</ele><time>2026-05-02T13:04:14Z</time></trkpt><trkpt lat="40.594751121967576" lon="8.290290492555583"><ele>8.0</ele><time>2026-05-02T13:04:15Z</time></trkpt><trkpt lat="40.594735667703326" lon="8.290405860493765"><ele>8.0</ele><time>2026-05-02T13:04:16Z</time></trkpt><trkpt lat="40.594723947892604" lon="8.290525265205074"><ele>8.0</ele><time>2026-05-02T13:04:17Z</time></trkpt><trkpt lat="40.594708921273394" lon="8.29065138740854"><ele>8.0</ele><time>2026-05-02T13:04:18Z</time></trkpt><trkpt lat="40.59469558338808" lon="8.290786037012836"><ele>8.0</ele><time>2026-05-02T13:04:19Z</time></trkpt><trkpt lat="40.59467374126027" lon="8.290935738658806"><ele>8.0</ele><time>2026-05-02T13:04:20Z</time></trkpt><trkpt lat="40.59464790535056" lon="8.291096364206476"><ele>8.0</ele><time>2026-05-02T13:04:21Z</time></trkpt><trkpt lat="40.59461216090875" lon="8.291257986648313"><ele>8.0</ele><time>2026-05-02T13:04:22Z</time></trkpt><trkpt lat="40.594572766318855" lon="8.291418669854703"><ele>8.0</ele><time>2026-05-02T13:04:23Z</time></trkpt><trkpt lat="40.594532461602086" lon="8.291570803989055"><ele>7.4</ele><time>2026-05-02T13:04:24Z</time></trkpt><trkpt lat="40.59449704017525" lon="8.291710482251796"><ele>6.800000000000001</ele><time>2026-05-02T13:04:25Z</time></trkpt><trkpt lat="40.594461678110044" lon="8.291843417223147"><ele>6.2</ele><time>2026-05-02T13:04:26Z</time></trkpt><trkpt lat="40.59443001006338" lon="8.291968003363316"><ele>5.6</ele><time>2026-05-02T13:04:27Z</time></trkpt><trkpt lat="40.5943986437656" lon="8.292082697854092"><ele>5.0</ele><time>2026-05-02T13:04:28Z</time></trkpt><trkpt lat="40.59437238546053" lon="8.292187537168276"><ele>4.666666666666667</ele><time>2026-05-02T13:04:29Z</time></trkpt><trkpt lat="40.59434534668037" lon="8.292290815803014"><ele>4.333333333333334</ele><time>2026-05-02T13:04:30Z</time></trkpt><trkpt lat="40.59432126257005" lon="8.292393063774945"><ele>4.0</ele><time>2026-05-02T13:04:31Z</time></trkpt><trkpt lat="40.594297871372746" lon="8.292497890300078"><ele>3.666666666666667</ele><time>2026-05-02T13:04:32Z</time></trkpt><trkpt lat="40.594273317425085" lon="8.292609812147454"><ele>3.3333333333333335</ele><time>2026-05-02T13:04:33Z</time></trkpt><trkpt lat="40.59424669131842" lon="8.292726373051126"><ele>3.0</ele><time>2026-05-02T13:04:34Z</time></trkpt><trkpt lat="40.59421861683208" lon="8.292846138927185"><ele>3.0</ele><time>2026-05-02T13:04:35Z</time></trkpt><trkpt lat="40.594190791445456" lon="8.292970575624846"><ele>3.0</ele><time>2026-05-02T13:04:36Z</time></trkpt><trkpt lat="40.59416284477247" lon="8.29309971426723"><ele>3.0</ele><time>2026-05-02T13:04:37Z</time></trkpt><trkpt lat="40.59413849968849" lon="8.293231676107922"><ele>3.0</ele><time>2026-05-02T13:04:38Z</time></trkpt><trkpt lat="40.59410826592151" lon="8.293361418697756"><ele>3.0</ele><time>2026-05-02T13:04:39Z</time></trkpt><trkpt lat="40.59406709708795" lon="8.293486093117437"><ele>2.8</ele><time>2026-05-02T13:04:40Z</time></trkpt><trkpt lat="40.59401202799825" lon="8.293608009985808"><ele>2.5999999999999996</ele><time>2026-05-02T13:04:41Z</time></trkpt><trkpt lat="40.59396302720649" lon="8.293733961952585"><ele>2.4000000000000004</ele><time>2026-05-02T13:04:42Z</time></trkpt><trkpt lat="40.593918855778114" lon="8.293853395096033"><ele>2.2</ele><time>2026-05-02T13:04:43Z</time></trkpt><trkpt lat="40.59397793639873" lon="8.294008617679955"><ele>2.0</ele><time>2026-05-02T13:04:44Z</time></trkpt><trkpt lat="40.59405928524941" lon="8.294129777178073"><ele>2.0</ele><time>2026-05-02T13:04:45Z</time></trkpt><trkpt lat="40.594165498013545" lon="8.294217899189789"><ele>2.0</ele><time>2026-05-02T13:04:46Z</time></trkpt><trkpt lat="40.59428515512454" lon="8.294289378554172"><ele>2.0</ele><time>2026-05-02T13:04:47Z</time></trkpt><trkpt lat="40.59440306370494" lon="8.294365130932125"><ele>2.0</ele><time>2026-05-02T13:04:48Z</time></trkpt><trkpt lat="40.594484834627195" lon="8.294470445634532"><ele>2.25</ele><time>2026-05-02T13:04:49Z</time></trkpt><trkpt lat="40.594515343509464" lon="8.294661889060984"><ele>2.5</ele><time>2026-05-02T13:04:50Z</time></trkpt><trkpt lat="40.5945739008629" lon="8.294839892004426"><ele>2.75</ele><time>2026-05-02T13:04:51Z</time></trkpt><trkpt lat="40.59464026068924" lon="8.295015918963445"><ele>3.0</ele><time>2026-05-02T13:04:52Z</time></trkpt><trkpt lat="40.594708328409205" lon="8.29520071236296"><ele>3.666666666666667</ele><time>2026-05-02T13:04:53Z</time></trkpt><trkpt lat="40.59477324786775" lon="8.295401413968124"><ele>4.333333333333334</ele><time>2026-05-02T13:04:54Z</time></trkpt><trkpt lat="40.59484581915312" lon="8.295604615160382"><ele>5.0</ele><time>2026-05-02T13:04:55Z</time></trkpt><trkpt lat="40.59491588272836" lon="8.295809974026847"><ele>5.333333333333334</ele><time>2026-05-02T13:04:56Z</time></trkpt><trkpt lat="40.59498943077771" lon="8.296014962073773"><ele>5.666666666666667</ele><time>2026-05-02T13:04:57Z</time></trkpt><trkpt lat="40.5950642167964" lon="8.296228508429014"><ele>6.0</ele><time>2026-05-02T13:04:58Z</time></trkpt><trkpt lat="40.59513871312082" lon="8.296430980404136"><ele>6.0</ele><time>2026-05-02T13:04:59Z</time></trkpt><trkpt lat="40.5952110921584" lon="8.296636760616341"><ele>6.0</ele><time>2026-05-02T13:05:00Z</time></trkpt><trkpt lat="40.595280102719094" lon="8.296835194668992"><ele>6.0</ele><time>2026-05-02T13:05:01Z</time></trkpt><trkpt lat="40.59533316926585" lon="8.297041177684974"><ele>5.666666666666667</ele><time>2026-05-02T13:05:02Z</time></trkpt><trkpt lat="40.59535541240065" lon="8.297255106560879"><ele>5.333333333333334</ele><time>2026-05-02T13:05:03Z</time></trkpt><trkpt lat="40.595350340566974" lon="8.297471424609427"><ele>5.0</ele><time>2026-05-02T13:05:04Z</time></trkpt><trkpt lat="40.59533505117939" lon="8.297677838237968"><ele>5.666666666666667</ele><time>2026-05-02T13:05:05Z</time></trkpt><trkpt lat="40.59528541906657" lon="8.297884285844018"><ele>6.333333333333334</ele><time>2026-05-02T13:05:06Z</time></trkpt><trkpt lat="40.595237398043224" lon="8.298100155656655"><ele>7.0</ele><time>2026-05-02T13:05:07Z</time></trkpt><trkpt lat="40.59515465872792" lon="8.298305377200112"><ele>7.0</ele><time>2026-05-02T13:05:08Z</time></trkpt><trkpt lat="40.59506087359353" lon="8.298507172044411"><ele>7.0</ele><time>2026-05-02T13:05:09Z</time></trkpt><trkpt lat="40.594953104870456" lon="8.29870372008358"><ele>7.0</ele><time>2026-05-02T13:05:10Z</time></trkpt><trkpt lat="40.594832816782684" lon="8.298896226925399"><ele>6.333333333333334</ele><time>2026-05-02T13:05:11Z</time></trkpt><trkpt lat="40.5947087583746" lon="8.299086489390982"><ele>5.666666666666667</ele><time>2026-05-02T13:05:12Z</time></trkpt><trkpt lat="40.59458877403315" lon="8.299283199733061"><ele>5.0</ele><time>2026-05-02T13:05:13Z</time></trkpt><trkpt lat="40.59446971182979" lon="8.29947661473082"><ele>5.0</ele><time>2026-05-02T13:05:14Z</time></trkpt><trkpt lat="40.59435061264144" lon="8.299664628751446"><ele>5.0</ele><time>2026-05-02T13:05:15Z</time></trkpt><trkpt lat="40.594231965327516" lon="8.29985356380034"><ele>5.0</ele><time>2026-05-02T13:05:16Z</time></trkpt><trkpt lat="40.5941097357215" lon="8.300045066892494"><ele>5.666666666666667</ele><time>2026-05-02T13:05:17Z</time></trkpt><trkpt lat="40.5939856581456" lon="8.30023999112386"><ele>6.333333333333334</ele><time>2026-05-02T13:05:18Z</time></trkpt><trkpt lat="40.59386030074778" lon="8.300440327488888"><ele>7.0</ele><time>2026-05-02T13:05:19Z</time></trkpt><trkpt lat="40.59373975721403" lon="8.300646686598938"><ele>6.666666666666667</ele><time>2026-05-02T13:05:20Z</time></trkpt><trkpt lat="40.59363124908137" lon="8.300868902913198"><ele>6.333333333333334</ele><time>2026-05-02T13:05:21Z</time></trkpt><trkpt lat="40.593536954387766" lon="8.301105933549996"><ele>6.0</ele><time>2026-05-02T13:05:22Z</time></trkpt><trkpt lat="40.593455579217384" lon="8.301353106257352"><ele>6.333333333333334</ele><time>2026-05-02T13:05:23Z</time></trkpt><trkpt lat="40.5933797306664" lon="8.301602683831733"><ele>6.666666666666667</ele><time>2026-05-02T13:05:24Z</time></trkpt><trkpt lat="40.593307053565375" lon="8.301853151878133"><ele>7.0</ele><time>2026-05-02T13:05:25Z</time></trkpt><trkpt lat="40.59323708083281" lon="8.302098013213316"><ele>7.666666666666667</ele><time>2026-05-02T13:05:26Z</time></trkpt><trkpt lat="40.593164556013384" lon="8.3023392456859"><ele>8.333333333333334</ele><time>2026-05-02T13:05:27Z</time></trkpt><trkpt lat="40.5930935561" lon="8.302576854974129"><ele>9.0</ele><time>2026-05-02T13:05:28Z</time></trkpt><trkpt lat="40.59301753428216" lon="8.302820280130383"><ele>9.0</ele><time>2026-05-02T13:05:29Z</time></trkpt><trkpt lat="40.59294218869997" lon="8.303064319106525"><ele>9.0</ele><time>2026-05-02T13:05:30Z</time></trkpt><trkpt lat="40.592865566325784" lon="8.303306612882874"><ele>9.0</ele><time>2026-05-02T13:05:31Z</time></trkpt><trkpt lat="40.59278802818631" lon="8.30354593061565"><ele>8.333333333333334</ele><time>2026-05-02T13:05:32Z</time></trkpt><trkpt lat="40.59270908615467" lon="8.303789324342373"><ele>7.666666666666667</ele><time>2026-05-02T13:05:33Z</time></trkpt><trkpt lat="40.59262527045253" lon="8.304041352876231"><ele>7.0</ele><time>2026-05-02T13:05:34Z</time></trkpt><trkpt lat="40.59252175033377" lon="8.304291874944644"><ele>7.0</ele><time>2026-05-02T13:05:35Z</time></trkpt><trkpt lat="40.59238930448556" lon="8.304517979488692"><ele>7.0</ele><time>2026-05-02T13:05:36Z</time></trkpt><trkpt lat="40.5922753190753" lon="8.304767600671857"><ele>7.0</ele><time>2026-05-02T13:05:37Z</time></trkpt><trkpt lat="40.59214932566445" lon="8.305007927895604"><ele>6.0</ele><time>2026-05-02T13:05:38Z</time></trkpt><trkpt lat="40.59202164402157" lon="8.30525133326287"><ele>5.0</ele><time>2026-05-02T13:05:39Z</time></trkpt><trkpt lat="40.591891927999974" lon="8.305498165397156"><ele>4.5</ele><time>2026-05-02T13:05:40Z</time></trkpt><trkpt lat="40.591757131539424" lon="8.30575477476991"><ele>4.0</ele><time>2026-05-02T13:05:41Z</time></trkpt><trkpt lat="40.59161831763231" lon="8.3060214911345"><ele>4.0</ele><time>2026-05-02T13:05:42Z</time></trkpt><trkpt lat="40.591478797143246" lon="8.30629114684669"><ele>4.0</ele><time>2026-05-02T13:05:43Z</time></trkpt><trkpt lat="40.59133869714958" lon="8.306560137111653"><ele>3.0</ele><time>2026-05-02T13:05:44Z</time></trkpt><trkpt lat="40.591195738247215" lon="8.306828123921841"><ele>2.0</ele><time>2026-05-02T13:05:45Z</time></trkpt><trkpt lat="40.59105777756446" lon="8.307088868604339"><ele>3.0</ele><time>2026-05-02T13:05:46Z</time></trkpt><trkpt lat="40.5909240935655" lon="8.30734686914174"><ele>4.0</ele><time>2026-05-02T13:05:47Z</time></trkpt><trkpt lat="40.590796855192075" lon="8.307603337678593"><ele>4.0</ele><time>2026-05-02T13:05:48Z</time></trkpt><trkpt lat="40.59066243020295" lon="8.307845211285946"><ele>4.0</ele><time>2026-05-02T13:05:49Z</time></trkpt><trkpt lat="40.5905327431017" lon="8.30807965774852"><ele>4.0</ele><time>2026-05-02T13:05:50Z</time></trkpt><trkpt lat="40.59038009386578" lon="8.308282703933743"><ele>4.333333333333333</ele><time>2026-05-02T13:05:51Z</time></trkpt><trkpt lat="40.5902317390813" lon="8.308496540125834"><ele>4.666666666666667</ele><time>2026-05-02T13:05:52Z</time></trkpt><trkpt lat="40.59009305442665" lon="8.308721989466331"><ele>5.0</ele><time>2026-05-02T13:05:53Z</time></trkpt><trkpt lat="40.58994369181799" lon="8.308934384020404"><ele>5.666666666666667</ele><time>2026-05-02T13:05:54Z</time></trkpt><trkpt lat="40.589796887483594" lon="8.309146106881736"><ele>6.333333333333334</ele><time>2026-05-02T13:05:55Z</time></trkpt><trkpt lat="40.58964962347851" lon="8.309358477879407"><ele>7.0</ele><time>2026-05-02T13:05:56Z</time></trkpt><trkpt lat="40.58950193463882" lon="8.309570820785739"><ele>7.333333333333334</ele><time>2026-05-02T13:05:57Z</time></trkpt><trkpt lat="40.58935367668466" lon="8.309781478329532"><ele>7.666666666666666</ele><time>2026-05-02T13:05:58Z</time></trkpt><trkpt lat="40.5892062823949" lon="8.309991095098695"><ele>8.0</ele><time>2026-05-02T13:05:59Z</time></trkpt><trkpt lat="40.58906271067965" lon="8.310200653861726"><ele>8.0</ele><time>2026-05-02T13:06:00Z</time></trkpt><trkpt lat="40.588917672723596" lon="8.31040803630889"><ele>8.0</ele><time>2026-05-02T13:06:01Z</time></trkpt><trkpt lat="40.5887765636177" lon="8.310612794883513"><ele>8.0</ele><time>2026-05-02T13:06:02Z</time></trkpt><trkpt lat="40.58863115739851" lon="8.310820128744158"><ele>6.666666666666666</ele><time>2026-05-02T13:06:03Z</time></trkpt><trkpt lat="40.588488612788694" lon="8.31102274184104"><ele>5.333333333333333</ele><time>2026-05-02T13:06:04Z</time></trkpt><trkpt lat="40.5883543956351" lon="8.311217038862932"><ele>4.0</ele><time>2026-05-02T13:06:05Z</time></trkpt><trkpt lat="40.58823003051657" lon="8.311391866716"><ele>4.25</ele><time>2026-05-02T13:06:06Z</time></trkpt><trkpt lat="40.588116023408816" lon="8.311549707545028"><ele>4.5</ele><time>2026-05-02T13:06:07Z</time></trkpt><trkpt lat="40.58801469741119" lon="8.311690279755108"><ele>4.75</ele><time>2026-05-02T13:06:08Z</time></trkpt><trkpt lat="40.587922247326865" lon="8.311814467180819"><ele>5.0</ele><time>2026-05-02T13:06:09Z</time></trkpt><trkpt lat="40.587832126607026" lon="8.311931283408175"><ele>6.0</ele><time>2026-05-02T13:06:10Z</time></trkpt><trkpt lat="40.58775696198095" lon="8.31203096991547"><ele>7.0</ele><time>2026-05-02T13:06:11Z</time></trkpt><trkpt lat="40.58769912867361" lon="8.312109888227225"><ele>8.0</ele><time>2026-05-02T13:06:12Z</time></trkpt><trkpt lat="40.587621999501074" lon="8.31216947004372"><ele>9.0</ele><time>2026-05-02T13:06:14Z</time></trkpt><trkpt lat="40.58753026015509" lon="8.312054910799215"><ele>10.0</ele><time>2026-05-02T13:06:17Z</time></trkpt><trkpt lat="40.58745209854287" lon="8.311961864152657"><ele>10.0</ele><time>2026-05-02T13:06:19Z</time></trkpt><trkpt lat="40.587369946770025" lon="8.31186396541266"><ele>10.0</ele><time>2026-05-02T13:06:21Z</time></trkpt><trkpt lat="40.587321119845846" lon="8.311805778571275"><ele>10.0</ele><time>2026-05-02T13:06:22Z</time></trkpt><trkpt lat="40.58726815354663" lon="8.311741940560008"><ele>10.0</ele><time>2026-05-02T13:06:23Z</time></trkpt><trkpt lat="40.587211526461246" lon="8.311673120571628"><ele>10.0</ele><time>2026-05-02T13:06:24Z</time></trkpt><trkpt lat="40.587151897309774" lon="8.311600652240063"><ele>10.0</ele><time>2026-05-02T13:06:25Z</time></trkpt><trkpt lat="40.58708442832213" lon="8.311543693233483"><ele>10.0</ele><time>2026-05-02T13:06:26Z</time></trkpt><trkpt lat="40.587031580451765" lon="8.311479650405163"><ele>10.0</ele><time>2026-05-02T13:06:27Z</time></trkpt><trkpt lat="40.58694487419938" lon="8.311378343325094"><ele>10.0</ele><time>2026-05-02T13:06:29Z</time></trkpt><trkpt lat="40.58687173751685" lon="8.31128136074316"><ele>10.0</ele><time>2026-05-02T13:06:31Z</time></trkpt><trkpt lat="40.58680758716087" lon="8.311167853212616"><ele>10.0</ele><time>2026-05-02T13:06:33Z</time></trkpt><trkpt lat="40.58674178922137" lon="8.311102148049697"><ele>9.666666666666668</ele><time>2026-05-02T13:06:35Z</time></trkpt><trkpt lat="40.58663928022992" lon="8.311147387181348"><ele>9.333333333333334</ele><time>2026-05-02T13:06:36Z</time></trkpt><trkpt lat="40.58659463663119" lon="8.31120912842892"><ele>9.0</ele><time>2026-05-02T13:06:36.999Z</time></trkpt><trkpt lat="40.586539725650525" lon="8.311285069122622"><ele>8.666666666666666</ele><time>2026-05-02T13:06:38Z</time></trkpt><trkpt lat="40.58648022799234" lon="8.311365309598111"><ele>8.333333333333332</ele><time>2026-05-02T13:06:39Z</time></trkpt><trkpt lat="40.58641647782904" lon="8.311450590540455"><ele>8.0</ele><time>2026-05-02T13:06:40Z</time></trkpt><trkpt lat="40.58635984962212" lon="8.31155538456588"><ele>8.0</ele><time>2026-05-02T13:06:41Z</time></trkpt><trkpt lat="40.58629359004432" lon="8.31165663794895"><ele>8.0</ele><time>2026-05-02T13:06:42Z</time></trkpt><trkpt lat="40.58620747882335" lon="8.311742931306283"><ele>8.0</ele><time>2026-05-02T13:06:43Z</time></trkpt><trkpt lat="40.58612934911901" lon="8.311848426216628"><ele>8.0</ele><time>2026-05-02T13:06:44Z</time></trkpt><trkpt lat="40.58606891452508" lon="8.311960223452218"><ele>8.0</ele><time>2026-05-02T13:06:45Z</time></trkpt><trkpt lat="40.58599696697473" lon="8.31205477881631"><ele>7.800000000000001</ele><time>2026-05-02T13:06:46Z</time></trkpt><trkpt lat="40.58592712272289" lon="8.312143268811854"><ele>7.6000000000000005</ele><time>2026-05-02T13:06:47Z</time></trkpt><trkpt lat="40.585864826311905" lon="8.31223408776236"><ele>7.3999999999999995</ele><time>2026-05-02T13:06:48Z</time></trkpt><trkpt lat="40.585789113865964" lon="8.31230567154169"><ele>7.199999999999999</ele><time>2026-05-02T13:06:49Z</time></trkpt><trkpt lat="40.58572088673454" lon="8.312399299851025"><ele>7.0</ele><time>2026-05-02T13:06:50Z</time></trkpt><trkpt lat="40.58565253507637" lon="8.312494052671981"><ele>7.0</ele><time>2026-05-02T13:06:51Z</time></trkpt><trkpt lat="40.585586019865524" lon="8.31258924678472"><ele>6.999999999999999</ele><time>2026-05-02T13:06:52Z</time></trkpt><trkpt lat="40.58552006166216" lon="8.312683645499847"><ele>6.999999999999999</ele><time>2026-05-02T13:06:53Z</time></trkpt><trkpt lat="40.58546485939494" lon="8.312793775864021"><ele>7.0</ele><time>2026-05-02T13:06:54Z</time></trkpt><trkpt lat="40.585407112481334" lon="8.312878859795891"><ele>7.0</ele><time>2026-05-02T13:06:55Z</time></trkpt><trkpt lat="40.585355454458785" lon="8.312951498497343"><ele>7.3999999999999995</ele><time>2026-05-02T13:06:56Z</time></trkpt><trkpt lat="40.58526241256222" lon="8.312995973965377"><ele>7.799999999999999</ele><time>2026-05-02T13:06:58Z</time></trkpt><trkpt lat="40.58520410011556" lon="8.312883902445828"><ele>8.2</ele><time>2026-05-02T13:07:00Z</time></trkpt><trkpt lat="40.58509413503431" lon="8.312773709515415"><ele>8.6</ele><time>2026-05-02T13:07:02Z</time></trkpt><trkpt lat="40.58503981415086" lon="8.312694036602533"><ele>9.0</ele><time>2026-05-02T13:07:03Z</time></trkpt><trkpt lat="40.584969218904114" lon="8.312631624849443"><ele>9.0</ele><time>2026-05-02T13:07:04Z</time></trkpt><trkpt lat="40.58490072519371" lon="8.312537053572898"><ele>9.0</ele><time>2026-05-02T13:07:05Z</time></trkpt><trkpt lat="40.58482533687528" lon="8.312470968561486"><ele>9.0</ele><time>2026-05-02T13:07:06Z</time></trkpt><trkpt lat="40.584767096316924" lon="8.312394094292282"><ele>9.0</ele><time>2026-05-02T13:07:07Z</time></trkpt><trkpt lat="40.584716970831956" lon="8.312300051682117"><ele>9.0</ele><time>2026-05-02T13:07:08Z</time></trkpt><trkpt lat="40.58465598653842" lon="8.312251104933194"><ele>9.0</ele><time>2026-05-02T13:07:09Z</time></trkpt><trkpt lat="40.584612437413476" lon="8.312190552144578"><ele>8.833333333333334</ele><time>2026-05-02T13:07:10Z</time></trkpt><trkpt lat="40.58455050568129" lon="8.31209279832974"><ele>8.666666666666666</ele><time>2026-05-02T13:07:12Z</time></trkpt><trkpt lat="40.5844932525208" lon="8.312009191019161"><ele>8.5</ele><time>2026-05-02T13:07:15Z</time></trkpt><trkpt lat="40.58439797119531" lon="8.311932298927601"><ele>8.333333333333332</ele><time>2026-05-02T13:07:18Z</time></trkpt><trkpt lat="40.58434320712074" lon="8.311886609011943"><ele>8.166666666666666</ele><time>2026-05-02T13:07:19Z</time></trkpt><trkpt lat="40.58429023240345" lon="8.3118177708406"><ele>8.0</ele><time>2026-05-02T13:07:20Z</time></trkpt><trkpt lat="40.58424152426758" lon="8.31174762887059"><ele>7.666666666666666</ele><time>2026-05-02T13:07:21Z</time></trkpt><trkpt lat="40.58418305155392" lon="8.311670115345523"><ele>7.333333333333333</ele><time>2026-05-02T13:07:22Z</time></trkpt><trkpt lat="40.58413346210273" lon="8.311609822766625"><ele>7.0</ele><time>2026-05-02T13:07:23Z</time></trkpt><trkpt lat="40.5840519801032" lon="8.31151450309549"><ele>6.666666666666666</ele><time>2026-05-02T13:07:25Z</time></trkpt><trkpt lat="40.583963238166405" lon="8.311412888122007"><ele>6.333333333333333</ele><time>2026-05-02T13:07:27Z</time></trkpt><trkpt lat="40.58391352953135" lon="8.311350810178961"><ele>6.0</ele><time>2026-05-02T13:07:28Z</time></trkpt><trkpt lat="40.58386289445925" lon="8.311291530980832"><ele>6.0</ele><time>2026-05-02T13:07:29Z</time></trkpt><trkpt lat="40.58378774049348" lon="8.311162488134803"><ele>6.0</ele><time>2026-05-02T13:07:31Z</time></trkpt><trkpt lat="40.58371441908018" lon="8.311089397252877"><ele>6.0</ele><time>2026-05-02T13:07:33Z</time></trkpt><trkpt lat="40.58366683904819" lon="8.310948442860985"><ele>6.0</ele><time>2026-05-02T13:07:36Z</time></trkpt><trkpt lat="40.58360392910251" lon="8.310921508921277"><ele>6.0</ele><time>2026-05-02T13:07:43Z</time></trkpt><trkpt lat="40.58345744040475" lon="8.310914536614709"><ele>7.25</ele><time>2026-05-02T13:07:45Z</time></trkpt><trkpt lat="40.583362937575664" lon="8.31095294873429"><ele>8.5</ele><time>2026-05-02T13:07:46Z</time></trkpt><trkpt lat="40.58324310492649" lon="8.31101901407031"><ele>9.75</ele><time>2026-05-02T13:07:47Z</time></trkpt><trkpt lat="40.5831031734536" lon="8.311087911600715"><ele>11.0</ele><time>2026-05-02T13:07:48Z</time></trkpt><trkpt lat="40.582949159200034" lon="8.311154718045175"><ele>11.75</ele><time>2026-05-02T13:07:49Z</time></trkpt><trkpt lat="40.58279386429836" lon="8.311219203979245"><ele>12.5</ele><time>2026-05-02T13:07:50Z</time></trkpt><trkpt lat="40.58265795391315" lon="8.311277430985486"><ele>13.25</ele><time>2026-05-02T13:07:51Z</time></trkpt><trkpt lat="40.58252928279196" lon="8.31133682698164"><ele>14.0</ele><time>2026-05-02T13:07:52Z</time></trkpt><trkpt lat="40.582401357736735" lon="8.311394888340125"><ele>12.0</ele><time>2026-05-02T13:07:53Z</time></trkpt><trkpt lat="40.58227606596798" lon="8.311449068239682"><ele>10.0</ele><time>2026-05-02T13:07:54Z</time></trkpt><trkpt lat="40.58215375928979" lon="8.311497011119103"><ele>8.0</ele><time>2026-05-02T13:07:55Z</time></trkpt><trkpt lat="40.58204040465868" lon="8.311540010846176"><ele>6.0</ele><time>2026-05-02T13:07:56Z</time></trkpt><trkpt lat="40.58193268887226" lon="8.311577087476586"><ele>6.0</ele><time>2026-05-02T13:07:57Z</time></trkpt><trkpt lat="40.581829938712346" lon="8.31161167705283"><ele>6.0</ele><time>2026-05-02T13:07:58Z</time></trkpt><trkpt lat="40.58173257631491" lon="8.311644485189904"><ele>6.0</ele><time>2026-05-02T13:07:59Z</time></trkpt><trkpt lat="40.58163644261035" lon="8.31167561461481"><ele>6.0</ele><time>2026-05-02T13:08:00Z</time></trkpt><trkpt lat="40.58154153768311" lon="8.311704856074481"><ele>6.0</ele><time>2026-05-02T13:08:01Z</time></trkpt><trkpt lat="40.581447626007275" lon="8.311737984553877"><ele>6.0</ele><time>2026-05-02T13:08:02Z</time></trkpt><trkpt lat="40.58135185057818" lon="8.311772379064509"><ele>6.0</ele><time>2026-05-02T13:08:03Z</time></trkpt><trkpt lat="40.58126380672059" lon="8.311802122015678"><ele>6.0</ele><time>2026-05-02T13:08:04Z</time></trkpt><trkpt lat="40.58118220477173" lon="8.31182957293932"><ele>6.0</ele><time>2026-05-02T13:08:05Z</time></trkpt><trkpt lat="40.58109844132348" lon="8.311857993101617"><ele>6.0</ele><time>2026-05-02T13:08:06Z</time></trkpt><trkpt lat="40.58101205481668" lon="8.311881260678307"><ele>6.0</ele><time>2026-05-02T13:08:07Z</time></trkpt><trkpt lat="40.58092467497865" lon="8.311909081983288"><ele>5.8</ele><time>2026-05-02T13:08:08Z</time></trkpt><trkpt lat="40.58083876185395" lon="8.311947181876146"><ele>5.6</ele><time>2026-05-02T13:08:09Z</time></trkpt><trkpt lat="40.58074561168045" lon="8.311990433871905"><ele>5.4</ele><time>2026-05-02T13:08:10Z</time></trkpt><trkpt lat="40.58063449785688" lon="8.312015043191808"><ele>5.2</ele><time>2026-05-02T13:08:11Z</time></trkpt><trkpt lat="40.58053017689284" lon="8.312055029963133"><ele>5.0</ele><time>2026-05-02T13:08:12Z</time></trkpt><trkpt lat="40.58042105266454" lon="8.312089113890242"><ele>5.0</ele><time>2026-05-02T13:08:13Z</time></trkpt><trkpt lat="40.58030965114059" lon="8.312124207345141"><ele>5.0</ele><time>2026-05-02T13:08:14Z</time></trkpt><trkpt lat="40.58019785696635" lon="8.312164452880902"><ele>5.0</ele><time>2026-05-02T13:08:15Z</time></trkpt><trkpt lat="40.58008422339939" lon="8.31220638678432"><ele>5.0</ele><time>2026-05-02T13:08:16Z</time></trkpt><trkpt lat="40.57997387860873" lon="8.312247822958224"><ele>4.833333333333334</ele><time>2026-05-02T13:08:17Z</time></trkpt><trkpt lat="40.57987235313828" lon="8.312283155112405"><ele>4.666666666666667</ele><time>2026-05-02T13:08:18Z</time></trkpt><trkpt lat="40.579784499627536" lon="8.312317790590997"><ele>4.5</ele><time>2026-05-02T13:08:19Z</time></trkpt><trkpt lat="40.57970408330606" lon="8.312358405993933"><ele>4.333333333333333</ele><time>2026-05-02T13:08:20Z</time></trkpt><trkpt lat="40.57963408863392" lon="8.312403629886223"><ele>4.166666666666666</ele><time>2026-05-02T13:08:21Z</time></trkpt><trkpt lat="40.57956503503597" lon="8.312451472447826"><ele>4.0</ele><time>2026-05-02T13:08:22Z</time></trkpt><trkpt lat="40.579505358199704" lon="8.312497154928941"><ele>4.5</ele><time>2026-05-02T13:08:23Z</time></trkpt><trkpt lat="40.579407284883494" lon="8.312577791946094"><ele>5.0</ele><time>2026-05-02T13:08:25Z</time></trkpt><trkpt lat="40.57931961597191" lon="8.312646047509439"><ele>5.5</ele><time>2026-05-02T13:08:27Z</time></trkpt><trkpt lat="40.57921616412246" lon="8.312712353876233"><ele>6.0</ele><time>2026-05-02T13:08:29Z</time></trkpt><trkpt lat="40.579108775981965" lon="8.31278207487683"><ele>6.0</ele><time>2026-05-02T13:08:31Z</time></trkpt><trkpt lat="40.579028070982666" lon="8.312840707792812"><ele>6.0</ele><time>2026-05-02T13:08:33Z</time></trkpt><trkpt lat="40.57895090877588" lon="8.312902963124332"><ele>6.0</ele><time>2026-05-02T13:08:35Z</time></trkpt><trkpt lat="40.5788640448116" lon="8.312960759500148"><ele>6.0</ele><time>2026-05-02T13:08:37Z</time></trkpt><trkpt lat="40.57877979032979" lon="8.313014531216568"><ele>6.0</ele><time>2026-05-02T13:08:39Z</time></trkpt><trkpt lat="40.57872346279666" lon="8.313053209607592"><ele>6.0</ele><time>2026-05-02T13:08:42Z</time></trkpt><trkpt lat="40.57863763510173" lon="8.313111957764452"><ele>6.0</ele><time>2026-05-02T13:08:51Z</time></trkpt><trkpt lat="40.57856782001915" lon="8.313162761403452"><ele>6.0</ele><time>2026-05-02T13:08:53Z</time></trkpt><trkpt lat="40.57850057490471" lon="8.313209351589844"><ele>6.0</ele><time>2026-05-02T13:08:55Z</time></trkpt><trkpt lat="40.57842932733616" lon="8.313257062712243"><ele>6.0</ele><time>2026-05-02T13:08:58Z</time></trkpt><trkpt lat="40.57837606643347" lon="8.313302809967055"><ele>6.0</ele><time>2026-05-02T13:09:07Z</time></trkpt><trkpt lat="40.57829175706719" lon="8.313365716948343"><ele>6.0</ele><time>2026-05-02T13:09:10Z</time></trkpt><trkpt lat="40.578216551932165" lon="8.31342060871001"><ele>6.0</ele><time>2026-05-02T13:09:13Z</time></trkpt><trkpt lat="40.578147437873376" lon="8.313469381362603"><ele>6.0</ele><time>2026-05-02T13:09:18Z</time></trkpt><trkpt lat="40.57808662454483" lon="8.31350023462487"><ele>6.0</ele><time>2026-05-02T13:09:20Z</time></trkpt><trkpt lat="40.57799898188182" lon="8.313536015800581"><ele>6.0</ele><time>2026-05-02T13:09:22Z</time></trkpt><trkpt lat="40.577899429628104" lon="8.313573291026831"><ele>6.0</ele><time>2026-05-02T13:09:24Z</time></trkpt><trkpt lat="40.577814280755256" lon="8.313606286121518"><ele>6.0</ele><time>2026-05-02T13:09:26Z</time></trkpt><trkpt lat="40.57773011924456" lon="8.31364738890041"><ele>5.6</ele><time>2026-05-02T13:09:28Z</time></trkpt><trkpt lat="40.577635639206825" lon="8.31369391526594"><ele>5.199999999999999</ele><time>2026-05-02T13:09:30Z</time></trkpt><trkpt lat="40.57754425059585" lon="8.313728707860482"><ele>4.800000000000001</ele><time>2026-05-02T13:09:32Z</time></trkpt><trkpt lat="40.57744449903825" lon="8.313753849623586"><ele>4.4</ele><time>2026-05-02T13:09:34Z</time></trkpt><trkpt lat="40.577354041463714" lon="8.313807060767363"><ele>4.0</ele><time>2026-05-02T13:09:36Z</time></trkpt><trkpt lat="40.57729326962927" lon="8.313848178072437"><ele>3.9999999999999996</ele><time>2026-05-02T13:09:38Z</time></trkpt><trkpt lat="40.57722430592892" lon="8.313887206455425"><ele>4.0</ele><time>2026-05-02T13:09:40Z</time></trkpt><trkpt lat="40.57715388927374" lon="8.313924640478971"><ele>4.0</ele><time>2026-05-02T13:09:42Z</time></trkpt><trkpt lat="40.577094752809145" lon="8.313981255914143"><ele>4.0</ele><time>2026-05-02T13:09:44Z</time></trkpt><trkpt lat="40.57703964161834" lon="8.31403692759616"><ele>3.9999999999999996</ele><time>2026-05-02T13:09:46Z</time></trkpt><trkpt lat="40.57695171300578" lon="8.314106882612519"><ele>4.0</ele><time>2026-05-02T13:09:48Z</time></trkpt><trkpt lat="40.576890231106006" lon="8.314152221912414"><ele>3.4999999999999996</ele><time>2026-05-02T13:09:50Z</time></trkpt><trkpt lat="40.57682980232847" lon="8.314207483116908"><ele>3.0</ele><time>2026-05-02T13:09:52Z</time></trkpt><trkpt lat="40.57676000182154" lon="8.314276426694624"><ele>2.5</ele><time>2026-05-02T13:09:54Z</time></trkpt><trkpt lat="40.57667602863457" lon="8.314343564755672"><ele>2.0</ele><time>2026-05-02T13:09:56Z</time></trkpt><trkpt lat="40.57661511402258" lon="8.314400096689944"><ele>1.5</ele><time>2026-05-02T13:09:58Z</time></trkpt><trkpt lat="40.57654083265401" lon="8.31446007474891"><ele>1.0</ele><time>2026-05-02T13:10:00Z</time></trkpt><trkpt lat="40.57645677586625" lon="8.314538799932969"><ele>1.0</ele><time>2026-05-02T13:10:02Z</time></trkpt><trkpt lat="40.57636234498855" lon="8.314630351359117"><ele>1.0</ele><time>2026-05-02T13:10:04Z</time></trkpt><trkpt lat="40.57630881914478" lon="8.314684009108763"><ele>1.0</ele><time>2026-05-02T13:10:05Z</time></trkpt><trkpt lat="40.5762525682238" lon="8.31474459636636"><ele>1.0</ele><time>2026-05-02T13:10:06Z</time></trkpt><trkpt lat="40.57615974599741" lon="8.314833490565224"><ele>1.0</ele><time>2026-05-02T13:10:08Z</time></trkpt><trkpt lat="40.57607406691848" lon="8.314903758541115"><ele>1.4</ele><time>2026-05-02T13:10:10Z</time></trkpt><trkpt lat="40.57600219238934" lon="8.314967049064547"><ele>1.8</ele><time>2026-05-02T13:10:11Z</time></trkpt><trkpt lat="40.57592091929904" lon="8.315040817388365"><ele>2.1999999999999997</ele><time>2026-05-02T13:10:12Z</time></trkpt><trkpt lat="40.5758271157144" lon="8.315112881384268"><ele>2.6</ele><time>2026-05-02T13:10:13Z</time></trkpt><trkpt lat="40.575734294858584" lon="8.315191791084743"><ele>3.0</ele><time>2026-05-02T13:10:14Z</time></trkpt><trkpt lat="40.57565447865542" lon="8.315261132074442"><ele>2.9999999999999996</ele><time>2026-05-02T13:10:15Z</time></trkpt><trkpt lat="40.575585488387226" lon="8.315321651996333"><ele>3.0</ele><time>2026-05-02T13:10:16Z</time></trkpt><trkpt lat="40.57552600816486" lon="8.315374903523137"><ele>3.0</ele><time>2026-05-02T13:10:17Z</time></trkpt><trkpt lat="40.57546928139141" lon="8.315423339454844"><ele>3.0</ele><time>2026-05-02T13:10:18Z</time></trkpt><trkpt lat="40.57541208807249" lon="8.315470932291168"><ele>3.0</ele><time>2026-05-02T13:10:19Z</time></trkpt><trkpt lat="40.575357321851655" lon="8.315522739450019"><ele>2.9999999999999996</ele><time>2026-05-02T13:10:20Z</time></trkpt><trkpt lat="40.57530121610336" lon="8.31557292899175"><ele>3.0</ele><time>2026-05-02T13:10:21Z</time></trkpt><trkpt lat="40.57524472679424" lon="8.315623507361698"><ele>2.8</ele><time>2026-05-02T13:10:22Z</time></trkpt><trkpt lat="40.57518967931735" lon="8.315675717855093"><ele>2.5999999999999996</ele><time>2026-05-02T13:10:23Z</time></trkpt><trkpt lat="40.57509015081943" lon="8.31576243471869"><ele>2.4000000000000004</ele><time>2026-05-02T13:10:25Z</time></trkpt><trkpt lat="40.57500099880958" lon="8.315844925723443"><ele>2.2</ele><time>2026-05-02T13:10:27Z</time></trkpt><trkpt lat="40.574913001286085" lon="8.315921103758628"><ele>2.0</ele><time>2026-05-02T13:10:29Z</time></trkpt><trkpt lat="40.57482645933442" lon="8.316000877988529"><ele>2.0</ele><time>2026-05-02T13:10:31Z</time></trkpt><trkpt lat="40.574739253144294" lon="8.316080995698183"><ele>2.0</ele><time>2026-05-02T13:10:33Z</time></trkpt><trkpt lat="40.57465252708282" lon="8.316151835482787"><ele>2.0</ele><time>2026-05-02T13:10:35Z</time></trkpt><trkpt lat="40.57458387709957" lon="8.3162117162546"><ele>2.0</ele><time>2026-05-02T13:10:37Z</time></trkpt><trkpt lat="40.57451980335458" lon="8.316277327963888"><ele>2.0</ele><time>2026-05-02T13:10:39Z</time></trkpt><trkpt lat="40.57444370695909" lon="8.31634058976388"><ele>1.8</ele><time>2026-05-02T13:10:41Z</time></trkpt><trkpt lat="40.57436519344711" lon="8.316413273657172"><ele>1.6</ele><time>2026-05-02T13:10:43Z</time></trkpt><trkpt lat="40.5742853253176" lon="8.316486494141852"><ele>1.4000000000000001</ele><time>2026-05-02T13:10:45Z</time></trkpt><trkpt lat="40.574204629982184" lon="8.31656195205466"><ele>1.2000000000000002</ele><time>2026-05-02T13:10:47Z</time></trkpt><trkpt lat="40.57411928527618" lon="8.316626545937174"><ele>1.0</ele><time>2026-05-02T13:10:49Z</time></trkpt><trkpt lat="40.57403530027066" lon="8.316695250429726"><ele>1.0</ele><time>2026-05-02T13:10:51Z</time></trkpt><trkpt lat="40.57395978033724" lon="8.316770924515923"><ele>1.0</ele><time>2026-05-02T13:10:53Z</time></trkpt><trkpt lat="40.57389590925693" lon="8.316836101288416"><ele>1.0</ele><time>2026-05-02T13:10:55Z</time></trkpt><trkpt lat="40.57382653583515" lon="8.316902100198908"><ele>1.0</ele><time>2026-05-02T13:10:57Z</time></trkpt><trkpt lat="40.57374899921006" lon="8.316966259379004"><ele>1.0</ele><time>2026-05-02T13:10:59Z</time></trkpt><trkpt lat="40.573667223493814" lon="8.317035592513948"><ele>0.8</ele><time>2026-05-02T13:11:01Z</time></trkpt><trkpt lat="40.57358422562668" lon="8.317102963818332"><ele>0.6000000000000001</ele><time>2026-05-02T13:11:03Z</time></trkpt><trkpt lat="40.573499707500424" lon="8.317178233826425"><ele>0.4</ele><time>2026-05-02T13:11:05Z</time></trkpt><trkpt lat="40.57341523315913" lon="8.317258876165951"><ele>0.2</ele><time>2026-05-02T13:11:07Z</time></trkpt><trkpt lat="40.57332664295535" lon="8.317339864690428"><ele>0.0</ele><time>2026-05-02T13:11:09Z</time></trkpt><trkpt lat="40.57322427640758" lon="8.317429198747751"><ele>0.0</ele><time>2026-05-02T13:11:11Z</time></trkpt><trkpt lat="40.57316790131071" lon="8.317476831393325"><ele>0.0</ele><time>2026-05-02T13:11:12Z</time></trkpt><trkpt lat="40.5731075784153" lon="8.317518060568355"><ele>0.0</ele><time>2026-05-02T13:11:13Z</time></trkpt><trkpt lat="40.573009504797966" lon="8.31756289432522"><ele>0.0</ele><time>2026-05-02T13:11:15Z</time></trkpt><trkpt lat="40.572927869032966" lon="8.31758774768404"><ele>0.0</ele><time>2026-05-02T13:11:17Z</time></trkpt><trkpt lat="40.57284416673483" lon="8.317611780535577"><ele>0.0</ele><time>2026-05-02T13:11:19Z</time></trkpt><trkpt lat="40.572744812408146" lon="8.317657895828786"><ele>0.0</ele><time>2026-05-02T13:11:21Z</time></trkpt><trkpt lat="40.572664244238986" lon="8.317698550740806"><ele>0.0</ele><time>2026-05-02T13:11:23Z</time></trkpt><trkpt lat="40.57257590387298" lon="8.317735794695807"><ele>0.0</ele><time>2026-05-02T13:11:26Z</time></trkpt><trkpt lat="40.57250076146611" lon="8.317767093489591"><ele>0.0</ele><time>2026-05-02T13:11:28Z</time></trkpt><trkpt lat="40.57240092142581" lon="8.317804808296298"><ele>0.0</ele><time>2026-05-02T13:11:30Z</time></trkpt><trkpt lat="40.57227752999368" lon="8.31785230191653"><ele>0.0</ele><time>2026-05-02T13:11:32Z</time></trkpt><trkpt lat="40.572206505270394" lon="8.317883567103904"><ele>0.0</ele><time>2026-05-02T13:11:33Z</time></trkpt><trkpt lat="40.5721304732643" lon="8.317920893850024"><ele>0.0</ele><time>2026-05-02T13:11:34Z</time></trkpt><trkpt lat="40.572061234875335" lon="8.317953093631296"><ele>0.0</ele><time>2026-05-02T13:11:35Z</time></trkpt><trkpt lat="40.571992567075824" lon="8.317980501653803"><ele>0.0</ele><time>2026-05-02T13:11:36Z</time></trkpt><trkpt lat="40.57187537369189" lon="8.3180185658203"><ele>0.0</ele><time>2026-05-02T13:11:38Z</time></trkpt><trkpt lat="40.571757029395144" lon="8.318058034677415"><ele>0.6666666666666666</ele><time>2026-05-02T13:11:40Z</time></trkpt><trkpt lat="40.571692677443124" lon="8.31808292290164"><ele>1.3333333333333333</ele><time>2026-05-02T13:11:41Z</time></trkpt><trkpt lat="40.57162510961267" lon="8.31811215537512"><ele>2.0</ele><time>2026-05-02T13:11:42Z</time></trkpt><trkpt lat="40.57155643373918" lon="8.318144638661598"><ele>2.6666666666666665</ele><time>2026-05-02T13:11:43Z</time></trkpt><trkpt lat="40.571492709747154" lon="8.31817534636063"><ele>3.333333333333333</ele><time>2026-05-02T13:11:44Z</time></trkpt><trkpt lat="40.57137897097853" lon="8.31822280532467"><ele>4.0</ele><time>2026-05-02T13:11:46Z</time></trkpt><trkpt lat="40.571276306269496" lon="8.318260159757742"><ele>3.9999999999999996</ele><time>2026-05-02T13:11:48Z</time></trkpt><trkpt lat="40.5711978453352" lon="8.318293443693157"><ele>4.0</ele><time>2026-05-02T13:11:50Z</time></trkpt><trkpt lat="40.57113026071376" lon="8.318319443730458"><ele>4.0</ele><time>2026-05-02T13:11:52Z</time></trkpt><trkpt lat="40.57104925711192" lon="8.31835825649571"><ele>4.0</ele><time>2026-05-02T13:11:54Z</time></trkpt><trkpt lat="40.57097845950195" lon="8.318391705833633"><ele>3.9999999999999996</ele><time>2026-05-02T13:11:55Z</time></trkpt><trkpt lat="40.570901722010504" lon="8.318423324120703"><ele>4.0</ele><time>2026-05-02T13:11:56Z</time></trkpt><trkpt lat="40.57084072749854" lon="8.318454673201794"><ele>3.6666666666666665</ele><time>2026-05-02T13:11:57Z</time></trkpt><trkpt lat="40.570719201935084" lon="8.318489752254845"><ele>3.333333333333333</ele><time>2026-05-02T13:11:59Z</time></trkpt><trkpt lat="40.570653118228236" lon="8.318514678226197"><ele>3.0</ele><time>2026-05-02T13:12:00Z</time></trkpt><trkpt lat="40.570585677474284" lon="8.318536291700452"><ele>2.6666666666666665</ele><time>2026-05-02T13:12:01Z</time></trkpt><trkpt lat="40.57050985654605" lon="8.318554706616762"><ele>2.333333333333333</ele><time>2026-05-02T13:12:02Z</time></trkpt><trkpt lat="40.57043049565591" lon="8.318615074773243"><ele>2.0</ele><time>2026-05-02T13:12:03Z</time></trkpt><trkpt lat="40.570347114502304" lon="8.318645391029111"><ele>1.6666666666666665</ele><time>2026-05-02T13:12:04Z</time></trkpt><trkpt lat="40.57025351956351" lon="8.318685247307158"><ele>1.3333333333333333</ele><time>2026-05-02T13:12:05Z</time></trkpt><trkpt lat="40.57015901426323" lon="8.318724898696397"><ele>1.0</ele><time>2026-05-02T13:12:06Z</time></trkpt><trkpt lat="40.57007867744856" lon="8.318760098573051"><ele>0.6666666666666666</ele><time>2026-05-02T13:12:07Z</time></trkpt><trkpt lat="40.57000729619903" lon="8.318785280690498"><ele>0.3333333333333333</ele><time>2026-05-02T13:12:08Z</time></trkpt><trkpt lat="40.569938480102294" lon="8.31880977001066"><ele>0.0</ele><time>2026-05-02T13:12:09Z</time></trkpt><trkpt lat="40.56986427786229" lon="8.318840228568686"><ele>0.0</ele><time>2026-05-02T13:12:10Z</time></trkpt><trkpt lat="40.56977256390401" lon="8.318898622694169"><ele>0.0</ele><time>2026-05-02T13:12:11Z</time></trkpt><trkpt lat="40.56965801962434" lon="8.318950192379157"><ele>0.0</ele><time>2026-05-02T13:12:12Z</time></trkpt><trkpt lat="40.569509296220765" lon="8.319012586288304"><ele>0.0</ele><time>2026-05-02T13:12:13Z</time></trkpt><trkpt lat="40.569402603941164" lon="8.319076113770542"><ele>0.8</ele><time>2026-05-02T13:12:14Z</time></trkpt><trkpt lat="40.56932293206333" lon="8.319114466635348"><ele>1.6</ele><time>2026-05-02T13:12:15Z</time></trkpt><trkpt lat="40.569206947178536" lon="8.319175279756196"><ele>2.4000000000000004</ele><time>2026-05-02T13:12:17Z</time></trkpt><trkpt lat="40.569093700116845" lon="8.319192773168242"><ele>3.2</ele><time>2026-05-02T13:12:19Z</time></trkpt><trkpt lat="40.56902618982426" lon="8.319211575437926"><ele>4.0</ele><time>2026-05-02T13:12:20Z</time></trkpt><trkpt lat="40.56894439605436" lon="8.319231896946034"><ele>4.0</ele><time>2026-05-02T13:12:21Z</time></trkpt><trkpt lat="40.5688570714588" lon="8.319247378377327"><ele>4.0</ele><time>2026-05-02T13:12:22Z</time></trkpt><trkpt lat="40.5687614696106" lon="8.319245938402592"><ele>4.0</ele><time>2026-05-02T13:12:23Z</time></trkpt><trkpt lat="40.56866783868428" lon="8.319234712681489"><ele>4.0</ele><time>2026-05-02T13:12:24Z</time></trkpt><trkpt lat="40.56856413646091" lon="8.319221387231787"><ele>4.0</ele><time>2026-05-02T13:12:25Z</time></trkpt><trkpt lat="40.56845405933762" lon="8.319208398852414"><ele>3.75</ele><time>2026-05-02T13:12:26Z</time></trkpt><trkpt lat="40.568337247337965" lon="8.319196737237228"><ele>3.5</ele><time>2026-05-02T13:12:27Z</time></trkpt><trkpt lat="40.568220862849536" lon="8.319180524974113"><ele>3.25</ele><time>2026-05-02T13:12:28Z</time></trkpt><trkpt lat="40.56810600752195" lon="8.319164491252847"><ele>3.0</ele><time>2026-05-02T13:12:29Z</time></trkpt><trkpt lat="40.56798721424832" lon="8.319142059860546"><ele>3.0</ele><time>2026-05-02T13:12:30Z</time></trkpt><trkpt lat="40.567862585422766" lon="8.31911768194493"><ele>3.0</ele><time>2026-05-02T13:12:31Z</time></trkpt><trkpt lat="40.56773510741866" lon="8.319089149838234"><ele>3.0</ele><time>2026-05-02T13:12:32Z</time></trkpt><trkpt lat="40.56760895013977" lon="8.319058878788155"><ele>3.0</ele><time>2026-05-02T13:12:33Z</time></trkpt><trkpt lat="40.567485200410026" lon="8.31902845314231"><ele>3.0</ele><time>2026-05-02T13:12:34Z</time></trkpt><trkpt lat="40.567363941032156" lon="8.31899522584135"><ele>3.0</ele><time>2026-05-02T13:12:35Z</time></trkpt><trkpt lat="40.56724544692271" lon="8.318959422079322"><ele>3.0</ele><time>2026-05-02T13:12:36Z</time></trkpt><trkpt lat="40.56712926797703" lon="8.318924013802638"><ele>3.0</ele><time>2026-05-02T13:12:37Z</time></trkpt><trkpt lat="40.56701155732687" lon="8.318886572590664"><ele>2.25</ele><time>2026-05-02T13:12:38Z</time></trkpt><trkpt lat="40.566890364885" lon="8.318848122066772"><ele>1.5</ele><time>2026-05-02T13:12:39Z</time></trkpt><trkpt lat="40.56676742622076" lon="8.318806930161992"><ele>0.75</ele><time>2026-05-02T13:12:40Z</time></trkpt><trkpt lat="40.56664358945283" lon="8.318758751915674"><ele>0.0</ele><time>2026-05-02T13:12:41Z</time></trkpt><trkpt lat="40.56652250895528" lon="8.318703002860344"><ele>0.0</ele><time>2026-05-02T13:12:42Z</time></trkpt><trkpt lat="40.566419495072466" lon="8.318653872000834"><ele>0.0</ele><time>2026-05-02T13:12:43Z</time></trkpt><trkpt lat="40.56632160986308" lon="8.318605020204098"><ele>0.0</ele><time>2026-05-02T13:12:44Z</time></trkpt><trkpt lat="40.56622942657556" lon="8.318557155980978"><ele>0.0</ele><time>2026-05-02T13:12:45Z</time></trkpt><trkpt lat="40.566141576979" lon="8.318506025260161"><ele>0.0</ele><time>2026-05-02T13:12:46Z</time></trkpt><trkpt lat="40.56604936360488" lon="8.318450360356588"><ele>0.4</ele><time>2026-05-02T13:12:47Z</time></trkpt><trkpt lat="40.565958526530665" lon="8.318395048956571"><ele>0.8</ele><time>2026-05-02T13:12:48Z</time></trkpt><trkpt lat="40.56586881317187" lon="8.318343242404026"><ele>1.2000000000000002</ele><time>2026-05-02T13:12:49Z</time></trkpt><trkpt lat="40.56577904893744" lon="8.318288992947634"><ele>1.6</ele><time>2026-05-02T13:12:50Z</time></trkpt><trkpt lat="40.56569097108254" lon="8.318235032184074"><ele>2.0</ele><time>2026-05-02T13:12:51Z</time></trkpt><trkpt lat="40.56560547123693" lon="8.318179857001503"><ele>1.9999999999999998</ele><time>2026-05-02T13:12:52Z</time></trkpt><trkpt lat="40.56552598653238" lon="8.318124346205238"><ele>2.0</ele><time>2026-05-02T13:12:53Z</time></trkpt><trkpt lat="40.565458164504335" lon="8.318071818297124"><ele>2.0</ele><time>2026-05-02T13:12:54Z</time></trkpt><trkpt lat="40.56539124179934" lon="8.31802397611771"><ele>2.0</ele><time>2026-05-02T13:12:55Z</time></trkpt><trkpt lat="40.56532188069621" lon="8.317977125038967"><ele>1.9999999999999998</ele><time>2026-05-02T13:12:56Z</time></trkpt><trkpt lat="40.5652509192051" lon="8.317932762727793"><ele>2.0</ele><time>2026-05-02T13:12:57Z</time></trkpt><trkpt lat="40.565180795732005" lon="8.31788876969656"><ele>1.8333333333333333</ele><time>2026-05-02T13:12:58Z</time></trkpt><trkpt lat="40.5651082163082" lon="8.3178423447978"><ele>1.6666666666666665</ele><time>2026-05-02T13:12:59Z</time></trkpt><trkpt lat="40.56503534438474" lon="8.317796216387157"><ele>1.5</ele><time>2026-05-02T13:13:00Z</time></trkpt><trkpt lat="40.5649645927708" lon="8.317744122291638"><ele>1.3333333333333333</ele><time>2026-05-02T13:13:01Z</time></trkpt><trkpt lat="40.564893555509535" lon="8.317687419254936"><ele>1.1666666666666665</ele><time>2026-05-02T13:13:02Z</time></trkpt><trkpt lat="40.56482412135421" lon="8.317624625110158"><ele>1.0</ele><time>2026-05-02T13:13:03Z</time></trkpt><trkpt lat="40.56476023812816" lon="8.317561875219859"><ele>0.9999999999999999</ele><time>2026-05-02T13:13:04Z</time></trkpt><trkpt lat="40.564697075909315" lon="8.317504200150307"><ele>1.0</ele><time>2026-05-02T13:13:05Z</time></trkpt><trkpt lat="40.564632371751266" lon="8.317451742292027"><ele>1.0</ele><time>2026-05-02T13:13:06Z</time></trkpt><trkpt lat="40.564566240638435" lon="8.317408677795862"><ele>1.0</ele><time>2026-05-02T13:13:07Z</time></trkpt><trkpt lat="40.56449710353695" lon="8.317359609211799"><ele>0.9999999999999999</ele><time>2026-05-02T13:13:08Z</time></trkpt><trkpt lat="40.56442861303849" lon="8.31731329117141"><ele>1.0</ele><time>2026-05-02T13:13:09Z</time></trkpt><trkpt lat="40.5643593901501" lon="8.31726558494913"><ele>0.9999999999999999</ele><time>2026-05-02T13:13:10Z</time></trkpt><trkpt lat="40.564289453314196" lon="8.31721789966962"><ele>1.0</ele><time>2026-05-02T13:13:11Z</time></trkpt><trkpt lat="40.56421732773082" lon="8.31717491980816"><ele>1.0</ele><time>2026-05-02T13:13:12Z</time></trkpt><trkpt lat="40.564143751138964" lon="8.317135563364712"><ele>1.0</ele><time>2026-05-02T13:13:13Z</time></trkpt><trkpt lat="40.56406855254523" lon="8.317097304026374"><ele>0.9999999999999999</ele><time>2026-05-02T13:13:14Z</time></trkpt><trkpt lat="40.56399295586954" lon="8.317055839329027"><ele>1.0</ele><time>2026-05-02T13:13:15Z</time></trkpt><trkpt lat="40.56391986067562" lon="8.317005982968753"><ele>0.9999999999999999</ele><time>2026-05-02T13:13:16Z</time></trkpt><trkpt lat="40.563843840307186" lon="8.316957536347054"><ele>1.0</ele><time>2026-05-02T13:13:17Z</time></trkpt><trkpt lat="40.563766154689546" lon="8.316915312165134"><ele>1.0</ele><time>2026-05-02T13:13:18Z</time></trkpt><trkpt lat="40.56368715985313" lon="8.316876397301327"><ele>1.0</ele><time>2026-05-02T13:13:19Z</time></trkpt><trkpt lat="40.56360949788522" lon="8.31683442774875"><ele>0.9999999999999999</ele><time>2026-05-02T13:13:20Z</time></trkpt><trkpt lat="40.56353214514675" lon="8.316788541868533"><ele>1.0</ele><time>2026-05-02T13:13:21Z</time></trkpt><trkpt lat="40.563455001442144" lon="8.31674230391549"><ele>1.1666666666666665</ele><time>2026-05-02T13:13:22Z</time></trkpt><trkpt lat="40.56337798156149" lon="8.31669445817961"><ele>1.3333333333333333</ele><time>2026-05-02T13:13:23Z</time></trkpt><trkpt lat="40.56329993279502" lon="8.316648628318276"><ele>1.5</ele><time>2026-05-02T13:13:24Z</time></trkpt><trkpt lat="40.56322081879512" lon="8.31660345483717"><ele>1.6666666666666665</ele><time>2026-05-02T13:13:25Z</time></trkpt><trkpt lat="40.56314119139152" lon="8.316557291615073"><ele>1.8333333333333333</ele><time>2026-05-02T13:13:26Z</time></trkpt><trkpt lat="40.56306233202565" lon="8.316509961541671"><ele>2.0</ele><time>2026-05-02T13:13:27Z</time></trkpt><trkpt lat="40.562980101576414" lon="8.31646510103397"><ele>1.9999999999999998</ele><time>2026-05-02T13:13:28Z</time></trkpt><trkpt lat="40.562901396127806" lon="8.316420724610806"><ele>2.0</ele><time>2026-05-02T13:13:29Z</time></trkpt><trkpt lat="40.562822006652986" lon="8.316374706716543"><ele>2.0</ele><time>2026-05-02T13:13:30Z</time></trkpt><trkpt lat="40.562744280331394" lon="8.316329907048672"><ele>2.0</ele><time>2026-05-02T13:13:31Z</time></trkpt><trkpt lat="40.562666812243855" lon="8.316285848258072"><ele>1.9999999999999998</ele><time>2026-05-02T13:13:32Z</time></trkpt><trkpt lat="40.562588744545046" lon="8.316241482169255"><ele>2.0</ele><time>2026-05-02T13:13:33Z</time></trkpt><trkpt lat="40.56251343620336" lon="8.31619678504551"><ele>1.9999999999999998</ele><time>2026-05-02T13:13:34Z</time></trkpt><trkpt lat="40.56243783454909" lon="8.316152884623207"><ele>2.0</ele><time>2026-05-02T13:13:35Z</time></trkpt><trkpt lat="40.562360123704416" lon="8.316110389939114"><ele>2.0</ele><time>2026-05-02T13:13:36Z</time></trkpt><trkpt lat="40.56228244590359" lon="8.31606754358799"><ele>2.0</ele><time>2026-05-02T13:13:37Z</time></trkpt><trkpt lat="40.56220426346717" lon="8.31602361986346"><ele>1.9999999999999998</ele><time>2026-05-02T13:13:38Z</time></trkpt><trkpt lat="40.56212603941526" lon="8.315978192552294"><ele>2.0</ele><time>2026-05-02T13:13:39Z</time></trkpt><trkpt lat="40.56204796884904" lon="8.315934223760362"><ele>1.9999999999999998</ele><time>2026-05-02T13:13:40Z</time></trkpt><trkpt lat="40.56196844096749" lon="8.31589132477388"><ele>2.0</ele><time>2026-05-02T13:13:41Z</time></trkpt><trkpt lat="40.561889954975946" lon="8.315847212219499"><ele>2.0</ele><time>2026-05-02T13:13:42Z</time></trkpt><trkpt lat="40.56181167787192" lon="8.31579981474456"><ele>2.0</ele><time>2026-05-02T13:13:43Z</time></trkpt><trkpt lat="40.56173284648124" lon="8.31575144549851"><ele>1.9999999999999998</ele><time>2026-05-02T13:13:44Z</time></trkpt><trkpt lat="40.56165393327692" lon="8.315702529717525"><ele>2.0</ele><time>2026-05-02T13:13:45Z</time></trkpt><trkpt lat="40.561574696121006" lon="8.315653968154265"><ele>1.9999999999999998</ele><time>2026-05-02T13:13:46Z</time></trkpt><trkpt lat="40.561496105181114" lon="8.315607661284101"><ele>2.0</ele><time>2026-05-02T13:13:47Z</time></trkpt><trkpt lat="40.56141659994969" lon="8.315564312441184"><ele>2.0</ele><time>2026-05-02T13:13:48Z</time></trkpt><trkpt lat="40.561336913952935" lon="8.31552259881606"><ele>2.0</ele><time>2026-05-02T13:13:49Z</time></trkpt><trkpt lat="40.56125860675201" lon="8.31548210372061"><ele>1.9999999999999998</ele><time>2026-05-02T13:13:50Z</time></trkpt><trkpt lat="40.56118179775532" lon="8.315440121514673"><ele>2.0</ele><time>2026-05-02T13:13:51Z</time></trkpt><trkpt lat="40.56110777728892" lon="8.31539416875557"><ele>1.6666666666666665</ele><time>2026-05-02T13:13:52Z</time></trkpt><trkpt lat="40.56103271134582" lon="8.315352457351977"><ele>1.3333333333333333</ele><time>2026-05-02T13:13:53Z</time></trkpt><trkpt lat="40.560958403669076" lon="8.3153105669415"><ele>1.0</ele><time>2026-05-02T13:13:54Z</time></trkpt><trkpt lat="40.56088288005663" lon="8.315263869858235"><ele>0.6666666666666666</ele><time>2026-05-02T13:13:55Z</time></trkpt><trkpt lat="40.56080779840617" lon="8.315215618274268"><ele>0.3333333333333333</ele><time>2026-05-02T13:13:56Z</time></trkpt><trkpt lat="40.56072789147702" lon="8.315168036441671"><ele>0.0</ele><time>2026-05-02T13:13:57Z</time></trkpt><trkpt lat="40.56065321606812" lon="8.315124196046993"><ele>0.0</ele><time>2026-05-02T13:13:58Z</time></trkpt><trkpt lat="40.560582305840754" lon="8.315083241233987"><ele>0.0</ele><time>2026-05-02T13:13:59Z</time></trkpt><trkpt lat="40.56051531574622" lon="8.315047545069872"><ele>0.0</ele><time>2026-05-02T13:14:00Z</time></trkpt><trkpt lat="40.56045278531188" lon="8.315028951645138"><ele>0.0</ele><time>2026-05-02T13:14:01Z</time></trkpt><trkpt lat="40.560344319116155" lon="8.315018923236371"><ele>0.0</ele><time>2026-05-02T13:14:03Z</time></trkpt><trkpt lat="40.560253328966425" lon="8.315022343320479"><ele>0.0</ele><time>2026-05-02T13:14:05Z</time></trkpt><trkpt lat="40.560179214067205" lon="8.315060036685832"><ele>1.0</ele><time>2026-05-02T13:14:07Z</time></trkpt><trkpt lat="40.56011768972915" lon="8.315104828783307"><ele>2.0</ele><time>2026-05-02T13:14:23Z</time></trkpt><trkpt lat="40.55998120435172" lon="8.315010389210961"><ele>3.0</ele><time>2026-05-02T13:14:26Z</time></trkpt><trkpt lat="40.559891296942546" lon="8.315020532226143"><ele>4.0</ele><time>2026-05-02T13:14:28Z</time></trkpt><trkpt lat="40.55978092221343" lon="8.314995117816093"><ele>5.0</ele><time>2026-05-02T13:14:30Z</time></trkpt><trkpt lat="40.559702630880714" lon="8.31495184873223"><ele>5.0</ele><time>2026-05-02T13:14:32Z</time></trkpt><trkpt lat="40.5596191557065" lon="8.314929881890192"><ele>5.0</ele><time>2026-05-02T13:14:34Z</time></trkpt><trkpt lat="40.5594984152996" lon="8.314910391911285"><ele>5.0</ele><time>2026-05-02T13:14:36Z</time></trkpt><trkpt lat="40.559429725949975" lon="8.314909754665452"><ele>5.0</ele><time>2026-05-02T13:14:37Z</time></trkpt><trkpt lat="40.55935710860684" lon="8.314924635921743"><ele>5.0</ele><time>2026-05-02T13:14:38Z</time></trkpt><trkpt lat="40.55928229105638" lon="8.314967758487896"><ele>5.0</ele><time>2026-05-02T13:14:39Z</time></trkpt><trkpt lat="40.559199783546624" lon="8.315031899300482"><ele>6.8</ele><time>2026-05-02T13:14:40Z</time></trkpt><trkpt lat="40.55911405357441" lon="8.315112365606176"><ele>8.6</ele><time>2026-05-02T13:14:41Z</time></trkpt><trkpt lat="40.55903620269691" lon="8.315198291222227"><ele>10.399999999999999</ele><time>2026-05-02T13:14:42Z</time></trkpt><trkpt lat="40.55895898764337" lon="8.315272072549638"><ele>12.2</ele><time>2026-05-02T13:14:43Z</time></trkpt><trkpt lat="40.558894049454324" lon="8.315328731068703"><ele>14.0</ele><time>2026-05-02T13:14:44Z</time></trkpt><trkpt lat="40.55882376032686" lon="8.3153781916044"><ele>14.0</ele><time>2026-05-02T13:14:45Z</time></trkpt><trkpt lat="40.55875094192444" lon="8.315425450169466"><ele>13.999999999999998</ele><time>2026-05-02T13:14:46Z</time></trkpt><trkpt lat="40.55867306215517" lon="8.31547914088329"><ele>13.999999999999998</ele><time>2026-05-02T13:14:47Z</time></trkpt><trkpt lat="40.558589349553195" lon="8.31552822396206"><ele>14.0</ele><time>2026-05-02T13:14:48Z</time></trkpt><trkpt lat="40.55851141255461" lon="8.315598022548025"><ele>14.0</ele><time>2026-05-02T13:14:49Z</time></trkpt><trkpt lat="40.558414260294846" lon="8.31565986674317"><ele>14.399999999999999</ele><time>2026-05-02T13:14:50Z</time></trkpt><trkpt lat="40.558318135837716" lon="8.315721438767824"><ele>14.799999999999999</ele><time>2026-05-02T13:14:51Z</time></trkpt><trkpt lat="40.55823803100433" lon="8.31579140416743"><ele>15.200000000000001</ele><time>2026-05-02T13:14:52Z</time></trkpt><trkpt lat="40.558160919830804" lon="8.315857807646946"><ele>15.600000000000001</ele><time>2026-05-02T13:14:53Z</time></trkpt><trkpt lat="40.55807866402358" lon="8.315922727640551"><ele>16.0</ele><time>2026-05-02T13:14:54Z</time></trkpt><trkpt lat="40.557994762012484" lon="8.31598489340382"><ele>16.0</ele><time>2026-05-02T13:14:55Z</time></trkpt><trkpt lat="40.55791329289095" lon="8.316047471361866"><ele>16.0</ele><time>2026-05-02T13:14:56Z</time></trkpt><trkpt lat="40.557831583768966" lon="8.316111151203845"><ele>16.0</ele><time>2026-05-02T13:14:57Z</time></trkpt><trkpt lat="40.557750872172306" lon="8.316172682621703"><ele>16.0</ele><time>2026-05-02T13:14:58Z</time></trkpt><trkpt lat="40.557672019203686" lon="8.316235355443952"><ele>16.0</ele><time>2026-05-02T13:14:59Z</time></trkpt><trkpt lat="40.55759805837566" lon="8.316297703312115"><ele>16.0</ele><time>2026-05-02T13:15:00Z</time></trkpt><trkpt lat="40.55753081401793" lon="8.31634961939741"><ele>15.999999999999998</ele><time>2026-05-02T13:15:01Z</time></trkpt><trkpt lat="40.557476481902" lon="8.31639719379771"><ele>16.0</ele><time>2026-05-02T13:15:02Z</time></trkpt><trkpt lat="40.557409706778756" lon="8.316459614215972"><ele>16.0</ele><time>2026-05-02T13:15:04Z</time></trkpt><trkpt lat="40.55735299512823" lon="8.316499870031963"><ele>15.999999999999998</ele><time>2026-05-02T13:15:06Z</time></trkpt><trkpt lat="40.55728887177835" lon="8.316503624616203"><ele>16.0</ele><time>2026-05-02T13:15:24Z</time></trkpt><trkpt lat="40.55724305156298" lon="8.316586772553148"><ele>16.0</ele><time>2026-05-02T13:15:43Z</time></trkpt><trkpt lat="40.55717083743281" lon="8.316628994363493"><ele>16.0</ele><time>2026-05-02T13:15:45Z</time></trkpt><trkpt lat="40.557131869855404" lon="8.316500411560112"><ele>16.0</ele><time>2026-05-02T13:15:47Z</time></trkpt><trkpt lat="40.55709030695877" lon="8.316408916860864"><ele>16.0</ele><time>2026-05-02T13:15:48Z</time></trkpt><trkpt lat="40.557045872536236" lon="8.31630782231049"><ele>16.0</ele><time>2026-05-02T13:15:49Z</time></trkpt><trkpt lat="40.55700021201724" lon="8.316200978365584"><ele>16.0</ele><time>2026-05-02T13:15:50Z</time></trkpt><trkpt lat="40.556953412928344" lon="8.316091470342423"><ele>15.200000000000001</ele><time>2026-05-02T13:15:51Z</time></trkpt><trkpt lat="40.55688325695111" lon="8.315934072065907"><ele>14.400000000000002</ele><time>2026-05-02T13:15:53Z</time></trkpt><trkpt lat="40.55682175144284" lon="8.315800871024832"><ele>13.6</ele><time>2026-05-02T13:15:55Z</time></trkpt><trkpt lat="40.55678695292008" lon="8.3157229122531"><ele>12.8</ele><time>2026-05-02T13:15:56Z</time></trkpt><trkpt lat="40.55675019026883" lon="8.315650947479622"><ele>12.0</ele><time>2026-05-02T13:15:57Z</time></trkpt><trkpt lat="40.55668855168905" lon="8.31561191556765"><ele>11.8</ele><time>2026-05-02T13:15:58Z</time></trkpt><trkpt lat="40.55660869323059" lon="8.315534342406197"><ele>11.6</ele><time>2026-05-02T13:16:00Z</time></trkpt><trkpt lat="40.5565293136625" lon="8.315502744140758"><ele>11.4</ele><time>2026-05-02T13:16:02Z</time></trkpt><trkpt lat="40.55642565820568" lon="8.315473574303997"><ele>11.200000000000001</ele><time>2026-05-02T13:16:04Z</time></trkpt><trkpt lat="40.5563156788303" lon="8.315444136601617"><ele>11.0</ele><time>2026-05-02T13:16:06Z</time></trkpt><trkpt lat="40.55625203672563" lon="8.315470993225722"><ele>10.833333333333332</ele><time>2026-05-02T13:16:07Z</time></trkpt><trkpt lat="40.5561874565179" lon="8.315531527729958"><ele>10.666666666666666</ele><time>2026-05-02T13:16:08Z</time></trkpt><trkpt lat="40.5561092486799" lon="8.315588507829823"><ele>10.5</ele><time>2026-05-02T13:16:09Z</time></trkpt><trkpt lat="40.55603991940852" lon="8.31565144255986"><ele>10.333333333333334</ele><time>2026-05-02T13:16:10Z</time></trkpt><trkpt lat="40.55596812274263" lon="8.315718997770368"><ele>10.166666666666668</ele><time>2026-05-02T13:16:11Z</time></trkpt><trkpt lat="40.55589696587178" lon="8.315780510986455"><ele>10.0</ele><time>2026-05-02T13:16:12Z</time></trkpt><trkpt lat="40.555822343211155" lon="8.315833470142472"><ele>10.0</ele><time>2026-05-02T13:16:13Z</time></trkpt><trkpt lat="40.555744037744205" lon="8.315881718731733"><ele>10.0</ele><time>2026-05-02T13:16:14Z</time></trkpt><trkpt lat="40.55566101413132" lon="8.315913595551764"><ele>10.0</ele><time>2026-05-02T13:16:15Z</time></trkpt><trkpt lat="40.55558265652769" lon="8.31592039387463"><ele>10.0</ele><time>2026-05-02T13:16:16Z</time></trkpt><trkpt lat="40.5554978178297" lon="8.315897982035388"><ele>10.0</ele><time>2026-05-02T13:16:17Z</time></trkpt><trkpt lat="40.555421109936105" lon="8.315878183727552"><ele>10.0</ele><time>2026-05-02T13:16:18Z</time></trkpt><trkpt lat="40.55533961319619" lon="8.315863992969858"><ele>10.0</ele><time>2026-05-02T13:16:19Z</time></trkpt><trkpt lat="40.555258435667675" lon="8.315852520780888"><ele>10.0</ele><time>2026-05-02T13:16:20Z</time></trkpt><trkpt lat="40.555192294671265" lon="8.315831069402847"><ele>10.0</ele><time>2026-05-02T13:16:21Z</time></trkpt><trkpt lat="40.55512692538048" lon="8.315801948043331"><ele>10.0</ele><time>2026-05-02T13:16:22Z</time></trkpt><trkpt lat="40.55506511236071" lon="8.315746551169001"><ele>10.0</ele><time>2026-05-02T13:16:23Z</time></trkpt><trkpt lat="40.55500737901497" lon="8.315695223068035"><ele>10.0</ele><time>2026-05-02T13:16:24Z</time></trkpt><trkpt lat="40.55494858391085" lon="8.315664603260712"><ele>10.0</ele><time>2026-05-02T13:16:25Z</time></trkpt><trkpt lat="40.55483051369008" lon="8.315641004438977"><ele>10.0</ele><time>2026-05-02T13:16:27Z</time></trkpt><trkpt lat="40.554758039713676" lon="8.31563933907341"><ele>10.0</ele><time>2026-05-02T13:16:28Z</time></trkpt><trkpt lat="40.55466109167765" lon="8.315656367024294"><ele>10.0</ele><time>2026-05-02T13:16:29Z</time></trkpt><trkpt lat="40.554569610612894" lon="8.315677830661555"><ele>10.0</ele><time>2026-05-02T13:16:30Z</time></trkpt><trkpt lat="40.55447658449948" lon="8.315711191000421"><ele>10.0</ele><time>2026-05-02T13:16:31Z</time></trkpt><trkpt lat="40.55438373823738" lon="8.3157536602734"><ele>9.6</ele><time>2026-05-02T13:16:32Z</time></trkpt><trkpt lat="40.55428795925765" lon="8.315795605036953"><ele>9.2</ele><time>2026-05-02T13:16:33Z</time></trkpt><trkpt lat="40.554191792280655" lon="8.315837560589593"><ele>8.8</ele><time>2026-05-02T13:16:34Z</time></trkpt><trkpt lat="40.55409252556262" lon="8.315886091601989"><ele>8.4</ele><time>2026-05-02T13:16:35Z</time></trkpt><trkpt lat="40.55399654665223" lon="8.315942898781705"><ele>8.0</ele><time>2026-05-02T13:16:36Z</time></trkpt><trkpt lat="40.55388834729816" lon="8.315999467452944"><ele>8.0</ele><time>2026-05-02T13:16:37Z</time></trkpt><trkpt lat="40.5537522035139" lon="8.31606381085699"><ele>8.0</ele><time>2026-05-02T13:16:38Z</time></trkpt><trkpt lat="40.55362177638713" lon="8.31611351114975"><ele>8.0</ele><time>2026-05-02T13:16:39Z</time></trkpt><trkpt lat="40.55349588006963" lon="8.316138930770352"><ele>8.0</ele><time>2026-05-02T13:16:40Z</time></trkpt><trkpt lat="40.55337853715239" lon="8.316163062751269"><ele>7.25</ele><time>2026-05-02T13:16:41Z</time></trkpt><trkpt lat="40.55326312011018" lon="8.316184520567028"><ele>6.5</ele><time>2026-05-02T13:16:42Z</time></trkpt><trkpt lat="40.553152560443024" lon="8.316208827264912"><ele>5.75</ele><time>2026-05-02T13:16:43Z</time></trkpt><trkpt lat="40.55304154332484" lon="8.316231483177525"><ele>5.0</ele><time>2026-05-02T13:16:44Z</time></trkpt><trkpt lat="40.55293402005324" lon="8.31625470430532"><ele>4.4</ele><time>2026-05-02T13:16:45Z</time></trkpt><trkpt lat="40.55282406107673" lon="8.316288252443004"><ele>3.8</ele><time>2026-05-02T13:16:46Z</time></trkpt><trkpt lat="40.552726115893066" lon="8.31635394019964"><ele>3.2</ele><time>2026-05-02T13:16:47Z</time></trkpt><trkpt lat="40.55264442736557" lon="8.316457450564204"><ele>2.6</ele><time>2026-05-02T13:16:48Z</time></trkpt><trkpt lat="40.55258956940741" lon="8.316584913392383"><ele>2.0</ele><time>2026-05-02T13:16:49Z</time></trkpt><trkpt lat="40.55255506504034" lon="8.31672308977646"><ele>3.2</ele><time>2026-05-02T13:16:50Z</time></trkpt><trkpt lat="40.55252668950056" lon="8.316855044123322"><ele>4.4</ele><time>2026-05-02T13:16:51Z</time></trkpt><trkpt lat="40.55250012441306" lon="8.316986313963909"><ele>5.6000000000000005</ele><time>2026-05-02T13:16:52Z</time></trkpt><trkpt lat="40.552469844856894" lon="8.31711647958115"><ele>6.800000000000001</ele><time>2026-05-02T13:16:53Z</time></trkpt><trkpt lat="40.552440393885085" lon="8.317244465838975"><ele>8.0</ele><time>2026-05-02T13:16:54Z</time></trkpt><trkpt lat="40.55241002910955" lon="8.3173678341507"><ele>8.5</ele><time>2026-05-02T13:16:55Z</time></trkpt><trkpt lat="40.552383383471444" lon="8.317477783632643"><ele>9.0</ele><time>2026-05-02T13:16:56Z</time></trkpt><trkpt lat="40.55236018241161" lon="8.317574313734456"><ele>9.5</ele><time>2026-05-02T13:16:57Z</time></trkpt><trkpt lat="40.552338837477755" lon="8.317660283945365"><ele>10.0</ele><time>2026-05-02T13:16:58Z</time></trkpt><trkpt lat="40.55232119785804" lon="8.31774220473356"><ele>10.5</ele><time>2026-05-02T13:16:59Z</time></trkpt><trkpt lat="40.552289419987055" lon="8.317913606787435"><ele>11.0</ele><time>2026-05-02T13:17:01Z</time></trkpt><trkpt lat="40.55227270421984" lon="8.31800981771696"><ele>11.8</ele><time>2026-05-02T13:17:02Z</time></trkpt><trkpt lat="40.55224858172917" lon="8.318110108175759"><ele>12.600000000000001</ele><time>2026-05-02T13:17:03Z</time></trkpt><trkpt lat="40.55218710229267" lon="8.318195157699689"><ele>13.4</ele><time>2026-05-02T13:17:04Z</time></trkpt><trkpt lat="40.5521423793982" lon="8.318299542310369"><ele>14.2</ele><time>2026-05-02T13:17:05Z</time></trkpt><trkpt lat="40.55208884387297" lon="8.3184060390084"><ele>15.0</ele><time>2026-05-02T13:17:06Z</time></trkpt><trkpt lat="40.552040567021585" lon="8.31852514386927"><ele>12.25</ele><time>2026-05-02T13:17:07Z</time></trkpt><trkpt lat="40.5519649810959" lon="8.318624943589816"><ele>9.5</ele><time>2026-05-02T13:17:08Z</time></trkpt><trkpt lat="40.55187808456386" lon="8.318720007048835"><ele>6.75</ele><time>2026-05-02T13:17:09Z</time></trkpt><trkpt lat="40.55176936118304" lon="8.318775287905595"><ele>4.0</ele><time>2026-05-02T13:17:10Z</time></trkpt><trkpt lat="40.55166053957479" lon="8.31881544583459"><ele>4.0</ele><time>2026-05-02T13:17:11Z</time></trkpt><trkpt lat="40.551546095613965" lon="8.318828704753864"><ele>4.0</ele><time>2026-05-02T13:17:12Z</time></trkpt><trkpt lat="40.55143685045678" lon="8.318818024883322"><ele>4.0</ele><time>2026-05-02T13:17:13Z</time></trkpt><trkpt lat="40.55134050188567" lon="8.31884500124132"><ele>4.0</ele><time>2026-05-02T13:17:14Z</time></trkpt><trkpt lat="40.551264958515134" lon="8.318947093780187"><ele>4.0</ele><time>2026-05-02T13:17:15Z</time></trkpt><trkpt lat="40.55119648223615" lon="8.31905549300808"><ele>4.5</ele><time>2026-05-02T13:17:16Z</time></trkpt><trkpt lat="40.55113162239234" lon="8.31915848679106"><ele>5.0</ele><time>2026-05-02T13:17:17Z</time></trkpt><trkpt lat="40.55107175584987" lon="8.319245985687695"><ele>5.5</ele><time>2026-05-02T13:17:18Z</time></trkpt><trkpt lat="40.55102479773054" lon="8.31933059609946"><ele>6.0</ele><time>2026-05-02T13:17:19Z</time></trkpt><trkpt lat="40.55098766767376" lon="8.319414048572405"><ele>6.500000000000001</ele><time>2026-05-02T13:17:20Z</time></trkpt><trkpt lat="40.55095246246977" lon="8.319500679282504"><ele>7.0</ele><time>2026-05-02T13:17:21Z</time></trkpt><trkpt lat="40.550921454888595" lon="8.319593903072338"><ele>7.0</ele><time>2026-05-02T13:17:22Z</time></trkpt><trkpt lat="40.55087049112532" lon="8.31967916135138"><ele>6.999999999999999</ele><time>2026-05-02T13:17:23Z</time></trkpt><trkpt lat="40.55082957683831" lon="8.319781531277073"><ele>6.999999999999999</ele><time>2026-05-02T13:17:24Z</time></trkpt><trkpt lat="40.55078808361737" lon="8.319886602749037"><ele>7.0</ele><time>2026-05-02T13:17:25Z</time></trkpt><trkpt lat="40.55074443968313" lon="8.319997486211888"><ele>7.0</ele><time>2026-05-02T13:17:26Z</time></trkpt><trkpt lat="40.55069943210341" lon="8.320111736251153"><ele>8.166666666666668</ele><time>2026-05-02T13:17:27Z</time></trkpt><trkpt lat="40.55065212729576" lon="8.32022867135076"><ele>9.333333333333334</ele><time>2026-05-02T13:17:28Z</time></trkpt><trkpt lat="40.55060627561493" lon="8.32034084930411"><ele>10.5</ele><time>2026-05-02T13:17:29Z</time></trkpt><trkpt lat="40.55056127884849" lon="8.320431018404776"><ele>11.666666666666668</ele><time>2026-05-02T13:17:30Z</time></trkpt><trkpt lat="40.55050888977159" lon="8.32049913526969"><ele>12.833333333333334</ele><time>2026-05-02T13:17:31Z</time></trkpt><trkpt lat="40.55045247639729" lon="8.320567277455616"><ele>14.0</ele><time>2026-05-02T13:17:32Z</time></trkpt><trkpt lat="40.55039063763309" lon="8.320627144554033"><ele>13.500000000000002</ele><time>2026-05-02T13:17:33Z</time></trkpt><trkpt lat="40.55032263117264" lon="8.320678770892261"><ele>13.0</ele><time>2026-05-02T13:17:34Z</time></trkpt><trkpt lat="40.55024845868401" lon="8.320723067157424"><ele>12.5</ele><time>2026-05-02T13:17:35Z</time></trkpt><trkpt lat="40.550169986899355" lon="8.320758054956146"><ele>12.0</ele><time>2026-05-02T13:17:36Z</time></trkpt><trkpt lat="40.55008976602728" lon="8.320786951301592"><ele>11.5</ele><time>2026-05-02T13:17:37Z</time></trkpt><trkpt lat="40.550012261331354" lon="8.320814896237716"><ele>11.0</ele><time>2026-05-02T13:17:38Z</time></trkpt><trkpt lat="40.54994257904356" lon="8.320840021277887"><ele>11.0</ele><time>2026-05-02T13:17:39Z</time></trkpt><trkpt lat="40.54986982282937" lon="8.32086691894196"><ele>11.0</ele><time>2026-05-02T13:17:40Z</time></trkpt><trkpt lat="40.549790776337204" lon="8.320895715327797"><ele>11.0</ele><time>2026-05-02T13:17:41Z</time></trkpt><trkpt lat="40.54970803532768" lon="8.320925576727376"><ele>11.0</ele><time>2026-05-02T13:17:42Z</time></trkpt><trkpt lat="40.54962206213259" lon="8.320956604634226"><ele>11.0</ele><time>2026-05-02T13:17:43Z</time></trkpt><trkpt lat="40.54953777886353" lon="8.320983898502195"><ele>11.0</ele><time>2026-05-02T13:17:44Z</time></trkpt><trkpt lat="40.549456378056114" lon="8.32100137181862"><ele>10.5</ele><time>2026-05-02T13:17:45Z</time></trkpt><trkpt lat="40.5493886096487" lon="8.321005541147759"><ele>10.0</ele><time>2026-05-02T13:17:46Z</time></trkpt><trkpt lat="40.54926771882113" lon="8.32100119833149"><ele>9.5</ele><time>2026-05-02T13:17:48Z</time></trkpt><trkpt lat="40.549148073642115" lon="8.320977217586494"><ele>9.0</ele><time>2026-05-02T13:17:50Z</time></trkpt><trkpt lat="40.54908197033194" lon="8.320964993701859"><ele>8.5</ele><time>2026-05-02T13:17:51Z</time></trkpt><trkpt lat="40.54901031944479" lon="8.320953422307898"><ele>8.0</ele><time>2026-05-02T13:17:52Z</time></trkpt><trkpt lat="40.54893413176774" lon="8.320939375210063"><ele>8.0</ele><time>2026-05-02T13:17:53Z</time></trkpt><trkpt lat="40.54885365956275" lon="8.3209240865467"><ele>8.0</ele><time>2026-05-02T13:17:54Z</time></trkpt><trkpt lat="40.54876463870984" lon="8.32090831099138"><ele>8.0</ele><time>2026-05-02T13:17:55Z</time></trkpt><trkpt lat="40.548668717946974" lon="8.320904452326177"><ele>8.0</ele><time>2026-05-02T13:17:56Z</time></trkpt><trkpt lat="40.54856900176898" lon="8.32091840672794"><ele>8.0</ele><time>2026-05-02T13:17:57Z</time></trkpt><trkpt lat="40.54845566266397" lon="8.32100174975317"><ele>9.666666666666666</ele><time>2026-05-02T13:17:58Z</time></trkpt><trkpt lat="40.5483571125814" lon="8.321141512939171"><ele>11.333333333333332</ele><time>2026-05-02T13:17:59Z</time></trkpt><trkpt lat="40.54827375847027" lon="8.321318329733836"><ele>13.0</ele><time>2026-05-02T13:18:00Z</time></trkpt><trkpt lat="40.5482174164374" lon="8.321503695347877"><ele>15.0</ele><time>2026-05-02T13:18:01Z</time></trkpt><trkpt lat="40.54818723667711" lon="8.321666618421476"><ele>17.0</ele><time>2026-05-02T13:18:02Z</time></trkpt><trkpt lat="40.548157107868875" lon="8.321810439064443"><ele>19.0</ele><time>2026-05-02T13:18:03Z</time></trkpt><trkpt lat="40.54812114716726" lon="8.321948924009853"><ele>21.0</ele><time>2026-05-02T13:18:04Z</time></trkpt><trkpt lat="40.548082659094874" lon="8.322096578946233"><ele>20.75</ele><time>2026-05-02T13:18:05Z</time></trkpt><trkpt lat="40.54801425379336" lon="8.322234341098945"><ele>20.5</ele><time>2026-05-02T13:18:06Z</time></trkpt><trkpt lat="40.54794494389216" lon="8.322372135579492"><ele>20.25</ele><time>2026-05-02T13:18:07Z</time></trkpt><trkpt lat="40.547855990405544" lon="8.32249054623735"><ele>20.0</ele><time>2026-05-02T13:18:08Z</time></trkpt><trkpt lat="40.54775961118988" lon="8.32259468213325"><ele>20.0</ele><time>2026-05-02T13:18:09Z</time></trkpt><trkpt lat="40.54766528953751" lon="8.322685775343928"><ele>20.0</ele><time>2026-05-02T13:18:10Z</time></trkpt><trkpt lat="40.547571977213835" lon="8.322775662657447"><ele>20.0</ele><time>2026-05-02T13:18:11Z</time></trkpt><trkpt lat="40.54745711935892" lon="8.322822392665973"><ele>20.0</ele><time>2026-05-02T13:18:12Z</time></trkpt><trkpt lat="40.54734032831445" lon="8.32284688057015"><ele>20.0</ele><time>2026-05-02T13:18:13Z</time></trkpt><trkpt lat="40.54723305386676" lon="8.32283168024375"><ele>20.0</ele><time>2026-05-02T13:18:14Z</time></trkpt><trkpt lat="40.54712783247329" lon="8.322826527326674"><ele>20.0</ele><time>2026-05-02T13:18:15Z</time></trkpt><trkpt lat="40.54700650644233" lon="8.322810002183015"><ele>20.0</ele><time>2026-05-02T13:18:16Z</time></trkpt><trkpt lat="40.546896901999965" lon="8.322696873915795"><ele>19.75</ele><time>2026-05-02T13:18:17Z</time></trkpt><trkpt lat="40.54677159439762" lon="8.322606470360377"><ele>19.5</ele><time>2026-05-02T13:18:18Z</time></trkpt><trkpt lat="40.546643854533556" lon="8.322510818206952"><ele>19.25</ele><time>2026-05-02T13:18:19Z</time></trkpt><trkpt lat="40.54651905656832" lon="8.322417369851463"><ele>19.0</ele><time>2026-05-02T13:18:20Z</time></trkpt><trkpt lat="40.54639172369903" lon="8.32233569932742"><ele>19.0</ele><time>2026-05-02T13:18:21Z</time></trkpt><trkpt lat="40.546254247896904" lon="8.322264064105457"><ele>19.0</ele><time>2026-05-02T13:18:22Z</time></trkpt><trkpt lat="40.545954886259786" lon="8.322140736409699"><ele>16.0</ele><time>2026-05-02T13:18:24Z</time></trkpt><trkpt lat="40.5457943793469" lon="8.322074990963568"><ele>13.0</ele><time>2026-05-02T13:18:25Z</time></trkpt><trkpt lat="40.54562765503193" lon="8.322006699495667"><ele>10.0</ele><time>2026-05-02T13:18:26Z</time></trkpt><trkpt lat="40.54545717327757" lon="8.321936868923785"><ele>10.333333333333334</ele><time>2026-05-02T13:18:27Z</time></trkpt><trkpt lat="40.545284030779925" lon="8.321861265059416"><ele>10.666666666666666</ele><time>2026-05-02T13:18:28Z</time></trkpt><trkpt lat="40.54512112313131" lon="8.32176069902083"><ele>11.0</ele><time>2026-05-02T13:18:29Z</time></trkpt><trkpt lat="40.544975151081296" lon="8.321641767191528"><ele>11.0</ele><time>2026-05-02T13:18:30Z</time></trkpt><trkpt lat="40.544841925414374" lon="8.321515975976125"><ele>11.0</ele><time>2026-05-02T13:18:31Z</time></trkpt><trkpt lat="40.544707056511996" lon="8.3214077879641"><ele>11.0</ele><time>2026-05-02T13:18:32Z</time></trkpt><trkpt lat="40.54455921954667" lon="8.321344790575681"><ele>11.666666666666666</ele><time>2026-05-02T13:18:33Z</time></trkpt><trkpt lat="40.54440355564789" lon="8.321315651318717"><ele>12.333333333333332</ele><time>2026-05-02T13:18:34Z</time></trkpt><trkpt lat="40.544239046569544" lon="8.321343951224645"><ele>13.0</ele><time>2026-05-02T13:18:35Z</time></trkpt><trkpt lat="40.544087010456394" lon="8.321423546795005"><ele>13.0</ele><time>2026-05-02T13:18:36Z</time></trkpt><trkpt lat="40.54396972336253" lon="8.321556337527948"><ele>13.0</ele><time>2026-05-02T13:18:37Z</time></trkpt><trkpt lat="40.543881887366254" lon="8.321726537547352"><ele>13.0</ele><time>2026-05-02T13:18:38Z</time></trkpt><trkpt lat="40.54384783621211" lon="8.32192456258744"><ele>13.0</ele><time>2026-05-02T13:18:39Z</time></trkpt><trkpt lat="40.543849747732075" lon="8.322132634027327"><ele>13.0</ele><time>2026-05-02T13:18:40Z</time></trkpt><trkpt lat="40.543823346030976" lon="8.322348465015581"><ele>13.0</ele><time>2026-05-02T13:18:41Z</time></trkpt><trkpt lat="40.54376080852127" lon="8.322543530448694"><ele>11.333333333333332</ele><time>2026-05-02T13:18:42Z</time></trkpt><trkpt lat="40.543671402081095" lon="8.322711175404757"><ele>9.666666666666666</ele><time>2026-05-02T13:18:43Z</time></trkpt><trkpt lat="40.54353929062235" lon="8.322848485793191"><ele>8.0</ele><time>2026-05-02T13:18:44Z</time></trkpt><trkpt lat="40.543426170756064" lon="8.32295767015622"><ele>8.0</ele><time>2026-05-02T13:18:45Z</time></trkpt><trkpt lat="40.543284859243336" lon="8.323021817675336"><ele>8.0</ele><time>2026-05-02T13:18:46Z</time></trkpt><trkpt lat="40.54314445015819" lon="8.32308008491187"><ele>8.0</ele><time>2026-05-02T13:18:47Z</time></trkpt><trkpt lat="40.5430060614044" lon="8.323076251795362"><ele>8.0</ele><time>2026-05-02T13:18:48Z</time></trkpt><trkpt lat="40.54285857066758" lon="8.323037259178422"><ele>8.666666666666666</ele><time>2026-05-02T13:18:49Z</time></trkpt><trkpt lat="40.54271189433536" lon="8.322958206837333"><ele>9.333333333333334</ele><time>2026-05-02T13:18:50Z</time></trkpt><trkpt lat="40.54257890153515" lon="8.322842858546453"><ele>10.0</ele><time>2026-05-02T13:18:51Z</time></trkpt><trkpt lat="40.54246734330376" lon="8.322691653063375"><ele>10.0</ele><time>2026-05-02T13:18:52Z</time></trkpt><trkpt lat="40.542386970990435" lon="8.322531514807132"><ele>10.0</ele><time>2026-05-02T13:18:53Z</time></trkpt><trkpt lat="40.54232053414703" lon="8.322330488689387"><ele>10.0</ele><time>2026-05-02T13:18:54Z</time></trkpt><trkpt lat="40.54224736574226" lon="8.322121209881212"><ele>9.0</ele><time>2026-05-02T13:18:55Z</time></trkpt><trkpt lat="40.54214297047429" lon="8.32197193405689"><ele>8.0</ele><time>2026-05-02T13:18:56Z</time></trkpt><trkpt lat="40.54202022025893" lon="8.321881007610836"><ele>7.0</ele><time>2026-05-02T13:18:57Z</time></trkpt><trkpt lat="40.54188291310947" lon="8.32184988661764"><ele>6.0</ele><time>2026-05-02T13:18:58Z</time></trkpt><trkpt lat="40.541739275113386" lon="8.321887871265252"><ele>6.0</ele><time>2026-05-02T13:18:59Z</time></trkpt><trkpt lat="40.541601636334775" lon="8.321983852162584"><ele>6.0</ele><time>2026-05-02T13:19:00Z</time></trkpt><trkpt lat="40.54148560917365" lon="8.322133429403511"><ele>6.0</ele><time>2026-05-02T13:19:01Z</time></trkpt><trkpt lat="40.54137858798658" lon="8.322342161279279"><ele>5.666666666666667</ele><time>2026-05-02T13:19:02Z</time></trkpt><trkpt lat="40.5412616728365" lon="8.322567962031973"><ele>5.333333333333334</ele><time>2026-05-02T13:19:03Z</time></trkpt><trkpt lat="40.54114201566638" lon="8.322790722324356"><ele>5.0</ele><time>2026-05-02T13:19:04Z</time></trkpt><trkpt lat="40.54101897414889" lon="8.323013517402693"><ele>10.0</ele><time>2026-05-02T13:19:05Z</time></trkpt><trkpt lat="40.54086874043276" lon="8.323210825069053"><ele>15.0</ele><time>2026-05-02T13:19:06Z</time></trkpt><trkpt lat="40.54067337324591" lon="8.32332901447192"><ele>20.0</ele><time>2026-05-02T13:19:07Z</time></trkpt><trkpt lat="40.5404747009019" lon="8.323473639705236"><ele>12.5</ele><time>2026-05-02T13:19:08Z</time></trkpt><trkpt lat="40.54027679192591" lon="8.32361524967813"><ele>5.0</ele><time>2026-05-02T13:19:09Z</time></trkpt><trkpt lat="40.54007958157442" lon="8.323756435892891"><ele>5.0</ele><time>2026-05-02T13:19:10Z</time></trkpt><trkpt lat="40.539884349852855" lon="8.323896205732417"><ele>5.0</ele><time>2026-05-02T13:19:11Z</time></trkpt><trkpt lat="40.53968800672739" lon="8.324036771144558"><ele>5.0</ele><time>2026-05-02T13:19:12Z</time></trkpt><trkpt lat="40.539494802731944" lon="8.324171884824327"><ele>7.0</ele><time>2026-05-02T13:19:13Z</time></trkpt><trkpt lat="40.539309091720426" lon="8.324268703815255"><ele>9.0</ele><time>2026-05-02T13:19:14Z</time></trkpt><trkpt lat="40.53912021375529" lon="8.324312494191568"><ele>11.0</ele><time>2026-05-02T13:19:15Z</time></trkpt><trkpt lat="40.53893574429743" lon="8.32429379521862"><ele>11.0</ele><time>2026-05-02T13:19:16Z</time></trkpt><trkpt lat="40.538731514739766" lon="8.324230625979231"><ele>11.0</ele><time>2026-05-02T13:19:17Z</time></trkpt><trkpt lat="40.53851504229257" lon="8.324158909949704"><ele>11.0</ele><time>2026-05-02T13:19:18Z</time></trkpt><trkpt lat="40.53829042358123" lon="8.324084187281985"><ele>11.5</ele><time>2026-05-02T13:19:19Z</time></trkpt><trkpt lat="40.538052434285675" lon="8.324004751347127"><ele>12.0</ele><time>2026-05-02T13:19:20Z</time></trkpt><trkpt lat="40.53782506187238" lon="8.323928859106285"><ele>9.666666666666666</ele><time>2026-05-02T13:19:21Z</time></trkpt><trkpt lat="40.537611054563705" lon="8.32385751889023"><ele>7.333333333333334</ele><time>2026-05-02T13:19:22Z</time></trkpt><trkpt lat="40.53741586784234" lon="8.323820660595212"><ele>5.0</ele><time>2026-05-02T13:19:23Z</time></trkpt><trkpt lat="40.53723991624684" lon="8.323794978973908"><ele>5.0</ele><time>2026-05-02T13:19:24Z</time></trkpt><trkpt lat="40.53707523669264" lon="8.323830042690926"><ele>5.0</ele><time>2026-05-02T13:19:25Z</time></trkpt><trkpt lat="40.53691860996929" lon="8.32392637512227"><ele>5.0</ele><time>2026-05-02T13:19:26Z</time></trkpt><trkpt lat="40.53678255726483" lon="8.324068557056908"><ele>7.333333333333334</ele><time>2026-05-02T13:19:27Z</time></trkpt><trkpt lat="40.53667210721122" lon="8.324248849576634"><ele>9.666666666666666</ele><time>2026-05-02T13:19:28Z</time></trkpt><trkpt lat="40.536590871031116" lon="8.324463321786036"><ele>12.0</ele><time>2026-05-02T13:19:29Z</time></trkpt><trkpt lat="40.53652845872157" lon="8.324698428846167"><ele>16.666666666666664</ele><time>2026-05-02T13:19:30Z</time></trkpt><trkpt lat="40.5364672439709" lon="8.324948461179448"><ele>21.333333333333332</ele><time>2026-05-02T13:19:31Z</time></trkpt><trkpt lat="40.53639521440922" lon="8.325194141211403"><ele>26.0</ele><time>2026-05-02T13:19:32Z</time></trkpt><trkpt lat="40.53629989047265" lon="8.325396623971926"><ele>26.333333333333332</ele><time>2026-05-02T13:19:33Z</time></trkpt><trkpt lat="40.53618027895507" lon="8.325522821081826"><ele>26.666666666666664</ele><time>2026-05-02T13:19:34Z</time></trkpt><trkpt lat="40.5360613252916" lon="8.325588589853766"><ele>27.0</ele><time>2026-05-02T13:19:35Z</time></trkpt><trkpt lat="40.53586520366418" lon="8.325655621122127"><ele>27.0</ele><time>2026-05-02T13:19:36Z</time></trkpt><trkpt lat="40.535660718248074" lon="8.325733033015124"><ele>27.0</ele><time>2026-05-02T13:19:37Z</time></trkpt><trkpt lat="40.53540909045038" lon="8.325829190617142"><ele>23.0</ele><time>2026-05-02T13:19:38Z</time></trkpt><trkpt lat="40.53517455342234" lon="8.325918904489004"><ele>19.0</ele><time>2026-05-02T13:19:39Z</time></trkpt><trkpt lat="40.534949450752904" lon="8.326005009825511"><ele>19.0</ele><time>2026-05-02T13:19:40Z</time></trkpt><trkpt lat="40.53473181935105" lon="8.326088256863647"><ele>19.0</ele><time>2026-05-02T13:19:41Z</time></trkpt><trkpt lat="40.53453549605672" lon="8.326162441131425"><ele>19.0</ele><time>2026-05-02T13:19:42Z</time></trkpt><trkpt lat="40.534328743302595" lon="8.326240549624599"><ele>16.666666666666664</ele><time>2026-05-02T13:19:43Z</time></trkpt><trkpt lat="40.534122019976664" lon="8.326319057725772"><ele>14.333333333333332</ele><time>2026-05-02T13:19:44Z</time></trkpt><trkpt lat="40.53391467404973" lon="8.326398141741148"><ele>12.0</ele><time>2026-05-02T13:19:45Z</time></trkpt><trkpt lat="40.53370646804066" lon="8.326499083179367"><ele>20.5</ele><time>2026-05-02T13:19:46Z</time></trkpt><trkpt lat="40.53348327351293" lon="8.326561784393231"><ele>29.0</ele><time>2026-05-02T13:19:47Z</time></trkpt><trkpt lat="40.53326152959509" lon="8.326645708120322"><ele>29.0</ele><time>2026-05-02T13:19:48Z</time></trkpt><trkpt lat="40.53305618307729" lon="8.326744603582842"><ele>29.0</ele><time>2026-05-02T13:19:49Z</time></trkpt><trkpt lat="40.53287251330177" lon="8.32681091712916"><ele>29.0</ele><time>2026-05-02T13:19:50Z</time></trkpt><trkpt lat="40.53270455061813" lon="8.326848827795583"><ele>27.666666666666664</ele><time>2026-05-02T13:19:51Z</time></trkpt><trkpt lat="40.5325406291828" lon="8.32687587866092"><ele>26.333333333333336</ele><time>2026-05-02T13:19:52Z</time></trkpt><trkpt lat="40.53236806686565" lon="8.326862987517542"><ele>25.0</ele><time>2026-05-02T13:19:53Z</time></trkpt><trkpt lat="40.53219604336996" lon="8.326823689193278"><ele>25.0</ele><time>2026-05-02T13:19:54Z</time></trkpt><trkpt lat="40.53204791262901" lon="8.32679253675226"><ele>25.0</ele><time>2026-05-02T13:19:55Z</time></trkpt><trkpt lat="40.5319326089321" lon="8.326775624080142"><ele>25.0</ele><time>2026-05-02T13:19:56Z</time></trkpt><trkpt lat="40.531812271222385" lon="8.326793406362762"><ele>25.0</ele><time>2026-05-02T13:19:57Z</time></trkpt><trkpt lat="40.531694199817345" lon="8.32680623258523"><ele>25.0</ele><time>2026-05-02T13:19:58Z</time></trkpt><trkpt lat="40.53156186904544" lon="8.32685733139306"><ele>25.0</ele><time>2026-05-02T13:19:59Z</time></trkpt><trkpt lat="40.531416358395056" lon="8.326913542662219"><ele>25.0</ele><time>2026-05-02T13:20:00Z</time></trkpt><trkpt lat="40.531275358139645" lon="8.326940553248907"><ele>25.0</ele><time>2026-05-02T13:20:01Z</time></trkpt><trkpt lat="40.53116484808557" lon="8.327003102251256"><ele>23.0</ele><time>2026-05-02T13:20:02Z</time></trkpt><trkpt lat="40.53106373147484" lon="8.327032602102216"><ele>21.0</ele><time>2026-05-02T13:20:03Z</time></trkpt><trkpt lat="40.530965692033476" lon="8.327073812394088"><ele>19.0</ele><time>2026-05-02T13:20:04Z</time></trkpt><trkpt lat="40.530862660067065" lon="8.327127785361528"><ele>17.0</ele><time>2026-05-02T13:20:05Z</time></trkpt><trkpt lat="40.530752034490284" lon="8.327198275200248"><ele>15.0</ele><time>2026-05-02T13:20:06Z</time></trkpt><trkpt lat="40.530625154330416" lon="8.327285170975047"><ele>16.333333333333332</ele><time>2026-05-02T13:20:07Z</time></trkpt><trkpt lat="40.53049316604683" lon="8.327440028251923"><ele>17.666666666666664</ele><time>2026-05-02T13:20:08Z</time></trkpt><trkpt lat="40.53034352083162" lon="8.327652911817568"><ele>19.0</ele><time>2026-05-02T13:20:09Z</time></trkpt><trkpt lat="40.53019430585047" lon="8.32786711892331"><ele>27.0</ele><time>2026-05-02T13:20:10Z</time></trkpt><trkpt lat="40.53003944866219" lon="8.328089873012278"><ele>35.0</ele><time>2026-05-02T13:20:11Z</time></trkpt><trkpt lat="40.529888212232414" lon="8.328307418840668"><ele>35.0</ele><time>2026-05-02T13:20:12Z</time></trkpt><trkpt lat="40.5297433784036" lon="8.328515754372965"><ele>35.0</ele><time>2026-05-02T13:20:13Z</time></trkpt><trkpt lat="40.529625608825775" lon="8.328677931938659"><ele>35.0</ele><time>2026-05-02T13:20:14Z</time></trkpt><trkpt lat="40.52952156742752" lon="8.328781309050749"><ele>30.5</ele><time>2026-05-02T13:20:15Z</time></trkpt><trkpt lat="40.529426618301244" lon="8.328835271711542"><ele>26.0</ele><time>2026-05-02T13:20:16Z</time></trkpt><trkpt lat="40.529334713860656" lon="8.328794032186659"><ele>21.5</ele><time>2026-05-02T13:20:17Z</time></trkpt><trkpt lat="40.5291759974221" lon="8.328747494530887"><ele>17.0</ele><time>2026-05-02T13:20:18Z</time></trkpt><trkpt lat="40.52897562246593" lon="8.328694714198523"><ele>17.0</ele><time>2026-05-02T13:20:19Z</time></trkpt><trkpt lat="40.52881786342727" lon="8.328666534325139"><ele>17.0</ele><time>2026-05-02T13:20:20Z</time></trkpt><trkpt lat="40.52869699644203" lon="8.32870808069563"><ele>17.0</ele><time>2026-05-02T13:20:21Z</time></trkpt><trkpt lat="40.52859657549507" lon="8.328794824851256"><ele>17.0</ele><time>2026-05-02T13:20:22Z</time></trkpt><trkpt lat="40.52849780157765" lon="8.328998490813936"><ele>20.333333333333336</ele><time>2026-05-02T13:20:23Z</time></trkpt><trkpt lat="40.52838773903588" lon="8.329241191402263"><ele>23.666666666666668</ele><time>2026-05-02T13:20:24Z</time></trkpt><trkpt lat="40.52822950594482" lon="8.329458897907706"><ele>27.0</ele><time>2026-05-02T13:20:25Z</time></trkpt><trkpt lat="40.52803904361316" lon="8.329659072913573"><ele>26.5</ele><time>2026-05-02T13:20:26Z</time></trkpt><trkpt lat="40.527846780842125" lon="8.32984953079969"><ele>26.0</ele><time>2026-05-02T13:20:27Z</time></trkpt><trkpt lat="40.527681525963715" lon="8.330035513494163"><ele>26.0</ele><time>2026-05-02T13:20:28Z</time></trkpt><trkpt lat="40.527496344734026" lon="8.330164354104609"><ele>26.0</ele><time>2026-05-02T13:20:29Z</time></trkpt><trkpt lat="40.5272722189285" lon="8.33030053065627"><ele>21.5</ele><time>2026-05-02T13:20:30Z</time></trkpt><trkpt lat="40.52704848179688" lon="8.330414092352486"><ele>17.0</ele><time>2026-05-02T13:20:31Z</time></trkpt><trkpt lat="40.52684000446778" lon="8.330512832198"><ele>22.666666666666668</ele><time>2026-05-02T13:20:32Z</time></trkpt><trkpt lat="40.526635010541284" lon="8.330605495650316"><ele>28.333333333333336</ele><time>2026-05-02T13:20:33Z</time></trkpt><trkpt lat="40.52644427712052" lon="8.330637354069623"><ele>34.0</ele><time>2026-05-02T13:20:34Z</time></trkpt><trkpt lat="40.52625565235191" lon="8.330693366823258"><ele>27.0</ele><time>2026-05-02T13:20:35Z</time></trkpt><trkpt lat="40.52607623811522" lon="8.330738028948439"><ele>20.0</ele><time>2026-05-02T13:20:36Z</time></trkpt><trkpt lat="40.525914579686386" lon="8.33088724970596"><ele>13.0</ele><time>2026-05-02T13:20:37Z</time></trkpt><trkpt lat="40.52573488097857" lon="8.331091115233901"><ele>13.0</ele><time>2026-05-02T13:20:38Z</time></trkpt><trkpt lat="40.52553635321393" lon="8.33133259230968"><ele>13.0</ele><time>2026-05-02T13:20:39Z</time></trkpt><trkpt lat="40.52531686341275" lon="8.33159709046147"><ele>13.5</ele><time>2026-05-02T13:20:40Z</time></trkpt><trkpt lat="40.525101129133425" lon="8.331795246889982"><ele>14.0</ele><time>2026-05-02T13:20:41Z</time></trkpt><trkpt lat="40.52490299500844" lon="8.331966116185678"><ele>14.0</ele><time>2026-05-02T13:20:42Z</time></trkpt><trkpt lat="40.52468894086282" lon="8.33212665495065"><ele>14.0</ele><time>2026-05-02T13:20:43Z</time></trkpt><trkpt lat="40.5244915008058" lon="8.33228663398629"><ele>15.666666666666668</ele><time>2026-05-02T13:20:44Z</time></trkpt><trkpt lat="40.524302196185346" lon="8.332406100897522"><ele>17.333333333333332</ele><time>2026-05-02T13:20:45Z</time></trkpt><trkpt lat="40.52409401634921" lon="8.33249533309046"><ele>19.0</ele><time>2026-05-02T13:20:46Z</time></trkpt><trkpt lat="40.52390102157787" lon="8.332587518391005"><ele>17.666666666666664</ele><time>2026-05-02T13:20:47Z</time></trkpt><trkpt lat="40.52372446407687" lon="8.332690212094455"><ele>16.333333333333332</ele><time>2026-05-02T13:20:48Z</time></trkpt><trkpt lat="40.523561824606126" lon="8.332780113801471"><ele>15.0</ele><time>2026-05-02T13:20:49Z</time></trkpt><trkpt lat="40.52343195695162" lon="8.332890614624805"><ele>15.0</ele><time>2026-05-02T13:20:50Z</time></trkpt><trkpt lat="40.52334234573099" lon="8.333018537649"><ele>15.0</ele><time>2026-05-02T13:20:51Z</time></trkpt><trkpt lat="40.52328328427385" lon="8.333152718721815"><ele>15.0</ele><time>2026-05-02T13:20:52Z</time></trkpt><trkpt lat="40.523235383722884" lon="8.333280019254351"><ele>15.0</ele><time>2026-05-02T13:20:53Z</time></trkpt><trkpt lat="40.52318731424794" lon="8.333388670380822"><ele>16.4</ele><time>2026-05-02T13:20:54Z</time></trkpt><trkpt lat="40.523133491024716" lon="8.333459959120708"><ele>17.8</ele><time>2026-05-02T13:20:55Z</time></trkpt><trkpt lat="40.52308436362134" lon="8.333562045048055"><ele>19.200000000000003</ele><time>2026-05-02T13:20:56Z</time></trkpt><trkpt lat="40.52304269196029" lon="8.333656439024628"><ele>20.6</ele><time>2026-05-02T13:20:57Z</time></trkpt><trkpt lat="40.52300309165322" lon="8.333771701768281"><ele>22.0</ele><time>2026-05-02T13:20:58Z</time></trkpt><trkpt lat="40.522988263054486" lon="8.33395648162019"><ele>24.25</ele><time>2026-05-02T13:20:59Z</time></trkpt><trkpt lat="40.52298351233042" lon="8.33412780701962"><ele>26.5</ele><time>2026-05-02T13:21:00Z</time></trkpt><trkpt lat="40.522988962124764" lon="8.334295659642441"><ele>28.75</ele><time>2026-05-02T13:21:01Z</time></trkpt><trkpt lat="40.522993770102225" lon="8.334443744293893"><ele>31.0</ele><time>2026-05-02T13:21:02Z</time></trkpt><trkpt lat="40.52300599523008" lon="8.334603821092854"><ele>35.0</ele><time>2026-05-02T13:21:03Z</time></trkpt><trkpt lat="40.52337884958309" lon="8.334735946630591"><ele>39.0</ele><time>2026-05-02T13:21:04Z</time></trkpt><trkpt lat="40.523454961779464" lon="8.334864272029138"><ele>39.0</ele><time>2026-05-02T13:21:05Z</time></trkpt><trkpt lat="40.52350937441412" lon="8.334981417480037"><ele>39.0</ele><time>2026-05-02T13:21:06Z</time></trkpt><trkpt lat="40.52355218409371" lon="8.335118998792705"><ele>39.0</ele><time>2026-05-02T13:21:07Z</time></trkpt><trkpt lat="40.5235841504237" lon="8.335287979717593"><ele>39.0</ele><time>2026-05-02T13:21:08Z</time></trkpt><trkpt lat="40.52360371416513" lon="8.335476527531133"><ele>42.33333333333333</ele><time>2026-05-02T13:21:09Z</time></trkpt><trkpt lat="40.523613186130966" lon="8.335677735543038"><ele>45.666666666666664</ele><time>2026-05-02T13:21:10Z</time></trkpt><trkpt lat="40.5236128236945" lon="8.335889771871305"><ele>49.0</ele><time>2026-05-02T13:21:11Z</time></trkpt><trkpt lat="40.523608654169166" lon="8.336106758239413"><ele>49.0</ele><time>2026-05-02T13:21:12Z</time></trkpt><trkpt lat="40.523598115313064" lon="8.336312283234895"><ele>49.0</ele><time>2026-05-02T13:21:13Z</time></trkpt><trkpt lat="40.52358899971524" lon="8.336491780786108"><ele>49.0</ele><time>2026-05-02T13:21:14Z</time></trkpt><trkpt lat="40.523581889054" lon="8.33663833416241"><ele>49.0</ele><time>2026-05-02T13:21:15Z</time></trkpt><trkpt lat="40.52358039089651" lon="8.336770481986678"><ele>50.25</ele><time>2026-05-02T13:21:16Z</time></trkpt><trkpt lat="40.523580225820524" lon="8.336908616389373"><ele>51.5</ele><time>2026-05-02T13:21:17Z</time></trkpt><trkpt lat="40.52357198800734" lon="8.33705381422718"><ele>52.75</ele><time>2026-05-02T13:21:18Z</time></trkpt><trkpt lat="40.52354790045589" lon="8.33720907023159"><ele>54.0</ele><time>2026-05-02T13:21:19Z</time></trkpt><trkpt lat="40.52349905571149" lon="8.337366266016634"><ele>54.75</ele><time>2026-05-02T13:21:20Z</time></trkpt><trkpt lat="40.523425803149664" lon="8.337519257805736"><ele>55.5</ele><time>2026-05-02T13:21:21Z</time></trkpt><trkpt lat="40.52334357854201" lon="8.337667214249338"><ele>56.25</ele><time>2026-05-02T13:21:22Z</time></trkpt><trkpt lat="40.52325877804452" lon="8.33781518015872"><ele>57.0</ele><time>2026-05-02T13:21:23Z</time></trkpt><trkpt lat="40.5231758755282" lon="8.337961558652125"><ele>57.75</ele><time>2026-05-02T13:21:24Z</time></trkpt><trkpt lat="40.523096461909404" lon="8.338105121073646"><ele>58.5</ele><time>2026-05-02T13:21:25Z</time></trkpt><trkpt lat="40.52301563450638" lon="8.338249696143231"><ele>59.25</ele><time>2026-05-02T13:21:26Z</time></trkpt><trkpt lat="40.522932210999485" lon="8.3384016764725"><ele>60.0</ele><time>2026-05-02T13:21:27Z</time></trkpt><trkpt lat="40.52284468135444" lon="8.338564198510122"><ele>62.33333333333333</ele><time>2026-05-02T13:21:28Z</time></trkpt><trkpt lat="40.522753975262916" lon="8.338727674115983"><ele>64.66666666666666</ele><time>2026-05-02T13:21:29Z</time></trkpt><trkpt lat="40.522651163047854" lon="8.338903716342497"><ele>67.0</ele><time>2026-05-02T13:21:30Z</time></trkpt><trkpt lat="40.52255031778367" lon="8.33910304843806"><ele>67.33333333333333</ele><time>2026-05-02T13:21:31Z</time></trkpt><trkpt lat="40.52243134959872" lon="8.339324640166174"><ele>67.66666666666667</ele><time>2026-05-02T13:21:32Z</time></trkpt><trkpt lat="40.522322640668236" lon="8.33952774247141"><ele>68.0</ele><time>2026-05-02T13:21:33Z</time></trkpt><trkpt lat="40.52222558307312" lon="8.339723100936796"><ele>69.33333333333334</ele><time>2026-05-02T13:21:34Z</time></trkpt><trkpt lat="40.52213767497427" lon="8.339888643036726"><ele>70.66666666666667</ele><time>2026-05-02T13:21:35Z</time></trkpt><trkpt lat="40.52205318985395" lon="8.340053999646088"><ele>72.0</ele><time>2026-05-02T13:21:36Z</time></trkpt><trkpt lat="40.52192670541711" lon="8.340248557243727"><ele>73.0</ele><time>2026-05-02T13:21:37Z</time></trkpt><trkpt lat="40.52179866312791" lon="8.340443667740765"><ele>74.0</ele><time>2026-05-02T13:21:38Z</time></trkpt><trkpt lat="40.5216735020434" lon="8.340667885823946"><ele>75.0</ele><time>2026-05-02T13:21:39Z</time></trkpt><trkpt lat="40.52155381159895" lon="8.340895287848141"><ele>75.33333333333333</ele><time>2026-05-02T13:21:40Z</time></trkpt><trkpt lat="40.521431187476026" lon="8.341128920285922"><ele>75.66666666666666</ele><time>2026-05-02T13:21:41Z</time></trkpt><trkpt lat="40.52130175627539" lon="8.341363457891646"><ele>76.0</ele><time>2026-05-02T13:21:42Z</time></trkpt><trkpt lat="40.52117226492835" lon="8.341585024809053"><ele>77.33333333333333</ele><time>2026-05-02T13:21:43Z</time></trkpt><trkpt lat="40.52103109968489" lon="8.341787815473232"><ele>78.66666666666667</ele><time>2026-05-02T13:21:44Z</time></trkpt><trkpt lat="40.52087711671269" lon="8.341933284386577"><ele>80.0</ele><time>2026-05-02T13:21:45Z</time></trkpt><trkpt lat="40.520705133671086" lon="8.34205592509281"><ele>80.0</ele><time>2026-05-02T13:21:46Z</time></trkpt><trkpt lat="40.52052845182471" lon="8.342167843313652"><ele>80.0</ele><time>2026-05-02T13:21:47Z</time></trkpt><trkpt lat="40.52036941373951" lon="8.342265043967107"><ele>80.0</ele><time>2026-05-02T13:21:48Z</time></trkpt><trkpt lat="40.52021292857515" lon="8.342364091191937"><ele>82.66666666666667</ele><time>2026-05-02T13:21:49Z</time></trkpt><trkpt lat="40.520047727303975" lon="8.342450169480696"><ele>85.33333333333333</ele><time>2026-05-02T13:21:50Z</time></trkpt><trkpt lat="40.51987284115339" lon="8.342499787364497"><ele>88.0</ele><time>2026-05-02T13:21:51Z</time></trkpt><trkpt lat="40.519701701682" lon="8.342513604113583"><ele>89.33333333333333</ele><time>2026-05-02T13:21:52Z</time></trkpt><trkpt lat="40.519505245147954" lon="8.342489609588563"><ele>90.66666666666667</ele><time>2026-05-02T13:21:53Z</time></trkpt><trkpt lat="40.51930703297907" lon="8.342443221767772"><ele>92.0</ele><time>2026-05-02T13:21:54Z</time></trkpt><trkpt lat="40.51910278093257" lon="8.342394609288267"><ele>92.0</ele><time>2026-05-02T13:21:55Z</time></trkpt><trkpt lat="40.51889249143278" lon="8.342350550066142"><ele>92.0</ele><time>2026-05-02T13:21:56Z</time></trkpt><trkpt lat="40.518672724147386" lon="8.34232027456514"><ele>92.0</ele><time>2026-05-02T13:21:57Z</time></trkpt><trkpt lat="40.51844648360219" lon="8.34230107537712"><ele>92.5</ele><time>2026-05-02T13:21:58Z</time></trkpt><trkpt lat="40.51821342927782" lon="8.342287701939899"><ele>93.0</ele><time>2026-05-02T13:21:59Z</time></trkpt><trkpt lat="40.51797227416087" lon="8.342256524594756"><ele>93.0</ele><time>2026-05-02T13:22:00Z</time></trkpt><trkpt lat="40.51772061690401" lon="8.342254151848682"><ele>93.0</ele><time>2026-05-02T13:22:01Z</time></trkpt><trkpt lat="40.51746863818981" lon="8.342252722856927"><ele>93.0</ele><time>2026-05-02T13:22:02Z</time></trkpt><trkpt lat="40.517216364857155" lon="8.342252756969296"><ele>93.0</ele><time>2026-05-02T13:22:03Z</time></trkpt><trkpt lat="40.516972091692864" lon="8.342252976675129"><ele>93.0</ele><time>2026-05-02T13:22:04Z</time></trkpt><trkpt lat="40.516733780200305" lon="8.342250894898752"><ele>93.0</ele><time>2026-05-02T13:22:05Z</time></trkpt><trkpt lat="40.51651225965616" lon="8.342249847395083"><ele>93.0</ele><time>2026-05-02T13:22:06Z</time></trkpt><trkpt lat="40.516289145778295" lon="8.342251292018563"><ele>93.0</ele><time>2026-05-02T13:22:07Z</time></trkpt><trkpt lat="40.51606547103569" lon="8.342250709693806"><ele>93.0</ele><time>2026-05-02T13:22:08Z</time></trkpt><trkpt lat="40.51587017688765" lon="8.342247477691803"><ele>93.33333333333333</ele><time>2026-05-02T13:22:09Z</time></trkpt><trkpt lat="40.51567344766395" lon="8.342253443940077"><ele>93.66666666666666</ele><time>2026-05-02T13:22:10Z</time></trkpt><trkpt lat="40.515480213106336" lon="8.342284073408008"><ele>94.0</ele><time>2026-05-02T13:22:11Z</time></trkpt><trkpt lat="40.5152792591696" lon="8.342368413949579"><ele>94.0</ele><time>2026-05-02T13:22:12Z</time></trkpt><trkpt lat="40.51507880888714" lon="8.342491297786141"><ele>94.0</ele><time>2026-05-02T13:22:13Z</time></trkpt><trkpt lat="40.51487725286144" lon="8.342636131494661"><ele>94.0</ele><time>2026-05-02T13:22:14Z</time></trkpt><trkpt lat="40.514677064637894" lon="8.342737563651816"><ele>94.0</ele><time>2026-05-02T13:22:15Z</time></trkpt><trkpt lat="40.51449390568795" lon="8.34285090914482"><ele>94.0</ele><time>2026-05-02T13:22:16Z</time></trkpt><trkpt lat="40.51431645298545" lon="8.342964959180208"><ele>94.66666666666666</ele><time>2026-05-02T13:22:17Z</time></trkpt><trkpt lat="40.51415402983827" lon="8.343101123858709"><ele>95.33333333333333</ele><time>2026-05-02T13:22:18Z</time></trkpt><trkpt lat="40.51402244806029" lon="8.343286736262215"><ele>96.0</ele><time>2026-05-02T13:22:19Z</time></trkpt><trkpt lat="40.513895007645225" lon="8.343503708721764"><ele>96.0</ele><time>2026-05-02T13:22:20Z</time></trkpt><trkpt lat="40.51375232576944" lon="8.343727868693586"><ele>96.0</ele><time>2026-05-02T13:22:21Z</time></trkpt><trkpt lat="40.51362348376817" lon="8.343958188028791"><ele>96.0</ele><time>2026-05-02T13:22:22Z</time></trkpt><trkpt lat="40.513502476546144" lon="8.344174501825876"><ele>95.66666666666667</ele><time>2026-05-02T13:22:23Z</time></trkpt><trkpt lat="40.51337145126683" lon="8.344408724013327"><ele>95.33333333333334</ele><time>2026-05-02T13:22:24Z</time></trkpt><trkpt lat="40.513245207953936" lon="8.344654663422112"><ele>95.0</ele><time>2026-05-02T13:22:25Z</time></trkpt><trkpt lat="40.51311041986015" lon="8.344875500995744"><ele>95.33333333333334</ele><time>2026-05-02T13:22:26Z</time></trkpt><trkpt lat="40.512994641179866" lon="8.345114799179592"><ele>95.66666666666667</ele><time>2026-05-02T13:22:27Z</time></trkpt><trkpt lat="40.512871730291906" lon="8.345330619260023"><ele>96.0</ele><time>2026-05-02T13:22:28Z</time></trkpt><trkpt lat="40.512755199612116" lon="8.345529641640066"><ele>97.0</ele><time>2026-05-02T13:22:29Z</time></trkpt><trkpt lat="40.51264382906209" lon="8.345731470043374"><ele>98.0</ele><time>2026-05-02T13:22:30Z</time></trkpt><trkpt lat="40.512543328634344" lon="8.345937188324877"><ele>99.0</ele><time>2026-05-02T13:22:31Z</time></trkpt><trkpt lat="40.51245874155968" lon="8.346150428124856"><ele>99.0</ele><time>2026-05-02T13:22:32Z</time></trkpt><trkpt lat="40.51240401154516" lon="8.346359984971958"><ele>99.0</ele><time>2026-05-02T13:22:33Z</time></trkpt><trkpt lat="40.51237009160358" lon="8.346571032183299"><ele>99.0</ele><time>2026-05-02T13:22:34Z</time></trkpt><trkpt lat="40.51234700448691" lon="8.346780359378416"><ele>99.0</ele><time>2026-05-02T13:22:35Z</time></trkpt><trkpt lat="40.51232468624316" lon="8.346988425639276"><ele>99.0</ele><time>2026-05-02T13:22:36Z</time></trkpt><trkpt lat="40.512303127000344" lon="8.347212264899209"><ele>99.0</ele><time>2026-05-02T13:22:37Z</time></trkpt><trkpt lat="40.51228006824499" lon="8.34743690632199"><ele>99.5</ele><time>2026-05-02T13:22:38Z</time></trkpt><trkpt lat="40.51225268153177" lon="8.347623685808111"><ele>100.0</ele><time>2026-05-02T13:22:39Z</time></trkpt><trkpt lat="40.51222514732417" lon="8.347840995852412"><ele>100.5</ele><time>2026-05-02T13:22:40Z</time></trkpt><trkpt lat="40.51220544238767" lon="8.347990432674525"><ele>101.0</ele><time>2026-05-02T13:22:41Z</time></trkpt><trkpt lat="40.51217253757739" lon="8.34816789220983"><ele>101.25</ele><time>2026-05-02T13:22:42Z</time></trkpt><trkpt lat="40.51215471170794" lon="8.348335224569402"><ele>101.5</ele><time>2026-05-02T13:22:43Z</time></trkpt><trkpt lat="40.51214480763526" lon="8.34847774102676"><ele>101.75</ele><time>2026-05-02T13:22:44Z</time></trkpt><trkpt lat="40.51214868077656" lon="8.348631039690467"><ele>102.0</ele><time>2026-05-02T13:22:45Z</time></trkpt><trkpt lat="40.512165241712296" lon="8.348807649776015"><ele>103.0</ele><time>2026-05-02T13:22:46Z</time></trkpt><trkpt lat="40.512203266809244" lon="8.349017649603711"><ele>104.0</ele><time>2026-05-02T13:22:47Z</time></trkpt><trkpt lat="40.51223925145705" lon="8.34923317217588"><ele>105.0</ele><time>2026-05-02T13:22:48Z</time></trkpt><trkpt lat="40.51227832969063" lon="8.349488436213758"><ele>105.33333333333334</ele><time>2026-05-02T13:22:49Z</time></trkpt><trkpt lat="40.512315604078886" lon="8.349738575456062"><ele>105.66666666666667</ele><time>2026-05-02T13:22:50Z</time></trkpt><trkpt lat="40.512351991125705" lon="8.350003453076496"><ele>106.0</ele><time>2026-05-02T13:22:51Z</time></trkpt><trkpt lat="40.512386910771895" lon="8.350271265918217"><ele>106.0</ele><time>2026-05-02T13:22:52Z</time></trkpt><trkpt lat="40.51242369097281" lon="8.350540177357916"><ele>106.0</ele><time>2026-05-02T13:22:53Z</time></trkpt><trkpt lat="40.512456561414446" lon="8.350800659977983"><ele>106.0</ele><time>2026-05-02T13:22:54Z</time></trkpt><trkpt lat="40.51248917711595" lon="8.351058988534493"><ele>105.66666666666667</ele><time>2026-05-02T13:22:55Z</time></trkpt><trkpt lat="40.51250879209073" lon="8.351284145855471"><ele>105.33333333333334</ele><time>2026-05-02T13:22:56Z</time></trkpt><trkpt lat="40.5125381344716" lon="8.351488109698781"><ele>105.0</ele><time>2026-05-02T13:22:57Z</time></trkpt><trkpt lat="40.51256780935285" lon="8.351693120503889"><ele>106.25</ele><time>2026-05-02T13:22:58Z</time></trkpt><trkpt lat="40.512593437287364" lon="8.351879634898324"><ele>107.5</ele><time>2026-05-02T13:22:59Z</time></trkpt><trkpt lat="40.512622712992716" lon="8.35206431423241"><ele>108.75</ele><time>2026-05-02T13:23:00Z</time></trkpt><trkpt lat="40.512644950079064" lon="8.352244195046044"><ele>110.0</ele><time>2026-05-02T13:23:01Z</time></trkpt><trkpt lat="40.51266842483352" lon="8.352407619621278"><ele>110.0</ele><time>2026-05-02T13:23:02Z</time></trkpt><trkpt lat="40.51269405628702" lon="8.352569355533213"><ele>110.0</ele><time>2026-05-02T13:23:03Z</time></trkpt><trkpt lat="40.51271053712722" lon="8.352712908871114"><ele>110.0</ele><time>2026-05-02T13:23:04Z</time></trkpt><trkpt lat="40.51271746420683" lon="8.35287237487249"><ele>110.0</ele><time>2026-05-02T13:23:05Z</time></trkpt><trkpt lat="40.512691256487514" lon="8.35304163773945"><ele>110.0</ele><time>2026-05-02T13:23:06Z</time></trkpt><trkpt lat="40.51262739024259" lon="8.353205875575833"><ele>110.0</ele><time>2026-05-02T13:23:07Z</time></trkpt><trkpt lat="40.5125444651013" lon="8.353364554461916"><ele>110.0</ele><time>2026-05-02T13:23:08Z</time></trkpt><trkpt lat="40.51245452436814" lon="8.353532639746035"><ele>110.0</ele><time>2026-05-02T13:23:09Z</time></trkpt><trkpt lat="40.512350759699174" lon="8.353731366913633"><ele>108.33333333333333</ele><time>2026-05-02T13:23:10Z</time></trkpt><trkpt lat="40.51223965358532" lon="8.353955617758128"><ele>106.66666666666666</ele><time>2026-05-02T13:23:11Z</time></trkpt><trkpt lat="40.51212823356108" lon="8.35418016749943"><ele>105.0</ele><time>2026-05-02T13:23:12Z</time></trkpt><trkpt lat="40.51202017962728" lon="8.354390524824822"><ele>103.66666666666666</ele><time>2026-05-02T13:23:13Z</time></trkpt><trkpt lat="40.511918871429124" lon="8.3545833337737"><ele>102.33333333333333</ele><time>2026-05-02T13:23:14Z</time></trkpt><trkpt lat="40.511824600865786" lon="8.354769128103957"><ele>101.0</ele><time>2026-05-02T13:23:15Z</time></trkpt><trkpt lat="40.51172856148816" lon="8.35494023513649"><ele>98.66666666666666</ele><time>2026-05-02T13:23:16Z</time></trkpt><trkpt lat="40.51162801325617" lon="8.355109777237086"><ele>96.33333333333333</ele><time>2026-05-02T13:23:17Z</time></trkpt><trkpt lat="40.51149794145654" lon="8.35527053199866"><ele>94.0</ele><time>2026-05-02T13:23:18Z</time></trkpt><trkpt lat="40.511332256295624" lon="8.355447357346936"><ele>89.5</ele><time>2026-05-02T13:23:19Z</time></trkpt><trkpt lat="40.51113566102562" lon="8.355633771251508"><ele>85.0</ele><time>2026-05-02T13:23:20Z</time></trkpt><trkpt lat="40.51091874028727" lon="8.355811912532213"><ele>85.0</ele><time>2026-05-02T13:23:21Z</time></trkpt><trkpt lat="40.51070963067297" lon="8.355959562824603"><ele>85.0</ele><time>2026-05-02T13:23:22Z</time></trkpt><trkpt lat="40.51051290599651" lon="8.356115772159201"><ele>82.66666666666666</ele><time>2026-05-02T13:23:23Z</time></trkpt><trkpt lat="40.5103387958687" lon="8.356271397346658"><ele>80.33333333333333</ele><time>2026-05-02T13:23:24Z</time></trkpt><trkpt lat="40.51020980854357" lon="8.356419920391042"><ele>78.0</ele><time>2026-05-02T13:23:25Z</time></trkpt><trkpt lat="40.51005939970335" lon="8.356531885591895"><ele>77.33333333333333</ele><time>2026-05-02T13:23:26Z</time></trkpt><trkpt lat="40.50990664002622" lon="8.3565991178119"><ele>76.66666666666666</ele><time>2026-05-02T13:23:27Z</time></trkpt><trkpt lat="40.50973714218364" lon="8.356624093049014"><ele>76.0</ele><time>2026-05-02T13:23:28Z</time></trkpt><trkpt lat="40.509528991834145" lon="8.356612658329803"><ele>72.0</ele><time>2026-05-02T13:23:29Z</time></trkpt><trkpt lat="40.50929594062969" lon="8.35659232056397"><ele>68.0</ele><time>2026-05-02T13:23:30Z</time></trkpt><trkpt lat="40.509045713302655" lon="8.35656690963265"><ele>68.0</ele><time>2026-05-02T13:23:31Z</time></trkpt><trkpt lat="40.508771244678606" lon="8.35654426000029"><ele>68.0</ele><time>2026-05-02T13:23:32Z</time></trkpt><trkpt lat="40.50849203978763" lon="8.356532323214608"><ele>65.5</ele><time>2026-05-02T13:23:33Z</time></trkpt><trkpt lat="40.50819373621574" lon="8.356518964649293"><ele>63.0</ele><time>2026-05-02T13:23:34Z</time></trkpt><trkpt lat="40.50789017941014" lon="8.356499371626164"><ele>61.0</ele><time>2026-05-02T13:23:35Z</time></trkpt><trkpt lat="40.50761092381139" lon="8.356484785755342"><ele>59.0</ele><time>2026-05-02T13:23:36Z</time></trkpt><trkpt lat="40.50734837432235" lon="8.356465601530639"><ele>59.0</ele><time>2026-05-02T13:23:37Z</time></trkpt><trkpt lat="40.507105768680006" lon="8.356440552123768"><ele>59.0</ele><time>2026-05-02T13:23:38Z</time></trkpt><trkpt lat="40.506868584809474" lon="8.356440942907328"><ele>57.5</ele><time>2026-05-02T13:23:39Z</time></trkpt><trkpt lat="40.50663639067459" lon="8.356425495447297"><ele>56.0</ele><time>2026-05-02T13:23:40Z</time></trkpt><trkpt lat="40.50641533453101" lon="8.356421374987274"><ele>56.333333333333336</ele><time>2026-05-02T13:23:41Z</time></trkpt><trkpt lat="40.50620268447643" lon="8.356464717159064"><ele>56.66666666666667</ele><time>2026-05-02T13:23:42Z</time></trkpt><trkpt lat="40.50598914626225" lon="8.356550574672319"><ele>57.0</ele><time>2026-05-02T13:23:43Z</time></trkpt><trkpt lat="40.50578313053182" lon="8.356681568672197"><ele>57.0</ele><time>2026-05-02T13:23:44Z</time></trkpt><trkpt lat="40.505579637320245" lon="8.35683698625223"><ele>57.0</ele><time>2026-05-02T13:23:45Z</time></trkpt><trkpt lat="40.50536952342201" lon="8.35700126926463"><ele>59.0</ele><time>2026-05-02T13:23:46Z</time></trkpt><trkpt lat="40.50515478225291" lon="8.357157707152536"><ele>61.0</ele><time>2026-05-02T13:23:47Z</time></trkpt><trkpt lat="40.504949490462735" lon="8.357316150047314"><ele>61.0</ele><time>2026-05-02T13:23:48Z</time></trkpt><trkpt lat="40.5047544528831" lon="8.3574374469554"><ele>61.0</ele><time>2026-05-02T13:23:49Z</time></trkpt><trkpt lat="40.50453960548587" lon="8.357557793471814"><ele>61.0</ele><time>2026-05-02T13:23:50Z</time></trkpt><trkpt lat="40.504303582799984" lon="8.357665814329048"><ele>62.5</ele><time>2026-05-02T13:23:51Z</time></trkpt><trkpt lat="40.50405729434117" lon="8.357768993420219"><ele>64.0</ele><time>2026-05-02T13:23:52Z</time></trkpt><trkpt lat="40.50382706416056" lon="8.35785901360843"><ele>64.33333333333333</ele><time>2026-05-02T13:23:53Z</time></trkpt><trkpt lat="40.50362333629868" lon="8.357943221217107"><ele>64.66666666666667</ele><time>2026-05-02T13:23:54Z</time></trkpt><trkpt lat="40.50342902487304" lon="8.358023604906442"><ele>65.0</ele><time>2026-05-02T13:23:55Z</time></trkpt><trkpt lat="40.50324953959695" lon="8.358107690568804"><ele>65.0</ele><time>2026-05-02T13:23:56Z</time></trkpt><trkpt lat="40.503097580133186" lon="8.358213597318175"><ele>65.0</ele><time>2026-05-02T13:23:57Z</time></trkpt><trkpt lat="40.50297232688053" lon="8.358355583932807"><ele>65.0</ele><time>2026-05-02T13:23:58Z</time></trkpt><trkpt lat="40.50288325924144" lon="8.358532914984481"><ele>68.33333333333334</ele><time>2026-05-02T13:23:59Z</time></trkpt><trkpt lat="40.50280996896098" lon="8.358748417354226"><ele>71.66666666666667</ele><time>2026-05-02T13:24:00Z</time></trkpt><trkpt lat="40.5027469276688" lon="8.358979383168187"><ele>75.0</ele><time>2026-05-02T13:24:01Z</time></trkpt><trkpt lat="40.50266261467386" lon="8.359208162118458"><ele>75.0</ele><time>2026-05-02T13:24:02Z</time></trkpt><trkpt lat="40.502559010294306" lon="8.359443455667424"><ele>75.0</ele><time>2026-05-02T13:24:03Z</time></trkpt><trkpt lat="40.502472233112215" lon="8.359686132455046"><ele>75.0</ele><time>2026-05-02T13:24:04Z</time></trkpt><trkpt lat="40.50240907382593" lon="8.3599498714765"><ele>73.0</ele><time>2026-05-02T13:24:05Z</time></trkpt><trkpt lat="40.5023729024704" lon="8.36022294195258"><ele>71.0</ele><time>2026-05-02T13:24:06Z</time></trkpt><trkpt lat="40.5023403862818" lon="8.360511687941953"><ele>69.0</ele><time>2026-05-02T13:24:07Z</time></trkpt><trkpt lat="40.50233057278653" lon="8.360759250567142"><ele>67.33333333333333</ele><time>2026-05-02T13:24:08Z</time></trkpt><trkpt lat="40.50228710120135" lon="8.361002111369544"><ele>65.66666666666666</ele><time>2026-05-02T13:24:09Z</time></trkpt><trkpt lat="40.502233820274505" lon="8.361248244116547"><ele>64.0</ele><time>2026-05-02T13:24:10Z</time></trkpt><trkpt lat="40.50217424342787" lon="8.361513777250805"><ele>62.33333333333333</ele><time>2026-05-02T13:24:11Z</time></trkpt><trkpt lat="40.502116235545294" lon="8.361792020876782"><ele>60.66666666666667</ele><time>2026-05-02T13:24:12Z</time></trkpt><trkpt lat="40.50204969342787" lon="8.362073986019348"><ele>59.0</ele><time>2026-05-02T13:24:13Z</time></trkpt><trkpt lat="40.50198527351688" lon="8.362368614350807"><ele>63.0</ele><time>2026-05-02T13:24:14Z</time></trkpt><trkpt lat="40.50191804887516" lon="8.362642749792476"><ele>67.0</ele><time>2026-05-02T13:24:15Z</time></trkpt><trkpt lat="40.50185369639041" lon="8.362933462388876"><ele>71.0</ele><time>2026-05-02T13:24:16Z</time></trkpt><trkpt lat="40.501795681331956" lon="8.363209054447028"><ele>71.0</ele><time>2026-05-02T13:24:17Z</time></trkpt><trkpt lat="40.50174467706266" lon="8.363482320537775"><ele>71.0</ele><time>2026-05-02T13:24:18Z</time></trkpt><trkpt lat="40.501685363236156" lon="8.363739138080973"><ele>71.0</ele><time>2026-05-02T13:24:19Z</time></trkpt><trkpt lat="40.501619539651514" lon="8.363982396466929"><ele>68.66666666666667</ele><time>2026-05-02T13:24:20Z</time></trkpt><trkpt lat="40.5015572534767" lon="8.364214692042998"><ele>66.33333333333333</ele><time>2026-05-02T13:24:21Z</time></trkpt><trkpt lat="40.50149330535299" lon="8.364449830933372"><ele>64.0</ele><time>2026-05-02T13:24:22Z</time></trkpt><trkpt lat="40.50142197022632" lon="8.364692502005791"><ele>66.33333333333333</ele><time>2026-05-02T13:24:23Z</time></trkpt><trkpt lat="40.50133365678233" lon="8.36492350352307"><ele>68.66666666666667</ele><time>2026-05-02T13:24:24Z</time></trkpt><trkpt lat="40.50120760988818" lon="8.365127708308975"><ele>71.0</ele><time>2026-05-02T13:24:25Z</time></trkpt><trkpt lat="40.50106021837309" lon="8.365299096013812"><ele>71.0</ele><time>2026-05-02T13:24:26Z</time></trkpt><trkpt lat="40.50088907253969" lon="8.365441701121494"><ele>71.0</ele><time>2026-05-02T13:24:27Z</time></trkpt><trkpt lat="40.50068706400077" lon="8.365570548033459"><ele>71.0</ele><time>2026-05-02T13:24:28Z</time></trkpt><trkpt lat="40.500464623414366" lon="8.365685903020148"><ele>64.0</ele><time>2026-05-02T13:24:29Z</time></trkpt><trkpt lat="40.500293211835164" lon="8.365824083132127"><ele>57.0</ele><time>2026-05-02T13:24:30Z</time></trkpt><trkpt lat="40.50010771112336" lon="8.36594900718841"><ele>50.0</ele><time>2026-05-02T13:24:31Z</time></trkpt><trkpt lat="40.49993676578313" lon="8.366069268669017"><ele>50.0</ele><time>2026-05-02T13:24:32Z</time></trkpt><trkpt lat="40.499777366038074" lon="8.366196106363711"><ele>50.0</ele><time>2026-05-02T13:24:33Z</time></trkpt><trkpt lat="40.499634314636744" lon="8.366348606667414"><ele>50.0</ele><time>2026-05-02T13:24:34Z</time></trkpt><trkpt lat="40.499517351288624" lon="8.366521036261249"><ele>48.66666666666667</ele><time>2026-05-02T13:24:35Z</time></trkpt><trkpt lat="40.499445558047945" lon="8.366729175192242"><ele>47.333333333333336</ele><time>2026-05-02T13:24:36Z</time></trkpt><trkpt lat="40.499411856034946" lon="8.366948551835304"><ele>46.0</ele><time>2026-05-02T13:24:37Z</time></trkpt><trkpt lat="40.499411630108895" lon="8.367180944548293"><ele>42.0</ele><time>2026-05-02T13:24:38Z</time></trkpt><trkpt lat="40.49941850476942" lon="8.367402424800122"><ele>38.0</ele><time>2026-05-02T13:24:39Z</time></trkpt><trkpt lat="40.49938328839196" lon="8.367619964934002"><ele>34.0</ele><time>2026-05-02T13:24:40Z</time></trkpt><trkpt lat="40.499303009475256" lon="8.367798529842744"><ele>34.0</ele><time>2026-05-02T13:24:41Z</time></trkpt><trkpt lat="40.49918786146035" lon="8.367944274225678"><ele>34.0</ele><time>2026-05-02T13:24:42Z</time></trkpt><trkpt lat="40.49904902915484" lon="8.368052157022781"><ele>34.0</ele><time>2026-05-02T13:24:43Z</time></trkpt><trkpt lat="40.49889686993985" lon="8.368108928338302"><ele>33.333333333333336</ele><time>2026-05-02T13:24:44Z</time></trkpt><trkpt lat="40.498725109609076" lon="8.368118343749618"><ele>32.666666666666664</ele><time>2026-05-02T13:24:45Z</time></trkpt><trkpt lat="40.49854169263454" lon="8.368083434704976"><ele>32.0</ele><time>2026-05-02T13:24:46Z</time></trkpt><trkpt lat="40.49835817214025" lon="8.368017525659496"><ele>32.0</ele><time>2026-05-02T13:24:47Z</time></trkpt><trkpt lat="40.498202703362004" lon="8.367947723810166"><ele>32.0</ele><time>2026-05-02T13:24:48Z</time></trkpt><trkpt lat="40.498072846282575" lon="8.367906574261045"><ele>32.0</ele><time>2026-05-02T13:24:49Z</time></trkpt><trkpt lat="40.49797033498096" lon="8.367884894996111"><ele>32.0</ele><time>2026-05-02T13:24:50Z</time></trkpt><trkpt lat="40.49785283964938" lon="8.367939141925362"><ele>26.5</ele><time>2026-05-02T13:24:51Z</time></trkpt><trkpt lat="40.49774183239924" lon="8.368038386575375"><ele>21.0</ele><time>2026-05-02T13:24:52Z</time></trkpt><trkpt lat="40.497672387240925" lon="8.368180947515523"><ele>15.5</ele><time>2026-05-02T13:24:53Z</time></trkpt><trkpt lat="40.49762788190741" lon="8.368335728362041"><ele>10.0</ele><time>2026-05-02T13:24:54Z</time></trkpt><trkpt lat="40.49760616752872" lon="8.368503523597242"><ele>10.0</ele><time>2026-05-02T13:24:55Z</time></trkpt><trkpt lat="40.49758596876859" lon="8.368677067812733"><ele>10.0</ele><time>2026-05-02T13:24:56Z</time></trkpt><trkpt lat="40.497564540731624" lon="8.368851049022249"><ele>10.0</ele><time>2026-05-02T13:24:57Z</time></trkpt><trkpt lat="40.49753819359667" lon="8.369023489973673"><ele>10.0</ele><time>2026-05-02T13:24:58Z</time></trkpt><trkpt lat="40.49751503991927" lon="8.369192520234773"><ele>9.75</ele><time>2026-05-02T13:24:59Z</time></trkpt><trkpt lat="40.4974837702822" lon="8.369352194247615"><ele>9.5</ele><time>2026-05-02T13:25:00Z</time></trkpt><trkpt lat="40.497458414739725" lon="8.369537080072275"><ele>9.25</ele><time>2026-05-02T13:25:01Z</time></trkpt><trkpt lat="40.497428203747255" lon="8.369727316646232"><ele>9.0</ele><time>2026-05-02T13:25:02Z</time></trkpt><trkpt lat="40.49740365121715" lon="8.369946177026929"><ele>10.333333333333332</ele><time>2026-05-02T13:25:03Z</time></trkpt><trkpt lat="40.49736671792304" lon="8.370178817143442"><ele>11.666666666666666</ele><time>2026-05-02T13:25:04Z</time></trkpt><trkpt lat="40.49734060754248" lon="8.370431487156466"><ele>13.0</ele><time>2026-05-02T13:25:05Z</time></trkpt><trkpt lat="40.4972958791258" lon="8.370651130000642"><ele>13.75</ele><time>2026-05-02T13:25:06Z</time></trkpt><trkpt lat="40.49724313507462" lon="8.370829012938513"><ele>14.5</ele><time>2026-05-02T13:25:07Z</time></trkpt><trkpt lat="40.49715411542502" lon="8.370963062382325"><ele>15.25</ele><time>2026-05-02T13:25:08Z</time></trkpt><trkpt lat="40.49702671650698" lon="8.371045462566316"><ele>16.0</ele><time>2026-05-02T13:25:09Z</time></trkpt><trkpt lat="40.49687427570738" lon="8.371097461828187"><ele>16.0</ele><time>2026-05-02T13:25:10Z</time></trkpt><trkpt lat="40.49668611060959" lon="8.371148162553581"><ele>16.0</ele><time>2026-05-02T13:25:11Z</time></trkpt><trkpt lat="40.49648658869956" lon="8.371209444705944"><ele>16.0</ele><time>2026-05-02T13:25:12Z</time></trkpt><trkpt lat="40.49628727467431" lon="8.371296258304119"><ele>17.5</ele><time>2026-05-02T13:25:13Z</time></trkpt><trkpt lat="40.496062072522726" lon="8.371391322601921"><ele>19.0</ele><time>2026-05-02T13:25:14Z</time></trkpt><trkpt lat="40.49582534653568" lon="8.371481314197737"><ele>19.0</ele><time>2026-05-02T13:25:15Z</time></trkpt><trkpt lat="40.49558165412587" lon="8.371582677967107"><ele>19.0</ele><time>2026-05-02T13:25:16Z</time></trkpt><trkpt lat="40.49533731549513" lon="8.371689995626244"><ele>19.5</ele><time>2026-05-02T13:25:17Z</time></trkpt><trkpt lat="40.49509969589833" lon="8.371798612164888"><ele>20.0</ele><time>2026-05-02T13:25:18Z</time></trkpt><trkpt lat="40.49483874911819" lon="8.371932244184531"><ele>20.0</ele><time>2026-05-02T13:25:19Z</time></trkpt><trkpt lat="40.494614120997504" lon="8.372047713388973"><ele>20.0</ele><time>2026-05-02T13:25:20Z</time></trkpt><trkpt lat="40.494417175330256" lon="8.37215428782525"><ele>22.0</ele><time>2026-05-02T13:25:21Z</time></trkpt><trkpt lat="40.4942308410404" lon="8.372257201225755"><ele>24.0</ele><time>2026-05-02T13:25:22Z</time></trkpt><trkpt lat="40.4940607343922" lon="8.37238442995929"><ele>26.0</ele><time>2026-05-02T13:25:23Z</time></trkpt><trkpt lat="40.493910884136646" lon="8.372552041297325"><ele>26.0</ele><time>2026-05-02T13:25:24Z</time></trkpt><trkpt lat="40.493776881875334" lon="8.372756309716596"><ele>26.0</ele><time>2026-05-02T13:25:25Z</time></trkpt><trkpt lat="40.49362730477126" lon="8.372994057566428"><ele>26.0</ele><time>2026-05-02T13:25:26Z</time></trkpt><trkpt lat="40.49347434124053" lon="8.373230148393919"><ele>27.666666666666664</ele><time>2026-05-02T13:25:27Z</time></trkpt><trkpt lat="40.49333432586868" lon="8.373436472041643"><ele>29.333333333333336</ele><time>2026-05-02T13:25:28Z</time></trkpt><trkpt lat="40.493213976666844" lon="8.373628113975178"><ele>31.0</ele><time>2026-05-02T13:25:29Z</time></trkpt><trkpt lat="40.49308268332615" lon="8.373803234174837"><ele>33.66666666666667</ele><time>2026-05-02T13:25:30Z</time></trkpt><trkpt lat="40.492945532267456" lon="8.3739228614083"><ele>36.333333333333336</ele><time>2026-05-02T13:25:31Z</time></trkpt><trkpt lat="40.49278008241637" lon="8.373986603249218"><ele>39.0</ele><time>2026-05-02T13:25:32Z</time></trkpt><trkpt lat="40.49259069021691" lon="8.374020656672688"><ele>39.0</ele><time>2026-05-02T13:25:33Z</time></trkpt><trkpt lat="40.49238546020015" lon="8.37405324888861"><ele>39.0</ele><time>2026-05-02T13:25:34Z</time></trkpt><trkpt lat="40.492190526352765" lon="8.374085632457513"><ele>39.0</ele><time>2026-05-02T13:25:35Z</time></trkpt><trkpt lat="40.491995920825524" lon="8.37414876224044"><ele>36.666666666666664</ele><time>2026-05-02T13:25:36Z</time></trkpt><trkpt lat="40.49182424823401" lon="8.374260996720107"><ele>34.33333333333333</ele><time>2026-05-02T13:25:37Z</time></trkpt><trkpt lat="40.4916587737067" lon="8.3744116747546"><ele>32.0</ele><time>2026-05-02T13:25:38Z</time></trkpt><trkpt lat="40.49147511418504" lon="8.374578677747188"><ele>35.33333333333333</ele><time>2026-05-02T13:25:39Z</time></trkpt><trkpt lat="40.491285210286215" lon="8.374742644978424"><ele>38.666666666666664</ele><time>2026-05-02T13:25:40Z</time></trkpt><trkpt lat="40.491105024449766" lon="8.374905217737497"><ele>42.0</ele><time>2026-05-02T13:25:41Z</time></trkpt><trkpt lat="40.49093691374456" lon="8.375048710822112"><ele>42.0</ele><time>2026-05-02T13:25:42Z</time></trkpt><trkpt lat="40.49076772793927" lon="8.375184927528021"><ele>42.0</ele><time>2026-05-02T13:25:43Z</time></trkpt><trkpt lat="40.490618479108456" lon="8.375305729569156"><ele>42.0</ele><time>2026-05-02T13:25:44Z</time></trkpt><trkpt lat="40.49047787248995" lon="8.375442916123342"><ele>43.0</ele><time>2026-05-02T13:25:45Z</time></trkpt><trkpt lat="40.490354266199994" lon="8.375623210102056"><ele>44.0</ele><time>2026-05-02T13:25:46Z</time></trkpt><trkpt lat="40.49026949058523" lon="8.375827612378785"><ele>45.0</ele><time>2026-05-02T13:25:47Z</time></trkpt><trkpt lat="40.490235371617594" lon="8.376046477119402"><ele>45.0</ele><time>2026-05-02T13:25:48Z</time></trkpt><trkpt lat="40.490237577089545" lon="8.376281836760462"><ele>45.0</ele><time>2026-05-02T13:25:49Z</time></trkpt><trkpt lat="40.49028637922023" lon="8.376515170662056"><ele>45.0</ele><time>2026-05-02T13:25:50Z</time></trkpt><trkpt lat="40.490368065625134" lon="8.376721964320941"><ele>49.33333333333333</ele><time>2026-05-02T13:25:51Z</time></trkpt><trkpt lat="40.490477271356085" lon="8.376932743732983"><ele>53.666666666666664</ele><time>2026-05-02T13:25:52Z</time></trkpt><trkpt lat="40.49057679121388" lon="8.377145005201106"><ele>58.0</ele><time>2026-05-02T13:25:53Z</time></trkpt><trkpt lat="40.49072230831637" lon="8.37739140745941"><ele>58.0</ele><time>2026-05-02T13:25:54Z</time></trkpt><trkpt lat="40.49079707058305" lon="8.377593220917001"><ele>58.0</ele><time>2026-05-02T13:25:55Z</time></trkpt><trkpt lat="40.4908323193709" lon="8.37779761442556"><ele>58.0</ele><time>2026-05-02T13:25:56Z</time></trkpt><trkpt lat="40.49081203072412" lon="8.377984399813881"><ele>60.666666666666664</ele><time>2026-05-02T13:25:57Z</time></trkpt><trkpt lat="40.49074738918519" lon="8.378158009165151"><ele>63.33333333333333</ele><time>2026-05-02T13:25:58Z</time></trkpt><trkpt lat="40.490642541008995" lon="8.378313615620408"><ele>66.0</ele><time>2026-05-02T13:25:59Z</time></trkpt><trkpt lat="40.4905063524807" lon="8.378448582876736"><ele>61.33333333333333</ele><time>2026-05-02T13:26:00Z</time></trkpt><trkpt lat="40.49034531390419" lon="8.378527619524965"><ele>56.666666666666664</ele><time>2026-05-02T13:26:01Z</time></trkpt><trkpt lat="40.49017431354196" lon="8.37855109713287"><ele>52.0</ele><time>2026-05-02T13:26:02Z</time></trkpt><trkpt lat="40.49000534511009" lon="8.378516851003338"><ele>52.0</ele><time>2026-05-02T13:26:03Z</time></trkpt><trkpt lat="40.489846525314" lon="8.378408807088432"><ele>52.0</ele><time>2026-05-02T13:26:04Z</time></trkpt><trkpt lat="40.48970427684797" lon="8.378241876034368"><ele>52.0</ele><time>2026-05-02T13:26:05Z</time></trkpt><trkpt lat="40.489571338107496" lon="8.37804120836364"><ele>50.0</ele><time>2026-05-02T13:26:06Z</time></trkpt><trkpt lat="40.48944940762762" lon="8.377835019735416"><ele>48.0</ele><time>2026-05-02T13:26:07Z</time></trkpt><trkpt lat="40.48934887001881" lon="8.377656107698627"><ele>46.0</ele><time>2026-05-02T13:26:08Z</time></trkpt><trkpt lat="40.48928276335771" lon="8.377469103379697"><ele>46.0</ele><time>2026-05-02T13:26:09Z</time></trkpt><trkpt lat="40.489250511765086" lon="8.377241414140373"><ele>46.0</ele><time>2026-05-02T13:26:10Z</time></trkpt><trkpt lat="40.489223114795536" lon="8.376978114088583"><ele>46.0</ele><time>2026-05-02T13:26:11Z</time></trkpt><trkpt lat="40.48918173101123" lon="8.376721002632966"><ele>43.0</ele><time>2026-05-02T13:26:12Z</time></trkpt><trkpt lat="40.489154240930716" lon="8.376489058537473"><ele>40.0</ele><time>2026-05-02T13:26:13Z</time></trkpt><trkpt lat="40.48910522411749" lon="8.376281948799768"><ele>37.0</ele><time>2026-05-02T13:26:14Z</time></trkpt><trkpt lat="40.489011566648756" lon="8.376085076880537"><ele>34.66666666666667</ele><time>2026-05-02T13:26:15Z</time></trkpt><trkpt lat="40.488876873913185" lon="8.375944779586652"><ele>32.333333333333336</ele><time>2026-05-02T13:26:16Z</time></trkpt><trkpt lat="40.48871351609154" lon="8.375846673198893"><ele>30.0</ele><time>2026-05-02T13:26:17Z</time></trkpt><trkpt lat="40.488525095235694" lon="8.375815251459297"><ele>29.333333333333336</ele><time>2026-05-02T13:26:18Z</time></trkpt><trkpt lat="40.48832378922094" lon="8.37585022224125"><ele>28.666666666666668</ele><time>2026-05-02T13:26:19Z</time></trkpt><trkpt lat="40.488149368934224" lon="8.375954398753123"><ele>28.0</ele><time>2026-05-02T13:26:20Z</time></trkpt><trkpt lat="40.48797660661805" lon="8.376090999174918"><ele>30.333333333333336</ele><time>2026-05-02T13:26:21Z</time></trkpt><trkpt lat="40.48780497140042" lon="8.376247945442962"><ele>32.666666666666664</ele><time>2026-05-02T13:26:22Z</time></trkpt><trkpt lat="40.487638268870626" lon="8.376406418596327"><ele>35.0</ele><time>2026-05-02T13:26:23Z</time></trkpt><trkpt lat="40.48747819949063" lon="8.376567955327973"><ele>35.0</ele><time>2026-05-02T13:26:24Z</time></trkpt><trkpt lat="40.4873390640613" lon="8.376691495426117"><ele>35.0</ele><time>2026-05-02T13:26:25Z</time></trkpt><trkpt lat="40.48720746663011" lon="8.376845389937246"><ele>35.0</ele><time>2026-05-02T13:26:26Z</time></trkpt><trkpt lat="40.487102863405966" lon="8.377041710172357"><ele>33.33333333333333</ele><time>2026-05-02T13:26:27Z</time></trkpt><trkpt lat="40.48702835876613" lon="8.377260280953996"><ele>31.666666666666664</ele><time>2026-05-02T13:26:28Z</time></trkpt><trkpt lat="40.48697538870345" lon="8.377483262259732"><ele>30.0</ele><time>2026-05-02T13:26:29Z</time></trkpt><trkpt lat="40.48694456044232" lon="8.377696407644876"><ele>30.0</ele><time>2026-05-02T13:26:30Z</time></trkpt><trkpt lat="40.486902642967905" lon="8.377896534456108"><ele>30.0</ele><time>2026-05-02T13:26:31Z</time></trkpt><trkpt lat="40.48682078200368" lon="8.37805909380555"><ele>30.0</ele><time>2026-05-02T13:26:32Z</time></trkpt><trkpt lat="40.48671708526463" lon="8.378195029702631"><ele>32.666666666666664</ele><time>2026-05-02T13:26:33Z</time></trkpt><trkpt lat="40.486569582181026" lon="8.378289833141062"><ele>35.33333333333333</ele><time>2026-05-02T13:26:34Z</time></trkpt><trkpt lat="40.48640050444227" lon="8.378361257941803"><ele>38.0</ele><time>2026-05-02T13:26:35Z</time></trkpt><trkpt lat="40.48623885536824" lon="8.378436605440138"><ele>38.666666666666664</ele><time>2026-05-02T13:26:36Z</time></trkpt><trkpt lat="40.48608460994202" lon="8.378498031626824"><ele>39.333333333333336</ele><time>2026-05-02T13:26:37Z</time></trkpt><trkpt lat="40.48592823489865" lon="8.37851636352015"><ele>40.0</ele><time>2026-05-02T13:26:38Z</time></trkpt><trkpt lat="40.48578285559473" lon="8.378486176005898"><ele>40.0</ele><time>2026-05-02T13:26:39Z</time></trkpt><trkpt lat="40.48566158874847" lon="8.378423414192259"><ele>40.0</ele><time>2026-05-02T13:26:40Z</time></trkpt><trkpt lat="40.485552744381074" lon="8.37831461458132"><ele>40.0</ele><time>2026-05-02T13:26:41Z</time></trkpt><trkpt lat="40.48546082763165" lon="8.378151244707313"><ele>40.0</ele><time>2026-05-02T13:26:42Z</time></trkpt><trkpt lat="40.48537727378636" lon="8.377953676156524"><ele>39.0</ele><time>2026-05-02T13:26:43Z</time></trkpt><trkpt lat="40.48529383581721" lon="8.377747245851424"><ele>38.0</ele><time>2026-05-02T13:26:44Z</time></trkpt><trkpt lat="40.48519719126739" lon="8.377534141616195"><ele>37.0</ele><time>2026-05-02T13:26:45Z</time></trkpt><trkpt lat="40.48505859728418" lon="8.377342837114876"><ele>37.0</ele><time>2026-05-02T13:26:46Z</time></trkpt><trkpt lat="40.484865692260236" lon="8.377222933502537"><ele>37.0</ele><time>2026-05-02T13:26:47Z</time></trkpt><trkpt lat="40.484667329910856" lon="8.377139508641992"><ele>37.0</ele><time>2026-05-02T13:26:48Z</time></trkpt><trkpt lat="40.48446181576604" lon="8.37713180313925"><ele>36.66666666666667</ele><time>2026-05-02T13:26:49Z</time></trkpt><trkpt lat="40.48425782173229" lon="8.377158076624696"><ele>36.333333333333336</ele><time>2026-05-02T13:26:50Z</time></trkpt><trkpt lat="40.484057989129695" lon="8.377242513917855"><ele>36.0</ele><time>2026-05-02T13:26:51Z</time></trkpt><trkpt lat="40.48386064089723" lon="8.377381223466394"><ele>36.5</ele><time>2026-05-02T13:26:52Z</time></trkpt><trkpt lat="40.48366389453514" lon="8.377532621943041"><ele>37.0</ele><time>2026-05-02T13:26:53Z</time></trkpt><trkpt lat="40.48345286489988" lon="8.377681475774146"><ele>37.0</ele><time>2026-05-02T13:26:54Z</time></trkpt><trkpt lat="40.48326514680373" lon="8.377773145938999"><ele>37.0</ele><time>2026-05-02T13:26:55Z</time></trkpt><trkpt lat="40.48308420814748" lon="8.377858081883081"><ele>37.0</ele><time>2026-05-02T13:26:56Z</time></trkpt><trkpt lat="40.48291539481032" lon="8.377920206390828"><ele>36.0</ele><time>2026-05-02T13:26:57Z</time></trkpt><trkpt lat="40.48273064286118" lon="8.377955050744287"><ele>35.0</ele><time>2026-05-02T13:26:58Z</time></trkpt><trkpt lat="40.48251760916625" lon="8.37794549233776"><ele>34.0</ele><time>2026-05-02T13:26:59Z</time></trkpt><trkpt lat="40.48228515710831" lon="8.377910257849338"><ele>32.0</ele><time>2026-05-02T13:27:00Z</time></trkpt><trkpt lat="40.48205522757912" lon="8.377856044370349"><ele>30.0</ele><time>2026-05-02T13:27:01Z</time></trkpt><trkpt lat="40.48180640011435" lon="8.377810952112572"><ele>30.0</ele><time>2026-05-02T13:27:02Z</time></trkpt><trkpt lat="40.48154791179886" lon="8.377770621270123"><ele>30.0</ele><time>2026-05-02T13:27:03Z</time></trkpt><trkpt lat="40.481312889936994" lon="8.377735088010281"><ele>29.333333333333336</ele><time>2026-05-02T13:27:04Z</time></trkpt><trkpt lat="40.48109285881952" lon="8.37770245642717"><ele>28.666666666666668</ele><time>2026-05-02T13:27:05Z</time></trkpt><trkpt lat="40.48088539071075" lon="8.377677159315835"><ele>28.0</ele><time>2026-05-02T13:27:06Z</time></trkpt><trkpt lat="40.4806618484631" lon="8.377657246001029"><ele>29.5</ele><time>2026-05-02T13:27:07Z</time></trkpt><trkpt lat="40.48041265106748" lon="8.377651892438232"><ele>31.0</ele><time>2026-05-02T13:27:08Z</time></trkpt><trkpt lat="40.48016516535252" lon="8.377691444641687"><ele>31.0</ele><time>2026-05-02T13:27:09Z</time></trkpt><trkpt lat="40.479916638907305" lon="8.377754688448285"><ele>31.0</ele><time>2026-05-02T13:27:10Z</time></trkpt><trkpt lat="40.479657744903506" lon="8.377827949867921"><ele>31.0</ele><time>2026-05-02T13:27:11Z</time></trkpt><trkpt lat="40.479400124558566" lon="8.37791319195349"><ele>31.0</ele><time>2026-05-02T13:27:12Z</time></trkpt><trkpt lat="40.479164229814806" lon="8.378003013534803"><ele>34.66666666666667</ele><time>2026-05-02T13:27:13Z</time></trkpt><trkpt lat="40.47895027165095" lon="8.378086948439362"><ele>38.333333333333336</ele><time>2026-05-02T13:27:14Z</time></trkpt><trkpt lat="40.47874272000552" lon="8.378179518223241"><ele>42.0</ele><time>2026-05-02T13:27:15Z</time></trkpt><trkpt lat="40.47854779230332" lon="8.378301512146907"><ele>42.0</ele><time>2026-05-02T13:27:16Z</time></trkpt><trkpt lat="40.478357570173635" lon="8.378465398030917"><ele>42.0</ele><time>2026-05-02T13:27:17Z</time></trkpt><trkpt lat="40.47817343279507" lon="8.378671937443272"><ele>45.0</ele><time>2026-05-02T13:27:18Z</time></trkpt><trkpt lat="40.47800160990547" lon="8.378881470838575"><ele>48.0</ele><time>2026-05-02T13:27:19Z</time></trkpt><trkpt lat="40.477821607637416" lon="8.379092450075596"><ele>48.0</ele><time>2026-05-02T13:27:20Z</time></trkpt><trkpt lat="40.47764455761076" lon="8.379300343515494"><ele>48.0</ele><time>2026-05-02T13:27:21Z</time></trkpt><trkpt lat="40.47748109033807" lon="8.379490211185878"><ele>48.0</ele><time>2026-05-02T13:27:22Z</time></trkpt><trkpt lat="40.477330328330645" lon="8.379659992310412"><ele>48.0</ele><time>2026-05-02T13:27:23Z</time></trkpt><trkpt lat="40.47716812515212" lon="8.379806694820665"><ele>48.0</ele><time>2026-05-02T13:27:24Z</time></trkpt><trkpt lat="40.47698596787806" lon="8.379906231032042"><ele>48.66666666666667</ele><time>2026-05-02T13:27:25Z</time></trkpt><trkpt lat="40.476780486638276" lon="8.379969872600457"><ele>49.333333333333336</ele><time>2026-05-02T13:27:26Z</time></trkpt><trkpt lat="40.47656344261306" lon="8.379972083107623"><ele>50.0</ele><time>2026-05-02T13:27:27Z</time></trkpt><trkpt lat="40.476348837787604" lon="8.379990079065138"><ele>48.0</ele><time>2026-05-02T13:27:28Z</time></trkpt><trkpt lat="40.47615428463638" lon="8.380016804408706"><ele>46.0</ele><time>2026-05-02T13:27:29Z</time></trkpt><trkpt lat="40.47597161232304" lon="8.380074455091284"><ele>44.0</ele><time>2026-05-02T13:27:30Z</time></trkpt><trkpt lat="40.47578113526656" lon="8.38019720618512"><ele>44.0</ele><time>2026-05-02T13:27:31Z</time></trkpt><trkpt lat="40.4755931178423" lon="8.380371236765402"><ele>44.0</ele><time>2026-05-02T13:27:32Z</time></trkpt><trkpt lat="40.475407314411015" lon="8.380554588918539"><ele>46.33333333333333</ele><time>2026-05-02T13:27:33Z</time></trkpt><trkpt lat="40.47523234069237" lon="8.380711105979245"><ele>48.666666666666664</ele><time>2026-05-02T13:27:34Z</time></trkpt><trkpt lat="40.475050453319426" lon="8.38082986700179"><ele>51.0</ele><time>2026-05-02T13:27:35Z</time></trkpt><trkpt lat="40.47486125951882" lon="8.38091908736259"><ele>51.0</ele><time>2026-05-02T13:27:36Z</time></trkpt><trkpt lat="40.474643604507506" lon="8.38097582866077"><ele>51.0</ele><time>2026-05-02T13:27:37Z</time></trkpt><trkpt lat="40.474401773819245" lon="8.381012604739281"><ele>49.0</ele><time>2026-05-02T13:27:38Z</time></trkpt><trkpt lat="40.474178253424306" lon="8.381080243350867"><ele>47.0</ele><time>2026-05-02T13:27:39Z</time></trkpt><trkpt lat="40.473953697227046" lon="8.38114326604497"><ele>45.33333333333333</ele><time>2026-05-02T13:27:40Z</time></trkpt><trkpt lat="40.473736192355176" lon="8.3811737961968"><ele>43.666666666666664</ele><time>2026-05-02T13:27:41Z</time></trkpt><trkpt lat="40.47353157306828" lon="8.381157640318863"><ele>42.0</ele><time>2026-05-02T13:27:42Z</time></trkpt><trkpt lat="40.473318907410196" lon="8.381110521385178"><ele>42.0</ele><time>2026-05-02T13:27:43Z</time></trkpt><trkpt lat="40.4731417710739" lon="8.381045654086394"><ele>42.0</ele><time>2026-05-02T13:27:44Z</time></trkpt><trkpt lat="40.47296424672763" lon="8.380997439112368"><ele>42.0</ele><time>2026-05-02T13:27:45Z</time></trkpt><trkpt lat="40.47276694616918" lon="8.381022401464627"><ele>40.5</ele><time>2026-05-02T13:27:46Z</time></trkpt><trkpt lat="40.47255079213204" lon="8.38108507215748"><ele>39.0</ele><time>2026-05-02T13:27:47Z</time></trkpt><trkpt lat="40.47231911984114" lon="8.38113577016288"><ele>35.5</ele><time>2026-05-02T13:27:48Z</time></trkpt><trkpt lat="40.472074237324726" lon="8.381179197365379"><ele>32.0</ele><time>2026-05-02T13:27:49Z</time></trkpt><trkpt lat="40.47182383501927" lon="8.38122438070529"><ele>32.0</ele><time>2026-05-02T13:27:50Z</time></trkpt><trkpt lat="40.4715977933031" lon="8.38128234233623"><ele>32.0</ele><time>2026-05-02T13:27:51Z</time></trkpt><trkpt lat="40.47137934859091" lon="8.38129010911492"><ele>32.0</ele><time>2026-05-02T13:27:52Z</time></trkpt><trkpt lat="40.47118027101857" lon="8.381328591655997"><ele>39.666666666666664</ele><time>2026-05-02T13:27:53Z</time></trkpt><trkpt lat="40.47098935584296" lon="8.381392054704806"><ele>47.33333333333333</ele><time>2026-05-02T13:27:54Z</time></trkpt><trkpt lat="40.47081057638907" lon="8.381513807207464"><ele>55.0</ele><time>2026-05-02T13:27:55Z</time></trkpt><trkpt lat="40.47065406801531" lon="8.381672517286402"><ele>55.0</ele><time>2026-05-02T13:27:56Z</time></trkpt><trkpt lat="40.470500353036314" lon="8.381756597220225"><ele>55.0</ele><time>2026-05-02T13:27:57Z</time></trkpt><trkpt lat="40.470343436281105" lon="8.381788191902197"><ele>55.0</ele><time>2026-05-02T13:27:58Z</time></trkpt><trkpt lat="40.47023579092627" lon="8.381798880329702"><ele>55.0</ele><time>2026-05-02T13:27:59Z</time></trkpt><trkpt lat="40.47014433365923" lon="8.381772723211792"><ele>54.75</ele><time>2026-05-02T13:28:00Z</time></trkpt><trkpt lat="40.47007333148749" lon="8.38167367977303"><ele>54.5</ele><time>2026-05-02T13:28:01Z</time></trkpt><trkpt lat="40.469999536103444" lon="8.38153226459808"><ele>54.25</ele><time>2026-05-02T13:28:02Z</time></trkpt><trkpt lat="40.46993524593753" lon="8.381347668771053"><ele>54.0</ele><time>2026-05-02T13:28:03Z</time></trkpt><trkpt lat="40.46987551100902" lon="8.381175282207847"><ele>47.333333333333336</ele><time>2026-05-02T13:28:04Z</time></trkpt><trkpt lat="40.469771828461575" lon="8.380964052559937"><ele>40.66666666666667</ele><time>2026-05-02T13:28:05Z</time></trkpt><trkpt lat="40.469629975008374" lon="8.380852891152514"><ele>34.0</ele><time>2026-05-02T13:28:06Z</time></trkpt><trkpt lat="40.46946806572208" lon="8.380754174787414"><ele>34.0</ele><time>2026-05-02T13:28:07Z</time></trkpt><trkpt lat="40.46931027723206" lon="8.380706656447233"><ele>34.0</ele><time>2026-05-02T13:28:08Z</time></trkpt><trkpt lat="40.46914450080334" lon="8.380715744863185"><ele>34.0</ele><time>2026-05-02T13:28:09Z</time></trkpt><trkpt lat="40.468968066412025" lon="8.380755299633467"><ele>34.0</ele><time>2026-05-02T13:28:10Z</time></trkpt><trkpt lat="40.468824921965826" lon="8.380837316351627"><ele>34.0</ele><time>2026-05-02T13:28:11Z</time></trkpt><trkpt lat="40.46867986757244" lon="8.38093847967064"><ele>34.0</ele><time>2026-05-02T13:28:12Z</time></trkpt><trkpt lat="40.46854869111137" lon="8.381070302660204"><ele>36.66666666666667</ele><time>2026-05-02T13:28:13Z</time></trkpt><trkpt lat="40.468420148129475" lon="8.381230237053403"><ele>39.333333333333336</ele><time>2026-05-02T13:28:14Z</time></trkpt><trkpt lat="40.46830910246623" lon="8.38142427340023"><ele>42.0</ele><time>2026-05-02T13:28:15Z</time></trkpt><trkpt lat="40.46821681749381" lon="8.381629252267977"><ele>42.0</ele><time>2026-05-02T13:28:16Z</time></trkpt><trkpt lat="40.46814244895604" lon="8.381836772487134"><ele>42.0</ele><time>2026-05-02T13:28:17Z</time></trkpt><trkpt lat="40.46806547901705" lon="8.382042294968471"><ele>42.0</ele><time>2026-05-02T13:28:18Z</time></trkpt><trkpt lat="40.46798050371347" lon="8.382244869079498"><ele>41.0</ele><time>2026-05-02T13:28:19Z</time></trkpt><trkpt lat="40.467881953932675" lon="8.38241123257739"><ele>40.0</ele><time>2026-05-02T13:28:20Z</time></trkpt><trkpt lat="40.467744471629004" lon="8.382578131170671"><ele>39.0</ele><time>2026-05-02T13:28:21Z</time></trkpt><trkpt lat="40.46758984062637" lon="8.382731839010294"><ele>39.0</ele><time>2026-05-02T13:28:22Z</time></trkpt><trkpt lat="40.46744065041828" lon="8.382899851257662"><ele>39.0</ele><time>2026-05-02T13:28:23Z</time></trkpt><trkpt lat="40.467279587539444" lon="8.383057622211778"><ele>39.0</ele><time>2026-05-02T13:28:24Z</time></trkpt><trkpt lat="40.46711535637092" lon="8.383216223643792"><ele>38.666666666666664</ele><time>2026-05-02T13:28:25Z</time></trkpt><trkpt lat="40.466953437712974" lon="8.383393779285331"><ele>38.33333333333333</ele><time>2026-05-02T13:28:26Z</time></trkpt><trkpt lat="40.4667999291748" lon="8.383586425701012"><ele>38.0</ele><time>2026-05-02T13:28:27Z</time></trkpt><trkpt lat="40.46666071638725" lon="8.383813682521573"><ele>37.0</ele><time>2026-05-02T13:28:28Z</time></trkpt><trkpt lat="40.46651917182464" lon="8.384035174552725"><ele>36.0</ele><time>2026-05-02T13:28:29Z</time></trkpt><trkpt lat="40.46638306201273" lon="8.384260518518456"><ele>35.0</ele><time>2026-05-02T13:28:30Z</time></trkpt><trkpt lat="40.46624890315713" lon="8.38446075827822"><ele>35.0</ele><time>2026-05-02T13:28:31Z</time></trkpt><trkpt lat="40.46613445231688" lon="8.384631910614003"><ele>35.0</ele><time>2026-05-02T13:28:32Z</time></trkpt><trkpt lat="40.46599437543806" lon="8.38476135967574"><ele>35.0</ele><time>2026-05-02T13:28:33Z</time></trkpt><trkpt lat="40.46584065848338" lon="8.384855725200019"><ele>40.666666666666664</ele><time>2026-05-02T13:28:34Z</time></trkpt><trkpt lat="40.46566347379875" lon="8.38495136656096"><ele>46.33333333333333</ele><time>2026-05-02T13:28:35Z</time></trkpt><trkpt lat="40.46550884287098" lon="8.385028712219821"><ele>52.0</ele><time>2026-05-02T13:28:36Z</time></trkpt><trkpt lat="40.46534609012867" lon="8.385099281648085"><ele>52.0</ele><time>2026-05-02T13:28:37Z</time></trkpt><trkpt lat="40.46518371467887" lon="8.385171292609725"><ele>52.0</ele><time>2026-05-02T13:28:38Z</time></trkpt><trkpt lat="40.46501597843506" lon="8.38524929440043"><ele>52.0</ele><time>2026-05-02T13:28:39Z</time></trkpt><trkpt lat="40.4648351571463" lon="8.385323803661377"><ele>52.0</ele><time>2026-05-02T13:28:40Z</time></trkpt><trkpt lat="40.464638216670885" lon="8.385404057063479"><ele>52.0</ele><time>2026-05-02T13:28:41Z</time></trkpt><trkpt lat="40.464426834361866" lon="8.385467123841778"><ele>52.0</ele><time>2026-05-02T13:28:42Z</time></trkpt><trkpt lat="40.464214613593796" lon="8.385510428284087"><ele>59.5</ele><time>2026-05-02T13:28:43Z</time></trkpt><trkpt lat="40.4639803245224" lon="8.3855576397549"><ele>67.0</ele><time>2026-05-02T13:28:44Z</time></trkpt><trkpt lat="40.46374624467434" lon="8.385616134589995"><ele>67.0</ele><time>2026-05-02T13:28:45Z</time></trkpt><trkpt lat="40.46350446455923" lon="8.385673318896325"><ele>67.0</ele><time>2026-05-02T13:28:46Z</time></trkpt><trkpt lat="40.46325727923806" lon="8.38573734747398"><ele>67.0</ele><time>2026-05-02T13:28:47Z</time></trkpt><trkpt lat="40.46300477076034" lon="8.385792743236632"><ele>67.0</ele><time>2026-05-02T13:28:48Z</time></trkpt><trkpt lat="40.462750874271194" lon="8.385809329973714"><ele>67.0</ele><time>2026-05-02T13:28:49Z</time></trkpt><trkpt lat="40.46249442878296" lon="8.385800989768866"><ele>67.0</ele><time>2026-05-02T13:28:50Z</time></trkpt><trkpt lat="40.46223548251012" lon="8.385784994528231"><ele>65.0</ele><time>2026-05-02T13:28:51Z</time></trkpt><trkpt lat="40.46199405993984" lon="8.385766908565476"><ele>63.0</ele><time>2026-05-02T13:28:52Z</time></trkpt><trkpt lat="40.46177152920985" lon="8.385763666610563"><ele>63.0</ele><time>2026-05-02T13:28:53Z</time></trkpt><trkpt lat="40.4615683005119" lon="8.38575716530199"><ele>63.0</ele><time>2026-05-02T13:28:54Z</time></trkpt><trkpt lat="40.46138813874548" lon="8.38575748670482"><ele>63.0</ele><time>2026-05-02T13:28:55Z</time></trkpt><trkpt lat="40.46124586967797" lon="8.385801914357767"><ele>62.66666666666667</ele><time>2026-05-02T13:28:56Z</time></trkpt><trkpt lat="40.461101603008025" lon="8.385878181833267"><ele>62.333333333333336</ele><time>2026-05-02T13:28:57Z</time></trkpt><trkpt lat="40.46097279449905" lon="8.386010901189524"><ele>62.0</ele><time>2026-05-02T13:28:58Z</time></trkpt><trkpt lat="40.46085405522906" lon="8.386162490207402"><ele>62.0</ele><time>2026-05-02T13:28:59Z</time></trkpt><trkpt lat="40.460725843467976" lon="8.38625653107312"><ele>62.0</ele><time>2026-05-02T13:29:00Z</time></trkpt><trkpt lat="40.46058929668862" lon="8.386293401160598"><ele>62.0</ele><time>2026-05-02T13:29:01Z</time></trkpt><trkpt lat="40.46045158257403" lon="8.386247924115763"><ele>62.0</ele><time>2026-05-02T13:29:02Z</time></trkpt><trkpt lat="40.46031721146582" lon="8.386151528047955"><ele>64.66666666666667</ele><time>2026-05-02T13:29:03Z</time></trkpt><trkpt lat="40.46019329705888" lon="8.38600289820345"><ele>67.33333333333333</ele><time>2026-05-02T13:29:04Z</time></trkpt><trkpt lat="40.46006833490298" lon="8.385850874047733"><ele>70.0</ele><time>2026-05-02T13:29:05Z</time></trkpt><trkpt lat="40.45992761255986" lon="8.385753907775602"><ele>70.0</ele><time>2026-05-02T13:29:06Z</time></trkpt><trkpt lat="40.45972990371192" lon="8.38571832435949"><ele>70.0</ele><time>2026-05-02T13:29:07Z</time></trkpt><trkpt lat="40.4594972301629" lon="8.38569340964805"><ele>70.0</ele><time>2026-05-02T13:29:08Z</time></trkpt><trkpt lat="40.459305555621526" lon="8.385666362509498"><ele>71.0</ele><time>2026-05-02T13:29:09Z</time></trkpt><trkpt lat="40.45913783785227" lon="8.385643448633976"><ele>72.0</ele><time>2026-05-02T13:29:10Z</time></trkpt><trkpt lat="40.45897905902444" lon="8.385654197245765"><ele>73.0</ele><time>2026-05-02T13:29:11Z</time></trkpt><trkpt lat="40.45882667727741" lon="8.385722023954475"><ele>67.66666666666666</ele><time>2026-05-02T13:29:12Z</time></trkpt><trkpt lat="40.45867368602083" lon="8.385865930809276"><ele>62.33333333333333</ele><time>2026-05-02T13:29:13Z</time></trkpt><trkpt lat="40.458508656493045" lon="8.386012909922881"><ele>57.0</ele><time>2026-05-02T13:29:14Z</time></trkpt><trkpt lat="40.45832913481707" lon="8.386160927278178"><ele>57.0</ele><time>2026-05-02T13:29:15Z</time></trkpt><trkpt lat="40.458142821296605" lon="8.386290873542091"><ele>57.0</ele><time>2026-05-02T13:29:16Z</time></trkpt><trkpt lat="40.45793986145211" lon="8.38638860435417"><ele>57.0</ele><time>2026-05-02T13:29:17Z</time></trkpt><trkpt lat="40.45771012700819" lon="8.386430437133953"><ele>61.66666666666667</ele><time>2026-05-02T13:29:18Z</time></trkpt><trkpt lat="40.457477362176306" lon="8.386440190088148"><ele>66.33333333333334</ele><time>2026-05-02T13:29:19Z</time></trkpt><trkpt lat="40.457267324072575" lon="8.38645507632836"><ele>71.0</ele><time>2026-05-02T13:29:20Z</time></trkpt><trkpt lat="40.457032686033024" lon="8.386481210072407"><ele>71.0</ele><time>2026-05-02T13:29:21Z</time></trkpt><trkpt lat="40.456791573978826" lon="8.3865423329538"><ele>71.0</ele><time>2026-05-02T13:29:22Z</time></trkpt><trkpt lat="40.45655688737676" lon="8.386638550889888"><ele>71.0</ele><time>2026-05-02T13:29:23Z</time></trkpt><trkpt lat="40.45633037785002" lon="8.386747438994798"><ele>71.0</ele><time>2026-05-02T13:29:24Z</time></trkpt><trkpt lat="40.45608787731619" lon="8.386844250592333"><ele>69.0</ele><time>2026-05-02T13:29:25Z</time></trkpt><trkpt lat="40.45584792987926" lon="8.386937515643407"><ele>67.0</ele><time>2026-05-02T13:29:26Z</time></trkpt><trkpt lat="40.45560143158975" lon="8.387030967590078"><ele>62.0</ele><time>2026-05-02T13:29:27Z</time></trkpt><trkpt lat="40.4553514138732" lon="8.387120501804889"><ele>57.0</ele><time>2026-05-02T13:29:28Z</time></trkpt><trkpt lat="40.45509455885709" lon="8.387198634469556"><ele>67.5</ele><time>2026-05-02T13:29:29Z</time></trkpt><trkpt lat="40.45483078681925" lon="8.38728267275742"><ele>78.0</ele><time>2026-05-02T13:29:30Z</time></trkpt><trkpt lat="40.45457843642456" lon="8.387372616003226"><ele>78.0</ele><time>2026-05-02T13:29:31Z</time></trkpt><trkpt lat="40.45435646831168" lon="8.3874548057567"><ele>78.0</ele><time>2026-05-02T13:29:32Z</time></trkpt><trkpt lat="40.45416544189216" lon="8.387537554087197"><ele>78.0</ele><time>2026-05-02T13:29:33Z</time></trkpt><trkpt lat="40.45401000027211" lon="8.387627173795371"><ele>78.0</ele><time>2026-05-02T13:29:34Z</time></trkpt><trkpt lat="40.453890703917125" lon="8.387733687507287"><ele>78.0</ele><time>2026-05-02T13:29:35Z</time></trkpt><trkpt lat="40.45382740075323" lon="8.387831895058646"><ele>78.0</ele><time>2026-05-02T13:29:36Z</time></trkpt><trkpt lat="40.45377591462849" lon="8.387905410238504"><ele>78.0</ele><time>2026-05-02T13:29:37Z</time></trkpt><trkpt lat="40.4537129530565" lon="8.387948094768841"><ele>78.0</ele><time>2026-05-02T13:29:39Z</time></trkpt><trkpt lat="40.453644855137405" lon="8.387989933024684"><ele>79.66666666666667</ele><time>2026-05-02T13:29:43Z</time></trkpt><trkpt lat="40.45359993399634" lon="8.38805259391431"><ele>81.33333333333333</ele><time>2026-05-02T13:29:45Z</time></trkpt><trkpt lat="40.45353198951978" lon="8.388110423470502"><ele>83.0</ele><time>2026-05-02T13:29:48Z</time></trkpt><trkpt lat="40.453480660621246" lon="8.388205439888369"><ele>84.66666666666666</ele><time>2026-05-02T13:29:51Z</time></trkpt><trkpt lat="40.45342258968094" lon="8.38826846901254"><ele>86.33333333333333</ele><time>2026-05-02T13:29:54Z</time></trkpt><trkpt lat="40.45339478829199" lon="8.388351870012688"><ele>88.0</ele><time>2026-05-02T13:29:58Z</time></trkpt><trkpt lat="40.45335660471436" lon="8.388484989203146"><ele>88.0</ele><time>2026-05-02T13:30:33Z</time></trkpt><trkpt lat="40.45324670547881" lon="8.38857324473395"><ele>88.0</ele><time>2026-05-02T13:30:35Z</time></trkpt><trkpt lat="40.45317968509804" lon="8.388619521786929"><ele>88.0</ele><time>2026-05-02T13:30:36Z</time></trkpt><trkpt lat="40.453111294117015" lon="8.3886709118483"><ele>88.0</ele><time>2026-05-02T13:30:37Z</time></trkpt><trkpt lat="40.45303614669684" lon="8.388719102977856"><ele>88.0</ele><time>2026-05-02T13:30:38Z</time></trkpt><trkpt lat="40.45295293942772" lon="8.388757788879477"><ele>86.60000000000001</ele><time>2026-05-02T13:30:39Z</time></trkpt><trkpt lat="40.45285795710261" lon="8.38879888780375"><ele>85.2</ele><time>2026-05-02T13:30:40Z</time></trkpt><trkpt lat="40.452745152080716" lon="8.388823717785552"><ele>83.8</ele><time>2026-05-02T13:30:41Z</time></trkpt><trkpt lat="40.45263376616628" lon="8.388827772061667"><ele>82.4</ele><time>2026-05-02T13:30:42Z</time></trkpt><trkpt lat="40.45251916291772" lon="8.388824087006146"><ele>81.0</ele><time>2026-05-02T13:30:43Z</time></trkpt><trkpt lat="40.45239603922306" lon="8.38880300281267"><ele>81.0</ele><time>2026-05-02T13:30:44Z</time></trkpt><trkpt lat="40.452273444611265" lon="8.388771200013597"><ele>81.0</ele><time>2026-05-02T13:30:45Z</time></trkpt><trkpt lat="40.452143498610596" lon="8.388732045879623"><ele>81.0</ele><time>2026-05-02T13:30:46Z</time></trkpt><trkpt lat="40.452016499512176" lon="8.388723567422298"><ele>81.0</ele><time>2026-05-02T13:30:47Z</time></trkpt><trkpt lat="40.451898153620654" lon="8.388745266188307"><ele>83.0</ele><time>2026-05-02T13:30:48Z</time></trkpt><trkpt lat="40.4517864920748" lon="8.388831774264478"><ele>85.0</ele><time>2026-05-02T13:30:49Z</time></trkpt><trkpt lat="40.451707082458796" lon="8.388965189673078"><ele>87.0</ele><time>2026-05-02T13:30:50Z</time></trkpt><trkpt lat="40.451648106827065" lon="8.389126790657166"><ele>89.0</ele><time>2026-05-02T13:30:51Z</time></trkpt><trkpt lat="40.451645887448265" lon="8.389335639254915"><ele>89.0</ele><time>2026-05-02T13:30:52Z</time></trkpt><trkpt lat="40.45163493628043" lon="8.38956420473192"><ele>89.0</ele><time>2026-05-02T13:30:53Z</time></trkpt><trkpt lat="40.45161274633801" lon="8.389794203827423"><ele>89.0</ele><time>2026-05-02T13:30:54Z</time></trkpt><trkpt lat="40.45155577266049" lon="8.39000862134213"><ele>90.66666666666667</ele><time>2026-05-02T13:30:55Z</time></trkpt><trkpt lat="40.45144006020347" lon="8.390126631109938"><ele>92.33333333333333</ele><time>2026-05-02T13:30:56Z</time></trkpt><trkpt lat="40.451279618594434" lon="8.390235632622508"><ele>94.0</ele><time>2026-05-02T13:30:57Z</time></trkpt><trkpt lat="40.45108896478" lon="8.390326323379663"><ele>94.0</ele><time>2026-05-02T13:30:58Z</time></trkpt><trkpt lat="40.450869912209605" lon="8.390387428245862"><ele>94.0</ele><time>2026-05-02T13:30:59Z</time></trkpt><trkpt lat="40.45065825812355" lon="8.390472392148737"><ele>94.0</ele><time>2026-05-02T13:31:00Z</time></trkpt><trkpt lat="40.450458646690414" lon="8.390590291704944"><ele>101.66666666666666</ele><time>2026-05-02T13:31:01Z</time></trkpt><trkpt lat="40.45027077513817" lon="8.390721047154663"><ele>109.33333333333333</ele><time>2026-05-02T13:31:02Z</time></trkpt><trkpt lat="40.45008531259969" lon="8.390848220041555"><ele>117.0</ele><time>2026-05-02T13:31:03Z</time></trkpt><trkpt lat="40.449906306683175" lon="8.390951297959136"><ele>117.0</ele><time>2026-05-02T13:31:04Z</time></trkpt><trkpt lat="40.44973794719349" lon="8.391052714894965"><ele>117.0</ele><time>2026-05-02T13:31:05Z</time></trkpt><trkpt lat="40.449610009869645" lon="8.391174730093613"><ele>117.0</ele><time>2026-05-02T13:31:06Z</time></trkpt><trkpt lat="40.44950276214464" lon="8.391321023265682"><ele>118.75</ele><time>2026-05-02T13:31:07Z</time></trkpt><trkpt lat="40.44940357058491" lon="8.391452516941165"><ele>120.5</ele><time>2026-05-02T13:31:08Z</time></trkpt><trkpt lat="40.44927640316569" lon="8.39154734977965"><ele>122.25</ele><time>2026-05-02T13:31:09Z</time></trkpt><trkpt lat="40.44915182890811" lon="8.391616382651923"><ele>124.0</ele><time>2026-05-02T13:31:10Z</time></trkpt><trkpt lat="40.44906092731996" lon="8.391737346286824"><ele>124.0</ele><time>2026-05-02T13:31:11Z</time></trkpt><trkpt lat="40.448997204353425" lon="8.391919193632045"><ele>124.0</ele><time>2026-05-02T13:31:12Z</time></trkpt><trkpt lat="40.44894144735401" lon="8.392161524872265"><ele>124.0</ele><time>2026-05-02T13:31:13Z</time></trkpt><trkpt lat="40.44885377093776" lon="8.392398623397307"><ele>127.66666666666667</ele><time>2026-05-02T13:31:14Z</time></trkpt><trkpt lat="40.448764208986084" lon="8.392595354766051"><ele>131.33333333333334</ele><time>2026-05-02T13:31:15Z</time></trkpt><trkpt lat="40.448658760523216" lon="8.392731301384867"><ele>135.0</ele><time>2026-05-02T13:31:16Z</time></trkpt><trkpt lat="40.44853238126061" lon="8.392783921596543"><ele>135.0</ele><time>2026-05-02T13:31:17Z</time></trkpt><trkpt lat="40.44837508601836" lon="8.392795900195171"><ele>135.0</ele><time>2026-05-02T13:31:18Z</time></trkpt><trkpt lat="40.448211538662974" lon="8.392739590607926"><ele>135.0</ele><time>2026-05-02T13:31:19Z</time></trkpt><trkpt lat="40.448014814484154" lon="8.392679672015996"><ele>134.0</ele><time>2026-05-02T13:31:20Z</time></trkpt><trkpt lat="40.447818436497954" lon="8.39270564878452"><ele>133.0</ele><time>2026-05-02T13:31:21Z</time></trkpt><trkpt lat="40.44762001823953" lon="8.392767685624525"><ele>132.0</ele><time>2026-05-02T13:31:22Z</time></trkpt><trkpt lat="40.44742507704392" lon="8.39278626931"><ele>132.0</ele><time>2026-05-02T13:31:23Z</time></trkpt><trkpt lat="40.447239921119184" lon="8.392710758294458"><ele>132.0</ele><time>2026-05-02T13:31:24Z</time></trkpt><trkpt lat="40.44702312927736" lon="8.392622038364117"><ele>132.0</ele><time>2026-05-02T13:31:25Z</time></trkpt><trkpt lat="40.4468188224271" lon="8.392582386767037"><ele>133.0</ele><time>2026-05-02T13:31:26Z</time></trkpt><trkpt lat="40.446612738271774" lon="8.392565144522955"><ele>134.0</ele><time>2026-05-02T13:31:27Z</time></trkpt><trkpt lat="40.44642610328335" lon="8.392544334643889"><ele>135.0</ele><time>2026-05-02T13:31:28Z</time></trkpt><trkpt lat="40.44626399061905" lon="8.392543994432977"><ele>135.0</ele><time>2026-05-02T13:31:29Z</time></trkpt><trkpt lat="40.446109089207255" lon="8.39257462150848"><ele>135.0</ele><time>2026-05-02T13:31:30Z</time></trkpt><trkpt lat="40.44595456504677" lon="8.39262954673038"><ele>135.0</ele><time>2026-05-02T13:31:31Z</time></trkpt><trkpt lat="40.44579774578556" lon="8.392704805231169"><ele>135.0</ele><time>2026-05-02T13:31:32Z</time></trkpt><trkpt lat="40.44564232103532" lon="8.39281796615459"><ele>135.0</ele><time>2026-05-02T13:31:33Z</time></trkpt><trkpt lat="40.44550036229362" lon="8.392965787995239"><ele>135.0</ele><time>2026-05-02T13:31:34Z</time></trkpt><trkpt lat="40.445353574948854" lon="8.393118773586943"><ele>142.0</ele><time>2026-05-02T13:31:35Z</time></trkpt><trkpt lat="40.44518580718716" lon="8.393204261898907"><ele>149.0</ele><time>2026-05-02T13:31:36Z</time></trkpt><trkpt lat="40.44499631015462" lon="8.393228517307486"><ele>156.0</ele><time>2026-05-02T13:31:37Z</time></trkpt><trkpt lat="40.44480673377744" lon="8.393245808702417"><ele>150.0</ele><time>2026-05-02T13:31:38Z</time></trkpt><trkpt lat="40.44460905976817" lon="8.393278078385299"><ele>144.0</ele><time>2026-05-02T13:31:39Z</time></trkpt><trkpt lat="40.44441408913329" lon="8.393310887477709"><ele>138.0</ele><time>2026-05-02T13:31:40Z</time></trkpt><trkpt lat="40.4442252049352" lon="8.393354569446762"><ele>138.0</ele><time>2026-05-02T13:31:41Z</time></trkpt><trkpt lat="40.44403683295999" lon="8.393432085504571"><ele>138.0</ele><time>2026-05-02T13:31:42Z</time></trkpt><trkpt lat="40.44387072179002" lon="8.393559898241685"><ele>138.0</ele><time>2026-05-02T13:31:43Z</time></trkpt><trkpt lat="40.44370677113729" lon="8.393719328495958"><ele>138.66666666666666</ele><time>2026-05-02T13:31:44Z</time></trkpt><trkpt lat="40.44353694658862" lon="8.393889887758215"><ele>139.33333333333331</ele><time>2026-05-02T13:31:45Z</time></trkpt><trkpt lat="40.443368500711884" lon="8.394066885054066"><ele>140.0</ele><time>2026-05-02T13:31:46Z</time></trkpt><trkpt lat="40.44322011270119" lon="8.3942424547962"><ele>140.0</ele><time>2026-05-02T13:31:47Z</time></trkpt><trkpt lat="40.44310951273814" lon="8.394457474321138"><ele>140.0</ele><time>2026-05-02T13:31:48Z</time></trkpt><trkpt lat="40.44303447312168" lon="8.394704773472435"><ele>140.0</ele><time>2026-05-02T13:31:49Z</time></trkpt><trkpt lat="40.442969293803756" lon="8.394941182683326"><ele>132.66666666666666</ele><time>2026-05-02T13:31:50Z</time></trkpt><trkpt lat="40.44289717145739" lon="8.395157353931944"><ele>125.33333333333334</ele><time>2026-05-02T13:31:51Z</time></trkpt><trkpt lat="40.442811609415195" lon="8.395336490846056"><ele>118.0</ele><time>2026-05-02T13:31:52Z</time></trkpt><trkpt lat="40.44269451688236" lon="8.395433514873291"><ele>118.0</ele><time>2026-05-02T13:31:53Z</time></trkpt><trkpt lat="40.442541921349196" lon="8.395484744351478"><ele>118.0</ele><time>2026-05-02T13:31:54Z</time></trkpt><trkpt lat="40.44237161540047" lon="8.395501542363187"><ele>118.0</ele><time>2026-05-02T13:31:55Z</time></trkpt><trkpt lat="40.44216861875892" lon="8.395470254940284"><ele>109.33333333333334</ele><time>2026-05-02T13:31:56Z</time></trkpt><trkpt lat="40.44196296748097" lon="8.395425631577746"><ele>100.66666666666667</ele><time>2026-05-02T13:31:57Z</time></trkpt><trkpt lat="40.44177992871756" lon="8.395412106457561"><ele>92.0</ele><time>2026-05-02T13:31:58Z</time></trkpt><trkpt lat="40.44160811311789" lon="8.395445568345385"><ele>92.33333333333334</ele><time>2026-05-02T13:31:59Z</time></trkpt><trkpt lat="40.44143323939337" lon="8.395513954905379"><ele>92.66666666666667</ele><time>2026-05-02T13:32:00Z</time></trkpt><trkpt lat="40.441278442405974" lon="8.395616254869715"><ele>93.0</ele><time>2026-05-02T13:32:01Z</time></trkpt><trkpt lat="40.44114262501804" lon="8.395766389035561"><ele>93.0</ele><time>2026-05-02T13:32:02Z</time></trkpt><trkpt lat="40.44103012766359" lon="8.395963445920405"><ele>93.0</ele><time>2026-05-02T13:32:03Z</time></trkpt><trkpt lat="40.440948910249986" lon="8.396122912050688"><ele>93.0</ele><time>2026-05-02T13:32:04Z</time></trkpt><trkpt lat="40.44089660216528" lon="8.396345395628291"><ele>96.33333333333334</ele><time>2026-05-02T13:32:05Z</time></trkpt><trkpt lat="40.44086604839777" lon="8.39658397916374"><ele>99.66666666666667</ele><time>2026-05-02T13:32:06Z</time></trkpt><trkpt lat="40.4408479354691" lon="8.39683894551602"><ele>103.0</ele><time>2026-05-02T13:32:07Z</time></trkpt><trkpt lat="40.44086222039442" lon="8.397093566345953"><ele>101.0</ele><time>2026-05-02T13:32:08Z</time></trkpt><trkpt lat="40.440913785193835" lon="8.397356151418403"><ele>99.0</ele><time>2026-05-02T13:32:09Z</time></trkpt><trkpt lat="40.44098684383236" lon="8.397640142606543"><ele>97.0</ele><time>2026-05-02T13:32:10Z</time></trkpt><trkpt lat="40.44106473491948" lon="8.397940791704944"><ele>94.0</ele><time>2026-05-02T13:32:11Z</time></trkpt><trkpt lat="40.441127172165736" lon="8.398222694829776"><ele>91.0</ele><time>2026-05-02T13:32:12Z</time></trkpt><trkpt lat="40.44116323596081" lon="8.39848491939592"><ele>88.0</ele><time>2026-05-02T13:32:13Z</time></trkpt><trkpt lat="40.44116912247329" lon="8.398700224165077"><ele>89.0</ele><time>2026-05-02T13:32:14Z</time></trkpt><trkpt lat="40.441165883002604" lon="8.39888950953849"><ele>90.0</ele><time>2026-05-02T13:32:15Z</time></trkpt><trkpt lat="40.44114570227194" lon="8.399079947466516"><ele>91.0</ele><time>2026-05-02T13:32:16Z</time></trkpt><trkpt lat="40.44110349568539" lon="8.399266208573692"><ele>92.0</ele><time>2026-05-02T13:32:17Z</time></trkpt><trkpt lat="40.4410303468141" lon="8.399433199960516"><ele>92.0</ele><time>2026-05-02T13:32:18Z</time></trkpt><trkpt lat="40.44091856879317" lon="8.399593404642697"><ele>92.0</ele><time>2026-05-02T13:32:19Z</time></trkpt><trkpt lat="40.44076612921261" lon="8.399719995990733"><ele>92.0</ele><time>2026-05-02T13:32:20Z</time></trkpt><trkpt lat="40.44059086887671" lon="8.399802413303874"><ele>96.0</ele><time>2026-05-02T13:32:21Z</time></trkpt><trkpt lat="40.44039523102891" lon="8.399838810474737"><ele>100.0</ele><time>2026-05-02T13:32:22Z</time></trkpt><trkpt lat="40.44018416943386" lon="8.399832657829197"><ele>104.0</ele><time>2026-05-02T13:32:23Z</time></trkpt><trkpt lat="40.43996210504909" lon="8.399786690766748"><ele>104.0</ele><time>2026-05-02T13:32:24Z</time></trkpt><trkpt lat="40.43971340371614" lon="8.399715516790536"><ele>104.0</ele><time>2026-05-02T13:32:25Z</time></trkpt><trkpt lat="40.4394309477171" lon="8.399637458819727"><ele>99.0</ele><time>2026-05-02T13:32:26Z</time></trkpt><trkpt lat="40.43913773587595" lon="8.399574102903957"><ele>94.0</ele><time>2026-05-02T13:32:27Z</time></trkpt><trkpt lat="40.438819648631046" lon="8.399515418185969"><ele>97.5</ele><time>2026-05-02T13:32:28Z</time></trkpt><trkpt lat="40.43847574592192" lon="8.399450696356489"><ele>101.0</ele><time>2026-05-02T13:32:29Z</time></trkpt><trkpt lat="40.438156273577974" lon="8.39937727934761"><ele>103.5</ele><time>2026-05-02T13:32:30Z</time></trkpt><trkpt lat="40.43788626270837" lon="8.399299371042897"><ele>106.0</ele><time>2026-05-02T13:32:31Z</time></trkpt><trkpt lat="40.43764860900573" lon="8.39922160514289"><ele>106.0</ele><time>2026-05-02T13:32:32Z</time></trkpt><trkpt lat="40.43743400118041" lon="8.399194975488346"><ele>106.0</ele><time>2026-05-02T13:32:33Z</time></trkpt><trkpt lat="40.43724966974272" lon="8.39917829989398"><ele>106.0</ele><time>2026-05-02T13:32:34Z</time></trkpt><trkpt lat="40.43707364696119" lon="8.399153490642231"><ele>110.66666666666667</ele><time>2026-05-02T13:32:35Z</time></trkpt><trkpt lat="40.43690003686521" lon="8.399182937007826"><ele>115.33333333333334</ele><time>2026-05-02T13:32:36Z</time></trkpt><trkpt lat="40.43674100526625" lon="8.399248682357916"><ele>120.0</ele><time>2026-05-02T13:32:37Z</time></trkpt><trkpt lat="40.43659507636929" lon="8.399365989698369"><ele>120.0</ele><time>2026-05-02T13:32:38Z</time></trkpt><trkpt lat="40.436466394593246" lon="8.399555438156456"><ele>120.0</ele><time>2026-05-02T13:32:39Z</time></trkpt><trkpt lat="40.43634977403609" lon="8.399789328197249"><ele>120.0</ele><time>2026-05-02T13:32:40Z</time></trkpt><trkpt lat="40.43629353434116" lon="8.400065795527105"><ele>115.5</ele><time>2026-05-02T13:32:41Z</time></trkpt><trkpt lat="40.436204394512664" lon="8.40037764838027"><ele>111.0</ele><time>2026-05-02T13:32:42Z</time></trkpt><trkpt lat="40.43612643671161" lon="8.400701238903148"><ele>111.0</ele><time>2026-05-02T13:32:43Z</time></trkpt><trkpt lat="40.43604251839706" lon="8.401056991111629"><ele>111.0</ele><time>2026-05-02T13:32:44Z</time></trkpt><trkpt lat="40.43596933493718" lon="8.401358053501669"><ele>118.5</ele><time>2026-05-02T13:32:45Z</time></trkpt><trkpt lat="40.435888646064186" lon="8.401657835490386"><ele>126.0</ele><time>2026-05-02T13:32:46Z</time></trkpt><trkpt lat="40.43579404559946" lon="8.401924936764182"><ele>126.0</ele><time>2026-05-02T13:32:47Z</time></trkpt><trkpt lat="40.43578241349074" lon="8.402147368817246"><ele>126.0</ele><time>2026-05-02T13:32:48Z</time></trkpt><trkpt lat="40.43578732321506" lon="8.402378606738138"><ele>126.0</ele><time>2026-05-02T13:32:49Z</time></trkpt><trkpt lat="40.43577038247823" lon="8.4027095620711"><ele>133.5</ele><time>2026-05-02T13:32:50Z</time></trkpt><trkpt lat="40.43574675610106" lon="8.403073835818613"><ele>141.0</ele><time>2026-05-02T13:32:51Z</time></trkpt><trkpt lat="40.43571674171442" lon="8.403427519432121"><ele>141.0</ele><time>2026-05-02T13:32:52Z</time></trkpt><trkpt lat="40.43568898507358" lon="8.403790532580414"><ele>141.0</ele><time>2026-05-02T13:32:53Z</time></trkpt><trkpt lat="40.4356694690411" lon="8.40412711503775"><ele>144.5</ele><time>2026-05-02T13:32:54Z</time></trkpt><trkpt lat="40.43564967459401" lon="8.40443410498232"><ele>148.0</ele><time>2026-05-02T13:32:55Z</time></trkpt><trkpt lat="40.43563301413885" lon="8.404719944818629"><ele>149.33333333333334</ele><time>2026-05-02T13:32:56Z</time></trkpt><trkpt lat="40.43562553212319" lon="8.404980609236011"><ele>150.66666666666666</ele><time>2026-05-02T13:32:57Z</time></trkpt><trkpt lat="40.435639863110744" lon="8.405227786369853"><ele>152.0</ele><time>2026-05-02T13:32:58Z</time></trkpt><trkpt lat="40.43566256105429" lon="8.405454295210392"><ele>151.33333333333331</ele><time>2026-05-02T13:32:59Z</time></trkpt><trkpt lat="40.43567691892552" lon="8.405662539614301"><ele>150.66666666666666</ele><time>2026-05-02T13:33:00Z</time></trkpt><trkpt lat="40.43564951015657" lon="8.405853485372045"><ele>150.0</ele><time>2026-05-02T13:33:01Z</time></trkpt><trkpt lat="40.43559176367108" lon="8.406028686701124"><ele>150.0</ele><time>2026-05-02T13:33:02Z</time></trkpt><trkpt lat="40.43549891177886" lon="8.406193407922105"><ele>150.0</ele><time>2026-05-02T13:33:03Z</time></trkpt><trkpt lat="40.43537312667996" lon="8.406334530612023"><ele>150.0</ele><time>2026-05-02T13:33:04Z</time></trkpt><trkpt lat="40.43522310622612" lon="8.406445401813349"><ele>146.33333333333334</ele><time>2026-05-02T13:33:05Z</time></trkpt><trkpt lat="40.43505515688572" lon="8.406519841662382"><ele>142.66666666666669</ele><time>2026-05-02T13:33:06Z</time></trkpt><trkpt lat="40.434864706684785" lon="8.406571317603637"><ele>139.0</ele><time>2026-05-02T13:33:07Z</time></trkpt><trkpt lat="40.434671527631394" lon="8.406558919994826"><ele>143.0</ele><time>2026-05-02T13:33:08Z</time></trkpt><trkpt lat="40.43447829665607" lon="8.406490730272223"><ele>147.0</ele><time>2026-05-02T13:33:09Z</time></trkpt><trkpt lat="40.4342838508196" lon="8.406405276005655"><ele>151.0</ele><time>2026-05-02T13:33:10Z</time></trkpt><trkpt lat="40.43409824100813" lon="8.406280966323465"><ele>151.0</ele><time>2026-05-02T13:33:11Z</time></trkpt><trkpt lat="40.43394661196296" lon="8.4061246963813"><ele>151.0</ele><time>2026-05-02T13:33:12Z</time></trkpt><trkpt lat="40.43383945852586" lon="8.405938698364155"><ele>151.0</ele><time>2026-05-02T13:33:13Z</time></trkpt><trkpt lat="40.43376247553654" lon="8.405729500723396"><ele>157.66666666666669</ele><time>2026-05-02T13:33:14Z</time></trkpt><trkpt lat="40.43370468035978" lon="8.405481476522658"><ele>164.33333333333334</ele><time>2026-05-02T13:33:15Z</time></trkpt><trkpt lat="40.43365343280075" lon="8.40519519909695"><ele>171.0</ele><time>2026-05-02T13:33:16Z</time></trkpt><trkpt lat="40.43358816713807" lon="8.40491123961466"><ele>171.0</ele><time>2026-05-02T13:33:17Z</time></trkpt><trkpt lat="40.433548919106315" lon="8.404674534217637"><ele>171.0</ele><time>2026-05-02T13:33:18Z</time></trkpt><trkpt lat="40.43346752772982" lon="8.404436240495343"><ele>171.0</ele><time>2026-05-02T13:33:19Z</time></trkpt><trkpt lat="40.43334706215174" lon="8.404202387216108"><ele>162.5</ele><time>2026-05-02T13:33:20Z</time></trkpt><trkpt lat="40.43318860129203" lon="8.403959357277643"><ele>154.0</ele><time>2026-05-02T13:33:21Z</time></trkpt><trkpt lat="40.43304278528324" lon="8.403699136073866"><ele>159.66666666666669</ele><time>2026-05-02T13:33:22Z</time></trkpt><trkpt lat="40.43290224392566" lon="8.403448701312369"><ele>165.33333333333334</ele><time>2026-05-02T13:33:23Z</time></trkpt><trkpt lat="40.43277755875067" lon="8.403227803385485"><ele>171.0</ele><time>2026-05-02T13:33:24Z</time></trkpt><trkpt lat="40.432641074182044" lon="8.403015336165986"><ele>172.0</ele><time>2026-05-02T13:33:25Z</time></trkpt><trkpt lat="40.43247802711443" lon="8.402819888985304"><ele>173.0</ele><time>2026-05-02T13:33:26Z</time></trkpt><trkpt lat="40.43229396043328" lon="8.402651439018424"><ele>174.0</ele><time>2026-05-02T13:33:27Z</time></trkpt><trkpt lat="40.43208959718626" lon="8.402500930066303"><ele>174.0</ele><time>2026-05-02T13:33:28Z</time></trkpt><trkpt lat="40.43187976006225" lon="8.40234946766024"><ele>174.0</ele><time>2026-05-02T13:33:29Z</time></trkpt><trkpt lat="40.4316745889344" lon="8.402216484440128"><ele>172.0</ele><time>2026-05-02T13:33:30Z</time></trkpt><trkpt lat="40.43147601599201" lon="8.40209694828456"><ele>170.0</ele><time>2026-05-02T13:33:31Z</time></trkpt><trkpt lat="40.43125540472566" lon="8.40199604095951"><ele>170.0</ele><time>2026-05-02T13:33:32Z</time></trkpt><trkpt lat="40.4310197322767" lon="8.401914675188502"><ele>170.0</ele><time>2026-05-02T13:33:33Z</time></trkpt><trkpt lat="40.430769645880154" lon="8.401849807000795"><ele>170.0</ele><time>2026-05-02T13:33:34Z</time></trkpt><trkpt lat="40.43051199829908" lon="8.401798505305846"><ele>170.0</ele><time>2026-05-02T13:33:35Z</time></trkpt><trkpt lat="40.43024816877494" lon="8.401759049458478"><ele>175.5</ele><time>2026-05-02T13:33:36Z</time></trkpt><trkpt lat="40.42997036914551" lon="8.401722348184592"><ele>181.0</ele><time>2026-05-02T13:33:37Z</time></trkpt><trkpt lat="40.42968825314438" lon="8.401687491429337"><ele>184.0</ele><time>2026-05-02T13:33:38Z</time></trkpt><trkpt lat="40.42943162101263" lon="8.401650548626616"><ele>187.0</ele><time>2026-05-02T13:33:39Z</time></trkpt><trkpt lat="40.42919853054251" lon="8.401619291017951"><ele>187.0</ele><time>2026-05-02T13:33:40Z</time></trkpt><trkpt lat="40.42897694039117" lon="8.401590713846764"><ele>187.0</ele><time>2026-05-02T13:33:41Z</time></trkpt><trkpt lat="40.4287541914714" lon="8.401546648788873"><ele>187.0</ele><time>2026-05-02T13:33:42Z</time></trkpt><trkpt lat="40.428517737374136" lon="8.401540294029196"><ele>192.0</ele><time>2026-05-02T13:33:43Z</time></trkpt><trkpt lat="40.42827044305509" lon="8.401575082062845"><ele>197.0</ele><time>2026-05-02T13:33:44Z</time></trkpt><trkpt lat="40.42802603603493" lon="8.40165932008355"><ele>194.5</ele><time>2026-05-02T13:33:45Z</time></trkpt><trkpt lat="40.42777738264373" lon="8.40176539483807"><ele>192.0</ele><time>2026-05-02T13:33:46Z</time></trkpt><trkpt lat="40.427521852110615" lon="8.40187542300853"><ele>192.0</ele><time>2026-05-02T13:33:47Z</time></trkpt><trkpt lat="40.42726473652993" lon="8.401986763170695"><ele>192.0</ele><time>2026-05-02T13:33:48Z</time></trkpt><trkpt lat="40.42704117936428" lon="8.402104553752737"><ele>191.0</ele><time>2026-05-02T13:33:49Z</time></trkpt><trkpt lat="40.426804944813426" lon="8.402141331639562"><ele>190.0</ele><time>2026-05-02T13:33:50Z</time></trkpt><trkpt lat="40.42655997651678" lon="8.40214527200819"><ele>193.0</ele><time>2026-05-02T13:33:51Z</time></trkpt><trkpt lat="40.42629223852752" lon="8.402139561321297"><ele>196.0</ele><time>2026-05-02T13:33:52Z</time></trkpt><trkpt lat="40.42602866345401" lon="8.402152949005048"><ele>196.0</ele><time>2026-05-02T13:33:53Z</time></trkpt><trkpt lat="40.42579053028395" lon="8.402143404073637"><ele>196.0</ele><time>2026-05-02T13:33:54Z</time></trkpt><trkpt lat="40.425567737209605" lon="8.402135527480342"><ele>192.33333333333331</ele><time>2026-05-02T13:33:55Z</time></trkpt><trkpt lat="40.425363837144126" lon="8.402133528056574"><ele>188.66666666666666</ele><time>2026-05-02T13:33:56Z</time></trkpt><trkpt lat="40.42515909511582" lon="8.40216093970335"><ele>185.0</ele><time>2026-05-02T13:33:57Z</time></trkpt><trkpt lat="40.42494172523578" lon="8.402206104484554"><ele>192.33333333333331</ele><time>2026-05-02T13:33:58Z</time></trkpt><trkpt lat="40.424731048982316" lon="8.402311059086184"><ele>199.66666666666666</ele><time>2026-05-02T13:33:59Z</time></trkpt><trkpt lat="40.424543782196885" lon="8.402467389861556"><ele>207.0</ele><time>2026-05-02T13:34:00Z</time></trkpt><trkpt lat="40.42436335562577" lon="8.402646631078245"><ele>207.0</ele><time>2026-05-02T13:34:01Z</time></trkpt><trkpt lat="40.42419225924802" lon="8.402849816802936"><ele>207.0</ele><time>2026-05-02T13:34:02Z</time></trkpt><trkpt lat="40.42402309808866" lon="8.403070846772172"><ele>206.0</ele><time>2026-05-02T13:34:03Z</time></trkpt><trkpt lat="40.423848265966335" lon="8.40330016989726"><ele>205.0</ele><time>2026-05-02T13:34:04Z</time></trkpt><trkpt lat="40.423662976433505" lon="8.403537803853483"><ele>205.0</ele><time>2026-05-02T13:34:05Z</time></trkpt><trkpt lat="40.423467400243325" lon="8.403757677408326"><ele>205.0</ele><time>2026-05-02T13:34:06Z</time></trkpt><trkpt lat="40.42331750415083" lon="8.403981078586025"><ele>208.33333333333331</ele><time>2026-05-02T13:34:07Z</time></trkpt><trkpt lat="40.42317667840637" lon="8.40417893800913"><ele>211.66666666666669</ele><time>2026-05-02T13:34:08Z</time></trkpt><trkpt lat="40.4230363436398" lon="8.404393407103512"><ele>215.0</ele><time>2026-05-02T13:34:09Z</time></trkpt><trkpt lat="40.422950216279034" lon="8.40466168979037"><ele>222.0</ele><time>2026-05-02T13:34:10Z</time></trkpt><trkpt lat="40.422839022206475" lon="8.404922112579563"><ele>229.0</ele><time>2026-05-02T13:34:11Z</time></trkpt><trkpt lat="40.422731900028126" lon="8.405210919372898"><ele>230.0</ele><time>2026-05-02T13:34:12Z</time></trkpt><trkpt lat="40.42270709936519" lon="8.405562935486309"><ele>231.0</ele><time>2026-05-02T13:34:13Z</time></trkpt><trkpt lat="40.42262044396913" lon="8.405852053080292"><ele>231.0</ele><time>2026-05-02T13:34:14Z</time></trkpt><trkpt lat="40.422545470499344" lon="8.406121412994489"><ele>231.0</ele><time>2026-05-02T13:34:15Z</time></trkpt><trkpt lat="40.4224739599317" lon="8.40637293563612"><ele>231.0</ele><time>2026-05-02T13:34:16Z</time></trkpt><trkpt lat="40.42240300384733" lon="8.406611378175436"><ele>233.0</ele><time>2026-05-02T13:34:17Z</time></trkpt><trkpt lat="40.42233961182967" lon="8.40680752090942"><ele>235.0</ele><time>2026-05-02T13:34:18Z</time></trkpt><trkpt lat="40.42223340457807" lon="8.406982710530023"><ele>237.0</ele><time>2026-05-02T13:34:19Z</time></trkpt><trkpt lat="40.42210413151869" lon="8.407129180440528"><ele>238.33333333333331</ele><time>2026-05-02T13:34:20Z</time></trkpt><trkpt lat="40.42195424841769" lon="8.407216348616373"><ele>239.66666666666666</ele><time>2026-05-02T13:34:21Z</time></trkpt><trkpt lat="40.421806924565516" lon="8.407251589817866"><ele>241.0</ele><time>2026-05-02T13:34:22Z</time></trkpt><trkpt lat="40.42165191120282" lon="8.407230637213518"><ele>241.0</ele><time>2026-05-02T13:34:23Z</time></trkpt><trkpt lat="40.421464819452645" lon="8.407181560328944"><ele>241.0</ele><time>2026-05-02T13:34:24Z</time></trkpt><trkpt lat="40.42124695794847" lon="8.407124957294675"><ele>241.0</ele><time>2026-05-02T13:34:25Z</time></trkpt><trkpt lat="40.42100019794369" lon="8.40706094258319"><ele>227.0</ele><time>2026-05-02T13:34:26Z</time></trkpt><trkpt lat="40.42075906636928" lon="8.406968951579005"><ele>213.0</ele><time>2026-05-02T13:34:27Z</time></trkpt><trkpt lat="40.42054995591864" lon="8.40686257336605"><ele>215.0</ele><time>2026-05-02T13:34:28Z</time></trkpt><trkpt lat="40.420359064994685" lon="8.40677160175178"><ele>217.0</ele><time>2026-05-02T13:34:29Z</time></trkpt><trkpt lat="40.42016931862712" lon="8.406709365208659"><ele>219.0</ele><time>2026-05-02T13:34:30Z</time></trkpt><trkpt lat="40.41998493629908" lon="8.406679792462938"><ele>219.0</ele><time>2026-05-02T13:34:31Z</time></trkpt><trkpt lat="40.41979797890348" lon="8.406712226715996"><ele>219.0</ele><time>2026-05-02T13:34:32Z</time></trkpt><trkpt lat="40.41961761082486" lon="8.406792300839866"><ele>219.0</ele><time>2026-05-02T13:34:33Z</time></trkpt><trkpt lat="40.419432529002485" lon="8.40689209422655"><ele>218.66666666666669</ele><time>2026-05-02T13:34:34Z</time></trkpt><trkpt lat="40.419241877448044" lon="8.406973262919063"><ele>218.33333333333334</ele><time>2026-05-02T13:34:35Z</time></trkpt><trkpt lat="40.41905995431085" lon="8.406994978203885"><ele>218.0</ele><time>2026-05-02T13:34:36Z</time></trkpt><trkpt lat="40.41889254957743" lon="8.406952277632685"><ele>222.66666666666669</ele><time>2026-05-02T13:34:37Z</time></trkpt><trkpt lat="40.41873392626063" lon="8.406848322948738"><ele>227.33333333333331</ele><time>2026-05-02T13:34:38Z</time></trkpt><trkpt lat="40.418547892932445" lon="8.406764124065718"><ele>232.0</ele><time>2026-05-02T13:34:39Z</time></trkpt><trkpt lat="40.418343020653246" lon="8.406730111483272"><ele>232.0</ele><time>2026-05-02T13:34:40Z</time></trkpt><trkpt lat="40.418138263128924" lon="8.40672955888227"><ele>232.0</ele><time>2026-05-02T13:34:41Z</time></trkpt><trkpt lat="40.41794792713576" lon="8.406723825475478"><ele>232.0</ele><time>2026-05-02T13:34:42Z</time></trkpt><trkpt lat="40.41774503061838" lon="8.40680211472913"><ele>228.0</ele><time>2026-05-02T13:34:43Z</time></trkpt><trkpt lat="40.41755064591482" lon="8.406926662242816"><ele>224.0</ele><time>2026-05-02T13:34:44Z</time></trkpt><trkpt lat="40.41738068362605" lon="8.407094987560772"><ele>220.0</ele><time>2026-05-02T13:34:45Z</time></trkpt><trkpt lat="40.41724666335609" lon="8.407267248129328"><ele>220.33333333333331</ele><time>2026-05-02T13:34:46Z</time></trkpt><trkpt lat="40.41715122199966" lon="8.407458292957214"><ele>220.66666666666669</ele><time>2026-05-02T13:34:47Z</time></trkpt><trkpt lat="40.41706602041103" lon="8.407679774229306"><ele>221.0</ele><time>2026-05-02T13:34:48Z</time></trkpt><trkpt lat="40.41696843629939" lon="8.407903302531928"><ele>229.0</ele><time>2026-05-02T13:34:49Z</time></trkpt><trkpt lat="40.416876427784686" lon="8.408093052220435"><ele>237.0</ele><time>2026-05-02T13:34:50Z</time></trkpt><trkpt lat="40.41676033151328" lon="8.408235072704162"><ele>245.0</ele><time>2026-05-02T13:34:51Z</time></trkpt><trkpt lat="40.4166098304239" lon="8.408339278139264"><ele>245.0</ele><time>2026-05-02T13:34:52Z</time></trkpt><trkpt lat="40.41643937039231" lon="8.408394931721967"><ele>245.0</ele><time>2026-05-02T13:34:53Z</time></trkpt><trkpt lat="40.41626275471732" lon="8.40839559884702"><ele>245.0</ele><time>2026-05-02T13:34:54Z</time></trkpt><trkpt lat="40.41605242924075" lon="8.408354651110905"><ele>244.33333333333334</ele><time>2026-05-02T13:34:55Z</time></trkpt><trkpt lat="40.41583135581636" lon="8.408285301200749"><ele>243.66666666666669</ele><time>2026-05-02T13:34:56Z</time></trkpt><trkpt lat="40.415643081057766" lon="8.408219923584522"><ele>243.0</ele><time>2026-05-02T13:34:57Z</time></trkpt><trkpt lat="40.41546295786682" lon="8.408171908865192"><ele>245.66666666666669</ele><time>2026-05-02T13:34:58Z</time></trkpt><trkpt lat="40.41528508726559" lon="8.408132251731555"><ele>248.33333333333334</ele><time>2026-05-02T13:34:59Z</time></trkpt><trkpt lat="40.41512048832522" lon="8.40808529446366"><ele>251.0</ele><time>2026-05-02T13:35:00Z</time></trkpt><trkpt lat="40.41493781657847" lon="8.408043855476418"><ele>251.0</ele><time>2026-05-02T13:35:01Z</time></trkpt><trkpt lat="40.41476311175695" lon="8.40800426976647"><ele>251.0</ele><time>2026-05-02T13:35:02Z</time></trkpt><trkpt lat="40.41456707798413" lon="8.407928564971037"><ele>251.0</ele><time>2026-05-02T13:35:03Z</time></trkpt><trkpt lat="40.41437361726952" lon="8.407806356361938"><ele>245.33333333333334</ele><time>2026-05-02T13:35:04Z</time></trkpt><trkpt lat="40.41419462763272" lon="8.407658266503635"><ele>239.66666666666669</ele><time>2026-05-02T13:35:05Z</time></trkpt><trkpt lat="40.414024327383494" lon="8.407536663031237"><ele>234.0</ele><time>2026-05-02T13:35:06Z</time></trkpt><trkpt lat="40.413843229816464" lon="8.407455134478207"><ele>232.66666666666669</ele><time>2026-05-02T13:35:07Z</time></trkpt><trkpt lat="40.41364542340568" lon="8.407422936423878"><ele>231.33333333333334</ele><time>2026-05-02T13:35:08Z</time></trkpt><trkpt lat="40.41342518345792" lon="8.407440807748952"><ele>230.0</ele><time>2026-05-02T13:35:09Z</time></trkpt><trkpt lat="40.41319820386341" lon="8.40748670314958"><ele>228.66666666666669</ele><time>2026-05-02T13:35:10Z</time></trkpt><trkpt lat="40.41296957019101" lon="8.407535721854632"><ele>227.33333333333331</ele><time>2026-05-02T13:35:11Z</time></trkpt><trkpt lat="40.41275451313501" lon="8.407571652034617"><ele>226.0</ele><time>2026-05-02T13:35:12Z</time></trkpt><trkpt lat="40.41255068238467" lon="8.407597932890845"><ele>226.0</ele><time>2026-05-02T13:35:13Z</time></trkpt><trkpt lat="40.412349287974315" lon="8.407592085495784"><ele>226.0</ele><time>2026-05-02T13:35:14Z</time></trkpt><trkpt lat="40.41213698604722" lon="8.407537151029146"><ele>226.0</ele><time>2026-05-02T13:35:15Z</time></trkpt><trkpt lat="40.41190955463265" lon="8.407439182393952"><ele>225.0</ele><time>2026-05-02T13:35:16Z</time></trkpt><trkpt lat="40.41166766955626" lon="8.407347230313999"><ele>224.0</ele><time>2026-05-02T13:35:17Z</time></trkpt><trkpt lat="40.411407718975184" lon="8.407249878525171"><ele>212.5</ele><time>2026-05-02T13:35:18Z</time></trkpt><trkpt lat="40.41113118824221" lon="8.407150715079899"><ele>201.0</ele><time>2026-05-02T13:35:19Z</time></trkpt><trkpt lat="40.41086602514075" lon="8.407063145246717"><ele>201.0</ele><time>2026-05-02T13:35:20Z</time></trkpt><trkpt lat="40.410614067458056" lon="8.40699200538108"><ele>201.0</ele><time>2026-05-02T13:35:21Z</time></trkpt><trkpt lat="40.41037268667673" lon="8.406935869534289"><ele>196.5</ele><time>2026-05-02T13:35:22Z</time></trkpt><trkpt lat="40.410139596244235" lon="8.406889530618413"><ele>192.0</ele><time>2026-05-02T13:35:23Z</time></trkpt><trkpt lat="40.40992293904126" lon="8.406850801373533"><ele>192.0</ele><time>2026-05-02T13:35:24Z</time></trkpt><trkpt lat="40.40973487697953" lon="8.406830413098264"><ele>192.0</ele><time>2026-05-02T13:35:25Z</time></trkpt><trkpt lat="40.40953866601459" lon="8.406844771026684"><ele>192.0</ele><time>2026-05-02T13:35:26Z</time></trkpt><trkpt lat="40.40932799379308" lon="8.406914055251997"><ele>189.0</ele><time>2026-05-02T13:35:27Z</time></trkpt><trkpt lat="40.40911622304805" lon="8.407029155329091"><ele>186.0</ele><time>2026-05-02T13:35:28Z</time></trkpt><trkpt lat="40.40889070670751" lon="8.407169327006272"><ele>189.0</ele><time>2026-05-02T13:35:29Z</time></trkpt><trkpt lat="40.40864999680406" lon="8.407316367642425"><ele>192.0</ele><time>2026-05-02T13:35:30Z</time></trkpt><trkpt lat="40.408426596615634" lon="8.407451503642255"><ele>192.0</ele><time>2026-05-02T13:35:31Z</time></trkpt><trkpt lat="40.40822105561046" lon="8.407580522958257"><ele>192.0</ele><time>2026-05-02T13:35:32Z</time></trkpt><trkpt lat="40.40805289157552" lon="8.40769590069964"><ele>192.0</ele><time>2026-05-02T13:35:33Z</time></trkpt><trkpt lat="40.407897184292416" lon="8.407833067198956"><ele>187.33333333333334</ele><time>2026-05-02T13:35:34Z</time></trkpt><trkpt lat="40.407748615637715" lon="8.408008062612366"><ele>182.66666666666669</ele><time>2026-05-02T13:35:35Z</time></trkpt><trkpt lat="40.40763437940825" lon="8.408207771486282"><ele>178.0</ele><time>2026-05-02T13:35:36Z</time></trkpt><trkpt lat="40.407562337301314" lon="8.408429261399359"><ele>178.0</ele><time>2026-05-02T13:35:37Z</time></trkpt><trkpt lat="40.407524402474316" lon="8.408673246356235"><ele>178.0</ele><time>2026-05-02T13:35:38Z</time></trkpt><trkpt lat="40.407521536423005" lon="8.408944400496182"><ele>178.0</ele><time>2026-05-02T13:35:39Z</time></trkpt><trkpt lat="40.40755119875272" lon="8.409204029919639"><ele>176.66666666666669</ele><time>2026-05-02T13:35:40Z</time></trkpt><trkpt lat="40.407613485434375" lon="8.409459131606724"><ele>175.33333333333334</ele><time>2026-05-02T13:35:41Z</time></trkpt><trkpt lat="40.4077131971063" lon="8.409704592300617"><ele>174.0</ele><time>2026-05-02T13:35:42Z</time></trkpt><trkpt lat="40.407825864979294" lon="8.40992851650515"><ele>175.0</ele><time>2026-05-02T13:35:43Z</time></trkpt><trkpt lat="40.40792516938736" lon="8.410138551516825"><ele>176.0</ele><time>2026-05-02T13:35:44Z</time></trkpt><trkpt lat="40.40798424369846" lon="8.410348635837012"><ele>177.0</ele><time>2026-05-02T13:35:45Z</time></trkpt><trkpt lat="40.408002950614815" lon="8.410581111833512"><ele>169.0</ele><time>2026-05-02T13:35:46Z</time></trkpt><trkpt lat="40.40797556327744" lon="8.410825173363087"><ele>161.0</ele><time>2026-05-02T13:35:47Z</time></trkpt><trkpt lat="40.40791749458676" lon="8.411065401001467"><ele>153.0</ele><time>2026-05-02T13:35:48Z</time></trkpt><trkpt lat="40.40782732033361" lon="8.411290149045145"><ele>158.0</ele><time>2026-05-02T13:35:49Z</time></trkpt><trkpt lat="40.407709548357246" lon="8.411526401350738"><ele>163.0</ele><time>2026-05-02T13:35:50Z</time></trkpt><trkpt lat="40.40756923816649" lon="8.41177514609299"><ele>163.0</ele><time>2026-05-02T13:35:51Z</time></trkpt><trkpt lat="40.40742060486929" lon="8.412040127992148"><ele>163.0</ele><time>2026-05-02T13:35:52Z</time></trkpt><trkpt lat="40.407273668373506" lon="8.412320172546197"><ele>152.5</ele><time>2026-05-02T13:35:53Z</time></trkpt><trkpt lat="40.407140997510545" lon="8.412578512422106"><ele>142.0</ele><time>2026-05-02T13:35:54Z</time></trkpt><trkpt lat="40.40701409542467" lon="8.412822977585803"><ele>144.33333333333334</ele><time>2026-05-02T13:35:55Z</time></trkpt><trkpt lat="40.406894320373056" lon="8.413051703766312"><ele>146.66666666666666</ele><time>2026-05-02T13:35:56Z</time></trkpt><trkpt lat="40.40677705840133" lon="8.413238229589789"><ele>149.0</ele><time>2026-05-02T13:35:57Z</time></trkpt><trkpt lat="40.40663701888939" lon="8.413391166741272"><ele>149.0</ele><time>2026-05-02T13:35:58Z</time></trkpt><trkpt lat="40.406460753621204" lon="8.413503215615547"><ele>149.0</ele><time>2026-05-02T13:35:59Z</time></trkpt><trkpt lat="40.40626438604175" lon="8.41357104855647"><ele>149.0</ele><time>2026-05-02T13:36:00Z</time></trkpt><trkpt lat="40.40607339692296" lon="8.413560567964304"><ele>147.33333333333331</ele><time>2026-05-02T13:36:01Z</time></trkpt><trkpt lat="40.405886114337555" lon="8.413493751135503"><ele>145.66666666666666</ele><time>2026-05-02T13:36:02Z</time></trkpt><trkpt lat="40.40570859923722" lon="8.413367114075209"><ele>144.0</ele><time>2026-05-02T13:36:03Z</time></trkpt><trkpt lat="40.40554876530753" lon="8.413184497200728"><ele>145.5</ele><time>2026-05-02T13:36:04Z</time></trkpt><trkpt lat="40.405382963029766" lon="8.412955818701882"><ele>147.0</ele><time>2026-05-02T13:36:05Z</time></trkpt><trkpt lat="40.40519721721732" lon="8.412746507937511"><ele>147.0</ele><time>2026-05-02T13:36:06Z</time></trkpt><trkpt lat="40.404981871932975" lon="8.412547294223042"><ele>147.0</ele><time>2026-05-02T13:36:07Z</time></trkpt><trkpt lat="40.40474227369379" lon="8.412349094124977"><ele>147.0</ele><time>2026-05-02T13:36:08Z</time></trkpt><trkpt lat="40.40452029346659" lon="8.412161045401554"><ele>147.0</ele><time>2026-05-02T13:36:09Z</time></trkpt><trkpt lat="40.40432348821402" lon="8.411972652746313"><ele>147.0</ele><time>2026-05-02T13:36:10Z</time></trkpt><trkpt lat="40.40414695301976" lon="8.411775102247669"><ele>147.0</ele><time>2026-05-02T13:36:11Z</time></trkpt><trkpt lat="40.40399412126471" lon="8.41154803739229"><ele>142.0</ele><time>2026-05-02T13:36:12Z</time></trkpt><trkpt lat="40.40388043870779" lon="8.41130077751474"><ele>137.0</ele><time>2026-05-02T13:36:13Z</time></trkpt><trkpt lat="40.40377826875827" lon="8.411012100132702"><ele>149.0</ele><time>2026-05-02T13:36:14Z</time></trkpt><trkpt lat="40.40366257582399" lon="8.410709764229333"><ele>161.0</ele><time>2026-05-02T13:36:15Z</time></trkpt><trkpt lat="40.4035319313151" lon="8.410401462366321"><ele>161.0</ele><time>2026-05-02T13:36:16Z</time></trkpt><trkpt lat="40.40340697937168" lon="8.41014227409933"><ele>161.0</ele><time>2026-05-02T13:36:17Z</time></trkpt><trkpt lat="40.40330023560975" lon="8.409903555249501"><ele>161.0</ele><time>2026-05-02T13:36:18Z</time></trkpt><trkpt lat="40.403195013193034" lon="8.409691549494358"><ele>164.0</ele><time>2026-05-02T13:36:19Z</time></trkpt><trkpt lat="40.40307190664838" lon="8.409498740171177"><ele>167.0</ele><time>2026-05-02T13:36:20Z</time></trkpt><trkpt lat="40.402915811827356" lon="8.409330514797745"><ele>170.0</ele><time>2026-05-02T13:36:21Z</time></trkpt><trkpt lat="40.40272290186257" lon="8.40918801802407"><ele>170.0</ele><time>2026-05-02T13:36:22Z</time></trkpt><trkpt lat="40.40254398332956" lon="8.409077521397101"><ele>170.0</ele><time>2026-05-02T13:36:23Z</time></trkpt><trkpt lat="40.402373732866664" lon="8.40900945754372"><ele>170.0</ele><time>2026-05-02T13:36:24Z</time></trkpt><trkpt lat="40.40220086750085" lon="8.409006199446061"><ele>167.0</ele><time>2026-05-02T13:36:25Z</time></trkpt><trkpt lat="40.402028269656505" lon="8.40906996106627"><ele>164.0</ele><time>2026-05-02T13:36:26Z</time></trkpt><trkpt lat="40.401866933837496" lon="8.40920013886966"><ele>161.0</ele><time>2026-05-02T13:36:27Z</time></trkpt><trkpt lat="40.40171384773334" lon="8.40938083288906"><ele>161.0</ele><time>2026-05-02T13:36:28Z</time></trkpt><trkpt lat="40.40154168129247" lon="8.4095881642835"><ele>161.0</ele><time>2026-05-02T13:36:29Z</time></trkpt><trkpt lat="40.40133315816987" lon="8.409821252679087"><ele>165.0</ele><time>2026-05-02T13:36:30Z</time></trkpt><trkpt lat="40.4011005318189" lon="8.410070909100414"><ele>169.0</ele><time>2026-05-02T13:36:31Z</time></trkpt><trkpt lat="40.40090017390834" lon="8.410286868803913"><ele>169.0</ele><time>2026-05-02T13:36:32Z</time></trkpt><trkpt lat="40.40072307494587" lon="8.410490622682369"><ele>169.0</ele><time>2026-05-02T13:36:33Z</time></trkpt><trkpt lat="40.40054986780124" lon="8.410689406737772"><ele>172.66666666666669</ele><time>2026-05-02T13:36:34Z</time></trkpt><trkpt lat="40.40037413615273" lon="8.41087251036224"><ele>176.33333333333334</ele><time>2026-05-02T13:36:35Z</time></trkpt><trkpt lat="40.400205673169886" lon="8.411016166783305"><ele>180.0</ele><time>2026-05-02T13:36:36Z</time></trkpt><trkpt lat="40.40004054341066" lon="8.411092576241964"><ele>180.0</ele><time>2026-05-02T13:36:37Z</time></trkpt><trkpt lat="40.39987088814345" lon="8.41111335821271"><ele>180.0</ele><time>2026-05-02T13:36:38Z</time></trkpt><trkpt lat="40.39972553399122" lon="8.411097282576064"><ele>180.0</ele><time>2026-05-02T13:36:39Z</time></trkpt><trkpt lat="40.39956389608093" lon="8.411064021660785"><ele>182.75</ele><time>2026-05-02T13:36:40Z</time></trkpt><trkpt lat="40.39944010766021" lon="8.411052633148975"><ele>185.5</ele><time>2026-05-02T13:36:41Z</time></trkpt><trkpt lat="40.39932652020953" lon="8.411043878825108"><ele>188.25</ele><time>2026-05-02T13:36:42Z</time></trkpt><trkpt lat="40.39921805177723" lon="8.411021768358369"><ele>191.0</ele><time>2026-05-02T13:36:43Z</time></trkpt><trkpt lat="40.39910612133016" lon="8.410988683238426"><ele>191.0</ele><time>2026-05-02T13:36:44Z</time></trkpt><trkpt lat="40.39899457386941" lon="8.410929368476086"><ele>191.0</ele><time>2026-05-02T13:36:45Z</time></trkpt><trkpt lat="40.39888983160029" lon="8.410843226407282"><ele>191.0</ele><time>2026-05-02T13:36:46Z</time></trkpt><trkpt lat="40.398783459714956" lon="8.410730689405485"><ele>191.0</ele><time>2026-05-02T13:36:47Z</time></trkpt><trkpt lat="40.39866612305402" lon="8.410581430333666"><ele>194.66666666666666</ele><time>2026-05-02T13:36:48Z</time></trkpt><trkpt lat="40.39853966773641" lon="8.410384894003796"><ele>198.33333333333331</ele><time>2026-05-02T13:36:49Z</time></trkpt><trkpt lat="40.398410066743786" lon="8.410176308110483"><ele>202.0</ele><time>2026-05-02T13:36:50Z</time></trkpt><trkpt lat="40.39827160148338" lon="8.409971373959387"><ele>202.0</ele><time>2026-05-02T13:36:51Z</time></trkpt><trkpt lat="40.398154620735426" lon="8.409762769044981"><ele>202.0</ele><time>2026-05-02T13:36:52Z</time></trkpt><trkpt lat="40.398061392628975" lon="8.409576820965995"><ele>202.0</ele><time>2026-05-02T13:36:53Z</time></trkpt><trkpt lat="40.397980383268" lon="8.409407963914477"><ele>207.5</ele><time>2026-05-02T13:36:54Z</time></trkpt><trkpt lat="40.397924863229775" lon="8.409233058291608"><ele>213.0</ele><time>2026-05-02T13:36:55Z</time></trkpt><trkpt lat="40.39789715150481" lon="8.409047184719677"><ele>218.5</ele><time>2026-05-02T13:36:56Z</time></trkpt><trkpt lat="40.39789842529808" lon="8.40887830639981"><ele>224.0</ele><time>2026-05-02T13:36:57Z</time></trkpt><trkpt lat="40.39791887224818" lon="8.408710322331292"><ele>224.25</ele><time>2026-05-02T13:36:58Z</time></trkpt><trkpt lat="40.397965810933385" lon="8.408553102783385"><ele>224.5</ele><time>2026-05-02T13:36:59Z</time></trkpt><trkpt lat="40.398036934633645" lon="8.408400115970515"><ele>224.75</ele><time>2026-05-02T13:37:00Z</time></trkpt><trkpt lat="40.39813098079692" lon="8.408250474209185"><ele>225.0</ele><time>2026-05-02T13:37:01Z</time></trkpt><trkpt lat="40.398249288476634" lon="8.40812699820647"><ele>225.25</ele><time>2026-05-02T13:37:02Z</time></trkpt><trkpt lat="40.398367098804115" lon="8.408045448086066"><ele>225.5</ele><time>2026-05-02T13:37:03Z</time></trkpt><trkpt lat="40.39848563841115" lon="8.407984577250321"><ele>225.75</ele><time>2026-05-02T13:37:04Z</time></trkpt><trkpt lat="40.39860645158392" lon="8.40792021286054"><ele>226.0</ele><time>2026-05-02T13:37:05Z</time></trkpt><trkpt lat="40.398720270257314" lon="8.407855869620835"><ele>226.0</ele><time>2026-05-02T13:37:06Z</time></trkpt><trkpt lat="40.398832911854875" lon="8.407789836847769"><ele>226.0</ele><time>2026-05-02T13:37:07Z</time></trkpt><trkpt lat="40.39894417131589" lon="8.407717340216436"><ele>226.0</ele><time>2026-05-02T13:37:08Z</time></trkpt><trkpt lat="40.3990402831252" lon="8.407620888078476"><ele>226.0</ele><time>2026-05-02T13:37:09Z</time></trkpt><trkpt lat="40.399110974062964" lon="8.40749535635625"><ele>223.0</ele><time>2026-05-02T13:37:10Z</time></trkpt><trkpt lat="40.39916308771228" lon="8.407353800892668"><ele>220.0</ele><time>2026-05-02T13:37:11Z</time></trkpt><trkpt lat="40.39919980591202" lon="8.4071918552004"><ele>217.0</ele><time>2026-05-02T13:37:12Z</time></trkpt><trkpt lat="40.39921915831178" lon="8.407009178664428"><ele>214.0</ele><time>2026-05-02T13:37:13Z</time></trkpt><trkpt lat="40.39921372855158" lon="8.406818950763432"><ele>214.0</ele><time>2026-05-02T13:37:14Z</time></trkpt><trkpt lat="40.3991883105773" lon="8.406625046417725"><ele>214.0</ele><time>2026-05-02T13:37:15Z</time></trkpt><trkpt lat="40.39916433908351" lon="8.406424214783986"><ele>214.0</ele><time>2026-05-02T13:37:16Z</time></trkpt><trkpt lat="40.399134904832174" lon="8.40621506049357"><ele>212.66666666666666</ele><time>2026-05-02T13:37:17Z</time></trkpt><trkpt lat="40.39909035864256" lon="8.405991736015439"><ele>211.33333333333331</ele><time>2026-05-02T13:37:18Z</time></trkpt><trkpt lat="40.39903447150791" lon="8.40576929197774"><ele>210.0</ele><time>2026-05-02T13:37:19Z</time></trkpt><trkpt lat="40.39898726926499" lon="8.405534437325507"><ele>205.66666666666669</ele><time>2026-05-02T13:37:20Z</time></trkpt><trkpt lat="40.398926238930876" lon="8.40526930534038"><ele>201.33333333333334</ele><time>2026-05-02T13:37:21Z</time></trkpt><trkpt lat="40.398872342909556" lon="8.404980046921136"><ele>197.0</ele><time>2026-05-02T13:37:22Z</time></trkpt><trkpt lat="40.39882086543714" lon="8.404688093380033"><ele>207.33333333333334</ele><time>2026-05-02T13:37:23Z</time></trkpt><trkpt lat="40.398797742366135" lon="8.404422740001085"><ele>217.66666666666669</ele><time>2026-05-02T13:37:24Z</time></trkpt><trkpt lat="40.39877293826172" lon="8.404194385502219"><ele>228.0</ele><time>2026-05-02T13:37:25Z</time></trkpt><trkpt lat="40.39872875924167" lon="8.403984517817811"><ele>220.66666666666669</ele><time>2026-05-02T13:37:26Z</time></trkpt><trkpt lat="40.39864601042092" lon="8.403791030944745"><ele>213.33333333333334</ele><time>2026-05-02T13:37:27Z</time></trkpt><trkpt lat="40.39851370665794" lon="8.403598219233857"><ele>206.0</ele><time>2026-05-02T13:37:28Z</time></trkpt><trkpt lat="40.39834125793535" lon="8.40343306594388"><ele>206.0</ele><time>2026-05-02T13:37:29Z</time></trkpt><trkpt lat="40.39814185863249" lon="8.403307605204509"><ele>206.0</ele><time>2026-05-02T13:37:30Z</time></trkpt><trkpt lat="40.39792810211618" lon="8.403242319377338"><ele>206.0</ele><time>2026-05-02T13:37:31Z</time></trkpt><trkpt lat="40.39771502305723" lon="8.403223649351185"><ele>207.0</ele><time>2026-05-02T13:37:32Z</time></trkpt><trkpt lat="40.397506525063754" lon="8.40324420686677"><ele>208.0</ele><time>2026-05-02T13:37:33Z</time></trkpt><trkpt lat="40.39729756458771" lon="8.403303637630762"><ele>209.0</ele><time>2026-05-02T13:37:34Z</time></trkpt><trkpt lat="40.39709786746599" lon="8.403418286941049"><ele>209.0</ele><time>2026-05-02T13:37:35Z</time></trkpt><trkpt lat="40.396916530319" lon="8.403577098179719"><ele>209.0</ele><time>2026-05-02T13:37:36Z</time></trkpt><trkpt lat="40.39675727481339" lon="8.403777564309387"><ele>209.0</ele><time>2026-05-02T13:37:37Z</time></trkpt><trkpt lat="40.39662015017516" lon="8.404006597951572"><ele>210.33333333333334</ele><time>2026-05-02T13:37:38Z</time></trkpt><trkpt lat="40.396481339827446" lon="8.404239003705948"><ele>211.66666666666669</ele><time>2026-05-02T13:37:39Z</time></trkpt><trkpt lat="40.396368809423166" lon="8.40446285132554"><ele>213.0</ele><time>2026-05-02T13:37:40Z</time></trkpt><trkpt lat="40.396264309397004" lon="8.40464931185109"><ele>216.33333333333331</ele><time>2026-05-02T13:37:41Z</time></trkpt><trkpt lat="40.396137557341" lon="8.404792812948132"><ele>219.66666666666666</ele><time>2026-05-02T13:37:42Z</time></trkpt><trkpt lat="40.39599427374213" lon="8.404881516834275"><ele>223.0</ele><time>2026-05-02T13:37:43Z</time></trkpt><trkpt lat="40.39582040049529" lon="8.404936657195401"><ele>223.0</ele><time>2026-05-02T13:37:44Z</time></trkpt><trkpt lat="40.395622064540774" lon="8.40490108388208"><ele>223.0</ele><time>2026-05-02T13:37:45Z</time></trkpt><trkpt lat="40.39541040475654" lon="8.404820584596106"><ele>223.0</ele><time>2026-05-02T13:37:46Z</time></trkpt><trkpt lat="40.39518471580382" lon="8.404769615921738"><ele>222.0</ele><time>2026-05-02T13:37:47Z</time></trkpt><trkpt lat="40.39494211444194" lon="8.404734863793701"><ele>221.0</ele><time>2026-05-02T13:37:48Z</time></trkpt><trkpt lat="40.394722279482885" lon="8.404815407370398"><ele>221.5</ele><time>2026-05-02T13:37:49Z</time></trkpt><trkpt lat="40.39442383186665" lon="8.404827935471353"><ele>222.0</ele><time>2026-05-02T13:37:50Z</time></trkpt><trkpt lat="40.39412722992097" lon="8.404840594486359"><ele>222.5</ele><time>2026-05-02T13:37:51Z</time></trkpt><trkpt lat="40.39383838750636" lon="8.40485349810066"><ele>223.0</ele><time>2026-05-02T13:37:52Z</time></trkpt><trkpt lat="40.39355292961104" lon="8.404879246273696"><ele>223.0</ele><time>2026-05-02T13:37:53Z</time></trkpt><trkpt lat="40.39330663095999" lon="8.404877253550417"><ele>223.0</ele><time>2026-05-02T13:37:54Z</time></trkpt><trkpt lat="40.3930701184696" lon="8.404883202534918"><ele>229.0</ele><time>2026-05-02T13:37:55Z</time></trkpt><trkpt lat="40.39284735156984" lon="8.404846725628163"><ele>235.0</ele><time>2026-05-02T13:37:56Z</time></trkpt><trkpt lat="40.39262538627965" lon="8.404768906205724"><ele>235.0</ele><time>2026-05-02T13:37:57Z</time></trkpt><trkpt lat="40.39241693679456" lon="8.404689099070584"><ele>235.0</ele><time>2026-05-02T13:37:58Z</time></trkpt><trkpt lat="40.392181963544616" lon="8.404594194019714"><ele>227.33333333333331</ele><time>2026-05-02T13:37:59Z</time></trkpt><trkpt lat="40.39197052037832" lon="8.40450834480658"><ele>219.66666666666669</ele><time>2026-05-02T13:38:00Z</time></trkpt><trkpt lat="40.391774901277294" lon="8.404447290185102"><ele>212.0</ele><time>2026-05-02T13:38:01Z</time></trkpt><trkpt lat="40.391596635875935" lon="8.404390836505142"><ele>212.0</ele><time>2026-05-02T13:38:02Z</time></trkpt><trkpt lat="40.391422692824875" lon="8.404390014161693"><ele>212.0</ele><time>2026-05-02T13:38:03Z</time></trkpt><trkpt lat="40.39124804502786" lon="8.404462811316087"><ele>212.0</ele><time>2026-05-02T13:38:04Z</time></trkpt><trkpt lat="40.39109761948031" lon="8.404589615276242"><ele>219.0</ele><time>2026-05-02T13:38:05Z</time></trkpt><trkpt lat="40.390987665506366" lon="8.404758028024585"><ele>226.0</ele><time>2026-05-02T13:38:06Z</time></trkpt><trkpt lat="40.39089952379198" lon="8.404920534491234"><ele>233.0</ele><time>2026-05-02T13:38:07Z</time></trkpt><trkpt lat="40.39077918831603" lon="8.405023559715039"><ele>233.0</ele><time>2026-05-02T13:38:08Z</time></trkpt><trkpt lat="40.3906100686634" lon="8.4050441067488"><ele>233.0</ele><time>2026-05-02T13:38:09Z</time></trkpt><trkpt lat="40.39045349284057" lon="8.40502382742194"><ele>233.0</ele><time>2026-05-02T13:38:10Z</time></trkpt><trkpt lat="40.39030432902072" lon="8.404955495570508"><ele>234.0</ele><time>2026-05-02T13:38:11Z</time></trkpt><trkpt lat="40.390165979137976" lon="8.404836707517285"><ele>235.0</ele><time>2026-05-02T13:38:12Z</time></trkpt><trkpt lat="40.390058248089424" lon="8.404655299753971"><ele>236.0</ele><time>2026-05-02T13:38:13Z</time></trkpt><trkpt lat="40.389983662104676" lon="8.404434958464336"><ele>233.66666666666669</ele><time>2026-05-02T13:38:14Z</time></trkpt><trkpt lat="40.38995450900734" lon="8.404181431407451"><ele>231.33333333333331</ele><time>2026-05-02T13:38:15Z</time></trkpt><trkpt lat="40.38996241921435" lon="8.403905983050972"><ele>229.0</ele><time>2026-05-02T13:38:16Z</time></trkpt><trkpt lat="40.38996014020173" lon="8.403612779782422"><ele>228.0</ele><time>2026-05-02T13:38:17Z</time></trkpt><trkpt lat="40.38997848474287" lon="8.403347214078773"><ele>227.0</ele><time>2026-05-02T13:38:18Z</time></trkpt><trkpt lat="40.3899367286109" lon="8.403144215287753"><ele>226.0</ele><time>2026-05-02T13:38:19Z</time></trkpt><trkpt lat="40.38983343668764" lon="8.40298573954373"><ele>221.33333333333331</ele><time>2026-05-02T13:38:20Z</time></trkpt><trkpt lat="40.389707156534584" lon="8.402866291941573"><ele>216.66666666666669</ele><time>2026-05-02T13:38:21Z</time></trkpt><trkpt lat="40.38954868447852" lon="8.402788244701595"><ele>212.0</ele><time>2026-05-02T13:38:22Z</time></trkpt><trkpt lat="40.38938576811394" lon="8.402753933517985"><ele>211.66666666666669</ele><time>2026-05-02T13:38:23Z</time></trkpt><trkpt lat="40.389186007203065" lon="8.402743221888283"><ele>211.33333333333331</ele><time>2026-05-02T13:38:24Z</time></trkpt><trkpt lat="40.38896013805386" lon="8.402756845436496"><ele>211.0</ele><time>2026-05-02T13:38:25Z</time></trkpt><trkpt lat="40.38872128905575" lon="8.402746698586975"><ele>211.0</ele><time>2026-05-02T13:38:26Z</time></trkpt><trkpt lat="40.3884754287608" lon="8.402740145847122"><ele>211.0</ele><time>2026-05-02T13:38:27Z</time></trkpt><trkpt lat="40.38821991242893" lon="8.402731038158164"><ele>213.5</ele><time>2026-05-02T13:38:28Z</time></trkpt><trkpt lat="40.3879637784587" lon="8.402726819691743"><ele>216.0</ele><time>2026-05-02T13:38:29Z</time></trkpt><trkpt lat="40.38769493163833" lon="8.4027184641219"><ele>216.0</ele><time>2026-05-02T13:38:30Z</time></trkpt><trkpt lat="40.38741426212878" lon="8.402713653041124"><ele>216.0</ele><time>2026-05-02T13:38:31Z</time></trkpt><trkpt lat="40.38712124114764" lon="8.402710042593506"><ele>215.0</ele><time>2026-05-02T13:38:32Z</time></trkpt><trkpt lat="40.386865959862156" lon="8.402730215481442"><ele>214.0</ele><time>2026-05-02T13:38:33Z</time></trkpt><trkpt lat="40.386607957197384" lon="8.402769985428543"><ele>219.5</ele><time>2026-05-02T13:38:34Z</time></trkpt><trkpt lat="40.386336645817615" lon="8.402809801208543"><ele>225.0</ele><time>2026-05-02T13:38:35Z</time></trkpt><trkpt lat="40.38605795178411" lon="8.402844612122921"><ele>225.0</ele><time>2026-05-02T13:38:36Z</time></trkpt><trkpt lat="40.385798327654484" lon="8.402862378953335"><ele>225.0</ele><time>2026-05-02T13:38:37Z</time></trkpt><trkpt lat="40.385589674001196" lon="8.402883152933153"><ele>225.33333333333331</ele><time>2026-05-02T13:38:38Z</time></trkpt><trkpt lat="40.38540386642785" lon="8.402908155755368"><ele>225.66666666666666</ele><time>2026-05-02T13:38:39Z</time></trkpt><trkpt lat="40.385238234775066" lon="8.402929244478472"><ele>226.0</ele><time>2026-05-02T13:38:40Z</time></trkpt><trkpt lat="40.385089008412244" lon="8.402973695283476"><ele>232.66666666666666</ele><time>2026-05-02T13:38:41Z</time></trkpt><trkpt lat="40.38496512216593" lon="8.403077802377846"><ele>239.33333333333331</ele><time>2026-05-02T13:38:42Z</time></trkpt><trkpt lat="40.38486023428355" lon="8.403238241356613"><ele>246.0</ele><time>2026-05-02T13:38:43Z</time></trkpt><trkpt lat="40.384769484156145" lon="8.403450677173215"><ele>246.0</ele><time>2026-05-02T13:38:44Z</time></trkpt><trkpt lat="40.38469115806137" lon="8.403686933763295"><ele>246.0</ele><time>2026-05-02T13:38:45Z</time></trkpt><trkpt lat="40.384606164237994" lon="8.403923874308468"><ele>246.0</ele><time>2026-05-02T13:38:46Z</time></trkpt><trkpt lat="40.384516834503955" lon="8.404147318926384"><ele>247.66666666666669</ele><time>2026-05-02T13:38:47Z</time></trkpt><trkpt lat="40.384414169065586" lon="8.404319431929615"><ele>249.33333333333334</ele><time>2026-05-02T13:38:48Z</time></trkpt><trkpt lat="40.38427604959134" lon="8.404414678642993"><ele>251.0</ele><time>2026-05-02T13:38:49Z</time></trkpt><trkpt lat="40.384134321425556" lon="8.404492560015939"><ele>251.0</ele><time>2026-05-02T13:38:50Z</time></trkpt><trkpt lat="40.3839827337529" lon="8.404519784821474"><ele>251.0</ele><time>2026-05-02T13:38:51Z</time></trkpt><trkpt lat="40.38381773552675" lon="8.404533361694224"><ele>251.0</ele><time>2026-05-02T13:38:52Z</time></trkpt><trkpt lat="40.38365629174366" lon="8.404430130250628"><ele>255.33333333333334</ele><time>2026-05-02T13:38:53Z</time></trkpt><trkpt lat="40.38351732899205" lon="8.404302057541411"><ele>259.6666666666667</ele><time>2026-05-02T13:38:54Z</time></trkpt><trkpt lat="40.38341112299577" lon="8.404149654654873"><ele>264.0</ele><time>2026-05-02T13:38:55Z</time></trkpt><trkpt lat="40.383311896830314" lon="8.40396598537476"><ele>261.3333333333333</ele><time>2026-05-02T13:38:56Z</time></trkpt><trkpt lat="40.38319314003814" lon="8.403790476429128"><ele>258.66666666666663</ele><time>2026-05-02T13:38:57Z</time></trkpt><trkpt lat="40.38308345794357" lon="8.403649317804648"><ele>256.0</ele><time>2026-05-02T13:38:58Z</time></trkpt><trkpt lat="40.3829270980638" lon="8.403565861501868"><ele>256.0</ele><time>2026-05-02T13:38:59Z</time></trkpt><trkpt lat="40.38274889287357" lon="8.403544132292565"><ele>256.0</ele><time>2026-05-02T13:39:00Z</time></trkpt><trkpt lat="40.38257582416556" lon="8.40357637874522"><ele>256.0</ele><time>2026-05-02T13:39:01Z</time></trkpt><trkpt lat="40.38241270518157" lon="8.403655625456068"><ele>256.0</ele><time>2026-05-02T13:39:02Z</time></trkpt><trkpt lat="40.382261914477326" lon="8.403797032521354"><ele>256.0</ele><time>2026-05-02T13:39:03Z</time></trkpt><trkpt lat="40.38214784349334" lon="8.403966008774383"><ele>256.0</ele><time>2026-05-02T13:39:04Z</time></trkpt><trkpt lat="40.38205960856431" lon="8.40415985392335"><ele>257.3333333333333</ele><time>2026-05-02T13:39:05Z</time></trkpt><trkpt lat="40.381974140966555" lon="8.404374074757284"><ele>258.6666666666667</ele><time>2026-05-02T13:39:06Z</time></trkpt><trkpt lat="40.38186979534378" lon="8.404619761548208"><ele>260.0</ele><time>2026-05-02T13:39:07Z</time></trkpt><trkpt lat="40.38174550059487" lon="8.40486533821562"><ele>270.5</ele><time>2026-05-02T13:39:08Z</time></trkpt><trkpt lat="40.38161468474656" lon="8.405131575193206"><ele>281.0</ele><time>2026-05-02T13:39:09Z</time></trkpt><trkpt lat="40.381472953545504" lon="8.405406053665477"><ele>276.0</ele><time>2026-05-02T13:39:10Z</time></trkpt><trkpt lat="40.38132809565077" lon="8.405718306377304"><ele>271.0</ele><time>2026-05-02T13:39:11Z</time></trkpt><trkpt lat="40.3812002734047" lon="8.406013280537158"><ele>271.0</ele><time>2026-05-02T13:39:12Z</time></trkpt><trkpt lat="40.38108964922184" lon="8.406297529321128"><ele>271.0</ele><time>2026-05-02T13:39:13Z</time></trkpt><trkpt lat="40.38098948292587" lon="8.406578210481843"><ele>277.0</ele><time>2026-05-02T13:39:14Z</time></trkpt><trkpt lat="40.380894022165236" lon="8.40683797998433"><ele>283.0</ele><time>2026-05-02T13:39:15Z</time></trkpt><trkpt lat="40.38081382710575" lon="8.407076004785493"><ele>289.0</ele><time>2026-05-02T13:39:16Z</time></trkpt><trkpt lat="40.380727898047866" lon="8.407275118949117"><ele>295.0</ele><time>2026-05-02T13:39:17Z</time></trkpt><trkpt lat="40.380602644556404" lon="8.407407911201314"><ele>301.0</ele><time>2026-05-02T13:39:18Z</time></trkpt><trkpt lat="40.38047267531158" lon="8.407492316023086"><ele>307.0</ele><time>2026-05-02T13:39:19Z</time></trkpt><trkpt lat="40.380330715933326" lon="8.407541005246165"><ele>307.0</ele><time>2026-05-02T13:39:20Z</time></trkpt><trkpt lat="40.38015617032174" lon="8.407542534424518"><ele>307.0</ele><time>2026-05-02T13:39:21Z</time></trkpt><trkpt lat="40.38000167628549" lon="8.407488423281952"><ele>307.0</ele><time>2026-05-02T13:39:22Z</time></trkpt><trkpt lat="40.37985683668985" lon="8.407378764667122"><ele>307.0</ele><time>2026-05-02T13:39:23Z</time></trkpt><trkpt lat="40.379731800711895" lon="8.407199897516337"><ele>307.0</ele><time>2026-05-02T13:39:24Z</time></trkpt><trkpt lat="40.37959002344283" lon="8.406980550061132"><ele>307.0</ele><time>2026-05-02T13:39:25Z</time></trkpt><trkpt lat="40.379435176940454" lon="8.406748466255673"><ele>310.0</ele><time>2026-05-02T13:39:26Z</time></trkpt><trkpt lat="40.37930150112043" lon="8.406559725974954"><ele>313.0</ele><time>2026-05-02T13:39:27Z</time></trkpt><trkpt lat="40.37918022745112" lon="8.406422636943756"><ele>316.0</ele><time>2026-05-02T13:39:28Z</time></trkpt><trkpt lat="40.37904208155765" lon="8.406315059175936"><ele>317.3333333333333</ele><time>2026-05-02T13:39:29Z</time></trkpt><trkpt lat="40.37886967556506" lon="8.406252557973682"><ele>318.6666666666667</ele><time>2026-05-02T13:39:30Z</time></trkpt><trkpt lat="40.37867397315111" lon="8.406221750221954"><ele>320.0</ele><time>2026-05-02T13:39:31Z</time></trkpt><trkpt lat="40.37849136433119" lon="8.406188067691275"><ele>320.0</ele><time>2026-05-02T13:39:32Z</time></trkpt><trkpt lat="40.378359777172925" lon="8.40610175026044"><ele>320.0</ele><time>2026-05-02T13:39:33Z</time></trkpt><trkpt lat="40.378243395618995" lon="8.405968288034432"><ele>320.0</ele><time>2026-05-02T13:39:34Z</time></trkpt><trkpt lat="40.378139420257696" lon="8.405781641002811"><ele>320.0</ele><time>2026-05-02T13:39:35Z</time></trkpt><trkpt lat="40.37805218140519" lon="8.405550477490722"><ele>320.0</ele><time>2026-05-02T13:39:36Z</time></trkpt><trkpt lat="40.37796083644956" lon="8.405279018971713"><ele>320.0</ele><time>2026-05-02T13:39:37Z</time></trkpt><trkpt lat="40.37789334789675" lon="8.404984753706195"><ele>328.0</ele><time>2026-05-02T13:39:38Z</time></trkpt><trkpt lat="40.37784131674747" lon="8.404720031850173"><ele>336.0</ele><time>2026-05-02T13:39:39Z</time></trkpt><trkpt lat="40.377764585679735" lon="8.404504798125975"><ele>344.0</ele><time>2026-05-02T13:39:40Z</time></trkpt><trkpt lat="40.37764355484361" lon="8.404339185538566"><ele>344.0</ele><time>2026-05-02T13:39:41Z</time></trkpt><trkpt lat="40.377503089866536" lon="8.404191003252183"><ele>344.0</ele><time>2026-05-02T13:39:42Z</time></trkpt><trkpt lat="40.3773262330318" lon="8.404120094648869"><ele>344.0</ele><time>2026-05-02T13:39:43Z</time></trkpt><trkpt lat="40.37712764297012" lon="8.404078882463626"><ele>345.5</ele><time>2026-05-02T13:39:44Z</time></trkpt><trkpt lat="40.37689484448804" lon="8.404079363669378"><ele>347.0</ele><time>2026-05-02T13:39:45Z</time></trkpt><trkpt lat="40.376632468028305" lon="8.404088708967581"><ele>347.0</ele><time>2026-05-02T13:39:46Z</time></trkpt><trkpt lat="40.376360037163515" lon="8.404083113216185"><ele>347.0</ele><time>2026-05-02T13:39:47Z</time></trkpt><trkpt lat="40.37611434615715" lon="8.40407777545178"><ele>347.6666666666667</ele><time>2026-05-02T13:39:48Z</time></trkpt><trkpt lat="40.37590774749443" lon="8.404082547290276"><ele>348.3333333333333</ele><time>2026-05-02T13:39:49Z</time></trkpt><trkpt lat="40.37572752474704" lon="8.404117204711516"><ele>349.0</ele><time>2026-05-02T13:39:50Z</time></trkpt><trkpt lat="40.37557510294534" lon="8.404216001337046"><ele>349.66666666666663</ele><time>2026-05-02T13:39:51Z</time></trkpt><trkpt lat="40.375439347781665" lon="8.404374647515464"><ele>350.3333333333333</ele><time>2026-05-02T13:39:52Z</time></trkpt><trkpt lat="40.37533015849485" lon="8.404571465204778"><ele>351.0</ele><time>2026-05-02T13:39:53Z</time></trkpt><trkpt lat="40.375248539561724" lon="8.4048022645201"><ele>351.0</ele><time>2026-05-02T13:39:54Z</time></trkpt><trkpt lat="40.375159701442115" lon="8.405031328443123"><ele>351.0</ele><time>2026-05-02T13:39:55Z</time></trkpt><trkpt lat="40.375059534511216" lon="8.405161078026563"><ele>351.0</ele><time>2026-05-02T13:39:56Z</time></trkpt><trkpt lat="40.374941958153165" lon="8.405259350495514"><ele>351.0</ele><time>2026-05-02T13:39:57Z</time></trkpt><trkpt lat="40.3748189936693" lon="8.405302321374643"><ele>351.0</ele><time>2026-05-02T13:39:58Z</time></trkpt><trkpt lat="40.37468915170531" lon="8.40532443916372"><ele>351.0</ele><time>2026-05-02T13:39:59Z</time></trkpt><trkpt lat="40.37451840739843" lon="8.405301330537354"><ele>351.0</ele><time>2026-05-02T13:40:00Z</time></trkpt><trkpt lat="40.37432878826104" lon="8.405253136254807"><ele>353.0</ele><time>2026-05-02T13:40:01Z</time></trkpt><trkpt lat="40.37410978849603" lon="8.405202519673288"><ele>355.0</ele><time>2026-05-02T13:40:02Z</time></trkpt><trkpt lat="40.37387294609826" lon="8.405147435476065"><ele>361.0</ele><time>2026-05-02T13:40:03Z</time></trkpt><trkpt lat="40.373614572184934" lon="8.405087164320317"><ele>367.0</ele><time>2026-05-02T13:40:04Z</time></trkpt><trkpt lat="40.37338816564898" lon="8.405029507924006"><ele>367.0</ele><time>2026-05-02T13:40:05Z</time></trkpt><trkpt lat="40.37324429119785" lon="8.404958078470633"><ele>367.0</ele><time>2026-05-02T13:40:06Z</time></trkpt><trkpt lat="40.37313730984165" lon="8.404838546187221"><ele>367.0</ele><time>2026-05-02T13:40:07Z</time></trkpt><trkpt lat="40.37304530906094" lon="8.404675627795392"><ele>367.0</ele><time>2026-05-02T13:40:08Z</time></trkpt><trkpt lat="40.37296903157925" lon="8.404464508000789"><ele>372.3333333333333</ele><time>2026-05-02T13:40:09Z</time></trkpt><trkpt lat="40.372943811920344" lon="8.40422304979728"><ele>377.6666666666667</ele><time>2026-05-02T13:40:10Z</time></trkpt><trkpt lat="40.37295651288606" lon="8.403958371400769"><ele>383.0</ele><time>2026-05-02T13:40:11Z</time></trkpt><trkpt lat="40.372989756435715" lon="8.403677993530135"><ele>383.0</ele><time>2026-05-02T13:40:12Z</time></trkpt><trkpt lat="40.373016692716725" lon="8.403412438879904"><ele>383.0</ele><time>2026-05-02T13:40:13Z</time></trkpt><trkpt lat="40.372999288345824" lon="8.403191392742837"><ele>383.0</ele><time>2026-05-02T13:40:14Z</time></trkpt><trkpt lat="40.372959708738534" lon="8.402948467393198"><ele>380.0</ele><time>2026-05-02T13:40:15Z</time></trkpt><trkpt lat="40.372915457308814" lon="8.402733040518"><ele>377.0</ele><time>2026-05-02T13:40:16Z</time></trkpt><trkpt lat="40.372875032849024" lon="8.402535969440848"><ele>374.0</ele><time>2026-05-02T13:40:17Z</time></trkpt><trkpt lat="40.37281642461338" lon="8.402358068076328"><ele>374.0</ele><time>2026-05-02T13:40:18Z</time></trkpt><trkpt lat="40.37272331480409" lon="8.402215269536443"><ele>374.0</ele><time>2026-05-02T13:40:19Z</time></trkpt><trkpt lat="40.37260182820349" lon="8.402097509749572"><ele>374.0</ele><time>2026-05-02T13:40:20Z</time></trkpt><trkpt lat="40.37244304203388" lon="8.402032176720562"><ele>370.0</ele><time>2026-05-02T13:40:21Z</time></trkpt><trkpt lat="40.37227309807415" lon="8.402002348843132"><ele>366.0</ele><time>2026-05-02T13:40:22Z</time></trkpt><trkpt lat="40.37206663660547" lon="8.401980575795916"><ele>362.0</ele><time>2026-05-02T13:40:23Z</time></trkpt><trkpt lat="40.371840305980115" lon="8.401938307942913"><ele>360.5</ele><time>2026-05-02T13:40:24Z</time></trkpt><trkpt lat="40.37158829948889" lon="8.401909101238799"><ele>359.0</ele><time>2026-05-02T13:40:25Z</time></trkpt><trkpt lat="40.37133100618019" lon="8.401879549581313"><ele>359.0</ele><time>2026-05-02T13:40:26Z</time></trkpt><trkpt lat="40.37106874938923" lon="8.401850291002566"><ele>359.0</ele><time>2026-05-02T13:40:27Z</time></trkpt><trkpt lat="40.37080858764756" lon="8.40181809897634"><ele>359.0</ele><time>2026-05-02T13:40:28Z</time></trkpt><trkpt lat="40.370544467793344" lon="8.40178699762661"><ele>359.0</ele><time>2026-05-02T13:40:29Z</time></trkpt><trkpt lat="40.370285591276215" lon="8.40175843442045"><ele>359.0</ele><time>2026-05-02T13:40:30Z</time></trkpt><trkpt lat="40.37004447698159" lon="8.40174934498353"><ele>359.0</ele><time>2026-05-02T13:40:31Z</time></trkpt><trkpt lat="40.36982065882874" lon="8.40172332210145"><ele>361.0</ele><time>2026-05-02T13:40:32Z</time></trkpt><trkpt lat="40.36960845179551" lon="8.401676311428707"><ele>363.0</ele><time>2026-05-02T13:40:33Z</time></trkpt><trkpt lat="40.36940704603181" lon="8.40165167040552"><ele>365.0</ele><time>2026-05-02T13:40:34Z</time></trkpt><trkpt lat="40.36920205117261" lon="8.40165163467063"><ele>365.0</ele><time>2026-05-02T13:40:35Z</time></trkpt><trkpt lat="40.36898754092985" lon="8.40161891495078"><ele>365.0</ele><time>2026-05-02T13:40:36Z</time></trkpt><trkpt lat="40.36878825737938" lon="8.401620056555561"><ele>365.0</ele><time>2026-05-02T13:40:37Z</time></trkpt><trkpt lat="40.3686254698255" lon="8.401628605172096"><ele>365.0</ele><time>2026-05-02T13:40:38Z</time></trkpt><trkpt lat="40.36846869465417" lon="8.401655489135583"><ele>365.0</ele><time>2026-05-02T13:40:39Z</time></trkpt><trkpt lat="40.368324898155045" lon="8.401662909639464"><ele>365.0</ele><time>2026-05-02T13:40:40Z</time></trkpt><trkpt lat="40.36818789111807" lon="8.401666398480303"><ele>365.0</ele><time>2026-05-02T13:40:41Z</time></trkpt><trkpt lat="40.36805894197452" lon="8.401667040042534"><ele>365.5</ele><time>2026-05-02T13:40:42Z</time></trkpt><trkpt lat="40.367924156802275" lon="8.401666924555018"><ele>366.0</ele><time>2026-05-02T13:40:43Z</time></trkpt><trkpt lat="40.36778559382135" lon="8.401654237638168"><ele>366.5</ele><time>2026-05-02T13:40:44Z</time></trkpt><trkpt lat="40.367649147924496" lon="8.401617706804652"><ele>367.0</ele><time>2026-05-02T13:40:45Z</time></trkpt><trkpt lat="40.367514080357964" lon="8.40157279810617"><ele>367.0</ele><time>2026-05-02T13:40:46Z</time></trkpt><trkpt lat="40.36738014801305" lon="8.40151601939061"><ele>367.0</ele><time>2026-05-02T13:40:47Z</time></trkpt><trkpt lat="40.36725015256178" lon="8.401451314050284"><ele>367.0</ele><time>2026-05-02T13:40:48Z</time></trkpt><trkpt lat="40.36713098990042" lon="8.401387251154352"><ele>367.0</ele><time>2026-05-02T13:40:49Z</time></trkpt><trkpt lat="40.36702222377711" lon="8.401322400336804"><ele>361.75</ele><time>2026-05-02T13:40:50Z</time></trkpt><trkpt lat="40.36691354770525" lon="8.401277742899092"><ele>356.5</ele><time>2026-05-02T13:40:51Z</time></trkpt><trkpt lat="40.366808037187255" lon="8.401241551663196"><ele>351.25</ele><time>2026-05-02T13:40:52Z</time></trkpt><trkpt lat="40.366698279498266" lon="8.401226466916432"><ele>346.0</ele><time>2026-05-02T13:40:53Z</time></trkpt><trkpt lat="40.36658222018887" lon="8.401242314150377"><ele>346.0</ele><time>2026-05-02T13:40:54Z</time></trkpt><trkpt lat="40.36646302431039" lon="8.401280824262562"><ele>346.0</ele><time>2026-05-02T13:40:55Z</time></trkpt><trkpt lat="40.36634357277712" lon="8.401341629963193"><ele>346.0</ele><time>2026-05-02T13:40:56Z</time></trkpt><trkpt lat="40.366232104600485" lon="8.40142443833743"><ele>346.0</ele><time>2026-05-02T13:40:57Z</time></trkpt><trkpt lat="40.36612957456269" lon="8.401524219123733"><ele>348.25</ele><time>2026-05-02T13:40:58Z</time></trkpt><trkpt lat="40.36606323203332" lon="8.401657554661382"><ele>350.5</ele><time>2026-05-02T13:40:59Z</time></trkpt><trkpt lat="40.365976803892316" lon="8.401773207423638"><ele>352.75</ele><time>2026-05-02T13:41:00Z</time></trkpt><trkpt lat="40.36586461346419" lon="8.401849546976802"><ele>355.0</ele><time>2026-05-02T13:41:01Z</time></trkpt><trkpt lat="40.365761322605124" lon="8.401923340633921"><ele>355.0</ele><time>2026-05-02T13:41:02Z</time></trkpt><trkpt lat="40.365632038577864" lon="8.401939466885118"><ele>355.0</ele><time>2026-05-02T13:41:03Z</time></trkpt><trkpt lat="40.36550730576116" lon="8.401937539075844"><ele>355.0</ele><time>2026-05-02T13:41:04Z</time></trkpt><trkpt lat="40.36538012902578" lon="8.401938607157168"><ele>355.0</ele><time>2026-05-02T13:41:05Z</time></trkpt><trkpt lat="40.36525275775085" lon="8.40195164281447"><ele>353.0</ele><time>2026-05-02T13:41:06Z</time></trkpt><trkpt lat="40.36513160734563" lon="8.401971219360355"><ele>351.0</ele><time>2026-05-02T13:41:07Z</time></trkpt><trkpt lat="40.36502762305999" lon="8.402010497002106"><ele>349.0</ele><time>2026-05-02T13:41:08Z</time></trkpt><trkpt lat="40.364939970720286" lon="8.402067862187392"><ele>347.0</ele><time>2026-05-02T13:41:09Z</time></trkpt><trkpt lat="40.36486592828912" lon="8.402134645403343"><ele>345.0</ele><time>2026-05-02T13:41:10Z</time></trkpt><trkpt lat="40.36479607422343" lon="8.402198424789137"><ele>345.8333333333333</ele><time>2026-05-02T13:41:11Z</time></trkpt><trkpt lat="40.36471868387752" lon="8.402226485443595"><ele>346.6666666666667</ele><time>2026-05-02T13:41:12Z</time></trkpt><trkpt lat="40.364668724031056" lon="8.402281471757545"><ele>347.5</ele><time>2026-05-02T13:41:14Z</time></trkpt><trkpt lat="40.3645688152711" lon="8.402261992749485"><ele>348.33333333333337</ele><time>2026-05-02T13:42:00Z</time></trkpt><trkpt lat="40.36456036013089" lon="8.40236794988827"><ele>349.1666666666667</ele><time>2026-05-02T13:54:03Z</time></trkpt><trkpt lat="40.36460557735851" lon="8.402475440991331"><ele>350.0</ele><time>2026-05-02T13:54:06Z</time></trkpt><trkpt lat="40.36457499143969" lon="8.402574445047103"><ele>350.0</ele><time>2026-05-02T13:54:08Z</time></trkpt><trkpt lat="40.36457441408826" lon="8.4026609192798"><ele>350.0</ele><time>2026-05-02T13:54:13Z</time></trkpt><trkpt lat="40.36460523303806" lon="8.402765744048155"><ele>350.0</ele><time>2026-05-02T13:54:20Z</time></trkpt><trkpt lat="40.36462740254583" lon="8.402863839314893"><ele>350.0</ele><time>2026-05-02T13:54:22Z</time></trkpt><trkpt lat="40.36463948924207" lon="8.402989750008786"><ele>350.0</ele><time>2026-05-02T13:54:24Z</time></trkpt><trkpt lat="40.36467955765759" lon="8.40315660035189"><ele>353.0</ele><time>2026-05-02T13:54:26Z</time></trkpt><trkpt lat="40.36472104500682" lon="8.4032461122514"><ele>356.0</ele><time>2026-05-02T13:54:27Z</time></trkpt><trkpt lat="40.36477989015004" lon="8.403329753619586"><ele>359.0</ele><time>2026-05-02T13:54:28Z</time></trkpt><trkpt lat="40.364856124444266" lon="8.403389319745179"><ele>362.0</ele><time>2026-05-02T13:54:29Z</time></trkpt><trkpt lat="40.364928866469505" lon="8.403459010172755"><ele>365.0</ele><time>2026-05-02T13:54:30Z</time></trkpt><trkpt lat="40.3650158367361" lon="8.40351035740859"><ele>368.0</ele><time>2026-05-02T13:54:31Z</time></trkpt><trkpt lat="40.36510580834037" lon="8.403563854829507"><ele>368.0</ele><time>2026-05-02T13:54:32Z</time></trkpt><trkpt lat="40.3652041280513" lon="8.403611932544003"><ele>368.0</ele><time>2026-05-02T13:54:33Z</time></trkpt><trkpt lat="40.365301289024224" lon="8.40366081769392"><ele>368.0</ele><time>2026-05-02T13:54:34Z</time></trkpt><trkpt lat="40.36540020052523" lon="8.403716519914195"><ele>368.0</ele><time>2026-05-02T13:54:35Z</time></trkpt><trkpt lat="40.365505212370195" lon="8.403764663096412"><ele>368.0</ele><time>2026-05-02T13:54:36Z</time></trkpt><trkpt lat="40.365616877641315" lon="8.403816674175571"><ele>366.75</ele><time>2026-05-02T13:54:37Z</time></trkpt><trkpt lat="40.3657395576573" lon="8.403877826904248"><ele>365.5</ele><time>2026-05-02T13:54:38Z</time></trkpt><trkpt lat="40.36586899495047" lon="8.403971139330766"><ele>364.25</ele><time>2026-05-02T13:54:39Z</time></trkpt><trkpt lat="40.36599892919279" lon="8.404085140153926"><ele>363.0</ele><time>2026-05-02T13:54:40Z</time></trkpt><trkpt lat="40.366106998168" lon="8.404240189363707"><ele>363.0</ele><time>2026-05-02T13:54:41Z</time></trkpt><trkpt lat="40.36622584915891" lon="8.404392138617265"><ele>363.0</ele><time>2026-05-02T13:54:42Z</time></trkpt><trkpt lat="40.366366925356594" lon="8.404551778258222"><ele>363.0</ele><time>2026-05-02T13:54:43Z</time></trkpt><trkpt lat="40.366503391109774" lon="8.404737981373223"><ele>361.6666666666667</ele><time>2026-05-02T13:54:44Z</time></trkpt><trkpt lat="40.36662938752337" lon="8.40488839629926"><ele>360.33333333333337</ele><time>2026-05-02T13:54:45Z</time></trkpt><trkpt lat="40.36676137361962" lon="8.404998633988912"><ele>359.0</ele><time>2026-05-02T13:54:46Z</time></trkpt><trkpt lat="40.36691028213395" lon="8.405090812948101"><ele>359.0</ele><time>2026-05-02T13:54:47Z</time></trkpt><trkpt lat="40.36706389677489" lon="8.405186718722856"><ele>359.0</ele><time>2026-05-02T13:54:48Z</time></trkpt><trkpt lat="40.367194640938905" lon="8.405289973365505"><ele>359.0</ele><time>2026-05-02T13:54:49Z</time></trkpt><trkpt lat="40.36727478190958" lon="8.405441915017553"><ele>359.0</ele><time>2026-05-02T13:54:50Z</time></trkpt><trkpt lat="40.36733399091546" lon="8.405593397356366"><ele>359.0</ele><time>2026-05-02T13:54:51Z</time></trkpt><trkpt lat="40.367360103113874" lon="8.405767324597734"><ele>359.0</ele><time>2026-05-02T13:54:52Z</time></trkpt><trkpt lat="40.36735759129729" lon="8.405965716603628"><ele>359.0</ele><time>2026-05-02T13:54:53Z</time></trkpt><trkpt lat="40.36730471429504" lon="8.406166021003672"><ele>359.0</ele><time>2026-05-02T13:54:54Z</time></trkpt><trkpt lat="40.36720533962837" lon="8.406327625657044"><ele>359.0</ele><time>2026-05-02T13:54:55Z</time></trkpt><trkpt lat="40.367082402767615" lon="8.406527804480552"><ele>359.0</ele><time>2026-05-02T13:54:56Z</time></trkpt><trkpt lat="40.36697013571619" lon="8.406732581629932"><ele>355.6666666666667</ele><time>2026-05-02T13:54:57Z</time></trkpt><trkpt lat="40.36683829423498" lon="8.406937178036369"><ele>352.3333333333333</ele><time>2026-05-02T13:54:58Z</time></trkpt><trkpt lat="40.36671878790131" lon="8.407129016303752"><ele>349.0</ele><time>2026-05-02T13:54:59Z</time></trkpt><trkpt lat="40.366604891690095" lon="8.40731081254453"><ele>349.0</ele><time>2026-05-02T13:55:00Z</time></trkpt><trkpt lat="40.36649470123219" lon="8.407484337756461"><ele>349.0</ele><time>2026-05-02T13:55:01Z</time></trkpt><trkpt lat="40.36640076598884" lon="8.407660844651238"><ele>349.0</ele><time>2026-05-02T13:55:02Z</time></trkpt><trkpt lat="40.36633430097677" lon="8.407847777210078"><ele>338.66666666666663</ele><time>2026-05-02T13:55:03Z</time></trkpt><trkpt lat="40.36630384647483" lon="8.408047651783136"><ele>328.3333333333333</ele><time>2026-05-02T13:55:04Z</time></trkpt><trkpt lat="40.36631191431393" lon="8.408273921061793"><ele>318.0</ele><time>2026-05-02T13:55:05Z</time></trkpt><trkpt lat="40.36633206276504" lon="8.408496776810292"><ele>318.0</ele><time>2026-05-02T13:55:06Z</time></trkpt><trkpt lat="40.36635867132668" lon="8.408724774820497"><ele>318.0</ele><time>2026-05-02T13:55:07Z</time></trkpt><trkpt lat="40.36637114304088" lon="8.408949976105056"><ele>318.0</ele><time>2026-05-02T13:55:08Z</time></trkpt><trkpt lat="40.366367303399876" lon="8.409167416896606"><ele>318.3333333333333</ele><time>2026-05-02T13:55:09Z</time></trkpt><trkpt lat="40.36634555010742" lon="8.409367457405345"><ele>318.66666666666663</ele><time>2026-05-02T13:55:10Z</time></trkpt><trkpt lat="40.36629816225696" lon="8.409552553244831"><ele>319.0</ele><time>2026-05-02T13:55:11Z</time></trkpt><trkpt lat="40.36620439031844" lon="8.409709616876155"><ele>323.66666666666663</ele><time>2026-05-02T13:55:12Z</time></trkpt><trkpt lat="40.366096500320914" lon="8.409851964585597"><ele>328.3333333333333</ele><time>2026-05-02T13:55:13Z</time></trkpt><trkpt lat="40.36596556482579" lon="8.409969018810651"><ele>333.0</ele><time>2026-05-02T13:55:14Z</time></trkpt><trkpt lat="40.365817469054626" lon="8.4100692248309"><ele>333.0</ele><time>2026-05-02T13:55:15Z</time></trkpt><trkpt lat="40.36566036234617" lon="8.410177959278862"><ele>333.0</ele><time>2026-05-02T13:55:16Z</time></trkpt><trkpt lat="40.36548814569325" lon="8.410259061225577"><ele>333.0</ele><time>2026-05-02T13:55:17Z</time></trkpt><trkpt lat="40.36531221053252" lon="8.41034792045057"><ele>333.6666666666667</ele><time>2026-05-02T13:55:18Z</time></trkpt><trkpt lat="40.3651375351947" lon="8.410444592510894"><ele>334.33333333333337</ele><time>2026-05-02T13:55:19Z</time></trkpt><trkpt lat="40.36496833775399" lon="8.410542953816805"><ele>335.0</ele><time>2026-05-02T13:55:20Z</time></trkpt><trkpt lat="40.36481410643689" lon="8.41065661805817"><ele>326.0</ele><time>2026-05-02T13:55:21Z</time></trkpt><trkpt lat="40.36468468608025" lon="8.410819366897458"><ele>317.0</ele><time>2026-05-02T13:55:22Z</time></trkpt><trkpt lat="40.364562260335454" lon="8.411002124139744"><ele>308.0</ele><time>2026-05-02T13:55:23Z</time></trkpt><trkpt lat="40.36443139627091" lon="8.411191582741118"><ele>310.0</ele><time>2026-05-02T13:55:24Z</time></trkpt><trkpt lat="40.36429471743051" lon="8.411378362914384"><ele>312.0</ele><time>2026-05-02T13:55:25Z</time></trkpt><trkpt lat="40.36415393306506" lon="8.41156975346959"><ele>314.0</ele><time>2026-05-02T13:55:26Z</time></trkpt><trkpt lat="40.36400722475712" lon="8.411774376408015"><ele>311.33333333333337</ele><time>2026-05-02T13:55:27Z</time></trkpt><trkpt lat="40.36386289292815" lon="8.411975859368676"><ele>308.6666666666667</ele><time>2026-05-02T13:55:28Z</time></trkpt><trkpt lat="40.36371431545164" lon="8.412185048027366"><ele>306.0</ele><time>2026-05-02T13:55:29Z</time></trkpt><trkpt lat="40.36356481966442" lon="8.41240099571046"><ele>306.0</ele><time>2026-05-02T13:55:30Z</time></trkpt><trkpt lat="40.3634102427633" lon="8.412619895394247"><ele>306.0</ele><time>2026-05-02T13:55:31Z</time></trkpt><trkpt lat="40.363247928952674" lon="8.412843744055305"><ele>309.5</ele><time>2026-05-02T13:55:32Z</time></trkpt><trkpt lat="40.36307949506917" lon="8.413073831212145"><ele>313.0</ele><time>2026-05-02T13:55:33Z</time></trkpt><trkpt lat="40.36290779632676" lon="8.413308031688995"><ele>306.0</ele><time>2026-05-02T13:55:34Z</time></trkpt><trkpt lat="40.362744462818725" lon="8.413539204714752"><ele>299.0</ele><time>2026-05-02T13:55:35Z</time></trkpt><trkpt lat="40.36257006793345" lon="8.413780590848026"><ele>305.5</ele><time>2026-05-02T13:55:36Z</time></trkpt><trkpt lat="40.36240268224532" lon="8.414021744418466"><ele>312.0</ele><time>2026-05-02T13:55:37Z</time></trkpt><trkpt lat="40.36223039208706" lon="8.414259953231445"><ele>303.0</ele><time>2026-05-02T13:55:38Z</time></trkpt><trkpt lat="40.36206052972736" lon="8.41449623650288"><ele>294.0</ele><time>2026-05-02T13:55:39Z</time></trkpt><trkpt lat="40.361890787769475" lon="8.414731694253298"><ele>294.0</ele><time>2026-05-02T13:55:40Z</time></trkpt><trkpt lat="40.36172088464801" lon="8.414964619046973"><ele>294.0</ele><time>2026-05-02T13:55:41Z</time></trkpt><trkpt lat="40.36155161375066" lon="8.415195861040567"><ele>294.0</ele><time>2026-05-02T13:55:42Z</time></trkpt><trkpt lat="40.36138550069398" lon="8.415422816629258"><ele>294.0</ele><time>2026-05-02T13:55:43Z</time></trkpt><trkpt lat="40.3612242718437" lon="8.415645525578562"><ele>290.0</ele><time>2026-05-02T13:55:44Z</time></trkpt><trkpt lat="40.36106955905434" lon="8.415865033555683"><ele>286.0</ele><time>2026-05-02T13:55:45Z</time></trkpt><trkpt lat="40.36090968359149" lon="8.41608335407488"><ele>286.0</ele><time>2026-05-02T13:55:46Z</time></trkpt><trkpt lat="40.36075131652919" lon="8.416300934834783"><ele>286.0</ele><time>2026-05-02T13:55:47Z</time></trkpt><trkpt lat="40.36059476600536" lon="8.416521919972448"><ele>284.0</ele><time>2026-05-02T13:55:48Z</time></trkpt><trkpt lat="40.36044414985027" lon="8.416755216456606"><ele>282.0</ele><time>2026-05-02T13:55:49Z</time></trkpt><trkpt lat="40.36030101204829" lon="8.41700544640509"><ele>286.0</ele><time>2026-05-02T13:55:50Z</time></trkpt><trkpt lat="40.36016721533736" lon="8.417280180447126"><ele>290.0</ele><time>2026-05-02T13:55:51Z</time></trkpt><trkpt lat="40.36003376237642" lon="8.417561665266836"><ele>290.0</ele><time>2026-05-02T13:55:52Z</time></trkpt><trkpt lat="40.35989580430688" lon="8.417854590311569"><ele>290.0</ele><time>2026-05-02T13:55:53Z</time></trkpt><trkpt lat="40.359734769553654" lon="8.418151278728464"><ele>282.5</ele><time>2026-05-02T13:55:54Z</time></trkpt><trkpt lat="40.359595598261464" lon="8.418477185784727"><ele>275.0</ele><time>2026-05-02T13:55:55Z</time></trkpt><trkpt lat="40.35944420759569" lon="8.418781703970618"><ele>278.5</ele><time>2026-05-02T13:55:56Z</time></trkpt><trkpt lat="40.35930599254634" lon="8.419064688635439"><ele>282.0</ele><time>2026-05-02T13:55:57Z</time></trkpt><trkpt lat="40.35917388452805" lon="8.419332083977446"><ele>282.0</ele><time>2026-05-02T13:55:58Z</time></trkpt><trkpt lat="40.359042719715845" lon="8.419596540172485"><ele>282.0</ele><time>2026-05-02T13:55:59Z</time></trkpt><trkpt lat="40.35891277458451" lon="8.419866654071788"><ele>274.5</ele><time>2026-05-02T13:56:00Z</time></trkpt><trkpt lat="40.35877908373824" lon="8.420135069915741"><ele>267.0</ele><time>2026-05-02T13:56:01Z</time></trkpt><trkpt lat="40.358654471614855" lon="8.420409909912713"><ele>270.0</ele><time>2026-05-02T13:56:02Z</time></trkpt><trkpt lat="40.35852820244368" lon="8.42065937602719"><ele>273.0</ele><time>2026-05-02T13:56:03Z</time></trkpt><trkpt lat="40.35839565858264" lon="8.420874681699631"><ele>276.0</ele><time>2026-05-02T13:56:04Z</time></trkpt><trkpt lat="40.3582383514239" lon="8.421005258372283"><ele>276.0</ele><time>2026-05-02T13:56:05Z</time></trkpt><trkpt lat="40.358080706647954" lon="8.4211114965494"><ele>276.0</ele><time>2026-05-02T13:56:06Z</time></trkpt><trkpt lat="40.35789611128144" lon="8.421187486684824"><ele>276.0</ele><time>2026-05-02T13:56:07Z</time></trkpt><trkpt lat="40.357699994499896" lon="8.42121108726157"><ele>274.6666666666667</ele><time>2026-05-02T13:56:08Z</time></trkpt><trkpt lat="40.35750977612081" lon="8.421204543636964"><ele>273.33333333333337</ele><time>2026-05-02T13:56:09Z</time></trkpt><trkpt lat="40.35731749125802" lon="8.421210479669808"><ele>272.0</ele><time>2026-05-02T13:56:10Z</time></trkpt><trkpt lat="40.357135783069694" lon="8.421216036142416"><ele>272.0</ele><time>2026-05-02T13:56:11Z</time></trkpt><trkpt lat="40.35697385062049" lon="8.421299950405947"><ele>272.0</ele><time>2026-05-02T13:56:12Z</time></trkpt><trkpt lat="40.35683393400903" lon="8.421427740382502"><ele>272.0</ele><time>2026-05-02T13:56:13Z</time></trkpt><trkpt lat="40.356702851410745" lon="8.421565850233677"><ele>276.33333333333337</ele><time>2026-05-02T13:56:14Z</time></trkpt><trkpt lat="40.356584182320056" lon="8.421716395685808"><ele>280.6666666666667</ele><time>2026-05-02T13:56:15Z</time></trkpt><trkpt lat="40.35647299435953" lon="8.421878395373653"><ele>285.0</ele><time>2026-05-02T13:56:16Z</time></trkpt><trkpt lat="40.3563689062201" lon="8.422054407652618"><ele>288.3333333333333</ele><time>2026-05-02T13:56:17Z</time></trkpt><trkpt lat="40.3562763746734" lon="8.42221964508751"><ele>291.66666666666663</ele><time>2026-05-02T13:56:18Z</time></trkpt><trkpt lat="40.35618117159078" lon="8.422398475025217"><ele>295.0</ele><time>2026-05-02T13:56:19Z</time></trkpt><trkpt lat="40.35608783667489" lon="8.422571880272077"><ele>295.0</ele><time>2026-05-02T13:56:20Z</time></trkpt><trkpt lat="40.35598599065938" lon="8.422740713232509"><ele>295.0</ele><time>2026-05-02T13:56:21Z</time></trkpt><trkpt lat="40.355887983455354" lon="8.422913643096617"><ele>295.0</ele><time>2026-05-02T13:56:22Z</time></trkpt><trkpt lat="40.355798062723615" lon="8.423082478344439"><ele>299.0</ele><time>2026-05-02T13:56:23Z</time></trkpt><trkpt lat="40.35571009875435" lon="8.423250814381873"><ele>303.0</ele><time>2026-05-02T13:56:24Z</time></trkpt><trkpt lat="40.35561874490987" lon="8.423420088338185"><ele>307.0</ele><time>2026-05-02T13:56:25Z</time></trkpt><trkpt lat="40.355525261407166" lon="8.423588749589896"><ele>301.3333333333333</ele><time>2026-05-02T13:56:26Z</time></trkpt><trkpt lat="40.35543163704411" lon="8.423759037275307"><ele>295.6666666666667</ele><time>2026-05-02T13:56:27Z</time></trkpt><trkpt lat="40.355335182577406" lon="8.423931941909759"><ele>290.0</ele><time>2026-05-02T13:56:28Z</time></trkpt><trkpt lat="40.35523769734668" lon="8.424111447595456"><ele>290.0</ele><time>2026-05-02T13:56:29Z</time></trkpt><trkpt lat="40.355136550867186" lon="8.424294242435046"><ele>290.0</ele><time>2026-05-02T13:56:30Z</time></trkpt><trkpt lat="40.35503468480235" lon="8.42448464055012"><ele>290.0</ele><time>2026-05-02T13:56:31Z</time></trkpt><trkpt lat="40.35492745264718" lon="8.424686304205471"><ele>292.33333333333337</ele><time>2026-05-02T13:56:32Z</time></trkpt><trkpt lat="40.35481088135143" lon="8.424907960525141"><ele>294.6666666666667</ele><time>2026-05-02T13:56:33Z</time></trkpt><trkpt lat="40.35468326100829" lon="8.425143799800798"><ele>297.0</ele><time>2026-05-02T13:56:34Z</time></trkpt><trkpt lat="40.35455603043004" lon="8.425391408486496"><ele>285.5</ele><time>2026-05-02T13:56:35Z</time></trkpt><trkpt lat="40.35440772428993" lon="8.425649235942265"><ele>274.0</ele><time>2026-05-02T13:56:36Z</time></trkpt><trkpt lat="40.35425526241691" lon="8.42594017137442"><ele>274.0</ele><time>2026-05-02T13:56:37Z</time></trkpt><trkpt lat="40.35410174881043" lon="8.426239512258297"><ele>274.0</ele><time>2026-05-02T13:56:38Z</time></trkpt><trkpt lat="40.35392670688674" lon="8.426561158937263"><ele>267.5</ele><time>2026-05-02T13:56:39Z</time></trkpt><trkpt lat="40.35375370433485" lon="8.426858569111502"><ele>261.0</ele><time>2026-05-02T13:56:40Z</time></trkpt><trkpt lat="40.353591236311104" lon="8.427138619959306"><ele>262.5</ele><time>2026-05-02T13:56:41Z</time></trkpt><trkpt lat="40.353441935765" lon="8.427413203495778"><ele>264.0</ele><time>2026-05-02T13:56:42Z</time></trkpt><trkpt lat="40.353301423453765" lon="8.427674303352521"><ele>264.0</ele><time>2026-05-02T13:56:43Z</time></trkpt><trkpt lat="40.353156768851555" lon="8.427928510770279"><ele>264.0</ele><time>2026-05-02T13:56:44Z</time></trkpt><trkpt lat="40.3530214226821" lon="8.428171614326637"><ele>261.6666666666667</ele><time>2026-05-02T13:56:45Z</time></trkpt><trkpt lat="40.35289567077409" lon="8.428406602206222"><ele>259.33333333333337</ele><time>2026-05-02T13:56:46Z</time></trkpt><trkpt lat="40.35277543214055" lon="8.428633689378199"><ele>257.0</ele><time>2026-05-02T13:56:47Z</time></trkpt><trkpt lat="40.35265484268532" lon="8.428854190278043"><ele>257.0</ele><time>2026-05-02T13:56:48Z</time></trkpt><trkpt lat="40.352534091254185" lon="8.429075982500098"><ele>257.0</ele><time>2026-05-02T13:56:49Z</time></trkpt><trkpt lat="40.3524152614403" lon="8.429298095696378"><ele>257.0</ele><time>2026-05-02T13:56:50Z</time></trkpt><trkpt lat="40.35229606989523" lon="8.429498618045692"><ele>259.6666666666667</ele><time>2026-05-02T13:56:51Z</time></trkpt><trkpt lat="40.352167569810575" lon="8.429677942491283"><ele>262.3333333333333</ele><time>2026-05-02T13:56:52Z</time></trkpt><trkpt lat="40.352023354904034" lon="8.429809483624503"><ele>265.0</ele><time>2026-05-02T13:56:53Z</time></trkpt><trkpt lat="40.35185897126683" lon="8.429896769307048"><ele>265.0</ele><time>2026-05-02T13:56:54Z</time></trkpt><trkpt lat="40.35168211863858" lon="8.42994942308159"><ele>265.0</ele><time>2026-05-02T13:56:55Z</time></trkpt><trkpt lat="40.35149019224837" lon="8.429955748766366"><ele>265.0</ele><time>2026-05-02T13:56:56Z</time></trkpt><trkpt lat="40.351282201836746" lon="8.429929876318177"><ele>261.5</ele><time>2026-05-02T13:56:57Z</time></trkpt><trkpt lat="40.351062731600074" lon="8.429892973782536"><ele>258.0</ele><time>2026-05-02T13:56:58Z</time></trkpt><trkpt lat="40.35083563026206" lon="8.4298475727651"><ele>258.0</ele><time>2026-05-02T13:56:59Z</time></trkpt><trkpt lat="40.35059742745024" lon="8.429795618671994"><ele>258.0</ele><time>2026-05-02T13:57:00Z</time></trkpt><trkpt lat="40.3503442902066" lon="8.429734123459758"><ele>255.5</ele><time>2026-05-02T13:57:01Z</time></trkpt><trkpt lat="40.35010692173693" lon="8.429694316326763"><ele>253.0</ele><time>2026-05-02T13:57:02Z</time></trkpt><trkpt lat="40.34986841895435" lon="8.429645684706085"><ele>246.0</ele><time>2026-05-02T13:57:03Z</time></trkpt><trkpt lat="40.34964641771406" lon="8.429597759371726"><ele>239.0</ele><time>2026-05-02T13:57:04Z</time></trkpt><trkpt lat="40.34943145850879" lon="8.429557109573455"><ele>232.0</ele><time>2026-05-02T13:57:05Z</time></trkpt><trkpt lat="40.34924217712927" lon="8.429516176036675"><ele>232.0</ele><time>2026-05-02T13:57:06Z</time></trkpt><trkpt lat="40.349070510681315" lon="8.429449919607478"><ele>232.0</ele><time>2026-05-02T13:57:07Z</time></trkpt><trkpt lat="40.348914324450774" lon="8.429335159735281"><ele>232.0</ele><time>2026-05-02T13:57:08Z</time></trkpt><trkpt lat="40.34877221873576" lon="8.429173774725042"><ele>231.0</ele><time>2026-05-02T13:57:09Z</time></trkpt><trkpt lat="40.34867227641807" lon="8.428983282691462"><ele>230.0</ele><time>2026-05-02T13:57:10Z</time></trkpt><trkpt lat="40.34859193030137" lon="8.428767904347804"><ele>229.0</ele><time>2026-05-02T13:57:11Z</time></trkpt><trkpt lat="40.34851995604751" lon="8.428525314596296"><ele>229.0</ele><time>2026-05-02T13:57:12Z</time></trkpt><trkpt lat="40.34844705461357" lon="8.428258625488601"><ele>229.0</ele><time>2026-05-02T13:57:13Z</time></trkpt><trkpt lat="40.348351179660185" lon="8.427973979181935"><ele>221.5</ele><time>2026-05-02T13:57:14Z</time></trkpt><trkpt lat="40.348244123349986" lon="8.427682240114693"><ele>214.0</ele><time>2026-05-02T13:57:15Z</time></trkpt><trkpt lat="40.348132418662054" lon="8.427391256221199"><ele>220.0</ele><time>2026-05-02T13:57:16Z</time></trkpt><trkpt lat="40.34801339340799" lon="8.427119023043199"><ele>226.0</ele><time>2026-05-02T13:57:17Z</time></trkpt><trkpt lat="40.347894689886004" lon="8.426859741182268"><ele>226.0</ele><time>2026-05-02T13:57:18Z</time></trkpt><trkpt lat="40.3477712816523" lon="8.426597285742039"><ele>226.0</ele><time>2026-05-02T13:57:19Z</time></trkpt><trkpt lat="40.34763855319416" lon="8.426326802458915"><ele>219.0</ele><time>2026-05-02T13:57:20Z</time></trkpt><trkpt lat="40.34749108466603" lon="8.426055500930199"><ele>212.0</ele><time>2026-05-02T13:57:21Z</time></trkpt><trkpt lat="40.34731876038802" lon="8.425788449972476"><ele>215.5</ele><time>2026-05-02T13:57:22Z</time></trkpt><trkpt lat="40.34713196610927" lon="8.425517338018597"><ele>219.0</ele><time>2026-05-02T13:57:23Z</time></trkpt><trkpt lat="40.34695361113504" lon="8.425245558770715"><ele>212.0</ele><time>2026-05-02T13:57:24Z</time></trkpt><trkpt lat="40.3467729966035" lon="8.424982647357258"><ele>205.0</ele><time>2026-05-02T13:57:25Z</time></trkpt><trkpt lat="40.34659280387076" lon="8.424723411416423"><ele>201.5</ele><time>2026-05-02T13:57:26Z</time></trkpt><trkpt lat="40.34641768996489" lon="8.424473403268887"><ele>198.0</ele><time>2026-05-02T13:57:27Z</time></trkpt><trkpt lat="40.346244099864876" lon="8.424217155389686"><ele>198.0</ele><time>2026-05-02T13:57:28Z</time></trkpt><trkpt lat="40.346077597049714" lon="8.423975845038735"><ele>198.0</ele><time>2026-05-02T13:57:29Z</time></trkpt><trkpt lat="40.345920799296984" lon="8.42373640249386"><ele>195.0</ele><time>2026-05-02T13:57:30Z</time></trkpt><trkpt lat="40.34576792132965" lon="8.423502238247256"><ele>192.0</ele><time>2026-05-02T13:57:31Z</time></trkpt><trkpt lat="40.3456122141596" lon="8.423284241188425"><ele>193.0</ele><time>2026-05-02T13:57:32Z</time></trkpt><trkpt lat="40.34546753840179" lon="8.423091771979589"><ele>194.0</ele><time>2026-05-02T13:57:33Z</time></trkpt><trkpt lat="40.3453288101636" lon="8.422937104683367"><ele>195.0</ele><time>2026-05-02T13:57:34Z</time></trkpt><trkpt lat="40.34518004863983" lon="8.42283248642302"><ele>195.0</ele><time>2026-05-02T13:57:35Z</time></trkpt><trkpt lat="40.34501142499944" lon="8.422777479512463"><ele>195.0</ele><time>2026-05-02T13:57:36Z</time></trkpt><trkpt lat="40.34483306224591" lon="8.422772924453009"><ele>195.0</ele><time>2026-05-02T13:57:37Z</time></trkpt><trkpt lat="40.34464813642601" lon="8.422821879779322"><ele>196.33333333333331</ele><time>2026-05-02T13:57:38Z</time></trkpt><trkpt lat="40.344456515248986" lon="8.422904640663724"><ele>197.66666666666666</ele><time>2026-05-02T13:57:39Z</time></trkpt><trkpt lat="40.34426966992605" lon="8.423007330552833"><ele>199.0</ele><time>2026-05-02T13:57:40Z</time></trkpt><trkpt lat="40.3440950040471" lon="8.423127303472407"><ele>199.0</ele><time>2026-05-02T13:57:41Z</time></trkpt><trkpt lat="40.34393283203038" lon="8.423248430996404"><ele>199.0</ele><time>2026-05-02T13:57:42Z</time></trkpt><trkpt lat="40.343797644767825" lon="8.423396115441726"><ele>199.0</ele><time>2026-05-02T13:57:43Z</time></trkpt><trkpt lat="40.343685390430686" lon="8.42357691576011"><ele>191.33333333333331</ele><time>2026-05-02T13:57:44Z</time></trkpt><trkpt lat="40.34361549648877" lon="8.423789513378495"><ele>183.66666666666666</ele><time>2026-05-02T13:57:45Z</time></trkpt><trkpt lat="40.34356767826142" lon="8.424008237715817"><ele>176.0</ele><time>2026-05-02T13:57:46Z</time></trkpt><trkpt lat="40.343543417586964" lon="8.424267676852603"><ele>176.0</ele><time>2026-05-02T13:57:47Z</time></trkpt><trkpt lat="40.343531014939906" lon="8.424539980776673"><ele>176.0</ele><time>2026-05-02T13:57:48Z</time></trkpt><trkpt lat="40.34353421736275" lon="8.424792453624828"><ele>176.0</ele><time>2026-05-02T13:57:49Z</time></trkpt><trkpt lat="40.3435733916486" lon="8.42504248027826"><ele>172.66666666666666</ele><time>2026-05-02T13:57:50Z</time></trkpt><trkpt lat="40.343637377437474" lon="8.425298405902918"><ele>169.33333333333334</ele><time>2026-05-02T13:57:51Z</time></trkpt><trkpt lat="40.343728535110415" lon="8.42554777649989"><ele>166.0</ele><time>2026-05-02T13:57:52Z</time></trkpt><trkpt lat="40.343832562243755" lon="8.425775015841886"><ele>171.0</ele><time>2026-05-02T13:57:53Z</time></trkpt><trkpt lat="40.343915975770685" lon="8.425971414225709"><ele>176.0</ele><time>2026-05-02T13:57:54Z</time></trkpt><trkpt lat="40.343950013788586" lon="8.426176717173822"><ele>181.0</ele><time>2026-05-02T13:57:55Z</time></trkpt><trkpt lat="40.343950572482946" lon="8.426385405308586"><ele>181.0</ele><time>2026-05-02T13:57:56Z</time></trkpt><trkpt lat="40.34391222770914" lon="8.426603588807602"><ele>181.0</ele><time>2026-05-02T13:57:57Z</time></trkpt><trkpt lat="40.3438398357414" lon="8.426826469412376"><ele>181.0</ele><time>2026-05-02T13:57:58Z</time></trkpt><trkpt lat="40.34375829613399" lon="8.427052892139404"><ele>172.66666666666669</ele><time>2026-05-02T13:57:59Z</time></trkpt><trkpt lat="40.343683345133734" lon="8.427262719647416"><ele>164.33333333333334</ele><time>2026-05-02T13:58:00Z</time></trkpt><trkpt lat="40.343575234471345" lon="8.427459972124208"><ele>156.0</ele><time>2026-05-02T13:58:01Z</time></trkpt><trkpt lat="40.343429811155374" lon="8.427617176778327"><ele>156.0</ele><time>2026-05-02T13:58:02Z</time></trkpt><trkpt lat="40.34326439767739" lon="8.427737306361609"><ele>156.0</ele><time>2026-05-02T13:58:03Z</time></trkpt><trkpt lat="40.343070673283336" lon="8.427806163990178"><ele>156.0</ele><time>2026-05-02T13:58:04Z</time></trkpt><trkpt lat="40.34287496493466" lon="8.42786750763653"><ele>157.0</ele><time>2026-05-02T13:58:05Z</time></trkpt><trkpt lat="40.34266198921852" lon="8.427924903249725"><ele>158.0</ele><time>2026-05-02T13:58:06Z</time></trkpt><trkpt lat="40.34246180048013" lon="8.427999195298241"><ele>159.0</ele><time>2026-05-02T13:58:07Z</time></trkpt><trkpt lat="40.342284321628206" lon="8.428106154143798"><ele>150.33333333333334</ele><time>2026-05-02T13:58:08Z</time></trkpt><trkpt lat="40.342129350490524" lon="8.428250746351987"><ele>141.66666666666669</ele><time>2026-05-02T13:58:09Z</time></trkpt><trkpt lat="40.34200316240518" lon="8.428427713825583"><ele>133.0</ele><time>2026-05-02T13:58:10Z</time></trkpt><trkpt lat="40.34189192243628" lon="8.428611294018902"><ele>133.0</ele><time>2026-05-02T13:58:11Z</time></trkpt><trkpt lat="40.34178817588639" lon="8.42879415037397"><ele>133.0</ele><time>2026-05-02T13:58:12Z</time></trkpt><trkpt lat="40.34166426611899" lon="8.42893154094063"><ele>133.0</ele><time>2026-05-02T13:58:13Z</time></trkpt><trkpt lat="40.341519630524495" lon="8.429019008049973"><ele>134.33333333333334</ele><time>2026-05-02T13:58:14Z</time></trkpt><trkpt lat="40.34135277610983" lon="8.429050506101753"><ele>135.66666666666666</ele><time>2026-05-02T13:58:15Z</time></trkpt><trkpt lat="40.3411807154873" lon="8.429024608851403"><ele>137.0</ele><time>2026-05-02T13:58:16Z</time></trkpt><trkpt lat="40.34099024647881" lon="8.428944399260722"><ele>137.0</ele><time>2026-05-02T13:58:17Z</time></trkpt><trkpt lat="40.34081442757833" lon="8.428865609700042"><ele>137.0</ele><time>2026-05-02T13:58:18Z</time></trkpt><trkpt lat="40.340651304285515" lon="8.428821647786691"><ele>137.0</ele><time>2026-05-02T13:58:19Z</time></trkpt><trkpt lat="40.34048329730195" lon="8.428822290682115"><ele>131.0</ele><time>2026-05-02T13:58:20Z</time></trkpt><trkpt lat="40.340328317668444" lon="8.428864132213901"><ele>125.0</ele><time>2026-05-02T13:58:21Z</time></trkpt><trkpt lat="40.34018623494227" lon="8.428955349596247"><ele>119.0</ele><time>2026-05-02T13:58:22Z</time></trkpt><trkpt lat="40.34006760045441" lon="8.429088674925515"><ele>119.0</ele><time>2026-05-02T13:58:23Z</time></trkpt><trkpt lat="40.339983129008345" lon="8.42926006538177"><ele>119.0</ele><time>2026-05-02T13:58:24Z</time></trkpt><trkpt lat="40.33994222168864" lon="8.429455367466618"><ele>119.0</ele><time>2026-05-02T13:58:25Z</time></trkpt><trkpt lat="40.33994232035582" lon="8.429679837322126"><ele>118.66666666666666</ele><time>2026-05-02T13:58:26Z</time></trkpt><trkpt lat="40.33998044728599" lon="8.42993543684574"><ele>118.33333333333334</ele><time>2026-05-02T13:58:27Z</time></trkpt><trkpt lat="40.34003107761117" lon="8.430188693276914"><ele>118.0</ele><time>2026-05-02T13:58:28Z</time></trkpt><trkpt lat="40.34007142741766" lon="8.430417425365118"><ele>116.33333333333334</ele><time>2026-05-02T13:58:29Z</time></trkpt><trkpt lat="40.340090236211594" lon="8.430620470771235"><ele>114.66666666666666</ele><time>2026-05-02T13:58:30Z</time></trkpt><trkpt lat="40.340072925037056" lon="8.430811397430173"><ele>113.0</ele><time>2026-05-02T13:58:31Z</time></trkpt><trkpt lat="40.340018946878565" lon="8.43099156322528"><ele>113.0</ele><time>2026-05-02T13:58:32Z</time></trkpt><trkpt lat="40.33992443867748" lon="8.431155894083416"><ele>113.0</ele><time>2026-05-02T13:58:33Z</time></trkpt><trkpt lat="40.33980222267204" lon="8.431277932666122"><ele>113.0</ele><time>2026-05-02T13:58:34Z</time></trkpt><trkpt lat="40.339663689865844" lon="8.431342347775981"><ele>116.33333333333333</ele><time>2026-05-02T13:58:35Z</time></trkpt><trkpt lat="40.33950781945482" lon="8.431361695967235"><ele>119.66666666666666</ele><time>2026-05-02T13:58:36Z</time></trkpt><trkpt lat="40.339318276114845" lon="8.431360559325263"><ele>123.0</ele><time>2026-05-02T13:58:37Z</time></trkpt><trkpt lat="40.33912928353667" lon="8.431343113463852"><ele>117.66666666666666</ele><time>2026-05-02T13:58:38Z</time></trkpt><trkpt lat="40.3389577340557" lon="8.431298876883274"><ele>112.33333333333333</ele><time>2026-05-02T13:58:39Z</time></trkpt><trkpt lat="40.33881051420643" lon="8.431184848692443"><ele>107.0</ele><time>2026-05-02T13:58:40Z</time></trkpt><trkpt lat="40.338669471336345" lon="8.431039538857092"><ele>107.0</ele><time>2026-05-02T13:58:41Z</time></trkpt><trkpt lat="40.33852544732149" lon="8.430856762844082"><ele>107.0</ele><time>2026-05-02T13:58:42Z</time></trkpt><trkpt lat="40.33837147814323" lon="8.43066043728528"><ele>107.0</ele><time>2026-05-02T13:58:43Z</time></trkpt><trkpt lat="40.33819952236484" lon="8.430457571811393"><ele>104.0</ele><time>2026-05-02T13:58:44Z</time></trkpt><trkpt lat="40.338018494829505" lon="8.430270338001066"><ele>101.0</ele><time>2026-05-02T13:58:45Z</time></trkpt><trkpt lat="40.33783458584573" lon="8.430114729345364"><ele>98.0</ele><time>2026-05-02T13:58:46Z</time></trkpt><trkpt lat="40.337652454708305" lon="8.429981906946681"><ele>98.0</ele><time>2026-05-02T13:58:47Z</time></trkpt><trkpt lat="40.337553727606156" lon="8.429824796491708"><ele>98.0</ele><time>2026-05-02T13:58:48Z</time></trkpt><trkpt lat="40.33740633179597" lon="8.429768040437793"><ele>98.0</ele><time>2026-05-02T13:58:49Z</time></trkpt><trkpt lat="40.33723393469714" lon="8.429759700565981"><ele>96.66666666666666</ele><time>2026-05-02T13:58:50Z</time></trkpt><trkpt lat="40.33704778633988" lon="8.42979645059826"><ele>95.33333333333333</ele><time>2026-05-02T13:58:51Z</time></trkpt><trkpt lat="40.33685136570719" lon="8.4298419865585"><ele>94.0</ele><time>2026-05-02T13:58:52Z</time></trkpt><trkpt lat="40.336657355650914" lon="8.429893486087648"><ele>94.0</ele><time>2026-05-02T13:58:53Z</time></trkpt><trkpt lat="40.33647969072846" lon="8.429939631778533"><ele>94.0</ele><time>2026-05-02T13:58:54Z</time></trkpt><trkpt lat="40.33631763020035" lon="8.429988043639565"><ele>94.0</ele><time>2026-05-02T13:58:55Z</time></trkpt><trkpt lat="40.33616081304991" lon="8.430042955564769"><ele>88.33333333333333</ele><time>2026-05-02T13:58:56Z</time></trkpt><trkpt lat="40.33600911713139" lon="8.430121189537084"><ele>82.66666666666667</ele><time>2026-05-02T13:58:57Z</time></trkpt><trkpt lat="40.33586970169507" lon="8.430262199663021"><ele>77.0</ele><time>2026-05-02T13:58:58Z</time></trkpt><trkpt lat="40.33574653845404" lon="8.430452519612466"><ele>74.33333333333334</ele><time>2026-05-02T13:58:59Z</time></trkpt><trkpt lat="40.335642887231316" lon="8.430680163471271"><ele>71.66666666666667</ele><time>2026-05-02T13:59:00Z</time></trkpt><trkpt lat="40.33554385849103" lon="8.430914891979352"><ele>69.0</ele><time>2026-05-02T13:59:01Z</time></trkpt><trkpt lat="40.33544216670465" lon="8.4311665900662"><ele>71.33333333333333</ele><time>2026-05-02T13:59:02Z</time></trkpt><trkpt lat="40.335335401980316" lon="8.43141861692667"><ele>73.66666666666666</ele><time>2026-05-02T13:59:03Z</time></trkpt><trkpt lat="40.33522571013829" lon="8.431673423620172"><ele>76.0</ele><time>2026-05-02T13:59:04Z</time></trkpt><trkpt lat="40.335115573851375" lon="8.431927666828617"><ele>79.66666666666666</ele><time>2026-05-02T13:59:05Z</time></trkpt><trkpt lat="40.33501850036695" lon="8.432168871079979"><ele>83.33333333333333</ele><time>2026-05-02T13:59:06Z</time></trkpt><trkpt lat="40.33493820905788" lon="8.432403389710244"><ele>87.0</ele><time>2026-05-02T13:59:07Z</time></trkpt><trkpt lat="40.33488598148592" lon="8.43265172526203"><ele>87.0</ele><time>2026-05-02T13:59:08Z</time></trkpt><trkpt lat="40.33486191334806" lon="8.4329052354423"><ele>87.0</ele><time>2026-05-02T13:59:09Z</time></trkpt><trkpt lat="40.33483185955173" lon="8.433142845319216"><ele>87.0</ele><time>2026-05-02T13:59:10Z</time></trkpt><trkpt lat="40.33478647137792" lon="8.433360398153221"><ele>88.33333333333333</ele><time>2026-05-02T13:59:11Z</time></trkpt><trkpt lat="40.334702247989355" lon="8.433546207090991"><ele>89.66666666666666</ele><time>2026-05-02T13:59:12Z</time></trkpt><trkpt lat="40.33457989846091" lon="8.433700172157222"><ele>91.0</ele><time>2026-05-02T13:59:13Z</time></trkpt><trkpt lat="40.334420742211364" lon="8.433842246684971"><ele>91.0</ele><time>2026-05-02T13:59:14Z</time></trkpt><trkpt lat="40.33424927504107" lon="8.43398997598369"><ele>91.0</ele><time>2026-05-02T13:59:15Z</time></trkpt><trkpt lat="40.33406993335953" lon="8.434150161563844"><ele>91.0</ele><time>2026-05-02T13:59:16Z</time></trkpt><trkpt lat="40.333881976904436" lon="8.434321994230222"><ele>88.0</ele><time>2026-05-02T13:59:17Z</time></trkpt><trkpt lat="40.33369399282675" lon="8.434488471062714"><ele>85.0</ele><time>2026-05-02T13:59:18Z</time></trkpt><trkpt lat="40.33350149160124" lon="8.434664867660908"><ele>85.0</ele><time>2026-05-02T13:59:19Z</time></trkpt><trkpt lat="40.33330716957547" lon="8.434862522172102"><ele>85.0</ele><time>2026-05-02T13:59:20Z</time></trkpt><trkpt lat="40.33311714039564" lon="8.435078771836166"><ele>84.0</ele><time>2026-05-02T13:59:21Z</time></trkpt><trkpt lat="40.33292713616351" lon="8.435308284599023"><ele>83.0</ele><time>2026-05-02T13:59:22Z</time></trkpt><trkpt lat="40.33272928365551" lon="8.435541778647403"><ele>80.5</ele><time>2026-05-02T13:59:23Z</time></trkpt><trkpt lat="40.33254048152099" lon="8.435765762661656"><ele>78.0</ele><time>2026-05-02T13:59:24Z</time></trkpt><trkpt lat="40.332362887910506" lon="8.435978395105062"><ele>80.0</ele><time>2026-05-02T13:59:25Z</time></trkpt><trkpt lat="40.33219119735366" lon="8.436182684641205"><ele>82.0</ele><time>2026-05-02T13:59:26Z</time></trkpt><trkpt lat="40.33203433412524" lon="8.436372943189076"><ele>84.0</ele><time>2026-05-02T13:59:27Z</time></trkpt><trkpt lat="40.33188500813449" lon="8.43653950506381"><ele>77.66666666666667</ele><time>2026-05-02T13:59:28Z</time></trkpt><trkpt lat="40.33172474292652" lon="8.436682233779463"><ele>71.33333333333334</ele><time>2026-05-02T13:59:29Z</time></trkpt><trkpt lat="40.33154898571317" lon="8.436788049983774"><ele>65.0</ele><time>2026-05-02T13:59:30Z</time></trkpt><trkpt lat="40.331359991443286" lon="8.43685612229178"><ele>62.0</ele><time>2026-05-02T13:59:31Z</time></trkpt><trkpt lat="40.331175434852014" lon="8.43688290364951"><ele>59.0</ele><time>2026-05-02T13:59:32Z</time></trkpt><trkpt lat="40.33098834490777" lon="8.436868701490814"><ele>56.0</ele><time>2026-05-02T13:59:33Z</time></trkpt><trkpt lat="40.33080006923162" lon="8.436821789300446"><ele>56.0</ele><time>2026-05-02T13:59:34Z</time></trkpt><trkpt lat="40.33061421834122" lon="8.436724783274569"><ele>56.0</ele><time>2026-05-02T13:59:35Z</time></trkpt><trkpt lat="40.33043643894933" lon="8.436593112390415"><ele>56.0</ele><time>2026-05-02T13:59:36Z</time></trkpt><trkpt lat="40.33026537883334" lon="8.436427227982692"><ele>53.0</ele><time>2026-05-02T13:59:37Z</time></trkpt><trkpt lat="40.330113452593295" lon="8.436270372640392"><ele>50.0</ele><time>2026-05-02T13:59:38Z</time></trkpt><trkpt lat="40.329960196934884" lon="8.436139681461418"><ele>47.0</ele><time>2026-05-02T13:59:39Z</time></trkpt><trkpt lat="40.32980277551539" lon="8.436034485904582"><ele>43.0</ele><time>2026-05-02T13:59:40Z</time></trkpt><trkpt lat="40.32964020305142" lon="8.435977412236861"><ele>39.0</ele><time>2026-05-02T13:59:41Z</time></trkpt><trkpt lat="40.32947149539596" lon="8.435959442082773"><ele>35.0</ele><time>2026-05-02T13:59:42Z</time></trkpt><trkpt lat="40.329308126702706" lon="8.435975316454414"><ele>35.0</ele><time>2026-05-02T13:59:43Z</time></trkpt><trkpt lat="40.32915212673162" lon="8.436044809527422"><ele>35.0</ele><time>2026-05-02T13:59:44Z</time></trkpt><trkpt lat="40.32900491466619" lon="8.436141704895425"><ele>35.0</ele><time>2026-05-02T13:59:45Z</time></trkpt><trkpt lat="40.32888361367942" lon="8.43627125912222"><ele>34.0</ele><time>2026-05-02T13:59:46Z</time></trkpt><trkpt lat="40.32877059533801" lon="8.436431523734694"><ele>33.0</ele><time>2026-05-02T13:59:47Z</time></trkpt><trkpt lat="40.32863914079534" lon="8.436595813874385"><ele>32.0</ele><time>2026-05-02T13:59:48Z</time></trkpt><trkpt lat="40.32852076003836" lon="8.436772708127398"><ele>32.0</ele><time>2026-05-02T13:59:49Z</time></trkpt><trkpt lat="40.32840702760043" lon="8.436943425881433"><ele>32.0</ele><time>2026-05-02T13:59:50Z</time></trkpt><trkpt lat="40.32830857142202" lon="8.437123050350994"><ele>32.0</ele><time>2026-05-02T13:59:51Z</time></trkpt><trkpt lat="40.32819925235716" lon="8.437284312490016"><ele>32.666666666666664</ele><time>2026-05-02T13:59:52Z</time></trkpt><trkpt lat="40.32809409162011" lon="8.437442200088505"><ele>33.333333333333336</ele><time>2026-05-02T13:59:53Z</time></trkpt><trkpt lat="40.3279806240936" lon="8.437580366867937"><ele>34.0</ele><time>2026-05-02T13:59:54Z</time></trkpt><trkpt lat="40.32788310077641" lon="8.437726522936954"><ele>33.66666666666667</ele><time>2026-05-02T13:59:55Z</time></trkpt><trkpt lat="40.32778578555825" lon="8.437872367192652"><ele>33.333333333333336</ele><time>2026-05-02T13:59:56Z</time></trkpt><trkpt lat="40.327686498340945" lon="8.438030172581714"><ele>33.0</ele><time>2026-05-02T13:59:57Z</time></trkpt><trkpt lat="40.327592185443784" lon="8.438198522170023"><ele>33.0</ele><time>2026-05-02T13:59:58Z</time></trkpt><trkpt lat="40.327503643211024" lon="8.43837840637496"><ele>33.0</ele><time>2026-05-02T13:59:59Z</time></trkpt><trkpt lat="40.32741336016019" lon="8.438564095177576"><ele>33.0</ele><time>2026-05-02T14:00:00Z</time></trkpt><trkpt lat="40.32732160310136" lon="8.438749674310573"><ele>31.666666666666664</ele><time>2026-05-02T14:00:01Z</time></trkpt><trkpt lat="40.32722986474178" lon="8.438934995355469"><ele>30.333333333333332</ele><time>2026-05-02T14:00:02Z</time></trkpt><trkpt lat="40.327141941844964" lon="8.4391126084077"><ele>29.0</ele><time>2026-05-02T14:00:03Z</time></trkpt><trkpt lat="40.32707448511882" lon="8.439286661547516"><ele>29.0</ele><time>2026-05-02T14:00:04Z</time></trkpt><trkpt lat="40.326998514525975" lon="8.43943568439165"><ele>29.0</ele><time>2026-05-02T14:00:05Z</time></trkpt><trkpt lat="40.32692498390999" lon="8.439585086850334"><ele>29.0</ele><time>2026-05-02T14:00:06Z</time></trkpt><trkpt lat="40.32685963915465" lon="8.439737916756908"><ele>29.0</ele><time>2026-05-02T14:00:07Z</time></trkpt><trkpt lat="40.32680879316957" lon="8.439899339456026"><ele>30.5</ele><time>2026-05-02T14:00:08Z</time></trkpt><trkpt lat="40.32678475793037" lon="8.440067657795229"><ele>32.0</ele><time>2026-05-02T14:00:09Z</time></trkpt><trkpt lat="40.32677491430473" lon="8.440239451207171"><ele>33.5</ele><time>2026-05-02T14:00:10Z</time></trkpt><trkpt lat="40.326747641192014" lon="8.440413234618893"><ele>35.0</ele><time>2026-05-02T14:00:11Z</time></trkpt><trkpt lat="40.326736308045554" lon="8.440587166528992"><ele>35.5</ele><time>2026-05-02T14:00:12Z</time></trkpt><trkpt lat="40.32672574597263" lon="8.440749264628527"><ele>36.0</ele><time>2026-05-02T14:00:13Z</time></trkpt><trkpt lat="40.32671553040417" lon="8.440906044232948"><ele>36.5</ele><time>2026-05-02T14:00:14Z</time></trkpt><trkpt lat="40.3267059006491" lon="8.44105710814571"><ele>37.0</ele><time>2026-05-02T14:00:15Z</time></trkpt><trkpt lat="40.326696251512935" lon="8.441207872672324"><ele>36.5</ele><time>2026-05-02T14:00:16Z</time></trkpt><trkpt lat="40.32669866766797" lon="8.441370895834984"><ele>36.0</ele><time>2026-05-02T14:00:17Z</time></trkpt><trkpt lat="40.32668620655697" lon="8.441540449100266"><ele>35.5</ele><time>2026-05-02T14:00:18Z</time></trkpt><trkpt lat="40.326674506880224" lon="8.441715817362194"><ele>35.0</ele><time>2026-05-02T14:00:19Z</time></trkpt><trkpt lat="40.32666307403783" lon="8.441899365687041"><ele>35.0</ele><time>2026-05-02T14:00:20Z</time></trkpt><trkpt lat="40.32665313866571" lon="8.442093188832047"><ele>35.0</ele><time>2026-05-02T14:00:21Z</time></trkpt><trkpt lat="40.32662247662627" lon="8.442295772451041"><ele>35.0</ele><time>2026-05-02T14:00:22Z</time></trkpt><trkpt lat="40.326619539563524" lon="8.442517500690466"><ele>34.0</ele><time>2026-05-02T14:00:23Z</time></trkpt><trkpt lat="40.32664891227181" lon="8.442753165678155"><ele>33.0</ele><time>2026-05-02T14:00:24Z</time></trkpt><trkpt lat="40.326693582563635" lon="8.442993081907636"><ele>32.0</ele><time>2026-05-02T14:00:25Z</time></trkpt><trkpt lat="40.32674244309726" lon="8.443243293822938"><ele>31.666666666666664</ele><time>2026-05-02T14:00:26Z</time></trkpt><trkpt lat="40.3267912866856" lon="8.443492729365135"><ele>31.333333333333336</ele><time>2026-05-02T14:00:27Z</time></trkpt><trkpt lat="40.326839880121305" lon="8.443740887278246"><ele>31.0</ele><time>2026-05-02T14:00:28Z</time></trkpt><trkpt lat="40.326884116576046" lon="8.44396734537803"><ele>31.0</ele><time>2026-05-02T14:00:29Z</time></trkpt><trkpt lat="40.32693146131481" lon="8.444203606532984"><ele>31.0</ele><time>2026-05-02T14:00:30Z</time></trkpt><trkpt lat="40.32697751461041" lon="8.44443749592473"><ele>31.0</ele><time>2026-05-02T14:00:31Z</time></trkpt><trkpt lat="40.327025977152125" lon="8.444684166402897"><ele>34.66666666666667</ele><time>2026-05-02T14:00:32Z</time></trkpt><trkpt lat="40.327069318874976" lon="8.444912500426987"><ele>38.333333333333336</ele><time>2026-05-02T14:00:33Z</time></trkpt><trkpt lat="40.327101374850265" lon="8.445143130448736"><ele>42.0</ele><time>2026-05-02T14:00:34Z</time></trkpt><trkpt lat="40.327096686211156" lon="8.445369668244883"><ele>43.333333333333336</ele><time>2026-05-02T14:00:35Z</time></trkpt><trkpt lat="40.32704908116016" lon="8.445589126013243"><ele>44.66666666666667</ele><time>2026-05-02T14:00:36Z</time></trkpt><trkpt lat="40.326984200765864" lon="8.445808671380584"><ele>46.0</ele><time>2026-05-02T14:00:37Z</time></trkpt><trkpt lat="40.32691740941715" lon="8.44602292811382"><ele>46.0</ele><time>2026-05-02T14:00:38Z</time></trkpt><trkpt lat="40.32684661228347" lon="8.446250520152475"><ele>46.0</ele><time>2026-05-02T14:00:39Z</time></trkpt><trkpt lat="40.3267717237445" lon="8.44649415677"><ele>46.0</ele><time>2026-05-02T14:00:40Z</time></trkpt><trkpt lat="40.32668891143583" lon="8.446765658369138"><ele>44.5</ele><time>2026-05-02T14:00:41Z</time></trkpt><trkpt lat="40.326600322234206" lon="8.44705594144951"><ele>43.0</ele><time>2026-05-02T14:00:42Z</time></trkpt><trkpt lat="40.326513640392825" lon="8.44733916324573"><ele>41.0</ele><time>2026-05-02T14:00:43Z</time></trkpt><trkpt lat="40.32642627232042" lon="8.447624627204"><ele>39.0</ele><time>2026-05-02T14:00:44Z</time></trkpt><trkpt lat="40.32634414831107" lon="8.447892800471672"><ele>40.333333333333336</ele><time>2026-05-02T14:00:45Z</time></trkpt><trkpt lat="40.32626960979478" lon="8.4481342602563"><ele>41.66666666666667</ele><time>2026-05-02T14:00:46Z</time></trkpt><trkpt lat="40.32620879553888" lon="8.448331547263356"><ele>43.0</ele><time>2026-05-02T14:00:47Z</time></trkpt><trkpt lat="40.32616129124797" lon="8.448494853403167"><ele>43.0</ele><time>2026-05-02T14:00:48Z</time></trkpt><trkpt lat="40.32612459914017" lon="8.448636348718084"><ele>43.0</ele><time>2026-05-02T14:00:49Z</time></trkpt><trkpt lat="40.32609490368734" lon="8.448796549812295"><ele>43.0</ele><time>2026-05-02T14:00:50Z</time></trkpt><trkpt lat="40.32608206094973" lon="8.44898799237254"><ele>43.0</ele><time>2026-05-02T14:00:51Z</time></trkpt><trkpt lat="40.32608868512352" lon="8.449243409665257"><ele>43.333333333333336</ele><time>2026-05-02T14:00:52Z</time></trkpt><trkpt lat="40.3260859429813" lon="8.449510149016321"><ele>43.666666666666664</ele><time>2026-05-02T14:00:53Z</time></trkpt><trkpt lat="40.32608488052437" lon="8.449803796396408"><ele>44.0</ele><time>2026-05-02T14:00:54Z</time></trkpt><trkpt lat="40.3260891345021" lon="8.450118569404486"><ele>45.0</ele><time>2026-05-02T14:00:55Z</time></trkpt><trkpt lat="40.32609652484783" lon="8.450432895554464"><ele>46.0</ele><time>2026-05-02T14:00:56Z</time></trkpt><trkpt lat="40.32609966121349" lon="8.45071251698392"><ele>46.5</ele><time>2026-05-02T14:00:57Z</time></trkpt><trkpt lat="40.32606739930125" lon="8.450933808997194"><ele>47.0</ele><time>2026-05-02T14:00:58Z</time></trkpt><trkpt lat="40.32602313662899" lon="8.451113439687429"><ele>47.5</ele><time>2026-05-02T14:00:59Z</time></trkpt><trkpt lat="40.32594444726184" lon="8.451251359641633"><ele>48.0</ele><time>2026-05-02T14:01:00Z</time></trkpt><trkpt lat="40.32582115719823" lon="8.451291381913837"><ele>48.66666666666667</ele><time>2026-05-02T14:01:01Z</time></trkpt><trkpt lat="40.32568435233545" lon="8.45137102181932"><ele>49.333333333333336</ele><time>2026-05-02T14:01:02Z</time></trkpt><trkpt lat="40.325502693650485" lon="8.451468439123976"><ele>50.0</ele><time>2026-05-02T14:01:03Z</time></trkpt><trkpt lat="40.32530100627234" lon="8.451578187426373"><ele>50.5</ele><time>2026-05-02T14:01:04Z</time></trkpt><trkpt lat="40.32508115964746" lon="8.451700240179818"><ele>51.0</ele><time>2026-05-02T14:01:05Z</time></trkpt><trkpt lat="40.32483966719912" lon="8.451829908880358"><ele>48.5</ele><time>2026-05-02T14:01:06Z</time></trkpt><trkpt lat="40.32458413327496" lon="8.451938070012439"><ele>46.0</ele><time>2026-05-02T14:01:07Z</time></trkpt><trkpt lat="40.324380896367266" lon="8.452023119908427"><ele>49.0</ele><time>2026-05-02T14:01:08Z</time></trkpt><trkpt lat="40.32420782385251" lon="8.452125015405013"><ele>52.0</ele><time>2026-05-02T14:01:09Z</time></trkpt><trkpt lat="40.324051646501" lon="8.452204080088038"><ele>55.0</ele><time>2026-05-02T14:01:10Z</time></trkpt><trkpt lat="40.32392124271319" lon="8.452317711659806"><ele>55.33333333333333</ele><time>2026-05-02T14:01:11Z</time></trkpt><trkpt lat="40.32382001463343" lon="8.452520024890674"><ele>55.66666666666667</ele><time>2026-05-02T14:01:12Z</time></trkpt><trkpt lat="40.323727253866" lon="8.452759608898969"><ele>56.0</ele><time>2026-05-02T14:01:13Z</time></trkpt><trkpt lat="40.32364944706245" lon="8.45306649164621"><ele>56.0</ele><time>2026-05-02T14:01:14Z</time></trkpt><trkpt lat="40.323590820242224" lon="8.45334871383912"><ele>56.0</ele><time>2026-05-02T14:01:15Z</time></trkpt><trkpt lat="40.32353959735326" lon="8.453591291439873"><ele>56.0</ele><time>2026-05-02T14:01:16Z</time></trkpt><trkpt lat="40.323488446922916" lon="8.453811851852999"><ele>57.0</ele><time>2026-05-02T14:01:17Z</time></trkpt><trkpt lat="40.32343804441413" lon="8.454026009839978"><ele>58.0</ele><time>2026-05-02T14:01:18Z</time></trkpt><trkpt lat="40.32338100303735" lon="8.45424278217656"><ele>59.0</ele><time>2026-05-02T14:01:19Z</time></trkpt><trkpt lat="40.323335583673725" lon="8.454450109877513"><ele>60.66666666666667</ele><time>2026-05-02T14:01:20Z</time></trkpt><trkpt lat="40.32327667988404" lon="8.454639904360508"><ele>62.33333333333333</ele><time>2026-05-02T14:01:21Z</time></trkpt><trkpt lat="40.32324529050938" lon="8.454831605399548"><ele>64.0</ele><time>2026-05-02T14:01:22Z</time></trkpt><trkpt lat="40.32316706861351" lon="8.455011154246101"><ele>64.0</ele><time>2026-05-02T14:01:23Z</time></trkpt><trkpt lat="40.32308034877618" lon="8.455190086034655"><ele>64.0</ele><time>2026-05-02T14:01:24Z</time></trkpt><trkpt lat="40.32297331763557" lon="8.455365290525767"><ele>64.0</ele><time>2026-05-02T14:01:25Z</time></trkpt><trkpt lat="40.322848051733494" lon="8.455515137604573"><ele>60.666666666666664</ele><time>2026-05-02T14:01:26Z</time></trkpt><trkpt lat="40.32272243134999" lon="8.455667740671085"><ele>57.33333333333333</ele><time>2026-05-02T14:01:27Z</time></trkpt><trkpt lat="40.32260014463743" lon="8.455813130684128"><ele>54.0</ele><time>2026-05-02T14:01:28Z</time></trkpt><trkpt lat="40.32249733030946" lon="8.45596807795762"><ele>54.0</ele><time>2026-05-02T14:01:29Z</time></trkpt><trkpt lat="40.32237969768863" lon="8.456108533178519"><ele>54.0</ele><time>2026-05-02T14:01:30Z</time></trkpt><trkpt lat="40.322254393321124" lon="8.456228022210633"><ele>54.0</ele><time>2026-05-02T14:01:31Z</time></trkpt><trkpt lat="40.322139713040436" lon="8.456338604274462"><ele>52.5</ele><time>2026-05-02T14:01:32Z</time></trkpt><trkpt lat="40.32201944837034" lon="8.456424213386892"><ele>51.0</ele><time>2026-05-02T14:01:33Z</time></trkpt><trkpt lat="40.32191241486258" lon="8.456517378471421"><ele>49.5</ele><time>2026-05-02T14:01:34Z</time></trkpt><trkpt lat="40.32181150710395" lon="8.45658543731843"><ele>48.0</ele><time>2026-05-02T14:01:35Z</time></trkpt><trkpt lat="40.3217294333585" lon="8.456658965803042"><ele>48.0</ele><time>2026-05-02T14:01:36Z</time></trkpt><trkpt lat="40.321653786835206" lon="8.45673962054646"><ele>48.0</ele><time>2026-05-02T14:01:37Z</time></trkpt><trkpt lat="40.32160541209903" lon="8.456864217007228"><ele>48.0</ele><time>2026-05-02T14:01:38Z</time></trkpt><trkpt lat="40.32155310536648" lon="8.456971949742751"><ele>48.0</ele><time>2026-05-02T14:01:39Z</time></trkpt><trkpt lat="40.32150932860669" lon="8.457064233281763"><ele>48.0</ele><time>2026-05-02T14:01:40Z</time></trkpt><trkpt lat="40.321470901053374" lon="8.457143809611765"><ele>50.0</ele><time>2026-05-02T14:01:41Z</time></trkpt><trkpt lat="40.32143413563232" lon="8.457229999277356"><ele>52.0</ele><time>2026-05-02T14:01:42Z</time></trkpt><trkpt lat="40.32139749862807" lon="8.457326800133366"><ele>54.0</ele><time>2026-05-02T14:01:43Z</time></trkpt><trkpt lat="40.32135690925841" lon="8.457435559875172"><ele>56.0</ele><time>2026-05-02T14:01:44Z</time></trkpt><trkpt lat="40.3213127760142" lon="8.457562612340073"><ele>58.0</ele><time>2026-05-02T14:01:45Z</time></trkpt><trkpt lat="40.32126838850137" lon="8.457704031688522"><ele>53.25</ele><time>2026-05-02T14:01:46Z</time></trkpt><trkpt lat="40.32122457541625" lon="8.457856127223534"><ele>48.5</ele><time>2026-05-02T14:01:47Z</time></trkpt><trkpt lat="40.321171659001294" lon="8.458014592646773"><ele>43.75</ele><time>2026-05-02T14:01:48Z</time></trkpt><trkpt lat="40.32107374075493" lon="8.458134272916734"><ele>39.0</ele><time>2026-05-02T14:01:49Z</time></trkpt><trkpt lat="40.32098144870186" lon="8.458260885852997"><ele>39.0</ele><time>2026-05-02T14:01:50Z</time></trkpt><trkpt lat="40.32090945978728" lon="8.458401383828528"><ele>39.0</ele><time>2026-05-02T14:01:51Z</time></trkpt><trkpt lat="40.32084127887838" lon="8.458541896478993"><ele>39.0</ele><time>2026-05-02T14:01:52Z</time></trkpt><trkpt lat="40.320784696081695" lon="8.458694411242476"><ele>39.0</ele><time>2026-05-02T14:01:53Z</time></trkpt><trkpt lat="40.32073530212879" lon="8.458845584065626"><ele>41.8</ele><time>2026-05-02T14:01:54Z</time></trkpt><trkpt lat="40.32068698336686" lon="8.45897892900763"><ele>44.599999999999994</ele><time>2026-05-02T14:01:55Z</time></trkpt><trkpt lat="40.32064104986602" lon="8.459104393005218"><ele>47.4</ele><time>2026-05-02T14:01:56Z</time></trkpt><trkpt lat="40.32059923420431" lon="8.459226719751598"><ele>50.199999999999996</ele><time>2026-05-02T14:01:57Z</time></trkpt><trkpt lat="40.320559793687096" lon="8.459347817156765"><ele>53.0</ele><time>2026-05-02T14:01:58Z</time></trkpt><trkpt lat="40.32050778157161" lon="8.459473900753746"><ele>49.25</ele><time>2026-05-02T14:01:59Z</time></trkpt><trkpt lat="40.3204351481742" lon="8.459596646859419"><ele>45.5</ele><time>2026-05-02T14:02:00Z</time></trkpt><trkpt lat="40.32034713718591" lon="8.459726216257181"><ele>41.75</ele><time>2026-05-02T14:02:01Z</time></trkpt><trkpt lat="40.32022835022714" lon="8.459835723581174"><ele>38.0</ele><time>2026-05-02T14:02:02Z</time></trkpt><trkpt lat="40.320098116508845" lon="8.459951139528041"><ele>38.0</ele><time>2026-05-02T14:02:03Z</time></trkpt><trkpt lat="40.31997660820583" lon="8.460044557064826"><ele>38.0</ele><time>2026-05-02T14:02:04Z</time></trkpt><trkpt lat="40.319881346838436" lon="8.460183420368013"><ele>38.0</ele><time>2026-05-02T14:02:05Z</time></trkpt><trkpt lat="40.319811204379796" lon="8.460382399619567"><ele>33.666666666666664</ele><time>2026-05-02T14:02:06Z</time></trkpt><trkpt lat="40.31972424760436" lon="8.460609607324146"><ele>29.333333333333336</ele><time>2026-05-02T14:02:07Z</time></trkpt><trkpt lat="40.319613012317824" lon="8.460834048206559"><ele>25.0</ele><time>2026-05-02T14:02:08Z</time></trkpt><trkpt lat="40.319547466886654" lon="8.461069466815813"><ele>26.0</ele><time>2026-05-02T14:02:09Z</time></trkpt><trkpt lat="40.31947815795134" lon="8.46129976904979"><ele>27.0</ele><time>2026-05-02T14:02:10Z</time></trkpt><trkpt lat="40.31940762622342" lon="8.461533737273365"><ele>28.0</ele><time>2026-05-02T14:02:11Z</time></trkpt><trkpt lat="40.31933194563704" lon="8.461759628137655"><ele>28.0</ele><time>2026-05-02T14:02:12Z</time></trkpt><trkpt lat="40.319261776143016" lon="8.461983206673562"><ele>28.0</ele><time>2026-05-02T14:02:13Z</time></trkpt><trkpt lat="40.3191995100001" lon="8.462197906764283"><ele>28.0</ele><time>2026-05-02T14:02:14Z</time></trkpt><trkpt lat="40.319114034488145" lon="8.462397069090045"><ele>25.333333333333336</ele><time>2026-05-02T14:02:15Z</time></trkpt><trkpt lat="40.31902932569024" lon="8.462604033626798"><ele>22.666666666666668</ele><time>2026-05-02T14:02:16Z</time></trkpt><trkpt lat="40.31894437592381" lon="8.462808757319284"><ele>20.0</ele><time>2026-05-02T14:02:17Z</time></trkpt><trkpt lat="40.31884954345833" lon="8.46299225628604"><ele>20.0</ele><time>2026-05-02T14:02:18Z</time></trkpt><trkpt lat="40.31876308483142" lon="8.463178580099608"><ele>20.0</ele><time>2026-05-02T14:02:19Z</time></trkpt><trkpt lat="40.31868617322753" lon="8.46336588348694"><ele>20.0</ele><time>2026-05-02T14:02:20Z</time></trkpt><trkpt lat="40.31862702853416" lon="8.463566429643175"><ele>20.333333333333336</ele><time>2026-05-02T14:02:21Z</time></trkpt><trkpt lat="40.318583262578876" lon="8.463780848357464"><ele>20.666666666666668</ele><time>2026-05-02T14:02:22Z</time></trkpt><trkpt lat="40.3185508048777" lon="8.464007312507064"><ele>21.0</ele><time>2026-05-02T14:02:23Z</time></trkpt><trkpt lat="40.31850129616389" lon="8.464236152248189"><ele>21.0</ele><time>2026-05-02T14:02:24Z</time></trkpt><trkpt lat="40.318481773805075" lon="8.46449022994035"><ele>21.0</ele><time>2026-05-02T14:02:25Z</time></trkpt><trkpt lat="40.31844307850802" lon="8.464752056401439"><ele>21.0</ele><time>2026-05-02T14:02:26Z</time></trkpt><trkpt lat="40.318389742448026" lon="8.465018433549947"><ele>21.0</ele><time>2026-05-02T14:02:27Z</time></trkpt><trkpt lat="40.3183496550866" lon="8.465295780029358"><ele>21.0</ele><time>2026-05-02T14:02:28Z</time></trkpt><trkpt lat="40.318309263006896" lon="8.465575234710425"><ele>21.0</ele><time>2026-05-02T14:02:29Z</time></trkpt><trkpt lat="40.31826713667664" lon="8.465851346755093"><ele>20.666666666666668</ele><time>2026-05-02T14:02:30Z</time></trkpt><trkpt lat="40.318216506220004" lon="8.466121003400563"><ele>20.333333333333336</ele><time>2026-05-02T14:02:31Z</time></trkpt><trkpt lat="40.31813121657824" lon="8.46638460099555"><ele>20.0</ele><time>2026-05-02T14:02:32Z</time></trkpt><trkpt lat="40.31802836183086" lon="8.466646714572205"><ele>18.333333333333336</ele><time>2026-05-02T14:02:33Z</time></trkpt><trkpt lat="40.31792580245147" lon="8.466907732379388"><ele>16.666666666666668</ele><time>2026-05-02T14:02:34Z</time></trkpt><trkpt lat="40.31783687347058" lon="8.467176837376035"><ele>15.0</ele><time>2026-05-02T14:02:35Z</time></trkpt><trkpt lat="40.31773138407951" lon="8.46743499120747"><ele>15.0</ele><time>2026-05-02T14:02:36Z</time></trkpt><trkpt lat="40.31763523417176" lon="8.467698629511947"><ele>15.0</ele><time>2026-05-02T14:02:37Z</time></trkpt><trkpt lat="40.31755214402691" lon="8.467982507918169"><ele>17.0</ele><time>2026-05-02T14:02:38Z</time></trkpt><trkpt lat="40.31747971468453" lon="8.46828714513434"><ele>19.0</ele><time>2026-05-02T14:02:39Z</time></trkpt><trkpt lat="40.31739277795178" lon="8.468591764280504"><ele>20.5</ele><time>2026-05-02T14:02:40Z</time></trkpt><trkpt lat="40.31731869112884" lon="8.468903047096791"><ele>22.0</ele><time>2026-05-02T14:02:41Z</time></trkpt><trkpt lat="40.317245002531685" lon="8.469212676576666"><ele>21.0</ele><time>2026-05-02T14:02:42Z</time></trkpt><trkpt lat="40.317171244986646" lon="8.46952259576454"><ele>20.0</ele><time>2026-05-02T14:02:43Z</time></trkpt><trkpt lat="40.31709979127056" lon="8.469828283782382"><ele>20.0</ele><time>2026-05-02T14:02:44Z</time></trkpt><trkpt lat="40.31705124550048" lon="8.470142495171874"><ele>20.0</ele><time>2026-05-02T14:02:45Z</time></trkpt><trkpt lat="40.31698179915372" lon="8.470447052400944"><ele>20.5</ele><time>2026-05-02T14:02:46Z</time></trkpt><trkpt lat="40.31691057218908" lon="8.47074930415689"><ele>21.0</ele><time>2026-05-02T14:02:47Z</time></trkpt><trkpt lat="40.31683990879444" lon="8.47104579505537"><ele>22.0</ele><time>2026-05-02T14:02:48Z</time></trkpt><trkpt lat="40.31678054667352" lon="8.47132337824251"><ele>23.0</ele><time>2026-05-02T14:02:49Z</time></trkpt><trkpt lat="40.316760725372305" lon="8.471581202658092"><ele>24.0</ele><time>2026-05-02T14:02:50Z</time></trkpt><trkpt lat="40.316777124342245" lon="8.471838127709203"><ele>24.0</ele><time>2026-05-02T14:02:51Z</time></trkpt><trkpt lat="40.31682357950786" lon="8.472099980037747"><ele>24.0</ele><time>2026-05-02T14:02:52Z</time></trkpt><trkpt lat="40.31685722349122" lon="8.472365344031775"><ele>24.0</ele><time>2026-05-02T14:02:53Z</time></trkpt><trkpt lat="40.31683318713855" lon="8.472639693515765"><ele>26.0</ele><time>2026-05-02T14:02:54Z</time></trkpt><trkpt lat="40.316761688764764" lon="8.472921139837398"><ele>28.0</ele><time>2026-05-02T14:02:55Z</time></trkpt><trkpt lat="40.316655387716295" lon="8.473205550049457"><ele>29.666666666666668</ele><time>2026-05-02T14:02:56Z</time></trkpt><trkpt lat="40.31656386870176" lon="8.473462679853425"><ele>31.333333333333336</ele><time>2026-05-02T14:02:57Z</time></trkpt><trkpt lat="40.31649163426145" lon="8.473708699352303"><ele>33.0</ele><time>2026-05-02T14:02:58Z</time></trkpt><trkpt lat="40.316449052789416" lon="8.473951385736783"><ele>34.0</ele><time>2026-05-02T14:02:59Z</time></trkpt><trkpt lat="40.31643678432661" lon="8.474214666994195"><ele>35.0</ele><time>2026-05-02T14:03:00Z</time></trkpt><trkpt lat="40.31644095718349" lon="8.47450183651521"><ele>36.0</ele><time>2026-05-02T14:03:01Z</time></trkpt><trkpt lat="40.31644166425842" lon="8.474807447880428"><ele>37.0</ele><time>2026-05-02T14:03:02Z</time></trkpt><trkpt lat="40.316419656554224" lon="8.475126559495328"><ele>38.0</ele><time>2026-05-02T14:03:03Z</time></trkpt><trkpt lat="40.316363853380544" lon="8.475445183923197"><ele>36.33333333333333</ele><time>2026-05-02T14:03:04Z</time></trkpt><trkpt lat="40.31628601306182" lon="8.475739288363425"><ele>34.666666666666664</ele><time>2026-05-02T14:03:05Z</time></trkpt><trkpt lat="40.3162177174154" lon="8.476002030220693"><ele>33.0</ele><time>2026-05-02T14:03:06Z</time></trkpt><trkpt lat="40.31617210558852" lon="8.476252189660233"><ele>34.0</ele><time>2026-05-02T14:03:07Z</time></trkpt><trkpt lat="40.31613732012385" lon="8.476501480785037"><ele>35.0</ele><time>2026-05-02T14:03:08Z</time></trkpt><trkpt lat="40.31610716147228" lon="8.476756871282486"><ele>36.0</ele><time>2026-05-02T14:03:09Z</time></trkpt><trkpt lat="40.31607981709251" lon="8.477012755380352"><ele>36.666666666666664</ele><time>2026-05-02T14:03:10Z</time></trkpt><trkpt lat="40.31604610748047" lon="8.477266350210956"><ele>37.33333333333333</ele><time>2026-05-02T14:03:11Z</time></trkpt><trkpt lat="40.315984647454734" lon="8.477504355349959"><ele>38.0</ele><time>2026-05-02T14:03:12Z</time></trkpt><trkpt lat="40.3158883473015" lon="8.47772880515488"><ele>39.666666666666664</ele><time>2026-05-02T14:03:13Z</time></trkpt><trkpt lat="40.315777761570274" lon="8.477955016346392"><ele>41.333333333333336</ele><time>2026-05-02T14:03:14Z</time></trkpt><trkpt lat="40.31566921661837" lon="8.47819475307156"><ele>43.0</ele><time>2026-05-02T14:03:15Z</time></trkpt><trkpt lat="40.3155613816857" lon="8.478445467302066"><ele>43.333333333333336</ele><time>2026-05-02T14:03:16Z</time></trkpt><trkpt lat="40.31545994273146" lon="8.478688857022009"><ele>43.666666666666664</ele><time>2026-05-02T14:03:17Z</time></trkpt><trkpt lat="40.315365098784085" lon="8.478907090882826"><ele>44.0</ele><time>2026-05-02T14:03:18Z</time></trkpt><trkpt lat="40.31527389149245" lon="8.479108484171727"><ele>44.0</ele><time>2026-05-02T14:03:19Z</time></trkpt><trkpt lat="40.31518711779729" lon="8.479303625387269"><ele>44.0</ele><time>2026-05-02T14:03:20Z</time></trkpt><trkpt lat="40.31510295231351" lon="8.479537391030409"><ele>44.0</ele><time>2026-05-02T14:03:21Z</time></trkpt><trkpt lat="40.31499192155325" lon="8.47979496148365"><ele>48.0</ele><time>2026-05-02T14:03:22Z</time></trkpt><trkpt lat="40.314865228235334" lon="8.480060548498967"><ele>52.0</ele><time>2026-05-02T14:03:23Z</time></trkpt><trkpt lat="40.314748770741524" lon="8.48031250305442"><ele>54.33333333333333</ele><time>2026-05-02T14:03:24Z</time></trkpt><trkpt lat="40.31466133124299" lon="8.480569569639277"><ele>56.66666666666667</ele><time>2026-05-02T14:03:25Z</time></trkpt><trkpt lat="40.314607231683084" lon="8.480856361648188"><ele>59.0</ele><time>2026-05-02T14:03:26Z</time></trkpt><trkpt lat="40.31456043906199" lon="8.481165430279054"><ele>59.0</ele><time>2026-05-02T14:03:27Z</time></trkpt><trkpt lat="40.31449994414869" lon="8.481481648393723"><ele>59.0</ele><time>2026-05-02T14:03:28Z</time></trkpt><trkpt lat="40.31443624670045" lon="8.481810610764956"><ele>58.5</ele><time>2026-05-02T14:03:29Z</time></trkpt><trkpt lat="40.31437587212544" lon="8.482146808014589"><ele>58.0</ele><time>2026-05-02T14:03:30Z</time></trkpt><trkpt lat="40.31431213356767" lon="8.482492634543625"><ele>58.0</ele><time>2026-05-02T14:03:31Z</time></trkpt><trkpt lat="40.31425357256065" lon="8.482821260703984"><ele>58.0</ele><time>2026-05-02T14:03:32Z</time></trkpt><trkpt lat="40.314203278425246" lon="8.483121578526926"><ele>58.5</ele><time>2026-05-02T14:03:33Z</time></trkpt><trkpt lat="40.314147837722494" lon="8.4834389647104"><ele>59.0</ele><time>2026-05-02T14:03:34Z</time></trkpt><trkpt lat="40.31409245238611" lon="8.483759881024378"><ele>63.0</ele><time>2026-05-02T14:03:35Z</time></trkpt><trkpt lat="40.31403609463434" lon="8.484086263164311"><ele>67.0</ele><time>2026-05-02T14:03:36Z</time></trkpt><trkpt lat="40.31397922269625" lon="8.484413527627984"><ele>71.5</ele><time>2026-05-02T14:03:37Z</time></trkpt><trkpt lat="40.3139267315956" lon="8.484709067848039"><ele>76.0</ele><time>2026-05-02T14:03:38Z</time></trkpt><trkpt lat="40.313875450835106" lon="8.485002457029433"><ele>78.33333333333333</ele><time>2026-05-02T14:03:39Z</time></trkpt><trkpt lat="40.31380916384737" lon="8.48527837818718"><ele>80.66666666666667</ele><time>2026-05-02T14:03:40Z</time></trkpt><trkpt lat="40.31371856009127" lon="8.485530566793464"><ele>83.0</ele><time>2026-05-02T14:03:41Z</time></trkpt><trkpt lat="40.31361067587595" lon="8.485762376826084"><ele>83.0</ele><time>2026-05-02T14:03:42Z</time></trkpt><trkpt lat="40.31348667848084" lon="8.486004344562078"><ele>83.0</ele><time>2026-05-02T14:03:43Z</time></trkpt><trkpt lat="40.313363161037714" lon="8.486259891823698"><ele>79.5</ele><time>2026-05-02T14:03:44Z</time></trkpt><trkpt lat="40.3132367822151" lon="8.486526844591856"><ele>76.0</ele><time>2026-05-02T14:03:45Z</time></trkpt><trkpt lat="40.31310571586384" lon="8.486797574120132"><ele>77.0</ele><time>2026-05-02T14:03:46Z</time></trkpt><trkpt lat="40.31298078670373" lon="8.487050066576288"><ele>78.0</ele><time>2026-05-02T14:03:47Z</time></trkpt><trkpt lat="40.312861229588904" lon="8.487290761419025"><ele>79.0</ele><time>2026-05-02T14:03:48Z</time></trkpt><trkpt lat="40.31274995528835" lon="8.487517923175758"><ele>79.0</ele><time>2026-05-02T14:03:49Z</time></trkpt><trkpt lat="40.312646024487655" lon="8.487737443803333"><ele>79.0</ele><time>2026-05-02T14:03:50Z</time></trkpt><trkpt lat="40.31253605887563" lon="8.487952460099814"><ele>79.0</ele><time>2026-05-02T14:03:51Z</time></trkpt><trkpt lat="40.31240005301906" lon="8.488143905381271"><ele>78.66666666666666</ele><time>2026-05-02T14:03:52Z</time></trkpt><trkpt lat="40.312241284182164" lon="8.488307237950277"><ele>78.33333333333333</ele><time>2026-05-02T14:03:53Z</time></trkpt><trkpt lat="40.31207616810314" lon="8.488438465247723"><ele>78.0</ele><time>2026-05-02T14:03:54Z</time></trkpt><trkpt lat="40.31192091858449" lon="8.488553940245824"><ele>78.0</ele><time>2026-05-02T14:03:55Z</time></trkpt><trkpt lat="40.31177546051508" lon="8.488636840218991"><ele>78.0</ele><time>2026-05-02T14:03:56Z</time></trkpt><trkpt lat="40.311618054910305" lon="8.488666282119713"><ele>78.0</ele><time>2026-05-02T14:03:57Z</time></trkpt><trkpt lat="40.31143746774382" lon="8.488644211720732"><ele>75.66666666666667</ele><time>2026-05-02T14:03:58Z</time></trkpt><trkpt lat="40.31124602594958" lon="8.488601783450248"><ele>73.33333333333334</ele><time>2026-05-02T14:03:59Z</time></trkpt><trkpt lat="40.311068548289576" lon="8.488572981050899"><ele>71.0</ele><time>2026-05-02T14:04:00Z</time></trkpt><trkpt lat="40.31090515969583" lon="8.488544385676796"><ele>71.0</ele><time>2026-05-02T14:04:01Z</time></trkpt><trkpt lat="40.31075968232374" lon="8.488518211568582"><ele>71.0</ele><time>2026-05-02T14:04:02Z</time></trkpt><trkpt lat="40.31063982119649" lon="8.488433664332359"><ele>71.0</ele><time>2026-05-02T14:04:03Z</time></trkpt><trkpt lat="40.31053120446039" lon="8.488304834512965"><ele>71.0</ele><time>2026-05-02T14:04:04Z</time></trkpt><trkpt lat="40.31041521454004" lon="8.488148410150039"><ele>68.33333333333334</ele><time>2026-05-02T14:04:05Z</time></trkpt><trkpt lat="40.31029384420676" lon="8.487971929802258"><ele>65.66666666666667</ele><time>2026-05-02T14:04:06Z</time></trkpt><trkpt lat="40.310168939024145" lon="8.487786936401255"><ele>63.0</ele><time>2026-05-02T14:04:07Z</time></trkpt><trkpt lat="40.310040662103994" lon="8.487593284799315"><ele>63.0</ele><time>2026-05-02T14:04:08Z</time></trkpt><trkpt lat="40.309901655347986" lon="8.487386839073706"><ele>63.0</ele><time>2026-05-02T14:04:09Z</time></trkpt><trkpt lat="40.309774557209735" lon="8.487196249707557"><ele>63.0</ele><time>2026-05-02T14:04:10Z</time></trkpt><trkpt lat="40.30965109647915" lon="8.487015713344293"><ele>60.0</ele><time>2026-05-02T14:04:11Z</time></trkpt><trkpt lat="40.30952994551238" lon="8.48684517176257"><ele>57.0</ele><time>2026-05-02T14:04:12Z</time></trkpt><trkpt lat="40.30938772767362" lon="8.486696347828603"><ele>54.0</ele><time>2026-05-02T14:04:13Z</time></trkpt><trkpt lat="40.309220708337875" lon="8.486572715169522"><ele>54.0</ele><time>2026-05-02T14:04:14Z</time></trkpt><trkpt lat="40.30904597292334" lon="8.486458856625752"><ele>54.0</ele><time>2026-05-02T14:04:15Z</time></trkpt><trkpt lat="40.308864470828006" lon="8.4863455771619"><ele>54.0</ele><time>2026-05-02T14:04:16Z</time></trkpt><trkpt lat="40.30868900948367" lon="8.48623214745729"><ele>53.66666666666667</ele><time>2026-05-02T14:04:17Z</time></trkpt><trkpt lat="40.30852634491514" lon="8.486125429085236"><ele>53.333333333333336</ele><time>2026-05-02T14:04:18Z</time></trkpt><trkpt lat="40.30836697854749" lon="8.48602767783776"><ele>53.0</ele><time>2026-05-02T14:04:19Z</time></trkpt><trkpt lat="40.30821713574748" lon="8.485932490521545"><ele>46.66666666666667</ele><time>2026-05-02T14:04:20Z</time></trkpt><trkpt lat="40.30807105457203" lon="8.485838353966422"><ele>40.333333333333336</ele><time>2026-05-02T14:04:21Z</time></trkpt><trkpt lat="40.30793729029005" lon="8.485728827652508"><ele>34.0</ele><time>2026-05-02T14:04:22Z</time></trkpt><trkpt lat="40.30783478365569" lon="8.485566026043774"><ele>36.66666666666667</ele><time>2026-05-02T14:04:23Z</time></trkpt><trkpt lat="40.30773734432675" lon="8.48537789593371"><ele>39.333333333333336</ele><time>2026-05-02T14:04:24Z</time></trkpt><trkpt lat="40.30764323215898" lon="8.485171748023198"><ele>42.0</ele><time>2026-05-02T14:04:25Z</time></trkpt><trkpt lat="40.30754622325257" lon="8.484982073203364"><ele>42.0</ele><time>2026-05-02T14:04:26Z</time></trkpt><trkpt lat="40.30743872953273" lon="8.484818773664056"><ele>42.0</ele><time>2026-05-02T14:04:27Z</time></trkpt><trkpt lat="40.307298806333826" lon="8.484700118918147"><ele>42.0</ele><time>2026-05-02T14:04:28Z</time></trkpt><trkpt lat="40.307121207581005" lon="8.484617519806909"><ele>42.0</ele><time>2026-05-02T14:04:29Z</time></trkpt><trkpt lat="40.306915973747614" lon="8.484534380650976"><ele>42.0</ele><time>2026-05-02T14:04:30Z</time></trkpt><trkpt lat="40.30670798585816" lon="8.484444879829642"><ele>42.0</ele><time>2026-05-02T14:04:31Z</time></trkpt><trkpt lat="40.30651195916617" lon="8.48436010434493"><ele>39.333333333333336</ele><time>2026-05-02T14:04:32Z</time></trkpt><trkpt lat="40.306304960284685" lon="8.48428932692773"><ele>36.66666666666667</ele><time>2026-05-02T14:04:33Z</time></trkpt><trkpt lat="40.30608424347354" lon="8.484242106408674"><ele>34.0</ele><time>2026-05-02T14:04:34Z</time></trkpt><trkpt lat="40.30585612413751" lon="8.484196781098403"><ele>34.0</ele><time>2026-05-02T14:04:35Z</time></trkpt><trkpt lat="40.305618680259656" lon="8.48416994646462"><ele>34.0</ele><time>2026-05-02T14:04:36Z</time></trkpt><trkpt lat="40.305390263420655" lon="8.484162691964398"><ele>31.0</ele><time>2026-05-02T14:04:37Z</time></trkpt><trkpt lat="40.3051772552937" lon="8.484137001799109"><ele>28.0</ele><time>2026-05-02T14:04:38Z</time></trkpt><trkpt lat="40.30497764104074" lon="8.484112892941614"><ele>25.0</ele><time>2026-05-02T14:04:39Z</time></trkpt><trkpt lat="40.30479224055268" lon="8.484091661880042"><ele>24.0</ele><time>2026-05-02T14:04:40Z</time></trkpt><trkpt lat="40.30461573638213" lon="8.484074341956891"><ele>23.0</ele><time>2026-05-02T14:04:41Z</time></trkpt><trkpt lat="40.30444818328562" lon="8.484054902390879"><ele>22.0</ele><time>2026-05-02T14:04:42Z</time></trkpt><trkpt lat="40.304279349116506" lon="8.484034499523045"><ele>22.0</ele><time>2026-05-02T14:04:43Z</time></trkpt><trkpt lat="40.30410732018865" lon="8.484016581098862"><ele>22.0</ele><time>2026-05-02T14:04:44Z</time></trkpt><trkpt lat="40.30394506646249" lon="8.484011512647475"><ele>22.0</ele><time>2026-05-02T14:04:45Z</time></trkpt><trkpt lat="40.30377968315041" lon="8.484021687460526"><ele>21.333333333333332</ele><time>2026-05-02T14:04:46Z</time></trkpt><trkpt lat="40.30361116481401" lon="8.484050464096535"><ele>20.666666666666668</ele><time>2026-05-02T14:04:47Z</time></trkpt><trkpt lat="40.30343584934561" lon="8.48406959084353"><ele>20.0</ele><time>2026-05-02T14:04:48Z</time></trkpt><trkpt lat="40.30326424734785" lon="8.484113809398826"><ele>20.0</ele><time>2026-05-02T14:04:49Z</time></trkpt><trkpt lat="40.303090272247616" lon="8.484160191429535"><ele>20.0</ele><time>2026-05-02T14:04:50Z</time></trkpt><trkpt lat="40.30291741208255" lon="8.484228209557227"><ele>20.0</ele><time>2026-05-02T14:04:51Z</time></trkpt><trkpt lat="40.30275286875971" lon="8.484270662882212"><ele>20.333333333333336</ele><time>2026-05-02T14:04:52Z</time></trkpt><trkpt lat="40.30259940492157" lon="8.484327341335778"><ele>20.666666666666668</ele><time>2026-05-02T14:04:53Z</time></trkpt><trkpt lat="40.302450902040604" lon="8.484397802340421"><ele>21.0</ele><time>2026-05-02T14:04:54Z</time></trkpt><trkpt lat="40.302311816808" lon="8.484499541549695"><ele>17.0</ele><time>2026-05-02T14:04:55Z</time></trkpt><trkpt lat="40.30217514491" lon="8.484612616266233"><ele>13.0</ele><time>2026-05-02T14:04:56Z</time></trkpt><trkpt lat="40.30204497589574" lon="8.484725900918539"><ele>9.0</ele><time>2026-05-02T14:04:57Z</time></trkpt><trkpt lat="40.30190545436316" lon="8.484782972840135"><ele>9.0</ele><time>2026-05-02T14:04:58Z</time></trkpt><trkpt lat="40.30176830971135" lon="8.484813112006389"><ele>9.0</ele><time>2026-05-02T14:04:59Z</time></trkpt><trkpt lat="40.30163394259482" lon="8.484826439740251"><ele>9.0</ele><time>2026-05-02T14:05:00Z</time></trkpt><trkpt lat="40.30150082476688" lon="8.48482738903629"><ele>9.0</ele><time>2026-05-02T14:05:01Z</time></trkpt><trkpt lat="40.30136736066895" lon="8.484820835759134"><ele>8.25</ele><time>2026-05-02T14:05:02Z</time></trkpt><trkpt lat="40.30122848185293" lon="8.484815351356"><ele>7.5</ele><time>2026-05-02T14:05:03Z</time></trkpt><trkpt lat="40.30108057173595" lon="8.484809222714512"><ele>6.75</ele><time>2026-05-02T14:05:04Z</time></trkpt><trkpt lat="40.30092684998749" lon="8.484802203113146"><ele>6.0</ele><time>2026-05-02T14:05:05Z</time></trkpt><trkpt lat="40.30076958704281" lon="8.484794338502763"><ele>6.0</ele><time>2026-05-02T14:05:06Z</time></trkpt><trkpt lat="40.300609026596156" lon="8.484787926824877"><ele>6.0</ele><time>2026-05-02T14:05:07Z</time></trkpt><trkpt lat="40.30044448950158" lon="8.484782839411583"><ele>6.0</ele><time>2026-05-02T14:05:08Z</time></trkpt><trkpt lat="40.30027903160887" lon="8.484755414767438"><ele>5.666666666666667</ele><time>2026-05-02T14:05:09Z</time></trkpt><trkpt lat="40.3001202007774" lon="8.48475502914677"><ele>5.333333333333334</ele><time>2026-05-02T14:05:10Z</time></trkpt><trkpt lat="40.2999686668997" lon="8.484756986865621"><ele>5.0</ele><time>2026-05-02T14:05:11Z</time></trkpt><trkpt lat="40.29982659497535" lon="8.484760320111619"><ele>5.0</ele><time>2026-05-02T14:05:12Z</time></trkpt><trkpt lat="40.299696897683134" lon="8.484772607581101"><ele>5.0</ele><time>2026-05-02T14:05:13Z</time></trkpt><trkpt lat="40.29957707126952" lon="8.484781812361872"><ele>5.0</ele><time>2026-05-02T14:05:14Z</time></trkpt><trkpt lat="40.299469135472464" lon="8.484790777315391"><ele>5.0</ele><time>2026-05-02T14:05:15Z</time></trkpt><trkpt lat="40.299366324838076" lon="8.48479941464711"><ele>5.0</ele><time>2026-05-02T14:05:16Z</time></trkpt><trkpt lat="40.29926688350562" lon="8.48480655796858"><ele>5.0</ele><time>2026-05-02T14:05:17Z</time></trkpt><trkpt lat="40.2991665116294" lon="8.4848159137875"><ele>5.0</ele><time>2026-05-02T14:05:18Z</time></trkpt><trkpt lat="40.299064275148304" lon="8.48482418439852"><ele>5.0</ele><time>2026-05-02T14:05:19Z</time></trkpt><trkpt lat="40.2989612020769" lon="8.484828212453841"><ele>5.0</ele><time>2026-05-02T14:05:20Z</time></trkpt><trkpt lat="40.29885742153218" lon="8.484834950728906"><ele>4.6</ele><time>2026-05-02T14:05:21Z</time></trkpt><trkpt lat="40.29875803279023" lon="8.484839389119395"><ele>4.2</ele><time>2026-05-02T14:05:22Z</time></trkpt><trkpt lat="40.29866398621049" lon="8.484847232693586"><ele>3.8</ele><time>2026-05-02T14:05:23Z</time></trkpt><trkpt lat="40.29856879260445" lon="8.484855164599209"><ele>3.4</ele><time>2026-05-02T14:05:24Z</time></trkpt><trkpt lat="40.298475511318486" lon="8.484856827804842"><ele>3.0</ele><time>2026-05-02T14:05:25Z</time></trkpt><trkpt lat="40.29837912511559" lon="8.484862305099995"><ele>3.0</ele><time>2026-05-02T14:05:26Z</time></trkpt><trkpt lat="40.298286816711006" lon="8.484874948252651"><ele>3.0</ele><time>2026-05-02T14:05:27Z</time></trkpt><trkpt lat="40.298186684074594" lon="8.484885793905478"><ele>3.0</ele><time>2026-05-02T14:05:28Z</time></trkpt><trkpt lat="40.298068706628335" lon="8.484896841125066"><ele>3.0</ele><time>2026-05-02T14:05:29Z</time></trkpt><trkpt lat="40.2979383212628" lon="8.484902911532085"><ele>3.0</ele><time>2026-05-02T14:05:30Z</time></trkpt><trkpt lat="40.29780514254585" lon="8.484908146235199"><ele>3.0</ele><time>2026-05-02T14:05:31Z</time></trkpt><trkpt lat="40.297665718316686" lon="8.484917341870778"><ele>3.0</ele><time>2026-05-02T14:05:32Z</time></trkpt><trkpt lat="40.29753728359866" lon="8.48492672114356"><ele>3.0</ele><time>2026-05-02T14:05:33Z</time></trkpt><trkpt lat="40.297420593393504" lon="8.484935353869526"><ele>3.0</ele><time>2026-05-02T14:05:34Z</time></trkpt><trkpt lat="40.29731386104173" lon="8.484925449612623"><ele>3.0</ele><time>2026-05-02T14:05:35Z</time></trkpt><trkpt lat="40.297219427861336" lon="8.484904946101674"><ele>3.0</ele><time>2026-05-02T14:05:36Z</time></trkpt><trkpt lat="40.29714307163304" lon="8.48491007715285"><ele>3.0</ele><time>2026-05-02T14:05:37Z</time></trkpt><trkpt lat="40.297083053925284" lon="8.484937264030396"><ele>3.0</ele><time>2026-05-02T14:05:38Z</time></trkpt><trkpt lat="40.29713478068335" lon="8.485148241492874"><ele>3.0</ele><time>2026-05-02T14:05:40Z</time></trkpt><trkpt lat="40.29715789561957" lon="8.485244824262109"><ele>3.0</ele><time>2026-05-02T14:05:41Z</time></trkpt><trkpt lat="40.29715784564015" lon="8.485372467836878"><ele>3.0</ele><time>2026-05-02T14:05:42Z</time></trkpt><trkpt lat="40.297161963498105" lon="8.485516900414751"><ele>3.0</ele><time>2026-05-02T14:05:43Z</time></trkpt><trkpt lat="40.297166312973516" lon="8.485676693711204"><ele>3.0</ele><time>2026-05-02T14:05:44Z</time></trkpt><trkpt lat="40.29718524231618" lon="8.485840131365036"><ele>3.0</ele><time>2026-05-02T14:05:45Z</time></trkpt><trkpt lat="40.29718709870948" lon="8.486001807756017"><ele>3.0</ele><time>2026-05-02T14:05:46Z</time></trkpt><trkpt lat="40.297191996219645" lon="8.486165077966946"><ele>3.0</ele><time>2026-05-02T14:05:47Z</time></trkpt><trkpt lat="40.29720055838289" lon="8.4863242869967"><ele>3.0</ele><time>2026-05-02T14:05:48Z</time></trkpt><trkpt lat="40.29720859816626" lon="8.486482831780163"><ele>3.0</ele><time>2026-05-02T14:05:49Z</time></trkpt><trkpt lat="40.297199002294555" lon="8.486649909942011"><ele>3.0</ele><time>2026-05-02T14:05:50Z</time></trkpt><trkpt lat="40.297216767413296" lon="8.48680344345502"><ele>3.0</ele><time>2026-05-02T14:05:51Z</time></trkpt><trkpt lat="40.29722397205914" lon="8.486962191762291"><ele>3.0</ele><time>2026-05-02T14:05:52Z</time></trkpt><trkpt lat="40.29722347860435" lon="8.487117905030313"><ele>3.0</ele><time>2026-05-02T14:05:53Z</time></trkpt><trkpt lat="40.29723226280698" lon="8.487272620478379"><ele>3.0</ele><time>2026-05-02T14:05:54Z</time></trkpt><trkpt lat="40.29723465364234" lon="8.487428742859077"><ele>3.0</ele><time>2026-05-02T14:05:55Z</time></trkpt><trkpt lat="40.297243890763276" lon="8.487586856573383"><ele>3.0</ele><time>2026-05-02T14:05:56Z</time></trkpt><trkpt lat="40.29725246572711" lon="8.487745730618238"><ele>3.25</ele><time>2026-05-02T14:05:57Z</time></trkpt><trkpt lat="40.29725712592637" lon="8.487912317462474"><ele>3.5</ele><time>2026-05-02T14:05:58Z</time></trkpt><trkpt lat="40.29726421084428" lon="8.488079143918782"><ele>3.75</ele><time>2026-05-02T14:05:59Z</time></trkpt><trkpt lat="40.2972681246535" lon="8.488248719922641"><ele>4.0</ele><time>2026-05-02T14:06:00Z</time></trkpt><trkpt lat="40.29727310121976" lon="8.488418495297946"><ele>3.75</ele><time>2026-05-02T14:06:01Z</time></trkpt><trkpt lat="40.297278291960474" lon="8.488589592368035"><ele>3.5</ele><time>2026-05-02T14:06:02Z</time></trkpt><trkpt lat="40.297284336369714" lon="8.488761737971762"><ele>3.25</ele><time>2026-05-02T14:06:03Z</time></trkpt><trkpt lat="40.297294378491635" lon="8.48893338959501"><ele>3.0</ele><time>2026-05-02T14:06:04Z</time></trkpt><trkpt lat="40.29730606737091" lon="8.489105867928814"><ele>3.0</ele><time>2026-05-02T14:06:05Z</time></trkpt><trkpt lat="40.297311608024806" lon="8.489279224472007"><ele>3.0</ele><time>2026-05-02T14:06:06Z</time></trkpt><trkpt lat="40.297314987948134" lon="8.489449281935999"><ele>3.0</ele><time>2026-05-02T14:06:07Z</time></trkpt><trkpt lat="40.29732088471037" lon="8.489616280869301"><ele>3.0</ele><time>2026-05-02T14:06:08Z</time></trkpt><trkpt lat="40.29732896827116" lon="8.48977983359038"><ele>3.4</ele><time>2026-05-02T14:06:09Z</time></trkpt><trkpt lat="40.29733844738906" lon="8.489936898959359"><ele>3.8</ele><time>2026-05-02T14:06:10Z</time></trkpt><trkpt lat="40.297345422114034" lon="8.49008460094482"><ele>4.2</ele><time>2026-05-02T14:06:11Z</time></trkpt><trkpt lat="40.29735172719043" lon="8.490191268467582"><ele>4.6</ele><time>2026-05-02T14:06:12Z</time></trkpt><trkpt lat="40.2973399138119" lon="8.49028142550446"><ele>5.0</ele><time>2026-05-02T14:06:13Z</time></trkpt><trkpt lat="40.29734439342387" lon="8.490404012328149"><ele>5.0</ele><time>2026-05-02T14:06:15Z</time></trkpt><trkpt lat="40.29736005651269" lon="8.490504223978022"><ele>5.0</ele><time>2026-05-02T14:06:19Z</time></trkpt><trkpt lat="40.29735596135643" lon="8.490717268482571"><ele>5.0</ele><time>2026-05-02T14:14:49Z</time></trkpt><trkpt lat="40.2973605865613" lon="8.49084132113588"><ele>5.0</ele><time>2026-05-02T14:15:00Z</time></trkpt><trkpt lat="40.29736316719055" lon="8.490945762859809"><ele>5.0</ele><time>2026-05-02T14:15:03Z</time></trkpt><trkpt lat="40.29739511010423" lon="8.491026796845713"><ele>5.0</ele><time>2026-05-02T14:15:04Z</time></trkpt><trkpt lat="40.297392315367006" lon="8.491138216382666"><ele>5.0</ele><time>2026-05-02T14:15:05Z</time></trkpt><trkpt lat="40.297390862348195" lon="8.491251435323548"><ele>5.0</ele><time>2026-05-02T14:15:06Z</time></trkpt><trkpt lat="40.29739618513815" lon="8.491369439913955"><ele>5.0</ele><time>2026-05-02T14:15:07Z</time></trkpt><trkpt lat="40.297402002961135" lon="8.491493372608842"><ele>5.0</ele><time>2026-05-02T14:15:08Z</time></trkpt><trkpt lat="40.297410163702935" lon="8.491622745215487"><ele>5.0</ele><time>2026-05-02T14:15:09Z</time></trkpt><trkpt lat="40.29741546758304" lon="8.49175286915879"><ele>5.0</ele><time>2026-05-02T14:15:10Z</time></trkpt><trkpt lat="40.297394955303574" lon="8.491885391164702"><ele>5.0</ele><time>2026-05-02T14:15:11Z</time></trkpt><trkpt lat="40.29740149894042" lon="8.492013798234535"><ele>5.0</ele><time>2026-05-02T14:15:12Z</time></trkpt><trkpt lat="40.29740610063343" lon="8.49214644053823"><ele>5.0</ele><time>2026-05-02T14:15:13Z</time></trkpt><trkpt lat="40.29740997018097" lon="8.492257979011283"><ele>5.142857142857142</ele><time>2026-05-02T14:15:14Z</time></trkpt><trkpt lat="40.29741337172113" lon="8.492356027358614"><ele>5.285714285714286</ele><time>2026-05-02T14:15:15Z</time></trkpt><trkpt lat="40.29741654206776" lon="8.49244741123064"><ele>5.428571428571429</ele><time>2026-05-02T14:15:16Z</time></trkpt><trkpt lat="40.29742011992788" lon="8.492537129189664"><ele>5.571428571428571</ele><time>2026-05-02T14:15:17Z</time></trkpt><trkpt lat="40.297423114842246" lon="8.492627530081522"><ele>5.714285714285714</ele><time>2026-05-02T14:15:18Z</time></trkpt><trkpt lat="40.29742603650501" lon="8.49271571980853"><ele>5.857142857142857</ele><time>2026-05-02T14:15:19Z</time></trkpt><trkpt lat="40.297429088865684" lon="8.492807854118656"><ele>6.0</ele><time>2026-05-02T14:15:20Z</time></trkpt><trkpt lat="40.29743303353377" lon="8.492903938580449"><ele>5.833333333333333</ele><time>2026-05-02T14:15:21Z</time></trkpt><trkpt lat="40.29743672424982" lon="8.493006921482856"><ele>5.666666666666667</ele><time>2026-05-02T14:15:22Z</time></trkpt><trkpt lat="40.29744051863213" lon="8.493115772423172"><ele>5.5</ele><time>2026-05-02T14:15:23Z</time></trkpt><trkpt lat="40.29745852137494" lon="8.493219625548782"><ele>5.333333333333334</ele><time>2026-05-02T14:15:24Z</time></trkpt><trkpt lat="40.29746256290538" lon="8.493345401324255"><ele>5.166666666666667</ele><time>2026-05-02T14:15:25Z</time></trkpt><trkpt lat="40.297452403601504" lon="8.493455367526238"><ele>5.0</ele><time>2026-05-02T14:15:26Z</time></trkpt><trkpt lat="40.29745626624509" lon="8.49356265068433"><ele>5.0</ele><time>2026-05-02T14:15:27Z</time></trkpt><trkpt lat="40.297459388652705" lon="8.493659207818217"><ele>5.0</ele><time>2026-05-02T14:15:28Z</time></trkpt><trkpt lat="40.29746232692558" lon="8.493746675104374"><ele>5.0</ele><time>2026-05-02T14:15:29Z</time></trkpt><trkpt lat="40.29746585025202" lon="8.493835259345708"><ele>5.0</ele><time>2026-05-02T14:15:30Z</time></trkpt><trkpt lat="40.297485483061266" lon="8.493930524763439"><ele>5.0</ele><time>2026-05-02T14:15:31Z</time></trkpt><trkpt lat="40.29748701501054" lon="8.494031944199413"><ele>5.0</ele><time>2026-05-02T14:15:32Z</time></trkpt><trkpt lat="40.29748828330004" lon="8.494139185212685"><ele>5.0</ele><time>2026-05-02T14:15:33Z</time></trkpt><trkpt lat="40.29749443614308" lon="8.494253713594425"><ele>5.0</ele><time>2026-05-02T14:15:34Z</time></trkpt><trkpt lat="40.29749914939176" lon="8.494367279585724"><ele>5.0</ele><time>2026-05-02T14:15:35Z</time></trkpt><trkpt lat="40.29750560600294" lon="8.49448626713734"><ele>5.0</ele><time>2026-05-02T14:15:36Z</time></trkpt><trkpt lat="40.29751023217431" lon="8.494608735172985"><ele>5.0</ele><time>2026-05-02T14:15:37Z</time></trkpt><trkpt lat="40.29751022325459" lon="8.494720417075191"><ele>5.0</ele><time>2026-05-02T14:15:38Z</time></trkpt><trkpt lat="40.29748271812335" lon="8.494813486313259"><ele>5.0</ele><time>2026-05-02T14:15:39Z</time></trkpt><trkpt lat="40.29746490841268" lon="8.494901509296655"><ele>5.0</ele><time>2026-05-02T14:15:40Z</time></trkpt><trkpt lat="40.297437189619025" lon="8.495016295583627"><ele>5.0</ele><time>2026-05-02T14:15:42Z</time></trkpt><trkpt lat="40.297567619256114" lon="8.495092588634218"><ele>5.0</ele><time>2026-05-02T14:15:43Z</time></trkpt><trkpt lat="40.297672548580586" lon="8.495131986828783"><ele>5.0</ele><time>2026-05-02T14:15:45Z</time></trkpt><trkpt lat="40.29773457166839" lon="8.495151711219954"><ele>5.0</ele><time>2026-05-02T14:15:46Z</time></trkpt><trkpt lat="40.29780391673922" lon="8.495178192310227"><ele>5.0</ele><time>2026-05-02T14:15:47Z</time></trkpt><trkpt lat="40.29787856424969" lon="8.495205209858451"><ele>5.0</ele><time>2026-05-02T14:15:48Z</time></trkpt><trkpt lat="40.29795631689631" lon="8.495237686424439"><ele>5.0</ele><time>2026-05-02T14:15:49Z</time></trkpt><trkpt lat="40.298034407573624" lon="8.495271478383781"><ele>5.0</ele><time>2026-05-02T14:15:50Z</time></trkpt><trkpt lat="40.298109371628414" lon="8.495303110292316"><ele>5.0</ele><time>2026-05-02T14:15:51Z</time></trkpt><trkpt lat="40.29817060359079" lon="8.495335230141258"><ele>5.0</ele><time>2026-05-02T14:15:52Z</time></trkpt><trkpt lat="40.29826267116" lon="8.495374992536016"><ele>5.2</ele><time>2026-05-02T14:15:54Z</time></trkpt><trkpt lat="40.29832131220288" lon="8.49540836171651"><ele>5.4</ele><time>2026-05-02T14:15:57Z</time></trkpt><trkpt lat="40.29838005012608" lon="8.495469280065032"><ele>5.6</ele><time>2026-05-02T14:16:17Z</time></trkpt><trkpt lat="40.2983515611394" lon="8.495602794493527"><ele>5.8</ele><time>2026-05-02T14:16:19Z</time></trkpt><trkpt lat="40.29830817291062" lon="8.495761693423479"><ele>6.0</ele><time>2026-05-02T14:16:21Z</time></trkpt><trkpt lat="40.298274977422224" lon="8.495898834377357"><ele>6.0</ele><time>2026-05-02T14:16:23Z</time></trkpt><trkpt lat="40.29825007998163" lon="8.496030379280613"><ele>6.0</ele><time>2026-05-02T14:16:26Z</time></trkpt><trkpt lat="40.29823175211415" lon="8.49612400053855"><ele>6.0</ele><time>2026-05-02T14:16:27Z</time></trkpt><trkpt lat="40.298205846863524" lon="8.496216708974723"><ele>6.0</ele><time>2026-05-02T14:16:28Z</time></trkpt><trkpt lat="40.298175562379846" lon="8.496326423919845"><ele>6.0</ele><time>2026-05-02T14:16:29Z</time></trkpt><trkpt lat="40.29814454313951" lon="8.496446953306796"><ele>6.0</ele><time>2026-05-02T14:16:30Z</time></trkpt><trkpt lat="40.29811261713853" lon="8.49657377003732"><ele>6.0</ele><time>2026-05-02T14:16:31Z</time></trkpt><trkpt lat="40.298083323143025" lon="8.496693682478389"><ele>6.0</ele><time>2026-05-02T14:16:32Z</time></trkpt><trkpt lat="40.298053001168924" lon="8.496815899673985"><ele>6.0</ele><time>2026-05-02T14:16:33Z</time></trkpt><trkpt lat="40.29802565049141" lon="8.496931091232806"><ele>6.0</ele><time>2026-05-02T14:16:34Z</time></trkpt><trkpt lat="40.29799690897664" lon="8.497046225728566"><ele>6.0</ele><time>2026-05-02T14:16:35Z</time></trkpt><trkpt lat="40.29796790003423" lon="8.497162834206547"><ele>6.0</ele><time>2026-05-02T14:16:36Z</time></trkpt><trkpt lat="40.297941851203234" lon="8.497276015531655"><ele>6.0</ele><time>2026-05-02T14:16:37Z</time></trkpt><trkpt lat="40.297912191876556" lon="8.497389696451032"><ele>6.0</ele><time>2026-05-02T14:16:38Z</time></trkpt><trkpt lat="40.29788067408056" lon="8.497499347165224"><ele>6.0</ele><time>2026-05-02T14:16:39Z</time></trkpt><trkpt lat="40.297850747416724" lon="8.497612063389305"><ele>6.0</ele><time>2026-05-02T14:16:40Z</time></trkpt><trkpt lat="40.297821442791175" lon="8.497727017483538"><ele>6.0</ele><time>2026-05-02T14:16:41Z</time></trkpt><trkpt lat="40.29779202076275" lon="8.497837731074174"><ele>6.0</ele><time>2026-05-02T14:16:42Z</time></trkpt><trkpt lat="40.29776851038242" lon="8.497938101783188"><ele>6.0</ele><time>2026-05-02T14:16:43Z</time></trkpt><trkpt lat="40.29774319134768" lon="8.49802003075676"><ele>6.0</ele><time>2026-05-02T14:16:44Z</time></trkpt><trkpt lat="40.29769604062467" lon="8.498157794864586"><ele>6.0</ele><time>2026-05-02T14:16:46Z</time></trkpt><trkpt lat="40.297675280926875" lon="8.49831127236869"><ele>6.166666666666667</ele><time>2026-05-02T14:16:48Z</time></trkpt><trkpt lat="40.297639683500115" lon="8.498399077700503"><ele>6.333333333333334</ele><time>2026-05-02T14:16:49Z</time></trkpt><trkpt lat="40.297629809232255" lon="8.498509094338075"><ele>6.5</ele><time>2026-05-02T14:16:50Z</time></trkpt><trkpt lat="40.297610555637064" lon="8.498622245484459"><ele>6.666666666666667</ele><time>2026-05-02T14:16:51Z</time></trkpt><trkpt lat="40.29758292694727" lon="8.498740918172478"><ele>6.833333333333334</ele><time>2026-05-02T14:16:52Z</time></trkpt><trkpt lat="40.29754662687447" lon="8.498866244396847"><ele>7.0</ele><time>2026-05-02T14:16:53Z</time></trkpt><trkpt lat="40.29751279600699" lon="8.498992578122666"><ele>7.0</ele><time>2026-05-02T14:16:54Z</time></trkpt><trkpt lat="40.29748297353634" lon="8.499124691525394"><ele>6.999999999999999</ele><time>2026-05-02T14:16:55Z</time></trkpt><trkpt lat="40.29745462848157" lon="8.499259926910483"><ele>6.999999999999999</ele><time>2026-05-02T14:16:56Z</time></trkpt><trkpt lat="40.29742232075217" lon="8.499386979319295"><ele>7.0</ele><time>2026-05-02T14:16:57Z</time></trkpt><trkpt lat="40.297391549940585" lon="8.499503809458949"><ele>7.0</ele><time>2026-05-02T14:16:58Z</time></trkpt><trkpt lat="40.29736330210044" lon="8.499622701255314"><ele>7.000000000000001</ele><time>2026-05-02T14:16:59Z</time></trkpt><trkpt lat="40.297335356725625" lon="8.499736815655195"><ele>7.0</ele><time>2026-05-02T14:17:00Z</time></trkpt><trkpt lat="40.29730813703869" lon="8.499846856779047"><ele>7.0</ele><time>2026-05-02T14:17:01Z</time></trkpt><trkpt lat="40.29728049721733" lon="8.499954515512284"><ele>7.0</ele><time>2026-05-02T14:17:02Z</time></trkpt><trkpt lat="40.29725250581759" lon="8.500062720856132"><ele>7.000000000000001</ele><time>2026-05-02T14:17:03Z</time></trkpt><trkpt lat="40.29722572623504" lon="8.500166260877924"><ele>7.0</ele><time>2026-05-02T14:17:04Z</time></trkpt><trkpt lat="40.297203528856215" lon="8.500259768057756"><ele>7.166666666666667</ele><time>2026-05-02T14:17:05Z</time></trkpt><trkpt lat="40.29715400745958" lon="8.500393660360054"><ele>7.333333333333334</ele><time>2026-05-02T14:17:07Z</time></trkpt><trkpt lat="40.29706218634848" lon="8.500459531121747"><ele>7.5</ele><time>2026-05-02T14:17:09Z</time></trkpt><trkpt lat="40.296998830783764" lon="8.500481791700173"><ele>7.666666666666666</ele><time>2026-05-02T14:17:10Z</time></trkpt><trkpt lat="40.29693064649381" lon="8.50050818639894"><ele>7.833333333333333</ele><time>2026-05-02T14:17:11Z</time></trkpt><trkpt lat="40.29684892242043" lon="8.500529957425936"><ele>8.0</ele><time>2026-05-02T14:17:12Z</time></trkpt><trkpt lat="40.296770015033964" lon="8.500498644965472"><ele>8.0</ele><time>2026-05-02T14:17:13Z</time></trkpt><trkpt lat="40.29670429860941" lon="8.500461246925349"><ele>8.0</ele><time>2026-05-02T14:17:21Z</time></trkpt><trkpt lat="40.29661397451691" lon="8.500433401327788"><ele>8.0</ele><time>2026-05-02T14:17:23Z</time></trkpt><trkpt lat="40.296497599793454" lon="8.50039516086807"><ele>8.0</ele><time>2026-05-02T14:17:25Z</time></trkpt><trkpt lat="40.29639625240049" lon="8.500338810269875"><ele>8.0</ele><time>2026-05-02T14:17:27Z</time></trkpt><trkpt lat="40.296337047895165" lon="8.500304907406623"><ele>7.7142857142857135</ele><time>2026-05-02T14:17:29Z</time></trkpt><trkpt lat="40.296350991392536" lon="8.500213561863054"><ele>7.428571428571428</ele><time>2026-05-02T14:39:04Z</time></trkpt><trkpt lat="40.296318582245455" lon="8.50028606053402"><ele>7.142857142857142</ele><time>2026-05-02T14:39:08Z</time></trkpt><trkpt lat="40.29624427541933" lon="8.500273437844418"><ele>6.857142857142857</ele><time>2026-05-02T14:43:26Z</time></trkpt><trkpt lat="40.296179811387205" lon="8.500229168168993"><ele>6.571428571428571</ele><time>2026-05-02T14:43:30Z</time></trkpt><trkpt lat="40.29611253233394" lon="8.500202476707651"><ele>6.285714285714285</ele><time>2026-05-02T14:43:35Z</time></trkpt><trkpt lat="40.29602268779476" lon="8.50019103775995"><ele>6.0</ele><time>2026-05-02T14:44:32Z</time></trkpt><trkpt lat="40.295931299124895" lon="8.500154090886447"><ele>6.0</ele><time>2026-05-02T14:44:34Z</time></trkpt><trkpt lat="40.29582039155545" lon="8.500105130352415"><ele>6.0</ele><time>2026-05-02T14:44:36Z</time></trkpt><trkpt lat="40.29571843338161" lon="8.500049447388607"><ele>6.0</ele><time>2026-05-02T14:44:38Z</time></trkpt><trkpt lat="40.29563175803199" lon="8.500021051194459"><ele>6.0</ele><time>2026-05-02T14:44:40Z</time></trkpt><trkpt lat="40.295541021646784" lon="8.499984743778379"><ele>6.0</ele><time>2026-05-02T14:44:42Z</time></trkpt><trkpt lat="40.29547685520267" lon="8.499941742132094"><ele>5.833333333333333</ele><time>2026-05-02T14:44:44Z</time></trkpt><trkpt lat="40.295410992173196" lon="8.49998365492612"><ele>5.666666666666667</ele><time>2026-05-02T14:44:47Z</time></trkpt><trkpt lat="40.295389936433054" lon="8.500119645468992"><ele>5.5</ele><time>2026-05-02T14:44:49Z</time></trkpt><trkpt lat="40.295374523755" lon="8.50022800545367"><ele>5.333333333333334</ele><time>2026-05-02T14:44:50Z</time></trkpt><trkpt lat="40.29532666005607" lon="8.50029612460326"><ele>5.166666666666667</ele><time>2026-05-02T14:44:51Z</time></trkpt><trkpt lat="40.2953018258726" lon="8.50041903233833"><ele>5.0</ele><time>2026-05-02T14:44:53Z</time></trkpt><trkpt lat="40.295284035013886" lon="8.500518424899363"><ele>5.0</ele><time>2026-05-02T14:44:55Z</time></trkpt><trkpt lat="40.29526443864249" lon="8.500638652122497"><ele>5.0</ele><time>2026-05-02T14:44:57Z</time></trkpt><trkpt lat="40.29525111430728" lon="8.50072671964162"><ele>5.0</ele><time>2026-05-02T14:44:58Z</time></trkpt><trkpt lat="40.29523598985259" lon="8.500826685049779"><ele>5.0</ele><time>2026-05-02T14:44:59Z</time></trkpt><trkpt lat="40.29521971197397" lon="8.500934273546154"><ele>5.0</ele><time>2026-05-02T14:45:00Z</time></trkpt><trkpt lat="40.29520399710341" lon="8.50104635278662"><ele>5.0</ele><time>2026-05-02T14:45:01Z</time></trkpt><trkpt lat="40.29518836120593" lon="8.50115455816559"><ele>5.0</ele><time>2026-05-02T14:45:02Z</time></trkpt><trkpt lat="40.2951903909936" lon="8.501246281964344"><ele>5.0</ele><time>2026-05-02T14:45:03Z</time></trkpt><trkpt lat="40.29516776078923" lon="8.501392275746447"><ele>5.0</ele><time>2026-05-02T14:45:05Z</time></trkpt><trkpt lat="40.29514640500679" lon="8.501535054103572"><ele>5.0</ele><time>2026-05-02T14:45:07Z</time></trkpt><trkpt lat="40.29510691381336" lon="8.501688225230717"><ele>5.0</ele><time>2026-05-02T14:45:09Z</time></trkpt><trkpt lat="40.295109393953275" lon="8.501779923825241"><ele>5.0</ele><time>2026-05-02T14:45:10Z</time></trkpt><trkpt lat="40.295094000366404" lon="8.501872039327464"><ele>5.0</ele><time>2026-05-02T14:45:11Z</time></trkpt><trkpt lat="40.295078082901654" lon="8.501964735384664"><ele>5.0</ele><time>2026-05-02T14:45:12Z</time></trkpt><trkpt lat="40.29506384382745" lon="8.502064115973514"><ele>5.0</ele><time>2026-05-02T14:45:13Z</time></trkpt><trkpt lat="40.29504747384119" lon="8.502166374625983"><ele>5.0</ele><time>2026-05-02T14:45:14Z</time></trkpt><trkpt lat="40.295031044916676" lon="8.502272268374206"><ele>5.0</ele><time>2026-05-02T14:45:15Z</time></trkpt><trkpt lat="40.295017693656405" lon="8.502372050678872"><ele>5.6</ele><time>2026-05-02T14:45:16Z</time></trkpt><trkpt lat="40.294999907393034" lon="8.502453432394255"><ele>6.2</ele><time>2026-05-02T14:45:17Z</time></trkpt><trkpt lat="40.29497913796184" lon="8.50260435353262"><ele>6.800000000000001</ele><time>2026-05-02T14:45:19Z</time></trkpt><trkpt lat="40.29496396866868" lon="8.502752367254732"><ele>7.4</ele><time>2026-05-02T14:45:21Z</time></trkpt><trkpt lat="40.29495739315279" lon="8.502865856317658"><ele>8.0</ele><time>2026-05-02T14:45:22Z</time></trkpt><trkpt lat="40.29494646553867" lon="8.5029890762937"><ele>8.166666666666666</ele><time>2026-05-02T14:45:23Z</time></trkpt><trkpt lat="40.29493435927013" lon="8.503104728421702"><ele>8.333333333333332</ele><time>2026-05-02T14:45:24Z</time></trkpt><trkpt lat="40.29494019277182" lon="8.503191527004596"><ele>8.5</ele><time>2026-05-02T14:45:25Z</time></trkpt><trkpt lat="40.29494126054502" lon="8.503307448572231"><ele>8.666666666666666</ele><time>2026-05-02T14:45:27Z</time></trkpt><trkpt lat="40.294925999792895" lon="8.503398341751792"><ele>8.833333333333334</ele><time>2026-05-02T14:45:30Z</time></trkpt><trkpt lat="40.29490524105749" lon="8.503484048255029"><ele>9.0</ele><time>2026-05-02T14:45:33Z</time></trkpt><trkpt lat="40.29487625542503" lon="8.503572417461767"><ele>9.0</ele><time>2026-05-02T14:46:04Z</time></trkpt><trkpt lat="40.29477188773549" lon="8.503574262323912"><ele>9.0</ele><time>2026-05-02T14:46:06Z</time></trkpt><trkpt lat="40.29470792692343" lon="8.503566997656863"><ele>9.0</ele><time>2026-05-02T14:46:07Z</time></trkpt><trkpt lat="40.29458263280522" lon="8.503552766690527"><ele>9.0</ele><time>2026-05-02T14:46:09Z</time></trkpt><trkpt lat="40.29446161723739" lon="8.503541962293905"><ele>9.0</ele><time>2026-05-02T14:46:11Z</time></trkpt><trkpt lat="40.294396043166515" lon="8.503536973679532"><ele>8.666666666666666</ele><time>2026-05-02T14:46:12Z</time></trkpt><trkpt lat="40.29428138900953" lon="8.50352220123757"><ele>8.333333333333334</ele><time>2026-05-02T14:46:14Z</time></trkpt><trkpt lat="40.294211356614596" lon="8.503509176989418"><ele>8.0</ele><time>2026-05-02T14:46:15Z</time></trkpt><trkpt lat="40.29413586074555" lon="8.503492024763634"><ele>7.666666666666667</ele><time>2026-05-02T14:46:16Z</time></trkpt><trkpt lat="40.29406126675704" lon="8.503478405626362"><ele>7.333333333333334</ele><time>2026-05-02T14:46:17Z</time></trkpt><trkpt lat="40.2939789500187" lon="8.503469187343565"><ele>7.0</ele><time>2026-05-02T14:46:18Z</time></trkpt><trkpt lat="40.29389153494016" lon="8.503458774814755"><ele>7.0</ele><time>2026-05-02T14:46:19Z</time></trkpt><trkpt lat="40.29380187370871" lon="8.503449183291522"><ele>6.999999999999999</ele><time>2026-05-02T14:46:20Z</time></trkpt><trkpt lat="40.293707139589635" lon="8.503440293795906"><ele>6.999999999999999</ele><time>2026-05-02T14:46:21Z</time></trkpt><trkpt lat="40.293611096200685" lon="8.503431101931858"><ele>7.0</ele><time>2026-05-02T14:46:22Z</time></trkpt><trkpt lat="40.29351896084988" lon="8.503424902386183"><ele>7.0</ele><time>2026-05-02T14:46:23Z</time></trkpt><trkpt lat="40.29342513211097" lon="8.503418997244731"><ele>7.0</ele><time>2026-05-02T14:46:24Z</time></trkpt><trkpt lat="40.293331994070535" lon="8.503408980248878"><ele>6.999999999999999</ele><time>2026-05-02T14:46:25Z</time></trkpt><trkpt lat="40.29324100028479" lon="8.503401771924938"><ele>6.999999999999999</ele><time>2026-05-02T14:46:26Z</time></trkpt><trkpt lat="40.29314471186395" lon="8.503393014827054"><ele>7.0</ele><time>2026-05-02T14:46:27Z</time></trkpt><trkpt lat="40.29304218497354" lon="8.503385232926851"><ele>7.0</ele><time>2026-05-02T14:46:28Z</time></trkpt><trkpt lat="40.29293318568527" lon="8.50337768115926"><ele>6.5</ele><time>2026-05-02T14:46:29Z</time></trkpt><trkpt lat="40.292820971796864" lon="8.503370906318207"><ele>6.0</ele><time>2026-05-02T14:46:30Z</time></trkpt><trkpt lat="40.29270370370902" lon="8.503363250806974"><ele>5.5</ele><time>2026-05-02T14:46:31Z</time></trkpt><trkpt lat="40.29258261877645" lon="8.503356079365734"><ele>5.0</ele><time>2026-05-02T14:46:32Z</time></trkpt><trkpt lat="40.292459518984536" lon="8.50334581696911"><ele>5.0</ele><time>2026-05-02T14:46:33Z</time></trkpt><trkpt lat="40.29233594951186" lon="8.503331313849504"><ele>5.0</ele><time>2026-05-02T14:46:34Z</time></trkpt><trkpt lat="40.292210810557656" lon="8.503315418061973"><ele>5.0</ele><time>2026-05-02T14:46:35Z</time></trkpt><trkpt lat="40.29208577820895" lon="8.503302681540053"><ele>5.0</ele><time>2026-05-02T14:46:36Z</time></trkpt><trkpt lat="40.29195825828975" lon="8.503292968195408"><ele>5.0</ele><time>2026-05-02T14:46:37Z</time></trkpt><trkpt lat="40.291832292529136" lon="8.50328431481133"><ele>5.0</ele><time>2026-05-02T14:46:38Z</time></trkpt><trkpt lat="40.29170674727721" lon="8.503276235664991"><ele>5.0</ele><time>2026-05-02T14:46:39Z</time></trkpt><trkpt lat="40.291583188660034" lon="8.503266907145626"><ele>5.0</ele><time>2026-05-02T14:46:40Z</time></trkpt><trkpt lat="40.29146102295824" lon="8.503266099947346"><ele>5.25</ele><time>2026-05-02T14:46:41Z</time></trkpt><trkpt lat="40.2913374716567" lon="8.503269178215316"><ele>5.5</ele><time>2026-05-02T14:46:42Z</time></trkpt><trkpt lat="40.29120643082975" lon="8.503268886686302"><ele>5.75</ele><time>2026-05-02T14:46:43Z</time></trkpt><trkpt lat="40.29107843480608" lon="8.503261947891849"><ele>6.0</ele><time>2026-05-02T14:46:44Z</time></trkpt><trkpt lat="40.290945113365865" lon="8.503250546612872"><ele>6.0</ele><time>2026-05-02T14:46:45Z</time></trkpt><trkpt lat="40.290806005165294" lon="8.50324452008632"><ele>6.0</ele><time>2026-05-02T14:46:46Z</time></trkpt><trkpt lat="40.29066014793148" lon="8.503254273196742"><ele>6.0</ele><time>2026-05-02T14:46:47Z</time></trkpt><trkpt lat="40.290519457333154" lon="8.503295539945512"><ele>6.0</ele><time>2026-05-02T14:46:48Z</time></trkpt><trkpt lat="40.29038086375714" lon="8.503357405646051"><ele>7.75</ele><time>2026-05-02T14:46:49Z</time></trkpt><trkpt lat="40.290261243171216" lon="8.50345056504865"><ele>9.5</ele><time>2026-05-02T14:46:50Z</time></trkpt><trkpt lat="40.2901497296402" lon="8.503567226784154"><ele>11.25</ele><time>2026-05-02T14:46:51Z</time></trkpt><trkpt lat="40.29005211361248" lon="8.503704364906184"><ele>13.0</ele><time>2026-05-02T14:46:52Z</time></trkpt><trkpt lat="40.28996636836937" lon="8.503852021554062"><ele>13.0</ele><time>2026-05-02T14:46:53Z</time></trkpt><trkpt lat="40.28989620536308" lon="8.504009181021425"><ele>13.0</ele><time>2026-05-02T14:46:54Z</time></trkpt><trkpt lat="40.28983712472711" lon="8.50417544969642"><ele>13.0</ele><time>2026-05-02T14:46:55Z</time></trkpt><trkpt lat="40.28978520589096" lon="8.50432231479802"><ele>13.0</ele><time>2026-05-02T14:46:56Z</time></trkpt><trkpt lat="40.28973200611751" lon="8.504476886163026"><ele>17.25</ele><time>2026-05-02T14:46:57Z</time></trkpt><trkpt lat="40.28968042543329" lon="8.504621507663083"><ele>21.5</ele><time>2026-05-02T14:46:58Z</time></trkpt><trkpt lat="40.2896295460061" lon="8.504766675769961"><ele>25.75</ele><time>2026-05-02T14:46:59Z</time></trkpt><trkpt lat="40.289579071460345" lon="8.50491491282824"><ele>30.0</ele><time>2026-05-02T14:47:00Z</time></trkpt><trkpt lat="40.28953506699618" lon="8.505066709965387"><ele>30.0</ele><time>2026-05-02T14:47:01Z</time></trkpt><trkpt lat="40.28950024071445" lon="8.505222551729586"><ele>30.0</ele><time>2026-05-02T14:47:02Z</time></trkpt><trkpt lat="40.289477963420886" lon="8.505380706275245"><ele>30.0</ele><time>2026-05-02T14:47:03Z</time></trkpt><trkpt lat="40.289462769174726" lon="8.505544966980315"><ele>30.0</ele><time>2026-05-02T14:47:04Z</time></trkpt><trkpt lat="40.28944745281332" lon="8.505705595061917"><ele>30.0</ele><time>2026-05-02T14:47:05Z</time></trkpt><trkpt lat="40.28942819640986" lon="8.505853428996685"><ele>30.0</ele><time>2026-05-02T14:47:06Z</time></trkpt><trkpt lat="40.2893982853116" lon="8.505984027815177"><ele>30.0</ele><time>2026-05-02T14:47:07Z</time></trkpt><trkpt lat="40.28934003641536" lon="8.506087602601598"><ele>30.0</ele><time>2026-05-02T14:47:08Z</time></trkpt><trkpt lat="40.28925913166959" lon="8.506152758295752"><ele>30.0</ele><time>2026-05-02T14:47:09Z</time></trkpt><trkpt lat="40.28916473475764" lon="8.506180753126216"><ele>30.0</ele><time>2026-05-02T14:47:10Z</time></trkpt><trkpt lat="40.289061864590856" lon="8.506152157975613"><ele>30.0</ele><time>2026-05-02T14:47:11Z</time></trkpt><trkpt lat="40.28897198692891" lon="8.506071669042312"><ele>30.0</ele><time>2026-05-02T14:47:12Z</time></trkpt><trkpt lat="40.288914939339854" lon="8.505969512929932"><ele>30.0</ele><time>2026-05-02T14:47:13Z</time></trkpt><trkpt lat="40.288891162014835" lon="8.505844275470379"><ele>30.0</ele><time>2026-05-02T14:47:14Z</time></trkpt><trkpt lat="40.288901425517416" lon="8.505712704687248"><ele>30.0</ele><time>2026-05-02T14:47:15Z</time></trkpt><trkpt lat="40.28891237680786" lon="8.505582333142396"><ele>30.0</ele><time>2026-05-02T14:47:16Z</time></trkpt><trkpt lat="40.288924660002046" lon="8.50543843914231"><ele>30.0</ele><time>2026-05-02T14:47:17Z</time></trkpt><trkpt lat="40.28892997694138" lon="8.505293821014906"><ele>30.0</ele><time>2026-05-02T14:47:18Z</time></trkpt><trkpt lat="40.28892805435092" lon="8.505142434598813"><ele>30.0</ele><time>2026-05-02T14:47:19Z</time></trkpt><trkpt lat="40.28892297679231" lon="8.504989190584885"><ele>33.5</ele><time>2026-05-02T14:47:20Z</time></trkpt><trkpt lat="40.28891838697346" lon="8.50484022914129"><ele>37.0</ele><time>2026-05-02T14:47:21Z</time></trkpt><trkpt lat="40.288915737913364" lon="8.504694190719158"><ele>40.5</ele><time>2026-05-02T14:47:22Z</time></trkpt><trkpt lat="40.28891260313939" lon="8.504543775057943"><ele>44.0</ele><time>2026-05-02T14:47:23Z</time></trkpt><trkpt lat="40.28890738313872" lon="8.504383970559795"><ele>44.25</ele><time>2026-05-02T14:47:24Z</time></trkpt><trkpt lat="40.28890272301162" lon="8.504208551444592"><ele>44.5</ele><time>2026-05-02T14:47:25Z</time></trkpt><trkpt lat="40.28889669285567" lon="8.504021376100322"><ele>44.75</ele><time>2026-05-02T14:47:26Z</time></trkpt><trkpt lat="40.28889591821933" lon="8.503819771524274"><ele>45.0</ele><time>2026-05-02T14:47:27Z</time></trkpt><trkpt lat="40.2888919934645" lon="8.503635504263132"><ele>47.25</ele><time>2026-05-02T14:47:28Z</time></trkpt><trkpt lat="40.28888410927568" lon="8.503478435399606"><ele>49.5</ele><time>2026-05-02T14:47:29Z</time></trkpt><trkpt lat="40.288877053247695" lon="8.503319624190397"><ele>51.75</ele><time>2026-05-02T14:47:30Z</time></trkpt><trkpt lat="40.28886690878291" lon="8.503173386104192"><ele>54.0</ele><time>2026-05-02T14:47:31Z</time></trkpt><trkpt lat="40.2888708472535" lon="8.503046649004435"><ele>54.0</ele><time>2026-05-02T14:47:32Z</time></trkpt><trkpt lat="40.28885714522151" lon="8.502924008615407"><ele>54.0</ele><time>2026-05-02T14:47:33Z</time></trkpt><trkpt lat="40.28883319123473" lon="8.502820502685994"><ele>54.0</ele><time>2026-05-02T14:47:34Z</time></trkpt><trkpt lat="40.288807255151795" lon="8.502734372505282"><ele>54.0</ele><time>2026-05-02T14:47:35Z</time></trkpt><trkpt lat="40.28876202154777" lon="8.502663733675705"><ele>54.0</ele><time>2026-05-02T14:47:36Z</time></trkpt><trkpt lat="40.28869914975202" lon="8.502620805763742"><ele>54.0</ele><time>2026-05-02T14:47:37Z</time></trkpt><trkpt lat="40.28862930165758" lon="8.502629170134789"><ele>54.0</ele><time>2026-05-02T14:47:38Z</time></trkpt><trkpt lat="40.28855843426365" lon="8.50266511266483"><ele>54.0</ele><time>2026-05-02T14:47:39Z</time></trkpt><trkpt lat="40.288531045419795" lon="8.502763879617435"><ele>54.0</ele><time>2026-05-02T14:47:40Z</time></trkpt><trkpt lat="40.28852391324005" lon="8.502865035679802"><ele>54.0</ele><time>2026-05-02T14:47:41Z</time></trkpt><trkpt lat="40.28852864581716" lon="8.502986059800802"><ele>54.0</ele><time>2026-05-02T14:47:42Z</time></trkpt><trkpt lat="40.28851595775148" lon="8.50312233170607"><ele>54.0</ele><time>2026-05-02T14:47:43Z</time></trkpt><trkpt lat="40.28847855036547" lon="8.503251064906381"><ele>54.0</ele><time>2026-05-02T14:47:44Z</time></trkpt><trkpt lat="40.288419926041335" lon="8.50336755953328"><ele>54.0</ele><time>2026-05-02T14:47:45Z</time></trkpt><trkpt lat="40.28833089559924" lon="8.503486173194707"><ele>54.0</ele><time>2026-05-02T14:47:46Z</time></trkpt><trkpt lat="40.28819571862224" lon="8.503576452722978"><ele>54.0</ele><time>2026-05-02T14:47:47Z</time></trkpt><trkpt lat="40.28806866427322" lon="8.503700521232844"><ele>59.0</ele><time>2026-05-02T14:47:48Z</time></trkpt><trkpt lat="40.28795296784219" lon="8.503843252343396"><ele>64.0</ele><time>2026-05-02T14:47:49Z</time></trkpt><trkpt lat="40.287829595686055" lon="8.50397695503644"><ele>69.0</ele><time>2026-05-02T14:47:50Z</time></trkpt><trkpt lat="40.28770594791249" lon="8.504116319747224"><ele>69.0</ele><time>2026-05-02T14:47:51Z</time></trkpt><trkpt lat="40.28757409274883" lon="8.50425824042123"><ele>69.0</ele><time>2026-05-02T14:47:52Z</time></trkpt><trkpt lat="40.287444243642575" lon="8.504400724396433"><ele>69.0</ele><time>2026-05-02T14:47:53Z</time></trkpt><trkpt lat="40.28732316514826" lon="8.504552302872579"><ele>79.33333333333334</ele><time>2026-05-02T14:47:54Z</time></trkpt><trkpt lat="40.28723643064253" lon="8.504726424715853"><ele>89.66666666666667</ele><time>2026-05-02T14:47:55Z</time></trkpt><trkpt lat="40.28717855857388" lon="8.50490909046322"><ele>100.0</ele><time>2026-05-02T14:47:56Z</time></trkpt><trkpt lat="40.28714171947847" lon="8.505086615805917"><ele>100.0</ele><time>2026-05-02T14:47:57Z</time></trkpt><trkpt lat="40.2871181042637" lon="8.505269365297224"><ele>100.0</ele><time>2026-05-02T14:47:58Z</time></trkpt><trkpt lat="40.28710677785911" lon="8.505457808330602"><ele>100.0</ele><time>2026-05-02T14:47:59Z</time></trkpt><trkpt lat="40.287102669911924" lon="8.505632651624136"><ele>100.0</ele><time>2026-05-02T14:48:00Z</time></trkpt><trkpt lat="40.287153112001235" lon="8.506050083313998"><ele>101.33333333333334</ele><time>2026-05-02T14:48:01Z</time></trkpt><trkpt lat="40.28716052056992" lon="8.506277116776356"><ele>102.66666666666666</ele><time>2026-05-02T14:48:02Z</time></trkpt><trkpt lat="40.28716899373076" lon="8.50650880402054"><ele>104.0</ele><time>2026-05-02T14:48:03Z</time></trkpt><trkpt lat="40.2871768262815" lon="8.506743224886572"><ele>104.0</ele><time>2026-05-02T14:48:04Z</time></trkpt><trkpt lat="40.287186273028276" lon="8.506977627260143"><ele>104.0</ele><time>2026-05-02T14:48:05Z</time></trkpt><trkpt lat="40.28720181853883" lon="8.507209226711122"><ele>104.0</ele><time>2026-05-02T14:48:06Z</time></trkpt><trkpt lat="40.28721960203061" lon="8.507441425268054"><ele>105.66666666666666</ele><time>2026-05-02T14:48:07Z</time></trkpt><trkpt lat="40.28724298283353" lon="8.507671579279751"><ele>107.33333333333334</ele><time>2026-05-02T14:48:08Z</time></trkpt><trkpt lat="40.28726533989849" lon="8.507898705158055"><ele>109.0</ele><time>2026-05-02T14:48:09Z</time></trkpt><trkpt lat="40.287284724842415" lon="8.508128207959768"><ele>100.66666666666667</ele><time>2026-05-02T14:48:10Z</time></trkpt><trkpt lat="40.28730698940273" lon="8.50835076261187"><ele>92.33333333333334</ele><time>2026-05-02T14:48:11Z</time></trkpt><trkpt lat="40.28732995030153" lon="8.508571877523249"><ele>84.0</ele><time>2026-05-02T14:48:12Z</time></trkpt><trkpt lat="40.28731999377443" lon="8.508786528554834"><ele>84.0</ele><time>2026-05-02T14:48:13Z</time></trkpt><trkpt lat="40.28728103050897" lon="8.508963491321737"><ele>84.0</ele><time>2026-05-02T14:48:14Z</time></trkpt><trkpt lat="40.28720067882252" lon="8.509107714774636"><ele>84.0</ele><time>2026-05-02T14:48:15Z</time></trkpt><trkpt lat="40.28710662244165" lon="8.509211785727002"><ele>84.0</ele><time>2026-05-02T14:48:16Z</time></trkpt><trkpt lat="40.286987195953735" lon="8.509330337072557"><ele>86.0</ele><time>2026-05-02T14:48:17Z</time></trkpt><trkpt lat="40.28684920114434" lon="8.509459510680497"><ele>88.0</ele><time>2026-05-02T14:48:18Z</time></trkpt><trkpt lat="40.28670527674764" lon="8.509601638348883"><ele>90.0</ele><time>2026-05-02T14:48:19Z</time></trkpt><trkpt lat="40.286556496132164" lon="8.509747944327291"><ele>96.33333333333334</ele><time>2026-05-02T14:48:20Z</time></trkpt><trkpt lat="40.28641396180495" lon="8.509927286451132"><ele>102.66666666666667</ele><time>2026-05-02T14:48:21Z</time></trkpt><trkpt lat="40.28625989127182" lon="8.510088001808324"><ele>109.0</ele><time>2026-05-02T14:48:22Z</time></trkpt><trkpt lat="40.28610814427562" lon="8.510253947604339"><ele>105.66666666666667</ele><time>2026-05-02T14:48:23Z</time></trkpt><trkpt lat="40.28595361728009" lon="8.510414723465725"><ele>102.33333333333334</ele><time>2026-05-02T14:48:24Z</time></trkpt><trkpt lat="40.28579301034664" lon="8.510567801982445"><ele>99.0</ele><time>2026-05-02T14:48:25Z</time></trkpt><trkpt lat="40.28562294284095" lon="8.510689106696345"><ele>103.0</ele><time>2026-05-02T14:48:26Z</time></trkpt><trkpt lat="40.28545958416502" lon="8.510822445937068"><ele>107.0</ele><time>2026-05-02T14:48:27Z</time></trkpt><trkpt lat="40.28529289533376" lon="8.510930686319472"><ele>111.0</ele><time>2026-05-02T14:48:28Z</time></trkpt><trkpt lat="40.285141607897906" lon="8.511055444886269"><ele>111.0</ele><time>2026-05-02T14:48:29Z</time></trkpt><trkpt lat="40.2850223101551" lon="8.511210379884139"><ele>111.0</ele><time>2026-05-02T14:48:30Z</time></trkpt><trkpt lat="40.28492070331613" lon="8.511380055967859"><ele>111.0</ele><time>2026-05-02T14:48:31Z</time></trkpt><trkpt lat="40.28482287071158" lon="8.511554708882167"><ele>112.33333333333334</ele><time>2026-05-02T14:48:32Z</time></trkpt><trkpt lat="40.28472497907645" lon="8.511734242608835"><ele>113.66666666666667</ele><time>2026-05-02T14:48:33Z</time></trkpt><trkpt lat="40.28461685859759" lon="8.51191213506145"><ele>115.0</ele><time>2026-05-02T14:48:34Z</time></trkpt><trkpt lat="40.284504488335045" lon="8.512086765628172"><ele>115.0</ele><time>2026-05-02T14:48:35Z</time></trkpt><trkpt lat="40.28439256038379" lon="8.512256579600267"><ele>115.0</ele><time>2026-05-02T14:48:36Z</time></trkpt><trkpt lat="40.28428103643229" lon="8.512420567167243"><ele>115.0</ele><time>2026-05-02T14:48:37Z</time></trkpt><trkpt lat="40.284182341090975" lon="8.512570621297161"><ele>115.0</ele><time>2026-05-02T14:48:38Z</time></trkpt><trkpt lat="40.28410050712339" lon="8.512684590030904"><ele>115.0</ele><time>2026-05-02T14:48:39Z</time></trkpt><trkpt lat="40.28401392499518" lon="8.512799344475779"><ele>115.0</ele><time>2026-05-02T14:48:40Z</time></trkpt><trkpt lat="40.283902540652484" lon="8.512874509628816"><ele>115.0</ele><time>2026-05-02T14:48:41Z</time></trkpt><trkpt lat="40.28378814018048" lon="8.512891673906147"><ele>117.25</ele><time>2026-05-02T14:48:42Z</time></trkpt><trkpt lat="40.283664710004935" lon="8.512889190457646"><ele>119.5</ele><time>2026-05-02T14:48:43Z</time></trkpt><trkpt lat="40.283521325441406" lon="8.51290166842424"><ele>121.75</ele><time>2026-05-02T14:48:44Z</time></trkpt><trkpt lat="40.28336298078228" lon="8.512883356951516"><ele>124.0</ele><time>2026-05-02T14:48:45Z</time></trkpt><trkpt lat="40.28319483017711" lon="8.5128957830458"><ele>123.66666666666667</ele><time>2026-05-02T14:48:46Z</time></trkpt><trkpt lat="40.283033305110344" lon="8.512927057881315"><ele>123.33333333333334</ele><time>2026-05-02T14:48:47Z</time></trkpt><trkpt lat="40.28289852688208" lon="8.51298297745076"><ele>123.0</ele><time>2026-05-02T14:48:48Z</time></trkpt><trkpt lat="40.28277466907421" lon="8.513083715375114"><ele>123.0</ele><time>2026-05-02T14:48:49Z</time></trkpt><trkpt lat="40.28265633295413" lon="8.513232772146466"><ele>123.0</ele><time>2026-05-02T14:48:50Z</time></trkpt><trkpt lat="40.28254039998936" lon="8.51339260506868"><ele>123.0</ele><time>2026-05-02T14:48:51Z</time></trkpt><trkpt lat="40.28242969577543" lon="8.513556737973555"><ele>123.0</ele><time>2026-05-02T14:48:52Z</time></trkpt><trkpt lat="40.28232227344333" lon="8.51372023051311"><ele>123.0</ele><time>2026-05-02T14:48:53Z</time></trkpt><trkpt lat="40.28220816956527" lon="8.513880226134546"><ele>123.0</ele><time>2026-05-02T14:48:54Z</time></trkpt><trkpt lat="40.28209006039565" lon="8.514032505079358"><ele>123.0</ele><time>2026-05-02T14:48:55Z</time></trkpt><trkpt lat="40.28196746054755" lon="8.514176757270985"><ele>123.0</ele><time>2026-05-02T14:48:56Z</time></trkpt><trkpt lat="40.28183494599341" lon="8.514314568433875"><ele>123.0</ele><time>2026-05-02T14:48:57Z</time></trkpt><trkpt lat="40.28168062660479" lon="8.51440828064282"><ele>123.0</ele><time>2026-05-02T14:48:58Z</time></trkpt><trkpt lat="40.28152513489879" lon="8.514489011811753"><ele>123.0</ele><time>2026-05-02T14:48:59Z</time></trkpt><trkpt lat="40.28136264670578" lon="8.514539013293776"><ele>123.0</ele><time>2026-05-02T14:49:00Z</time></trkpt><trkpt lat="40.281194917410765" lon="8.514570604482424"><ele>133.33333333333334</ele><time>2026-05-02T14:49:01Z</time></trkpt><trkpt lat="40.28102503283784" lon="8.51459424961147"><ele>143.66666666666669</ele><time>2026-05-02T14:49:02Z</time></trkpt><trkpt lat="40.280855997074134" lon="8.514584443655796"><ele>154.0</ele><time>2026-05-02T14:49:03Z</time></trkpt><trkpt lat="40.28069092619635" lon="8.51457670133932"><ele>154.0</ele><time>2026-05-02T14:49:04Z</time></trkpt><trkpt lat="40.28053189993436" lon="8.514580581417892"><ele>154.0</ele><time>2026-05-02T14:49:05Z</time></trkpt><trkpt lat="40.280377167120406" lon="8.514594405022402"><ele>154.0</ele><time>2026-05-02T14:49:06Z</time></trkpt><trkpt lat="40.28022657006122" lon="8.514618149158723"><ele>154.0</ele><time>2026-05-02T14:49:07Z</time></trkpt><trkpt lat="40.28007984489989" lon="8.514649091543207"><ele>154.0</ele><time>2026-05-02T14:49:08Z</time></trkpt><trkpt lat="40.27993685243925" lon="8.514681897053098"><ele>154.0</ele><time>2026-05-02T14:49:09Z</time></trkpt><trkpt lat="40.27979788353682" lon="8.51470571912736"><ele>154.0</ele><time>2026-05-02T14:49:10Z</time></trkpt><trkpt lat="40.279669343551014" lon="8.514717613790687"><ele>151.66666666666669</ele><time>2026-05-02T14:49:11Z</time></trkpt><trkpt lat="40.27955995695954" lon="8.514715504332099"><ele>149.33333333333334</ele><time>2026-05-02T14:49:12Z</time></trkpt><trkpt lat="40.2794629097225" lon="8.514708976871558"><ele>147.0</ele><time>2026-05-02T14:49:13Z</time></trkpt><trkpt lat="40.279379993379386" lon="8.51471880921181"><ele>144.66666666666666</ele><time>2026-05-02T14:49:14Z</time></trkpt><trkpt lat="40.27930655750888" lon="8.514758298974494"><ele>142.33333333333331</ele><time>2026-05-02T14:49:15Z</time></trkpt><trkpt lat="40.279250659144395" lon="8.514833292654561"><ele>140.0</ele><time>2026-05-02T14:49:16Z</time></trkpt><trkpt lat="40.27921172416212" lon="8.514933392499007"><ele>140.0</ele><time>2026-05-02T14:49:17Z</time></trkpt><trkpt lat="40.279187454049065" lon="8.515053046138048"><ele>140.0</ele><time>2026-05-02T14:49:18Z</time></trkpt><trkpt lat="40.27918353857067" lon="8.515177510980022"><ele>140.0</ele><time>2026-05-02T14:49:19Z</time></trkpt><trkpt lat="40.27921212422691" lon="8.515317173572244"><ele>140.0</ele><time>2026-05-02T14:49:20Z</time></trkpt><trkpt lat="40.279254542017945" lon="8.515470667870149"><ele>140.0</ele><time>2026-05-02T14:49:21Z</time></trkpt><trkpt lat="40.279310983133016" lon="8.515644490708958"><ele>141.5</ele><time>2026-05-02T14:49:22Z</time></trkpt><trkpt lat="40.27933469870214" lon="8.51584032199011"><ele>143.0</ele><time>2026-05-02T14:49:23Z</time></trkpt><trkpt lat="40.27935999299698" lon="8.516023407453376"><ele>144.5</ele><time>2026-05-02T14:49:24Z</time></trkpt><trkpt lat="40.27937712014649" lon="8.516211784138166"><ele>146.0</ele><time>2026-05-02T14:49:25Z</time></trkpt><trkpt lat="40.27938113974767" lon="8.516407602842172"><ele>147.0</ele><time>2026-05-02T14:49:26Z</time></trkpt><trkpt lat="40.27937941284274" lon="8.516612481602454"><ele>148.0</ele><time>2026-05-02T14:49:27Z</time></trkpt><trkpt lat="40.27936764959903" lon="8.516799441442434"><ele>149.0</ele><time>2026-05-02T14:49:28Z</time></trkpt><trkpt lat="40.27934327971661" lon="8.516956620682967"><ele>150.0</ele><time>2026-05-02T14:49:29Z</time></trkpt><trkpt lat="40.27930513549795" lon="8.517086438972036"><ele>152.33333333333334</ele><time>2026-05-02T14:49:30Z</time></trkpt><trkpt lat="40.27925829654578" lon="8.517190927543771"><ele>154.66666666666666</ele><time>2026-05-02T14:49:31Z</time></trkpt><trkpt lat="40.279197272046396" lon="8.517267962534266"><ele>157.0</ele><time>2026-05-02T14:49:32Z</time></trkpt><trkpt lat="40.279131795961526" lon="8.517338650417999"><ele>159.33333333333331</ele><time>2026-05-02T14:49:33Z</time></trkpt><trkpt lat="40.27907725796016" lon="8.517399050812951"><ele>161.66666666666666</ele><time>2026-05-02T14:49:34Z</time></trkpt><trkpt lat="40.279029709238095" lon="8.517455415970813"><ele>164.0</ele><time>2026-05-02T14:49:35Z</time></trkpt><trkpt lat="40.27898123707517" lon="8.517524522345946"><ele>160.79999999999998</ele><time>2026-05-02T14:49:36Z</time></trkpt><trkpt lat="40.278931901709655" lon="8.517613775621577"><ele>157.6</ele><time>2026-05-02T14:49:37Z</time></trkpt><trkpt lat="40.278911457790684" lon="8.517731382259647"><ele>154.4</ele><time>2026-05-02T14:49:38Z</time></trkpt><trkpt lat="40.27889847595116" lon="8.517843521926865"><ele>151.2</ele><time>2026-05-02T14:49:39Z</time></trkpt><trkpt lat="40.27888871183675" lon="8.517970840041343"><ele>148.0</ele><time>2026-05-02T14:49:40Z</time></trkpt><trkpt lat="40.27890288034448" lon="8.51814062610226"><ele>154.66666666666669</ele><time>2026-05-02T14:49:41Z</time></trkpt><trkpt lat="40.27893854287179" lon="8.518360023300863"><ele>161.33333333333334</ele><time>2026-05-02T14:49:42Z</time></trkpt><trkpt lat="40.27898613186969" lon="8.518592143869036"><ele>168.0</ele><time>2026-05-02T14:49:43Z</time></trkpt><trkpt lat="40.27903870408738" lon="8.51881464362054"><ele>168.0</ele><time>2026-05-02T14:49:44Z</time></trkpt><trkpt lat="40.279078764107744" lon="8.519021921366006"><ele>168.0</ele><time>2026-05-02T14:49:45Z</time></trkpt><trkpt lat="40.27913309721796" lon="8.5191851991173"><ele>168.0</ele><time>2026-05-02T14:49:46Z</time></trkpt><trkpt lat="40.27919478393041" lon="8.519314949334122"><ele>168.0</ele><time>2026-05-02T14:49:47Z</time></trkpt><trkpt lat="40.279233646960094" lon="8.519435151551674"><ele>168.0</ele><time>2026-05-02T14:49:48Z</time></trkpt><trkpt lat="40.27927456437499" lon="8.519522717722358"><ele>168.0</ele><time>2026-05-02T14:49:49Z</time></trkpt><trkpt lat="40.27931014409955" lon="8.51959520510216"><ele>168.0</ele><time>2026-05-02T14:49:50Z</time></trkpt><trkpt lat="40.27936269312973" lon="8.519698078257983"><ele>168.0</ele><time>2026-05-02T14:49:52Z</time></trkpt><trkpt lat="40.27941072248056" lon="8.519788988643121"><ele>168.0</ele><time>2026-05-02T14:49:55Z</time></trkpt><trkpt lat="40.27947560206663" lon="8.51988965991648"><ele>168.0</ele><time>2026-05-02T14:51:27Z</time></trkpt><trkpt lat="40.279535169398294" lon="8.520024610663503"><ele>166.20000000000002</ele><time>2026-05-02T14:51:29Z</time></trkpt><trkpt lat="40.279574217974336" lon="8.520183153674918"><ele>164.4</ele><time>2026-05-02T14:51:31Z</time></trkpt><trkpt lat="40.27957212062215" lon="8.520287722431277"><ele>162.60000000000002</ele><time>2026-05-02T14:51:32Z</time></trkpt><trkpt lat="40.27956883431005" lon="8.520413222693414"><ele>160.8</ele><time>2026-05-02T14:51:33Z</time></trkpt><trkpt lat="40.279566781746354" lon="8.520534073741986"><ele>159.0</ele><time>2026-05-02T14:51:34Z</time></trkpt><trkpt lat="40.27956347667299" lon="8.520654922346637"><ele>159.0</ele><time>2026-05-02T14:51:35Z</time></trkpt><trkpt lat="40.279557156489496" lon="8.520761557834241"><ele>159.0</ele><time>2026-05-02T14:51:36Z</time></trkpt><trkpt lat="40.27954625550246" lon="8.520882873061751"><ele>159.0</ele><time>2026-05-02T14:51:37Z</time></trkpt><trkpt lat="40.27950924071927" lon="8.521000563350883"><ele>159.0</ele><time>2026-05-02T14:51:38Z</time></trkpt><trkpt lat="40.27946730815114" lon="8.521130186805086"><ele>159.0</ele><time>2026-05-02T14:51:39Z</time></trkpt><trkpt lat="40.27943206335574" lon="8.521271060019846"><ele>160.4</ele><time>2026-05-02T14:51:40Z</time></trkpt><trkpt lat="40.27941105315406" lon="8.52141274264821"><ele>161.8</ele><time>2026-05-02T14:51:41Z</time></trkpt><trkpt lat="40.27940264268788" lon="8.521551929789554"><ele>163.20000000000002</ele><time>2026-05-02T14:51:42Z</time></trkpt><trkpt lat="40.27940529080184" lon="8.52168578324311"><ele>164.60000000000002</ele><time>2026-05-02T14:51:43Z</time></trkpt><trkpt lat="40.27941641870302" lon="8.521814550419375"><ele>166.0</ele><time>2026-05-02T14:51:44Z</time></trkpt><trkpt lat="40.279442131929734" lon="8.521938103250124"><ele>166.0</ele><time>2026-05-02T14:51:45Z</time></trkpt><trkpt lat="40.279474026531034" lon="8.522059691738255"><ele>166.0</ele><time>2026-05-02T14:51:46Z</time></trkpt><trkpt lat="40.27951935477111" lon="8.522182247478655"><ele>166.0</ele><time>2026-05-02T14:51:47Z</time></trkpt><trkpt lat="40.279565908398254" lon="8.522316188923936"><ele>166.0</ele><time>2026-05-02T14:51:48Z</time></trkpt><trkpt lat="40.27961725893621" lon="8.522458218876599"><ele>166.0</ele><time>2026-05-02T14:51:49Z</time></trkpt><trkpt lat="40.27966998017545" lon="8.522610344506477"><ele>165.25</ele><time>2026-05-02T14:51:50Z</time></trkpt><trkpt lat="40.27972496936704" lon="8.52277524772354"><ele>164.5</ele><time>2026-05-02T14:51:51Z</time></trkpt><trkpt lat="40.27978439705574" lon="8.522948331466376"><ele>163.75</ele><time>2026-05-02T14:51:52Z</time></trkpt><trkpt lat="40.27984594134825" lon="8.523127174546318"><ele>163.0</ele><time>2026-05-02T14:51:53Z</time></trkpt><trkpt lat="40.27991672643661" lon="8.523285919340136"><ele>170.0</ele><time>2026-05-02T14:51:54Z</time></trkpt><trkpt lat="40.280006034099124" lon="8.523474514563375"><ele>177.0</ele><time>2026-05-02T14:51:55Z</time></trkpt><trkpt lat="40.28012693196738" lon="8.523659264559743"><ele>184.0</ele><time>2026-05-02T14:51:56Z</time></trkpt><trkpt lat="40.28025529178721" lon="8.523841284733036"><ele>184.0</ele><time>2026-05-02T14:51:57Z</time></trkpt><trkpt lat="40.28037930312486" lon="8.524043190345795"><ele>184.0</ele><time>2026-05-02T14:51:58Z</time></trkpt><trkpt lat="40.28047655310161" lon="8.524278869247121"><ele>184.0</ele><time>2026-05-02T14:51:59Z</time></trkpt><trkpt lat="40.28063155868622" lon="8.524497693029414"><ele>196.0</ele><time>2026-05-02T14:52:00Z</time></trkpt><trkpt lat="40.28076230398555" lon="8.524749726212184"><ele>208.0</ele><time>2026-05-02T14:52:01Z</time></trkpt><trkpt lat="40.28086730153075" lon="8.525016087008346"><ele>208.0</ele><time>2026-05-02T14:52:02Z</time></trkpt><trkpt lat="40.280940236503774" lon="8.525284588081687"><ele>208.0</ele><time>2026-05-02T14:52:03Z</time></trkpt><trkpt lat="40.28104247490439" lon="8.525491444754298"><ele>208.0</ele><time>2026-05-02T14:52:04Z</time></trkpt><trkpt lat="40.28114348182195" lon="8.525672411299286"><ele>206.0</ele><time>2026-05-02T14:52:05Z</time></trkpt><trkpt lat="40.28119969577242" lon="8.525846180271154"><ele>204.0</ele><time>2026-05-02T14:52:06Z</time></trkpt><trkpt lat="40.28120728599007" lon="8.526035462598603"><ele>202.0</ele><time>2026-05-02T14:52:07Z</time></trkpt><trkpt lat="40.281204004403115" lon="8.526275743678072"><ele>202.0</ele><time>2026-05-02T14:52:08Z</time></trkpt><trkpt lat="40.28119833992794" lon="8.526576931673171"><ele>202.0</ele><time>2026-05-02T14:52:09Z</time></trkpt><trkpt lat="40.281191352537554" lon="8.526896395315495"><ele>203.66666666666666</ele><time>2026-05-02T14:52:10Z</time></trkpt><trkpt lat="40.28121125918101" lon="8.527167485615333"><ele>205.33333333333331</ele><time>2026-05-02T14:52:11Z</time></trkpt><trkpt lat="40.281251980048005" lon="8.527435853427908"><ele>207.0</ele><time>2026-05-02T14:52:12Z</time></trkpt><trkpt lat="40.281344488905226" lon="8.527694081086358"><ele>210.66666666666669</ele><time>2026-05-02T14:52:13Z</time></trkpt><trkpt lat="40.28147030550096" lon="8.527917345734835"><ele>214.33333333333334</ele><time>2026-05-02T14:52:14Z</time></trkpt><trkpt lat="40.28164023388994" lon="8.528116876405637"><ele>218.0</ele><time>2026-05-02T14:52:15Z</time></trkpt><trkpt lat="40.28185007655448" lon="8.528289933005363"><ele>218.0</ele><time>2026-05-02T14:52:16Z</time></trkpt><trkpt lat="40.28209321887576" lon="8.52843147118094"><ele>218.0</ele><time>2026-05-02T14:52:17Z</time></trkpt><trkpt lat="40.28236875125148" lon="8.528545349042762"><ele>221.0</ele><time>2026-05-02T14:52:18Z</time></trkpt><trkpt lat="40.28261483956062" lon="8.528660431876158"><ele>224.0</ele><time>2026-05-02T14:52:19Z</time></trkpt><trkpt lat="40.28281955017754" lon="8.528791026721368"><ele>224.0</ele><time>2026-05-02T14:52:20Z</time></trkpt><trkpt lat="40.28293376548546" lon="8.528953553326946"><ele>224.0</ele><time>2026-05-02T14:52:21Z</time></trkpt><trkpt lat="40.282992729186525" lon="8.529092072511006"><ele>224.0</ele><time>2026-05-02T14:52:22Z</time></trkpt><trkpt lat="40.28299198166095" lon="8.529216472459789"><ele>224.0</ele><time>2026-05-02T14:52:23Z</time></trkpt><trkpt lat="40.28298529408131" lon="8.529418535814225"><ele>227.0</ele><time>2026-05-02T14:52:24Z</time></trkpt><trkpt lat="40.282951487441885" lon="8.529692186091637"><ele>230.0</ele><time>2026-05-02T14:52:25Z</time></trkpt><trkpt lat="40.282920442355184" lon="8.53002650944901"><ele>230.0</ele><time>2026-05-02T14:52:26Z</time></trkpt><trkpt lat="40.28293482560563" lon="8.530305668823313"><ele>230.0</ele><time>2026-05-02T14:52:27Z</time></trkpt><trkpt lat="40.28296511015613" lon="8.530544457888194"><ele>230.0</ele><time>2026-05-02T14:52:28Z</time></trkpt><trkpt lat="40.28305518922182" lon="8.530789857001084"><ele>238.0</ele><time>2026-05-02T14:52:29Z</time></trkpt><trkpt lat="40.28319933422846" lon="8.531053535579737"><ele>246.0</ele><time>2026-05-02T14:52:30Z</time></trkpt><trkpt lat="40.28337625772696" lon="8.531333180986508"><ele>246.0</ele><time>2026-05-02T14:52:31Z</time></trkpt><trkpt lat="40.28356827909232" lon="8.531591231104466"><ele>246.0</ele><time>2026-05-02T14:52:32Z</time></trkpt><trkpt lat="40.28374574549549" lon="8.531762783438921"><ele>252.0</ele><time>2026-05-02T14:52:33Z</time></trkpt><trkpt lat="40.28396026757702" lon="8.531888281455828"><ele>258.0</ele><time>2026-05-02T14:52:34Z</time></trkpt><trkpt lat="40.28421123369322" lon="8.531975809764676"><ele>258.0</ele><time>2026-05-02T14:52:35Z</time></trkpt><trkpt lat="40.28448007415918" lon="8.532015827790323"><ele>258.0</ele><time>2026-05-02T14:52:36Z</time></trkpt><trkpt lat="40.28479112803896" lon="8.531946344154072"><ele>257.3333333333333</ele><time>2026-05-02T14:52:37Z</time></trkpt><trkpt lat="40.28502867813918" lon="8.531974187239602"><ele>256.66666666666663</ele><time>2026-05-02T14:52:38Z</time></trkpt><trkpt lat="40.285186831995354" lon="8.532040501503122"><ele>256.0</ele><time>2026-05-02T14:52:39Z</time></trkpt><trkpt lat="40.285296619912415" lon="8.532130242330675"><ele>256.0</ele><time>2026-05-02T14:52:40Z</time></trkpt><trkpt lat="40.285393645337514" lon="8.532274390002545"><ele>256.0</ele><time>2026-05-02T14:52:41Z</time></trkpt><trkpt lat="40.28551605864674" lon="8.532472421779882"><ele>256.0</ele><time>2026-05-02T14:52:42Z</time></trkpt><trkpt lat="40.28563802122667" lon="8.532716669712391"><ele>260.3333333333333</ele><time>2026-05-02T14:52:43Z</time></trkpt><trkpt lat="40.2857185133889" lon="8.532973661882627"><ele>264.6666666666667</ele><time>2026-05-02T14:52:44Z</time></trkpt><trkpt lat="40.28575011220019" lon="8.53322627857106"><ele>269.0</ele><time>2026-05-02T14:52:45Z</time></trkpt><trkpt lat="40.285760918967796" lon="8.533516423431646"><ele>270.5</ele><time>2026-05-02T14:52:46Z</time></trkpt><trkpt lat="40.285776698967396" lon="8.533833344933567"><ele>272.0</ele><time>2026-05-02T14:52:47Z</time></trkpt><trkpt lat="40.28583884742943" lon="8.534153405315449"><ele>272.0</ele><time>2026-05-02T14:52:48Z</time></trkpt><trkpt lat="40.28592199942188" lon="8.534495627044935"><ele>272.0</ele><time>2026-05-02T14:52:49Z</time></trkpt><trkpt lat="40.2860273764384" lon="8.534852894284676"><ele>271.0</ele><time>2026-05-02T14:52:50Z</time></trkpt><trkpt lat="40.28613302759996" lon="8.535179429442357"><ele>270.0</ele><time>2026-05-02T14:52:51Z</time></trkpt><trkpt lat="40.28626095594787" lon="8.535481856746225"><ele>267.0</ele><time>2026-05-02T14:52:52Z</time></trkpt><trkpt lat="40.28642714913499" lon="8.535786294483554"><ele>264.0</ele><time>2026-05-02T14:52:53Z</time></trkpt><trkpt lat="40.28659885492172" lon="8.536068151039984"><ele>270.0</ele><time>2026-05-02T14:52:54Z</time></trkpt><trkpt lat="40.28677714824215" lon="8.536320579252118"><ele>276.0</ele><time>2026-05-02T14:52:55Z</time></trkpt><trkpt lat="40.28698817685004" lon="8.536568336876106"><ele>276.0</ele><time>2026-05-02T14:52:56Z</time></trkpt><trkpt lat="40.28723040616447" lon="8.53681890540705"><ele>276.0</ele><time>2026-05-02T14:52:57Z</time></trkpt><trkpt lat="40.28746034976188" lon="8.537075919742202"><ele>281.5</ele><time>2026-05-02T14:52:58Z</time></trkpt><trkpt lat="40.28763219959662" lon="8.537304584449515"><ele>287.0</ele><time>2026-05-02T14:52:59Z</time></trkpt><trkpt lat="40.287758068859475" lon="8.537520101115893"><ele>287.0</ele><time>2026-05-02T14:53:00Z</time></trkpt><trkpt lat="40.287868249549355" lon="8.537727657197282"><ele>287.0</ele><time>2026-05-02T14:53:01Z</time></trkpt><trkpt lat="40.28794555680544" lon="8.537924038948766"><ele>287.0</ele><time>2026-05-02T14:53:02Z</time></trkpt><trkpt lat="40.288004441731346" lon="8.538141535314693"><ele>287.0</ele><time>2026-05-02T14:53:03Z</time></trkpt><trkpt lat="40.28804217100795" lon="8.538381366343756"><ele>287.0</ele><time>2026-05-02T14:53:04Z</time></trkpt><trkpt lat="40.28805238148529" lon="8.538634826590293"><ele>287.0</ele><time>2026-05-02T14:53:05Z</time></trkpt><trkpt lat="40.28802424553604" lon="8.538905419169666"><ele>289.6666666666667</ele><time>2026-05-02T14:53:06Z</time></trkpt><trkpt lat="40.287970619132345" lon="8.539183743538981"><ele>292.3333333333333</ele><time>2026-05-02T14:53:07Z</time></trkpt><trkpt lat="40.287891060165656" lon="8.539458579838236"><ele>295.0</ele><time>2026-05-02T14:53:08Z</time></trkpt><trkpt lat="40.28779783901275" lon="8.539690752969728"><ele>298.0</ele><time>2026-05-02T14:53:09Z</time></trkpt><trkpt lat="40.28771136148023" lon="8.539900966460507"><ele>301.0</ele><time>2026-05-02T14:53:10Z</time></trkpt><trkpt lat="40.28766121866378" lon="8.54011411212734"><ele>304.0</ele><time>2026-05-02T14:53:11Z</time></trkpt><trkpt lat="40.287664646200625" lon="8.540331086862532"><ele>305.66666666666663</ele><time>2026-05-02T14:53:12Z</time></trkpt><trkpt lat="40.28771832910602" lon="8.540579723607209"><ele>307.3333333333333</ele><time>2026-05-02T14:53:13Z</time></trkpt><trkpt lat="40.28773688760188" lon="8.540848155344678"><ele>309.0</ele><time>2026-05-02T14:53:14Z</time></trkpt><trkpt lat="40.287709862503974" lon="8.54109071807052"><ele>311.0</ele><time>2026-05-02T14:53:15Z</time></trkpt><trkpt lat="40.28764848844167" lon="8.54126432627817"><ele>313.0</ele><time>2026-05-02T14:53:16Z</time></trkpt><trkpt lat="40.28755891617164" lon="8.541383319338175"><ele>315.0</ele><time>2026-05-02T14:53:17Z</time></trkpt><trkpt lat="40.287429665400914" lon="8.541514030297318"><ele>317.0</ele><time>2026-05-02T14:53:18Z</time></trkpt><trkpt lat="40.28729229995237" lon="8.541640147216789"><ele>318.33333333333337</ele><time>2026-05-02T14:53:19Z</time></trkpt><trkpt lat="40.28712101246409" lon="8.541658089614739"><ele>319.6666666666667</ele><time>2026-05-02T14:53:20Z</time></trkpt><trkpt lat="40.28694161348584" lon="8.541669039578785"><ele>321.0</ele><time>2026-05-02T14:53:21Z</time></trkpt><trkpt lat="40.28671825294032" lon="8.541700896318222"><ele>321.0</ele><time>2026-05-02T14:53:22Z</time></trkpt><trkpt lat="40.286466835557576" lon="8.541707120753301"><ele>321.0</ele><time>2026-05-02T14:53:23Z</time></trkpt><trkpt lat="40.28621110199097" lon="8.541719794877459"><ele>322.3333333333333</ele><time>2026-05-02T14:53:24Z</time></trkpt><trkpt lat="40.28600227705302" lon="8.541733998204245"><ele>323.66666666666663</ele><time>2026-05-02T14:53:25Z</time></trkpt><trkpt lat="40.28582214964232" lon="8.54177819845554"><ele>325.0</ele><time>2026-05-02T14:53:26Z</time></trkpt><trkpt lat="40.28564481354415" lon="8.541878491772833"><ele>325.0</ele><time>2026-05-02T14:53:27Z</time></trkpt><trkpt lat="40.285484208547736" lon="8.542031015592512"><ele>325.0</ele><time>2026-05-02T14:53:28Z</time></trkpt><trkpt lat="40.285348744254044" lon="8.542223330767959"><ele>325.0</ele><time>2026-05-02T14:53:29Z</time></trkpt><trkpt lat="40.28522842093464" lon="8.54247554947847"><ele>325.0</ele><time>2026-05-02T14:53:30Z</time></trkpt><trkpt lat="40.28510003767519" lon="8.542743565082253"><ele>325.0</ele><time>2026-05-02T14:53:31Z</time></trkpt><trkpt lat="40.28496203630382" lon="8.543012028884865"><ele>326.0</ele><time>2026-05-02T14:53:32Z</time></trkpt><trkpt lat="40.28483478801986" lon="8.543252525607521"><ele>327.0</ele><time>2026-05-02T14:53:33Z</time></trkpt><trkpt lat="40.28471500714374" lon="8.543465216510484"><ele>328.0</ele><time>2026-05-02T14:53:34Z</time></trkpt><trkpt lat="40.28460926053363" lon="8.543663724159073"><ele>329.0</ele><time>2026-05-02T14:53:35Z</time></trkpt><trkpt lat="40.28450956924035" lon="8.5438480380174"><ele>330.0</ele><time>2026-05-02T14:53:36Z</time></trkpt><trkpt lat="40.28441676424814" lon="8.544021146194693"><ele>331.0</ele><time>2026-05-02T14:53:37Z</time></trkpt><trkpt lat="40.28432171375869" lon="8.544188018010873"><ele>331.0</ele><time>2026-05-02T14:53:38Z</time></trkpt><trkpt lat="40.28419863818296" lon="8.544319466810101"><ele>331.0</ele><time>2026-05-02T14:53:39Z</time></trkpt><trkpt lat="40.28407686665505" lon="8.544450481005226"><ele>331.0</ele><time>2026-05-02T14:53:40Z</time></trkpt><trkpt lat="40.28395574279014" lon="8.544589350381306"><ele>331.66666666666663</ele><time>2026-05-02T14:53:41Z</time></trkpt><trkpt lat="40.2838259120727" lon="8.544710433242773"><ele>332.3333333333333</ele><time>2026-05-02T14:53:42Z</time></trkpt><trkpt lat="40.28370860747435" lon="8.544850426470234"><ele>333.0</ele><time>2026-05-02T14:53:43Z</time></trkpt><trkpt lat="40.28362078505799" lon="8.545023422803695"><ele>333.0</ele><time>2026-05-02T14:53:44Z</time></trkpt><trkpt lat="40.28357128903517" lon="8.545216120244373"><ele>333.0</ele><time>2026-05-02T14:53:45Z</time></trkpt><trkpt lat="40.283560308225255" lon="8.545426367080847"><ele>333.0</ele><time>2026-05-02T14:53:46Z</time></trkpt><trkpt lat="40.28356489308377" lon="8.54563709790045"><ele>334.0</ele><time>2026-05-02T14:53:47Z</time></trkpt><trkpt lat="40.2835821612723" lon="8.545844847132862"><ele>335.0</ele><time>2026-05-02T14:53:48Z</time></trkpt><trkpt lat="40.2835907297689" lon="8.546029721420064"><ele>336.0</ele><time>2026-05-02T14:53:49Z</time></trkpt><trkpt lat="40.28359749843549" lon="8.546227896516731"><ele>336.6666666666667</ele><time>2026-05-02T14:53:50Z</time></trkpt><trkpt lat="40.28360006454259" lon="8.54643782111203"><ele>337.33333333333337</ele><time>2026-05-02T14:53:51Z</time></trkpt><trkpt lat="40.283606590043505" lon="8.546651631506938"><ele>338.0</ele><time>2026-05-02T14:53:52Z</time></trkpt><trkpt lat="40.28361047386802" lon="8.546854995574023"><ele>338.25</ele><time>2026-05-02T14:53:53Z</time></trkpt><trkpt lat="40.28361436416382" lon="8.547047545522183"><ele>338.5</ele><time>2026-05-02T14:53:54Z</time></trkpt><trkpt lat="40.28361811884157" lon="8.547239074561901"><ele>338.75</ele><time>2026-05-02T14:53:55Z</time></trkpt><trkpt lat="40.2836226067787" lon="8.54743471914802"><ele>339.0</ele><time>2026-05-02T14:53:56Z</time></trkpt><trkpt lat="40.28362986006341" lon="8.547634905061564"><ele>339.0</ele><time>2026-05-02T14:53:57Z</time></trkpt><trkpt lat="40.2836371143785" lon="8.547838980576111"><ele>339.0</ele><time>2026-05-02T14:53:58Z</time></trkpt><trkpt lat="40.28363978918551" lon="8.548043225200244"><ele>339.0</ele><time>2026-05-02T14:53:59Z</time></trkpt><trkpt lat="40.28364264030162" lon="8.548247632850506"><ele>339.6666666666667</ele><time>2026-05-02T14:54:00Z</time></trkpt><trkpt lat="40.28364822794166" lon="8.54845633806452"><ele>340.33333333333337</ele><time>2026-05-02T14:54:01Z</time></trkpt><trkpt lat="40.28365068951679" lon="8.54866329585687"><ele>341.0</ele><time>2026-05-02T14:54:02Z</time></trkpt><trkpt lat="40.283650968384286" lon="8.54887322685053"><ele>341.6666666666667</ele><time>2026-05-02T14:54:03Z</time></trkpt><trkpt lat="40.28365452864529" lon="8.54908607101716"><ele>342.3333333333333</ele><time>2026-05-02T14:54:04Z</time></trkpt><trkpt lat="40.28365891004816" lon="8.54929897028714"><ele>343.0</ele><time>2026-05-02T14:54:05Z</time></trkpt><trkpt lat="40.28366603376826" lon="8.549512363595568"><ele>343.3333333333333</ele><time>2026-05-02T14:54:06Z</time></trkpt><trkpt lat="40.28367103840671" lon="8.549730745361567"><ele>343.6666666666667</ele><time>2026-05-02T14:54:07Z</time></trkpt><trkpt lat="40.28367639758288" lon="8.549953929715004"><ele>344.0</ele><time>2026-05-02T14:54:08Z</time></trkpt><trkpt lat="40.28367985211586" lon="8.550186071087008"><ele>344.6666666666667</ele><time>2026-05-02T14:54:09Z</time></trkpt><trkpt lat="40.28368354107637" lon="8.550424016880259"><ele>345.3333333333333</ele><time>2026-05-02T14:54:10Z</time></trkpt><trkpt lat="40.28369037371116" lon="8.550669291595405"><ele>346.0</ele><time>2026-05-02T14:54:11Z</time></trkpt><trkpt lat="40.28369853263808" lon="8.55091662581976"><ele>346.0</ele><time>2026-05-02T14:54:12Z</time></trkpt><trkpt lat="40.2836970793834" lon="8.55116136423795"><ele>346.0</ele><time>2026-05-02T14:54:13Z</time></trkpt><trkpt lat="40.28368075954302" lon="8.551401909787595"><ele>346.0</ele><time>2026-05-02T14:54:14Z</time></trkpt><trkpt lat="40.283648960065555" lon="8.551639433033218"><ele>346.3333333333333</ele><time>2026-05-02T14:54:15Z</time></trkpt><trkpt lat="40.28360690577981" lon="8.551872451006602"><ele>346.6666666666667</ele><time>2026-05-02T14:54:16Z</time></trkpt><trkpt lat="40.28353268513865" lon="8.552092718536482"><ele>347.0</ele><time>2026-05-02T14:54:17Z</time></trkpt><trkpt lat="40.28346828780742" lon="8.552315149827146"><ele>347.0</ele><time>2026-05-02T14:54:18Z</time></trkpt><trkpt lat="40.28342786447132" lon="8.552517102735731"><ele>347.0</ele><time>2026-05-02T14:54:19Z</time></trkpt><trkpt lat="40.28337817916136" lon="8.55267687326374"><ele>347.0</ele><time>2026-05-02T14:54:20Z</time></trkpt><trkpt lat="40.283345469883216" lon="8.55279310104676"><ele>347.0</ele><time>2026-05-02T14:54:21Z</time></trkpt><trkpt lat="40.28331825429489" lon="8.552892830529201"><ele>346.8</ele><time>2026-05-02T14:54:23Z</time></trkpt><trkpt lat="40.283273073390745" lon="8.552987288844937"><ele>346.6</ele><time>2026-05-02T14:54:26Z</time></trkpt><trkpt lat="40.28337390774325" lon="8.553083656821679"><ele>346.40000000000003</ele><time>2026-05-02T14:54:27Z</time></trkpt><trkpt lat="40.283462664783315" lon="8.553160500126157"><ele>346.20000000000005</ele><time>2026-05-02T14:54:28Z</time></trkpt><trkpt lat="40.28356692251137" lon="8.553255392293206"><ele>346.0</ele><time>2026-05-02T14:54:29Z</time></trkpt><trkpt lat="40.28365204323151" lon="8.553410337956418"><ele>346.0</ele><time>2026-05-02T14:54:30Z</time></trkpt><trkpt lat="40.28373772211843" lon="8.553592816911818"><ele>346.0</ele><time>2026-05-02T14:54:31Z</time></trkpt><trkpt lat="40.28383794165812" lon="8.55380278822527"><ele>346.0</ele><time>2026-05-02T14:54:32Z</time></trkpt><trkpt lat="40.28396086622417" lon="8.554033574521135"><ele>346.0</ele><time>2026-05-02T14:54:33Z</time></trkpt><trkpt lat="40.28408329914956" lon="8.554291113627709"><ele>346.0</ele><time>2026-05-02T14:54:34Z</time></trkpt><trkpt lat="40.28421316367541" lon="8.554569354147707"><ele>347.5</ele><time>2026-05-02T14:54:35Z</time></trkpt><trkpt lat="40.28434599544148" lon="8.554848210543453"><ele>349.0</ele><time>2026-05-02T14:54:36Z</time></trkpt><trkpt lat="40.28445943742828" lon="8.555119727798576"><ele>348.5</ele><time>2026-05-02T14:54:37Z</time></trkpt><trkpt lat="40.284517920599754" lon="8.555422561984695"><ele>348.0</ele><time>2026-05-02T14:54:38Z</time></trkpt><trkpt lat="40.28455554275309" lon="8.555716141334429"><ele>348.0</ele><time>2026-05-02T14:54:39Z</time></trkpt><trkpt lat="40.284591277403536" lon="8.556020177436706"><ele>348.0</ele><time>2026-05-02T14:54:40Z</time></trkpt><trkpt lat="40.28463419257498" lon="8.55630660272715"><ele>348.0</ele><time>2026-05-02T14:54:41Z</time></trkpt><trkpt lat="40.28467863866376" lon="8.55657431418024"><ele>348.0</ele><time>2026-05-02T14:54:42Z</time></trkpt><trkpt lat="40.284765991897586" lon="8.556817173116592"><ele>348.0</ele><time>2026-05-02T14:54:43Z</time></trkpt><trkpt lat="40.28490271521074" lon="8.557061216393322"><ele>348.0</ele><time>2026-05-02T14:54:44Z</time></trkpt><trkpt lat="40.285062924086546" lon="8.557307010599649"><ele>348.0</ele><time>2026-05-02T14:54:45Z</time></trkpt><trkpt lat="40.285206185029416" lon="8.557578819426361"><ele>348.0</ele><time>2026-05-02T14:54:46Z</time></trkpt><trkpt lat="40.28538244038415" lon="8.55785504967929"><ele>348.0</ele><time>2026-05-02T14:54:47Z</time></trkpt><trkpt lat="40.28555528695278" lon="8.558166547527277"><ele>347.0</ele><time>2026-05-02T14:54:48Z</time></trkpt><trkpt lat="40.28573471287579" lon="8.55847842482394"><ele>346.0</ele><time>2026-05-02T14:54:49Z</time></trkpt><trkpt lat="40.28592663481223" lon="8.558814295752034"><ele>346.0</ele><time>2026-05-02T14:54:50Z</time></trkpt><trkpt lat="40.28613022739984" lon="8.559164658759292"><ele>346.0</ele><time>2026-05-02T14:54:51Z</time></trkpt><trkpt lat="40.28632207811435" lon="8.559506167826354"><ele>346.0</ele><time>2026-05-02T14:54:52Z</time></trkpt><trkpt lat="40.28650414974001" lon="8.559815150506697"><ele>346.0</ele><time>2026-05-02T14:54:53Z</time></trkpt><trkpt lat="40.28667170418443" lon="8.560103304221096"><ele>346.5</ele><time>2026-05-02T14:54:54Z</time></trkpt><trkpt lat="40.28682862341835" lon="8.560374778690306"><ele>347.0</ele><time>2026-05-02T14:54:55Z</time></trkpt><trkpt lat="40.286985107932345" lon="8.560641910406249"><ele>347.0</ele><time>2026-05-02T14:54:56Z</time></trkpt><trkpt lat="40.28715708293955" lon="8.560913708674038"><ele>347.0</ele><time>2026-05-02T14:54:57Z</time></trkpt><trkpt lat="40.287338245169664" lon="8.561187773797723"><ele>346.5</ele><time>2026-05-02T14:54:58Z</time></trkpt><trkpt lat="40.28752075467665" lon="8.561472045048435"><ele>346.0</ele><time>2026-05-02T14:54:59Z</time></trkpt><trkpt lat="40.287708370094585" lon="8.561763355132815"><ele>346.0</ele><time>2026-05-02T14:55:00Z</time></trkpt><trkpt lat="40.28790104643191" lon="8.562064663808085"><ele>346.0</ele><time>2026-05-02T14:55:01Z</time></trkpt><trkpt lat="40.28809660331527" lon="8.56237135723393"><ele>346.0</ele><time>2026-05-02T14:55:02Z</time></trkpt><trkpt lat="40.28829231217445" lon="8.562671204561003"><ele>346.0</ele><time>2026-05-02T14:55:03Z</time></trkpt><trkpt lat="40.288486158787535" lon="8.562969825841275"><ele>346.0</ele><time>2026-05-02T14:55:04Z</time></trkpt><trkpt lat="40.28867192927031" lon="8.56325321155996"><ele>346.0</ele><time>2026-05-02T14:55:05Z</time></trkpt><trkpt lat="40.288842569406306" lon="8.56351136427784"><ele>345.3333333333333</ele><time>2026-05-02T14:55:06Z</time></trkpt><trkpt lat="40.288989494116706" lon="8.5637383965312"><ele>344.6666666666667</ele><time>2026-05-02T14:55:07Z</time></trkpt><trkpt lat="40.28909833226702" lon="8.56392952290756"><ele>344.0</ele><time>2026-05-02T14:55:08Z</time></trkpt><trkpt lat="40.28915465533279" lon="8.564105120982786"><ele>344.0</ele><time>2026-05-02T14:55:09Z</time></trkpt><trkpt lat="40.28914532433109" lon="8.564312421483086"><ele>344.0</ele><time>2026-05-02T14:55:10Z</time></trkpt><trkpt lat="40.28910857001719" lon="8.564537243318881"><ele>344.0</ele><time>2026-05-02T14:55:11Z</time></trkpt><trkpt lat="40.289072924411904" lon="8.564831131833653"><ele>342.5</ele><time>2026-05-02T14:55:12Z</time></trkpt><trkpt lat="40.28901238992643" lon="8.565171818083764"><ele>341.0</ele><time>2026-05-02T14:55:13Z</time></trkpt><trkpt lat="40.28895250049413" lon="8.565534171626055"><ele>342.6666666666667</ele><time>2026-05-02T14:55:14Z</time></trkpt><trkpt lat="40.28890267818042" lon="8.565838845697474"><ele>344.3333333333333</ele><time>2026-05-02T14:55:15Z</time></trkpt><trkpt lat="40.288866501330396" lon="8.566065759108026"><ele>346.0</ele><time>2026-05-02T14:55:16Z</time></trkpt><trkpt lat="40.28885483406681" lon="8.566230396442323"><ele>346.25</ele><time>2026-05-02T14:55:17Z</time></trkpt><trkpt lat="40.28889369163225" lon="8.566324929831781"><ele>346.5</ele><time>2026-05-02T14:55:18Z</time></trkpt><trkpt lat="40.288978183056166" lon="8.566399846397275"><ele>346.75</ele><time>2026-05-02T14:55:19Z</time></trkpt><trkpt lat="40.28913976555117" lon="8.566471153849106"><ele>347.0</ele><time>2026-05-02T14:55:20Z</time></trkpt><trkpt lat="40.28930578675739" lon="8.566539994540793"><ele>346.75</ele><time>2026-05-02T14:55:21Z</time></trkpt><trkpt lat="40.28943782572147" lon="8.566576824925502"><ele>346.5</ele><time>2026-05-02T14:55:22Z</time></trkpt><trkpt lat="40.28954091037406" lon="8.566522784831564"><ele>346.25</ele><time>2026-05-02T14:55:23Z</time></trkpt><trkpt lat="40.28964437315967" lon="8.566411205792171"><ele>346.0</ele><time>2026-05-02T14:55:24Z</time></trkpt><trkpt lat="40.28977414856083" lon="8.566322890035652"><ele>346.0</ele><time>2026-05-02T14:55:25Z</time></trkpt><trkpt lat="40.28994226833998" lon="8.566363679951843"><ele>346.0</ele><time>2026-05-02T14:55:26Z</time></trkpt><trkpt lat="40.290140131644776" lon="8.566388115191032"><ele>346.0</ele><time>2026-05-02T14:55:27Z</time></trkpt><trkpt lat="40.29037521901994" lon="8.566397423801478"><ele>347.0</ele><time>2026-05-02T14:55:28Z</time></trkpt><trkpt lat="40.290648827017684" lon="8.566429335718055"><ele>348.0</ele><time>2026-05-02T14:55:29Z</time></trkpt><trkpt lat="40.29091711228505" lon="8.566452954081313"><ele>348.0</ele><time>2026-05-02T14:55:30Z</time></trkpt><trkpt lat="40.29111396598269" lon="8.566478679404476"><ele>348.0</ele><time>2026-05-02T14:55:31Z</time></trkpt><trkpt lat="40.29124573681715" lon="8.566509450876268"><ele>348.0</ele><time>2026-05-02T14:55:32Z</time></trkpt><trkpt lat="40.29134053997934" lon="8.566607858085597"><ele>348.0</ele><time>2026-05-02T14:55:33Z</time></trkpt><trkpt lat="40.29139574000531" lon="8.566778171365714"><ele>348.0</ele><time>2026-05-02T14:55:34Z</time></trkpt><trkpt lat="40.29146885904171" lon="8.567002155066548"><ele>348.0</ele><time>2026-05-02T14:55:35Z</time></trkpt><trkpt lat="40.29156025337207" lon="8.567286994140263"><ele>350.5</ele><time>2026-05-02T14:55:36Z</time></trkpt><trkpt lat="40.29168167472706" lon="8.567614486775206"><ele>353.0</ele><time>2026-05-02T14:55:37Z</time></trkpt><trkpt lat="40.291803409798746" lon="8.567997996532744"><ele>353.5</ele><time>2026-05-02T14:55:38Z</time></trkpt><trkpt lat="40.29192189034207" lon="8.56842810140528"><ele>354.0</ele><time>2026-05-02T14:55:39Z</time></trkpt><trkpt lat="40.29205367861266" lon="8.56884394611637"><ele>354.0</ele><time>2026-05-02T14:55:40Z</time></trkpt><trkpt lat="40.29216785735561" lon="8.569204993408249"><ele>354.0</ele><time>2026-05-02T14:55:41Z</time></trkpt><trkpt lat="40.29226246755862" lon="8.569505391079684"><ele>356.5</ele><time>2026-05-02T14:55:42Z</time></trkpt><trkpt lat="40.29235751653138" lon="8.569807180921135"><ele>359.0</ele><time>2026-05-02T14:55:43Z</time></trkpt><trkpt lat="40.29245090683983" lon="8.570093570051565"><ele>359.0</ele><time>2026-05-02T14:55:44Z</time></trkpt><trkpt lat="40.29266092660619" lon="8.570340991905717"><ele>359.0</ele><time>2026-05-02T14:55:45Z</time></trkpt><trkpt lat="40.29285429684298" lon="8.570624371371819"><ele>359.0</ele><time>2026-05-02T14:55:46Z</time></trkpt><trkpt lat="40.29307851008383" lon="8.57091758677658"><ele>359.0</ele><time>2026-05-02T14:55:47Z</time></trkpt><trkpt lat="40.29329243103104" lon="8.571225247414484"><ele>359.0</ele><time>2026-05-02T14:55:48Z</time></trkpt><trkpt lat="40.293516739923525" lon="8.571539032976407"><ele>359.0</ele><time>2026-05-02T14:55:49Z</time></trkpt><trkpt lat="40.293719133989526" lon="8.571818759007966"><ele>360.0</ele><time>2026-05-02T14:55:50Z</time></trkpt><trkpt lat="40.29390647462277" lon="8.572083670826158"><ele>361.0</ele><time>2026-05-02T14:55:51Z</time></trkpt><trkpt lat="40.29409406469657" lon="8.572346745135594"><ele>361.0</ele><time>2026-05-02T14:55:52Z</time></trkpt><trkpt lat="40.29428238828154" lon="8.572610137491148"><ele>361.0</ele><time>2026-05-02T14:55:53Z</time></trkpt><trkpt lat="40.29446922453817" lon="8.572870299146675"><ele>361.5</ele><time>2026-05-02T14:55:54Z</time></trkpt><trkpt lat="40.2946546048879" lon="8.573127169591029"><ele>362.0</ele><time>2026-05-02T14:55:55Z</time></trkpt><trkpt lat="40.2948385092431" lon="8.573382641380148"><ele>362.5</ele><time>2026-05-02T14:55:56Z</time></trkpt><trkpt lat="40.2950203433559" lon="8.57363805274197"><ele>363.0</ele><time>2026-05-02T14:55:57Z</time></trkpt><trkpt lat="40.295201932312445" lon="8.57389592627209"><ele>364.0</ele><time>2026-05-02T14:55:58Z</time></trkpt><trkpt lat="40.29537305107888" lon="8.574132743095692"><ele>365.0</ele><time>2026-05-02T14:55:59Z</time></trkpt><trkpt lat="40.29553752446967" lon="8.574374568965862"><ele>364.5</ele><time>2026-05-02T14:56:00Z</time></trkpt><trkpt lat="40.295713241908764" lon="8.574623354588834"><ele>364.0</ele><time>2026-05-02T14:56:01Z</time></trkpt><trkpt lat="40.29590186825433" lon="8.574859632922443"><ele>364.0</ele><time>2026-05-02T14:56:02Z</time></trkpt><trkpt lat="40.2961084186714" lon="8.57508290771148"><ele>364.0</ele><time>2026-05-02T14:56:03Z</time></trkpt><trkpt lat="40.296323174497374" lon="8.575291805684422"><ele>365.0</ele><time>2026-05-02T14:56:04Z</time></trkpt><trkpt lat="40.29654617597014" lon="8.575515770618903"><ele>366.0</ele><time>2026-05-02T14:56:05Z</time></trkpt><trkpt lat="40.29676260029284" lon="8.575727539379196"><ele>366.0</ele><time>2026-05-02T14:56:06Z</time></trkpt><trkpt lat="40.296975744065264" lon="8.575934555224014"><ele>366.0</ele><time>2026-05-02T14:56:07Z</time></trkpt><trkpt lat="40.29718441818334" lon="8.576135340381843"><ele>365.5</ele><time>2026-05-02T14:56:08Z</time></trkpt><trkpt lat="40.29738887180135" lon="8.576333127942597"><ele>365.0</ele><time>2026-05-02T14:56:09Z</time></trkpt><trkpt lat="40.2975943846505" lon="8.576532861705001"><ele>365.0</ele><time>2026-05-02T14:56:10Z</time></trkpt><trkpt lat="40.297807535568495" lon="8.576737496848034"><ele>365.0</ele><time>2026-05-02T14:56:11Z</time></trkpt><trkpt lat="40.298027242729965" lon="8.576951498333834"><ele>363.5</ele><time>2026-05-02T14:56:12Z</time></trkpt><trkpt lat="40.298251431308216" lon="8.577167617152522"><ele>362.0</ele><time>2026-05-02T14:56:13Z</time></trkpt><trkpt lat="40.29848035071206" lon="8.577389382508247"><ele>362.0</ele><time>2026-05-02T14:56:14Z</time></trkpt><trkpt lat="40.29870746374672" lon="8.577609352754841"><ele>362.0</ele><time>2026-05-02T14:56:15Z</time></trkpt><trkpt lat="40.29892070386589" lon="8.577812952301777"><ele>364.0</ele><time>2026-05-02T14:56:16Z</time></trkpt><trkpt lat="40.299116686876076" lon="8.577996250852541"><ele>366.0</ele><time>2026-05-02T14:56:17Z</time></trkpt><trkpt lat="40.29929786538064" lon="8.578172481101717"><ele>366.0</ele><time>2026-05-02T14:56:18Z</time></trkpt><trkpt lat="40.29949570466407" lon="8.57836491150187"><ele>366.0</ele><time>2026-05-02T14:56:19Z</time></trkpt><trkpt lat="40.29969025696246" lon="8.578555315779397"><ele>367.5</ele><time>2026-05-02T14:56:20Z</time></trkpt><trkpt lat="40.29988819802185" lon="8.57874766678259"><ele>369.0</ele><time>2026-05-02T14:56:21Z</time></trkpt><trkpt lat="40.30009156921283" lon="8.578952895507136"><ele>369.0</ele><time>2026-05-02T14:56:22Z</time></trkpt><trkpt lat="40.30029635642744" lon="8.579174906315181"><ele>369.0</ele><time>2026-05-02T14:56:23Z</time></trkpt><trkpt lat="40.30050458540285" lon="8.57941249406659"><ele>368.0</ele><time>2026-05-02T14:56:24Z</time></trkpt><trkpt lat="40.30070112618318" lon="8.579650810779778"><ele>367.0</ele><time>2026-05-02T14:56:25Z</time></trkpt><trkpt lat="40.30088762832769" lon="8.579864513897322"><ele>367.0</ele><time>2026-05-02T14:56:26Z</time></trkpt><trkpt lat="40.301068592998206" lon="8.580070189047479"><ele>367.0</ele><time>2026-05-02T14:56:27Z</time></trkpt><trkpt lat="40.30124941005753" lon="8.58027223287955"><ele>364.0</ele><time>2026-05-02T14:56:28Z</time></trkpt><trkpt lat="40.301428958658825" lon="8.580511014172442"><ele>361.0</ele><time>2026-05-02T14:56:29Z</time></trkpt><trkpt lat="40.30162178666868" lon="8.58074089800548"><ele>361.0</ele><time>2026-05-02T14:56:30Z</time></trkpt><trkpt lat="40.30180362744361" lon="8.580955506927136"><ele>361.0</ele><time>2026-05-02T14:56:31Z</time></trkpt><trkpt lat="40.30197738724759" lon="8.581163408430802"><ele>359.0</ele><time>2026-05-02T14:56:32Z</time></trkpt><trkpt lat="40.30214401418889" lon="8.581360711572795"><ele>357.0</ele><time>2026-05-02T14:56:33Z</time></trkpt><trkpt lat="40.30228701877225" lon="8.581534308637599"><ele>355.0</ele><time>2026-05-02T14:56:34Z</time></trkpt><trkpt lat="40.302413475715824" lon="8.581718086534144"><ele>354.75</ele><time>2026-05-02T14:56:35Z</time></trkpt><trkpt lat="40.302543841714694" lon="8.58184633868056"><ele>354.5</ele><time>2026-05-02T14:56:36Z</time></trkpt><trkpt lat="40.30263251114479" lon="8.581975797086507"><ele>354.25</ele><time>2026-05-02T14:56:37Z</time></trkpt><trkpt lat="40.30266846871796" lon="8.582103195787948"><ele>354.0</ele><time>2026-05-02T14:56:38Z</time></trkpt><trkpt lat="40.30264033497102" lon="8.582215140447081"><ele>354.4</ele><time>2026-05-02T14:56:39Z</time></trkpt><trkpt lat="40.302600208448794" lon="8.582331612776605"><ele>354.79999999999995</ele><time>2026-05-02T14:56:40Z</time></trkpt><trkpt lat="40.30254098400928" lon="8.58246925815644"><ele>355.20000000000005</ele><time>2026-05-02T14:56:41Z</time></trkpt><trkpt lat="40.30253767919722" lon="8.582597218579924"><ele>355.6</ele><time>2026-05-02T14:56:42Z</time></trkpt><trkpt lat="40.302580087499464" lon="8.582700504956017"><ele>356.0</ele><time>2026-05-02T14:56:43Z</time></trkpt><trkpt lat="40.30269099407066" lon="8.58275773496341"><ele>356.0</ele><time>2026-05-02T14:56:44Z</time></trkpt><trkpt lat="40.302843956529536" lon="8.582838286729368"><ele>356.0</ele><time>2026-05-02T14:56:45Z</time></trkpt><trkpt lat="40.30304226886712" lon="8.582941628973174"><ele>356.0</ele><time>2026-05-02T14:56:46Z</time></trkpt><trkpt lat="40.303223422729225" lon="8.583043357958285"><ele>357.33333333333337</ele><time>2026-05-02T14:56:47Z</time></trkpt><trkpt lat="40.30339786799581" lon="8.583027178979254"><ele>358.6666666666667</ele><time>2026-05-02T14:56:48Z</time></trkpt><trkpt lat="40.30357668046936" lon="8.58298256222317"><ele>360.0</ele><time>2026-05-02T14:56:49Z</time></trkpt><trkpt lat="40.30372429010175" lon="8.582876732320319"><ele>360.3333333333333</ele><time>2026-05-02T14:56:50Z</time></trkpt><trkpt lat="40.30385086278868" lon="8.582715686911213"><ele>360.66666666666663</ele><time>2026-05-02T14:56:51Z</time></trkpt><trkpt lat="40.30398334674256" lon="8.582491536287181"><ele>361.0</ele><time>2026-05-02T14:56:52Z</time></trkpt><trkpt lat="40.3041422305775" lon="8.582261190464115"><ele>361.0</ele><time>2026-05-02T14:56:53Z</time></trkpt><trkpt lat="40.30429130214459" lon="8.582104222301012"><ele>361.0</ele><time>2026-05-02T14:56:54Z</time></trkpt><trkpt lat="40.30446896278652" lon="8.58195394738199"><ele>361.0</ele><time>2026-05-02T14:56:55Z</time></trkpt><trkpt lat="40.30468123447949" lon="8.581820202980206"><ele>361.0</ele><time>2026-05-02T14:56:56Z</time></trkpt><trkpt lat="40.30489294604514" lon="8.58171254434894"><ele>361.0</ele><time>2026-05-02T14:56:57Z</time></trkpt><trkpt lat="40.30509028793145" lon="8.5816388137646"><ele>361.0</ele><time>2026-05-02T14:56:58Z</time></trkpt><trkpt lat="40.30529769822322" lon="8.581600803207225"><ele>361.0</ele><time>2026-05-02T14:56:59Z</time></trkpt><trkpt lat="40.30552011132438" lon="8.581571151048605"><ele>361.0</ele><time>2026-05-02T14:57:00Z</time></trkpt><trkpt lat="40.30577268658748" lon="8.581549455348528"><ele>360.0</ele><time>2026-05-02T14:57:01Z</time></trkpt><trkpt lat="40.30601391421686" lon="8.581520935645583"><ele>359.0</ele><time>2026-05-02T14:57:02Z</time></trkpt><trkpt lat="40.3062432952968" lon="8.581500580468914"><ele>357.5</ele><time>2026-05-02T14:57:03Z</time></trkpt><trkpt lat="40.30648198886293" lon="8.581483665813304"><ele>356.0</ele><time>2026-05-02T14:57:04Z</time></trkpt><trkpt lat="40.30672074084195" lon="8.581470560163043"><ele>356.0</ele><time>2026-05-02T14:57:05Z</time></trkpt><trkpt lat="40.306956401822234" lon="8.581454726883386"><ele>356.0</ele><time>2026-05-02T14:57:06Z</time></trkpt><trkpt lat="40.3071925175892" lon="8.5814413517191"><ele>355.0</ele><time>2026-05-02T14:57:07Z</time></trkpt><trkpt lat="40.30743514983894" lon="8.581431006511055"><ele>354.0</ele><time>2026-05-02T14:57:08Z</time></trkpt><trkpt lat="40.307675986072084" lon="8.581417134968994"><ele>354.0</ele><time>2026-05-02T14:57:09Z</time></trkpt><trkpt lat="40.30791555330048" lon="8.581404240227007"><ele>354.0</ele><time>2026-05-02T14:57:10Z</time></trkpt><trkpt lat="40.308156029949956" lon="8.581392489429575"><ele>353.0</ele><time>2026-05-02T14:57:11Z</time></trkpt><trkpt lat="40.30839475165911" lon="8.581378987586993"><ele>352.0</ele><time>2026-05-02T14:57:12Z</time></trkpt><trkpt lat="40.30863504423514" lon="8.581366217982653"><ele>352.0</ele><time>2026-05-02T14:57:13Z</time></trkpt><trkpt lat="40.3088753985186" lon="8.581353016151432"><ele>352.0</ele><time>2026-05-02T14:57:14Z</time></trkpt><trkpt lat="40.30911540241504" lon="8.581341093279786"><ele>352.0</ele><time>2026-05-02T14:57:15Z</time></trkpt><trkpt lat="40.30935990112694" lon="8.581330711918078"><ele>352.0</ele><time>2026-05-02T14:57:16Z</time></trkpt><trkpt lat="40.30960852410026" lon="8.581311032374268"><ele>351.0</ele><time>2026-05-02T14:57:17Z</time></trkpt><trkpt lat="40.309856709144555" lon="8.581269478832626"><ele>350.0</ele><time>2026-05-02T14:57:18Z</time></trkpt><trkpt lat="40.31009703683606" lon="8.581215039365294"><ele>349.6666666666667</ele><time>2026-05-02T14:57:19Z</time></trkpt><trkpt lat="40.31031737114859" lon="8.581165283495336"><ele>349.3333333333333</ele><time>2026-05-02T14:57:20Z</time></trkpt><trkpt lat="40.310524087955784" lon="8.581111851540632"><ele>349.0</ele><time>2026-05-02T14:57:21Z</time></trkpt><trkpt lat="40.31071626477681" lon="8.581029865664455"><ele>348.0</ele><time>2026-05-02T14:57:22Z</time></trkpt><trkpt lat="40.310905209440776" lon="8.580899149919585"><ele>347.0</ele><time>2026-05-02T14:57:23Z</time></trkpt><trkpt lat="40.31109592728794" lon="8.580711721369417"><ele>347.0</ele><time>2026-05-02T14:57:24Z</time></trkpt><trkpt lat="40.31129797827881" lon="8.580502103737683"><ele>347.0</ele><time>2026-05-02T14:57:25Z</time></trkpt><trkpt lat="40.311510122831756" lon="8.5802933371865"><ele>345.5</ele><time>2026-05-02T14:57:26Z</time></trkpt><trkpt lat="40.31173248682649" lon="8.580077572067271"><ele>344.0</ele><time>2026-05-02T14:57:27Z</time></trkpt><trkpt lat="40.31195028184748" lon="8.579861533462825"><ele>344.0</ele><time>2026-05-02T14:57:28Z</time></trkpt><trkpt lat="40.31215201521174" lon="8.579660246736227"><ele>344.0</ele><time>2026-05-02T14:57:29Z</time></trkpt><trkpt lat="40.312341234154026" lon="8.579475394910277"><ele>342.5</ele><time>2026-05-02T14:57:30Z</time></trkpt><trkpt lat="40.31251893247777" lon="8.579298561840348"><ele>341.0</ele><time>2026-05-02T14:57:31Z</time></trkpt><trkpt lat="40.312706864312915" lon="8.579110588627708"><ele>341.0</ele><time>2026-05-02T14:57:32Z</time></trkpt><trkpt lat="40.31290456325221" lon="8.57891734519893"><ele>341.0</ele><time>2026-05-02T14:57:33Z</time></trkpt><trkpt lat="40.31310140929037" lon="8.578723945502842"><ele>340.0</ele><time>2026-05-02T14:57:34Z</time></trkpt><trkpt lat="40.313295972385774" lon="8.578542006200049"><ele>339.0</ele><time>2026-05-02T14:57:35Z</time></trkpt><trkpt lat="40.31348524604343" lon="8.578354828965333"><ele>339.0</ele><time>2026-05-02T14:57:36Z</time></trkpt><trkpt lat="40.31368054546076" lon="8.578159635739643"><ele>339.0</ele><time>2026-05-02T14:57:37Z</time></trkpt><trkpt lat="40.31387698745552" lon="8.577964384545956"><ele>338.5</ele><time>2026-05-02T14:57:38Z</time></trkpt><trkpt lat="40.31407655965918" lon="8.577767997859937"><ele>338.0</ele><time>2026-05-02T14:57:39Z</time></trkpt><trkpt lat="40.31427978148316" lon="8.577569721274847"><ele>338.0</ele><time>2026-05-02T14:57:40Z</time></trkpt><trkpt lat="40.314476296021944" lon="8.577375730179467"><ele>338.0</ele><time>2026-05-02T14:57:41Z</time></trkpt><trkpt lat="40.31465596003821" lon="8.57719611162049"><ele>336.0</ele><time>2026-05-02T14:57:42Z</time></trkpt><trkpt lat="40.31482576655946" lon="8.5770267397584"><ele>334.0</ele><time>2026-05-02T14:57:43Z</time></trkpt><trkpt lat="40.31498910669426" lon="8.576868012830692"><ele>332.0</ele><time>2026-05-02T14:57:44Z</time></trkpt><trkpt lat="40.315133188785055" lon="8.576736774792687"><ele>331.75</ele><time>2026-05-02T14:57:45Z</time></trkpt><trkpt lat="40.31526661466866" lon="8.5766655400995"><ele>331.5</ele><time>2026-05-02T14:57:46Z</time></trkpt><trkpt lat="40.315410297830525" lon="8.576660796165147"><ele>331.25</ele><time>2026-05-02T14:57:47Z</time></trkpt><trkpt lat="40.31555715297291" lon="8.576727101300357"><ele>331.0</ele><time>2026-05-02T14:57:48Z</time></trkpt><trkpt lat="40.315722595127816" lon="8.57683996854907"><ele>331.0</ele><time>2026-05-02T14:57:49Z</time></trkpt><trkpt lat="40.31590650581019" lon="8.57698425470496"><ele>331.0</ele><time>2026-05-02T14:57:50Z</time></trkpt><trkpt lat="40.31610693729486" lon="8.577133102549299"><ele>331.0</ele><time>2026-05-02T14:57:51Z</time></trkpt><trkpt lat="40.316331502760136" lon="8.577297094561832"><ele>331.0</ele><time>2026-05-02T14:57:52Z</time></trkpt><trkpt lat="40.31657145420223" lon="8.577480428507483"><ele>331.0</ele><time>2026-05-02T14:57:53Z</time></trkpt><trkpt lat="40.316826969185044" lon="8.577670279598857"><ele>332.0</ele><time>2026-05-02T14:57:54Z</time></trkpt><trkpt lat="40.317071909245556" lon="8.577859048647667"><ele>333.0</ele><time>2026-05-02T14:57:55Z</time></trkpt><trkpt lat="40.317323850679735" lon="8.578052397184456"><ele>331.0</ele><time>2026-05-02T14:57:56Z</time></trkpt><trkpt lat="40.3175688523488" lon="8.578237769744362"><ele>329.0</ele><time>2026-05-02T14:57:57Z</time></trkpt><trkpt lat="40.31779810479254" lon="8.578409339044663"><ele>329.0</ele><time>2026-05-02T14:57:58Z</time></trkpt><trkpt lat="40.31801638000794" lon="8.578569936068511"><ele>329.0</ele><time>2026-05-02T14:57:59Z</time></trkpt><trkpt lat="40.318235119065825" lon="8.57873282883128"><ele>329.0</ele><time>2026-05-02T14:58:00Z</time></trkpt><trkpt lat="40.31845504345268" lon="8.578898799132107"><ele>329.0</ele><time>2026-05-02T14:58:01Z</time></trkpt><trkpt lat="40.31867746262622" lon="8.579062929762259"><ele>329.0</ele><time>2026-05-02T14:58:02Z</time></trkpt><trkpt lat="40.31889377548128" lon="8.579225340116647"><ele>329.0</ele><time>2026-05-02T14:58:03Z</time></trkpt><trkpt lat="40.319095912970695" lon="8.579378179024568"><ele>330.0</ele><time>2026-05-02T14:58:04Z</time></trkpt><trkpt lat="40.31930183028143" lon="8.57953178133032"><ele>331.0</ele><time>2026-05-02T14:58:05Z</time></trkpt><trkpt lat="40.31950187288005" lon="8.579680434124553"><ele>331.0</ele><time>2026-05-02T14:58:06Z</time></trkpt><trkpt lat="40.319689657860835" lon="8.579818321573784"><ele>331.0</ele><time>2026-05-02T14:58:07Z</time></trkpt><trkpt lat="40.319876011512164" lon="8.579954518981818"><ele>331.0</ele><time>2026-05-02T14:58:08Z</time></trkpt><trkpt lat="40.32007161912225" lon="8.580087935167334"><ele>330.5</ele><time>2026-05-02T14:58:09Z</time></trkpt><trkpt lat="40.320281203706536" lon="8.580212401646994"><ele>330.0</ele><time>2026-05-02T14:58:10Z</time></trkpt><trkpt lat="40.320502266829244" lon="8.58032834700621"><ele>329.5</ele><time>2026-05-02T14:58:11Z</time></trkpt><trkpt lat="40.320735126159896" lon="8.580437475728436"><ele>329.0</ele><time>2026-05-02T14:58:12Z</time></trkpt><trkpt lat="40.320976605110815" lon="8.580545273948742"><ele>329.0</ele><time>2026-05-02T14:58:13Z</time></trkpt><trkpt lat="40.32122841625799" lon="8.580654074673342"><ele>329.0</ele><time>2026-05-02T14:58:14Z</time></trkpt><trkpt lat="40.321479246101624" lon="8.580770537600836"><ele>328.0</ele><time>2026-05-02T14:58:15Z</time></trkpt><trkpt lat="40.321739577960074" lon="8.580886976052478"><ele>327.0</ele><time>2026-05-02T14:58:16Z</time></trkpt><trkpt lat="40.3220026010866" lon="8.581006081754836"><ele>327.5</ele><time>2026-05-02T14:58:17Z</time></trkpt><trkpt lat="40.3222673090557" lon="8.581125149087754"><ele>328.0</ele><time>2026-05-02T14:58:18Z</time></trkpt><trkpt lat="40.32252355040714" lon="8.581241063198794"><ele>328.0</ele><time>2026-05-02T14:58:19Z</time></trkpt><trkpt lat="40.32276021673003" lon="8.581346903065453"><ele>328.0</ele><time>2026-05-02T14:58:20Z</time></trkpt><trkpt lat="40.322992314017554" lon="8.581447767104498"><ele>327.5</ele><time>2026-05-02T14:58:21Z</time></trkpt><trkpt lat="40.32321903439427" lon="8.581554174664829"><ele>327.0</ele><time>2026-05-02T14:58:22Z</time></trkpt><trkpt lat="40.323439288744694" lon="8.58165262919812"><ele>327.0</ele><time>2026-05-02T14:58:23Z</time></trkpt><trkpt lat="40.32366345570361" lon="8.581754651850883"><ele>327.0</ele><time>2026-05-02T14:58:24Z</time></trkpt><trkpt lat="40.32389424769572" lon="8.581851539161846"><ele>328.0</ele><time>2026-05-02T14:58:25Z</time></trkpt><trkpt lat="40.32412850564253" lon="8.581954766876025"><ele>329.0</ele><time>2026-05-02T14:58:26Z</time></trkpt><trkpt lat="40.32436829211466" lon="8.582053821686705"><ele>329.0</ele><time>2026-05-02T14:58:27Z</time></trkpt><trkpt lat="40.32460852144577" lon="8.582164630507666"><ele>329.0</ele><time>2026-05-02T14:58:28Z</time></trkpt><trkpt lat="40.3248638478684" lon="8.58228291981831"><ele>331.0</ele><time>2026-05-02T14:58:29Z</time></trkpt><trkpt lat="40.32510235488907" lon="8.582400117176828"><ele>333.0</ele><time>2026-05-02T14:58:30Z</time></trkpt><trkpt lat="40.32532282664881" lon="8.58251147851999"><ele>333.0</ele><time>2026-05-02T14:58:31Z</time></trkpt><trkpt lat="40.32554242138718" lon="8.582621051398238"><ele>333.0</ele><time>2026-05-02T14:58:32Z</time></trkpt><trkpt lat="40.32577777807233" lon="8.582733511013968"><ele>334.5</ele><time>2026-05-02T14:58:33Z</time></trkpt><trkpt lat="40.32603306064025" lon="8.58282315197497"><ele>336.0</ele><time>2026-05-02T14:58:34Z</time></trkpt><trkpt lat="40.3262858725257" lon="8.582925513277349"><ele>336.0</ele><time>2026-05-02T14:58:35Z</time></trkpt><trkpt lat="40.326528446322605" lon="8.58303285742074"><ele>336.0</ele><time>2026-05-02T14:58:36Z</time></trkpt><trkpt lat="40.32676633683335" lon="8.583138638779193"><ele>336.0</ele><time>2026-05-02T14:58:37Z</time></trkpt><trkpt lat="40.32700817281176" lon="8.58324187879403"><ele>336.0</ele><time>2026-05-02T14:58:38Z</time></trkpt><trkpt lat="40.32725256875964" lon="8.583353544766751"><ele>335.5</ele><time>2026-05-02T14:58:39Z</time></trkpt><trkpt lat="40.32749772003156" lon="8.583461629058322"><ele>335.0</ele><time>2026-05-02T14:58:40Z</time></trkpt><trkpt lat="40.32774273488233" lon="8.583572622076856"><ele>335.5</ele><time>2026-05-02T14:58:41Z</time></trkpt><trkpt lat="40.327984070185714" lon="8.58368560277787"><ele>336.0</ele><time>2026-05-02T14:58:42Z</time></trkpt><trkpt lat="40.32821921339417" lon="8.583790083554728"><ele>336.0</ele><time>2026-05-02T14:58:43Z</time></trkpt><trkpt lat="40.32845609384437" lon="8.583896442633172"><ele>336.0</ele><time>2026-05-02T14:58:44Z</time></trkpt><trkpt lat="40.32869609943111" lon="8.584002819377302"><ele>335.5</ele><time>2026-05-02T14:58:45Z</time></trkpt><trkpt lat="40.32893601468033" lon="8.584109805388874"><ele>335.0</ele><time>2026-05-02T14:58:46Z</time></trkpt><trkpt lat="40.329176959678996" lon="8.584218735748731"><ele>335.0</ele><time>2026-05-02T14:58:47Z</time></trkpt><trkpt lat="40.329419448605655" lon="8.584329241070016"><ele>335.0</ele><time>2026-05-02T14:58:48Z</time></trkpt><trkpt lat="40.32966402801986" lon="8.58444043752787"><ele>335.5</ele><time>2026-05-02T14:58:49Z</time></trkpt><trkpt lat="40.3299094004365" lon="8.58455092804028"><ele>336.0</ele><time>2026-05-02T14:58:50Z</time></trkpt><trkpt lat="40.33015566056562" lon="8.584661779465641"><ele>336.0</ele><time>2026-05-02T14:58:51Z</time></trkpt><trkpt lat="40.33040180939067" lon="8.58477340124548"><ele>336.0</ele><time>2026-05-02T14:58:52Z</time></trkpt><trkpt lat="40.33064252241375" lon="8.584879433042003"><ele>336.5</ele><time>2026-05-02T14:58:53Z</time></trkpt><trkpt lat="40.33086870326605" lon="8.584981107733928"><ele>337.0</ele><time>2026-05-02T14:58:54Z</time></trkpt><trkpt lat="40.33108109089043" lon="8.585082459949659"><ele>337.0</ele><time>2026-05-02T14:58:55Z</time></trkpt><trkpt lat="40.33128394035465" lon="8.585176603787616"><ele>337.0</ele><time>2026-05-02T14:58:56Z</time></trkpt><trkpt lat="40.33147609688749" lon="8.58526582635399"><ele>337.0</ele><time>2026-05-02T14:58:57Z</time></trkpt><trkpt lat="40.331667135169006" lon="8.5853481887789"><ele>336.66666666666663</ele><time>2026-05-02T14:58:58Z</time></trkpt><trkpt lat="40.33183016876687" lon="8.585378631650093"><ele>336.3333333333333</ele><time>2026-05-02T14:58:59Z</time></trkpt><trkpt lat="40.331993105855915" lon="8.585355949157604"><ele>336.0</ele><time>2026-05-02T14:59:00Z</time></trkpt><trkpt lat="40.33217935763783" lon="8.585256202618757"><ele>335.6666666666667</ele><time>2026-05-02T14:59:01Z</time></trkpt><trkpt lat="40.332378047834155" lon="8.585189916515745"><ele>335.33333333333337</ele><time>2026-05-02T14:59:02Z</time></trkpt><trkpt lat="40.33258209417243" lon="8.585189332559764"><ele>335.0</ele><time>2026-05-02T14:59:03Z</time></trkpt><trkpt lat="40.33280582589813" lon="8.58517176987877"><ele>335.0</ele><time>2026-05-02T14:59:04Z</time></trkpt><trkpt lat="40.33301742669282" lon="8.585160183009151"><ele>335.0</ele><time>2026-05-02T14:59:05Z</time></trkpt><trkpt lat="40.333218273492506" lon="8.585137049294818"><ele>335.0</ele><time>2026-05-02T14:59:06Z</time></trkpt><trkpt lat="40.33340978377881" lon="8.585108532388043"><ele>334.0</ele><time>2026-05-02T14:59:07Z</time></trkpt><trkpt lat="40.333585722718624" lon="8.585080826202482"><ele>333.0</ele><time>2026-05-02T14:59:08Z</time></trkpt><trkpt lat="40.33375604855716" lon="8.585070834149555"><ele>332.0</ele><time>2026-05-02T14:59:09Z</time></trkpt><trkpt lat="40.333886655149435" lon="8.585116251783584"><ele>331.6666666666667</ele><time>2026-05-02T14:59:10Z</time></trkpt><trkpt lat="40.33397019502002" lon="8.585259419218316"><ele>331.3333333333333</ele><time>2026-05-02T14:59:11Z</time></trkpt><trkpt lat="40.33406244704685" lon="8.58544612312423"><ele>331.0</ele><time>2026-05-02T14:59:12Z</time></trkpt><trkpt lat="40.33416794861526" lon="8.585646418444778"><ele>330.0</ele><time>2026-05-02T14:59:13Z</time></trkpt><trkpt lat="40.334288741890695" lon="8.585821818089645"><ele>329.0</ele><time>2026-05-02T14:59:14Z</time></trkpt><trkpt lat="40.33442136706802" lon="8.585958083124503"><ele>328.0</ele><time>2026-05-02T14:59:15Z</time></trkpt><trkpt lat="40.33459653489597" lon="8.58606176546449"><ele>328.0</ele><time>2026-05-02T14:59:16Z</time></trkpt><trkpt lat="40.33479287271896" lon="8.586154429914412"><ele>328.0</ele><time>2026-05-02T14:59:17Z</time></trkpt><trkpt lat="40.33494871609701" lon="8.586305799616595"><ele>328.0</ele><time>2026-05-02T14:59:18Z</time></trkpt><trkpt lat="40.33505925203456" lon="8.586525596791448"><ele>328.0</ele><time>2026-05-02T14:59:19Z</time></trkpt><trkpt lat="40.33515889497836" lon="8.586736601382182"><ele>328.0</ele><time>2026-05-02T14:59:20Z</time></trkpt><trkpt lat="40.33526667389165" lon="8.58691937003235"><ele>328.0</ele><time>2026-05-02T14:59:21Z</time></trkpt><trkpt lat="40.33537638904463" lon="8.587084641516316"><ele>327.0</ele><time>2026-05-02T14:59:22Z</time></trkpt><trkpt lat="40.33551236316559" lon="8.587220791746061"><ele>326.0</ele><time>2026-05-02T14:59:23Z</time></trkpt><trkpt lat="40.335665097926764" lon="8.587346975768515"><ele>325.0</ele><time>2026-05-02T14:59:24Z</time></trkpt><trkpt lat="40.335823165168904" lon="8.58748662681472"><ele>325.0</ele><time>2026-05-02T14:59:25Z</time></trkpt><trkpt lat="40.33597040362495" lon="8.587611782325572"><ele>325.0</ele><time>2026-05-02T14:59:26Z</time></trkpt><trkpt lat="40.33610738490849" lon="8.587732768135268"><ele>325.0</ele><time>2026-05-02T14:59:27Z</time></trkpt><trkpt lat="40.33621972394084" lon="8.587841647235644"><ele>323.25</ele><time>2026-05-02T14:59:28Z</time></trkpt><trkpt lat="40.336295572614354" lon="8.587963933229682"><ele>321.5</ele><time>2026-05-02T14:59:29Z</time></trkpt><trkpt lat="40.336322398974524" lon="8.588114603365465"><ele>319.75</ele><time>2026-05-02T14:59:30Z</time></trkpt><trkpt lat="40.33629249444686" lon="8.58826941599578"><ele>318.0</ele><time>2026-05-02T14:59:31Z</time></trkpt><trkpt lat="40.33619389289722" lon="8.58841705765671"><ele>318.0</ele><time>2026-05-02T14:59:32Z</time></trkpt><trkpt lat="40.336097286285714" lon="8.588610032447038"><ele>318.0</ele><time>2026-05-02T14:59:33Z</time></trkpt><trkpt lat="40.33599832118887" lon="8.588782001461762"><ele>318.0</ele><time>2026-05-02T14:59:34Z</time></trkpt><trkpt lat="40.335900134674944" lon="8.588921428503713"><ele>316.5</ele><time>2026-05-02T14:59:35Z</time></trkpt><trkpt lat="40.33582519603847" lon="8.589068250375409"><ele>315.0</ele><time>2026-05-02T14:59:36Z</time></trkpt><trkpt lat="40.33573123530521" lon="8.5891602602301"><ele>313.5</ele><time>2026-05-02T14:59:37Z</time></trkpt><trkpt lat="40.33560691498442" lon="8.589204290707348"><ele>312.0</ele><time>2026-05-02T14:59:38Z</time></trkpt><trkpt lat="40.33548113926561" lon="8.589173281702658"><ele>305.3333333333333</ele><time>2026-05-02T14:59:39Z</time></trkpt><trkpt lat="40.335370301165995" lon="8.589057722548516"><ele>298.66666666666663</ele><time>2026-05-02T14:59:40Z</time></trkpt><trkpt lat="40.335309577006356" lon="8.58888644961822"><ele>292.0</ele><time>2026-05-02T14:59:41Z</time></trkpt><trkpt lat="40.33525823875765" lon="8.588677960411868"><ele>296.66666666666663</ele><time>2026-05-02T14:59:42Z</time></trkpt><trkpt lat="40.335161913790614" lon="8.588502563809028"><ele>301.3333333333333</ele><time>2026-05-02T14:59:43Z</time></trkpt><trkpt lat="40.33503535714822" lon="8.588330165564766"><ele>306.0</ele><time>2026-05-02T14:59:44Z</time></trkpt><trkpt lat="40.33486512541584" lon="8.588155789499185"><ele>305.0</ele><time>2026-05-02T14:59:45Z</time></trkpt><trkpt lat="40.334704969548774" lon="8.587999875593047"><ele>304.0</ele><time>2026-05-02T14:59:46Z</time></trkpt><trkpt lat="40.3345611575463" lon="8.587855573523676"><ele>303.0</ele><time>2026-05-02T14:59:47Z</time></trkpt><trkpt lat="40.3344278551596" lon="8.587708888289004"><ele>303.0</ele><time>2026-05-02T14:59:48Z</time></trkpt><trkpt lat="40.334313771223705" lon="8.587549418374179"><ele>303.0</ele><time>2026-05-02T14:59:49Z</time></trkpt><trkpt lat="40.33420048177751" lon="8.587408780133616"><ele>303.0</ele><time>2026-05-02T14:59:50Z</time></trkpt><trkpt lat="40.33407024215217" lon="8.58732448608467"><ele>303.0</ele><time>2026-05-02T14:59:51Z</time></trkpt><trkpt lat="40.333915914317075" lon="8.587282954747042"><ele>303.0</ele><time>2026-05-02T14:59:52Z</time></trkpt><trkpt lat="40.3337537307711" lon="8.587277342067532"><ele>303.0</ele><time>2026-05-02T14:59:53Z</time></trkpt><trkpt lat="40.33359331678651" lon="8.587299566703814"><ele>301.25</ele><time>2026-05-02T14:59:54Z</time></trkpt><trkpt lat="40.33344031631782" lon="8.587317806122742"><ele>299.5</ele><time>2026-05-02T14:59:55Z</time></trkpt><trkpt lat="40.33331070256539" lon="8.587343786383622"><ele>297.75</ele><time>2026-05-02T14:59:56Z</time></trkpt><trkpt lat="40.33320304095355" lon="8.587402729445438"><ele>296.0</ele><time>2026-05-02T14:59:57Z</time></trkpt><trkpt lat="40.333120683439276" lon="8.587512710644402"><ele>296.0</ele><time>2026-05-02T14:59:58Z</time></trkpt><trkpt lat="40.33308731457657" lon="8.58766225187798"><ele>296.0</ele><time>2026-05-02T14:59:59Z</time></trkpt><trkpt lat="40.333107076483" lon="8.587847994598407"><ele>296.0</ele><time>2026-05-02T15:00:00Z</time></trkpt><trkpt lat="40.33317770419222" lon="8.588026857076498"><ele>296.0</ele><time>2026-05-02T15:00:01Z</time></trkpt><trkpt lat="40.33328939578884" lon="8.588178914928275"><ele>295.0</ele><time>2026-05-02T15:00:02Z</time></trkpt><trkpt lat="40.33341534962691" lon="8.588287553245296"><ele>294.0</ele><time>2026-05-02T15:00:03Z</time></trkpt><trkpt lat="40.33352131639513" lon="8.588398675668527"><ele>293.0</ele><time>2026-05-02T15:00:04Z</time></trkpt><trkpt lat="40.333580212434065" lon="8.588543389903663"><ele>292.0</ele><time>2026-05-02T15:00:05Z</time></trkpt><trkpt lat="40.333574949943014" lon="8.588709976149543"><ele>291.3333333333333</ele><time>2026-05-02T15:00:06Z</time></trkpt><trkpt lat="40.33354628027201" lon="8.588893317558494"><ele>290.6666666666667</ele><time>2026-05-02T15:00:07Z</time></trkpt><trkpt lat="40.333486422366335" lon="8.589093001895693"><ele>290.0</ele><time>2026-05-02T15:00:08Z</time></trkpt><trkpt lat="40.333445188131776" lon="8.589304143460735"><ele>285.75</ele><time>2026-05-02T15:00:09Z</time></trkpt><trkpt lat="40.333420114223216" lon="8.58951587407948"><ele>281.5</ele><time>2026-05-02T15:00:10Z</time></trkpt><trkpt lat="40.33341954553746" lon="8.589699658342365"><ele>277.25</ele><time>2026-05-02T15:00:11Z</time></trkpt><trkpt lat="40.33340555543864" lon="8.589819008229215"><ele>273.0</ele><time>2026-05-02T15:00:12Z</time></trkpt><trkpt lat="40.333335782501486" lon="8.589929721063626"><ele>273.0</ele><time>2026-05-02T15:00:13Z</time></trkpt><trkpt lat="40.333213095516285" lon="8.589980075339499"><ele>273.0</ele><time>2026-05-02T15:00:14Z</time></trkpt><trkpt lat="40.33305607520502" lon="8.59004565504573"><ele>273.0</ele><time>2026-05-02T15:00:15Z</time></trkpt><trkpt lat="40.33288426196211" lon="8.59014043308879"><ele>272.0</ele><time>2026-05-02T15:00:16Z</time></trkpt><trkpt lat="40.33272921986796" lon="8.590297134966917"><ele>271.0</ele><time>2026-05-02T15:00:17Z</time></trkpt><trkpt lat="40.33260152592326" lon="8.590467338279488"><ele>270.0</ele><time>2026-05-02T15:00:18Z</time></trkpt><trkpt lat="40.33245645104439" lon="8.590662512599957"><ele>270.0</ele><time>2026-05-02T15:00:19Z</time></trkpt><trkpt lat="40.332322039574485" lon="8.590865915390921"><ele>270.0</ele><time>2026-05-02T15:00:20Z</time></trkpt><trkpt lat="40.332203929628655" lon="8.591046631980673"><ele>270.0</ele><time>2026-05-02T15:00:21Z</time></trkpt><trkpt lat="40.33210204336718" lon="8.591239810089787"><ele>275.3333333333333</ele><time>2026-05-02T15:00:22Z</time></trkpt><trkpt lat="40.33205472339486" lon="8.591468180834346"><ele>280.66666666666663</ele><time>2026-05-02T15:00:23Z</time></trkpt><trkpt lat="40.33202988391417" lon="8.591715525504803"><ele>286.0</ele><time>2026-05-02T15:00:24Z</time></trkpt><trkpt lat="40.33201050294864" lon="8.591940087788576"><ele>280.25</ele><time>2026-05-02T15:00:25Z</time></trkpt><trkpt lat="40.33198820446516" lon="8.592143889614132"><ele>274.5</ele><time>2026-05-02T15:00:26Z</time></trkpt><trkpt lat="40.33196421982032" lon="8.592293376606936"><ele>268.75</ele><time>2026-05-02T15:00:27Z</time></trkpt><trkpt lat="40.33186834287598" lon="8.592450618987849"><ele>263.0</ele><time>2026-05-02T15:00:28Z</time></trkpt><trkpt lat="40.331773964390294" lon="8.592622102031878"><ele>263.0</ele><time>2026-05-02T15:00:29Z</time></trkpt><trkpt lat="40.331654887054086" lon="8.592753107798895"><ele>263.0</ele><time>2026-05-02T15:00:30Z</time></trkpt><trkpt lat="40.331501953056446" lon="8.592849815516436"><ele>263.0</ele><time>2026-05-02T15:00:31Z</time></trkpt><trkpt lat="40.33136437380915" lon="8.592919543876091"><ele>265.2</ele><time>2026-05-02T15:00:32Z</time></trkpt><trkpt lat="40.33126204252119" lon="8.592986418343845"><ele>267.4</ele><time>2026-05-02T15:00:33Z</time></trkpt><trkpt lat="40.331198875007104" lon="8.593069865062368"><ele>269.59999999999997</ele><time>2026-05-02T15:00:34Z</time></trkpt><trkpt lat="40.33118393263481" lon="8.593180451865807"><ele>271.8</ele><time>2026-05-02T15:00:35Z</time></trkpt><trkpt lat="40.33123903615516" lon="8.593272256323665"><ele>274.0</ele><time>2026-05-02T15:00:36Z</time></trkpt><trkpt lat="40.33134099650356" lon="8.593335479475757"><ele>265.0</ele><time>2026-05-02T15:00:37Z</time></trkpt><trkpt lat="40.33147438639606" lon="8.593438994925403"><ele>256.0</ele><time>2026-05-02T15:00:38Z</time></trkpt><trkpt lat="40.331579703611496" lon="8.593595150788087"><ele>247.0</ele><time>2026-05-02T15:00:39Z</time></trkpt><trkpt lat="40.33164018744005" lon="8.593780227385935"><ele>246.0</ele><time>2026-05-02T15:00:40Z</time></trkpt><trkpt lat="40.331670998078785" lon="8.593987412150085"><ele>245.0</ele><time>2026-05-02T15:00:41Z</time></trkpt><trkpt lat="40.331664168974676" lon="8.594205556016695"><ele>244.0</ele><time>2026-05-02T15:00:42Z</time></trkpt><trkpt lat="40.3316341442774" lon="8.594419451878213"><ele>241.66666666666666</ele><time>2026-05-02T15:00:43Z</time></trkpt><trkpt lat="40.33156652889225" lon="8.594623331861962"><ele>239.33333333333331</ele><time>2026-05-02T15:00:44Z</time></trkpt><trkpt lat="40.331489110878884" lon="8.594827828092397"><ele>237.0</ele><time>2026-05-02T15:00:45Z</time></trkpt><trkpt lat="40.33143864034026" lon="8.595038742461545"><ele>237.0</ele><time>2026-05-02T15:00:46Z</time></trkpt><trkpt lat="40.3314094865294" lon="8.595241531640044"><ele>237.0</ele><time>2026-05-02T15:00:47Z</time></trkpt><trkpt lat="40.33139754786723" lon="8.59546024482488"><ele>237.0</ele><time>2026-05-02T15:00:48Z</time></trkpt><trkpt lat="40.33141459792227" lon="8.595681206704162"><ele>235.66666666666669</ele><time>2026-05-02T15:00:49Z</time></trkpt><trkpt lat="40.3314897896246" lon="8.595913623344911"><ele>234.33333333333334</ele><time>2026-05-02T15:00:50Z</time></trkpt><trkpt lat="40.33156830644837" lon="8.596160871488573"><ele>233.0</ele><time>2026-05-02T15:00:51Z</time></trkpt><trkpt lat="40.331608155241966" lon="8.596410252621066"><ele>233.0</ele><time>2026-05-02T15:00:52Z</time></trkpt><trkpt lat="40.33162061698551" lon="8.596632048969894"><ele>233.0</ele><time>2026-05-02T15:00:53Z</time></trkpt><trkpt lat="40.33161749282142" lon="8.596835066965475"><ele>233.0</ele><time>2026-05-02T15:00:54Z</time></trkpt><trkpt lat="40.33163264377219" lon="8.596998250576116"><ele>234.5</ele><time>2026-05-02T15:00:55Z</time></trkpt><trkpt lat="40.33167247992685" lon="8.597129723051149"><ele>236.0</ele><time>2026-05-02T15:00:56Z</time></trkpt><trkpt lat="40.33175561703548" lon="8.597220665785997"><ele>237.5</ele><time>2026-05-02T15:00:57Z</time></trkpt><trkpt lat="40.33185937667528" lon="8.597283326437733"><ele>239.0</ele><time>2026-05-02T15:00:58Z</time></trkpt><trkpt lat="40.331986688274114" lon="8.597200647939509"><ele>239.0</ele><time>2026-05-02T15:00:59Z</time></trkpt><trkpt lat="40.332092930258035" lon="8.597074860906975"><ele>239.0</ele><time>2026-05-02T15:01:00Z</time></trkpt><trkpt lat="40.332182873024465" lon="8.596885498688419"><ele>239.0</ele><time>2026-05-02T15:01:01Z</time></trkpt><trkpt lat="40.33229787270704" lon="8.596659154541385"><ele>239.0</ele><time>2026-05-02T15:01:02Z</time></trkpt><trkpt lat="40.33243852339236" lon="8.596438675252452"><ele>239.0</ele><time>2026-05-02T15:01:03Z</time></trkpt><trkpt lat="40.332546104892565" lon="8.59626864344975"><ele>239.0</ele><time>2026-05-02T15:01:04Z</time></trkpt><trkpt lat="40.33264382184535" lon="8.596084208853705"><ele>239.0</ele><time>2026-05-02T15:01:05Z</time></trkpt><trkpt lat="40.33273407622884" lon="8.59590029891462"><ele>239.0</ele><time>2026-05-02T15:01:06Z</time></trkpt><trkpt lat="40.33281981467037" lon="8.595703405558105"><ele>239.0</ele><time>2026-05-02T15:01:07Z</time></trkpt><trkpt lat="40.33290595932643" lon="8.595496862700326"><ele>236.0</ele><time>2026-05-02T15:01:08Z</time></trkpt><trkpt lat="40.333007265500164" lon="8.595283625029998"><ele>233.0</ele><time>2026-05-02T15:01:09Z</time></trkpt><trkpt lat="40.333134916614206" lon="8.595071421576582"><ele>230.0</ele><time>2026-05-02T15:01:10Z</time></trkpt><trkpt lat="40.33327212657198" lon="8.594889705160798"><ele>234.0</ele><time>2026-05-02T15:01:11Z</time></trkpt><trkpt lat="40.33341477632789" lon="8.59474164806858"><ele>238.0</ele><time>2026-05-02T15:01:12Z</time></trkpt><trkpt lat="40.33356004609499" lon="8.594574227580171"><ele>242.0</ele><time>2026-05-02T15:01:13Z</time></trkpt><trkpt lat="40.33369670949756" lon="8.594383718234743"><ele>242.0</ele><time>2026-05-02T15:01:14Z</time></trkpt><trkpt lat="40.33379852405029" lon="8.594209387574338"><ele>242.0</ele><time>2026-05-02T15:01:15Z</time></trkpt><trkpt lat="40.333898105573816" lon="8.59405895771564"><ele>242.0</ele><time>2026-05-02T15:01:16Z</time></trkpt><trkpt lat="40.33398565460197" lon="8.593952001178614"><ele>242.0</ele><time>2026-05-02T15:01:17Z</time></trkpt><trkpt lat="40.33408232661225" lon="8.593884877485152"><ele>245.75</ele><time>2026-05-02T15:01:18Z</time></trkpt><trkpt lat="40.33419619975572" lon="8.593869461476746"><ele>249.5</ele><time>2026-05-02T15:01:19Z</time></trkpt><trkpt lat="40.33430730009283" lon="8.59393144499339"><ele>253.25</ele><time>2026-05-02T15:01:20Z</time></trkpt><trkpt lat="40.33438512154476" lon="8.594067085302974"><ele>257.0</ele><time>2026-05-02T15:01:21Z</time></trkpt><trkpt lat="40.33450319961568" lon="8.594246915066034"><ele>257.0</ele><time>2026-05-02T15:01:22Z</time></trkpt><trkpt lat="40.33461452434399" lon="8.594464191604338"><ele>257.0</ele><time>2026-05-02T15:01:23Z</time></trkpt><trkpt lat="40.33473351604214" lon="8.594716016459554"><ele>257.0</ele><time>2026-05-02T15:01:24Z</time></trkpt><trkpt lat="40.33485895243658" lon="8.594982974712417"><ele>257.6666666666667</ele><time>2026-05-02T15:01:25Z</time></trkpt><trkpt lat="40.33497417047979" lon="8.595207428814867"><ele>258.3333333333333</ele><time>2026-05-02T15:01:26Z</time></trkpt><trkpt lat="40.3350806857887" lon="8.595420561758395"><ele>259.0</ele><time>2026-05-02T15:01:27Z</time></trkpt><trkpt lat="40.335145747489825" lon="8.595639409509065"><ele>264.0</ele><time>2026-05-02T15:01:28Z</time></trkpt><trkpt lat="40.3351724877305" lon="8.595864802235234"><ele>269.0</ele><time>2026-05-02T15:01:29Z</time></trkpt><trkpt lat="40.335153734688525" lon="8.596111064450902"><ele>274.0</ele><time>2026-05-02T15:01:30Z</time></trkpt><trkpt lat="40.33510046775034" lon="8.59637274110707"><ele>275.0</ele><time>2026-05-02T15:01:31Z</time></trkpt><trkpt lat="40.33506998597393" lon="8.596609330091626"><ele>276.0</ele><time>2026-05-02T15:01:32Z</time></trkpt><trkpt lat="40.33503422259549" lon="8.596832931479867"><ele>277.0</ele><time>2026-05-02T15:01:33Z</time></trkpt><trkpt lat="40.335010465816616" lon="8.597017963174837"><ele>277.0</ele><time>2026-05-02T15:01:34Z</time></trkpt><trkpt lat="40.33500592278451" lon="8.597195991711807"><ele>277.0</ele><time>2026-05-02T15:01:35Z</time></trkpt><trkpt lat="40.335035360801776" lon="8.597343676806126"><ele>277.0</ele><time>2026-05-02T15:01:36Z</time></trkpt><trkpt lat="40.33511983906749" lon="8.597478362197542"><ele>277.0</ele><time>2026-05-02T15:01:37Z</time></trkpt><trkpt lat="40.3352349286964" lon="8.597586708397936"><ele>277.0</ele><time>2026-05-02T15:01:38Z</time></trkpt><trkpt lat="40.335369245120226" lon="8.597667366497378"><ele>277.0</ele><time>2026-05-02T15:01:39Z</time></trkpt><trkpt lat="40.33552860313044" lon="8.597739586156923"><ele>277.0</ele><time>2026-05-02T15:01:40Z</time></trkpt><trkpt lat="40.335713332052364" lon="8.59780790768674"><ele>279.66666666666663</ele><time>2026-05-02T15:01:41Z</time></trkpt><trkpt lat="40.33591807080339" lon="8.597849367971564"><ele>282.3333333333333</ele><time>2026-05-02T15:01:42Z</time></trkpt><trkpt lat="40.33612272706185" lon="8.597852817239179"><ele>285.0</ele><time>2026-05-02T15:01:43Z</time></trkpt><trkpt lat="40.33630740934575" lon="8.597800903280408"><ele>281.3333333333333</ele><time>2026-05-02T15:01:44Z</time></trkpt><trkpt lat="40.336469896219306" lon="8.597683603085425"><ele>277.66666666666663</ele><time>2026-05-02T15:01:45Z</time></trkpt><trkpt lat="40.33662207066854" lon="8.59756996583353"><ele>274.0</ele><time>2026-05-02T15:01:46Z</time></trkpt><trkpt lat="40.33676589133048" lon="8.597502768588186"><ele>274.0</ele><time>2026-05-02T15:01:47Z</time></trkpt><trkpt lat="40.336909994503294" lon="8.597487045804488"><ele>274.0</ele><time>2026-05-02T15:01:48Z</time></trkpt><trkpt lat="40.33705848842304" lon="8.597542714160994"><ele>274.0</ele><time>2026-05-02T15:01:49Z</time></trkpt><trkpt lat="40.33718926976592" lon="8.59767907766822"><ele>275.66666666666663</ele><time>2026-05-02T15:01:50Z</time></trkpt><trkpt lat="40.33734627350407" lon="8.59780792514554"><ele>277.3333333333333</ele><time>2026-05-02T15:01:51Z</time></trkpt><trkpt lat="40.33746919725855" lon="8.597927443478932"><ele>279.0</ele><time>2026-05-02T15:01:52Z</time></trkpt><trkpt lat="40.33758915351664" lon="8.598014480958806"><ele>279.0</ele><time>2026-05-02T15:01:53Z</time></trkpt><trkpt lat="40.33771943186851" lon="8.59805474510587"><ele>279.0</ele><time>2026-05-02T15:01:54Z</time></trkpt><trkpt lat="40.33786043598283" lon="8.598027700325499"><ele>279.0</ele><time>2026-05-02T15:01:55Z</time></trkpt><trkpt lat="40.33796744998379" lon="8.597939697420284"><ele>279.0</ele><time>2026-05-02T15:01:56Z</time></trkpt><trkpt lat="40.338024637470845" lon="8.59780360610817"><ele>279.0</ele><time>2026-05-02T15:01:57Z</time></trkpt><trkpt lat="40.338046900137606" lon="8.597635798442234"><ele>279.0</ele><time>2026-05-02T15:01:58Z</time></trkpt><trkpt lat="40.33801448480474" lon="8.597442523029134"><ele>279.0</ele><time>2026-05-02T15:01:59Z</time></trkpt><trkpt lat="40.33793335569925" lon="8.597225583258492"><ele>279.0</ele><time>2026-05-02T15:02:00Z</time></trkpt><trkpt lat="40.337863910491066" lon="8.596990599320575"><ele>279.0</ele><time>2026-05-02T15:02:01Z</time></trkpt><trkpt lat="40.33780372222722" lon="8.596798777955543"><ele>279.0</ele><time>2026-05-02T15:02:02Z</time></trkpt><trkpt lat="40.33775028990278" lon="8.596625308106649"><ele>279.0</ele><time>2026-05-02T15:02:03Z</time></trkpt><trkpt lat="40.33770721727994" lon="8.596457936084494"><ele>279.0</ele><time>2026-05-02T15:02:04Z</time></trkpt><trkpt lat="40.337693623123116" lon="8.596316396242337"><ele>279.0</ele><time>2026-05-02T15:02:05Z</time></trkpt><trkpt lat="40.33770870862484" lon="8.596160179111155"><ele>279.0</ele><time>2026-05-02T15:02:06Z</time></trkpt><trkpt lat="40.337758279011325" lon="8.59598679367306"><ele>279.0</ele><time>2026-05-02T15:02:07Z</time></trkpt><trkpt lat="40.33784207581703" lon="8.595845492732256"><ele>279.0</ele><time>2026-05-02T15:02:08Z</time></trkpt><trkpt lat="40.33795777949311" lon="8.595739467436484"><ele>279.0</ele><time>2026-05-02T15:02:09Z</time></trkpt><trkpt lat="40.33813273541183" lon="8.595673626427738"><ele>286.0</ele><time>2026-05-02T15:02:10Z</time></trkpt><trkpt lat="40.338348109762705" lon="8.595655808053435"><ele>293.0</ele><time>2026-05-02T15:02:11Z</time></trkpt><trkpt lat="40.33857014994128" lon="8.595624064304607"><ele>300.0</ele><time>2026-05-02T15:02:12Z</time></trkpt><trkpt lat="40.33878103553374" lon="8.595618696152496"><ele>302.0</ele><time>2026-05-02T15:02:13Z</time></trkpt><trkpt lat="40.33896708283771" lon="8.595610617680999"><ele>304.0</ele><time>2026-05-02T15:02:14Z</time></trkpt><trkpt lat="40.33912939871727" lon="8.595614380666643"><ele>306.0</ele><time>2026-05-02T15:02:15Z</time></trkpt><trkpt lat="40.33930075431721" lon="8.595657191704277"><ele>306.0</ele><time>2026-05-02T15:02:16Z</time></trkpt><trkpt lat="40.33946771783119" lon="8.595760555644354"><ele>306.0</ele><time>2026-05-02T15:02:17Z</time></trkpt><trkpt lat="40.33962575666619" lon="8.59590515102803"><ele>306.0</ele><time>2026-05-02T15:02:18Z</time></trkpt><trkpt lat="40.33977337789889" lon="8.596079554627018"><ele>308.3333333333333</ele><time>2026-05-02T15:02:19Z</time></trkpt><trkpt lat="40.339900753915" lon="8.596274978936293"><ele>310.66666666666663</ele><time>2026-05-02T15:02:20Z</time></trkpt><trkpt lat="40.340046278736324" lon="8.596454095359107"><ele>313.0</ele><time>2026-05-02T15:02:21Z</time></trkpt><trkpt lat="40.34021991447247" lon="8.596611473892661"><ele>313.0</ele><time>2026-05-02T15:02:22Z</time></trkpt><trkpt lat="40.340415144396516" lon="8.596734779883334"><ele>313.0</ele><time>2026-05-02T15:02:23Z</time></trkpt><trkpt lat="40.340598183324026" lon="8.596823386705884"><ele>313.0</ele><time>2026-05-02T15:02:24Z</time></trkpt><trkpt lat="40.34078305624205" lon="8.59685156669043"><ele>312.66666666666663</ele><time>2026-05-02T15:02:25Z</time></trkpt><trkpt lat="40.34096041352913" lon="8.596917470409178"><ele>312.3333333333333</ele><time>2026-05-02T15:02:26Z</time></trkpt><trkpt lat="40.341134179916615" lon="8.597019166234377"><ele>312.0</ele><time>2026-05-02T15:02:27Z</time></trkpt><trkpt lat="40.34130076272261" lon="8.597172818577711"><ele>314.3333333333333</ele><time>2026-05-02T15:02:28Z</time></trkpt><trkpt lat="40.341457250370915" lon="8.597369174253972"><ele>316.66666666666663</ele><time>2026-05-02T15:02:29Z</time></trkpt><trkpt lat="40.34162254162432" lon="8.597565016760456"><ele>319.0</ele><time>2026-05-02T15:02:30Z</time></trkpt><trkpt lat="40.34177294060916" lon="8.597744075418865"><ele>322.66666666666663</ele><time>2026-05-02T15:02:31Z</time></trkpt><trkpt lat="40.34192534211456" lon="8.59791845277333"><ele>326.3333333333333</ele><time>2026-05-02T15:02:32Z</time></trkpt><trkpt lat="40.342093488476536" lon="8.598062043533249"><ele>330.0</ele><time>2026-05-02T15:02:33Z</time></trkpt><trkpt lat="40.34227817960206" lon="8.598162619379485"><ele>330.0</ele><time>2026-05-02T15:02:34Z</time></trkpt><trkpt lat="40.342483318443904" lon="8.598233144251909"><ele>330.0</ele><time>2026-05-02T15:02:35Z</time></trkpt><trkpt lat="40.34270708757617" lon="8.598277463698011"><ele>330.0</ele><time>2026-05-02T15:02:36Z</time></trkpt><trkpt lat="40.34292315371676" lon="8.59832801488015"><ele>330.0</ele><time>2026-05-02T15:02:37Z</time></trkpt><trkpt lat="40.34315215667704" lon="8.598374801069548"><ele>330.0</ele><time>2026-05-02T15:02:38Z</time></trkpt><trkpt lat="40.34337216256368" lon="8.598429289968507"><ele>330.0</ele><time>2026-05-02T15:02:39Z</time></trkpt><trkpt lat="40.34358346736229" lon="8.598480474973904"><ele>330.0</ele><time>2026-05-02T15:02:40Z</time></trkpt><trkpt lat="40.343756893779776" lon="8.598502530006039"><ele>330.0</ele><time>2026-05-02T15:02:41Z</time></trkpt><trkpt lat="40.34394548592649" lon="8.59856676392791"><ele>328.3333333333333</ele><time>2026-05-02T15:02:42Z</time></trkpt><trkpt lat="40.34412405293455" lon="8.598679070397392"><ele>326.66666666666663</ele><time>2026-05-02T15:02:43Z</time></trkpt><trkpt lat="40.344296550960806" lon="8.598829740464971"><ele>325.0</ele><time>2026-05-02T15:02:44Z</time></trkpt><trkpt lat="40.344455194566024" lon="8.599000992349096"><ele>325.0</ele><time>2026-05-02T15:02:45Z</time></trkpt><trkpt lat="40.34459001575235" lon="8.599214204519992"><ele>325.0</ele><time>2026-05-02T15:02:46Z</time></trkpt><trkpt lat="40.34473385582067" lon="8.599421800787802"><ele>325.0</ele><time>2026-05-02T15:02:47Z</time></trkpt><trkpt lat="40.34488864541294" lon="8.599645199885787"><ele>318.0</ele><time>2026-05-02T15:02:48Z</time></trkpt><trkpt lat="40.3450571178676" lon="8.59988663423996"><ele>311.0</ele><time>2026-05-02T15:02:49Z</time></trkpt><trkpt lat="40.34524216241498" lon="8.600122212042889"><ele>311.0</ele><time>2026-05-02T15:02:50Z</time></trkpt><trkpt lat="40.3454029068686" lon="8.600355163022655"><ele>311.0</ele><time>2026-05-02T15:02:51Z</time></trkpt><trkpt lat="40.345557235545016" lon="8.600572862364793"><ele>310.0</ele><time>2026-05-02T15:02:52Z</time></trkpt><trkpt lat="40.34570590914222" lon="8.600782636522968"><ele>309.0</ele><time>2026-05-02T15:02:53Z</time></trkpt><trkpt lat="40.34585157435246" lon="8.600989214467614"><ele>308.0</ele><time>2026-05-02T15:02:54Z</time></trkpt><trkpt lat="40.3459927343347" lon="8.601195828445109"><ele>308.0</ele><time>2026-05-02T15:02:55Z</time></trkpt><trkpt lat="40.3461202145479" lon="8.601418160285075"><ele>308.0</ele><time>2026-05-02T15:02:56Z</time></trkpt><trkpt lat="40.346225285018036" lon="8.60165695096596"><ele>308.0</ele><time>2026-05-02T15:02:57Z</time></trkpt><trkpt lat="40.34631649652936" lon="8.601905265218734"><ele>301.0</ele><time>2026-05-02T15:02:58Z</time></trkpt><trkpt lat="40.34639149373507" lon="8.60217217120463"><ele>294.0</ele><time>2026-05-02T15:02:59Z</time></trkpt><trkpt lat="40.34646314306136" lon="8.602435239697126"><ele>287.0</ele><time>2026-05-02T15:03:00Z</time></trkpt><trkpt lat="40.34653482949762" lon="8.602704308006127"><ele>288.33333333333337</ele><time>2026-05-02T15:03:01Z</time></trkpt><trkpt lat="40.34660606929631" lon="8.602977921292949"><ele>289.6666666666667</ele><time>2026-05-02T15:03:02Z</time></trkpt><trkpt lat="40.34667709022174" lon="8.603255091817122"><ele>291.0</ele><time>2026-05-02T15:03:03Z</time></trkpt><trkpt lat="40.34674604459801" lon="8.603520495980703"><ele>291.0</ele><time>2026-05-02T15:03:04Z</time></trkpt><trkpt lat="40.34681903556187" lon="8.603767952236014"><ele>291.0</ele><time>2026-05-02T15:03:05Z</time></trkpt><trkpt lat="40.34691714238388" lon="8.603997018660168"><ele>291.0</ele><time>2026-05-02T15:03:06Z</time></trkpt><trkpt lat="40.34704527614829" lon="8.604206789645978"><ele>291.0</ele><time>2026-05-02T15:03:07Z</time></trkpt><trkpt lat="40.34720663617052" lon="8.604371689303484"><ele>291.0</ele><time>2026-05-02T15:03:08Z</time></trkpt><trkpt lat="40.3473859999492" lon="8.604539801951564"><ele>291.0</ele><time>2026-05-02T15:03:09Z</time></trkpt><trkpt lat="40.34756818240658" lon="8.604710785626262"><ele>288.0</ele><time>2026-05-02T15:03:10Z</time></trkpt><trkpt lat="40.3477607713458" lon="8.604883066287242"><ele>285.0</ele><time>2026-05-02T15:03:11Z</time></trkpt><trkpt lat="40.34795639179111" lon="8.60506666448451"><ele>284.3333333333333</ele><time>2026-05-02T15:03:12Z</time></trkpt><trkpt lat="40.34814052373479" lon="8.605226807012572"><ele>283.66666666666663</ele><time>2026-05-02T15:03:13Z</time></trkpt><trkpt lat="40.34831222089614" lon="8.605407091993014"><ele>283.0</ele><time>2026-05-02T15:03:14Z</time></trkpt><trkpt lat="40.34845545957367" lon="8.605611290863724"><ele>283.0</ele><time>2026-05-02T15:03:15Z</time></trkpt><trkpt lat="40.34857020627212" lon="8.605850927883443"><ele>283.0</ele><time>2026-05-02T15:03:16Z</time></trkpt><trkpt lat="40.34865942590278" lon="8.606109443789482"><ele>283.0</ele><time>2026-05-02T15:03:17Z</time></trkpt><trkpt lat="40.348737249945586" lon="8.606396515955176"><ele>284.5</ele><time>2026-05-02T15:03:18Z</time></trkpt><trkpt lat="40.348800153389035" lon="8.60670422756099"><ele>286.0</ele><time>2026-05-02T15:03:19Z</time></trkpt><trkpt lat="40.34886545860684" lon="8.6070151761749"><ele>279.0</ele><time>2026-05-02T15:03:20Z</time></trkpt><trkpt lat="40.348933775267376" lon="8.607324779170073"><ele>272.0</ele><time>2026-05-02T15:03:21Z</time></trkpt><trkpt lat="40.349000303050914" lon="8.607618021743743"><ele>270.6666666666667</ele><time>2026-05-02T15:03:22Z</time></trkpt><trkpt lat="40.34906370357183" lon="8.607896556752879"><ele>269.3333333333333</ele><time>2026-05-02T15:03:23Z</time></trkpt><trkpt lat="40.34912701141913" lon="8.608178662844674"><ele>268.0</ele><time>2026-05-02T15:03:24Z</time></trkpt><trkpt lat="40.34918956470703" lon="8.608463681898508"><ele>268.0</ele><time>2026-05-02T15:03:25Z</time></trkpt><trkpt lat="40.349250342659" lon="8.608745403742237"><ele>268.0</ele><time>2026-05-02T15:03:26Z</time></trkpt><trkpt lat="40.349307869289085" lon="8.609016380376765"><ele>268.0</ele><time>2026-05-02T15:03:27Z</time></trkpt><trkpt lat="40.349349887058835" lon="8.609293216887068"><ele>265.66666666666663</ele><time>2026-05-02T15:03:28Z</time></trkpt><trkpt lat="40.34936697534004" lon="8.609573978006729"><ele>263.3333333333333</ele><time>2026-05-02T15:03:29Z</time></trkpt><trkpt lat="40.34936170853164" lon="8.609855649900467"><ele>261.0</ele><time>2026-05-02T15:03:30Z</time></trkpt><trkpt lat="40.34934399458648" lon="8.610137378981573"><ele>259.3333333333333</ele><time>2026-05-02T15:03:31Z</time></trkpt><trkpt lat="40.349316137128035" lon="8.610420103655118"><ele>257.66666666666663</ele><time>2026-05-02T15:03:32Z</time></trkpt><trkpt lat="40.34928485431112" lon="8.610699140409984"><ele>256.0</ele><time>2026-05-02T15:03:33Z</time></trkpt><trkpt lat="40.34925864028825" lon="8.610985660568394"><ele>251.5</ele><time>2026-05-02T15:03:34Z</time></trkpt><trkpt lat="40.34924971062449" lon="8.611289432669903"><ele>247.0</ele><time>2026-05-02T15:03:35Z</time></trkpt><trkpt lat="40.34923504365301" lon="8.611591887298266"><ele>247.0</ele><time>2026-05-02T15:03:36Z</time></trkpt><trkpt lat="40.34920626807188" lon="8.611889780245862"><ele>247.0</ele><time>2026-05-02T15:03:37Z</time></trkpt><trkpt lat="40.34917636870574" lon="8.612187962109637"><ele>244.0</ele><time>2026-05-02T15:03:38Z</time></trkpt><trkpt lat="40.349143987852415" lon="8.61248827160915"><ele>241.0</ele><time>2026-05-02T15:03:39Z</time></trkpt><trkpt lat="40.34911211163137" lon="8.612780000919173"><ele>239.33333333333331</ele><time>2026-05-02T15:03:40Z</time></trkpt><trkpt lat="40.34908827354982" lon="8.613052067274587"><ele>237.66666666666669</ele><time>2026-05-02T15:03:41Z</time></trkpt><trkpt lat="40.349087503088185" lon="8.61331316370841"><ele>236.0</ele><time>2026-05-02T15:03:42Z</time></trkpt><trkpt lat="40.34912969748616" lon="8.613569123255223"><ele>235.33333333333334</ele><time>2026-05-02T15:03:43Z</time></trkpt><trkpt lat="40.34921266418653" lon="8.613830182233476"><ele>234.66666666666669</ele><time>2026-05-02T15:03:44Z</time></trkpt><trkpt lat="40.3493193471351" lon="8.614069174647343"><ele>234.0</ele><time>2026-05-02T15:03:45Z</time></trkpt><trkpt lat="40.34946263270808" lon="8.61428980665098"><ele>234.0</ele><time>2026-05-02T15:03:46Z</time></trkpt><trkpt lat="40.34963708019663" lon="8.614484116367244"><ele>234.0</ele><time>2026-05-02T15:03:47Z</time></trkpt><trkpt lat="40.34982199254153" lon="8.614669374874412"><ele>233.5</ele><time>2026-05-02T15:03:48Z</time></trkpt><trkpt lat="40.350010295452954" lon="8.614870956959034"><ele>233.0</ele><time>2026-05-02T15:03:49Z</time></trkpt><trkpt lat="40.3502146125857" lon="8.615076263790568"><ele>233.0</ele><time>2026-05-02T15:03:50Z</time></trkpt><trkpt lat="40.35041805426501" lon="8.615283728554418"><ele>233.0</ele><time>2026-05-02T15:03:51Z</time></trkpt><trkpt lat="40.350614718947085" lon="8.615489969182747"><ele>233.5</ele><time>2026-05-02T15:03:52Z</time></trkpt><trkpt lat="40.35081566982308" lon="8.615697678928141"><ele>234.0</ele><time>2026-05-02T15:03:53Z</time></trkpt><trkpt lat="40.3510107187063" lon="8.615907618488324"><ele>234.0</ele><time>2026-05-02T15:03:54Z</time></trkpt><trkpt lat="40.351207458251324" lon="8.616116915419555"><ele>234.0</ele><time>2026-05-02T15:03:55Z</time></trkpt><trkpt lat="40.35140173988833" lon="8.616320953254025"><ele>234.33333333333331</ele><time>2026-05-02T15:03:56Z</time></trkpt><trkpt lat="40.351579608834854" lon="8.616509605128401"><ele>234.66666666666666</ele><time>2026-05-02T15:03:57Z</time></trkpt><trkpt lat="40.351743029221474" lon="8.616688098966861"><ele>235.0</ele><time>2026-05-02T15:03:58Z</time></trkpt><trkpt lat="40.351916487308415" lon="8.616862449628915"><ele>235.33333333333331</ele><time>2026-05-02T15:03:59Z</time></trkpt><trkpt lat="40.35210608022015" lon="8.617009263081574"><ele>235.66666666666669</ele><time>2026-05-02T15:04:00Z</time></trkpt><trkpt lat="40.35229560658338" lon="8.617107998089406"><ele>236.0</ele><time>2026-05-02T15:04:01Z</time></trkpt><trkpt lat="40.35248735096768" lon="8.617153983012603"><ele>238.33333333333334</ele><time>2026-05-02T15:04:02Z</time></trkpt><trkpt lat="40.352683724419435" lon="8.617157076161748"><ele>240.66666666666669</ele><time>2026-05-02T15:04:03Z</time></trkpt><trkpt lat="40.35288052952" lon="8.617116960203308"><ele>243.0</ele><time>2026-05-02T15:04:04Z</time></trkpt><trkpt lat="40.35307440600915" lon="8.617047581091251"><ele>243.66666666666669</ele><time>2026-05-02T15:04:05Z</time></trkpt><trkpt lat="40.353253016586315" lon="8.616940006058599"><ele>244.33333333333334</ele><time>2026-05-02T15:04:06Z</time></trkpt><trkpt lat="40.35345419411722" lon="8.616810219267379"><ele>245.0</ele><time>2026-05-02T15:04:07Z</time></trkpt><trkpt lat="40.35364701768504" lon="8.616678606718144"><ele>245.0</ele><time>2026-05-02T15:04:08Z</time></trkpt><trkpt lat="40.35385172898409" lon="8.616567166056223"><ele>245.0</ele><time>2026-05-02T15:04:09Z</time></trkpt><trkpt lat="40.35404774437851" lon="8.616501651423574"><ele>245.0</ele><time>2026-05-02T15:04:10Z</time></trkpt><trkpt lat="40.35423888072577" lon="8.616465159041864"><ele>248.0</ele><time>2026-05-02T15:04:11Z</time></trkpt><trkpt lat="40.35445464382391" lon="8.616461313293629"><ele>251.0</ele><time>2026-05-02T15:04:12Z</time></trkpt><trkpt lat="40.35467777886508" lon="8.61649606067572"><ele>254.0</ele><time>2026-05-02T15:04:13Z</time></trkpt><trkpt lat="40.35490495118257" lon="8.616562947327475"><ele>256.0</ele><time>2026-05-02T15:04:14Z</time></trkpt><trkpt lat="40.355130072134735" lon="8.616640395445648"><ele>258.0</ele><time>2026-05-02T15:04:15Z</time></trkpt><trkpt lat="40.355346247974225" lon="8.616721361718055"><ele>257.6666666666667</ele><time>2026-05-02T15:04:16Z</time></trkpt><trkpt lat="40.35554310012692" lon="8.61681119921329"><ele>257.33333333333337</ele><time>2026-05-02T15:04:17Z</time></trkpt><trkpt lat="40.355710160505225" lon="8.61693544603937"><ele>257.0</ele><time>2026-05-02T15:04:18Z</time></trkpt><trkpt lat="40.35586665984371" lon="8.617112759611986"><ele>262.0</ele><time>2026-05-02T15:04:19Z</time></trkpt><trkpt lat="40.3560068438628" lon="8.617330421787319"><ele>267.0</ele><time>2026-05-02T15:04:20Z</time></trkpt><trkpt lat="40.35610477488892" lon="8.617567860699264"><ele>272.0</ele><time>2026-05-02T15:04:21Z</time></trkpt><trkpt lat="40.35616717321087" lon="8.617827645667743"><ele>274.0</ele><time>2026-05-02T15:04:22Z</time></trkpt><trkpt lat="40.35619933657556" lon="8.618112366524862"><ele>276.0</ele><time>2026-05-02T15:04:23Z</time></trkpt><trkpt lat="40.35622074781726" lon="8.618418089155796"><ele>278.3333333333333</ele><time>2026-05-02T15:04:24Z</time></trkpt><trkpt lat="40.35624177953397" lon="8.618709014726566"><ele>280.66666666666663</ele><time>2026-05-02T15:04:25Z</time></trkpt><trkpt lat="40.35626521170269" lon="8.618964032375905"><ele>283.0</ele><time>2026-05-02T15:04:26Z</time></trkpt><trkpt lat="40.356323108804155" lon="8.619204109209948"><ele>283.0</ele><time>2026-05-02T15:04:27Z</time></trkpt><trkpt lat="40.35640549028445" lon="8.619441398063953"><ele>283.0</ele><time>2026-05-02T15:04:28Z</time></trkpt><trkpt lat="40.35649931445068" lon="8.61966879891628"><ele>283.0</ele><time>2026-05-02T15:04:29Z</time></trkpt><trkpt lat="40.35662023898345" lon="8.619869340900294"><ele>283.0</ele><time>2026-05-02T15:04:30Z</time></trkpt><trkpt lat="40.35676627581126" lon="8.620063159633894"><ele>283.0</ele><time>2026-05-02T15:04:31Z</time></trkpt><trkpt lat="40.35693034176649" lon="8.620261186722777"><ele>283.0</ele><time>2026-05-02T15:04:32Z</time></trkpt><trkpt lat="40.35710454039872" lon="8.620472493658514"><ele>283.0</ele><time>2026-05-02T15:04:33Z</time></trkpt><trkpt lat="40.35728504089799" lon="8.62069754040651"><ele>283.0</ele><time>2026-05-02T15:04:34Z</time></trkpt><trkpt lat="40.35747309335445" lon="8.620932340558621"><ele>280.0</ele><time>2026-05-02T15:04:35Z</time></trkpt><trkpt lat="40.3576620485312" lon="8.621176419648487"><ele>277.0</ele><time>2026-05-02T15:04:36Z</time></trkpt><trkpt lat="40.35783886426366" lon="8.621390953764232"><ele>277.0</ele><time>2026-05-02T15:04:37Z</time></trkpt><trkpt lat="40.358005377154996" lon="8.621602604404073"><ele>277.0</ele><time>2026-05-02T15:04:38Z</time></trkpt><trkpt lat="40.35817542617995" lon="8.62180368345917"><ele>280.0</ele><time>2026-05-02T15:04:39Z</time></trkpt><trkpt lat="40.35835380414612" lon="8.621966546435408"><ele>283.0</ele><time>2026-05-02T15:04:40Z</time></trkpt><trkpt lat="40.35850968930029" lon="8.622145246291767"><ele>286.0</ele><time>2026-05-02T15:04:41Z</time></trkpt><trkpt lat="40.35865593450046" lon="8.622309017378308"><ele>286.0</ele><time>2026-05-02T15:04:42Z</time></trkpt><trkpt lat="40.35879889728823" lon="8.622469092817859"><ele>286.0</ele><time>2026-05-02T15:04:43Z</time></trkpt><trkpt lat="40.35894472110404" lon="8.62263549499898"><ele>286.0</ele><time>2026-05-02T15:04:44Z</time></trkpt><trkpt lat="40.35909700613979" lon="8.622821235088109"><ele>288.0</ele><time>2026-05-02T15:04:45Z</time></trkpt><trkpt lat="40.35923953624705" lon="8.623041903578848"><ele>290.0</ele><time>2026-05-02T15:04:46Z</time></trkpt><trkpt lat="40.359369162145846" lon="8.623269561267977"><ele>292.0</ele><time>2026-05-02T15:04:47Z</time></trkpt><trkpt lat="40.35948391197126" lon="8.623520422417823"><ele>294.5</ele><time>2026-05-02T15:04:48Z</time></trkpt><trkpt lat="40.359581697810285" lon="8.623801909853944"><ele>297.0</ele><time>2026-05-02T15:04:49Z</time></trkpt><trkpt lat="40.359654322597905" lon="8.624102650082516"><ele>296.0</ele><time>2026-05-02T15:04:50Z</time></trkpt><trkpt lat="40.35970611434192" lon="8.624418842303673"><ele>295.0</ele><time>2026-05-02T15:04:51Z</time></trkpt><trkpt lat="40.359748233208194" lon="8.624754883614692"><ele>297.0</ele><time>2026-05-02T15:04:52Z</time></trkpt><trkpt lat="40.35979570436719" lon="8.625095022989989"><ele>299.0</ele><time>2026-05-02T15:04:53Z</time></trkpt><trkpt lat="40.359835998451594" lon="8.625429993809407"><ele>299.6666666666667</ele><time>2026-05-02T15:04:54Z</time></trkpt><trkpt lat="40.35987694742855" lon="8.625727122272558"><ele>300.3333333333333</ele><time>2026-05-02T15:04:55Z</time></trkpt><trkpt lat="40.35991306435764" lon="8.626007568407434"><ele>301.0</ele><time>2026-05-02T15:04:56Z</time></trkpt><trkpt lat="40.35994990914912" lon="8.626286824847293"><ele>302.0</ele><time>2026-05-02T15:04:57Z</time></trkpt><trkpt lat="40.35999669486551" lon="8.626556402813629"><ele>303.0</ele><time>2026-05-02T15:04:58Z</time></trkpt><trkpt lat="40.3600649601871" lon="8.626804459695904"><ele>304.0</ele><time>2026-05-02T15:04:59Z</time></trkpt><trkpt lat="40.36016961112486" lon="8.627035992357174"><ele>304.66666666666663</ele><time>2026-05-02T15:05:00Z</time></trkpt><trkpt lat="40.36030395262848" lon="8.627251858960431"><ele>305.3333333333333</ele><time>2026-05-02T15:05:01Z</time></trkpt><trkpt lat="40.360469606876755" lon="8.627440995181036"><ele>306.0</ele><time>2026-05-02T15:05:02Z</time></trkpt><trkpt lat="40.36065593253445" lon="8.627592585841061"><ele>307.3333333333333</ele><time>2026-05-02T15:05:03Z</time></trkpt><trkpt lat="40.360833253390915" lon="8.627687038162337"><ele>308.66666666666663</ele><time>2026-05-02T15:05:04Z</time></trkpt><trkpt lat="40.361024946763216" lon="8.627732907425218"><ele>310.0</ele><time>2026-05-02T15:05:05Z</time></trkpt><trkpt lat="40.361222723018635" lon="8.627737712823038"><ele>311.3333333333333</ele><time>2026-05-02T15:05:06Z</time></trkpt><trkpt lat="40.36141969165469" lon="8.627706167647373"><ele>312.6666666666667</ele><time>2026-05-02T15:05:07Z</time></trkpt><trkpt lat="40.36161974938169" lon="8.627670883555723"><ele>314.0</ele><time>2026-05-02T15:05:08Z</time></trkpt><trkpt lat="40.3618294612939" lon="8.627640010366532"><ele>314.0</ele><time>2026-05-02T15:05:09Z</time></trkpt><trkpt lat="40.362045180380576" lon="8.627671461031465"><ele>314.0</ele><time>2026-05-02T15:05:10Z</time></trkpt><trkpt lat="40.362263630006915" lon="8.627700160315475"><ele>314.0</ele><time>2026-05-02T15:05:11Z</time></trkpt><trkpt lat="40.36250186286385" lon="8.627828841819207"><ele>316.5</ele><time>2026-05-02T15:05:12Z</time></trkpt><trkpt lat="40.36273777215134" lon="8.627956680756412"><ele>319.0</ele><time>2026-05-02T15:05:13Z</time></trkpt><trkpt lat="40.3629551299147" lon="8.628135997600705"><ele>322.0</ele><time>2026-05-02T15:05:14Z</time></trkpt><trkpt lat="40.363164422049834" lon="8.628346059310115"><ele>325.0</ele><time>2026-05-02T15:05:15Z</time></trkpt><trkpt lat="40.36334519145154" lon="8.628601186400648"><ele>325.5</ele><time>2026-05-02T15:05:16Z</time></trkpt><trkpt lat="40.36349162607548" lon="8.62887055740781"><ele>326.0</ele><time>2026-05-02T15:05:17Z</time></trkpt><trkpt lat="40.36362662272036" lon="8.629170040340908"><ele>326.0</ele><time>2026-05-02T15:05:18Z</time></trkpt><trkpt lat="40.36375849370994" lon="8.629474571266577"><ele>326.0</ele><time>2026-05-02T15:05:19Z</time></trkpt><trkpt lat="40.363898578914416" lon="8.629774351208493"><ele>328.5</ele><time>2026-05-02T15:05:20Z</time></trkpt><trkpt lat="40.36403463531837" lon="8.630048507631459"><ele>331.0</ele><time>2026-05-02T15:05:21Z</time></trkpt><trkpt lat="40.36416285417039" lon="8.630302865929954"><ele>331.5</ele><time>2026-05-02T15:05:22Z</time></trkpt><trkpt lat="40.364294748535535" lon="8.630566352125637"><ele>332.0</ele><time>2026-05-02T15:05:23Z</time></trkpt><trkpt lat="40.36442699974883" lon="8.630797334916972"><ele>332.0</ele><time>2026-05-02T15:05:24Z</time></trkpt><trkpt lat="40.364568105911765" lon="8.630990780597434"><ele>332.0</ele><time>2026-05-02T15:05:25Z</time></trkpt><trkpt lat="40.36473887157027" lon="8.631156658381164"><ele>332.0</ele><time>2026-05-02T15:05:26Z</time></trkpt><trkpt lat="40.36492647815579" lon="8.631300641914052"><ele>332.33333333333337</ele><time>2026-05-02T15:05:27Z</time></trkpt><trkpt lat="40.36511569789664" lon="8.63141101453894"><ele>332.6666666666667</ele><time>2026-05-02T15:05:28Z</time></trkpt><trkpt lat="40.36531373203774" lon="8.631522607374269"><ele>333.0</ele><time>2026-05-02T15:05:29Z</time></trkpt><trkpt lat="40.36550321051057" lon="8.631621667855958"><ele>331.6666666666667</ele><time>2026-05-02T15:05:30Z</time></trkpt><trkpt lat="40.36568545033568" lon="8.631692738154808"><ele>330.33333333333337</ele><time>2026-05-02T15:05:31Z</time></trkpt><trkpt lat="40.36587506024912" lon="8.631721061232714"><ele>329.0</ele><time>2026-05-02T15:05:32Z</time></trkpt><trkpt lat="40.36608213892336" lon="8.6317277079708"><ele>329.0</ele><time>2026-05-02T15:05:33Z</time></trkpt><trkpt lat="40.36630758332499" lon="8.631726150506612"><ele>329.0</ele><time>2026-05-02T15:05:34Z</time></trkpt><trkpt lat="40.366528071060394" lon="8.631723413815184"><ele>329.0</ele><time>2026-05-02T15:05:35Z</time></trkpt><trkpt lat="40.36673307246243" lon="8.631723961744118"><ele>327.0</ele><time>2026-05-02T15:05:36Z</time></trkpt><trkpt lat="40.36691820591138" lon="8.631726009060804"><ele>325.0</ele><time>2026-05-02T15:05:37Z</time></trkpt><trkpt lat="40.36708738303294" lon="8.6317329064751"><ele>323.0</ele><time>2026-05-02T15:05:38Z</time></trkpt><trkpt lat="40.36722604427322" lon="8.631758112420751"><ele>320.6666666666667</ele><time>2026-05-02T15:05:39Z</time></trkpt><trkpt lat="40.3673525328079" lon="8.631840654662685"><ele>318.3333333333333</ele><time>2026-05-02T15:05:40Z</time></trkpt><trkpt lat="40.367448533243184" lon="8.631978746152575"><ele>316.0</ele><time>2026-05-02T15:05:41Z</time></trkpt><trkpt lat="40.36745325174429" lon="8.632252359267273"><ele>316.0</ele><time>2026-05-02T15:05:42Z</time></trkpt><trkpt lat="40.36750388899599" lon="8.632493350170023"><ele>316.0</ele><time>2026-05-02T15:05:43Z</time></trkpt><trkpt lat="40.367600081260534" lon="8.632698715196064"><ele>316.0</ele><time>2026-05-02T15:05:44Z</time></trkpt><trkpt lat="40.36774958044876" lon="8.632871522146125"><ele>312.0</ele><time>2026-05-02T15:05:45Z</time></trkpt><trkpt lat="40.36794795987071" lon="8.633013495417606"><ele>308.0</ele><time>2026-05-02T15:05:46Z</time></trkpt><trkpt lat="40.368155817163284" lon="8.633143527944178"><ele>308.0</ele><time>2026-05-02T15:05:47Z</time></trkpt><trkpt lat="40.36837298437667" lon="8.633252963192247"><ele>308.0</ele><time>2026-05-02T15:05:48Z</time></trkpt><trkpt lat="40.36856913814517" lon="8.633348959150482"><ele>308.0</ele><time>2026-05-02T15:05:49Z</time></trkpt><trkpt lat="40.36873674693482" lon="8.633436141879509"><ele>306.25</ele><time>2026-05-02T15:05:50Z</time></trkpt><trkpt lat="40.36889410228649" lon="8.633517526990872"><ele>304.5</ele><time>2026-05-02T15:05:51Z</time></trkpt><trkpt lat="40.36902742775366" lon="8.633597900488747"><ele>302.75</ele><time>2026-05-02T15:05:52Z</time></trkpt><trkpt lat="40.36913150911955" lon="8.633707790971805"><ele>301.0</ele><time>2026-05-02T15:05:53Z</time></trkpt><trkpt lat="40.36919951435794" lon="8.63384813833399"><ele>301.0</ele><time>2026-05-02T15:05:54Z</time></trkpt><trkpt lat="40.369219884338364" lon="8.634051785935634"><ele>301.0</ele><time>2026-05-02T15:05:55Z</time></trkpt><trkpt lat="40.36919836044702" lon="8.634258611235014"><ele>301.0</ele><time>2026-05-02T15:05:56Z</time></trkpt><trkpt lat="40.36914539131249" lon="8.634443485295607"><ele>302.66666666666663</ele><time>2026-05-02T15:05:57Z</time></trkpt><trkpt lat="40.36905164652248" lon="8.634627030203246"><ele>304.3333333333333</ele><time>2026-05-02T15:05:58Z</time></trkpt><trkpt lat="40.36891625934709" lon="8.634765405622275"><ele>306.0</ele><time>2026-05-02T15:05:59Z</time></trkpt><trkpt lat="40.36878726290061" lon="8.634902575252722"><ele>306.0</ele><time>2026-05-02T15:06:00Z</time></trkpt><trkpt lat="40.3687188351375" lon="8.635063194286495"><ele>306.0</ele><time>2026-05-02T15:06:01Z</time></trkpt><trkpt lat="40.36872715392988" lon="8.635251577236998"><ele>306.0</ele><time>2026-05-02T15:06:02Z</time></trkpt><trkpt lat="40.368781882458045" lon="8.635425107851315"><ele>306.0</ele><time>2026-05-02T15:06:03Z</time></trkpt><trkpt lat="40.36888451668302" lon="8.635573422261908"><ele>302.0</ele><time>2026-05-02T15:06:04Z</time></trkpt><trkpt lat="40.36901847777716" lon="8.635737255598428"><ele>298.0</ele><time>2026-05-02T15:06:05Z</time></trkpt><trkpt lat="40.3691005489035" lon="8.635943448101933"><ele>294.0</ele><time>2026-05-02T15:06:06Z</time></trkpt><trkpt lat="40.36913802167569" lon="8.63618417749805"><ele>294.0</ele><time>2026-05-02T15:06:07Z</time></trkpt><trkpt lat="40.36914411601879" lon="8.636441744100308"><ele>294.0</ele><time>2026-05-02T15:06:08Z</time></trkpt><trkpt lat="40.36914355953312" lon="8.63668628670182"><ele>294.0</ele><time>2026-05-02T15:06:09Z</time></trkpt><trkpt lat="40.36914746859644" lon="8.636927393737027"><ele>293.75</ele><time>2026-05-02T15:06:10Z</time></trkpt><trkpt lat="40.36915252093482" lon="8.637144729720342"><ele>293.5</ele><time>2026-05-02T15:06:11Z</time></trkpt><trkpt lat="40.36917931423673" lon="8.637268694261321"><ele>293.25</ele><time>2026-05-02T15:06:12Z</time></trkpt><trkpt lat="40.36924284363656" lon="8.637375356407912"><ele>293.0</ele><time>2026-05-02T15:06:13Z</time></trkpt><trkpt lat="40.369367548469796" lon="8.63741487713214"><ele>293.0</ele><time>2026-05-02T15:06:14Z</time></trkpt><trkpt lat="40.36950244214697" lon="8.637414474470225"><ele>293.0</ele><time>2026-05-02T15:06:15Z</time></trkpt><trkpt lat="40.36966262517708" lon="8.637403752144712"><ele>293.0</ele><time>2026-05-02T15:06:16Z</time></trkpt><trkpt lat="40.369812361585446" lon="8.637378102179984"><ele>293.0</ele><time>2026-05-02T15:06:17Z</time></trkpt><trkpt lat="40.369930577607896" lon="8.637300209598694"><ele>291.33333333333337</ele><time>2026-05-02T15:06:18Z</time></trkpt><trkpt lat="40.37001504385772" lon="8.637147693547245"><ele>289.6666666666667</ele><time>2026-05-02T15:06:19Z</time></trkpt><trkpt lat="40.37009724222953" lon="8.63695337039259"><ele>288.0</ele><time>2026-05-02T15:06:20Z</time></trkpt><trkpt lat="40.370172706469354" lon="8.636733136643064"><ele>287.3333333333333</ele><time>2026-05-02T15:06:21Z</time></trkpt><trkpt lat="40.370262663743475" lon="8.636519124836907"><ele>286.66666666666663</ele><time>2026-05-02T15:06:22Z</time></trkpt><trkpt lat="40.37036300733336" lon="8.636325990723947"><ele>286.0</ele><time>2026-05-02T15:06:23Z</time></trkpt><trkpt lat="40.370477471866316" lon="8.63619096179878"><ele>287.3333333333333</ele><time>2026-05-02T15:06:24Z</time></trkpt><trkpt lat="40.37061681930453" lon="8.636095938345953"><ele>288.6666666666667</ele><time>2026-05-02T15:06:25Z</time></trkpt><trkpt lat="40.37079174651096" lon="8.636043357182396"><ele>290.0</ele><time>2026-05-02T15:06:26Z</time></trkpt><trkpt lat="40.370982822978874" lon="8.636016249520644"><ele>290.0</ele><time>2026-05-02T15:06:27Z</time></trkpt><trkpt lat="40.37116834565812" lon="8.635986193330822"><ele>290.0</ele><time>2026-05-02T15:06:28Z</time></trkpt><trkpt lat="40.371350785779725" lon="8.635949240101759"><ele>290.0</ele><time>2026-05-02T15:06:29Z</time></trkpt><trkpt lat="40.371495491477006" lon="8.635886521944654"><ele>294.0</ele><time>2026-05-02T15:06:30Z</time></trkpt><trkpt lat="40.371626094066436" lon="8.635789652066869"><ele>298.0</ele><time>2026-05-02T15:06:31Z</time></trkpt><trkpt lat="40.371752063367914" lon="8.635666370963955"><ele>302.0</ele><time>2026-05-02T15:06:32Z</time></trkpt><trkpt lat="40.37186306092927" lon="8.63550871357674"><ele>302.0</ele><time>2026-05-02T15:06:33Z</time></trkpt><trkpt lat="40.37195412919329" lon="8.635325970802787"><ele>302.0</ele><time>2026-05-02T15:06:34Z</time></trkpt><trkpt lat="40.3720267562584" lon="8.635103357720737"><ele>302.0</ele><time>2026-05-02T15:06:35Z</time></trkpt><trkpt lat="40.372090304672355" lon="8.634851683986629"><ele>299.0</ele><time>2026-05-02T15:06:36Z</time></trkpt><trkpt lat="40.37212982972852" lon="8.634577552355317"><ele>296.0</ele><time>2026-05-02T15:06:37Z</time></trkpt><trkpt lat="40.37214484650651" lon="8.634289581279589"><ele>293.0</ele><time>2026-05-02T15:06:38Z</time></trkpt><trkpt lat="40.37214931697969" lon="8.634002771905427"><ele>292.6666666666667</ele><time>2026-05-02T15:06:39Z</time></trkpt><trkpt lat="40.37214666677922" lon="8.633746704566404"><ele>292.3333333333333</ele><time>2026-05-02T15:06:40Z</time></trkpt><trkpt lat="40.372117322979015" lon="8.633503343086646"><ele>292.0</ele><time>2026-05-02T15:06:41Z</time></trkpt><trkpt lat="40.37205796235399" lon="8.633268481003231"><ele>295.0</ele><time>2026-05-02T15:06:42Z</time></trkpt><trkpt lat="40.37198076991678" lon="8.633044325007827"><ele>298.0</ele><time>2026-05-02T15:06:43Z</time></trkpt><trkpt lat="40.37189625637637" lon="8.632833953606141"><ele>301.0</ele><time>2026-05-02T15:06:44Z</time></trkpt><trkpt lat="40.37181418653489" lon="8.632645624980777"><ele>305.3333333333333</ele><time>2026-05-02T15:06:45Z</time></trkpt><trkpt lat="40.371755758627366" lon="8.63248022844843"><ele>309.6666666666667</ele><time>2026-05-02T15:06:46Z</time></trkpt><trkpt lat="40.37172980412854" lon="8.632283665778138"><ele>314.0</ele><time>2026-05-02T15:06:47Z</time></trkpt><trkpt lat="40.37173170248728" lon="8.632074029824267"><ele>315.0</ele><time>2026-05-02T15:06:48Z</time></trkpt><trkpt lat="40.37179010649504" lon="8.631837204496481"><ele>316.0</ele><time>2026-05-02T15:06:49Z</time></trkpt><trkpt lat="40.371884365915975" lon="8.631620904294651"><ele>317.0</ele><time>2026-05-02T15:06:50Z</time></trkpt><trkpt lat="40.372010683446504" lon="8.631450000740754"><ele>317.0</ele><time>2026-05-02T15:06:51Z</time></trkpt><trkpt lat="40.37217353242745" lon="8.631316193544611"><ele>317.0</ele><time>2026-05-02T15:06:52Z</time></trkpt><trkpt lat="40.37235760498989" lon="8.631206294435252"><ele>317.0</ele><time>2026-05-02T15:06:53Z</time></trkpt><trkpt lat="40.37256084797155" lon="8.631091224961724"><ele>315.5</ele><time>2026-05-02T15:06:54Z</time></trkpt><trkpt lat="40.37276945032276" lon="8.630965266652254"><ele>314.0</ele><time>2026-05-02T15:06:55Z</time></trkpt><trkpt lat="40.372975787599856" lon="8.630817774876354"><ele>324.0</ele><time>2026-05-02T15:06:56Z</time></trkpt><trkpt lat="40.37318307677727" lon="8.63063512827907"><ele>334.0</ele><time>2026-05-02T15:06:57Z</time></trkpt><trkpt lat="40.3733664519547" lon="8.630461083364757"><ele>327.66666666666663</ele><time>2026-05-02T15:06:58Z</time></trkpt><trkpt lat="40.37351649579382" lon="8.630291586841913"><ele>321.3333333333333</ele><time>2026-05-02T15:06:59Z</time></trkpt><trkpt lat="40.373648772778786" lon="8.630123953829493"><ele>315.0</ele><time>2026-05-02T15:07:00Z</time></trkpt><trkpt lat="40.373787378492" lon="8.629963976754752"><ele>322.3333333333333</ele><time>2026-05-02T15:07:01Z</time></trkpt><trkpt lat="40.37392107887755" lon="8.629805216492134"><ele>329.66666666666663</ele><time>2026-05-02T15:07:02Z</time></trkpt><trkpt lat="40.37404524062534" lon="8.629677201022226"><ele>337.0</ele><time>2026-05-02T15:07:03Z</time></trkpt><trkpt lat="40.37416843571206" lon="8.62959535386294"><ele>337.0</ele><time>2026-05-02T15:07:04Z</time></trkpt><trkpt lat="40.37429731355471" lon="8.629582488152193"><ele>337.0</ele><time>2026-05-02T15:07:05Z</time></trkpt><trkpt lat="40.37442720501951" lon="8.629615114111804"><ele>337.0</ele><time>2026-05-02T15:07:06Z</time></trkpt><trkpt lat="40.37453671867425" lon="8.629696400764173"><ele>337.0</ele><time>2026-05-02T15:07:07Z</time></trkpt><trkpt lat="40.37462052189823" lon="8.629800959616325"><ele>337.0</ele><time>2026-05-02T15:07:08Z</time></trkpt><trkpt lat="40.374686901532726" lon="8.62992828671576"><ele>337.0</ele><time>2026-05-02T15:07:09Z</time></trkpt><trkpt lat="40.37473137486297" lon="8.63007680889193"><ele>337.0</ele><time>2026-05-02T15:07:10Z</time></trkpt><trkpt lat="40.374740471717814" lon="8.630238126466027"><ele>337.0</ele><time>2026-05-02T15:07:11Z</time></trkpt><trkpt lat="40.37473516804389" lon="8.630387152390906"><ele>337.0</ele><time>2026-05-02T15:07:12Z</time></trkpt><trkpt lat="40.37473343764733" lon="8.630532826125734"><ele>337.0</ele><time>2026-05-02T15:07:13Z</time></trkpt><trkpt lat="40.374722920396536" lon="8.63071853938891"><ele>337.0</ele><time>2026-05-02T15:07:14Z</time></trkpt><trkpt lat="40.3747123916588" lon="8.630936627295082"><ele>337.0</ele><time>2026-05-02T15:07:15Z</time></trkpt><trkpt lat="40.37470375702198" lon="8.631175689812087"><ele>337.0</ele><time>2026-05-02T15:07:16Z</time></trkpt><trkpt lat="40.374699749505716" lon="8.631434194376254"><ele>337.0</ele><time>2026-05-02T15:07:17Z</time></trkpt><trkpt lat="40.37470021950327" lon="8.631708222142782"><ele>337.0</ele><time>2026-05-02T15:07:18Z</time></trkpt><trkpt lat="40.37470151387031" lon="8.63201487302787"><ele>338.0</ele><time>2026-05-02T15:07:19Z</time></trkpt><trkpt lat="40.3746989736283" lon="8.63233658115868"><ele>339.0</ele><time>2026-05-02T15:07:20Z</time></trkpt><trkpt lat="40.37469574319563" lon="8.632691692509514"><ele>342.5</ele><time>2026-05-02T15:07:21Z</time></trkpt><trkpt lat="40.37469509855959" lon="8.633031074572022"><ele>346.0</ele><time>2026-05-02T15:07:22Z</time></trkpt><trkpt lat="40.374702684648256" lon="8.633316145356208"><ele>346.0</ele><time>2026-05-02T15:07:23Z</time></trkpt><trkpt lat="40.3747329087788" lon="8.633558730356935"><ele>346.0</ele><time>2026-05-02T15:07:24Z</time></trkpt><trkpt lat="40.37479642862196" lon="8.633798996446924"><ele>346.0</ele><time>2026-05-02T15:07:25Z</time></trkpt><trkpt lat="40.37485048728194" lon="8.634052844008673"><ele>347.66666666666663</ele><time>2026-05-02T15:07:26Z</time></trkpt><trkpt lat="40.37491054283626" lon="8.634286066705432"><ele>349.3333333333333</ele><time>2026-05-02T15:07:27Z</time></trkpt><trkpt lat="40.374960921536456" lon="8.634508241091526"><ele>351.0</ele><time>2026-05-02T15:07:28Z</time></trkpt><trkpt lat="40.375018598194856" lon="8.634738660006322"><ele>353.6666666666667</ele><time>2026-05-02T15:07:29Z</time></trkpt><trkpt lat="40.3750766559362" lon="8.634974059800182"><ele>356.33333333333337</ele><time>2026-05-02T15:07:30Z</time></trkpt><trkpt lat="40.375136034096634" lon="8.63521949502155"><ele>359.0</ele><time>2026-05-02T15:07:31Z</time></trkpt><trkpt lat="40.37519436897514" lon="8.635474578546765"><ele>361.0</ele><time>2026-05-02T15:07:32Z</time></trkpt><trkpt lat="40.37525313781543" lon="8.635746070199165"><ele>363.0</ele><time>2026-05-02T15:07:33Z</time></trkpt><trkpt lat="40.37531575239374" lon="8.636024122979723"><ele>365.0</ele><time>2026-05-02T15:07:34Z</time></trkpt><trkpt lat="40.37538258352665" lon="8.636310723696036"><ele>367.0</ele><time>2026-05-02T15:07:35Z</time></trkpt><trkpt lat="40.375451070825505" lon="8.636608942635775"><ele>369.0</ele><time>2026-05-02T15:07:36Z</time></trkpt><trkpt lat="40.375520444136136" lon="8.636912699210832"><ele>365.0</ele><time>2026-05-02T15:07:37Z</time></trkpt><trkpt lat="40.37559053310305" lon="8.63722319704581"><ele>361.0</ele><time>2026-05-02T15:07:38Z</time></trkpt><trkpt lat="40.37566068526257" lon="8.637536823001254"><ele>365.5</ele><time>2026-05-02T15:07:39Z</time></trkpt><trkpt lat="40.3757273591438" lon="8.637830701571104"><ele>370.0</ele><time>2026-05-02T15:07:40Z</time></trkpt><trkpt lat="40.375804239553304" lon="8.6381084746012"><ele>370.0</ele><time>2026-05-02T15:07:41Z</time></trkpt><trkpt lat="40.37591049606972" lon="8.638375739649375"><ele>370.0</ele><time>2026-05-02T15:07:42Z</time></trkpt><trkpt lat="40.376038985320854" lon="8.638604587061103"><ele>370.0</ele><time>2026-05-02T15:07:43Z</time></trkpt><trkpt lat="40.37620014986175" lon="8.638796010036723"><ele>370.3333333333333</ele><time>2026-05-02T15:07:44Z</time></trkpt><trkpt lat="40.376376353430075" lon="8.638975882026234"><ele>370.6666666666667</ele><time>2026-05-02T15:07:45Z</time></trkpt><trkpt lat="40.376573799800596" lon="8.639118817403613"><ele>371.0</ele><time>2026-05-02T15:07:46Z</time></trkpt><trkpt lat="40.37677718010688" lon="8.63923858945312"><ele>371.0</ele><time>2026-05-02T15:07:47Z</time></trkpt><trkpt lat="40.37700062780917" lon="8.639313128053677"><ele>371.0</ele><time>2026-05-02T15:07:48Z</time></trkpt><trkpt lat="40.37724196373912" lon="8.639347641408804"><ele>367.0</ele><time>2026-05-02T15:07:49Z</time></trkpt><trkpt lat="40.377489857235155" lon="8.639348483738972"><ele>363.0</ele><time>2026-05-02T15:07:50Z</time></trkpt><trkpt lat="40.377733558861316" lon="8.639299866793488"><ele>363.0</ele><time>2026-05-02T15:07:51Z</time></trkpt><trkpt lat="40.377977682543055" lon="8.639184701795978"><ele>363.0</ele><time>2026-05-02T15:07:52Z</time></trkpt><trkpt lat="40.37820808277285" lon="8.639033124919873"><ele>366.0</ele><time>2026-05-02T15:07:53Z</time></trkpt><trkpt lat="40.378420945909106" lon="8.638842939793037"><ele>369.0</ele><time>2026-05-02T15:07:54Z</time></trkpt><trkpt lat="40.378615064831706" lon="8.63860856083319"><ele>369.0</ele><time>2026-05-02T15:07:55Z</time></trkpt><trkpt lat="40.37879012051141" lon="8.638327778922932"><ele>369.0</ele><time>2026-05-02T15:07:56Z</time></trkpt><trkpt lat="40.3789568393562" lon="8.638020755414866"><ele>370.5</ele><time>2026-05-02T15:07:57Z</time></trkpt><trkpt lat="40.379127874308324" lon="8.637721195195507"><ele>372.0</ele><time>2026-05-02T15:07:58Z</time></trkpt><trkpt lat="40.3792905571551" lon="8.637439692120436"><ele>372.0</ele><time>2026-05-02T15:07:59Z</time></trkpt><trkpt lat="40.37945456649239" lon="8.637156681278745"><ele>372.0</ele><time>2026-05-02T15:08:00Z</time></trkpt><trkpt lat="40.37961688174037" lon="8.636882936169863"><ele>373.5</ele><time>2026-05-02T15:08:01Z</time></trkpt><trkpt lat="40.37978434222402" lon="8.63662765168495"><ele>375.0</ele><time>2026-05-02T15:08:02Z</time></trkpt><trkpt lat="40.379955816453666" lon="8.63640003525531"><ele>375.0</ele><time>2026-05-02T15:08:03Z</time></trkpt><trkpt lat="40.38012550473588" lon="8.636198130716702"><ele>375.0</ele><time>2026-05-02T15:08:04Z</time></trkpt><trkpt lat="40.380286631944855" lon="8.636007064800841"><ele>375.0</ele><time>2026-05-02T15:08:05Z</time></trkpt><trkpt lat="40.38044559118607" lon="8.635813184234324"><ele>375.3333333333333</ele><time>2026-05-02T15:08:06Z</time></trkpt><trkpt lat="40.38060660783154" lon="8.635615704611284"><ele>375.66666666666663</ele><time>2026-05-02T15:08:07Z</time></trkpt><trkpt lat="40.38077199075816" lon="8.635416754837754"><ele>376.0</ele><time>2026-05-02T15:08:08Z</time></trkpt><trkpt lat="40.38094587566416" lon="8.635216352553789"><ele>374.0</ele><time>2026-05-02T15:08:09Z</time></trkpt><trkpt lat="40.38112894269965" lon="8.635010589018368"><ele>372.0</ele><time>2026-05-02T15:08:10Z</time></trkpt><trkpt lat="40.38132011499602" lon="8.63480139178793"><ele>372.5</ele><time>2026-05-02T15:08:11Z</time></trkpt><trkpt lat="40.38151911815696" lon="8.63458513987471"><ele>373.0</ele><time>2026-05-02T15:08:12Z</time></trkpt><trkpt lat="40.38171226138673" lon="8.634368375862103"><ele>371.0</ele><time>2026-05-02T15:08:13Z</time></trkpt><trkpt lat="40.38188881763086" lon="8.634188140249998"><ele>369.0</ele><time>2026-05-02T15:08:14Z</time></trkpt><trkpt lat="40.38207091761062" lon="8.63398983451692"><ele>367.5</ele><time>2026-05-02T15:08:15Z</time></trkpt><trkpt lat="40.38225236871505" lon="8.633790707707018"><ele>366.0</ele><time>2026-05-02T15:08:16Z</time></trkpt><trkpt lat="40.38243469460138" lon="8.63359073087178"><ele>366.0</ele><time>2026-05-02T15:08:17Z</time></trkpt><trkpt lat="40.38262853773163" lon="8.633412082223389"><ele>366.0</ele><time>2026-05-02T15:08:18Z</time></trkpt><trkpt lat="40.382847041509244" lon="8.633296382971482"><ele>363.0</ele><time>2026-05-02T15:08:19Z</time></trkpt><trkpt lat="40.383068041238346" lon="8.6332066699958"><ele>360.0</ele><time>2026-05-02T15:08:20Z</time></trkpt><trkpt lat="40.383296188856505" lon="8.633131326163893"><ele>360.0</ele><time>2026-05-02T15:08:21Z</time></trkpt><trkpt lat="40.38352800385513" lon="8.633054649997714"><ele>360.0</ele><time>2026-05-02T15:08:22Z</time></trkpt><trkpt lat="40.38376183343749" lon="8.632966701219981"><ele>357.5</ele><time>2026-05-02T15:08:23Z</time></trkpt><trkpt lat="40.38400211890697" lon="8.632889877281611"><ele>355.0</ele><time>2026-05-02T15:08:24Z</time></trkpt><trkpt lat="40.384249022248376" lon="8.632812516779875"><ele>355.0</ele><time>2026-05-02T15:08:25Z</time></trkpt><trkpt lat="40.38450201132861" lon="8.63273340983383"><ele>355.0</ele><time>2026-05-02T15:08:26Z</time></trkpt><trkpt lat="40.384758727622255" lon="8.632651516175388"><ele>352.5</ele><time>2026-05-02T15:08:27Z</time></trkpt><trkpt lat="40.38501713042029" lon="8.632570154482874"><ele>350.0</ele><time>2026-05-02T15:08:28Z</time></trkpt><trkpt lat="40.385279077795786" lon="8.632488921620977"><ele>349.0</ele><time>2026-05-02T15:08:29Z</time></trkpt><trkpt lat="40.38553821272678" lon="8.632401981067346"><ele>348.0</ele><time>2026-05-02T15:08:30Z</time></trkpt><trkpt lat="40.38578054759115" lon="8.632321568271795"><ele>348.0</ele><time>2026-05-02T15:08:31Z</time></trkpt><trkpt lat="40.386009126915084" lon="8.632250078012069"><ele>348.0</ele><time>2026-05-02T15:08:32Z</time></trkpt><trkpt lat="40.386219477195624" lon="8.632142312997884"><ele>348.6666666666667</ele><time>2026-05-02T15:08:33Z</time></trkpt><trkpt lat="40.386409494944196" lon="8.631993333457846"><ele>349.33333333333337</ele><time>2026-05-02T15:08:34Z</time></trkpt><trkpt lat="40.38658300803097" lon="8.63182536353392"><ele>350.0</ele><time>2026-05-02T15:08:35Z</time></trkpt><trkpt lat="40.38673595537638" lon="8.631669588000719"><ele>350.0</ele><time>2026-05-02T15:08:36Z</time></trkpt><trkpt lat="40.38690608082702" lon="8.63159837250224"><ele>350.0</ele><time>2026-05-02T15:08:37Z</time></trkpt><trkpt lat="40.38708997271398" lon="8.63157234101615"><ele>350.0</ele><time>2026-05-02T15:08:38Z</time></trkpt><trkpt lat="40.38729598859391" lon="8.631578276402323"><ele>349.33333333333337</ele><time>2026-05-02T15:08:39Z</time></trkpt><trkpt lat="40.38750248179486" lon="8.631592379797166"><ele>348.6666666666667</ele><time>2026-05-02T15:08:40Z</time></trkpt><trkpt lat="40.38770394646571" lon="8.631612582073572"><ele>348.0</ele><time>2026-05-02T15:08:41Z</time></trkpt><trkpt lat="40.387890955181966" lon="8.631654657123807"><ele>346.6666666666667</ele><time>2026-05-02T15:08:42Z</time></trkpt><trkpt lat="40.38806671377975" lon="8.631712141572553"><ele>345.33333333333337</ele><time>2026-05-02T15:08:43Z</time></trkpt><trkpt lat="40.3882364565849" lon="8.631713475352417"><ele>344.0</ele><time>2026-05-02T15:08:44Z</time></trkpt><trkpt lat="40.388388214966135" lon="8.631887159769988"><ele>345.6666666666667</ele><time>2026-05-02T15:08:45Z</time></trkpt><trkpt lat="40.38853476359814" lon="8.632031562084624"><ele>347.3333333333333</ele><time>2026-05-02T15:08:46Z</time></trkpt><trkpt lat="40.38867957466336" lon="8.632189687347344"><ele>349.0</ele><time>2026-05-02T15:08:47Z</time></trkpt><trkpt lat="40.388825602343545" lon="8.632358129240243"><ele>350.0</ele><time>2026-05-02T15:08:48Z</time></trkpt><trkpt lat="40.388962990481524" lon="8.632537895744749"><ele>351.0</ele><time>2026-05-02T15:08:49Z</time></trkpt><trkpt lat="40.38908467693679" lon="8.632753233973782"><ele>352.0</ele><time>2026-05-02T15:08:50Z</time></trkpt><trkpt lat="40.38919265131299" lon="8.632998976214022"><ele>352.0</ele><time>2026-05-02T15:08:51Z</time></trkpt><trkpt lat="40.389305722520554" lon="8.633247864808611"><ele>352.0</ele><time>2026-05-02T15:08:52Z</time></trkpt><trkpt lat="40.38942408076794" lon="8.633487333015335"><ele>352.0</ele><time>2026-05-02T15:08:53Z</time></trkpt><trkpt lat="40.389536263024226" lon="8.633715959128919"><ele>351.0</ele><time>2026-05-02T15:08:54Z</time></trkpt><trkpt lat="40.389633153380046" lon="8.633945568789978"><ele>350.0</ele><time>2026-05-02T15:08:55Z</time></trkpt><trkpt lat="40.38970944798815" lon="8.634184119309051"><ele>349.0</ele><time>2026-05-02T15:08:56Z</time></trkpt><trkpt lat="40.38976339554794" lon="8.634422111529867"><ele>351.66666666666663</ele><time>2026-05-02T15:08:57Z</time></trkpt><trkpt lat="40.389807009474" lon="8.634646407649637"><ele>354.3333333333333</ele><time>2026-05-02T15:08:58Z</time></trkpt><trkpt lat="40.38985155051296" lon="8.634852525235297"><ele>357.0</ele><time>2026-05-02T15:08:59Z</time></trkpt><trkpt lat="40.38989914213878" lon="8.635055920657516"><ele>357.0</ele><time>2026-05-02T15:09:00Z</time></trkpt><trkpt lat="40.38995207091099" lon="8.635259810521617"><ele>357.0</ele><time>2026-05-02T15:09:01Z</time></trkpt><trkpt lat="40.390008356124426" lon="8.635469570749795"><ele>357.0</ele><time>2026-05-02T15:09:02Z</time></trkpt><trkpt lat="40.39008567289079" lon="8.63571048968278"><ele>362.5</ele><time>2026-05-02T15:09:03Z</time></trkpt><trkpt lat="40.390190901155684" lon="8.635967466604637"><ele>368.0</ele><time>2026-05-02T15:09:04Z</time></trkpt><trkpt lat="40.390311562884" lon="8.636232958380646"><ele>366.0</ele><time>2026-05-02T15:09:05Z</time></trkpt><trkpt lat="40.390440970595975" lon="8.636499580270401"><ele>364.0</ele><time>2026-05-02T15:09:06Z</time></trkpt><trkpt lat="40.39057628712588" lon="8.636755063174679"><ele>367.0</ele><time>2026-05-02T15:09:07Z</time></trkpt><trkpt lat="40.39070910837014" lon="8.63699495335033"><ele>370.0</ele><time>2026-05-02T15:09:08Z</time></trkpt><trkpt lat="40.3908173498019" lon="8.637218935170704"><ele>373.0</ele><time>2026-05-02T15:09:09Z</time></trkpt><trkpt lat="40.39079921708333" lon="8.639291432363724"><ele>374.79999999999995</ele><time>2026-05-02T15:09:20.588Z</time></trkpt><trkpt lat="40.390767641746415" lon="8.63942352980944"><ele>376.6</ele><time>2026-05-02T15:09:21.2Z</time></trkpt><trkpt lat="40.39077589222913" lon="8.639545449959915"><ele>378.4</ele><time>2026-05-02T15:09:21.8Z</time></trkpt><trkpt lat="40.3908034927719" lon="8.639700044012287"><ele>380.20000000000005</ele><time>2026-05-02T15:09:22.4Z</time></trkpt><trkpt lat="40.39083742718609" lon="8.63983858914885"><ele>382.0</ele><time>2026-05-02T15:09:23Z</time></trkpt><trkpt lat="40.39086812449213" lon="8.639972810579248"><ele>383.3333333333333</ele><time>2026-05-02T15:09:23.6Z</time></trkpt><trkpt lat="40.39091043391067" lon="8.640170895331737"><ele>384.66666666666663</ele><time>2026-05-02T15:09:24.5Z</time></trkpt><trkpt lat="40.39095184559146" lon="8.640400029144143"><ele>386.0</ele><time>2026-05-02T15:09:25.5Z</time></trkpt><trkpt lat="40.390976042354346" lon="8.640657911011754"><ele>389.0</ele><time>2026-05-02T15:09:26.5Z</time></trkpt><trkpt lat="40.39098164903481" lon="8.640954294567322"><ele>392.0</ele><time>2026-05-02T15:09:27.5Z</time></trkpt><trkpt lat="40.39097234177375" lon="8.641282861995021"><ele>392.66666666666663</ele><time>2026-05-02T15:09:28.5Z</time></trkpt><trkpt lat="40.39096523189914" lon="8.641459523610378"><ele>393.33333333333337</ele><time>2026-05-02T15:09:29Z</time></trkpt><trkpt lat="40.39095219726725" lon="8.641834029339034"><ele>394.0</ele><time>2026-05-02T15:09:30Z</time></trkpt><trkpt lat="40.390943983530434" lon="8.642233633376005"><ele>395.0</ele><time>2026-05-02T15:09:31Z</time></trkpt><trkpt lat="40.39093932281721" lon="8.642655689511193"><ele>396.0</ele><time>2026-05-02T15:09:32Z</time></trkpt><trkpt lat="40.39093639347174" lon="8.643074449638272"><ele>397.0</ele><time>2026-05-02T15:09:33Z</time></trkpt><trkpt lat="40.39092953837917" lon="8.643482752552902"><ele>398.0</ele><time>2026-05-02T15:09:34Z</time></trkpt><trkpt lat="40.39092551099709" lon="8.64382606865942"><ele>400.0</ele><time>2026-05-02T15:09:35Z</time></trkpt><trkpt lat="40.39093679693158" lon="8.644155351528704"><ele>402.0</ele><time>2026-05-02T15:09:36Z</time></trkpt><trkpt lat="40.390984880062454" lon="8.644416968057769"><ele>403.5</ele><time>2026-05-02T15:09:37Z</time></trkpt><trkpt lat="40.391134059136895" lon="8.644824927089294"><ele>405.0</ele><time>2026-05-02T15:09:38.5Z</time></trkpt><trkpt lat="40.391256312717196" lon="8.645128638414706"><ele>405.0</ele><time>2026-05-02T15:09:39.5Z</time></trkpt><trkpt lat="40.39131601732632" lon="8.64528553398859"><ele>405.0</ele><time>2026-05-02T15:09:40Z</time></trkpt><trkpt lat="40.3913743954066" lon="8.645439167249439"><ele>405.0</ele><time>2026-05-02T15:09:40.5Z</time></trkpt><trkpt lat="40.39143542122202" lon="8.645602557246816"><ele>405.0</ele><time>2026-05-02T15:09:41Z</time></trkpt><trkpt lat="40.39154873399602" lon="8.645898814103404"><ele>405.33333333333337</ele><time>2026-05-02T15:09:42Z</time></trkpt><trkpt lat="40.39159911690025" lon="8.646032919160866"><ele>405.6666666666667</ele><time>2026-05-02T15:09:42.5Z</time></trkpt><trkpt lat="40.39169863773726" lon="8.646298608343873"><ele>406.0</ele><time>2026-05-02T15:09:43.5Z</time></trkpt><trkpt lat="40.39175075203931" lon="8.64643646130554"><ele>407.0</ele><time>2026-05-02T15:09:44Z</time></trkpt><trkpt lat="40.39185233196031" lon="8.646713603507887"><ele>408.0</ele><time>2026-05-02T15:09:45Z</time></trkpt><trkpt lat="40.39195118282956" lon="8.646988261536189"><ele>408.66666666666663</ele><time>2026-05-02T15:09:46Z</time></trkpt><trkpt lat="40.39204887480918" lon="8.647255821665823"><ele>409.3333333333333</ele><time>2026-05-02T15:09:47Z</time></trkpt><trkpt lat="40.39214519904996" lon="8.647514357977153"><ele>410.0</ele><time>2026-05-02T15:09:48Z</time></trkpt><trkpt lat="40.39224316500788" lon="8.647777288171296"><ele>410.5</ele><time>2026-05-02T15:09:49Z</time></trkpt><trkpt lat="40.392345165979606" lon="8.648055959593647"><ele>411.0</ele><time>2026-05-02T15:09:50Z</time></trkpt><trkpt lat="40.39244787949336" lon="8.648336235914487"><ele>412.5</ele><time>2026-05-02T15:09:51Z</time></trkpt><trkpt lat="40.39255586077026" lon="8.648634377775858"><ele>414.0</ele><time>2026-05-02T15:09:52Z</time></trkpt><trkpt lat="40.39265935384282" lon="8.648916399901774"><ele>414.0</ele><time>2026-05-02T15:09:53Z</time></trkpt><trkpt lat="40.39275857287134" lon="8.649176609939373"><ele>414.0</ele><time>2026-05-02T15:09:54Z</time></trkpt><trkpt lat="40.39285242354654" lon="8.649430451725511"><ele>414.0</ele><time>2026-05-02T15:09:55Z</time></trkpt><trkpt lat="40.392940455997035" lon="8.649660870012864"><ele>414.66666666666663</ele><time>2026-05-02T15:09:56Z</time></trkpt><trkpt lat="40.39302534483552" lon="8.649893980726281"><ele>415.3333333333333</ele><time>2026-05-02T15:09:57Z</time></trkpt><trkpt lat="40.393109273648015" lon="8.650129960868155"><ele>416.0</ele><time>2026-05-02T15:09:58Z</time></trkpt><trkpt lat="40.39319588899424" lon="8.650369831912837"><ele>417.3333333333333</ele><time>2026-05-02T15:09:59Z</time></trkpt><trkpt lat="40.393286737003564" lon="8.650610937033083"><ele>418.66666666666663</ele><time>2026-05-02T15:10:00Z</time></trkpt><trkpt lat="40.39338209058034" lon="8.650859160449873"><ele>420.0</ele><time>2026-05-02T15:10:01Z</time></trkpt><trkpt lat="40.3934703979213" lon="8.651096667371254"><ele>420.66666666666663</ele><time>2026-05-02T15:10:02Z</time></trkpt><trkpt lat="40.393544743267256" lon="8.651304756012104"><ele>421.3333333333333</ele><time>2026-05-02T15:10:03Z</time></trkpt><trkpt lat="40.39360834749395" lon="8.651483035397888"><ele>422.0</ele><time>2026-05-02T15:10:04Z</time></trkpt><trkpt lat="40.39367709614916" lon="8.651664643485637"><ele>422.0</ele><time>2026-05-02T15:10:05Z</time></trkpt><trkpt lat="40.39374597171539" lon="8.651857731855761"><ele>422.0</ele><time>2026-05-02T15:10:06Z</time></trkpt><trkpt lat="40.39381092810787" lon="8.652060894501238"><ele>422.0</ele><time>2026-05-02T15:10:07Z</time></trkpt><trkpt lat="40.39387077110218" lon="8.652277579079339"><ele>421.66666666666663</ele><time>2026-05-02T15:10:08Z</time></trkpt><trkpt lat="40.39392274452805" lon="8.652506625554883"><ele>421.33333333333337</ele><time>2026-05-02T15:10:09Z</time></trkpt><trkpt lat="40.39395340486833" lon="8.652756139994391"><ele>421.0</ele><time>2026-05-02T15:10:10Z</time></trkpt><trkpt lat="40.39398009465727" lon="8.653015396986351"><ele>422.0</ele><time>2026-05-02T15:10:11Z</time></trkpt><trkpt lat="40.3939929972066" lon="8.653293407488254"><ele>423.0</ele><time>2026-05-02T15:10:12Z</time></trkpt><trkpt lat="40.393988847650874" lon="8.653581559998475"><ele>424.0</ele><time>2026-05-02T15:10:13Z</time></trkpt><trkpt lat="40.3939565135431" lon="8.65387969416169"><ele>425.0</ele><time>2026-05-02T15:10:14Z</time></trkpt><trkpt lat="40.39392087493135" lon="8.654187286774064"><ele>426.0</ele><time>2026-05-02T15:10:15Z</time></trkpt><trkpt lat="40.39386323192273" lon="8.6545072375447"><ele>429.0</ele><time>2026-05-02T15:10:16Z</time></trkpt><trkpt lat="40.39378374607483" lon="8.654834783484603"><ele>432.0</ele><time>2026-05-02T15:10:17Z</time></trkpt><trkpt lat="40.39369086903417" lon="8.655141197750984"><ele>432.66666666666663</ele><time>2026-05-02T15:10:18Z</time></trkpt><trkpt lat="40.393606825041935" lon="8.655413039163797"><ele>433.3333333333333</ele><time>2026-05-02T15:10:19Z</time></trkpt><trkpt lat="40.3935270951112" lon="8.655672871897593"><ele>434.0</ele><time>2026-05-02T15:10:20Z</time></trkpt><trkpt lat="40.393448035063116" lon="8.655931868495726"><ele>434.0</ele><time>2026-05-02T15:10:21Z</time></trkpt><trkpt lat="40.39336794431036" lon="8.656194241626629"><ele>434.0</ele><time>2026-05-02T15:10:22Z</time></trkpt><trkpt lat="40.39330128172778" lon="8.65646935161013"><ele>434.0</ele><time>2026-05-02T15:10:23Z</time></trkpt><trkpt lat="40.39320215235514" lon="8.65673587204886"><ele>435.0</ele><time>2026-05-02T15:10:24Z</time></trkpt><trkpt lat="40.39313324263501" lon="8.657014742040582"><ele>436.0</ele><time>2026-05-02T15:10:25Z</time></trkpt><trkpt lat="40.39305046244457" lon="8.657281836619173"><ele>437.0</ele><time>2026-05-02T15:10:26Z</time></trkpt><trkpt lat="40.39297229988549" lon="8.657559509222455"><ele>439.5</ele><time>2026-05-02T15:10:27Z</time></trkpt><trkpt lat="40.39290274351921" lon="8.657851124900686"><ele>442.0</ele><time>2026-05-02T15:10:28Z</time></trkpt><trkpt lat="40.39285508684132" lon="8.658150099360915"><ele>442.0</ele><time>2026-05-02T15:10:29Z</time></trkpt><trkpt lat="40.39283809842438" lon="8.658457443992557"><ele>442.0</ele><time>2026-05-02T15:10:30Z</time></trkpt><trkpt lat="40.39282795941957" lon="8.658760864040337"><ele>444.0</ele><time>2026-05-02T15:10:31Z</time></trkpt><trkpt lat="40.39279634180834" lon="8.659068129647524"><ele>446.0</ele><time>2026-05-02T15:10:32Z</time></trkpt><trkpt lat="40.39277961319259" lon="8.65937586397955"><ele>446.0</ele><time>2026-05-02T15:10:33Z</time></trkpt><trkpt lat="40.392763520154354" lon="8.659691591448109"><ele>446.0</ele><time>2026-05-02T15:10:34Z</time></trkpt><trkpt lat="40.39274747386882" lon="8.6600064016188"><ele>446.5</ele><time>2026-05-02T15:10:35Z</time></trkpt><trkpt lat="40.392746691549966" lon="8.660315362896013"><ele>447.0</ele><time>2026-05-02T15:10:36Z</time></trkpt><trkpt lat="40.39273042121474" lon="8.660617882850875"><ele>447.0</ele><time>2026-05-02T15:10:37Z</time></trkpt><trkpt lat="40.392701072436964" lon="8.660916745870065"><ele>447.0</ele><time>2026-05-02T15:10:38Z</time></trkpt><trkpt lat="40.39268951230451" lon="8.661218440040784"><ele>448.0</ele><time>2026-05-02T15:10:39Z</time></trkpt><trkpt lat="40.39268968680876" lon="8.66152417072098"><ele>449.0</ele><time>2026-05-02T15:10:40Z</time></trkpt><trkpt lat="40.39271920719106" lon="8.661825643478585"><ele>448.0</ele><time>2026-05-02T15:10:41Z</time></trkpt><trkpt lat="40.3927447374491" lon="8.662119241324735"><ele>447.0</ele><time>2026-05-02T15:10:42Z</time></trkpt><trkpt lat="40.39275851538464" lon="8.662404418309526"><ele>446.0</ele><time>2026-05-02T15:10:43Z</time></trkpt><trkpt lat="40.39278556974724" lon="8.662666378526968"><ele>445.3333333333333</ele><time>2026-05-02T15:10:44Z</time></trkpt><trkpt lat="40.39282763265028" lon="8.662917439013036"><ele>444.66666666666663</ele><time>2026-05-02T15:10:45Z</time></trkpt><trkpt lat="40.39285751227193" lon="8.663177163381855"><ele>444.0</ele><time>2026-05-02T15:10:46Z</time></trkpt><trkpt lat="40.392904261979965" lon="8.663441707583786"><ele>444.33333333333337</ele><time>2026-05-02T15:10:47Z</time></trkpt><trkpt lat="40.39297729073648" lon="8.663701526161146"><ele>444.6666666666667</ele><time>2026-05-02T15:10:48Z</time></trkpt><trkpt lat="40.39306844829475" lon="8.66395264939196"><ele>445.0</ele><time>2026-05-02T15:10:49Z</time></trkpt><trkpt lat="40.39316747587079" lon="8.664189944904496"><ele>443.6666666666667</ele><time>2026-05-02T15:10:50Z</time></trkpt><trkpt lat="40.39324004244303" lon="8.664421756466837"><ele>442.33333333333337</ele><time>2026-05-02T15:10:51Z</time></trkpt><trkpt lat="40.39339353789624" lon="8.664596320542355"><ele>441.0</ele><time>2026-05-02T15:10:52Z</time></trkpt><trkpt lat="40.3935313203374" lon="8.664780070512236"><ele>441.0</ele><time>2026-05-02T15:10:53Z</time></trkpt><trkpt lat="40.39368362964522" lon="8.66495236296573"><ele>441.0</ele><time>2026-05-02T15:10:54Z</time></trkpt><trkpt lat="40.3938544740809" lon="8.665110504532063"><ele>441.0</ele><time>2026-05-02T15:10:55Z</time></trkpt><trkpt lat="40.39403195978013" lon="8.665238687448305"><ele>440.33333333333337</ele><time>2026-05-02T15:10:56Z</time></trkpt><trkpt lat="40.39420587034203" lon="8.665340892387055"><ele>439.6666666666667</ele><time>2026-05-02T15:10:57Z</time></trkpt><trkpt lat="40.39441013693073" lon="8.665439603324781"><ele>439.0</ele><time>2026-05-02T15:10:58Z</time></trkpt><trkpt lat="40.39464528670927" lon="8.665545238252907"><ele>439.5</ele><time>2026-05-02T15:10:59Z</time></trkpt><trkpt lat="40.39490778067863" lon="8.665680759380164"><ele>440.0</ele><time>2026-05-02T15:11:00Z</time></trkpt><trkpt lat="40.39518805386458" lon="8.665834562175498"><ele>440.0</ele><time>2026-05-02T15:11:01Z</time></trkpt><trkpt lat="40.395489453231626" lon="8.665995903089513"><ele>440.0</ele><time>2026-05-02T15:11:02Z</time></trkpt><trkpt lat="40.39580583583323" lon="8.666153365867231"><ele>440.0</ele><time>2026-05-02T15:11:03Z</time></trkpt><trkpt lat="40.39609510509452" lon="8.666313692582714"><ele>440.0</ele><time>2026-05-02T15:11:04Z</time></trkpt><trkpt lat="40.39633388496192" lon="8.666451991204204"><ele>441.5</ele><time>2026-05-02T15:11:05Z</time></trkpt><trkpt lat="40.39656018135467" lon="8.666564621944126"><ele>443.0</ele><time>2026-05-02T15:11:06Z</time></trkpt><trkpt lat="40.39680139178853" lon="8.666635888299545"><ele>443.0</ele><time>2026-05-02T15:11:07Z</time></trkpt><trkpt lat="40.39706234456308" lon="8.666662135007268"><ele>443.0</ele><time>2026-05-02T15:11:08Z</time></trkpt><trkpt lat="40.3973308584184" lon="8.666644297879504"><ele>445.5</ele><time>2026-05-02T15:11:09Z</time></trkpt><trkpt lat="40.39760060825572" lon="8.666582492411795"><ele>448.0</ele><time>2026-05-02T15:11:10Z</time></trkpt><trkpt lat="40.39785732797349" lon="8.66647767879437"><ele>451.0</ele><time>2026-05-02T15:11:11Z</time></trkpt><trkpt lat="40.398099162204126" lon="8.666332104222429"><ele>454.0</ele><time>2026-05-02T15:11:12Z</time></trkpt><trkpt lat="40.39833847411812" lon="8.66614261027149"><ele>452.5</ele><time>2026-05-02T15:11:13Z</time></trkpt><trkpt lat="40.398589541115264" lon="8.66592731539566"><ele>451.0</ele><time>2026-05-02T15:11:14Z</time></trkpt><trkpt lat="40.398847216253145" lon="8.665703559351932"><ele>454.0</ele><time>2026-05-02T15:11:15Z</time></trkpt><trkpt lat="40.39911395856744" lon="8.665486908444038"><ele>457.0</ele><time>2026-05-02T15:11:16Z</time></trkpt><trkpt lat="40.3993662344936" lon="8.665286534916383"><ele>458.5</ele><time>2026-05-02T15:11:17Z</time></trkpt><trkpt lat="40.39959015154308" lon="8.66510500967535"><ele>460.0</ele><time>2026-05-02T15:11:18Z</time></trkpt><trkpt lat="40.39979937943849" lon="8.664940621159536"><ele>460.0</ele><time>2026-05-02T15:11:19Z</time></trkpt><trkpt lat="40.40001208852419" lon="8.664801879519198"><ele>460.0</ele><time>2026-05-02T15:11:20Z</time></trkpt><trkpt lat="40.40023190119858" lon="8.664702180229618"><ele>460.0</ele><time>2026-05-02T15:11:21Z</time></trkpt><trkpt lat="40.400448044848005" lon="8.664650894185158"><ele>460.0</ele><time>2026-05-02T15:11:22Z</time></trkpt><trkpt lat="40.40067990020778" lon="8.664641522254438"><ele>462.0</ele><time>2026-05-02T15:11:23Z</time></trkpt><trkpt lat="40.400923997700744" lon="8.664675075692507"><ele>464.0</ele><time>2026-05-02T15:11:24Z</time></trkpt><trkpt lat="40.40116831722967" lon="8.66475496425544"><ele>463.5</ele><time>2026-05-02T15:11:25Z</time></trkpt><trkpt lat="40.401408607382415" lon="8.664869779194516"><ele>463.0</ele><time>2026-05-02T15:11:26Z</time></trkpt><trkpt lat="40.401651486136295" lon="8.665017546364734"><ele>463.0</ele><time>2026-05-02T15:11:27Z</time></trkpt><trkpt lat="40.401896893818105" lon="8.665161842907008"><ele>463.0</ele><time>2026-05-02T15:11:28Z</time></trkpt><trkpt lat="40.40214189758397" lon="8.665300073764113"><ele>462.0</ele><time>2026-05-02T15:11:29Z</time></trkpt><trkpt lat="40.4023850864255" lon="8.665431019817449"><ele>461.0</ele><time>2026-05-02T15:11:30Z</time></trkpt><trkpt lat="40.40262247495993" lon="8.66555822171378"><ele>461.0</ele><time>2026-05-02T15:11:31Z</time></trkpt><trkpt lat="40.402856277853154" lon="8.665687665814405"><ele>461.0</ele><time>2026-05-02T15:11:32Z</time></trkpt><trkpt lat="40.40307423293133" lon="8.665828939433073"><ele>459.5</ele><time>2026-05-02T15:11:33Z</time></trkpt><trkpt lat="40.4032769153397" lon="8.665992836726145"><ele>458.0</ele><time>2026-05-02T15:11:34Z</time></trkpt><trkpt lat="40.40347289985921" lon="8.666188845751835"><ele>458.0</ele><time>2026-05-02T15:11:35Z</time></trkpt><trkpt lat="40.4036696576872" lon="8.666427825412212"><ele>458.0</ele><time>2026-05-02T15:11:36Z</time></trkpt><trkpt lat="40.403853591066806" lon="8.666705345266998"><ele>455.0</ele><time>2026-05-02T15:11:37Z</time></trkpt><trkpt lat="40.40401912439862" lon="8.66700457746297"><ele>452.0</ele><time>2026-05-02T15:11:38Z</time></trkpt><trkpt lat="40.40415532280455" lon="8.667279148916833"><ele>452.0</ele><time>2026-05-02T15:11:39Z</time></trkpt><trkpt lat="40.40426272333705" lon="8.667538966177384"><ele>452.0</ele><time>2026-05-02T15:11:40Z</time></trkpt><trkpt lat="40.40435177626296" lon="8.667829343771203"><ele>456.0</ele><time>2026-05-02T15:11:41Z</time></trkpt><trkpt lat="40.40443633146265" lon="8.668150315102283"><ele>460.0</ele><time>2026-05-02T15:11:42Z</time></trkpt><trkpt lat="40.404529350663445" lon="8.66848254121386"><ele>464.0</ele><time>2026-05-02T15:11:43Z</time></trkpt><trkpt lat="40.40464269279319" lon="8.668810120398188"><ele>468.0</ele><time>2026-05-02T15:11:44Z</time></trkpt><trkpt lat="40.40477641322372" lon="8.669113612313376"><ele>464.5</ele><time>2026-05-02T15:11:45Z</time></trkpt><trkpt lat="40.404928035439575" lon="8.669363622149644"><ele>461.0</ele><time>2026-05-02T15:11:46Z</time></trkpt><trkpt lat="40.40509859152958" lon="8.66956892407942"><ele>461.0</ele><time>2026-05-02T15:11:47Z</time></trkpt><trkpt lat="40.405280911808354" lon="8.66976888700691"><ele>461.0</ele><time>2026-05-02T15:11:48Z</time></trkpt><trkpt lat="40.405433699611045" lon="8.670012065040472"><ele>457.0</ele><time>2026-05-02T15:11:49Z</time></trkpt><trkpt lat="40.40555872743572" lon="8.67032301287882"><ele>453.0</ele><time>2026-05-02T15:11:50Z</time></trkpt><trkpt lat="40.405683488244236" lon="8.67066710215287"><ele>453.0</ele><time>2026-05-02T15:11:51Z</time></trkpt><trkpt lat="40.40582807613753" lon="8.671011504777834"><ele>453.0</ele><time>2026-05-02T15:11:52Z</time></trkpt><trkpt lat="40.40599116286237" lon="8.671341754933547"><ele>456.0</ele><time>2026-05-02T15:11:53Z</time></trkpt><trkpt lat="40.4061611111306" lon="8.671653904318834"><ele>459.0</ele><time>2026-05-02T15:11:54Z</time></trkpt><trkpt lat="40.40632776861299" lon="8.67196102144914"><ele>457.0</ele><time>2026-05-02T15:11:55Z</time></trkpt><trkpt lat="40.40648683864707" lon="8.67226608747676"><ele>455.0</ele><time>2026-05-02T15:11:56Z</time></trkpt><trkpt lat="40.40664375774595" lon="8.672569918749344"><ele>456.0</ele><time>2026-05-02T15:11:57Z</time></trkpt><trkpt lat="40.406800248878504" lon="8.672872701243886"><ele>457.0</ele><time>2026-05-02T15:11:58Z</time></trkpt><trkpt lat="40.40695625600372" lon="8.673174492842914"><ele>457.0</ele><time>2026-05-02T15:11:59Z</time></trkpt><trkpt lat="40.40711348402657" lon="8.673476117491127"><ele>457.0</ele><time>2026-05-02T15:12:00Z</time></trkpt><trkpt lat="40.407272166235494" lon="8.673779585632193"><ele>456.0</ele><time>2026-05-02T15:12:01Z</time></trkpt><trkpt lat="40.40743180066874" lon="8.674084457706291"><ele>455.0</ele><time>2026-05-02T15:12:02Z</time></trkpt><trkpt lat="40.40759225400089" lon="8.674390683836036"><ele>455.5</ele><time>2026-05-02T15:12:03Z</time></trkpt><trkpt lat="40.407753181340794" lon="8.674695926232154"><ele>456.0</ele><time>2026-05-02T15:12:04Z</time></trkpt><trkpt lat="40.40791401255302" lon="8.675002137482107"><ele>456.0</ele><time>2026-05-02T15:12:05Z</time></trkpt><trkpt lat="40.40807420967696" lon="8.675311144317137"><ele>456.0</ele><time>2026-05-02T15:12:06Z</time></trkpt><trkpt lat="40.408233702535846" lon="8.67561806362269"><ele>456.0</ele><time>2026-05-02T15:12:07Z</time></trkpt><trkpt lat="40.40839453945008" lon="8.675923293792623"><ele>456.0</ele><time>2026-05-02T15:12:08Z</time></trkpt><trkpt lat="40.4085550497142" lon="8.676228558616897"><ele>456.5</ele><time>2026-05-02T15:12:09Z</time></trkpt><trkpt lat="40.40871594195338" lon="8.676533712030965"><ele>457.0</ele><time>2026-05-02T15:12:10Z</time></trkpt><trkpt lat="40.40887553046938" lon="8.676837356532488"><ele>457.0</ele><time>2026-05-02T15:12:11Z</time></trkpt><trkpt lat="40.40903351035223" lon="8.677141042494707"><ele>457.0</ele><time>2026-05-02T15:12:12Z</time></trkpt><trkpt lat="40.4091820746558" lon="8.677427996673766"><ele>457.0</ele><time>2026-05-02T15:12:13Z</time></trkpt><trkpt lat="40.409305437636995" lon="8.677666175330147"><ele>457.0</ele><time>2026-05-02T15:12:14Z</time></trkpt><trkpt lat="40.4094092829421" lon="8.677871867938594"><ele>457.0</ele><time>2026-05-02T15:12:15Z</time></trkpt><trkpt lat="40.409503737916296" lon="8.678082720042122"><ele>457.0</ele><time>2026-05-02T15:12:16Z</time></trkpt><trkpt lat="40.40956017763483" lon="8.678282614996366"><ele>457.0</ele><time>2026-05-02T15:12:17Z</time></trkpt><trkpt lat="40.40954363300821" lon="8.678496738418849"><ele>457.0</ele><time>2026-05-02T15:12:18Z</time></trkpt><trkpt lat="40.4094938625363" lon="8.67872731357188"><ele>457.0</ele><time>2026-05-02T15:12:19Z</time></trkpt><trkpt lat="40.40943941927851" lon="8.678968597801196"><ele>457.0</ele><time>2026-05-02T15:12:20Z</time></trkpt><trkpt lat="40.40938175407704" lon="8.679199227557197"><ele>457.0</ele><time>2026-05-02T15:12:21Z</time></trkpt><trkpt lat="40.40936412760564" lon="8.679437863678455"><ele>456.0</ele><time>2026-05-02T15:12:22Z</time></trkpt><trkpt lat="40.409394676295435" lon="8.679668763292714"><ele>455.0</ele><time>2026-05-02T15:12:23Z</time></trkpt><trkpt lat="40.409471933077576" lon="8.679905366947539"><ele>454.0</ele><time>2026-05-02T15:12:24Z</time></trkpt><trkpt lat="40.409589160828446" lon="8.680146754359633"><ele>451.5</ele><time>2026-05-02T15:12:25Z</time></trkpt><trkpt lat="40.40974004323509" lon="8.680392768098054"><ele>449.0</ele><time>2026-05-02T15:12:26Z</time></trkpt><trkpt lat="40.40988037311356" lon="8.680661030457767"><ele>449.0</ele><time>2026-05-02T15:12:27Z</time></trkpt><trkpt lat="40.41002926632175" lon="8.680927710198246"><ele>449.0</ele><time>2026-05-02T15:12:28Z</time></trkpt><trkpt lat="40.41016520235904" lon="8.68120457206346"><ele>448.0</ele><time>2026-05-02T15:12:29Z</time></trkpt><trkpt lat="40.41027797277615" lon="8.681501093794147"><ele>447.0</ele><time>2026-05-02T15:12:30Z</time></trkpt><trkpt lat="40.41038891161461" lon="8.68180487639922"><ele>445.0</ele><time>2026-05-02T15:12:31Z</time></trkpt><trkpt lat="40.410510491505164" lon="8.682100763934129"><ele>443.0</ele><time>2026-05-02T15:12:32Z</time></trkpt><trkpt lat="40.41061358674229" lon="8.682390447297742"><ele>443.0</ele><time>2026-05-02T15:12:33Z</time></trkpt><trkpt lat="40.410722215437154" lon="8.682678928524187"><ele>443.0</ele><time>2026-05-02T15:12:34Z</time></trkpt><trkpt lat="40.4108344421981" lon="8.68294978262609"><ele>439.5</ele><time>2026-05-02T15:12:35Z</time></trkpt><trkpt lat="40.410966720339495" lon="8.683217083530387"><ele>436.0</ele><time>2026-05-02T15:12:36Z</time></trkpt><trkpt lat="40.41103476177521" lon="8.683523036606315"><ele>436.0</ele><time>2026-05-02T15:12:37Z</time></trkpt><trkpt lat="40.41125379017836" lon="8.683714742684604"><ele>436.0</ele><time>2026-05-02T15:12:38Z</time></trkpt><trkpt lat="40.41138664977818" lon="8.683977729188928"><ele>436.0</ele><time>2026-05-02T15:12:39Z</time></trkpt><trkpt lat="40.411491856222526" lon="8.684255063901725"><ele>436.0</ele><time>2026-05-02T15:12:40Z</time></trkpt><trkpt lat="40.4115780695697" lon="8.68452450955146"><ele>433.33333333333337</ele><time>2026-05-02T15:12:41Z</time></trkpt><trkpt lat="40.41166484286624" lon="8.684785691907127"><ele>430.66666666666663</ele><time>2026-05-02T15:12:42Z</time></trkpt><trkpt lat="40.411749905534045" lon="8.685036195487207"><ele>428.0</ele><time>2026-05-02T15:12:43Z</time></trkpt><trkpt lat="40.41183370426781" lon="8.685281451438303"><ele>425.66666666666663</ele><time>2026-05-02T15:12:44Z</time></trkpt><trkpt lat="40.411921764289424" lon="8.685521377317482"><ele>423.33333333333337</ele><time>2026-05-02T15:12:45Z</time></trkpt><trkpt lat="40.412023108938456" lon="8.685754770278718"><ele>421.0</ele><time>2026-05-02T15:12:46Z</time></trkpt><trkpt lat="40.41213318839176" lon="8.685972271087977"><ele>420.33333333333337</ele><time>2026-05-02T15:12:47Z</time></trkpt><trkpt lat="40.412245464086844" lon="8.6861728607851"><ele>419.66666666666663</ele><time>2026-05-02T15:12:48Z</time></trkpt><trkpt lat="40.412348033521226" lon="8.686351995196894"><ele>419.0</ele><time>2026-05-02T15:12:49Z</time></trkpt><trkpt lat="40.41243550416086" lon="8.686511095049656"><ele>419.0</ele><time>2026-05-02T15:12:50Z</time></trkpt><trkpt lat="40.412511020049415" lon="8.686649069640007"><ele>419.0</ele><time>2026-05-02T15:12:51Z</time></trkpt><trkpt lat="40.41257766464023" lon="8.686773016106585"><ele>419.0</ele><time>2026-05-02T15:12:52Z</time></trkpt><trkpt lat="40.41264159466099" lon="8.68687866269599"><ele>419.0</ele><time>2026-05-02T15:12:53Z</time></trkpt><trkpt lat="40.41269846603417" lon="8.686953128216178"><ele>419.0</ele><time>2026-05-02T15:12:54Z</time></trkpt><trkpt lat="40.41276551233425" lon="8.686993280564588"><ele>419.0</ele><time>2026-05-02T15:12:55Z</time></trkpt><trkpt lat="40.41284310446895" lon="8.686984165917087"><ele>419.0</ele><time>2026-05-02T15:12:56Z</time></trkpt><trkpt lat="40.412930204006834" lon="8.686926026580355"><ele>419.0</ele><time>2026-05-02T15:12:57Z</time></trkpt><trkpt lat="40.41302116932295" lon="8.686830665733986"><ele>419.0</ele><time>2026-05-02T15:12:58Z</time></trkpt><trkpt lat="40.41313871880288" lon="8.686755539918208"><ele>419.0</ele><time>2026-05-02T15:12:59Z</time></trkpt><trkpt lat="40.413283631378974" lon="8.686719133011545"><ele>417.66666666666663</ele><time>2026-05-02T15:13:00Z</time></trkpt><trkpt lat="40.41343891047673" lon="8.686684905689457"><ele>416.33333333333337</ele><time>2026-05-02T15:13:01Z</time></trkpt><trkpt lat="40.41361051066977" lon="8.686650088327942"><ele>415.0</ele><time>2026-05-02T15:13:02Z</time></trkpt><trkpt lat="40.413792022001836" lon="8.686620372583993"><ele>414.0</ele><time>2026-05-02T15:13:03Z</time></trkpt><trkpt lat="40.4139773497849" lon="8.686588506441018"><ele>413.0</ele><time>2026-05-02T15:13:04Z</time></trkpt><trkpt lat="40.414165346512036" lon="8.68655323190738"><ele>412.0</ele><time>2026-05-02T15:13:05Z</time></trkpt><trkpt lat="40.4143586597654" lon="8.686514746753504"><ele>412.0</ele><time>2026-05-02T15:13:06Z</time></trkpt><trkpt lat="40.414555812121264" lon="8.686478328606386"><ele>412.0</ele><time>2026-05-02T15:13:07Z</time></trkpt><trkpt lat="40.41475592887366" lon="8.686440735387574"><ele>412.0</ele><time>2026-05-02T15:13:08Z</time></trkpt><trkpt lat="40.41495958554089" lon="8.6864013396235"><ele>409.33333333333337</ele><time>2026-05-02T15:13:09Z</time></trkpt><trkpt lat="40.4151581453944" lon="8.68636095959092"><ele>406.66666666666663</ele><time>2026-05-02T15:13:10Z</time></trkpt><trkpt lat="40.41535030394757" lon="8.686322894086697"><ele>404.0</ele><time>2026-05-02T15:13:11Z</time></trkpt><trkpt lat="40.41553946706258" lon="8.686286790234492"><ele>402.0</ele><time>2026-05-02T15:13:12Z</time></trkpt><trkpt lat="40.415723690846015" lon="8.686252627404182"><ele>400.0</ele><time>2026-05-02T15:13:13Z</time></trkpt><trkpt lat="40.41591274975061" lon="8.686216770694191"><ele>398.0</ele><time>2026-05-02T15:13:14Z</time></trkpt><trkpt lat="40.41610988613087" lon="8.686180828053505"><ele>398.0</ele><time>2026-05-02T15:13:15Z</time></trkpt><trkpt lat="40.41631184791557" lon="8.686150745701982"><ele>398.0</ele><time>2026-05-02T15:13:16Z</time></trkpt><trkpt lat="40.41651886249" lon="8.686136430011192"><ele>398.0</ele><time>2026-05-02T15:13:17Z</time></trkpt><trkpt lat="40.416730950832005" lon="8.686155721454737"><ele>395.0</ele><time>2026-05-02T15:13:18Z</time></trkpt><trkpt lat="40.41695875563494" lon="8.686205040554569"><ele>392.0</ele><time>2026-05-02T15:13:19Z</time></trkpt><trkpt lat="40.41718948706489" lon="8.68627961585479"><ele>391.0</ele><time>2026-05-02T15:13:20Z</time></trkpt><trkpt lat="40.417421708205104" lon="8.686384141107665"><ele>390.0</ele><time>2026-05-02T15:13:21Z</time></trkpt><trkpt lat="40.41764950914231" lon="8.686518768267478"><ele>390.0</ele><time>2026-05-02T15:13:22Z</time></trkpt><trkpt lat="40.417877659251545" lon="8.686664333696966"><ele>390.0</ele><time>2026-05-02T15:13:23Z</time></trkpt><trkpt lat="40.4181107746634" lon="8.686806967733776"><ele>392.0</ele><time>2026-05-02T15:13:24Z</time></trkpt><trkpt lat="40.418346193384856" lon="8.68694319144266"><ele>394.0</ele><time>2026-05-02T15:13:25Z</time></trkpt><trkpt lat="40.41858330060788" lon="8.687081348575164"><ele>392.5</ele><time>2026-05-02T15:13:26Z</time></trkpt><trkpt lat="40.41882211586211" lon="8.68722102362091"><ele>391.0</ele><time>2026-05-02T15:13:27Z</time></trkpt><trkpt lat="40.41906355064761" lon="8.687364392841486"><ele>391.0</ele><time>2026-05-02T15:13:28Z</time></trkpt><trkpt lat="40.41930857331401" lon="8.68751230618903"><ele>391.0</ele><time>2026-05-02T15:13:29Z</time></trkpt><trkpt lat="40.41955676878722" lon="8.68766051549407"><ele>390.0</ele><time>2026-05-02T15:13:30Z</time></trkpt><trkpt lat="40.419808642454136" lon="8.68780823133714"><ele>389.0</ele><time>2026-05-02T15:13:31Z</time></trkpt><trkpt lat="40.42006095293095" lon="8.687954648061734"><ele>389.0</ele><time>2026-05-02T15:13:32Z</time></trkpt><trkpt lat="40.42031227393416" lon="8.688101044918264"><ele>389.0</ele><time>2026-05-02T15:13:33Z</time></trkpt><trkpt lat="40.42056546226512" lon="8.688251523396818"><ele>386.5</ele><time>2026-05-02T15:13:34Z</time></trkpt><trkpt lat="40.4208171062881" lon="8.688400868063052"><ele>384.0</ele><time>2026-05-02T15:13:35Z</time></trkpt><trkpt lat="40.42106702630443" lon="8.688550124651089"><ele>385.5</ele><time>2026-05-02T15:13:36Z</time></trkpt><trkpt lat="40.42130360467241" lon="8.688692570669074"><ele>387.0</ele><time>2026-05-02T15:13:37Z</time></trkpt><trkpt lat="40.42152660532421" lon="8.688826804363664"><ele>387.0</ele><time>2026-05-02T15:13:38Z</time></trkpt><trkpt lat="40.42174494682763" lon="8.688954480889691"><ele>387.0</ele><time>2026-05-02T15:13:39Z</time></trkpt><trkpt lat="40.42196484487897" lon="8.689079777007757"><ele>387.5</ele><time>2026-05-02T15:13:40Z</time></trkpt><trkpt lat="40.422183227774894" lon="8.689205820628134"><ele>388.0</ele><time>2026-05-02T15:13:41Z</time></trkpt><trkpt lat="40.422399291939854" lon="8.689334082898844"><ele>389.0</ele><time>2026-05-02T15:13:42Z</time></trkpt><trkpt lat="40.42261542746679" lon="8.689471149871341"><ele>390.0</ele><time>2026-05-02T15:13:43Z</time></trkpt><trkpt lat="40.42283057371493" lon="8.689621863729844"><ele>390.5</ele><time>2026-05-02T15:13:44Z</time></trkpt><trkpt lat="40.423041878164796" lon="8.689781794128534"><ele>391.0</ele><time>2026-05-02T15:13:45Z</time></trkpt><trkpt lat="40.42325342515163" lon="8.689941066268716"><ele>391.0</ele><time>2026-05-02T15:13:46Z</time></trkpt><trkpt lat="40.4234679867933" lon="8.690094169975342"><ele>391.0</ele><time>2026-05-02T15:13:47Z</time></trkpt><trkpt lat="40.42368611289568" lon="8.690245963435817"><ele>393.0</ele><time>2026-05-02T15:13:48Z</time></trkpt><trkpt lat="40.42390718933603" lon="8.690403632880246"><ele>395.0</ele><time>2026-05-02T15:13:49Z</time></trkpt><trkpt lat="40.42412765449458" lon="8.690566683102196"><ele>395.0</ele><time>2026-05-02T15:13:50Z</time></trkpt><trkpt lat="40.42435151592742" lon="8.690734519343586"><ele>395.0</ele><time>2026-05-02T15:13:51Z</time></trkpt><trkpt lat="40.42457813117666" lon="8.690904813852333"><ele>396.0</ele><time>2026-05-02T15:13:52Z</time></trkpt><trkpt lat="40.42480614515333" lon="8.69107502492648"><ele>397.0</ele><time>2026-05-02T15:13:53Z</time></trkpt><trkpt lat="40.425041837579485" lon="8.69124559764797"><ele>398.5</ele><time>2026-05-02T15:13:54Z</time></trkpt><trkpt lat="40.42528073468664" lon="8.691420649533027"><ele>400.0</ele><time>2026-05-02T15:13:55Z</time></trkpt><trkpt lat="40.42552060736368" lon="8.69159919866901"><ele>402.0</ele><time>2026-05-02T15:13:56Z</time></trkpt><trkpt lat="40.42575989586014" lon="8.691777165079355"><ele>404.0</ele><time>2026-05-02T15:13:57Z</time></trkpt><trkpt lat="40.42599579430098" lon="8.691956539806688"><ele>406.5</ele><time>2026-05-02T15:13:58Z</time></trkpt><trkpt lat="40.426227693790736" lon="8.692131816040003"><ele>409.0</ele><time>2026-05-02T15:13:59Z</time></trkpt><trkpt lat="40.42645487401098" lon="8.692307674919212"><ele>411.5</ele><time>2026-05-02T15:14:00Z</time></trkpt><trkpt lat="40.426685369186174" lon="8.6924785943907"><ele>414.0</ele><time>2026-05-02T15:14:01Z</time></trkpt><trkpt lat="40.42691287801658" lon="8.692648284942297"><ele>420.5</ele><time>2026-05-02T15:14:02Z</time></trkpt><trkpt lat="40.427141808113966" lon="8.692819447830642"><ele>427.0</ele><time>2026-05-02T15:14:03Z</time></trkpt><trkpt lat="40.42737061828204" lon="8.692993432551864"><ele>427.0</ele><time>2026-05-02T15:14:04Z</time></trkpt><trkpt lat="40.42759988193397" lon="8.693165515470012"><ele>427.0</ele><time>2026-05-02T15:14:05Z</time></trkpt><trkpt lat="40.427819610941334" lon="8.693356574411583"><ele>425.5</ele><time>2026-05-02T15:14:06Z</time></trkpt><trkpt lat="40.4280179576237" lon="8.69355727584149"><ele>424.0</ele><time>2026-05-02T15:14:07Z</time></trkpt><trkpt lat="40.42818520823477" lon="8.693772681591197"><ele>428.5</ele><time>2026-05-02T15:14:08Z</time></trkpt><trkpt lat="40.42834581672348" lon="8.694023676121118"><ele>433.0</ele><time>2026-05-02T15:14:09Z</time></trkpt><trkpt lat="40.428487807783256" lon="8.694301539916388"><ele>437.0</ele><time>2026-05-02T15:14:10Z</time></trkpt><trkpt lat="40.428622597191975" lon="8.694586609342954"><ele>441.0</ele><time>2026-05-02T15:14:11Z</time></trkpt><trkpt lat="40.428761554079955" lon="8.694871126743594"><ele>436.0</ele><time>2026-05-02T15:14:12Z</time></trkpt><trkpt lat="40.42890556904239" lon="8.69515139362337"><ele>431.0</ele><time>2026-05-02T15:14:13Z</time></trkpt><trkpt lat="40.42904414563736" lon="8.695422856589872"><ele>431.0</ele><time>2026-05-02T15:14:14Z</time></trkpt><trkpt lat="40.42917835870794" lon="8.695689064590043"><ele>431.0</ele><time>2026-05-02T15:14:15Z</time></trkpt><trkpt lat="40.42930941417189" lon="8.69595687362714"><ele>433.5</ele><time>2026-05-02T15:14:16Z</time></trkpt><trkpt lat="40.42944740942169" lon="8.696234426260714"><ele>436.0</ele><time>2026-05-02T15:14:17Z</time></trkpt><trkpt lat="40.42958778724768" lon="8.696515309778691"><ele>433.5</ele><time>2026-05-02T15:14:18Z</time></trkpt><trkpt lat="40.42973094483379" lon="8.69680169034506"><ele>431.0</ele><time>2026-05-02T15:14:19Z</time></trkpt><trkpt lat="40.429877793981966" lon="8.697098496370804"><ele>431.0</ele><time>2026-05-02T15:14:20Z</time></trkpt><trkpt lat="40.43002729312578" lon="8.697402773462963"><ele>431.0</ele><time>2026-05-02T15:14:21Z</time></trkpt><trkpt lat="40.430180554519964" lon="8.69771418032837"><ele>430.5</ele><time>2026-05-02T15:14:22Z</time></trkpt><trkpt lat="40.430338706429254" lon="8.698029589821592"><ele>430.0</ele><time>2026-05-02T15:14:23Z</time></trkpt><trkpt lat="40.43049988591166" lon="8.698351309472809"><ele>430.0</ele><time>2026-05-02T15:14:24Z</time></trkpt><trkpt lat="40.43066944042551" lon="8.698691372338315"><ele>430.0</ele><time>2026-05-02T15:14:25Z</time></trkpt><trkpt lat="40.43084427275482" lon="8.699043721002537"><ele>430.0</ele><time>2026-05-02T15:14:26Z</time></trkpt><trkpt lat="40.431024657421986" lon="8.699402444939155"><ele>430.0</ele><time>2026-05-02T15:14:27Z</time></trkpt><trkpt lat="40.431204676830234" lon="8.699755705740797"><ele>430.5</ele><time>2026-05-02T15:14:28Z</time></trkpt><trkpt lat="40.43137993622232" lon="8.700104877834894"><ele>431.0</ele><time>2026-05-02T15:14:29Z</time></trkpt><trkpt lat="40.43155168532693" lon="8.700453457069294"><ele>431.0</ele><time>2026-05-02T15:14:30Z</time></trkpt><trkpt lat="40.43172136574402" lon="8.70079379749524"><ele>431.0</ele><time>2026-05-02T15:14:31Z</time></trkpt><trkpt lat="40.43188964061592" lon="8.701122599618717"><ele>431.0</ele><time>2026-05-02T15:14:32Z</time></trkpt><trkpt lat="40.43205872216479" lon="8.701441972106492"><ele>431.0</ele><time>2026-05-02T15:14:33Z</time></trkpt><trkpt lat="40.432229759367296" lon="8.701749076211948"><ele>431.5</ele><time>2026-05-02T15:14:34Z</time></trkpt><trkpt lat="40.43240763807256" lon="8.702043363967125"><ele>432.0</ele><time>2026-05-02T15:14:35Z</time></trkpt><trkpt lat="40.43259455132399" lon="8.702327131012861"><ele>432.0</ele><time>2026-05-02T15:14:36Z</time></trkpt><trkpt lat="40.43279086790345" lon="8.702604115509866"><ele>432.0</ele><time>2026-05-02T15:14:37Z</time></trkpt><trkpt lat="40.43299496156507" lon="8.702870634154458"><ele>434.0</ele><time>2026-05-02T15:14:38Z</time></trkpt><trkpt lat="40.433206613424396" lon="8.703128181374325"><ele>436.0</ele><time>2026-05-02T15:14:39Z</time></trkpt><trkpt lat="40.43342338197336" lon="8.703377214270635"><ele>438.0</ele><time>2026-05-02T15:14:40Z</time></trkpt><trkpt lat="40.43364465400735" lon="8.703618954996463"><ele>440.0</ele><time>2026-05-02T15:14:41Z</time></trkpt><trkpt lat="40.43386675131565" lon="8.703855160628379"><ele>440.0</ele><time>2026-05-02T15:14:42Z</time></trkpt><trkpt lat="40.43408875602298" lon="8.7040931522732"><ele>440.0</ele><time>2026-05-02T15:14:43Z</time></trkpt><trkpt lat="40.43430861014451" lon="8.704331599090539"><ele>442.0</ele><time>2026-05-02T15:14:44Z</time></trkpt><trkpt lat="40.43452622204906" lon="8.70457871904205"><ele>444.0</ele><time>2026-05-02T15:14:45Z</time></trkpt><trkpt lat="40.434739618213655" lon="8.704835113722496"><ele>444.0</ele><time>2026-05-02T15:14:46Z</time></trkpt><trkpt lat="40.43497506703175" lon="8.705032655243967"><ele>444.0</ele><time>2026-05-02T15:14:47Z</time></trkpt><trkpt lat="40.435196399710605" lon="8.70526226673545"><ele>445.0</ele><time>2026-05-02T15:14:48Z</time></trkpt><trkpt lat="40.43541764060314" lon="8.705498820352322"><ele>446.0</ele><time>2026-05-02T15:14:49Z</time></trkpt><trkpt lat="40.43563571803053" lon="8.7057303102356"><ele>446.0</ele><time>2026-05-02T15:14:50Z</time></trkpt><trkpt lat="40.435849277683765" lon="8.705958618677295"><ele>446.0</ele><time>2026-05-02T15:14:51Z</time></trkpt><trkpt lat="40.436062299123634" lon="8.706181891995096"><ele>449.0</ele><time>2026-05-02T15:14:52Z</time></trkpt><trkpt lat="40.4362768708777" lon="8.706402908915202"><ele>452.0</ele><time>2026-05-02T15:14:53Z</time></trkpt><trkpt lat="40.436490602575375" lon="8.706621880709363"><ele>452.0</ele><time>2026-05-02T15:14:54Z</time></trkpt><trkpt lat="40.436705134622734" lon="8.706840626054415"><ele>452.0</ele><time>2026-05-02T15:14:55Z</time></trkpt><trkpt lat="40.43692103665829" lon="8.707057882562768"><ele>453.0</ele><time>2026-05-02T15:14:56Z</time></trkpt><trkpt lat="40.43713756396679" lon="8.707279845623965"><ele>454.0</ele><time>2026-05-02T15:14:57Z</time></trkpt><trkpt lat="40.437349402841214" lon="8.707512380264964"><ele>458.5</ele><time>2026-05-02T15:14:58Z</time></trkpt><trkpt lat="40.43754587534245" lon="8.70776787290421"><ele>463.0</ele><time>2026-05-02T15:14:59Z</time></trkpt><trkpt lat="40.43771846471634" lon="8.708051447379038"><ele>463.0</ele><time>2026-05-02T15:15:00Z</time></trkpt><trkpt lat="40.437869624100884" lon="8.708344567632896"><ele>463.0</ele><time>2026-05-02T15:15:01Z</time></trkpt><trkpt lat="40.43800523126415" lon="8.70863403964041"><ele>454.0</ele><time>2026-05-02T15:15:02Z</time></trkpt><trkpt lat="40.43813202661903" lon="8.708942295963482"><ele>445.0</ele><time>2026-05-02T15:15:03Z</time></trkpt><trkpt lat="40.43824890732578" lon="8.709259402012256"><ele>445.5</ele><time>2026-05-02T15:15:04Z</time></trkpt><trkpt lat="40.43835178170214" lon="8.709584477700455"><ele>446.0</ele><time>2026-05-02T15:15:05Z</time></trkpt><trkpt lat="40.43843417419244" lon="8.70992392825257"><ele>445.0</ele><time>2026-05-02T15:15:06Z</time></trkpt><trkpt lat="40.43850010543051" lon="8.710273097525727"><ele>444.0</ele><time>2026-05-02T15:15:07Z</time></trkpt><trkpt lat="40.43855012392545" lon="8.71062905372312"><ele>444.0</ele><time>2026-05-02T15:15:08Z</time></trkpt><trkpt lat="40.43857838085874" lon="8.71098325202739"><ele>444.0</ele><time>2026-05-02T15:15:09Z</time></trkpt><trkpt lat="40.43859040604956" lon="8.711341371120971"><ele>443.5</ele><time>2026-05-02T15:15:10Z</time></trkpt><trkpt lat="40.43859160087138" lon="8.71170662112383"><ele>443.0</ele><time>2026-05-02T15:15:11Z</time></trkpt><trkpt lat="40.43858518048324" lon="8.712074256341836"><ele>441.0</ele><time>2026-05-02T15:15:12Z</time></trkpt><trkpt lat="40.438565891177774" lon="8.712437035969826"><ele>439.0</ele><time>2026-05-02T15:15:13Z</time></trkpt><trkpt lat="40.43854090149921" lon="8.712791268537934"><ele>437.5</ele><time>2026-05-02T15:15:14Z</time></trkpt><trkpt lat="40.438517959865706" lon="8.7131449999238"><ele>436.0</ele><time>2026-05-02T15:15:15Z</time></trkpt><trkpt lat="40.43849710978051" lon="8.713493528006888"><ele>435.0</ele><time>2026-05-02T15:15:16Z</time></trkpt><trkpt lat="40.43847535562495" lon="8.713837271685113"><ele>434.0</ele><time>2026-05-02T15:15:17Z</time></trkpt><trkpt lat="40.43845340206722" lon="8.714161197024142"><ele>433.0</ele><time>2026-05-02T15:15:18Z</time></trkpt><trkpt lat="40.43843201515572" lon="8.714476193777925"><ele>432.0</ele><time>2026-05-02T15:15:19Z</time></trkpt><trkpt lat="40.43840993201774" lon="8.714802892051923"><ele>432.0</ele><time>2026-05-02T15:15:20Z</time></trkpt><trkpt lat="40.43839063359331" lon="8.715136279808695"><ele>432.0</ele><time>2026-05-02T15:15:21Z</time></trkpt><trkpt lat="40.43837724170625" lon="8.715484938231825"><ele>432.5</ele><time>2026-05-02T15:15:22Z</time></trkpt><trkpt lat="40.438369432383816" lon="8.715841252538858"><ele>433.0</ele><time>2026-05-02T15:15:23Z</time></trkpt><trkpt lat="40.43836968242425" lon="8.716205236694291"><ele>433.0</ele><time>2026-05-02T15:15:24Z</time></trkpt><trkpt lat="40.43838106104288" lon="8.71657369699787"><ele>433.0</ele><time>2026-05-02T15:15:25Z</time></trkpt><trkpt lat="40.43840399503589" lon="8.716942038460878"><ele>431.0</ele><time>2026-05-02T15:15:26Z</time></trkpt><trkpt lat="40.43843660691293" lon="8.7173183617964"><ele>429.0</ele><time>2026-05-02T15:15:27Z</time></trkpt><trkpt lat="40.43847210060342" lon="8.717697056862121"><ele>429.0</ele><time>2026-05-02T15:15:28Z</time></trkpt><trkpt lat="40.43851179265099" lon="8.718074801264237"><ele>429.0</ele><time>2026-05-02T15:15:29Z</time></trkpt><trkpt lat="40.438554545053925" lon="8.718457483743368"><ele>428.0</ele><time>2026-05-02T15:15:30Z</time></trkpt><trkpt lat="40.43859717087617" lon="8.718844101680205"><ele>427.0</ele><time>2026-05-02T15:15:31Z</time></trkpt><trkpt lat="40.43863922529113" lon="8.719230385984806"><ele>427.5</ele><time>2026-05-02T15:15:32Z</time></trkpt><trkpt lat="40.438678943303536" lon="8.719617093735629"><ele>428.0</ele><time>2026-05-02T15:15:33Z</time></trkpt><trkpt lat="40.43871881454584" lon="8.71999360751974"><ele>429.0</ele><time>2026-05-02T15:15:34Z</time></trkpt><trkpt lat="40.43875558115053" lon="8.720347316068585"><ele>430.0</ele><time>2026-05-02T15:15:35Z</time></trkpt><trkpt lat="40.43879115882146" lon="8.72068441378425"><ele>430.0</ele><time>2026-05-02T15:15:36Z</time></trkpt><trkpt lat="40.43882684403616" lon="8.721026646081674"><ele>430.0</ele><time>2026-05-02T15:15:37Z</time></trkpt><trkpt lat="40.4388630354621" lon="8.721373902926846"><ele>430.0</ele><time>2026-05-02T15:15:38Z</time></trkpt><trkpt lat="40.43889958070703" lon="8.721719545776478"><ele>430.0</ele><time>2026-05-02T15:15:39Z</time></trkpt><trkpt lat="40.438931312199884" lon="8.722055450382806"><ele>430.0</ele><time>2026-05-02T15:15:40Z</time></trkpt><trkpt lat="40.43895333512431" lon="8.722388646925387"><ele>430.0</ele><time>2026-05-02T15:15:41Z</time></trkpt><trkpt lat="40.43896563316611" lon="8.722736605043039"><ele>430.0</ele><time>2026-05-02T15:15:42Z</time></trkpt><trkpt lat="40.438971840244236" lon="8.723088825374518"><ele>430.0</ele><time>2026-05-02T15:15:43Z</time></trkpt><trkpt lat="40.438973285221415" lon="8.723444057481384"><ele>429.5</ele><time>2026-05-02T15:15:44Z</time></trkpt><trkpt lat="40.438967096874045" lon="8.723805398695877"><ele>429.0</ele><time>2026-05-02T15:15:45Z</time></trkpt><trkpt lat="40.43895178680299" lon="8.7241669053869"><ele>428.5</ele><time>2026-05-02T15:15:46Z</time></trkpt><trkpt lat="40.43892512623958" lon="8.724532398250595"><ele>428.0</ele><time>2026-05-02T15:15:47Z</time></trkpt><trkpt lat="40.4388902434364" lon="8.724899221137818"><ele>428.0</ele><time>2026-05-02T15:15:48Z</time></trkpt><trkpt lat="40.43885577078964" lon="8.72526507383989"><ele>428.0</ele><time>2026-05-02T15:15:49Z</time></trkpt><trkpt lat="40.4388222117305" lon="8.725624971725065"><ele>430.5</ele><time>2026-05-02T15:15:50Z</time></trkpt><trkpt lat="40.43879049241464" lon="8.72596549019462"><ele>433.0</ele><time>2026-05-02T15:15:51Z</time></trkpt><trkpt lat="40.43876123730517" lon="8.726282246161281"><ele>434.0</ele><time>2026-05-02T15:15:52Z</time></trkpt><trkpt lat="40.438733512441885" lon="8.726587167218387"><ele>435.0</ele><time>2026-05-02T15:15:53Z</time></trkpt><trkpt lat="40.43870637175937" lon="8.726886202137743"><ele>435.5</ele><time>2026-05-02T15:15:54Z</time></trkpt><trkpt lat="40.438679366632165" lon="8.727190328795984"><ele>436.0</ele><time>2026-05-02T15:15:55Z</time></trkpt><trkpt lat="40.43865273957176" lon="8.727497994500073"><ele>435.33333333333337</ele><time>2026-05-02T15:15:56Z</time></trkpt><trkpt lat="40.43862623980813" lon="8.727790628868478"><ele>434.66666666666663</ele><time>2026-05-02T15:15:57Z</time></trkpt><trkpt lat="40.43860066475135" lon="8.728062825818434"><ele>434.0</ele><time>2026-05-02T15:15:58Z</time></trkpt><trkpt lat="40.43857866192299" lon="8.728309697813593"><ele>434.0</ele><time>2026-05-02T15:15:59Z</time></trkpt><trkpt lat="40.438560547513475" lon="8.72851570591504"><ele>434.0</ele><time>2026-05-02T15:16:00Z</time></trkpt><trkpt lat="40.438543532464095" lon="8.728673904005124"><ele>434.0</ele><time>2026-05-02T15:16:01Z</time></trkpt><trkpt lat="40.438510547022396" lon="8.728797949359308"><ele>434.0</ele><time>2026-05-02T15:16:02Z</time></trkpt><trkpt lat="40.4384440295953" lon="8.72889574156891"><ele>434.0</ele><time>2026-05-02T15:16:03Z</time></trkpt><trkpt lat="40.4383489771779" lon="8.728980032921553"><ele>434.0</ele><time>2026-05-02T15:16:04Z</time></trkpt><trkpt lat="40.438257999962794" lon="8.729084724300698"><ele>434.0</ele><time>2026-05-02T15:16:05Z</time></trkpt><trkpt lat="40.43811242230358" lon="8.729082196217433"><ele>434.0</ele><time>2026-05-02T15:16:06Z</time></trkpt><trkpt lat="40.43796735676039" lon="8.729078708710716"><ele>435.66666666666663</ele><time>2026-05-02T15:16:07Z</time></trkpt><trkpt lat="40.43780478241864" lon="8.729072664629008"><ele>437.33333333333337</ele><time>2026-05-02T15:16:08Z</time></trkpt><trkpt lat="40.43761891051659" lon="8.72908224420775"><ele>439.0</ele><time>2026-05-02T15:16:09Z</time></trkpt><trkpt lat="40.43741457844054" lon="8.729072880020013"><ele>439.0</ele><time>2026-05-02T15:16:10Z</time></trkpt><trkpt lat="40.43721140278308" lon="8.729079186842045"><ele>439.0</ele><time>2026-05-02T15:16:11Z</time></trkpt><trkpt lat="40.4370169428333" lon="8.729124315678444"><ele>439.0</ele><time>2026-05-02T15:16:12Z</time></trkpt><trkpt lat="40.43682978867028" lon="8.729194956664692"><ele>441.0</ele><time>2026-05-02T15:16:13Z</time></trkpt><trkpt lat="40.43665439176944" lon="8.72930354239204"><ele>443.0</ele><time>2026-05-02T15:16:14Z</time></trkpt><trkpt lat="40.43651263163064" lon="8.729452733180969"><ele>445.0</ele><time>2026-05-02T15:16:15Z</time></trkpt><trkpt lat="40.436392797811635" lon="8.729629949875582"><ele>447.33333333333337</ele><time>2026-05-02T15:16:16Z</time></trkpt><trkpt lat="40.43628912119024" lon="8.729814539755415"><ele>449.66666666666663</ele><time>2026-05-02T15:16:17Z</time></trkpt><trkpt lat="40.43620249353287" lon="8.729994963805101"><ele>452.0</ele><time>2026-05-02T15:16:18Z</time></trkpt><trkpt lat="40.4361264330064" lon="8.7301525081488"><ele>451.20000000000005</ele><time>2026-05-02T15:16:19Z</time></trkpt><trkpt lat="40.43605775498641" lon="8.730300001621394"><ele>450.40000000000003</ele><time>2026-05-02T15:16:20Z</time></trkpt><trkpt lat="40.435990362585095" lon="8.7304332447067"><ele>449.59999999999997</ele><time>2026-05-02T15:16:21Z</time></trkpt><trkpt lat="40.43592901492646" lon="8.730543548242437"><ele>448.79999999999995</ele><time>2026-05-02T15:16:22Z</time></trkpt><trkpt lat="40.43588415380274" lon="8.730636764670932"><ele>448.0</ele><time>2026-05-02T15:16:23Z</time></trkpt><trkpt lat="40.43584862198697" lon="8.730745392399054"><ele>448.0</ele><time>2026-05-02T15:16:25Z</time></trkpt><trkpt lat="40.43580603794374" lon="8.73081080330799"><ele>448.0</ele><time>2026-05-02T15:16:27Z</time></trkpt><trkpt lat="40.435947430479885" lon="8.731039481136625"><ele>448.0</ele><time>2026-05-02T15:16:29Z</time></trkpt><trkpt lat="40.43602302868087" lon="8.731146041549833"><ele>448.0</ele><time>2026-05-02T15:16:30Z</time></trkpt><trkpt lat="40.43609504906323" lon="8.731262061883863"><ele>448.33333333333337</ele><time>2026-05-02T15:16:31Z</time></trkpt><trkpt lat="40.43620680911466" lon="8.731406360395896"><ele>448.66666666666663</ele><time>2026-05-02T15:16:32Z</time></trkpt><trkpt lat="40.436320924663995" lon="8.731559127544411"><ele>449.0</ele><time>2026-05-02T15:16:33Z</time></trkpt><trkpt lat="40.43643902232792" lon="8.731719730503926"><ele>449.0</ele><time>2026-05-02T15:16:34Z</time></trkpt><trkpt lat="40.43655560011896" lon="8.731878427299044"><ele>449.0</ele><time>2026-05-02T15:16:35Z</time></trkpt><trkpt lat="40.436667788520275" lon="8.73203114501674"><ele>449.0</ele><time>2026-05-02T15:16:36Z</time></trkpt><trkpt lat="40.436766010831384" lon="8.732172402381176"><ele>448.5</ele><time>2026-05-02T15:16:37Z</time></trkpt><trkpt lat="40.43683832554474" lon="8.732304381558883"><ele>448.0</ele><time>2026-05-02T15:16:38Z</time></trkpt><trkpt lat="40.436890233754156" lon="8.73243762483763"><ele>447.5</ele><time>2026-05-02T15:16:39Z</time></trkpt><trkpt lat="40.436913973592254" lon="8.73257453184099"><ele>447.0</ele><time>2026-05-02T15:16:40Z</time></trkpt><trkpt lat="40.436936698537956" lon="8.732711167978433"><ele>447.0</ele><time>2026-05-02T15:16:41Z</time></trkpt><trkpt lat="40.43696264217553" lon="8.732823913541507"><ele>447.00000000000006</ele><time>2026-05-02T15:16:42Z</time></trkpt><trkpt lat="40.43699261839157" lon="8.732914091805831"><ele>447.00000000000006</ele><time>2026-05-02T15:16:43Z</time></trkpt><trkpt lat="40.43702454356369" lon="8.733037623026185"><ele>447.0</ele><time>2026-05-02T15:16:45Z</time></trkpt><trkpt lat="40.437098319655895" lon="8.733137542852745"><ele>447.0</ele><time>2026-05-02T15:16:49Z</time></trkpt><trkpt lat="40.437177563599604" lon="8.733163150843355"><ele>447.0</ele><time>2026-05-02T15:16:50Z</time></trkpt><trkpt lat="40.437295735133745" lon="8.73316160317418"><ele>447.0</ele><time>2026-05-02T15:16:51Z</time></trkpt><trkpt lat="40.437444899463465" lon="8.73313860876642"><ele>447.0</ele><time>2026-05-02T15:16:52Z</time></trkpt><trkpt lat="40.43761426222633" lon="8.733100861370968"><ele>447.0</ele><time>2026-05-02T15:16:53Z</time></trkpt><trkpt lat="40.43781764474641" lon="8.733054511448326"><ele>445.5</ele><time>2026-05-02T15:16:54Z</time></trkpt><trkpt lat="40.43803978392858" lon="8.733001736827669"><ele>444.0</ele><time>2026-05-02T15:16:55Z</time></trkpt><trkpt lat="40.4382680794239" lon="8.732935112436923"><ele>444.0</ele><time>2026-05-02T15:16:56Z</time></trkpt><trkpt lat="40.438497017524085" lon="8.732857411897974"><ele>444.0</ele><time>2026-05-02T15:16:57Z</time></trkpt><trkpt lat="40.43872849267943" lon="8.73276605400274"><ele>442.0</ele><time>2026-05-02T15:16:58Z</time></trkpt><trkpt lat="40.438956984872284" lon="8.732667490167236"><ele>440.0</ele><time>2026-05-02T15:16:59Z</time></trkpt><trkpt lat="40.43918521189408" lon="8.732561828692187"><ele>440.0</ele><time>2026-05-02T15:17:00Z</time></trkpt><trkpt lat="40.439412048727824" lon="8.732455016314006"><ele>440.0</ele><time>2026-05-02T15:17:01Z</time></trkpt><trkpt lat="40.43964410634747" lon="8.732342098433039"><ele>438.5</ele><time>2026-05-02T15:17:02Z</time></trkpt><trkpt lat="40.43987921039733" lon="8.732222991310408"><ele>437.0</ele><time>2026-05-02T15:17:03Z</time></trkpt><trkpt lat="40.44011796534786" lon="8.732107855351918"><ele>437.0</ele><time>2026-05-02T15:17:04Z</time></trkpt><trkpt lat="40.44036791461752" lon="8.731988697139174"><ele>437.0</ele><time>2026-05-02T15:17:05Z</time></trkpt><trkpt lat="40.44061819758222" lon="8.731868534881302"><ele>436.0</ele><time>2026-05-02T15:17:06Z</time></trkpt><trkpt lat="40.440868818032754" lon="8.731747380373204"><ele>435.0</ele><time>2026-05-02T15:17:07Z</time></trkpt><trkpt lat="40.441121418265126" lon="8.731627008802084"><ele>436.0</ele><time>2026-05-02T15:17:08Z</time></trkpt><trkpt lat="40.44137373813106" lon="8.731501496002725"><ele>437.0</ele><time>2026-05-02T15:17:09Z</time></trkpt><trkpt lat="40.44163122155319" lon="8.73137401196173"><ele>437.0</ele><time>2026-05-02T15:17:10Z</time></trkpt><trkpt lat="40.44189096174941" lon="8.73124539105313"><ele>437.0</ele><time>2026-05-02T15:17:11Z</time></trkpt><trkpt lat="40.44215365321084" lon="8.731117795082017"><ele>435.5</ele><time>2026-05-02T15:17:12Z</time></trkpt><trkpt lat="40.442418010513975" lon="8.730989139770173"><ele>434.0</ele><time>2026-05-02T15:17:13Z</time></trkpt><trkpt lat="40.44268417697612" lon="8.73085993720186"><ele>434.0</ele><time>2026-05-02T15:17:14Z</time></trkpt><trkpt lat="40.44295166373743" lon="8.730727833668578"><ele>434.0</ele><time>2026-05-02T15:17:15Z</time></trkpt><trkpt lat="40.443220357269865" lon="8.730593178533471"><ele>433.5</ele><time>2026-05-02T15:17:16Z</time></trkpt><trkpt lat="40.44348961087145" lon="8.730460084321225"><ele>433.0</ele><time>2026-05-02T15:17:17Z</time></trkpt><trkpt lat="40.44376048757462" lon="8.730326701006291"><ele>433.0</ele><time>2026-05-02T15:17:18Z</time></trkpt><trkpt lat="40.44403929217486" lon="8.730194639320882"><ele>433.0</ele><time>2026-05-02T15:17:19Z</time></trkpt><trkpt lat="40.444322616396505" lon="8.73005412558139"><ele>433.0</ele><time>2026-05-02T15:17:20Z</time></trkpt><trkpt lat="40.4446095882259" lon="8.72991233739573"><ele>433.0</ele><time>2026-05-02T15:17:21Z</time></trkpt><trkpt lat="40.44489948374091" lon="8.729770078629555"><ele>433.0</ele><time>2026-05-02T15:17:22Z</time></trkpt><trkpt lat="40.445194818171224" lon="8.729624794531551"><ele>433.0</ele><time>2026-05-02T15:17:23Z</time></trkpt><trkpt lat="40.44549201219929" lon="8.729478821716341"><ele>431.5</ele><time>2026-05-02T15:17:24Z</time></trkpt><trkpt lat="40.445792854365074" lon="8.72932887117177"><ele>430.0</ele><time>2026-05-02T15:17:25Z</time></trkpt><trkpt lat="40.4461001055121" lon="8.729176693532896"><ele>431.0</ele><time>2026-05-02T15:17:26Z</time></trkpt><trkpt lat="40.44640824255291" lon="8.729025381563535"><ele>432.0</ele><time>2026-05-02T15:17:27Z</time></trkpt><trkpt lat="40.446719268906314" lon="8.728871253024897"><ele>432.0</ele><time>2026-05-02T15:17:28Z</time></trkpt><trkpt lat="40.447031062084264" lon="8.728713552826418"><ele>432.0</ele><time>2026-05-02T15:17:29Z</time></trkpt><trkpt lat="40.447343786650066" lon="8.728552917390237"><ele>432.0</ele><time>2026-05-02T15:17:30Z</time></trkpt><trkpt lat="40.44765975816394" lon="8.728393392243106"><ele>432.0</ele><time>2026-05-02T15:17:31Z</time></trkpt><trkpt lat="40.447978494478015" lon="8.728232649088403"><ele>431.5</ele><time>2026-05-02T15:17:32Z</time></trkpt><trkpt lat="40.44829827355983" lon="8.728070923969854"><ele>431.0</ele><time>2026-05-02T15:17:33Z</time></trkpt><trkpt lat="40.44861959225448" lon="8.72791344942798"><ele>432.0</ele><time>2026-05-02T15:17:34Z</time></trkpt><trkpt lat="40.44893818402468" lon="8.727755543123216"><ele>433.0</ele><time>2026-05-02T15:17:35Z</time></trkpt><trkpt lat="40.44926017408467" lon="8.727598670493176"><ele>431.0</ele><time>2026-05-02T15:17:36Z</time></trkpt><trkpt lat="40.44957951800003" lon="8.72744047284308"><ele>429.0</ele><time>2026-05-02T15:17:37Z</time></trkpt><trkpt lat="40.44989640231822" lon="8.727287162476218"><ele>429.0</ele><time>2026-05-02T15:17:38Z</time></trkpt><trkpt lat="40.450212743361746" lon="8.727140772040466"><ele>429.0</ele><time>2026-05-02T15:17:39Z</time></trkpt><trkpt lat="40.45052412184514" lon="8.727024251159168"><ele>428.5</ele><time>2026-05-02T15:17:40Z</time></trkpt><trkpt lat="40.45083592904445" lon="8.726939410940455"><ele>428.0</ele><time>2026-05-02T15:17:41Z</time></trkpt><trkpt lat="40.451151252270826" lon="8.726884969685587"><ele>426.0</ele><time>2026-05-02T15:17:42Z</time></trkpt><trkpt lat="40.451467968453315" lon="8.726851604183874"><ele>424.0</ele><time>2026-05-02T15:17:43Z</time></trkpt><trkpt lat="40.451784809584005" lon="8.726837428676191"><ele>424.0</ele><time>2026-05-02T15:17:44Z</time></trkpt><trkpt lat="40.45210213911761" lon="8.726845778161444"><ele>424.0</ele><time>2026-05-02T15:17:45Z</time></trkpt><trkpt lat="40.452420326433995" lon="8.72688658689488"><ele>424.5</ele><time>2026-05-02T15:17:46Z</time></trkpt><trkpt lat="40.45273897316612" lon="8.726955523898628"><ele>425.0</ele><time>2026-05-02T15:17:47Z</time></trkpt><trkpt lat="40.45306023920931" lon="8.72705259042481"><ele>425.0</ele><time>2026-05-02T15:17:48Z</time></trkpt><trkpt lat="40.45337791136091" lon="8.72716766476012"><ele>425.0</ele><time>2026-05-02T15:17:49Z</time></trkpt><trkpt lat="40.45368803613719" lon="8.727307385476156"><ele>423.0</ele><time>2026-05-02T15:17:50Z</time></trkpt><trkpt lat="40.45399714409473" lon="8.727477468249207"><ele>421.0</ele><time>2026-05-02T15:17:51Z</time></trkpt><trkpt lat="40.454301190690835" lon="8.727676870158644"><ele>422.0</ele><time>2026-05-02T15:17:52Z</time></trkpt><trkpt lat="40.45460226418442" lon="8.727899702428562"><ele>423.0</ele><time>2026-05-02T15:17:53Z</time></trkpt><trkpt lat="40.45490659582861" lon="8.728131084772073"><ele>423.0</ele><time>2026-05-02T15:17:54Z</time></trkpt><trkpt lat="40.45521479623651" lon="8.728363308295767"><ele>423.0</ele><time>2026-05-02T15:17:55Z</time></trkpt><trkpt lat="40.455524826511194" lon="8.728591726323913"><ele>423.5</ele><time>2026-05-02T15:17:56Z</time></trkpt><trkpt lat="40.45583404474938" lon="8.728814485225909"><ele>424.0</ele><time>2026-05-02T15:17:57Z</time></trkpt><trkpt lat="40.45614133031429" lon="8.729034158043603"><ele>423.0</ele><time>2026-05-02T15:17:58Z</time></trkpt><trkpt lat="40.456456495869986" lon="8.729260522927365"><ele>422.0</ele><time>2026-05-02T15:17:59Z</time></trkpt><trkpt lat="40.456773320937884" lon="8.729489542450478"><ele>422.5</ele><time>2026-05-02T15:18:00Z</time></trkpt><trkpt lat="40.457084816581364" lon="8.729713007970119"><ele>423.0</ele><time>2026-05-02T15:18:01Z</time></trkpt><trkpt lat="40.45739156454144" lon="8.729930585061453"><ele>423.0</ele><time>2026-05-02T15:18:02Z</time></trkpt><trkpt lat="40.4576958180529" lon="8.730147832566566"><ele>423.0</ele><time>2026-05-02T15:18:03Z</time></trkpt><trkpt lat="40.457999837990066" lon="8.730365812094618"><ele>423.0</ele><time>2026-05-02T15:18:04Z</time></trkpt><trkpt lat="40.45830247000051" lon="8.730584881966173"><ele>423.0</ele><time>2026-05-02T15:18:05Z</time></trkpt><trkpt lat="40.45860389856802" lon="8.730804650569919"><ele>424.5</ele><time>2026-05-02T15:18:06Z</time></trkpt><trkpt lat="40.45890506951803" lon="8.73102414354354"><ele>426.0</ele><time>2026-05-02T15:18:07Z</time></trkpt><trkpt lat="40.459206243557844" lon="8.731243009953474"><ele>426.0</ele><time>2026-05-02T15:18:08Z</time></trkpt><trkpt lat="40.459509698751916" lon="8.731461326514843"><ele>426.0</ele><time>2026-05-02T15:18:09Z</time></trkpt><trkpt lat="40.45981473365099" lon="8.731679851347545"><ele>425.0</ele><time>2026-05-02T15:18:10Z</time></trkpt><trkpt lat="40.46011781944786" lon="8.731895997268591"><ele>424.0</ele><time>2026-05-02T15:18:11Z</time></trkpt><trkpt lat="40.46042337230677" lon="8.73211435570914"><ele>421.5</ele><time>2026-05-02T15:18:12Z</time></trkpt><trkpt lat="40.46072844843019" lon="8.732336319108862"><ele>419.0</ele><time>2026-05-02T15:18:13Z</time></trkpt><trkpt lat="40.461035501467734" lon="8.732561220706296"><ele>418.0</ele><time>2026-05-02T15:18:14Z</time></trkpt><trkpt lat="40.461343879876175" lon="8.7327852041032"><ele>417.0</ele><time>2026-05-02T15:18:15Z</time></trkpt><trkpt lat="40.461655095975495" lon="8.7330080816667"><ele>417.0</ele><time>2026-05-02T15:18:16Z</time></trkpt><trkpt lat="40.46196771750505" lon="8.733230845081701"><ele>417.0</ele><time>2026-05-02T15:18:17Z</time></trkpt><trkpt lat="40.462280683562085" lon="8.73345465462467"><ele>415.5</ele><time>2026-05-02T15:18:18Z</time></trkpt><trkpt lat="40.462594508181546" lon="8.73368103289269"><ele>414.0</ele><time>2026-05-02T15:18:19Z</time></trkpt><trkpt lat="40.462904934340834" lon="8.733905586105793"><ele>414.0</ele><time>2026-05-02T15:18:20Z</time></trkpt><trkpt lat="40.46320387464932" lon="8.734125039907168"><ele>414.0</ele><time>2026-05-02T15:18:21Z</time></trkpt><trkpt lat="40.46347884824191" lon="8.734329437432638"><ele>414.0</ele><time>2026-05-02T15:18:22Z</time></trkpt><trkpt lat="40.4637497175437" lon="8.734543279620658"><ele>414.0</ele><time>2026-05-02T15:18:23Z</time></trkpt><trkpt lat="40.46401632222914" lon="8.734781559507741"><ele>413.5</ele><time>2026-05-02T15:18:24Z</time></trkpt><trkpt lat="40.46428009709408" lon="8.73504399774711"><ele>413.0</ele><time>2026-05-02T15:18:25Z</time></trkpt><trkpt lat="40.4645333274163" lon="8.735327028572542"><ele>413.5</ele><time>2026-05-02T15:18:26Z</time></trkpt><trkpt lat="40.464771810720826" lon="8.735630909071105"><ele>414.0</ele><time>2026-05-02T15:18:27Z</time></trkpt><trkpt lat="40.46499828086576" lon="8.735959910880666"><ele>415.0</ele><time>2026-05-02T15:18:28Z</time></trkpt><trkpt lat="40.4652137258399" lon="8.736306698012998"><ele>416.0</ele><time>2026-05-02T15:18:29Z</time></trkpt><trkpt lat="40.46542064730289" lon="8.736668970092294"><ele>414.0</ele><time>2026-05-02T15:18:30Z</time></trkpt><trkpt lat="40.46563043046278" lon="8.737034262289411"><ele>412.0</ele><time>2026-05-02T15:18:31Z</time></trkpt><trkpt lat="40.46584284023158" lon="8.737400055768152"><ele>412.0</ele><time>2026-05-02T15:18:32Z</time></trkpt><trkpt lat="40.46605794541884" lon="8.737766955694799"><ele>412.0</ele><time>2026-05-02T15:18:33Z</time></trkpt><trkpt lat="40.46627295222801" lon="8.738131806504121"><ele>411.5</ele><time>2026-05-02T15:18:34Z</time></trkpt><trkpt lat="40.466486272849586" lon="8.738495278912165"><ele>411.0</ele><time>2026-05-02T15:18:35Z</time></trkpt><trkpt lat="40.466698033125766" lon="8.738853856983187"><ele>411.0</ele><time>2026-05-02T15:18:36Z</time></trkpt><trkpt lat="40.46690725592027" lon="8.739210715694378"><ele>411.0</ele><time>2026-05-02T15:18:37Z</time></trkpt><trkpt lat="40.46711512374465" lon="8.739567686687602"><ele>411.0</ele><time>2026-05-02T15:18:38Z</time></trkpt><trkpt lat="40.46732430838034" lon="8.739923750188163"><ele>411.0</ele><time>2026-05-02T15:18:39Z</time></trkpt><trkpt lat="40.46753303146384" lon="8.740279530598324"><ele>411.0</ele><time>2026-05-02T15:18:40Z</time></trkpt><trkpt lat="40.46774408637653" lon="8.740635937720318"><ele>411.0</ele><time>2026-05-02T15:18:41Z</time></trkpt><trkpt lat="40.46795551827195" lon="8.740994808548985"><ele>410.5</ele><time>2026-05-02T15:18:42Z</time></trkpt><trkpt lat="40.468167210457636" lon="8.741355219933624"><ele>410.0</ele><time>2026-05-02T15:18:43Z</time></trkpt><trkpt lat="40.46837701851623" lon="8.741712953786275"><ele>410.0</ele><time>2026-05-02T15:18:44Z</time></trkpt><trkpt lat="40.468583733626794" lon="8.742063183894029"><ele>410.0</ele><time>2026-05-02T15:18:45Z</time></trkpt><trkpt lat="40.46879073985468" lon="8.742409011096553"><ele>410.5</ele><time>2026-05-02T15:18:46Z</time></trkpt><trkpt lat="40.46899634737172" lon="8.742758532206969"><ele>411.0</ele><time>2026-05-02T15:18:47Z</time></trkpt><trkpt lat="40.46920212197216" lon="8.743110181030374"><ele>411.0</ele><time>2026-05-02T15:18:48Z</time></trkpt><trkpt lat="40.46940631273447" lon="8.743459566550053"><ele>411.0</ele><time>2026-05-02T15:18:49Z</time></trkpt><trkpt lat="40.46961286005774" lon="8.743810769967089"><ele>410.5</ele><time>2026-05-02T15:18:50Z</time></trkpt><trkpt lat="40.469818568184905" lon="8.744155769753098"><ele>410.0</ele><time>2026-05-02T15:18:51Z</time></trkpt><trkpt lat="40.470024324282534" lon="8.744489580282396"><ele>410.0</ele><time>2026-05-02T15:18:52Z</time></trkpt><trkpt lat="40.47022888138792" lon="8.744797968715167"><ele>410.0</ele><time>2026-05-02T15:18:53Z</time></trkpt><trkpt lat="40.470441434565814" lon="8.745078845655819"><ele>409.5</ele><time>2026-05-02T15:18:54Z</time></trkpt><trkpt lat="40.47066724177106" lon="8.745348740023173"><ele>409.0</ele><time>2026-05-02T15:18:55Z</time></trkpt><trkpt lat="40.47090791500764" lon="8.745612656431906"><ele>409.0</ele><time>2026-05-02T15:18:56Z</time></trkpt><trkpt lat="40.471161683662224" lon="8.745864930160085"><ele>409.0</ele><time>2026-05-02T15:18:57Z</time></trkpt><trkpt lat="40.47142946364314" lon="8.746106383080633"><ele>408.0</ele><time>2026-05-02T15:18:58Z</time></trkpt><trkpt lat="40.4717061779499" lon="8.746336001982336"><ele>407.0</ele><time>2026-05-02T15:18:59Z</time></trkpt><trkpt lat="40.47199330515907" lon="8.746543258488552"><ele>406.5</ele><time>2026-05-02T15:19:00Z</time></trkpt><trkpt lat="40.47228111370409" lon="8.746724769800577"><ele>406.0</ele><time>2026-05-02T15:19:01Z</time></trkpt><trkpt lat="40.47256877889141" lon="8.74687911009286"><ele>406.0</ele><time>2026-05-02T15:19:02Z</time></trkpt><trkpt lat="40.47286764251422" lon="8.747020391809858"><ele>406.0</ele><time>2026-05-02T15:19:03Z</time></trkpt><trkpt lat="40.473177385856964" lon="8.74715399792448"><ele>407.5</ele><time>2026-05-02T15:19:04Z</time></trkpt><trkpt lat="40.473492702012045" lon="8.747276436036934"><ele>409.0</ele><time>2026-05-02T15:19:05Z</time></trkpt><trkpt lat="40.4738203020301" lon="8.747390197264947"><ele>409.0</ele><time>2026-05-02T15:19:06Z</time></trkpt><trkpt lat="40.47415602922754" lon="8.747502376252585"><ele>409.0</ele><time>2026-05-02T15:19:07Z</time></trkpt><trkpt lat="40.47449765464456" lon="8.747621884352757"><ele>405.0</ele><time>2026-05-02T15:19:08Z</time></trkpt><trkpt lat="40.47484131868627" lon="8.747746697142661"><ele>401.0</ele><time>2026-05-02T15:19:09Z</time></trkpt><trkpt lat="40.47518280449934" lon="8.747873248420694"><ele>399.5</ele><time>2026-05-02T15:19:10Z</time></trkpt><trkpt lat="40.47552271647593" lon="8.748002544270683"><ele>398.0</ele><time>2026-05-02T15:19:11Z</time></trkpt><trkpt lat="40.47586240795865" lon="8.748133598558605"><ele>398.0</ele><time>2026-05-02T15:19:12Z</time></trkpt><trkpt lat="40.47620035698105" lon="8.748262430680269"><ele>398.0</ele><time>2026-05-02T15:19:13Z</time></trkpt><trkpt lat="40.476537502521865" lon="8.748389707805753"><ele>396.5</ele><time>2026-05-02T15:19:14Z</time></trkpt><trkpt lat="40.47687447310953" lon="8.748515239781192"><ele>395.0</ele><time>2026-05-02T15:19:15Z</time></trkpt><trkpt lat="40.477210289223066" lon="8.748643312205388"><ele>393.0</ele><time>2026-05-02T15:19:16Z</time></trkpt><trkpt lat="40.4775470639735" lon="8.748769176203213"><ele>391.0</ele><time>2026-05-02T15:19:17Z</time></trkpt><trkpt lat="40.477883840060365" lon="8.748894713174643"><ele>390.5</ele><time>2026-05-02T15:19:18Z</time></trkpt><trkpt lat="40.478219237084105" lon="8.749022260802455"><ele>390.0</ele><time>2026-05-02T15:19:19Z</time></trkpt><trkpt lat="40.47855068898065" lon="8.749147085650739"><ele>390.0</ele><time>2026-05-02T15:19:20Z</time></trkpt><trkpt lat="40.478884987914824" lon="8.749272198769553"><ele>390.0</ele><time>2026-05-02T15:19:21Z</time></trkpt><trkpt lat="40.479214579401756" lon="8.749397623604956"><ele>390.0</ele><time>2026-05-02T15:19:22Z</time></trkpt><trkpt lat="40.479542434436574" lon="8.74951880588707"><ele>390.0</ele><time>2026-05-02T15:19:23Z</time></trkpt><trkpt lat="40.47987189017719" lon="8.74964050459801"><ele>390.0</ele><time>2026-05-02T15:19:24Z</time></trkpt><trkpt lat="40.48020054333857" lon="8.749763033389414"><ele>390.0</ele><time>2026-05-02T15:19:25Z</time></trkpt><trkpt lat="40.48053162959477" lon="8.749884977432249"><ele>388.5</ele><time>2026-05-02T15:19:26Z</time></trkpt><trkpt lat="40.480863151392754" lon="8.750008766364553"><ele>387.0</ele><time>2026-05-02T15:19:27Z</time></trkpt><trkpt lat="40.48119390439862" lon="8.750132390063708"><ele>388.5</ele><time>2026-05-02T15:19:28Z</time></trkpt><trkpt lat="40.481524808089134" lon="8.750257195116731"><ele>390.0</ele><time>2026-05-02T15:19:29Z</time></trkpt><trkpt lat="40.48185653115536" lon="8.750381955730113"><ele>391.0</ele><time>2026-05-02T15:19:30Z</time></trkpt><trkpt lat="40.48218744271625" lon="8.750505817623194"><ele>392.0</ele><time>2026-05-02T15:19:31Z</time></trkpt><trkpt lat="40.48251479933262" lon="8.750626904463255"><ele>392.0</ele><time>2026-05-02T15:19:32Z</time></trkpt><trkpt lat="40.48284399793029" lon="8.75074953666972"><ele>392.0</ele><time>2026-05-02T15:19:33Z</time></trkpt><trkpt lat="40.48316882004612" lon="8.750868379065514"><ele>392.5</ele><time>2026-05-02T15:19:34Z</time></trkpt><trkpt lat="40.48349305894472" lon="8.750987842479717"><ele>393.0</ele><time>2026-05-02T15:19:35Z</time></trkpt><trkpt lat="40.48381873474511" lon="8.751107845940162"><ele>395.0</ele><time>2026-05-02T15:19:36Z</time></trkpt><trkpt lat="40.48414342427101" lon="8.751228338137649"><ele>397.0</ele><time>2026-05-02T15:19:37Z</time></trkpt><trkpt lat="40.484464878889455" lon="8.751348576629313"><ele>397.5</ele><time>2026-05-02T15:19:38Z</time></trkpt><trkpt lat="40.4847660809963" lon="8.7514601744368"><ele>398.0</ele><time>2026-05-02T15:19:39Z</time></trkpt><trkpt lat="40.48506626202291" lon="8.751576008553664"><ele>398.0</ele><time>2026-05-02T15:19:40Z</time></trkpt><trkpt lat="40.48536857884868" lon="8.751687216776947"><ele>398.0</ele><time>2026-05-02T15:19:41Z</time></trkpt><trkpt lat="40.485674742657345" lon="8.751797156727152"><ele>399.5</ele><time>2026-05-02T15:19:42Z</time></trkpt><trkpt lat="40.4859845652789" lon="8.751909081036532"><ele>401.0</ele><time>2026-05-02T15:19:43Z</time></trkpt><trkpt lat="40.48629824209637" lon="8.752022241609708"><ele>401.0</ele><time>2026-05-02T15:19:44Z</time></trkpt><trkpt lat="40.486613394794304" lon="8.752136845234444"><ele>401.0</ele><time>2026-05-02T15:19:45Z</time></trkpt><trkpt lat="40.48691309917669" lon="8.752244680730987"><ele>400.0</ele><time>2026-05-02T15:19:46Z</time></trkpt><trkpt lat="40.48719878298998" lon="8.752352120476267"><ele>399.0</ele><time>2026-05-02T15:19:47Z</time></trkpt><trkpt lat="40.48747061496149" lon="8.752458151017398"><ele>399.0</ele><time>2026-05-02T15:19:48Z</time></trkpt><trkpt lat="40.487737621394274" lon="8.752571919630478"><ele>399.0</ele><time>2026-05-02T15:19:49Z</time></trkpt><trkpt lat="40.48799866642407" lon="8.752695065968128"><ele>397.5</ele><time>2026-05-02T15:19:50Z</time></trkpt><trkpt lat="40.4882550346037" lon="8.752827868907122"><ele>396.0</ele><time>2026-05-02T15:19:51Z</time></trkpt><trkpt lat="40.48850370662278" lon="8.752968266187393"><ele>396.0</ele><time>2026-05-02T15:19:52Z</time></trkpt><trkpt lat="40.48874741941319" lon="8.75311756282343"><ele>396.0</ele><time>2026-05-02T15:19:53Z</time></trkpt><trkpt lat="40.48898487481267" lon="8.753273089106447"><ele>394.0</ele><time>2026-05-02T15:19:54Z</time></trkpt><trkpt lat="40.489219671659484" lon="8.753435830803324"><ele>392.0</ele><time>2026-05-02T15:19:55Z</time></trkpt><trkpt lat="40.48945295497302" lon="8.75360446794109"><ele>390.5</ele><time>2026-05-02T15:19:56Z</time></trkpt><trkpt lat="40.48967949301875" lon="8.75378128237316"><ele>389.0</ele><time>2026-05-02T15:19:57Z</time></trkpt><trkpt lat="40.48990427557104" lon="8.753970102479386"><ele>389.0</ele><time>2026-05-02T15:19:58Z</time></trkpt><trkpt lat="40.49012508706936" lon="8.754168553098888"><ele>389.0</ele><time>2026-05-02T15:19:59Z</time></trkpt><trkpt lat="40.49034237634551" lon="8.754376384353785"><ele>389.0</ele><time>2026-05-02T15:20:00Z</time></trkpt><trkpt lat="40.490556428353" lon="8.754598542866832"><ele>389.0</ele><time>2026-05-02T15:20:01Z</time></trkpt><trkpt lat="40.49076628496105" lon="8.754829232250406"><ele>389.0</ele><time>2026-05-02T15:20:02Z</time></trkpt><trkpt lat="40.49097223627758" lon="8.755071534714864"><ele>389.0</ele><time>2026-05-02T15:20:03Z</time></trkpt><trkpt lat="40.491170368558464" lon="8.755315472845385"><ele>389.0</ele><time>2026-05-02T15:20:04Z</time></trkpt><trkpt lat="40.49135034323454" lon="8.755550272302543"><ele>389.0</ele><time>2026-05-02T15:20:05Z</time></trkpt><trkpt lat="40.49151753801689" lon="8.755784481326208"><ele>389.0</ele><time>2026-05-02T15:20:06Z</time></trkpt><trkpt lat="40.49167041173374" lon="8.756004953375296"><ele>389.0</ele><time>2026-05-02T15:20:07Z</time></trkpt><trkpt lat="40.49180272686004" lon="8.756202819726632"><ele>389.0</ele><time>2026-05-02T15:20:08Z</time></trkpt><trkpt lat="40.491924913572696" lon="8.75639111917669"><ele>388.66666666666663</ele><time>2026-05-02T15:20:09Z</time></trkpt><trkpt lat="40.49203732369399" lon="8.756562542903284"><ele>388.33333333333337</ele><time>2026-05-02T15:20:10Z</time></trkpt><trkpt lat="40.49214455308272" lon="8.756712263705865"><ele>388.0</ele><time>2026-05-02T15:20:11Z</time></trkpt><trkpt lat="40.4922584619649" lon="8.756843425405966"><ele>389.0</ele><time>2026-05-02T15:20:12Z</time></trkpt><trkpt lat="40.492380245147054" lon="8.756962395555945"><ele>390.0</ele><time>2026-05-02T15:20:13Z</time></trkpt><trkpt lat="40.49251553968412" lon="8.757070200671182"><ele>391.0</ele><time>2026-05-02T15:20:14Z</time></trkpt><trkpt lat="40.49265740361436" lon="8.757171297376745"><ele>391.0</ele><time>2026-05-02T15:20:15Z</time></trkpt><trkpt lat="40.49279862008956" lon="8.757278349692792"><ele>391.0</ele><time>2026-05-02T15:20:16Z</time></trkpt><trkpt lat="40.492954568632875" lon="8.757374689451575"><ele>391.0</ele><time>2026-05-02T15:20:17Z</time></trkpt><trkpt lat="40.493122483796355" lon="8.757450589715523"><ele>391.6666666666667</ele><time>2026-05-02T15:20:18Z</time></trkpt><trkpt lat="40.4932943472099" lon="8.757504257763223"><ele>392.33333333333337</ele><time>2026-05-02T15:20:19Z</time></trkpt><trkpt lat="40.49345538677716" lon="8.757527408805016"><ele>393.0</ele><time>2026-05-02T15:20:20Z</time></trkpt><trkpt lat="40.49360968676299" lon="8.757533843943921"><ele>392.5</ele><time>2026-05-02T15:20:21Z</time></trkpt><trkpt lat="40.493760304281395" lon="8.75752554642539"><ele>392.0</ele><time>2026-05-02T15:20:22Z</time></trkpt><trkpt lat="40.49390160196255" lon="8.757495116817035"><ele>391.5</ele><time>2026-05-02T15:20:23Z</time></trkpt><trkpt lat="40.49402858002048" lon="8.75747667013724"><ele>391.0</ele><time>2026-05-02T15:20:24Z</time></trkpt><trkpt lat="40.494148526014385" lon="8.757472800036124"><ele>391.0</ele><time>2026-05-02T15:20:25Z</time></trkpt><trkpt lat="40.494261256674605" lon="8.757487293434362"><ele>391.0</ele><time>2026-05-02T15:20:26Z</time></trkpt><trkpt lat="40.4943706339062" lon="8.757518257103994"><ele>391.0</ele><time>2026-05-02T15:20:27Z</time></trkpt><trkpt lat="40.494477818932666" lon="8.757572417311852"><ele>391.0</ele><time>2026-05-02T15:20:28Z</time></trkpt><trkpt lat="40.49457977567727" lon="8.757639654113165"><ele>390.4</ele><time>2026-05-02T15:20:29Z</time></trkpt><trkpt lat="40.494675480152246" lon="8.757701501546842"><ele>389.8</ele><time>2026-05-02T15:20:30Z</time></trkpt><trkpt lat="40.4947713844397" lon="8.757756557818265"><ele>389.2</ele><time>2026-05-02T15:20:31Z</time></trkpt><trkpt lat="40.49486738327478" lon="8.757810591859919"><ele>388.59999999999997</ele><time>2026-05-02T15:20:32Z</time></trkpt><trkpt lat="40.494955788054305" lon="8.757860008238321"><ele>388.0</ele><time>2026-05-02T15:20:33Z</time></trkpt><trkpt lat="40.4950406517906" lon="8.757908699905364"><ele>388.00000000000006</ele><time>2026-05-02T15:20:34Z</time></trkpt><trkpt lat="40.4951188914114" lon="8.757957377122242"><ele>388.0</ele><time>2026-05-02T15:20:35Z</time></trkpt><trkpt lat="40.4951892022098" lon="8.75801260418352"><ele>388.0</ele><time>2026-05-02T15:20:36Z</time></trkpt><trkpt lat="40.49524944276324" lon="8.7580767167119"><ele>388.0</ele><time>2026-05-02T15:20:37Z</time></trkpt><trkpt lat="40.49529861905468" lon="8.758155248932589"><ele>388.00000000000006</ele><time>2026-05-02T15:20:38Z</time></trkpt><trkpt lat="40.49534887151428" lon="8.758253744850705"><ele>388.0</ele><time>2026-05-02T15:20:39Z</time></trkpt><trkpt lat="40.49539774696903" lon="8.758356544856152"><ele>387.75</ele><time>2026-05-02T15:20:40Z</time></trkpt><trkpt lat="40.49543732202043" lon="8.758453494923014"><ele>387.5</ele><time>2026-05-02T15:20:41Z</time></trkpt><trkpt lat="40.495458956504386" lon="8.75854527479427"><ele>387.25</ele><time>2026-05-02T15:20:42Z</time></trkpt><trkpt lat="40.495486307501594" lon="8.758654989000751"><ele>387.0</ele><time>2026-05-02T15:20:44Z</time></trkpt><trkpt lat="40.49570825686298" lon="8.758631072116524"><ele>386.6</ele><time>2026-05-02T15:20:45Z</time></trkpt><trkpt lat="40.49580262405302" lon="8.758608433003316"><ele>386.20000000000005</ele><time>2026-05-02T15:20:46Z</time></trkpt><trkpt lat="40.49590066944918" lon="8.75858800252807"><ele>385.8</ele><time>2026-05-02T15:20:47Z</time></trkpt><trkpt lat="40.495994953600764" lon="8.758608960732403"><ele>385.4</ele><time>2026-05-02T15:20:48Z</time></trkpt><trkpt lat="40.496078112087275" lon="8.75867118680011"><ele>385.0</ele><time>2026-05-02T15:20:49Z</time></trkpt><trkpt lat="40.49615652222405" lon="8.758769995487903"><ele>385.0</ele><time>2026-05-02T15:20:50Z</time></trkpt><trkpt lat="40.49619298737375" lon="8.75890453956369"><ele>385.0</ele><time>2026-05-02T15:20:51Z</time></trkpt><trkpt lat="40.49623286856645" lon="8.75904234658808"><ele>385.0</ele><time>2026-05-02T15:20:52Z</time></trkpt><trkpt lat="40.4962845504981" lon="8.759166910159708"><ele>385.0</ele><time>2026-05-02T15:20:53Z</time></trkpt><trkpt lat="40.496321168265155" lon="8.759291672107691"><ele>385.0</ele><time>2026-05-02T15:20:54Z</time></trkpt><trkpt lat="40.49635875276432" lon="8.759425118116733"><ele>385.0</ele><time>2026-05-02T15:20:55Z</time></trkpt><trkpt lat="40.49639924375313" lon="8.759569367565367"><ele>385.0</ele><time>2026-05-02T15:20:56Z</time></trkpt><trkpt lat="40.496439697409095" lon="8.759720869656219"><ele>385.0</ele><time>2026-05-02T15:20:57Z</time></trkpt><trkpt lat="40.49648160854759" lon="8.759876421363678"><ele>385.0</ele><time>2026-05-02T15:20:58Z</time></trkpt><trkpt lat="40.49652472945917" lon="8.760034785068681"><ele>385.0</ele><time>2026-05-02T15:20:59Z</time></trkpt><trkpt lat="40.496569777315365" lon="8.760195125423895"><ele>385.0</ele><time>2026-05-02T15:21:00Z</time></trkpt><trkpt lat="40.496615882192096" lon="8.760357794811902"><ele>385.0</ele><time>2026-05-02T15:21:01Z</time></trkpt><trkpt lat="40.49666482898389" lon="8.760525253847852"><ele>385.0</ele><time>2026-05-02T15:21:02Z</time></trkpt><trkpt lat="40.496710123948375" lon="8.760701302440806"><ele>385.0</ele><time>2026-05-02T15:21:03Z</time></trkpt><trkpt lat="40.49675423694495" lon="8.76088297163979"><ele>385.0</ele><time>2026-05-02T15:21:04Z</time></trkpt><trkpt lat="40.49679792777745" lon="8.761069915104093"><ele>385.0</ele><time>2026-05-02T15:21:05Z</time></trkpt><trkpt lat="40.496840739218904" lon="8.761261278035072"><ele>385.0</ele><time>2026-05-02T15:21:06Z</time></trkpt><trkpt lat="40.496882962661644" lon="8.761454292999652"><ele>385.0</ele><time>2026-05-02T15:21:07Z</time></trkpt><trkpt lat="40.49696980858143" lon="8.761637918853964"><ele>385.0</ele><time>2026-05-02T15:21:08Z</time></trkpt><trkpt lat="40.49703950232504" lon="8.76185173144864"><ele>385.0</ele><time>2026-05-02T15:21:09Z</time></trkpt><trkpt lat="40.49710195506194" lon="8.762066771757443"><ele>385.0</ele><time>2026-05-02T15:21:10Z</time></trkpt><trkpt lat="40.49716620917937" lon="8.762296688642971"><ele>385.0</ele><time>2026-05-02T15:21:11Z</time></trkpt><trkpt lat="40.49723888263656" lon="8.762533865374976"><ele>385.0</ele><time>2026-05-02T15:21:12Z</time></trkpt><trkpt lat="40.49732864433098" lon="8.76277059231537"><ele>386.0</ele><time>2026-05-02T15:21:13Z</time></trkpt><trkpt lat="40.497440862582216" lon="8.762990439537543"><ele>387.0</ele><time>2026-05-02T15:21:14Z</time></trkpt><trkpt lat="40.497567725627334" lon="8.763175803759589"><ele>388.0</ele><time>2026-05-02T15:21:15Z</time></trkpt><trkpt lat="40.49770488470574" lon="8.763346596705212"><ele>388.0</ele><time>2026-05-02T15:21:16Z</time></trkpt><trkpt lat="40.49784696167163" lon="8.763518652878815"><ele>388.0</ele><time>2026-05-02T15:21:17Z</time></trkpt><trkpt lat="40.4979958075174" lon="8.763686862000908"><ele>388.0</ele><time>2026-05-02T15:21:18Z</time></trkpt><trkpt lat="40.49814779066186" lon="8.763854926021084"><ele>388.0</ele><time>2026-05-02T15:21:19Z</time></trkpt><trkpt lat="40.49829816030114" lon="8.764027609221587"><ele>388.0</ele><time>2026-05-02T15:21:20Z</time></trkpt><trkpt lat="40.49844922689937" lon="8.764201216895989"><ele>388.0</ele><time>2026-05-02T15:21:21Z</time></trkpt><trkpt lat="40.49860046711964" lon="8.764376497045914"><ele>388.33333333333337</ele><time>2026-05-02T15:21:22Z</time></trkpt><trkpt lat="40.49875203233463" lon="8.76454972179232"><ele>388.66666666666663</ele><time>2026-05-02T15:21:23Z</time></trkpt><trkpt lat="40.498907913921656" lon="8.764721402643195"><ele>389.0</ele><time>2026-05-02T15:21:24Z</time></trkpt><trkpt lat="40.49906164810921" lon="8.764888822583988"><ele>389.0</ele><time>2026-05-02T15:21:25Z</time></trkpt><trkpt lat="40.499211804672264" lon="8.765054394106532"><ele>389.0</ele><time>2026-05-02T15:21:26Z</time></trkpt><trkpt lat="40.49935788155492" lon="8.765220513712324"><ele>389.0</ele><time>2026-05-02T15:21:27Z</time></trkpt><trkpt lat="40.49950107532508" lon="8.7653850464647"><ele>390.3333333333333</ele><time>2026-05-02T15:21:28Z</time></trkpt><trkpt lat="40.499639417353954" lon="8.76554464806773"><ele>391.66666666666663</ele><time>2026-05-02T15:21:29Z</time></trkpt><trkpt lat="40.499764155245735" lon="8.765690700040173"><ele>393.0</ele><time>2026-05-02T15:21:30Z</time></trkpt><trkpt lat="40.499866067459095" lon="8.765842703821919"><ele>393.0</ele><time>2026-05-02T15:21:31Z</time></trkpt><trkpt lat="40.49994507118095" lon="8.766003083988458"><ele>393.0</ele><time>2026-05-02T15:21:32Z</time></trkpt><trkpt lat="40.50003758999459" lon="8.766099397374497"><ele>393.0</ele><time>2026-05-02T15:21:33Z</time></trkpt><trkpt lat="40.50012345901548" lon="8.766195857319246"><ele>393.0</ele><time>2026-05-02T15:21:34Z</time></trkpt><trkpt lat="40.500203674873525" lon="8.766286006041936"><ele>393.1666666666667</ele><time>2026-05-02T15:21:35Z</time></trkpt><trkpt lat="40.50027840727807" lon="8.766370298962395"><ele>393.33333333333337</ele><time>2026-05-02T15:21:36Z</time></trkpt><trkpt lat="40.500341854069326" lon="8.766441862465472"><ele>393.5</ele><time>2026-05-02T15:21:37Z</time></trkpt><trkpt lat="40.50039613265653" lon="8.766503084920952"><ele>393.6666666666667</ele><time>2026-05-02T15:21:38Z</time></trkpt><trkpt lat="40.50044878751116" lon="8.766562475898857"><ele>393.83333333333337</ele><time>2026-05-02T15:21:39Z</time></trkpt><trkpt lat="40.50050526763393" lon="8.766626181503224"><ele>394.0</ele><time>2026-05-02T15:21:40Z</time></trkpt><trkpt lat="40.50056642726732" lon="8.76669516527943"><ele>394.0</ele><time>2026-05-02T15:21:41Z</time></trkpt><trkpt lat="40.500638824437324" lon="8.766776824221349"><ele>394.0</ele><time>2026-05-02T15:21:42Z</time></trkpt><trkpt lat="40.500732038725246" lon="8.766881963404705"><ele>394.0</ele><time>2026-05-02T15:21:43Z</time></trkpt><trkpt lat="40.50085023176371" lon="8.767013776696643"><ele>394.0</ele><time>2026-05-02T15:21:44Z</time></trkpt><trkpt lat="40.500995377105376" lon="8.76717550198735"><ele>394.0</ele><time>2026-05-02T15:21:45Z</time></trkpt><trkpt lat="40.501148606167106" lon="8.767349295349733"><ele>394.0</ele><time>2026-05-02T15:21:46Z</time></trkpt><trkpt lat="40.50131991361428" lon="8.767543353362742"><ele>394.0</ele><time>2026-05-02T15:21:47Z</time></trkpt><trkpt lat="40.50151104915942" lon="8.767759872871856"><ele>393.5</ele><time>2026-05-02T15:21:48Z</time></trkpt><trkpt lat="40.50171272692508" lon="8.767987849419027"><ele>393.0</ele><time>2026-05-02T15:21:49Z</time></trkpt><trkpt lat="40.501927942782174" lon="8.768230683012828"><ele>394.5</ele><time>2026-05-02T15:21:50Z</time></trkpt><trkpt lat="40.50215099334743" lon="8.76848235677635"><ele>396.0</ele><time>2026-05-02T15:21:51Z</time></trkpt><trkpt lat="40.5023829178395" lon="8.768744043207043"><ele>396.0</ele><time>2026-05-02T15:21:52Z</time></trkpt><trkpt lat="40.50261496216875" lon="8.769005931554174"><ele>396.0</ele><time>2026-05-02T15:21:53Z</time></trkpt><trkpt lat="40.50282789563962" lon="8.769246444008338"><ele>397.5</ele><time>2026-05-02T15:21:54Z</time></trkpt><trkpt lat="40.503033281383516" lon="8.769478356008483"><ele>399.0</ele><time>2026-05-02T15:21:55Z</time></trkpt><trkpt lat="40.50324321884778" lon="8.769711316347676"><ele>399.0</ele><time>2026-05-02T15:21:56Z</time></trkpt><trkpt lat="40.503449050749396" lon="8.769941179143634"><ele>399.0</ele><time>2026-05-02T15:21:57Z</time></trkpt><trkpt lat="40.50363319644702" lon="8.770131674045784"><ele>401.0</ele><time>2026-05-02T15:21:58Z</time></trkpt><trkpt lat="40.503783166073795" lon="8.770263880532502"><ele>403.0</ele><time>2026-05-02T15:21:59Z</time></trkpt><trkpt lat="40.503928484976704" lon="8.77039922558695"><ele>405.0</ele><time>2026-05-02T15:22:00Z</time></trkpt><trkpt lat="40.50411597120895" lon="8.770552554053529"><ele>405.0</ele><time>2026-05-02T15:22:01Z</time></trkpt><trkpt lat="40.50434139671455" lon="8.770726343858273"><ele>405.0</ele><time>2026-05-02T15:22:02Z</time></trkpt><trkpt lat="40.50431764177644" lon="8.771839480137173"><ele>405.0</ele><time>2026-05-02T15:22:03Z</time></trkpt><trkpt lat="40.504527064991" lon="8.772077129788125"><ele>405.0</ele><time>2026-05-02T15:22:04Z</time></trkpt><trkpt lat="40.50473753048691" lon="8.772317331286647"><ele>405.0</ele><time>2026-05-02T15:22:05Z</time></trkpt><trkpt lat="40.50495211882582" lon="8.772561655078931"><ele>405.0</ele><time>2026-05-02T15:22:06Z</time></trkpt><trkpt lat="40.50516639710594" lon="8.772809262703658"><ele>405.0</ele><time>2026-05-02T15:22:07Z</time></trkpt><trkpt lat="40.50538637029123" lon="8.773061194595847"><ele>405.0</ele><time>2026-05-02T15:22:08Z</time></trkpt><trkpt lat="40.50561081498486" lon="8.773317426606443"><ele>405.5</ele><time>2026-05-02T15:22:09Z</time></trkpt><trkpt lat="40.50583658599254" lon="8.773577070766342"><ele>406.0</ele><time>2026-05-02T15:22:10Z</time></trkpt><trkpt lat="40.50606293995226" lon="8.77384603932894"><ele>405.5</ele><time>2026-05-02T15:22:11Z</time></trkpt><trkpt lat="40.506286139092275" lon="8.774116989999085"><ele>405.0</ele><time>2026-05-02T15:22:12Z</time></trkpt><trkpt lat="40.5065079064994" lon="8.774381733833588"><ele>405.0</ele><time>2026-05-02T15:22:13Z</time></trkpt><trkpt lat="40.5067351826207" lon="8.774639141866247"><ele>405.0</ele><time>2026-05-02T15:22:14Z</time></trkpt><trkpt lat="40.50697514595494" lon="8.774884127425079"><ele>405.0</ele><time>2026-05-02T15:22:15Z</time></trkpt><trkpt lat="40.50722983634352" lon="8.775111260099488"><ele>405.0</ele><time>2026-05-02T15:22:16Z</time></trkpt><trkpt lat="40.5074922592645" lon="8.775324352952005"><ele>405.0</ele><time>2026-05-02T15:22:17Z</time></trkpt><trkpt lat="40.50776342744236" lon="8.775523667600417"><ele>405.0</ele><time>2026-05-02T15:22:18Z</time></trkpt><trkpt lat="40.50804296812706" lon="8.775704756295172"><ele>404.5</ele><time>2026-05-02T15:22:19Z</time></trkpt><trkpt lat="40.50833121458739" lon="8.775868644750082"><ele>404.0</ele><time>2026-05-02T15:22:20Z</time></trkpt><trkpt lat="40.50862710186067" lon="8.776017892271303"><ele>402.5</ele><time>2026-05-02T15:22:21Z</time></trkpt><trkpt lat="40.508922398485815" lon="8.77615728655976"><ele>401.0</ele><time>2026-05-02T15:22:22Z</time></trkpt><trkpt lat="40.50921784302242" lon="8.77627971525119"><ele>401.0</ele><time>2026-05-02T15:22:23Z</time></trkpt><trkpt lat="40.509514385598564" lon="8.7763765545878"><ele>401.0</ele><time>2026-05-02T15:22:24Z</time></trkpt><trkpt lat="40.50982129091927" lon="8.776455063684594"><ele>400.5</ele><time>2026-05-02T15:22:25Z</time></trkpt><trkpt lat="40.51013360065911" lon="8.776520414404787"><ele>400.0</ele><time>2026-05-02T15:22:26Z</time></trkpt><trkpt lat="40.51044717124773" lon="8.77657122145481"><ele>400.0</ele><time>2026-05-02T15:22:27Z</time></trkpt><trkpt lat="40.51076461576457" lon="8.776610641056921"><ele>400.0</ele><time>2026-05-02T15:22:28Z</time></trkpt><trkpt lat="40.51108472160976" lon="8.776646135334012"><ele>402.5</ele><time>2026-05-02T15:22:29Z</time></trkpt><trkpt lat="40.51140840566743" lon="8.776684083223643"><ele>405.0</ele><time>2026-05-02T15:22:30Z</time></trkpt><trkpt lat="40.51173320699135" lon="8.776722856424668"><ele>405.0</ele><time>2026-05-02T15:22:31Z</time></trkpt><trkpt lat="40.51205951561313" lon="8.776763941784413"><ele>405.0</ele><time>2026-05-02T15:22:32Z</time></trkpt><trkpt lat="40.512384826899826" lon="8.776806683160478"><ele>406.5</ele><time>2026-05-02T15:22:33Z</time></trkpt><trkpt lat="40.51270944994884" lon="8.776849213163963"><ele>408.0</ele><time>2026-05-02T15:22:34Z</time></trkpt><trkpt lat="40.513036476153225" lon="8.776885373943104"><ele>411.5</ele><time>2026-05-02T15:22:35Z</time></trkpt><trkpt lat="40.513366062098704" lon="8.776920432835814"><ele>415.0</ele><time>2026-05-02T15:22:36Z</time></trkpt><trkpt lat="40.51370222190138" lon="8.776957875541182"><ele>414.5</ele><time>2026-05-02T15:22:37Z</time></trkpt><trkpt lat="40.51404313387278" lon="8.77700019300973"><ele>414.0</ele><time>2026-05-02T15:22:38Z</time></trkpt><trkpt lat="40.514390156083934" lon="8.777047256441055"><ele>411.0</ele><time>2026-05-02T15:22:39Z</time></trkpt><trkpt lat="40.51473835925278" lon="8.777090995882986"><ele>408.0</ele><time>2026-05-02T15:22:40Z</time></trkpt><trkpt lat="40.51508627345851" lon="8.77713610726902"><ele>405.5</ele><time>2026-05-02T15:22:41Z</time></trkpt><trkpt lat="40.515442011674494" lon="8.777177054589485"><ele>403.0</ele><time>2026-05-02T15:22:42Z</time></trkpt><trkpt lat="40.51579674846911" lon="8.777222030888527"><ele>403.0</ele><time>2026-05-02T15:22:43Z</time></trkpt><trkpt lat="40.516149046153615" lon="8.777270512207718"><ele>403.0</ele><time>2026-05-02T15:22:44Z</time></trkpt><trkpt lat="40.51650349485163" lon="8.777320709704721"><ele>400.0</ele><time>2026-05-02T15:22:45Z</time></trkpt><trkpt lat="40.51686118543649" lon="8.777345152094375"><ele>397.0</ele><time>2026-05-02T15:22:46Z</time></trkpt><trkpt lat="40.5172188233539" lon="8.777385579666756"><ele>397.0</ele><time>2026-05-02T15:22:47Z</time></trkpt><trkpt lat="40.51757338791068" lon="8.777425399804539"><ele>397.0</ele><time>2026-05-02T15:22:48Z</time></trkpt><trkpt lat="40.51792950355351" lon="8.777463148145056"><ele>394.0</ele><time>2026-05-02T15:22:49Z</time></trkpt><trkpt lat="40.51828408866905" lon="8.77750533062382"><ele>391.0</ele><time>2026-05-02T15:22:50Z</time></trkpt><trkpt lat="40.51864272635465" lon="8.777550058534603"><ele>389.5</ele><time>2026-05-02T15:22:51Z</time></trkpt><trkpt lat="40.5190032653191" lon="8.777592113258109"><ele>388.0</ele><time>2026-05-02T15:22:52Z</time></trkpt><trkpt lat="40.5193670838561" lon="8.777632143195971"><ele>385.0</ele><time>2026-05-02T15:22:53Z</time></trkpt><trkpt lat="40.51973160414148" lon="8.77767255514884"><ele>382.0</ele><time>2026-05-02T15:22:54Z</time></trkpt><trkpt lat="40.52009417848551" lon="8.777717290074467"><ele>377.0</ele><time>2026-05-02T15:22:55Z</time></trkpt><trkpt lat="40.5204542444993" lon="8.777764527649984"><ele>372.0</ele><time>2026-05-02T15:22:56Z</time></trkpt><trkpt lat="40.520814085506366" lon="8.777811628632763"><ele>372.0</ele><time>2026-05-02T15:22:57Z</time></trkpt><trkpt lat="40.52117817632333" lon="8.777860526597854"><ele>372.0</ele><time>2026-05-02T15:22:58Z</time></trkpt><trkpt lat="40.52154328056944" lon="8.777912416734836"><ele>366.5</ele><time>2026-05-02T15:22:59Z</time></trkpt><trkpt lat="40.52191149472276" lon="8.777977524875284"><ele>361.0</ele><time>2026-05-02T15:23:00Z</time></trkpt><trkpt lat="40.522273166883565" lon="8.778064496404394"><ele>359.5</ele><time>2026-05-02T15:23:01Z</time></trkpt><trkpt lat="40.52262997470186" lon="8.778170669217984"><ele>358.0</ele><time>2026-05-02T15:23:02Z</time></trkpt><trkpt lat="40.522984572938995" lon="8.778299344593261"><ele>357.5</ele><time>2026-05-02T15:23:03Z</time></trkpt><trkpt lat="40.52333486722294" lon="8.778445507849874"><ele>357.0</ele><time>2026-05-02T15:23:04Z</time></trkpt><trkpt lat="40.52367657834224" lon="8.778611058863243"><ele>358.5</ele><time>2026-05-02T15:23:05Z</time></trkpt><trkpt lat="40.52401667652803" lon="8.778792033337837"><ele>360.0</ele><time>2026-05-02T15:23:06Z</time></trkpt><trkpt lat="40.5243541371288" lon="8.77897703133957"><ele>362.0</ele><time>2026-05-02T15:23:07Z</time></trkpt><trkpt lat="40.52468382072738" lon="8.779172437413473"><ele>364.0</ele><time>2026-05-02T15:23:08Z</time></trkpt><trkpt lat="40.52502479699315" lon="8.77935811478644"><ele>366.5</ele><time>2026-05-02T15:23:09Z</time></trkpt><trkpt lat="40.52536238431901" lon="8.779539945553546"><ele>369.0</ele><time>2026-05-02T15:23:10Z</time></trkpt><trkpt lat="40.52569945457153" lon="8.779721630124918"><ele>369.0</ele><time>2026-05-02T15:23:11Z</time></trkpt><trkpt lat="40.526034540865744" lon="8.779907361753425"><ele>369.0</ele><time>2026-05-02T15:23:12Z</time></trkpt><trkpt lat="40.52637048441346" lon="8.78009357575671"><ele>371.0</ele><time>2026-05-02T15:23:13Z</time></trkpt><trkpt lat="40.52670773799515" lon="8.780277951454686"><ele>373.0</ele><time>2026-05-02T15:23:14Z</time></trkpt><trkpt lat="40.527046448136026" lon="8.780460454495604"><ele>372.0</ele><time>2026-05-02T15:23:15Z</time></trkpt><trkpt lat="40.52738411562251" lon="8.780641839705632"><ele>371.0</ele><time>2026-05-02T15:23:16Z</time></trkpt><trkpt lat="40.52771912297503" lon="8.780825777074224"><ele>372.0</ele><time>2026-05-02T15:23:17Z</time></trkpt><trkpt lat="40.52805351762443" lon="8.78100655684858"><ele>373.0</ele><time>2026-05-02T15:23:18Z</time></trkpt><trkpt lat="40.52838624734526" lon="8.781187141224327"><ele>373.0</ele><time>2026-05-02T15:23:19Z</time></trkpt><trkpt lat="40.52871687882155" lon="8.781369317256148"><ele>373.0</ele><time>2026-05-02T15:23:20Z</time></trkpt><trkpt lat="40.52904129185948" lon="8.781546047333288"><ele>372.0</ele><time>2026-05-02T15:23:21Z</time></trkpt><trkpt lat="40.529363144835266" lon="8.781722780272245"><ele>371.0</ele><time>2026-05-02T15:23:22Z</time></trkpt><trkpt lat="40.52968551021284" lon="8.781899197929228"><ele>368.5</ele><time>2026-05-02T15:23:23Z</time></trkpt><trkpt lat="40.53000620921592" lon="8.782075214172387"><ele>366.0</ele><time>2026-05-02T15:23:24Z</time></trkpt><trkpt lat="40.53032836933465" lon="8.782248743303583"><ele>367.5</ele><time>2026-05-02T15:23:25Z</time></trkpt><trkpt lat="40.530655616568524" lon="8.782415244545536"><ele>369.0</ele><time>2026-05-02T15:23:26Z</time></trkpt><trkpt lat="40.530979704321624" lon="8.782563406268581"><ele>368.5</ele><time>2026-05-02T15:23:27Z</time></trkpt><trkpt lat="40.53128881898965" lon="8.782680128458143"><ele>368.0</ele><time>2026-05-02T15:23:28Z</time></trkpt><trkpt lat="40.53160161403946" lon="8.782774736224395"><ele>368.0</ele><time>2026-05-02T15:23:29Z</time></trkpt><trkpt lat="40.53192091784427" lon="8.782855369446853"><ele>368.0</ele><time>2026-05-02T15:23:30Z</time></trkpt><trkpt lat="40.53224713894229" lon="8.78292116178347"><ele>364.5</ele><time>2026-05-02T15:23:31Z</time></trkpt><trkpt lat="40.53258073158224" lon="8.782972774068885"><ele>361.0</ele><time>2026-05-02T15:23:32Z</time></trkpt><trkpt lat="40.53290897518894" lon="8.783003079818842"><ele>358.5</ele><time>2026-05-02T15:23:33Z</time></trkpt><trkpt lat="40.533240495544206" lon="8.783019504933247"><ele>356.0</ele><time>2026-05-02T15:23:34Z</time></trkpt><trkpt lat="40.533570195518145" lon="8.783024939316807"><ele>354.0</ele><time>2026-05-02T15:23:35Z</time></trkpt><trkpt lat="40.53389634218899" lon="8.783034706313495"><ele>352.0</ele><time>2026-05-02T15:23:36Z</time></trkpt><trkpt lat="40.5342216164386" lon="8.783047051937961"><ele>352.0</ele><time>2026-05-02T15:23:37Z</time></trkpt><trkpt lat="40.53454917076099" lon="8.783058256083182"><ele>352.0</ele><time>2026-05-02T15:23:38Z</time></trkpt><trkpt lat="40.53487554445871" lon="8.783070031102408"><ele>350.5</ele><time>2026-05-02T15:23:39Z</time></trkpt><trkpt lat="40.53518931708416" lon="8.783084149450753"><ele>349.0</ele><time>2026-05-02T15:23:40Z</time></trkpt><trkpt lat="40.53548702421762" lon="8.783097791166513"><ele>348.0</ele><time>2026-05-02T15:23:41Z</time></trkpt><trkpt lat="40.53578845020253" lon="8.783111669417009"><ele>347.0</ele><time>2026-05-02T15:23:42Z</time></trkpt><trkpt lat="40.53609825351325" lon="8.783122842774558"><ele>346.5</ele><time>2026-05-02T15:23:43Z</time></trkpt><trkpt lat="40.53641333151549" lon="8.783133794519665"><ele>346.0</ele><time>2026-05-02T15:23:44Z</time></trkpt><trkpt lat="40.53672934297292" lon="8.783144575966972"><ele>346.0</ele><time>2026-05-02T15:23:45Z</time></trkpt><trkpt lat="40.53704683069114" lon="8.783154939421442"><ele>346.0</ele><time>2026-05-02T15:23:46Z</time></trkpt><trkpt lat="40.537362682776966" lon="8.783166040727433"><ele>343.5</ele><time>2026-05-02T15:23:47Z</time></trkpt><trkpt lat="40.5376753476875" lon="8.783174526930827"><ele>341.0</ele><time>2026-05-02T15:23:48Z</time></trkpt><trkpt lat="40.53797894379014" lon="8.78318576535936"><ele>340.0</ele><time>2026-05-02T15:23:49Z</time></trkpt><trkpt lat="40.53829423447972" lon="8.783197820096758"><ele>339.0</ele><time>2026-05-02T15:23:50Z</time></trkpt><trkpt lat="40.538599931850015" lon="8.783201922608482"><ele>338.0</ele><time>2026-05-02T15:23:51Z</time></trkpt><trkpt lat="40.538902057158964" lon="8.783188588068654"><ele>337.0</ele><time>2026-05-02T15:23:52Z</time></trkpt><trkpt lat="40.539202472147366" lon="8.783164843450493"><ele>337.0</ele><time>2026-05-02T15:23:53Z</time></trkpt><trkpt lat="40.53948882739076" lon="8.783136968333395"><ele>337.0</ele><time>2026-05-02T15:23:54Z</time></trkpt><trkpt lat="40.539729724577725" lon="8.783105189199494"><ele>337.3333333333333</ele><time>2026-05-02T15:23:55Z</time></trkpt><trkpt lat="40.53993303370709" lon="8.783078369556574"><ele>337.6666666666667</ele><time>2026-05-02T15:23:56Z</time></trkpt><trkpt lat="40.54010023758286" lon="8.783053454819234"><ele>338.0</ele><time>2026-05-02T15:23:57Z</time></trkpt><trkpt lat="40.54023369367422" lon="8.783024427413093"><ele>338.0</ele><time>2026-05-02T15:23:58Z</time></trkpt><trkpt lat="40.54033325107959" lon="8.782999894685355"><ele>338.0</ele><time>2026-05-02T15:23:59Z</time></trkpt><trkpt lat="40.54040696251002" lon="8.782986305995694"><ele>338.0</ele><time>2026-05-02T15:24:00Z</time></trkpt><trkpt lat="40.54047640767115" lon="8.78297007803057"><ele>338.0</ele><time>2026-05-02T15:24:02Z</time></trkpt><trkpt lat="40.54053194147624" lon="8.782924759172133"><ele>338.0</ele><time>2026-05-02T15:24:48Z</time></trkpt><trkpt lat="40.54064940820312" lon="8.782879994409882"><ele>338.0</ele><time>2026-05-02T15:24:50Z</time></trkpt><trkpt lat="40.54071654176632" lon="8.78283680490616"><ele>336.75</ele><time>2026-05-02T15:24:51Z</time></trkpt><trkpt lat="40.54078835683425" lon="8.782803198838772"><ele>335.5</ele><time>2026-05-02T15:24:52Z</time></trkpt><trkpt lat="40.54088780357778" lon="8.782747736908775"><ele>334.25</ele><time>2026-05-02T15:24:53Z</time></trkpt><trkpt lat="40.541015860358506" lon="8.782677933068763"><ele>333.0</ele><time>2026-05-02T15:24:54Z</time></trkpt><trkpt lat="40.54116683490893" lon="8.782603140222577"><ele>329.6666666666667</ele><time>2026-05-02T15:24:55Z</time></trkpt><trkpt lat="40.54133486642634" lon="8.782530109193964"><ele>326.33333333333337</ele><time>2026-05-02T15:24:56Z</time></trkpt><trkpt lat="40.54151344220536" lon="8.782447078245669"><ele>323.0</ele><time>2026-05-02T15:24:57Z</time></trkpt><trkpt lat="40.54170116610736" lon="8.782348391843454"><ele>323.0</ele><time>2026-05-02T15:24:58Z</time></trkpt><trkpt lat="40.54190032621495" lon="8.782240172624848"><ele>323.0</ele><time>2026-05-02T15:24:59Z</time></trkpt><trkpt lat="40.542108144849664" lon="8.782126160787694"><ele>323.0</ele><time>2026-05-02T15:25:00Z</time></trkpt><trkpt lat="40.54232088729339" lon="8.782008528875341"><ele>321.5</ele><time>2026-05-02T15:25:01Z</time></trkpt><trkpt lat="40.54254006894036" lon="8.781888526552944"><ele>320.0</ele><time>2026-05-02T15:25:02Z</time></trkpt><trkpt lat="40.54276541296512" lon="8.781767253467619"><ele>320.5</ele><time>2026-05-02T15:25:03Z</time></trkpt><trkpt lat="40.54299667164146" lon="8.781642500494797"><ele>321.0</ele><time>2026-05-02T15:25:04Z</time></trkpt><trkpt lat="40.54323155920306" lon="8.781517095296508"><ele>321.0</ele><time>2026-05-02T15:25:05Z</time></trkpt><trkpt lat="40.54347074079748" lon="8.781390840362423"><ele>321.0</ele><time>2026-05-02T15:25:06Z</time></trkpt><trkpt lat="40.54371252279219" lon="8.781259279187816"><ele>320.5</ele><time>2026-05-02T15:25:07Z</time></trkpt><trkpt lat="40.54395692290627" lon="8.781121314060249"><ele>320.0</ele><time>2026-05-02T15:25:08Z</time></trkpt><trkpt lat="40.544204780839415" lon="8.780984594442035"><ele>321.0</ele><time>2026-05-02T15:25:09Z</time></trkpt><trkpt lat="40.54445511512098" lon="8.780848002271444"><ele>322.0</ele><time>2026-05-02T15:25:10Z</time></trkpt><trkpt lat="40.544707592975605" lon="8.780716383074834"><ele>322.0</ele><time>2026-05-02T15:25:11Z</time></trkpt><trkpt lat="40.54495989670006" lon="8.780585639823489"><ele>322.0</ele><time>2026-05-02T15:25:12Z</time></trkpt><trkpt lat="40.5452156194877" lon="8.780446818984492"><ele>321.0</ele><time>2026-05-02T15:25:13Z</time></trkpt><trkpt lat="40.545475980720774" lon="8.780302867248086"><ele>320.0</ele><time>2026-05-02T15:25:14Z</time></trkpt><trkpt lat="40.545741058619605" lon="8.78015781672575"><ele>320.0</ele><time>2026-05-02T15:25:15Z</time></trkpt><trkpt lat="40.546014063578056" lon="8.780010518333452"><ele>320.0</ele><time>2026-05-02T15:25:16Z</time></trkpt><trkpt lat="40.54629155009429" lon="8.779862549455611"><ele>320.0</ele><time>2026-05-02T15:25:17Z</time></trkpt><trkpt lat="40.54657251006293" lon="8.779711282229082"><ele>320.0</ele><time>2026-05-02T15:25:18Z</time></trkpt><trkpt lat="40.546853559357054" lon="8.779557624949806"><ele>320.0</ele><time>2026-05-02T15:25:19Z</time></trkpt><trkpt lat="40.547138031937756" lon="8.779404405525627"><ele>320.0</ele><time>2026-05-02T15:25:20Z</time></trkpt><trkpt lat="40.54742962465172" lon="8.779248586277532"><ele>320.0</ele><time>2026-05-02T15:25:21Z</time></trkpt><trkpt lat="40.5477188593251" lon="8.779093247245864"><ele>320.0</ele><time>2026-05-02T15:25:22Z</time></trkpt><trkpt lat="40.548011925826025" lon="8.778937982901711"><ele>320.0</ele><time>2026-05-02T15:25:23Z</time></trkpt><trkpt lat="40.54830560533664" lon="8.778778196321545"><ele>320.0</ele><time>2026-05-02T15:25:24Z</time></trkpt><trkpt lat="40.54859791383323" lon="8.778619545348093"><ele>321.0</ele><time>2026-05-02T15:25:25Z</time></trkpt><trkpt lat="40.54889239604727" lon="8.77846041730414"><ele>322.0</ele><time>2026-05-02T15:25:26Z</time></trkpt><trkpt lat="40.549188661453435" lon="8.778301439407453"><ele>322.0</ele><time>2026-05-02T15:25:27Z</time></trkpt><trkpt lat="40.549485163913616" lon="8.778143071167014"><ele>322.0</ele><time>2026-05-02T15:25:28Z</time></trkpt><trkpt lat="40.54977745810338" lon="8.777981342580055"><ele>323.0</ele><time>2026-05-02T15:25:29Z</time></trkpt><trkpt lat="40.550066472711045" lon="8.777821362742058"><ele>324.0</ele><time>2026-05-02T15:25:30Z</time></trkpt><trkpt lat="40.55035642715864" lon="8.77766343932346"><ele>325.0</ele><time>2026-05-02T15:25:31Z</time></trkpt><trkpt lat="40.55064407593292" lon="8.777508551518935"><ele>326.0</ele><time>2026-05-02T15:25:32Z</time></trkpt><trkpt lat="40.550929763814786" lon="8.777355583527337"><ele>325.0</ele><time>2026-05-02T15:25:33Z</time></trkpt><trkpt lat="40.55121646640505" lon="8.77720267505093"><ele>324.0</ele><time>2026-05-02T15:25:34Z</time></trkpt><trkpt lat="40.55150451289663" lon="8.777049089441936"><ele>324.0</ele><time>2026-05-02T15:25:35Z</time></trkpt><trkpt lat="40.55178909401745" lon="8.77689500898987"><ele>324.0</ele><time>2026-05-02T15:25:36Z</time></trkpt><trkpt lat="40.55207433105719" lon="8.776738895689453"><ele>326.0</ele><time>2026-05-02T15:25:37Z</time></trkpt><trkpt lat="40.55235984080816" lon="8.776584551047174"><ele>328.0</ele><time>2026-05-02T15:25:38Z</time></trkpt><trkpt lat="40.55264533990097" lon="8.776426957926473"><ele>328.0</ele><time>2026-05-02T15:25:39Z</time></trkpt><trkpt lat="40.55293008904099" lon="8.776269471925724"><ele>328.0</ele><time>2026-05-02T15:25:40Z</time></trkpt><trkpt lat="40.55321385831928" lon="8.776113299056155"><ele>328.0</ele><time>2026-05-02T15:25:41Z</time></trkpt><trkpt lat="40.553497943334285" lon="8.775957751779908"><ele>328.0</ele><time>2026-05-02T15:25:42Z</time></trkpt><trkpt lat="40.55378629937568" lon="8.775808039361488"><ele>330.0</ele><time>2026-05-02T15:25:43Z</time></trkpt><trkpt lat="40.55407248171938" lon="8.775660811405428"><ele>332.0</ele><time>2026-05-02T15:25:44Z</time></trkpt><trkpt lat="40.55435432294893" lon="8.77551252460061"><ele>333.5</ele><time>2026-05-02T15:25:45Z</time></trkpt><trkpt lat="40.5546379593774" lon="8.775362156956684"><ele>335.0</ele><time>2026-05-02T15:25:46Z</time></trkpt><trkpt lat="40.554920027479405" lon="8.775210153391738"><ele>336.0</ele><time>2026-05-02T15:25:47Z</time></trkpt><trkpt lat="40.55520254235174" lon="8.775058613531282"><ele>337.0</ele><time>2026-05-02T15:25:48Z</time></trkpt><trkpt lat="40.555481727398906" lon="8.774911335700017"><ele>338.5</ele><time>2026-05-02T15:25:49Z</time></trkpt><trkpt lat="40.555753026272306" lon="8.774764688369391"><ele>340.0</ele><time>2026-05-02T15:25:50Z</time></trkpt><trkpt lat="40.55601843692365" lon="8.774612765249186"><ele>341.0</ele><time>2026-05-02T15:25:51Z</time></trkpt><trkpt lat="40.55627773616601" lon="8.77445705908201"><ele>342.0</ele><time>2026-05-02T15:25:52Z</time></trkpt><trkpt lat="40.55653226664479" lon="8.77429073471938"><ele>342.0</ele><time>2026-05-02T15:25:53Z</time></trkpt><trkpt lat="40.55678106319828" lon="8.774109962904141"><ele>342.0</ele><time>2026-05-02T15:25:54Z</time></trkpt><trkpt lat="40.55701588756421" lon="8.773910649098069"><ele>341.5</ele><time>2026-05-02T15:25:55Z</time></trkpt><trkpt lat="40.557242927112696" lon="8.773698309028724"><ele>341.0</ele><time>2026-05-02T15:25:56Z</time></trkpt><trkpt lat="40.55748711647581" lon="8.77350722685729"><ele>341.0</ele><time>2026-05-02T15:25:57Z</time></trkpt><trkpt lat="40.55771034084936" lon="8.773283618607703"><ele>341.0</ele><time>2026-05-02T15:25:58Z</time></trkpt><trkpt lat="40.55793410475723" lon="8.773052025237742"><ele>341.0</ele><time>2026-05-02T15:25:59Z</time></trkpt><trkpt lat="40.55815437231983" lon="8.772808826018052"><ele>341.0</ele><time>2026-05-02T15:26:00Z</time></trkpt><trkpt lat="40.55836427767106" lon="8.772547764356942"><ele>341.0</ele><time>2026-05-02T15:26:01Z</time></trkpt><trkpt lat="40.55856872219988" lon="8.772274296737354"><ele>341.0</ele><time>2026-05-02T15:26:02Z</time></trkpt><trkpt lat="40.55877395134229" lon="8.771999843960876"><ele>342.0</ele><time>2026-05-02T15:26:03Z</time></trkpt><trkpt lat="40.55898181067035" lon="8.771723279263414"><ele>343.0</ele><time>2026-05-02T15:26:04Z</time></trkpt><trkpt lat="40.55919239476502" lon="8.77144717588564"><ele>343.0</ele><time>2026-05-02T15:26:05Z</time></trkpt><trkpt lat="40.559405176885356" lon="8.771169440211157"><ele>343.0</ele><time>2026-05-02T15:26:05.999Z</time></trkpt><trkpt lat="40.55961701624011" lon="8.770888787532463"><ele>344.5</ele><time>2026-05-02T15:26:06.999Z</time></trkpt><trkpt lat="40.55982952108288" lon="8.770605485169828"><ele>346.0</ele><time>2026-05-02T15:26:08Z</time></trkpt><trkpt lat="40.560036219124704" lon="8.770322619445588"><ele>347.0</ele><time>2026-05-02T15:26:09Z</time></trkpt><trkpt lat="40.560244642125376" lon="8.77003536426228"><ele>348.0</ele><time>2026-05-02T15:26:10Z</time></trkpt><trkpt lat="40.56045510414217" lon="8.769749185576684"><ele>348.0</ele><time>2026-05-02T15:26:11Z</time></trkpt><trkpt lat="40.56066604004721" lon="8.769463227819763"><ele>348.0</ele><time>2026-05-02T15:26:12Z</time></trkpt><trkpt lat="40.56087455184898" lon="8.769175590511056"><ele>349.0</ele><time>2026-05-02T15:26:13Z</time></trkpt><trkpt lat="40.5610886799828" lon="8.768891974617238"><ele>350.0</ele><time>2026-05-02T15:26:14Z</time></trkpt><trkpt lat="40.561304425650555" lon="8.768610677472582"><ele>351.5</ele><time>2026-05-02T15:26:15Z</time></trkpt><trkpt lat="40.56152535241649" lon="8.768336448788965"><ele>353.0</ele><time>2026-05-02T15:26:16Z</time></trkpt><trkpt lat="40.56174234833724" lon="8.768056646591635"><ele>353.0</ele><time>2026-05-02T15:26:17Z</time></trkpt><trkpt lat="40.56195483620316" lon="8.767771572275642"><ele>353.0</ele><time>2026-05-02T15:26:18Z</time></trkpt><trkpt lat="40.56216781494693" lon="8.767487836020678"><ele>356.5</ele><time>2026-05-02T15:26:19Z</time></trkpt><trkpt lat="40.56238149149061" lon="8.767206499502656"><ele>360.0</ele><time>2026-05-02T15:26:20Z</time></trkpt><trkpt lat="40.562593827327184" lon="8.766923285078688"><ele>358.5</ele><time>2026-05-02T15:26:21Z</time></trkpt><trkpt lat="40.562805958682745" lon="8.766638907452565"><ele>357.0</ele><time>2026-05-02T15:26:22Z</time></trkpt><trkpt lat="40.5630174359204" lon="8.766355288429848"><ele>358.5</ele><time>2026-05-02T15:26:23Z</time></trkpt><trkpt lat="40.56322990438469" lon="8.766071354544621"><ele>360.0</ele><time>2026-05-02T15:26:24Z</time></trkpt><trkpt lat="40.5634415950953" lon="8.76579016110314"><ele>360.0</ele><time>2026-05-02T15:26:25Z</time></trkpt><trkpt lat="40.56365391119869" lon="8.765506827311002"><ele>360.0</ele><time>2026-05-02T15:26:26Z</time></trkpt><trkpt lat="40.563866546307295" lon="8.765225050342044"><ele>360.5</ele><time>2026-05-02T15:26:27Z</time></trkpt><trkpt lat="40.56407799441196" lon="8.764942848377189"><ele>361.0</ele><time>2026-05-02T15:26:28Z</time></trkpt><trkpt lat="40.56428922521307" lon="8.764660508780977"><ele>361.0</ele><time>2026-05-02T15:26:29Z</time></trkpt><trkpt lat="40.564501578919156" lon="8.764380217352599"><ele>361.0</ele><time>2026-05-02T15:26:30Z</time></trkpt><trkpt lat="40.56471937557999" lon="8.764105554065072"><ele>362.0</ele><time>2026-05-02T15:26:31Z</time></trkpt><trkpt lat="40.56494520294899" lon="8.763837971744266"><ele>363.0</ele><time>2026-05-02T15:26:32Z</time></trkpt><trkpt lat="40.565178575819026" lon="8.763583458569856"><ele>365.0</ele><time>2026-05-02T15:26:33Z</time></trkpt><trkpt lat="40.565420233901825" lon="8.763340107336989"><ele>367.0</ele><time>2026-05-02T15:26:34Z</time></trkpt><trkpt lat="40.5656689915284" lon="8.763102418561795"><ele>367.0</ele><time>2026-05-02T15:26:35Z</time></trkpt><trkpt lat="40.56591993321976" lon="8.762869319246555"><ele>367.0</ele><time>2026-05-02T15:26:36Z</time></trkpt><trkpt lat="40.56617540402462" lon="8.762638416514104"><ele>367.0</ele><time>2026-05-02T15:26:37Z</time></trkpt><trkpt lat="40.56643324606804" lon="8.762405618273478"><ele>367.0</ele><time>2026-05-02T15:26:38Z</time></trkpt><trkpt lat="40.566691601356" lon="8.762168795978551"><ele>367.0</ele><time>2026-05-02T15:26:39Z</time></trkpt><trkpt lat="40.56694969584174" lon="8.761931777953716"><ele>367.0</ele><time>2026-05-02T15:26:40Z</time></trkpt><trkpt lat="40.56721109744674" lon="8.761694829981561"><ele>366.0</ele><time>2026-05-02T15:26:41Z</time></trkpt><trkpt lat="40.56747257942524" lon="8.761457090325951"><ele>365.0</ele><time>2026-05-02T15:26:42Z</time></trkpt><trkpt lat="40.56773791368762" lon="8.761213268184926"><ele>363.5</ele><time>2026-05-02T15:26:43Z</time></trkpt><trkpt lat="40.56800342368393" lon="8.760968984915424"><ele>362.0</ele><time>2026-05-02T15:26:44Z</time></trkpt><trkpt lat="40.568270552811875" lon="8.76072648435441"><ele>362.0</ele><time>2026-05-02T15:26:45Z</time></trkpt><trkpt lat="40.568536322491" lon="8.760485431392741"><ele>362.0</ele><time>2026-05-02T15:26:46Z</time></trkpt><trkpt lat="40.56880257088595" lon="8.760245833524893"><ele>359.0</ele><time>2026-05-02T15:26:47Z</time></trkpt><trkpt lat="40.569069931442776" lon="8.76000329176481"><ele>356.0</ele><time>2026-05-02T15:26:48Z</time></trkpt><trkpt lat="40.56933712820222" lon="8.759757977144835"><ele>354.0</ele><time>2026-05-02T15:26:49Z</time></trkpt><trkpt lat="40.56959923069742" lon="8.759512647300367"><ele>352.0</ele><time>2026-05-02T15:26:50Z</time></trkpt><trkpt lat="40.569842408523165" lon="8.759286813208"><ele>352.0</ele><time>2026-05-02T15:26:51Z</time></trkpt><trkpt lat="40.57009114028687" lon="8.759064164019222"><ele>352.0</ele><time>2026-05-02T15:26:52Z</time></trkpt><trkpt lat="40.57035149312715" lon="8.758844724010569"><ele>355.0</ele><time>2026-05-02T15:26:53Z</time></trkpt><trkpt lat="40.57062168749565" lon="8.758639061932584"><ele>358.0</ele><time>2026-05-02T15:26:54Z</time></trkpt><trkpt lat="40.57090205464958" lon="8.75844428510949"><ele>349.5</ele><time>2026-05-02T15:26:55Z</time></trkpt><trkpt lat="40.57118809236946" lon="8.758254342293016"><ele>341.0</ele><time>2026-05-02T15:26:56Z</time></trkpt><trkpt lat="40.57147910194264" lon="8.758064294518965"><ele>337.0</ele><time>2026-05-02T15:26:57Z</time></trkpt><trkpt lat="40.57177026690531" lon="8.757871563945276"><ele>333.0</ele><time>2026-05-02T15:26:58Z</time></trkpt><trkpt lat="40.572062073720325" lon="8.757677940542631"><ele>330.0</ele><time>2026-05-02T15:26:59Z</time></trkpt><trkpt lat="40.57235525180441" lon="8.757480924228377"><ele>327.0</ele><time>2026-05-02T15:27:00Z</time></trkpt><trkpt lat="40.57264841486133" lon="8.757283862555118"><ele>323.5</ele><time>2026-05-02T15:27:01Z</time></trkpt><trkpt lat="40.572935975288054" lon="8.757085372240121"><ele>320.0</ele><time>2026-05-02T15:27:02Z</time></trkpt><trkpt lat="40.57321814017175" lon="8.756878774113597"><ele>320.5</ele><time>2026-05-02T15:27:03Z</time></trkpt><trkpt lat="40.57349224673727" lon="8.756657925058752"><ele>321.0</ele><time>2026-05-02T15:27:04Z</time></trkpt><trkpt lat="40.57375847595364" lon="8.756415008841696"><ele>321.0</ele><time>2026-05-02T15:27:05Z</time></trkpt><trkpt lat="40.57401816499948" lon="8.75615848724322"><ele>321.0</ele><time>2026-05-02T15:27:06Z</time></trkpt><trkpt lat="40.57427267288425" lon="8.755883450930726"><ele>316.5</ele><time>2026-05-02T15:27:07Z</time></trkpt><trkpt lat="40.57452602466762" lon="8.755603186416854"><ele>312.0</ele><time>2026-05-02T15:27:08Z</time></trkpt><trkpt lat="40.57478410676597" lon="8.755326169842547"><ele>313.0</ele><time>2026-05-02T15:27:09Z</time></trkpt><trkpt lat="40.575044888047756" lon="8.755053797728582"><ele>314.0</ele><time>2026-05-02T15:27:10Z</time></trkpt><trkpt lat="40.575306514360655" lon="8.754779131484879"><ele>311.5</ele><time>2026-05-02T15:27:11Z</time></trkpt><trkpt lat="40.57555726649108" lon="8.754503199669124"><ele>309.0</ele><time>2026-05-02T15:27:12Z</time></trkpt><trkpt lat="40.57581259214152" lon="8.75422521342499"><ele>309.0</ele><time>2026-05-02T15:27:13Z</time></trkpt><trkpt lat="40.57606820608359" lon="8.753950423180486"><ele>309.0</ele><time>2026-05-02T15:27:14Z</time></trkpt><trkpt lat="40.57632041775779" lon="8.753674747113372"><ele>305.5</ele><time>2026-05-02T15:27:15Z</time></trkpt><trkpt lat="40.57657183363061" lon="8.753402981051858"><ele>302.0</ele><time>2026-05-02T15:27:16Z</time></trkpt><trkpt lat="40.57681887582802" lon="8.753135755576752"><ele>301.0</ele><time>2026-05-02T15:27:17Z</time></trkpt><trkpt lat="40.57705960667265" lon="8.752873631273903"><ele>300.0</ele><time>2026-05-02T15:27:18Z</time></trkpt><trkpt lat="40.577295159188445" lon="8.752617263395313"><ele>300.0</ele><time>2026-05-02T15:27:19Z</time></trkpt><trkpt lat="40.57752852174538" lon="8.752366136326359"><ele>300.0</ele><time>2026-05-02T15:27:20Z</time></trkpt><trkpt lat="40.57775781682281" lon="8.752124019718199"><ele>299.0</ele><time>2026-05-02T15:27:21Z</time></trkpt><trkpt lat="40.57798755493279" lon="8.751890214890397"><ele>298.0</ele><time>2026-05-02T15:27:22Z</time></trkpt><trkpt lat="40.57822406435058" lon="8.751665331062311"><ele>298.0</ele><time>2026-05-02T15:27:23Z</time></trkpt><trkpt lat="40.57846570985455" lon="8.751446077526163"><ele>298.0</ele><time>2026-05-02T15:27:24Z</time></trkpt><trkpt lat="40.57870856085286" lon="8.751229012272113"><ele>296.5</ele><time>2026-05-02T15:27:25Z</time></trkpt><trkpt lat="40.578950903660804" lon="8.751011499226658"><ele>295.0</ele><time>2026-05-02T15:27:26Z</time></trkpt><trkpt lat="40.579219881458954" lon="8.750896014784407"><ele>295.0</ele><time>2026-05-02T15:27:27Z</time></trkpt><trkpt lat="40.57947176506291" lon="8.75070197968156"><ele>295.0</ele><time>2026-05-02T15:27:28Z</time></trkpt><trkpt lat="40.57971931836863" lon="8.750506381630796"><ele>293.0</ele><time>2026-05-02T15:27:29Z</time></trkpt><trkpt lat="40.57996809459355" lon="8.750309902414768"><ele>291.0</ele><time>2026-05-02T15:27:30Z</time></trkpt><trkpt lat="40.58021612602306" lon="8.750120374077568"><ele>293.5</ele><time>2026-05-02T15:27:31Z</time></trkpt><trkpt lat="40.58046338259533" lon="8.749929973897757"><ele>296.0</ele><time>2026-05-02T15:27:32Z</time></trkpt><trkpt lat="40.580711697651665" lon="8.749740913473794"><ele>296.0</ele><time>2026-05-02T15:27:33Z</time></trkpt><trkpt lat="40.58096062829564" lon="8.749548774594711"><ele>296.0</ele><time>2026-05-02T15:27:34Z</time></trkpt><trkpt lat="40.58120552095467" lon="8.749354760742083"><ele>293.5</ele><time>2026-05-02T15:27:35Z</time></trkpt><trkpt lat="40.581451588445056" lon="8.749159942602128"><ele>291.0</ele><time>2026-05-02T15:27:36Z</time></trkpt><trkpt lat="40.58170080727586" lon="8.748961411861748"><ele>291.0</ele><time>2026-05-02T15:27:37Z</time></trkpt><trkpt lat="40.58195228389912" lon="8.748763489880943"><ele>291.0</ele><time>2026-05-02T15:27:38Z</time></trkpt><trkpt lat="40.58220520019351" lon="8.748571869552357"><ele>287.0</ele><time>2026-05-02T15:27:39Z</time></trkpt><trkpt lat="40.58245614993949" lon="8.748370762481713"><ele>283.0</ele><time>2026-05-02T15:27:40Z</time></trkpt><trkpt lat="40.58270048556418" lon="8.748151966772824"><ele>282.0</ele><time>2026-05-02T15:27:41Z</time></trkpt><trkpt lat="40.58294161403752" lon="8.74791557690801"><ele>281.0</ele><time>2026-05-02T15:27:42Z</time></trkpt><trkpt lat="40.58317463081056" lon="8.747671585911277"><ele>280.5</ele><time>2026-05-02T15:27:43Z</time></trkpt><trkpt lat="40.58339727941106" lon="8.747406100388227"><ele>280.0</ele><time>2026-05-02T15:27:44Z</time></trkpt><trkpt lat="40.58361020196979" lon="8.747127043134446"><ele>277.0</ele><time>2026-05-02T15:27:45Z</time></trkpt><trkpt lat="40.583809543459765" lon="8.746831785565929"><ele>274.0</ele><time>2026-05-02T15:27:46Z</time></trkpt><trkpt lat="40.58400354829888" lon="8.746529744713294"><ele>274.0</ele><time>2026-05-02T15:27:47Z</time></trkpt><trkpt lat="40.5841920966243" lon="8.746221256174206"><ele>274.0</ele><time>2026-05-02T15:27:48Z</time></trkpt><trkpt lat="40.584376486380265" lon="8.745909961736032"><ele>271.5</ele><time>2026-05-02T15:27:49Z</time></trkpt><trkpt lat="40.58456093294314" lon="8.745599814194108"><ele>269.0</ele><time>2026-05-02T15:27:50Z</time></trkpt><trkpt lat="40.58474999302312" lon="8.745293760850101"><ele>268.0</ele><time>2026-05-02T15:27:51Z</time></trkpt><trkpt lat="40.58494209624109" lon="8.744991801136543"><ele>267.0</ele><time>2026-05-02T15:27:52Z</time></trkpt><trkpt lat="40.5851310601334" lon="8.744698855009265"><ele>267.0</ele><time>2026-05-02T15:27:53Z</time></trkpt><trkpt lat="40.5853165652017" lon="8.744403854535367"><ele>267.0</ele><time>2026-05-02T15:27:54Z</time></trkpt><trkpt lat="40.58549760010946" lon="8.744110144291563"><ele>264.0</ele><time>2026-05-02T15:27:55Z</time></trkpt><trkpt lat="40.58567565920733" lon="8.74381714978808"><ele>261.0</ele><time>2026-05-02T15:27:56Z</time></trkpt><trkpt lat="40.58585551624906" lon="8.74352960696852"><ele>260.5</ele><time>2026-05-02T15:27:57Z</time></trkpt><trkpt lat="40.586036378830784" lon="8.743245042334582"><ele>260.0</ele><time>2026-05-02T15:27:58Z</time></trkpt><trkpt lat="40.586219206791924" lon="8.742961819556541"><ele>259.0</ele><time>2026-05-02T15:27:59Z</time></trkpt><trkpt lat="40.58640079489131" lon="8.742683543122478"><ele>258.0</ele><time>2026-05-02T15:28:00Z</time></trkpt><trkpt lat="40.586577049640105" lon="8.742397320726749"><ele>258.0</ele><time>2026-05-02T15:28:01Z</time></trkpt><trkpt lat="40.586753014804835" lon="8.742107008345732"><ele>258.0</ele><time>2026-05-02T15:28:02Z</time></trkpt><trkpt lat="40.586931210444966" lon="8.741816576511281"><ele>259.5</ele><time>2026-05-02T15:28:03Z</time></trkpt><trkpt lat="40.58711262518301" lon="8.741524154701674"><ele>261.0</ele><time>2026-05-02T15:28:04Z</time></trkpt><trkpt lat="40.58729670980466" lon="8.741231328476086"><ele>260.0</ele><time>2026-05-02T15:28:05Z</time></trkpt><trkpt lat="40.58748311132347" lon="8.740937679396698"><ele>259.0</ele><time>2026-05-02T15:28:06Z</time></trkpt><trkpt lat="40.587674807235594" lon="8.74064928807534"><ele>260.5</ele><time>2026-05-02T15:28:07Z</time></trkpt><trkpt lat="40.58787127222349" lon="8.740364097885868"><ele>262.0</ele><time>2026-05-02T15:28:08Z</time></trkpt><trkpt lat="40.58806450321196" lon="8.740076551942542"><ele>262.0</ele><time>2026-05-02T15:28:09Z</time></trkpt><trkpt lat="40.588252343333245" lon="8.739780034340326"><ele>262.0</ele><time>2026-05-02T15:28:10Z</time></trkpt><trkpt lat="40.588438035141245" lon="8.73948467891468"><ele>266.0</ele><time>2026-05-02T15:28:11Z</time></trkpt><trkpt lat="40.5888027524509" lon="8.738896320219402"><ele>266.0</ele><time>2026-05-02T15:28:12.999Z</time></trkpt><trkpt lat="40.58898464417708" lon="8.738602040400528"><ele>266.0</ele><time>2026-05-02T15:28:14Z</time></trkpt><trkpt lat="40.58916215747677" lon="8.738302479168873"><ele>262.0</ele><time>2026-05-02T15:28:15Z</time></trkpt><trkpt lat="40.589340210318866" lon="8.738000826023923"><ele>258.0</ele><time>2026-05-02T15:28:16Z</time></trkpt><trkpt lat="40.589518014762454" lon="8.737695109559453"><ele>256.5</ele><time>2026-05-02T15:28:17Z</time></trkpt><trkpt lat="40.58969435539331" lon="8.737388277070119"><ele>255.0</ele><time>2026-05-02T15:28:18Z</time></trkpt><trkpt lat="40.58987156305189" lon="8.737079390531674"><ele>254.5</ele><time>2026-05-02T15:28:19Z</time></trkpt><trkpt lat="40.59005063485648" lon="8.73677072893743"><ele>254.0</ele><time>2026-05-02T15:28:20Z</time></trkpt><trkpt lat="40.59022922084795" lon="8.7364612160528"><ele>255.0</ele><time>2026-05-02T15:28:21Z</time></trkpt><trkpt lat="40.59040923997218" lon="8.736151473579579"><ele>256.0</ele><time>2026-05-02T15:28:22Z</time></trkpt><trkpt lat="40.59058816211376" lon="8.735843401190946"><ele>256.0</ele><time>2026-05-02T15:28:23Z</time></trkpt><trkpt lat="40.590766857418345" lon="8.73553499858801"><ele>256.0</ele><time>2026-05-02T15:28:24Z</time></trkpt><trkpt lat="40.590946535546664" lon="8.73522725300024"><ele>255.5</ele><time>2026-05-02T15:28:25Z</time></trkpt><trkpt lat="40.591125762517336" lon="8.734919841821403"><ele>255.0</ele><time>2026-05-02T15:28:26Z</time></trkpt><trkpt lat="40.5913058936432" lon="8.734612287792348"><ele>255.0</ele><time>2026-05-02T15:28:27Z</time></trkpt><trkpt lat="40.59148632781759" lon="8.734302294388064"><ele>255.0</ele><time>2026-05-02T15:28:28Z</time></trkpt><trkpt lat="40.59166642296702" lon="8.733991897829751"><ele>255.0</ele><time>2026-05-02T15:28:29Z</time></trkpt><trkpt lat="40.591845534887284" lon="8.733682651112511"><ele>255.0</ele><time>2026-05-02T15:28:30Z</time></trkpt><trkpt lat="40.59202492406687" lon="8.73337339489195"><ele>255.5</ele><time>2026-05-02T15:28:31Z</time></trkpt><trkpt lat="40.592204668445866" lon="8.733063602918541"><ele>256.0</ele><time>2026-05-02T15:28:32Z</time></trkpt><trkpt lat="40.592384990886494" lon="8.73275681028345"><ele>256.5</ele><time>2026-05-02T15:28:33Z</time></trkpt><trkpt lat="40.5925642852768" lon="8.732447374052764"><ele>257.0</ele><time>2026-05-02T15:28:34Z</time></trkpt><trkpt lat="40.592743130893325" lon="8.73213686055268"><ele>259.0</ele><time>2026-05-02T15:28:35Z</time></trkpt><trkpt lat="40.5929215554084" lon="8.731830521893647"><ele>261.0</ele><time>2026-05-02T15:28:36Z</time></trkpt><trkpt lat="40.59309961953675" lon="8.731523796554432"><ele>261.0</ele><time>2026-05-02T15:28:37Z</time></trkpt><trkpt lat="40.59327728481204" lon="8.731219397346836"><ele>261.0</ele><time>2026-05-02T15:28:38Z</time></trkpt><trkpt lat="40.59345442031318" lon="8.730918575998881"><ele>261.5</ele><time>2026-05-02T15:28:39Z</time></trkpt><trkpt lat="40.593630854855576" lon="8.730613429866395"><ele>262.0</ele><time>2026-05-02T15:28:40Z</time></trkpt><trkpt lat="40.59380492492726" lon="8.73031203555158"><ele>263.0</ele><time>2026-05-02T15:28:41Z</time></trkpt><trkpt lat="40.59398383955017" lon="8.730014430842155"><ele>264.0</ele><time>2026-05-02T15:28:42Z</time></trkpt><trkpt lat="40.59415874254487" lon="8.72970857662526"><ele>264.0</ele><time>2026-05-02T15:28:43Z</time></trkpt><trkpt lat="40.59432702630342" lon="8.729419723426705"><ele>264.0</ele><time>2026-05-02T15:28:44Z</time></trkpt><trkpt lat="40.5945016850431" lon="8.729115261982416"><ele>265.0</ele><time>2026-05-02T15:28:45Z</time></trkpt><trkpt lat="40.59467510290943" lon="8.728824397640402"><ele>266.0</ele><time>2026-05-02T15:28:46Z</time></trkpt><trkpt lat="40.594846739246954" lon="8.72852595254525"><ele>266.5</ele><time>2026-05-02T15:28:47Z</time></trkpt><trkpt lat="40.59501839505612" lon="8.728227053310059"><ele>267.0</ele><time>2026-05-02T15:28:48Z</time></trkpt><trkpt lat="40.59519345213696" lon="8.727933742037317"><ele>268.0</ele><time>2026-05-02T15:28:49Z</time></trkpt><trkpt lat="40.595365967137326" lon="8.72763421409844"><ele>269.0</ele><time>2026-05-02T15:28:50Z</time></trkpt><trkpt lat="40.595536061377366" lon="8.727334891187319"><ele>269.0</ele><time>2026-05-02T15:28:51Z</time></trkpt><trkpt lat="40.59571044345779" lon="8.72703586659296"><ele>269.0</ele><time>2026-05-02T15:28:52Z</time></trkpt><trkpt lat="40.595885062846904" lon="8.726734942637377"><ele>269.5</ele><time>2026-05-02T15:28:53Z</time></trkpt><trkpt lat="40.59606075585006" lon="8.726434278608851"><ele>270.0</ele><time>2026-05-02T15:28:54Z</time></trkpt><trkpt lat="40.5962379437572" lon="8.72613178096351"><ele>271.5</ele><time>2026-05-02T15:28:55Z</time></trkpt><trkpt lat="40.596414059366055" lon="8.725829635037012"><ele>273.0</ele><time>2026-05-02T15:28:56Z</time></trkpt><trkpt lat="40.59658871968288" lon="8.725524940797106"><ele>273.5</ele><time>2026-05-02T15:28:57Z</time></trkpt><trkpt lat="40.59676140437834" lon="8.725219876798471"><ele>274.0</ele><time>2026-05-02T15:28:58Z</time></trkpt><trkpt lat="40.596934711519914" lon="8.724918284421843"><ele>275.0</ele><time>2026-05-02T15:28:59Z</time></trkpt><trkpt lat="40.59710971848081" lon="8.724622051973775"><ele>276.0</ele><time>2026-05-02T15:29:00Z</time></trkpt><trkpt lat="40.59728668425128" lon="8.724325304404543"><ele>277.5</ele><time>2026-05-02T15:29:01Z</time></trkpt><trkpt lat="40.59746029775198" lon="8.724026806651596"><ele>279.0</ele><time>2026-05-02T15:29:02Z</time></trkpt><trkpt lat="40.59763393327146" lon="8.723727657431473"><ele>278.0</ele><time>2026-05-02T15:29:03Z</time></trkpt><trkpt lat="40.59780375490864" lon="8.723424944698944"><ele>277.0</ele><time>2026-05-02T15:29:04Z</time></trkpt><trkpt lat="40.597970782203184" lon="8.72312078749822"><ele>279.5</ele><time>2026-05-02T15:29:05Z</time></trkpt><trkpt lat="40.598126797212046" lon="8.722804777831081"><ele>282.0</ele><time>2026-05-02T15:29:06Z</time></trkpt><trkpt lat="40.59826919145081" lon="8.722478556227275"><ele>282.0</ele><time>2026-05-02T15:29:07Z</time></trkpt><trkpt lat="40.59839756932011" lon="8.722140395761269"><ele>282.0</ele><time>2026-05-02T15:29:08Z</time></trkpt><trkpt lat="40.59851435587542" lon="8.721790655877305"><ele>282.0</ele><time>2026-05-02T15:29:09Z</time></trkpt><trkpt lat="40.598614961879406" lon="8.72142968797162"><ele>282.0</ele><time>2026-05-02T15:29:10Z</time></trkpt><trkpt lat="40.59870473540302" lon="8.721064498083281"><ele>280.0</ele><time>2026-05-02T15:29:11Z</time></trkpt><trkpt lat="40.59878596261316" lon="8.720696815415447"><ele>278.0</ele><time>2026-05-02T15:29:12Z</time></trkpt><trkpt lat="40.598850917039044" lon="8.720322305923203"><ele>280.0</ele><time>2026-05-02T15:29:13Z</time></trkpt><trkpt lat="40.5988995176118" lon="8.719942887087047"><ele>282.0</ele><time>2026-05-02T15:29:14Z</time></trkpt><trkpt lat="40.598936957566316" lon="8.71956417005257"><ele>284.5</ele><time>2026-05-02T15:29:15Z</time></trkpt><trkpt lat="40.59896858767015" lon="8.719185317851238"><ele>287.0</ele><time>2026-05-02T15:29:16Z</time></trkpt><trkpt lat="40.599003389705516" lon="8.718809536914826"><ele>287.5</ele><time>2026-05-02T15:29:17Z</time></trkpt><trkpt lat="40.599040443441986" lon="8.71843104663567"><ele>288.0</ele><time>2026-05-02T15:29:18Z</time></trkpt><trkpt lat="40.599076830016976" lon="8.718055997202578"><ele>290.0</ele><time>2026-05-02T15:29:19Z</time></trkpt><trkpt lat="40.59911677434333" lon="8.717680969268985"><ele>292.0</ele><time>2026-05-02T15:29:20Z</time></trkpt><trkpt lat="40.59915502331311" lon="8.717305806017226"><ele>292.0</ele><time>2026-05-02T15:29:21Z</time></trkpt><trkpt lat="40.59919083616105" lon="8.716934249883062"><ele>292.0</ele><time>2026-05-02T15:29:22Z</time></trkpt><trkpt lat="40.59922783721647" lon="8.716562598871304"><ele>294.0</ele><time>2026-05-02T15:29:23Z</time></trkpt><trkpt lat="40.599265688855056" lon="8.716196096271409"><ele>296.0</ele><time>2026-05-02T15:29:24Z</time></trkpt><trkpt lat="40.599304368818565" lon="8.715828835123864"><ele>296.0</ele><time>2026-05-02T15:29:25Z</time></trkpt><trkpt lat="40.59934894958225" lon="8.715466326235319"><ele>296.0</ele><time>2026-05-02T15:29:26Z</time></trkpt><trkpt lat="40.59940683342575" lon="8.715110133309066"><ele>296.0</ele><time>2026-05-02T15:29:27Z</time></trkpt><trkpt lat="40.59948359433108" lon="8.71475794361285"><ele>296.0</ele><time>2026-05-02T15:29:28Z</time></trkpt><trkpt lat="40.59957204237816" lon="8.714410582656146"><ele>301.0</ele><time>2026-05-02T15:29:29Z</time></trkpt><trkpt lat="40.599672658075775" lon="8.714067737580994"><ele>306.0</ele><time>2026-05-02T15:29:30Z</time></trkpt><trkpt lat="40.59978160140066" lon="8.71373058851484"><ele>306.0</ele><time>2026-05-02T15:29:31Z</time></trkpt><trkpt lat="40.59989981066421" lon="8.713398846068973"><ele>306.0</ele><time>2026-05-02T15:29:32Z</time></trkpt><trkpt lat="40.60002889641104" lon="8.71307193134445"><ele>306.0</ele><time>2026-05-02T15:29:33Z</time></trkpt><trkpt lat="40.60016999805214" lon="8.712754107702954"><ele>306.0</ele><time>2026-05-02T15:29:34Z</time></trkpt><trkpt lat="40.60031910040579" lon="8.712439728423574"><ele>312.0</ele><time>2026-05-02T15:29:35Z</time></trkpt><trkpt lat="40.60047315997757" lon="8.712126738289495"><ele>318.0</ele><time>2026-05-02T15:29:36Z</time></trkpt><trkpt lat="40.600630471565104" lon="8.711812799683727"><ele>318.5</ele><time>2026-05-02T15:29:37Z</time></trkpt><trkpt lat="40.60078861488112" lon="8.711496903435242"><ele>319.0</ele><time>2026-05-02T15:29:38Z</time></trkpt><trkpt lat="40.60094396009003" lon="8.711180717342303"><ele>318.0</ele><time>2026-05-02T15:29:39Z</time></trkpt><trkpt lat="40.60109951653588" lon="8.710864367577777"><ele>317.0</ele><time>2026-05-02T15:29:40Z</time></trkpt><trkpt lat="40.601253192276204" lon="8.710543312217343"><ele>321.0</ele><time>2026-05-02T15:29:41Z</time></trkpt><trkpt lat="40.60140616551246" lon="8.71022445967086"><ele>325.0</ele><time>2026-05-02T15:29:42Z</time></trkpt><trkpt lat="40.60156220227407" lon="8.709909876213805"><ele>325.0</ele><time>2026-05-02T15:29:43Z</time></trkpt><trkpt lat="40.601728551625584" lon="8.709604629578296"><ele>325.0</ele><time>2026-05-02T15:29:44Z</time></trkpt><trkpt lat="40.60191187652746" lon="8.709312685872845"><ele>328.0</ele><time>2026-05-02T15:29:45Z</time></trkpt><trkpt lat="40.60211124030957" lon="8.709038790836646"><ele>331.0</ele><time>2026-05-02T15:29:46Z</time></trkpt><trkpt lat="40.602323621356334" lon="8.708781083142872"><ele>330.0</ele><time>2026-05-02T15:29:47Z</time></trkpt><trkpt lat="40.60255116527954" lon="8.70854304263794"><ele>329.0</ele><time>2026-05-02T15:29:48Z</time></trkpt><trkpt lat="40.60279293013898" lon="8.708327589246192"><ele>330.5</ele><time>2026-05-02T15:29:49Z</time></trkpt><trkpt lat="40.603047775503114" lon="8.708131312222388"><ele>332.0</ele><time>2026-05-02T15:29:50Z</time></trkpt><trkpt lat="40.60331008065734" lon="8.707946350974147"><ele>332.0</ele><time>2026-05-02T15:29:51Z</time></trkpt><trkpt lat="40.60357914949075" lon="8.70777287371563"><ele>332.0</ele><time>2026-05-02T15:29:52Z</time></trkpt><trkpt lat="40.603858333143585" lon="8.707626322130231"><ele>330.5</ele><time>2026-05-02T15:29:53Z</time></trkpt><trkpt lat="40.604148772701" lon="8.707516604640556"><ele>329.0</ele><time>2026-05-02T15:29:54Z</time></trkpt><trkpt lat="40.604449010150226" lon="8.707438390192653"><ele>328.5</ele><time>2026-05-02T15:29:55Z</time></trkpt><trkpt lat="40.60475477652778" lon="8.707387035833088"><ele>328.0</ele><time>2026-05-02T15:29:56Z</time></trkpt><trkpt lat="40.60506405740914" lon="8.707356872847994"><ele>328.5</ele><time>2026-05-02T15:29:57Z</time></trkpt><trkpt lat="40.605372686052476" lon="8.707335895628402"><ele>329.0</ele><time>2026-05-02T15:29:58Z</time></trkpt><trkpt lat="40.6056828913253" lon="8.70731235988977"><ele>329.0</ele><time>2026-05-02T15:29:59Z</time></trkpt><trkpt lat="40.60599091937076" lon="8.707285351626352"><ele>329.0</ele><time>2026-05-02T15:30:00Z</time></trkpt><trkpt lat="40.6062987279846" lon="8.707256559853727"><ele>329.0</ele><time>2026-05-02T15:30:01Z</time></trkpt><trkpt lat="40.60660726777195" lon="8.707226575387763"><ele>329.0</ele><time>2026-05-02T15:30:02Z</time></trkpt><trkpt lat="40.60691447884991" lon="8.70719174118918"><ele>327.5</ele><time>2026-05-02T15:30:03Z</time></trkpt><trkpt lat="40.607220813737754" lon="8.707157587163017"><ele>326.0</ele><time>2026-05-02T15:30:04Z</time></trkpt><trkpt lat="40.6075238950653" lon="8.707136133226516"><ele>323.5</ele><time>2026-05-02T15:30:05Z</time></trkpt><trkpt lat="40.60782948516633" lon="8.707134550776694"><ele>321.0</ele><time>2026-05-02T15:30:06Z</time></trkpt><trkpt lat="40.60813571192492" lon="8.70716503094683"><ele>321.0</ele><time>2026-05-02T15:30:07Z</time></trkpt><trkpt lat="40.60844261912348" lon="8.707205501247893"><ele>321.0</ele><time>2026-05-02T15:30:08Z</time></trkpt><trkpt lat="40.608751261751124" lon="8.707248176705615"><ele>319.5</ele><time>2026-05-02T15:30:09Z</time></trkpt><trkpt lat="40.60905692332243" lon="8.707283956473606"><ele>318.0</ele><time>2026-05-02T15:30:10Z</time></trkpt><trkpt lat="40.60936266936431" lon="8.707343590597228"><ele>318.0</ele><time>2026-05-02T15:30:11Z</time></trkpt><trkpt lat="40.60966619093743" lon="8.7073965039799"><ele>318.0</ele><time>2026-05-02T15:30:12Z</time></trkpt><trkpt lat="40.60997077757949" lon="8.707436722705621"><ele>318.0</ele><time>2026-05-02T15:30:13Z</time></trkpt><trkpt lat="40.6102728471283" lon="8.70747317678568"><ele>318.0</ele><time>2026-05-02T15:30:14Z</time></trkpt><trkpt lat="40.61057257062318" lon="8.70750730540329"><ele>317.5</ele><time>2026-05-02T15:30:15Z</time></trkpt><trkpt lat="40.61087175161162" lon="8.707541143029728"><ele>317.0</ele><time>2026-05-02T15:30:16Z</time></trkpt><trkpt lat="40.611169357461975" lon="8.707578059305247"><ele>317.0</ele><time>2026-05-02T15:30:17Z</time></trkpt><trkpt lat="40.611468229257454" lon="8.707612629952848"><ele>317.0</ele><time>2026-05-02T15:30:18Z</time></trkpt><trkpt lat="40.611770693474234" lon="8.707650965623653"><ele>317.0</ele><time>2026-05-02T15:30:19Z</time></trkpt><trkpt lat="40.612073985559654" lon="8.707687139701413"><ele>317.0</ele><time>2026-05-02T15:30:20Z</time></trkpt><trkpt lat="40.61238366586374" lon="8.707718080780378"><ele>317.0</ele><time>2026-05-02T15:30:21Z</time></trkpt><trkpt lat="40.612686536823446" lon="8.707757641069644"><ele>317.0</ele><time>2026-05-02T15:30:22Z</time></trkpt><trkpt lat="40.612985747316166" lon="8.70779832963499"><ele>317.0</ele><time>2026-05-02T15:30:23Z</time></trkpt><trkpt lat="40.613287106728755" lon="8.70783686978697"><ele>317.0</ele><time>2026-05-02T15:30:24Z</time></trkpt><trkpt lat="40.61358510760472" lon="8.707840373311678"><ele>317.5</ele><time>2026-05-02T15:30:25Z</time></trkpt><trkpt lat="40.613884942530056" lon="8.707815258176709"><ele>318.0</ele><time>2026-05-02T15:30:26Z</time></trkpt><trkpt lat="40.61418037866117" lon="8.707758572243486"><ele>318.5</ele><time>2026-05-02T15:30:27Z</time></trkpt><trkpt lat="40.61447354209816" lon="8.707671885513294"><ele>319.0</ele><time>2026-05-02T15:30:28Z</time></trkpt><trkpt lat="40.614763952521415" lon="8.707556764716887"><ele>318.5</ele><time>2026-05-02T15:30:29Z</time></trkpt><trkpt lat="40.615045377391745" lon="8.707412494346483"><ele>318.0</ele><time>2026-05-02T15:30:30Z</time></trkpt><trkpt lat="40.61532485280373" lon="8.707250830976644"><ele>318.0</ele><time>2026-05-02T15:30:31Z</time></trkpt><trkpt lat="40.61560367148841" lon="8.707077390823907"><ele>318.0</ele><time>2026-05-02T15:30:32Z</time></trkpt><trkpt lat="40.61588686931839" lon="8.706921541478785"><ele>319.0</ele><time>2026-05-02T15:30:33Z</time></trkpt><trkpt lat="40.6161735589415" lon="8.706775113931368"><ele>320.0</ele><time>2026-05-02T15:30:34Z</time></trkpt><trkpt lat="40.61646139443221" lon="8.706638908459983"><ele>320.0</ele><time>2026-05-02T15:30:35Z</time></trkpt><trkpt lat="40.61674798431523" lon="8.706509962954968"><ele>320.0</ele><time>2026-05-02T15:30:36Z</time></trkpt><trkpt lat="40.61703079180055" lon="8.706381237357496"><ele>319.5</ele><time>2026-05-02T15:30:37Z</time></trkpt><trkpt lat="40.61731125379841" lon="8.706246242587994"><ele>319.0</ele><time>2026-05-02T15:30:38Z</time></trkpt><trkpt lat="40.61758852307805" lon="8.70610198306231"><ele>319.5</ele><time>2026-05-02T15:30:39Z</time></trkpt><trkpt lat="40.61786231459471" lon="8.705949210780258"><ele>320.0</ele><time>2026-05-02T15:30:40Z</time></trkpt><trkpt lat="40.61813171783354" lon="8.705785457741191"><ele>320.0</ele><time>2026-05-02T15:30:41Z</time></trkpt><trkpt lat="40.618397220034545" lon="8.705609360954151"><ele>320.0</ele><time>2026-05-02T15:30:42Z</time></trkpt><trkpt lat="40.618662227908345" lon="8.705430789075034"><ele>320.5</ele><time>2026-05-02T15:30:43Z</time></trkpt><trkpt lat="40.618929041455665" lon="8.705255217401435"><ele>321.0</ele><time>2026-05-02T15:30:44Z</time></trkpt><trkpt lat="40.61920061749601" lon="8.705086916107227"><ele>321.0</ele><time>2026-05-02T15:30:45Z</time></trkpt><trkpt lat="40.619477147657776" lon="8.704930917149964"><ele>321.0</ele><time>2026-05-02T15:30:46Z</time></trkpt><trkpt lat="40.619754010942444" lon="8.704777792315994"><ele>322.5</ele><time>2026-05-02T15:30:47Z</time></trkpt><trkpt lat="40.6200330941526" lon="8.704627975743236"><ele>324.0</ele><time>2026-05-02T15:30:48Z</time></trkpt><trkpt lat="40.620311466909904" lon="8.704480810910662"><ele>325.0</ele><time>2026-05-02T15:30:49Z</time></trkpt><trkpt lat="40.620580523254056" lon="8.70433401933093"><ele>326.0</ele><time>2026-05-02T15:30:50Z</time></trkpt><trkpt lat="40.62084545951223" lon="8.704183006642918"><ele>326.0</ele><time>2026-05-02T15:30:51Z</time></trkpt><trkpt lat="40.621112659569285" lon="8.704031420767345"><ele>326.0</ele><time>2026-05-02T15:30:52Z</time></trkpt><trkpt lat="40.621381628674364" lon="8.70387836734838"><ele>325.5</ele><time>2026-05-02T15:30:53Z</time></trkpt><trkpt lat="40.62165251574382" lon="8.70372782843603"><ele>325.0</ele><time>2026-05-02T15:30:54Z</time></trkpt><trkpt lat="40.621925538768195" lon="8.703576693269763"><ele>325.5</ele><time>2026-05-02T15:30:55Z</time></trkpt><trkpt lat="40.622198654622196" lon="8.703427304983979"><ele>326.0</ele><time>2026-05-02T15:30:56Z</time></trkpt><trkpt lat="40.622472470301915" lon="8.703275642359545"><ele>326.0</ele><time>2026-05-02T15:30:57Z</time></trkpt><trkpt lat="40.622746518292054" lon="8.703124863962179"><ele>326.0</ele><time>2026-05-02T15:30:58Z</time></trkpt><trkpt lat="40.623023187174375" lon="8.702980752506729"><ele>326.5</ele><time>2026-05-02T15:30:59Z</time></trkpt><trkpt lat="40.62330226973076" lon="8.702845286237949"><ele>327.0</ele><time>2026-05-02T15:31:00Z</time></trkpt><trkpt lat="40.623584391796044" lon="8.702719367988815"><ele>327.5</ele><time>2026-05-02T15:31:01Z</time></trkpt><trkpt lat="40.62386897440947" lon="8.702603032913776"><ele>328.0</ele><time>2026-05-02T15:31:02Z</time></trkpt><trkpt lat="40.62415573383382" lon="8.702490070335614"><ele>328.0</ele><time>2026-05-02T15:31:03Z</time></trkpt><trkpt lat="40.624442203342525" lon="8.702376865286961"><ele>328.0</ele><time>2026-05-02T15:31:04Z</time></trkpt><trkpt lat="40.624730077891996" lon="8.702264632275355"><ele>328.5</ele><time>2026-05-02T15:31:05Z</time></trkpt><trkpt lat="40.625016578538734" lon="8.702151411033348"><ele>329.0</ele><time>2026-05-02T15:31:06Z</time></trkpt><trkpt lat="40.62530271485133" lon="8.70203908732703"><ele>329.5</ele><time>2026-05-02T15:31:07Z</time></trkpt><trkpt lat="40.6255915521178" lon="8.70193073440244"><ele>330.0</ele><time>2026-05-02T15:31:08Z</time></trkpt><trkpt lat="40.62587907796159" lon="8.701819399883176"><ele>331.5</ele><time>2026-05-02T15:31:09Z</time></trkpt><trkpt lat="40.62616698227408" lon="8.701704466735126"><ele>333.0</ele><time>2026-05-02T15:31:10Z</time></trkpt><trkpt lat="40.62645451280662" lon="8.701584714641177"><ele>333.0</ele><time>2026-05-02T15:31:11Z</time></trkpt><trkpt lat="40.626742680859685" lon="8.701465507484528"><ele>333.0</ele><time>2026-05-02T15:31:12Z</time></trkpt><trkpt lat="40.62703169767154" lon="8.701349512743999"><ele>333.5</ele><time>2026-05-02T15:31:13Z</time></trkpt><trkpt lat="40.627321254690905" lon="8.701236031170314"><ele>334.0</ele><time>2026-05-02T15:31:14Z</time></trkpt><trkpt lat="40.627610968291975" lon="8.701121394472683"><ele>335.0</ele><time>2026-05-02T15:31:15Z</time></trkpt><trkpt lat="40.62789995298987" lon="8.701007884698871"><ele>336.0</ele><time>2026-05-02T15:31:16Z</time></trkpt><trkpt lat="40.62818925650479" lon="8.700893797601182"><ele>336.0</ele><time>2026-05-02T15:31:17Z</time></trkpt><trkpt lat="40.62847699881177" lon="8.700778373846388"><ele>336.0</ele><time>2026-05-02T15:31:18Z</time></trkpt><trkpt lat="40.62876338660645" lon="8.700660974383318"><ele>336.5</ele><time>2026-05-02T15:31:19Z</time></trkpt><trkpt lat="40.629050395018005" lon="8.70054400500944"><ele>337.0</ele><time>2026-05-02T15:31:20Z</time></trkpt><trkpt lat="40.629336913257056" lon="8.70042709274302"><ele>337.0</ele><time>2026-05-02T15:31:21Z</time></trkpt><trkpt lat="40.62961547890909" lon="8.700316882099695"><ele>337.0</ele><time>2026-05-02T15:31:22Z</time></trkpt><trkpt lat="40.62986907399485" lon="8.700216735908342"><ele>337.5</ele><time>2026-05-02T15:31:23Z</time></trkpt><trkpt lat="40.63011133403915" lon="8.70012220696733"><ele>338.0</ele><time>2026-05-02T15:31:24Z</time></trkpt><trkpt lat="40.63035465077388" lon="8.700027731541224"><ele>339.5</ele><time>2026-05-02T15:31:25Z</time></trkpt><trkpt lat="40.63060108508373" lon="8.699930732160514"><ele>341.0</ele><time>2026-05-02T15:31:26Z</time></trkpt><trkpt lat="40.63084622365194" lon="8.699831651172996"><ele>341.0</ele><time>2026-05-02T15:31:27Z</time></trkpt><trkpt lat="40.631089660642544" lon="8.69973504199188"><ele>341.0</ele><time>2026-05-02T15:31:28Z</time></trkpt><trkpt lat="40.631330622803034" lon="8.6996401367361"><ele>341.5</ele><time>2026-05-02T15:31:29Z</time></trkpt><trkpt lat="40.63156435927568" lon="8.699546780277107"><ele>342.0</ele><time>2026-05-02T15:31:30Z</time></trkpt><trkpt lat="40.631790678650084" lon="8.699459013378132"><ele>343.5</ele><time>2026-05-02T15:31:31Z</time></trkpt><trkpt lat="40.632015278913556" lon="8.699367844776067"><ele>345.0</ele><time>2026-05-02T15:31:32Z</time></trkpt><trkpt lat="40.632239367445806" lon="8.69928137345451"><ele>345.0</ele><time>2026-05-02T15:31:33Z</time></trkpt><trkpt lat="40.63246194900248" lon="8.699190622599408"><ele>345.0</ele><time>2026-05-02T15:31:34Z</time></trkpt><trkpt lat="40.63268319666837" lon="8.699102630683912"><ele>346.0</ele><time>2026-05-02T15:31:35Z</time></trkpt><trkpt lat="40.632903195961006" lon="8.699015840682314"><ele>347.0</ele><time>2026-05-02T15:31:36Z</time></trkpt><trkpt lat="40.63312089325026" lon="8.69892927623454"><ele>347.0</ele><time>2026-05-02T15:31:37Z</time></trkpt><trkpt lat="40.63333784155538" lon="8.698843670345731"><ele>347.0</ele><time>2026-05-02T15:31:38Z</time></trkpt><trkpt lat="40.63355043742682" lon="8.698757830278192"><ele>347.0</ele><time>2026-05-02T15:31:39Z</time></trkpt><trkpt lat="40.633762143069355" lon="8.698673658037142"><ele>347.6666666666667</ele><time>2026-05-02T15:31:40Z</time></trkpt><trkpt lat="40.63397408830254" lon="8.698590154105874"><ele>348.3333333333333</ele><time>2026-05-02T15:31:41Z</time></trkpt><trkpt lat="40.63418616832857" lon="8.698507601059756"><ele>349.0</ele><time>2026-05-02T15:31:42Z</time></trkpt><trkpt lat="40.63440242066058" lon="8.698423031908384"><ele>350.0</ele><time>2026-05-02T15:31:43Z</time></trkpt><trkpt lat="40.63461784809662" lon="8.698332561090018"><ele>351.0</ele><time>2026-05-02T15:31:44Z</time></trkpt><trkpt lat="40.63483257226177" lon="8.69823588903766"><ele>351.0</ele><time>2026-05-02T15:31:45Z</time></trkpt><trkpt lat="40.63504767786231" lon="8.698130198700945"><ele>351.0</ele><time>2026-05-02T15:31:46Z</time></trkpt><trkpt lat="40.63526120369198" lon="8.698015399818656"><ele>349.0</ele><time>2026-05-02T15:31:47Z</time></trkpt><trkpt lat="40.635476354422366" lon="8.697894262812225"><ele>347.0</ele><time>2026-05-02T15:31:48Z</time></trkpt><trkpt lat="40.63569058828535" lon="8.697770848362097"><ele>346.5</ele><time>2026-05-02T15:31:49Z</time></trkpt><trkpt lat="40.63589895809296" lon="8.69762174148015"><ele>346.0</ele><time>2026-05-02T15:31:50Z</time></trkpt><trkpt lat="40.636130939982564" lon="8.697537397286817"><ele>345.0</ele><time>2026-05-02T15:31:51Z</time></trkpt><trkpt lat="40.63657906484839" lon="8.697403540822997"><ele>345.0</ele><time>2026-05-02T15:31:53Z</time></trkpt><trkpt lat="40.636806821536275" lon="8.697410352951664"><ele>345.0</ele><time>2026-05-02T15:31:54Z</time></trkpt><trkpt lat="40.6370299958326" lon="8.697457863292449"><ele>345.0</ele><time>2026-05-02T15:31:55Z</time></trkpt><trkpt lat="40.63724429374199" lon="8.697545078236695"><ele>345.0</ele><time>2026-05-02T15:31:56Z</time></trkpt><trkpt lat="40.63744818360817" lon="8.69766846059335"><ele>345.0</ele><time>2026-05-02T15:31:57Z</time></trkpt><trkpt lat="40.63763700905494" lon="8.697827227191366"><ele>345.0</ele><time>2026-05-02T15:31:58Z</time></trkpt><trkpt lat="40.637810839371575" lon="8.698014082655964"><ele>345.0</ele><time>2026-05-02T15:31:59Z</time></trkpt><trkpt lat="40.63796541527029" lon="8.698229947932187"><ele>345.0</ele><time>2026-05-02T15:32:00Z</time></trkpt><trkpt lat="40.63809720512186" lon="8.698472733503868"><ele>345.0</ele><time>2026-05-02T15:32:01Z</time></trkpt><trkpt lat="40.638207315319235" lon="8.698735839236685"><ele>343.5</ele><time>2026-05-02T15:32:02Z</time></trkpt><trkpt lat="40.63830743838443" lon="8.699015919263804"><ele>342.0</ele><time>2026-05-02T15:32:03Z</time></trkpt><trkpt lat="40.638412202324645" lon="8.699298979021492"><ele>341.5</ele><time>2026-05-02T15:32:04Z</time></trkpt><trkpt lat="40.63852060900126" lon="8.699584715257021"><ele>341.0</ele><time>2026-05-02T15:32:05Z</time></trkpt><trkpt lat="40.63863244125263" lon="8.699874094631769"><ele>342.0</ele><time>2026-05-02T15:32:06Z</time></trkpt><trkpt lat="40.63874484247099" lon="8.700168519174305"><ele>343.0</ele><time>2026-05-02T15:32:07Z</time></trkpt><trkpt lat="40.638855505031785" lon="8.70047026338443"><ele>343.5</ele><time>2026-05-02T15:32:08Z</time></trkpt><trkpt lat="40.63895892982206" lon="8.700781359579688"><ele>344.0</ele><time>2026-05-02T15:32:09Z</time></trkpt><trkpt lat="40.63905155442669" lon="8.70110463316146"><ele>344.5</ele><time>2026-05-02T15:32:10Z</time></trkpt><trkpt lat="40.63913658057114" lon="8.701432419784759"><ele>345.0</ele><time>2026-05-02T15:32:11Z</time></trkpt><trkpt lat="40.639214597505855" lon="8.701767163388118"><ele>344.5</ele><time>2026-05-02T15:32:12Z</time></trkpt><trkpt lat="40.63928666070959" lon="8.70210472752491"><ele>344.0</ele><time>2026-05-02T15:32:13Z</time></trkpt><trkpt lat="40.63935125002819" lon="8.702441678617236"><ele>344.0</ele><time>2026-05-02T15:32:14Z</time></trkpt><trkpt lat="40.63941350192327" lon="8.702780467802995"><ele>344.0</ele><time>2026-05-02T15:32:15Z</time></trkpt><trkpt lat="40.639476693863834" lon="8.703114674654369"><ele>344.0</ele><time>2026-05-02T15:32:16Z</time></trkpt><trkpt lat="40.639542852577506" lon="8.703435778099776"><ele>344.0</ele><time>2026-05-02T15:32:17Z</time></trkpt><trkpt lat="40.63960891572002" lon="8.703747380970905"><ele>343.5</ele><time>2026-05-02T15:32:18Z</time></trkpt><trkpt lat="40.6396686170733" lon="8.704050103285862"><ele>343.0</ele><time>2026-05-02T15:32:19Z</time></trkpt><trkpt lat="40.63972367551194" lon="8.704348870452558"><ele>342.66666666666663</ele><time>2026-05-02T15:32:20Z</time></trkpt><trkpt lat="40.639776615963044" lon="8.704639941345688"><ele>342.3333333333333</ele><time>2026-05-02T15:32:21Z</time></trkpt><trkpt lat="40.639829486101476" lon="8.704923277944163"><ele>342.0</ele><time>2026-05-02T15:32:22Z</time></trkpt><trkpt lat="40.63988276931623" lon="8.705201469496375"><ele>342.0</ele><time>2026-05-02T15:32:23Z</time></trkpt><trkpt lat="40.63993907684039" lon="8.705482217772055"><ele>342.0</ele><time>2026-05-02T15:32:24Z</time></trkpt><trkpt lat="40.63999845979569" lon="8.705763840305709"><ele>342.0</ele><time>2026-05-02T15:32:25Z</time></trkpt><trkpt lat="40.64005843407031" lon="8.706050471369506"><ele>341.5</ele><time>2026-05-02T15:32:26Z</time></trkpt><trkpt lat="40.6401162751502" lon="8.7063456301524"><ele>341.0</ele><time>2026-05-02T15:32:27Z</time></trkpt><trkpt lat="40.64017000611504" lon="8.70664876101422"><ele>342.5</ele><time>2026-05-02T15:32:28Z</time></trkpt><trkpt lat="40.6402241568498" lon="8.70695683553636"><ele>344.0</ele><time>2026-05-02T15:32:29Z</time></trkpt><trkpt lat="40.64028190317013" lon="8.707265061501506"><ele>343.0</ele><time>2026-05-02T15:32:30Z</time></trkpt><trkpt lat="40.6403441913426" lon="8.707573584842963"><ele>342.0</ele><time>2026-05-02T15:32:31Z</time></trkpt><trkpt lat="40.64040994252463" lon="8.707896210954127"><ele>342.0</ele><time>2026-05-02T15:32:32Z</time></trkpt><trkpt lat="40.640473125139955" lon="8.708209291480825"><ele>342.0</ele><time>2026-05-02T15:32:33Z</time></trkpt><trkpt lat="40.640540036689586" lon="8.708539369050575"><ele>343.0</ele><time>2026-05-02T15:32:34Z</time></trkpt><trkpt lat="40.6406072051757" lon="8.708866244297102"><ele>344.0</ele><time>2026-05-02T15:32:35Z</time></trkpt><trkpt lat="40.64070043346403" lon="8.709200972850343"><ele>344.0</ele><time>2026-05-02T15:32:36Z</time></trkpt><trkpt lat="40.64079184017322" lon="8.709539249457753"><ele>344.0</ele><time>2026-05-02T15:32:37Z</time></trkpt><trkpt lat="40.64089069988244" lon="8.709867366450043"><ele>344.0</ele><time>2026-05-02T15:32:38Z</time></trkpt><trkpt lat="40.641005986785814" lon="8.710201473704359"><ele>344.0</ele><time>2026-05-02T15:32:39Z</time></trkpt><trkpt lat="40.64112805407384" lon="8.71053224460063"><ele>343.0</ele><time>2026-05-02T15:32:40Z</time></trkpt><trkpt lat="40.641258606418276" lon="8.710857083743146"><ele>342.0</ele><time>2026-05-02T15:32:41Z</time></trkpt><trkpt lat="40.6413978059101" lon="8.711176725094413"><ele>341.5</ele><time>2026-05-02T15:32:42Z</time></trkpt><trkpt lat="40.64153885841079" lon="8.71149316000686"><ele>341.0</ele><time>2026-05-02T15:32:43Z</time></trkpt><trkpt lat="40.64168666951884" lon="8.71180763289288"><ele>340.5</ele><time>2026-05-02T15:32:44Z</time></trkpt><trkpt lat="40.64183578476038" lon="8.712117282526414"><ele>340.0</ele><time>2026-05-02T15:32:45Z</time></trkpt><trkpt lat="40.64198526734254" lon="8.712426062050701"><ele>340.0</ele><time>2026-05-02T15:32:46Z</time></trkpt><trkpt lat="40.642133269913664" lon="8.712732567121796"><ele>340.0</ele><time>2026-05-02T15:32:47Z</time></trkpt><trkpt lat="40.64227956618192" lon="8.713040353115636"><ele>339.5</ele><time>2026-05-02T15:32:48Z</time></trkpt><trkpt lat="40.6424248631827" lon="8.713349935143466"><ele>339.0</ele><time>2026-05-02T15:32:49Z</time></trkpt><trkpt lat="40.642571346768406" lon="8.713657266479371"><ele>339.0</ele><time>2026-05-02T15:32:50Z</time></trkpt><trkpt lat="40.64272047480044" lon="8.713964129976082"><ele>339.0</ele><time>2026-05-02T15:32:51Z</time></trkpt><trkpt lat="40.64287041841425" lon="8.714269838797334"><ele>337.5</ele><time>2026-05-02T15:32:52Z</time></trkpt><trkpt lat="40.643018070803336" lon="8.714576179424213"><ele>336.0</ele><time>2026-05-02T15:32:53Z</time></trkpt><trkpt lat="40.643162788574955" lon="8.714882724877"><ele>336.0</ele><time>2026-05-02T15:32:54Z</time></trkpt><trkpt lat="40.64330700982059" lon="8.715188345228489"><ele>336.0</ele><time>2026-05-02T15:32:55Z</time></trkpt><trkpt lat="40.64345086584811" lon="8.715494791525211"><ele>336.0</ele><time>2026-05-02T15:32:56Z</time></trkpt><trkpt lat="40.6435925398271" lon="8.715799831965752"><ele>336.0</ele><time>2026-05-02T15:32:57Z</time></trkpt><trkpt lat="40.64373377317036" lon="8.716099070081453"><ele>333.5</ele><time>2026-05-02T15:32:58Z</time></trkpt><trkpt lat="40.64387437386414" lon="8.716396172271805"><ele>331.0</ele><time>2026-05-02T15:32:59Z</time></trkpt><trkpt lat="40.64401018732568" lon="8.716694383522169"><ele>330.5</ele><time>2026-05-02T15:33:00Z</time></trkpt><trkpt lat="40.64413870048944" lon="8.716996119258138"><ele>330.0</ele><time>2026-05-02T15:33:01Z</time></trkpt><trkpt lat="40.64426009403381" lon="8.717296291635405"><ele>330.0</ele><time>2026-05-02T15:33:02Z</time></trkpt><trkpt lat="40.64437106323108" lon="8.717577253281469"><ele>330.0</ele><time>2026-05-02T15:33:03Z</time></trkpt><trkpt lat="40.64447313838807" lon="8.717845418148235"><ele>330.0</ele><time>2026-05-02T15:33:04Z</time></trkpt><trkpt lat="40.64456897286603" lon="8.718113959808617"><ele>330.0</ele><time>2026-05-02T15:33:05Z</time></trkpt><trkpt lat="40.64465675129346" lon="8.71838582015389"><ele>330.0</ele><time>2026-05-02T15:33:06Z</time></trkpt><trkpt lat="40.64473275520385" lon="8.718647187154252"><ele>330.0</ele><time>2026-05-02T15:33:07Z</time></trkpt><trkpt lat="40.64479502921692" lon="8.71889130603026"><ele>330.0</ele><time>2026-05-02T15:33:08Z</time></trkpt><trkpt lat="40.64484699677525" lon="8.719125218125814"><ele>330.0</ele><time>2026-05-02T15:33:09Z</time></trkpt><trkpt lat="40.6448795306573" lon="8.719350344318606"><ele>330.0</ele><time>2026-05-02T15:33:10Z</time></trkpt><trkpt lat="40.644882464156176" lon="8.719568736730652"><ele>330.0</ele><time>2026-05-02T15:33:11Z</time></trkpt><trkpt lat="40.64485424427981" lon="8.71977507679033"><ele>330.0</ele><time>2026-05-02T15:33:12Z</time></trkpt><trkpt lat="40.64479548787697" lon="8.719966552521814"><ele>330.0</ele><time>2026-05-02T15:33:13Z</time></trkpt><trkpt lat="40.64471073049049" lon="8.720144852006158"><ele>330.0</ele><time>2026-05-02T15:33:14Z</time></trkpt><trkpt lat="40.64459834043574" lon="8.720298163075455"><ele>330.0</ele><time>2026-05-02T15:33:15Z</time></trkpt><trkpt lat="40.64447642964815" lon="8.720436446660383"><ele>331.0</ele><time>2026-05-02T15:33:16Z</time></trkpt><trkpt lat="40.64437709950729" lon="8.72057373648479"><ele>332.0</ele><time>2026-05-02T15:33:17Z</time></trkpt><trkpt lat="40.64424256415981" lon="8.720686194638258"><ele>333.0</ele><time>2026-05-02T15:33:18Z</time></trkpt><trkpt lat="40.64412000584294" lon="8.72082115669228"><ele>333.0</ele><time>2026-05-02T15:33:19Z</time></trkpt><trkpt lat="40.644026947086815" lon="8.720986125617538"><ele>333.0</ele><time>2026-05-02T15:33:20Z</time></trkpt><trkpt lat="40.643973548959515" lon="8.721169367511807"><ele>333.0</ele><time>2026-05-02T15:33:21Z</time></trkpt><trkpt lat="40.64396256721402" lon="8.721357823015065"><ele>333.0</ele><time>2026-05-02T15:33:22Z</time></trkpt><trkpt lat="40.64399063049923" lon="8.721541074194775"><ele>334.0</ele><time>2026-05-02T15:33:23Z</time></trkpt><trkpt lat="40.64404911695968" lon="8.721711161334909"><ele>335.0</ele><time>2026-05-02T15:33:24Z</time></trkpt><trkpt lat="40.64413600065577" lon="8.721866040604455"><ele>336.0</ele><time>2026-05-02T15:33:25Z</time></trkpt><trkpt lat="40.64424511880298" lon="8.721992367775576"><ele>337.0</ele><time>2026-05-02T15:33:26Z</time></trkpt><trkpt lat="40.644375186035255" lon="8.722080620574198"><ele>337.0</ele><time>2026-05-02T15:33:27Z</time></trkpt><trkpt lat="40.644519741373955" lon="8.722133861830018"><ele>337.0</ele><time>2026-05-02T15:33:28Z</time></trkpt><trkpt lat="40.64468002928303" lon="8.722147531634956"><ele>337.0</ele><time>2026-05-02T15:33:29Z</time></trkpt><trkpt lat="40.644845443625584" lon="8.722119875572863"><ele>337.0</ele><time>2026-05-02T15:33:30Z</time></trkpt><trkpt lat="40.64501700096104" lon="8.72206051975017"><ele>337.0</ele><time>2026-05-02T15:33:31Z</time></trkpt><trkpt lat="40.645191915757145" lon="8.721991324316043"><ele>337.0</ele><time>2026-05-02T15:33:32Z</time></trkpt><trkpt lat="40.645375438850294" lon="8.72192652778502"><ele>335.3333333333333</ele><time>2026-05-02T15:33:33Z</time></trkpt><trkpt lat="40.64557136994579" lon="8.721869631276851"><ele>333.6666666666667</ele><time>2026-05-02T15:33:34Z</time></trkpt><trkpt lat="40.645764537994005" lon="8.721812832572708"><ele>332.0</ele><time>2026-05-02T15:33:35Z</time></trkpt><trkpt lat="40.64597086428934" lon="8.721744200856175"><ele>328.0</ele><time>2026-05-02T15:33:36Z</time></trkpt><trkpt lat="40.64618682685138" lon="8.721668365500431"><ele>324.0</ele><time>2026-05-02T15:33:37Z</time></trkpt><trkpt lat="40.6464176175993" lon="8.721596312365959"><ele>324.0</ele><time>2026-05-02T15:33:38Z</time></trkpt><trkpt lat="40.6466583181565" lon="8.721523198325416"><ele>324.0</ele><time>2026-05-02T15:33:39Z</time></trkpt><trkpt lat="40.64690174063827" lon="8.721450222027359"><ele>322.0</ele><time>2026-05-02T15:33:40Z</time></trkpt><trkpt lat="40.64714733034146" lon="8.72137392811342"><ele>320.0</ele><time>2026-05-02T15:33:41Z</time></trkpt><trkpt lat="40.6473947101756" lon="8.721287884215856"><ele>320.0</ele><time>2026-05-02T15:33:42Z</time></trkpt><trkpt lat="40.64764386918534" lon="8.721190944830731"><ele>320.0</ele><time>2026-05-02T15:33:43Z</time></trkpt><trkpt lat="40.64789139312568" lon="8.721071791565274"><ele>319.5</ele><time>2026-05-02T15:33:44Z</time></trkpt><trkpt lat="40.648132079021174" lon="8.720933693448261"><ele>319.0</ele><time>2026-05-02T15:33:45Z</time></trkpt><trkpt lat="40.648374316727335" lon="8.72079341596463"><ele>319.0</ele><time>2026-05-02T15:33:46Z</time></trkpt><trkpt lat="40.648618649600536" lon="8.720654048758847"><ele>319.0</ele><time>2026-05-02T15:33:47Z</time></trkpt><trkpt lat="40.64886454888405" lon="8.72051897789312"><ele>318.5</ele><time>2026-05-02T15:33:48Z</time></trkpt><trkpt lat="40.64910934595637" lon="8.72038248464837"><ele>318.0</ele><time>2026-05-02T15:33:49Z</time></trkpt><trkpt lat="40.64935426218778" lon="8.720242669438786"><ele>317.5</ele><time>2026-05-02T15:33:50Z</time></trkpt><trkpt lat="40.64960056761443" lon="8.72010155682425"><ele>317.0</ele><time>2026-05-02T15:33:51Z</time></trkpt><trkpt lat="40.64984782090167" lon="8.719961690435834"><ele>317.0</ele><time>2026-05-02T15:33:52Z</time></trkpt><trkpt lat="40.65009590750353" lon="8.719822090624609"><ele>317.0</ele><time>2026-05-02T15:33:53Z</time></trkpt><trkpt lat="40.650343692905174" lon="8.719685618421485"><ele>318.5</ele><time>2026-05-02T15:33:54Z</time></trkpt><trkpt lat="40.65058908930076" lon="8.719548022528514"><ele>320.0</ele><time>2026-05-02T15:33:55Z</time></trkpt><trkpt lat="40.650831190151514" lon="8.71940988912182"><ele>320.0</ele><time>2026-05-02T15:33:56Z</time></trkpt><trkpt lat="40.65106838065577" lon="8.719274093352633"><ele>320.0</ele><time>2026-05-02T15:33:57Z</time></trkpt><trkpt lat="40.6512992082234" lon="8.719144663465643"><ele>319.0</ele><time>2026-05-02T15:33:58Z</time></trkpt><trkpt lat="40.65152732167464" lon="8.719020496115348"><ele>318.0</ele><time>2026-05-02T15:33:59Z</time></trkpt><trkpt lat="40.65175636439531" lon="8.71889582357214"><ele>317.5</ele><time>2026-05-02T15:34:00Z</time></trkpt><trkpt lat="40.651993455023835" lon="8.718771470546129"><ele>317.0</ele><time>2026-05-02T15:34:01Z</time></trkpt><trkpt lat="40.65223647178089" lon="8.71864342161272"><ele>317.0</ele><time>2026-05-02T15:34:02Z</time></trkpt><trkpt lat="40.65248278353236" lon="8.718514790886154"><ele>317.0</ele><time>2026-05-02T15:34:03Z</time></trkpt><trkpt lat="40.652730257678996" lon="8.718386261958733"><ele>315.0</ele><time>2026-05-02T15:34:04Z</time></trkpt><trkpt lat="40.652979626173995" lon="8.718260304009505"><ele>313.0</ele><time>2026-05-02T15:34:05Z</time></trkpt><trkpt lat="40.65322891726249" lon="8.71814045628332"><ele>313.0</ele><time>2026-05-02T15:34:06Z</time></trkpt><trkpt lat="40.653464875282616" lon="8.718036399450643"><ele>313.0</ele><time>2026-05-02T15:34:07Z</time></trkpt><trkpt lat="40.653689195178366" lon="8.717947753311861"><ele>313.5</ele><time>2026-05-02T15:34:08Z</time></trkpt><trkpt lat="40.6539114063606" lon="8.717869920160089"><ele>314.0</ele><time>2026-05-02T15:34:09Z</time></trkpt><trkpt lat="40.6541273440527" lon="8.71779968181756"><ele>312.6666666666667</ele><time>2026-05-02T15:34:10Z</time></trkpt><trkpt lat="40.65432936164219" lon="8.717727932360393"><ele>311.3333333333333</ele><time>2026-05-02T15:34:11Z</time></trkpt><trkpt lat="40.65452129574261" lon="8.717655278190072"><ele>310.0</ele><time>2026-05-02T15:34:12Z</time></trkpt><trkpt lat="40.6547059766957" lon="8.717587141964408"><ele>309.66666666666663</ele><time>2026-05-02T15:34:13Z</time></trkpt><trkpt lat="40.654872429930116" lon="8.717467172497022"><ele>309.3333333333333</ele><time>2026-05-02T15:34:14Z</time></trkpt><trkpt lat="40.655073494838675" lon="8.717504790066139"><ele>309.0</ele><time>2026-05-02T15:34:15Z</time></trkpt><trkpt lat="40.65526651986156" lon="8.717519645552"><ele>309.0</ele><time>2026-05-02T15:34:16Z</time></trkpt><trkpt lat="40.65545760954769" lon="8.717563885833481"><ele>309.0</ele><time>2026-05-02T15:34:17Z</time></trkpt><trkpt lat="40.65564180494638" lon="8.717627122896571"><ele>309.0</ele><time>2026-05-02T15:34:18Z</time></trkpt><trkpt lat="40.655819557120026" lon="8.717709251826"><ele>310.3333333333333</ele><time>2026-05-02T15:34:19Z</time></trkpt><trkpt lat="40.655991375607236" lon="8.717820269035121"><ele>311.66666666666663</ele><time>2026-05-02T15:34:20Z</time></trkpt><trkpt lat="40.65616344904655" lon="8.71787915856669"><ele>313.0</ele><time>2026-05-02T15:34:21Z</time></trkpt><trkpt lat="40.65628394452359" lon="8.71809401417037"><ele>313.0</ele><time>2026-05-02T15:34:22Z</time></trkpt><trkpt lat="40.65640102474604" lon="8.718243141366518"><ele>313.0</ele><time>2026-05-02T15:34:23Z</time></trkpt><trkpt lat="40.656514149003634" lon="8.718389169818474"><ele>313.0</ele><time>2026-05-02T15:34:24Z</time></trkpt><trkpt lat="40.65662943736" lon="8.7185574839818"><ele>313.0</ele><time>2026-05-02T15:34:25Z</time></trkpt><trkpt lat="40.65674632479803" lon="8.71872911177371"><ele>313.0</ele><time>2026-05-02T15:34:26Z</time></trkpt><trkpt lat="40.65686083710128" lon="8.71888710531093"><ele>313.0</ele><time>2026-05-02T15:34:27Z</time></trkpt><trkpt lat="40.656965967209054" lon="8.71902839376706"><ele>313.66666666666663</ele><time>2026-05-02T15:34:28Z</time></trkpt><trkpt lat="40.65707476083999" lon="8.719177609316768"><ele>314.3333333333333</ele><time>2026-05-02T15:34:29Z</time></trkpt><trkpt lat="40.657184750269344" lon="8.719339983116154"><ele>315.0</ele><time>2026-05-02T15:34:30Z</time></trkpt><trkpt lat="40.65728929239605" lon="8.719518508755748"><ele>315.0</ele><time>2026-05-02T15:34:31Z</time></trkpt><trkpt lat="40.657384930583625" lon="8.71971028892731"><ele>315.0</ele><time>2026-05-02T15:34:32Z</time></trkpt><trkpt lat="40.65747149838802" lon="8.719910095588736"><ele>315.0</ele><time>2026-05-02T15:34:33Z</time></trkpt><trkpt lat="40.657551556312725" lon="8.720139760008854"><ele>315.3333333333333</ele><time>2026-05-02T15:34:34Z</time></trkpt><trkpt lat="40.657617817729935" lon="8.720376223520148"><ele>315.66666666666663</ele><time>2026-05-02T15:34:35Z</time></trkpt><trkpt lat="40.65766884855312" lon="8.720630640685469"><ele>316.0</ele><time>2026-05-02T15:34:36Z</time></trkpt><trkpt lat="40.65771744559764" lon="8.720893151611193"><ele>316.66666666666663</ele><time>2026-05-02T15:34:37Z</time></trkpt><trkpt lat="40.657767439985015" lon="8.721160644074557"><ele>317.3333333333333</ele><time>2026-05-02T15:34:38Z</time></trkpt><trkpt lat="40.65781592258267" lon="8.721432498903265"><ele>318.0</ele><time>2026-05-02T15:34:39Z</time></trkpt><trkpt lat="40.65786742598184" lon="8.721710499453602"><ele>319.3333333333333</ele><time>2026-05-02T15:34:40Z</time></trkpt><trkpt lat="40.65792167780745" lon="8.72199455586121"><ele>320.66666666666663</ele><time>2026-05-02T15:34:41Z</time></trkpt><trkpt lat="40.6579687443446" lon="8.722277234008727"><ele>322.0</ele><time>2026-05-02T15:34:42Z</time></trkpt><trkpt lat="40.65800283516805" lon="8.722565163968348"><ele>322.0</ele><time>2026-05-02T15:34:43Z</time></trkpt><trkpt lat="40.658029668903865" lon="8.722856653282971"><ele>322.0</ele><time>2026-05-02T15:34:44Z</time></trkpt><trkpt lat="40.6580550256789" lon="8.723157297801071"><ele>322.0</ele><time>2026-05-02T15:34:45Z</time></trkpt><trkpt lat="40.658075759246124" lon="8.723464303709305"><ele>322.0</ele><time>2026-05-02T15:34:46Z</time></trkpt><trkpt lat="40.65809731122112" lon="8.723777349259437"><ele>322.5</ele><time>2026-05-02T15:34:47Z</time></trkpt><trkpt lat="40.65812065454846" lon="8.724092477890377"><ele>323.0</ele><time>2026-05-02T15:34:48Z</time></trkpt><trkpt lat="40.658144123742716" lon="8.724408227825537"><ele>323.5</ele><time>2026-05-02T15:34:49Z</time></trkpt><trkpt lat="40.658168527712284" lon="8.72472590988564"><ele>324.0</ele><time>2026-05-02T15:34:50Z</time></trkpt><trkpt lat="40.65819288306666" lon="8.725047306478974"><ele>324.5</ele><time>2026-05-02T15:34:51Z</time></trkpt><trkpt lat="40.65821838109957" lon="8.725371436469274"><ele>325.0</ele><time>2026-05-02T15:34:52Z</time></trkpt><trkpt lat="40.65824361201747" lon="8.725697095576232"><ele>325.0</ele><time>2026-05-02T15:34:53Z</time></trkpt><trkpt lat="40.658268447042204" lon="8.72602331847488"><ele>325.0</ele><time>2026-05-02T15:34:54Z</time></trkpt><trkpt lat="40.65829332987912" lon="8.726351522112003"><ele>324.5</ele><time>2026-05-02T15:34:55Z</time></trkpt><trkpt lat="40.658316721132415" lon="8.726678740941868"><ele>324.0</ele><time>2026-05-02T15:34:56Z</time></trkpt><trkpt lat="40.658340484484526" lon="8.727001005153246"><ele>325.0</ele><time>2026-05-02T15:34:57Z</time></trkpt><trkpt lat="40.658361751294784" lon="8.727321272400628"><ele>326.0</ele><time>2026-05-02T15:34:58Z</time></trkpt><trkpt lat="40.65838532977452" lon="8.727645398982114"><ele>328.0</ele><time>2026-05-02T15:34:59Z</time></trkpt><trkpt lat="40.65841081467002" lon="8.727971821933837"><ele>330.0</ele><time>2026-05-02T15:35:00Z</time></trkpt><trkpt lat="40.658436522482255" lon="8.72830143277475"><ele>330.5</ele><time>2026-05-02T15:35:01Z</time></trkpt><trkpt lat="40.658461088543426" lon="8.72863154732738"><ele>331.0</ele><time>2026-05-02T15:35:02Z</time></trkpt><trkpt lat="40.658485427621834" lon="8.728964144038448"><ele>331.0</ele><time>2026-05-02T15:35:03Z</time></trkpt><trkpt lat="40.658508793567115" lon="8.729298176963756"><ele>331.0</ele><time>2026-05-02T15:35:04Z</time></trkpt><trkpt lat="40.65853227024916" lon="8.729635064712623"><ele>332.5</ele><time>2026-05-02T15:35:05Z</time></trkpt><trkpt lat="40.658557783703024" lon="8.729971398185938"><ele>334.0</ele><time>2026-05-02T15:35:06Z</time></trkpt><trkpt lat="40.65858495762505" lon="8.730310830874306"><ele>334.5</ele><time>2026-05-02T15:35:07Z</time></trkpt><trkpt lat="40.65861184797455" lon="8.730650880595316"><ele>335.0</ele><time>2026-05-02T15:35:08Z</time></trkpt><trkpt lat="40.65863937417534" lon="8.730991099738619"><ele>336.5</ele><time>2026-05-02T15:35:09Z</time></trkpt><trkpt lat="40.65866318605061" lon="8.731333990579111"><ele>338.0</ele><time>2026-05-02T15:35:10Z</time></trkpt><trkpt lat="40.65868740713014" lon="8.731676743889434"><ele>339.0</ele><time>2026-05-02T15:35:11Z</time></trkpt><trkpt lat="40.658711811533806" lon="8.732021409160627"><ele>340.0</ele><time>2026-05-02T15:35:12Z</time></trkpt><trkpt lat="40.658737165028775" lon="8.732367933477668"><ele>340.0</ele><time>2026-05-02T15:35:13Z</time></trkpt><trkpt lat="40.65876497465633" lon="8.73271512469741"><ele>340.0</ele><time>2026-05-02T15:35:14Z</time></trkpt><trkpt lat="40.65879183603087" lon="8.733061160580691"><ele>342.0</ele><time>2026-05-02T15:35:15Z</time></trkpt><trkpt lat="40.658816936396825" lon="8.733407375536938"><ele>344.0</ele><time>2026-05-02T15:35:16Z</time></trkpt><trkpt lat="40.65884270176392" lon="8.733750172225571"><ele>344.5</ele><time>2026-05-02T15:35:17Z</time></trkpt><trkpt lat="40.65886593950956" lon="8.734092138252898"><ele>345.0</ele><time>2026-05-02T15:35:18Z</time></trkpt><trkpt lat="40.65888419505663" lon="8.73443553912425"><ele>346.0</ele><time>2026-05-02T15:35:19Z</time></trkpt><trkpt lat="40.65889533414639" lon="8.734779247083889"><ele>347.0</ele><time>2026-05-02T15:35:20Z</time></trkpt><trkpt lat="40.65889836682539" lon="8.735126172763835"><ele>347.5</ele><time>2026-05-02T15:35:21Z</time></trkpt><trkpt lat="40.658893209369275" lon="8.735471527820753"><ele>348.0</ele><time>2026-05-02T15:35:22Z</time></trkpt><trkpt lat="40.65887218103549" lon="8.735816184002713"><ele>349.5</ele><time>2026-05-02T15:35:23Z</time></trkpt><trkpt lat="40.658851018995335" lon="8.736161472186817"><ele>351.0</ele><time>2026-05-02T15:35:24Z</time></trkpt><trkpt lat="40.65882802685036" lon="8.73650805406469"><ele>351.0</ele><time>2026-05-02T15:35:25Z</time></trkpt><trkpt lat="40.65880026676492" lon="8.736855674927636"><ele>351.0</ele><time>2026-05-02T15:35:26Z</time></trkpt><trkpt lat="40.65877264972936" lon="8.737204732139437"><ele>352.5</ele><time>2026-05-02T15:35:27Z</time></trkpt><trkpt lat="40.65874793908273" lon="8.737554345138484"><ele>354.0</ele><time>2026-05-02T15:35:28Z</time></trkpt><trkpt lat="40.658725930936015" lon="8.73790531902958"><ele>354.5</ele><time>2026-05-02T15:35:29Z</time></trkpt><trkpt lat="40.658686424082916" lon="8.738255916758796"><ele>355.0</ele><time>2026-05-02T15:35:30Z</time></trkpt><trkpt lat="40.658660614335496" lon="8.738607525784245"><ele>357.5</ele><time>2026-05-02T15:35:31Z</time></trkpt><trkpt lat="40.65865016248271" lon="8.738962485989953"><ele>360.0</ele><time>2026-05-02T15:35:32Z</time></trkpt><trkpt lat="40.65862199548544" lon="8.739315390196289"><ele>363.0</ele><time>2026-05-02T15:35:33Z</time></trkpt><trkpt lat="40.658595645945475" lon="8.73966912458757"><ele>366.0</ele><time>2026-05-02T15:35:34Z</time></trkpt><trkpt lat="40.65857107761963" lon="8.740023709466827"><ele>368.0</ele><time>2026-05-02T15:35:35Z</time></trkpt><trkpt lat="40.65854949334048" lon="8.740376183751696"><ele>370.0</ele><time>2026-05-02T15:35:36Z</time></trkpt><trkpt lat="40.658513213945696" lon="8.740724468410532"><ele>371.5</ele><time>2026-05-02T15:35:37Z</time></trkpt><trkpt lat="40.65849505953659" lon="8.741074517678372"><ele>373.0</ele><time>2026-05-02T15:35:38Z</time></trkpt><trkpt lat="40.65849493319933" lon="8.741424902750015"><ele>373.0</ele><time>2026-05-02T15:35:39Z</time></trkpt><trkpt lat="40.65847934413079" lon="8.741772986182676"><ele>373.0</ele><time>2026-05-02T15:35:40Z</time></trkpt><trkpt lat="40.658466604230696" lon="8.742117503858779"><ele>372.5</ele><time>2026-05-02T15:35:41Z</time></trkpt><trkpt lat="40.658453524844965" lon="8.74246223444575"><ele>372.0</ele><time>2026-05-02T15:35:42Z</time></trkpt><trkpt lat="40.658444027424" lon="8.74280789095502"><ele>373.0</ele><time>2026-05-02T15:35:43Z</time></trkpt><trkpt lat="40.65843464686794" lon="8.743155116510366"><ele>374.0</ele><time>2026-05-02T15:35:44Z</time></trkpt><trkpt lat="40.65842498099431" lon="8.743504922206604"><ele>375.0</ele><time>2026-05-02T15:35:45Z</time></trkpt><trkpt lat="40.658415503499235" lon="8.7438531266013"><ele>376.0</ele><time>2026-05-02T15:35:46Z</time></trkpt><trkpt lat="40.6584108105671" lon="8.74419769554022"><ele>376.0</ele><time>2026-05-02T15:35:47Z</time></trkpt><trkpt lat="40.65841119104381" lon="8.744542646085433"><ele>376.0</ele><time>2026-05-02T15:35:48Z</time></trkpt><trkpt lat="40.658423731378534" lon="8.744887058905766"><ele>375.0</ele><time>2026-05-02T15:35:49Z</time></trkpt><trkpt lat="40.65844977745956" lon="8.745234955852352"><ele>374.0</ele><time>2026-05-02T15:35:50Z</time></trkpt><trkpt lat="40.65848933205881" lon="8.74558110353003"><ele>374.0</ele><time>2026-05-02T15:35:51Z</time></trkpt><trkpt lat="40.658540855236794" lon="8.74592551088654"><ele>374.0</ele><time>2026-05-02T15:35:52Z</time></trkpt><trkpt lat="40.65860120799998" lon="8.746268670171627"><ele>376.0</ele><time>2026-05-02T15:35:53Z</time></trkpt><trkpt lat="40.6586772244475" lon="8.746609568695678"><ele>378.0</ele><time>2026-05-02T15:35:54Z</time></trkpt><trkpt lat="40.65876062827563" lon="8.746940701067157"><ele>372.0</ele><time>2026-05-02T15:35:55Z</time></trkpt><trkpt lat="40.65885174782841" lon="8.747276464390232"><ele>366.0</ele><time>2026-05-02T15:35:56Z</time></trkpt><trkpt lat="40.65896367871369" lon="8.747606498198273"><ele>360.5</ele><time>2026-05-02T15:35:57Z</time></trkpt><trkpt lat="40.65907828051576" lon="8.7479358932891"><ele>355.0</ele><time>2026-05-02T15:35:58Z</time></trkpt><trkpt lat="40.659208885386846" lon="8.748250220982483"><ele>352.0</ele><time>2026-05-02T15:35:59Z</time></trkpt><trkpt lat="40.659344702520436" lon="8.748569548966227"><ele>349.0</ele><time>2026-05-02T15:36:00Z</time></trkpt><trkpt lat="40.65948709277916" lon="8.748885808090787"><ele>348.0</ele><time>2026-05-02T15:36:01Z</time></trkpt><trkpt lat="40.65963167348943" lon="8.749204564382618"><ele>347.0</ele><time>2026-05-02T15:36:02Z</time></trkpt><trkpt lat="40.65977792808433" lon="8.749522923593473"><ele>344.0</ele><time>2026-05-02T15:36:03Z</time></trkpt><trkpt lat="40.659924419194326" lon="8.749840832972428"><ele>341.0</ele><time>2026-05-02T15:36:04Z</time></trkpt><trkpt lat="40.66007194574521" lon="8.75015955489549"><ele>340.5</ele><time>2026-05-02T15:36:05Z</time></trkpt><trkpt lat="40.66021809486605" lon="8.750482545437356"><ele>340.0</ele><time>2026-05-02T15:36:06Z</time></trkpt><trkpt lat="40.66036577586838" lon="8.75080379610927"><ele>341.5</ele><time>2026-05-02T15:36:07Z</time></trkpt><trkpt lat="40.66051018895151" lon="8.75112835964329"><ele>343.0</ele><time>2026-05-02T15:36:08Z</time></trkpt><trkpt lat="40.660652224118245" lon="8.751455396901576"><ele>343.0</ele><time>2026-05-02T15:36:09Z</time></trkpt><trkpt lat="40.66079202642853" lon="8.751782036038907"><ele>343.0</ele><time>2026-05-02T15:36:10Z</time></trkpt><trkpt lat="40.66092926597477" lon="8.752110816079847"><ele>342.0</ele><time>2026-05-02T15:36:11Z</time></trkpt><trkpt lat="40.66109311345795" lon="8.752368674762865"><ele>341.0</ele><time>2026-05-02T15:36:12Z</time></trkpt><trkpt lat="40.66123327757646" lon="8.752678375774412"><ele>345.0</ele><time>2026-05-02T15:36:13Z</time></trkpt><trkpt lat="40.66137172427922" lon="8.752982020263174"><ele>349.0</ele><time>2026-05-02T15:36:14Z</time></trkpt><trkpt lat="40.66151613610267" lon="8.753285691262272"><ele>348.5</ele><time>2026-05-02T15:36:15Z</time></trkpt><trkpt lat="40.66165751366139" lon="8.753586464095235"><ele>348.0</ele><time>2026-05-02T15:36:16Z</time></trkpt><trkpt lat="40.66180042909821" lon="8.75388728006524"><ele>348.0</ele><time>2026-05-02T15:36:17Z</time></trkpt><trkpt lat="40.661941943647534" lon="8.754192004000561"><ele>348.0</ele><time>2026-05-02T15:36:18Z</time></trkpt><trkpt lat="40.66208173414804" lon="8.754497469600635"><ele>350.0</ele><time>2026-05-02T15:36:19Z</time></trkpt><trkpt lat="40.66221946450643" lon="8.754805872260754"><ele>352.0</ele><time>2026-05-02T15:36:20Z</time></trkpt><trkpt lat="40.662360926910594" lon="8.75511520407488"><ele>354.0</ele><time>2026-05-02T15:36:21Z</time></trkpt><trkpt lat="40.66250309607083" lon="8.755420166905573"><ele>356.0</ele><time>2026-05-02T15:36:22Z</time></trkpt><trkpt lat="40.66264921104582" lon="8.755727231618655"><ele>360.5</ele><time>2026-05-02T15:36:23Z</time></trkpt><trkpt lat="40.66279474417758" lon="8.756037857426739"><ele>365.0</ele><time>2026-05-02T15:36:24Z</time></trkpt><trkpt lat="40.662939671983615" lon="8.756349539440317"><ele>365.0</ele><time>2026-05-02T15:36:25Z</time></trkpt><trkpt lat="40.66308404927285" lon="8.756662103139776"><ele>365.0</ele><time>2026-05-02T15:36:26Z</time></trkpt><trkpt lat="40.66322866808291" lon="8.756976449054653"><ele>364.5</ele><time>2026-05-02T15:36:27Z</time></trkpt><trkpt lat="40.6633744355528" lon="8.75728689113932"><ele>364.0</ele><time>2026-05-02T15:36:28Z</time></trkpt><trkpt lat="40.663521460171346" lon="8.757596275785007"><ele>368.5</ele><time>2026-05-02T15:36:29Z</time></trkpt><trkpt lat="40.66366705801469" lon="8.757904562450285"><ele>373.0</ele><time>2026-05-02T15:36:30Z</time></trkpt><trkpt lat="40.66380931680133" lon="8.758212222900983"><ele>373.0</ele><time>2026-05-02T15:36:31Z</time></trkpt><trkpt lat="40.66395154586487" lon="8.758518118770462"><ele>373.0</ele><time>2026-05-02T15:36:32Z</time></trkpt><trkpt lat="40.664091136531425" lon="8.758823830888826"><ele>368.5</ele><time>2026-05-02T15:36:33Z</time></trkpt><trkpt lat="40.664222497515944" lon="8.75913569421798"><ele>364.0</ele><time>2026-05-02T15:36:34Z</time></trkpt><trkpt lat="40.66436043110488" lon="8.759442672384202"><ele>363.5</ele><time>2026-05-02T15:36:35Z</time></trkpt><trkpt lat="40.66450619012536" lon="8.759733213205951"><ele>363.0</ele><time>2026-05-02T15:36:36Z</time></trkpt><trkpt lat="40.66464876332706" lon="8.760035186124362"><ele>364.0</ele><time>2026-05-02T15:36:37Z</time></trkpt><trkpt lat="40.6647928843698" lon="8.760331505049086"><ele>365.0</ele><time>2026-05-02T15:36:38Z</time></trkpt><trkpt lat="40.66494175391467" lon="8.760620541992035"><ele>365.0</ele><time>2026-05-02T15:36:39Z</time></trkpt><trkpt lat="40.66509961651356" lon="8.760906802058551"><ele>365.0</ele><time>2026-05-02T15:36:40Z</time></trkpt><trkpt lat="40.66526391769717" lon="8.76118757904948"><ele>362.0</ele><time>2026-05-02T15:36:41Z</time></trkpt><trkpt lat="40.66543591759907" lon="8.76146013403734"><ele>359.0</ele><time>2026-05-02T15:36:42Z</time></trkpt><trkpt lat="40.66561458591532" lon="8.761728724398838"><ele>358.0</ele><time>2026-05-02T15:36:43Z</time></trkpt><trkpt lat="40.665799793815616" lon="8.761989833055996"><ele>357.0</ele><time>2026-05-02T15:36:44Z</time></trkpt><trkpt lat="40.66599255488995" lon="8.762244458192525"><ele>355.0</ele><time>2026-05-02T15:36:45Z</time></trkpt><trkpt lat="40.6661933360149" lon="8.76249031265359"><ele>353.0</ele><time>2026-05-02T15:36:46Z</time></trkpt><trkpt lat="40.66640351909959" lon="8.762727256127336"><ele>353.0</ele><time>2026-05-02T15:36:47Z</time></trkpt><trkpt lat="40.666618863235925" lon="8.762954047559267"><ele>353.0</ele><time>2026-05-02T15:36:48Z</time></trkpt><trkpt lat="40.66683762195078" lon="8.763175541786195"><ele>353.5</ele><time>2026-05-02T15:36:49Z</time></trkpt><trkpt lat="40.66706600858089" lon="8.763377619362593"><ele>354.0</ele><time>2026-05-02T15:36:50Z</time></trkpt><trkpt lat="40.66729781484266" lon="8.763576897840888"><ele>354.0</ele><time>2026-05-02T15:36:51Z</time></trkpt><trkpt lat="40.667528329647595" lon="8.763775571521338"><ele>354.0</ele><time>2026-05-02T15:36:52Z</time></trkpt><trkpt lat="40.66775955297839" lon="8.763975062987452"><ele>352.5</ele><time>2026-05-02T15:36:53Z</time></trkpt><trkpt lat="40.66799079677877" lon="8.76417426791496"><ele>351.0</ele><time>2026-05-02T15:36:54Z</time></trkpt><trkpt lat="40.66822113844227" lon="8.764370095930122"><ele>351.0</ele><time>2026-05-02T15:36:55Z</time></trkpt><trkpt lat="40.66845198672291" lon="8.764564382739136"><ele>351.0</ele><time>2026-05-02T15:36:56Z</time></trkpt><trkpt lat="40.66868211293563" lon="8.764759733116547"><ele>353.0</ele><time>2026-05-02T15:36:57Z</time></trkpt><trkpt lat="40.668911245722235" lon="8.76495399172334"><ele>355.0</ele><time>2026-05-02T15:36:58Z</time></trkpt><trkpt lat="40.66913896520317" lon="8.765146348001311"><ele>356.0</ele><time>2026-05-02T15:36:59Z</time></trkpt><trkpt lat="40.66936435075748" lon="8.765339108920989"><ele>357.0</ele><time>2026-05-02T15:37:00Z</time></trkpt><trkpt lat="40.669593579428465" lon="8.765530865725268"><ele>357.0</ele><time>2026-05-02T15:37:01Z</time></trkpt><trkpt lat="40.66982066396048" lon="8.76572186263447"><ele>357.0</ele><time>2026-05-02T15:37:02Z</time></trkpt><trkpt lat="40.67004858567" lon="8.765912259903535"><ele>356.0</ele><time>2026-05-02T15:37:03Z</time></trkpt><trkpt lat="40.670280329012655" lon="8.766104171131927"><ele>355.0</ele><time>2026-05-02T15:37:04Z</time></trkpt><trkpt lat="40.67051174290084" lon="8.76629792459527"><ele>355.0</ele><time>2026-05-02T15:37:05Z</time></trkpt><trkpt lat="40.67074076021195" lon="8.766490041193997"><ele>355.0</ele><time>2026-05-02T15:37:06Z</time></trkpt><trkpt lat="40.67097688563843" lon="8.766689028286857"><ele>352.5</ele><time>2026-05-02T15:37:07Z</time></trkpt><trkpt lat="40.67121107413625" lon="8.766889739111242"><ele>350.0</ele><time>2026-05-02T15:37:08Z</time></trkpt><trkpt lat="40.67144383851497" lon="8.767084892134129"><ele>350.0</ele><time>2026-05-02T15:37:09Z</time></trkpt><trkpt lat="40.671676819189244" lon="8.767280616411469"><ele>350.0</ele><time>2026-05-02T15:37:10Z</time></trkpt><trkpt lat="40.671909303478344" lon="8.767475175802991"><ele>350.0</ele><time>2026-05-02T15:37:11Z</time></trkpt><trkpt lat="40.67214089498962" lon="8.767669981971265"><ele>350.0</ele><time>2026-05-02T15:37:12Z</time></trkpt><trkpt lat="40.67237240074594" lon="8.767866899842266"><ele>351.0</ele><time>2026-05-02T15:37:13Z</time></trkpt><trkpt lat="40.67260183202864" lon="8.768060989098627"><ele>352.0</ele><time>2026-05-02T15:37:14Z</time></trkpt><trkpt lat="40.672829841493375" lon="8.768249938482638"><ele>356.0</ele><time>2026-05-02T15:37:15Z</time></trkpt><trkpt lat="40.673054031635864" lon="8.768439322314224"><ele>360.0</ele><time>2026-05-02T15:37:16Z</time></trkpt><trkpt lat="40.67327499127506" lon="8.768628767672785"><ele>360.5</ele><time>2026-05-02T15:37:17Z</time></trkpt><trkpt lat="40.67349592120432" lon="8.768814964553062"><ele>361.0</ele><time>2026-05-02T15:37:18Z</time></trkpt><trkpt lat="40.673715479519075" lon="8.76899950414316"><ele>362.5</ele><time>2026-05-02T15:37:19Z</time></trkpt><trkpt lat="40.673934344164955" lon="8.76918321903398"><ele>364.0</ele><time>2026-05-02T15:37:20Z</time></trkpt><trkpt lat="40.67415302176284" lon="8.769367603850851"><ele>364.0</ele><time>2026-05-02T15:37:21Z</time></trkpt><trkpt lat="40.674374782911464" lon="8.769554702848477"><ele>364.0</ele><time>2026-05-02T15:37:22Z</time></trkpt><trkpt lat="40.674590892954065" lon="8.769741081919006"><ele>366.5</ele><time>2026-05-02T15:37:23Z</time></trkpt><trkpt lat="40.67481093179249" lon="8.76992769806612"><ele>369.0</ele><time>2026-05-02T15:37:24Z</time></trkpt><trkpt lat="40.67503079486676" lon="8.770112129675274"><ele>368.5</ele><time>2026-05-02T15:37:25Z</time></trkpt><trkpt lat="40.67525399844945" lon="8.770301571426389"><ele>368.0</ele><time>2026-05-02T15:37:26Z</time></trkpt><trkpt lat="40.67547579606113" lon="8.770489023190587"><ele>371.5</ele><time>2026-05-02T15:37:27Z</time></trkpt><trkpt lat="40.67569677755346" lon="8.770672006305984"><ele>375.0</ele><time>2026-05-02T15:37:28Z</time></trkpt><trkpt lat="40.67592076569507" lon="8.770856109551122"><ele>373.5</ele><time>2026-05-02T15:37:29Z</time></trkpt><trkpt lat="40.676142504255104" lon="8.771042593580395"><ele>372.0</ele><time>2026-05-02T15:37:30Z</time></trkpt><trkpt lat="40.67636382250754" lon="8.771227505415458"><ele>372.0</ele><time>2026-05-02T15:37:31Z</time></trkpt><trkpt lat="40.67658448331321" lon="8.771415404140047"><ele>372.0</ele><time>2026-05-02T15:37:32Z</time></trkpt><trkpt lat="40.67680616200642" lon="8.771605585572246"><ele>371.0</ele><time>2026-05-02T15:37:33Z</time></trkpt><trkpt lat="40.67702981198171" lon="8.771794865810298"><ele>370.0</ele><time>2026-05-02T15:37:34Z</time></trkpt><trkpt lat="40.677252085743696" lon="8.771979384780039"><ele>370.0</ele><time>2026-05-02T15:37:35Z</time></trkpt><trkpt lat="40.677474865556675" lon="8.772165270126234"><ele>370.0</ele><time>2026-05-02T15:37:36Z</time></trkpt><trkpt lat="40.677694972242165" lon="8.772352600149365"><ele>373.0</ele><time>2026-05-02T15:37:37Z</time></trkpt><trkpt lat="40.677914256130975" lon="8.772543381293392"><ele>376.0</ele><time>2026-05-02T15:37:38Z</time></trkpt><trkpt lat="40.67813285989257" lon="8.77273779607483"><ele>377.0</ele><time>2026-05-02T15:37:39Z</time></trkpt><trkpt lat="40.678346555867996" lon="8.772940139886837"><ele>378.0</ele><time>2026-05-02T15:37:40Z</time></trkpt><trkpt lat="40.67856102502592" lon="8.773152661387838"><ele>379.0</ele><time>2026-05-02T15:37:41Z</time></trkpt><trkpt lat="40.67876218239458" lon="8.773379522796185"><ele>380.0</ele><time>2026-05-02T15:37:42Z</time></trkpt><trkpt lat="40.678958337597685" lon="8.773621535416597"><ele>383.0</ele><time>2026-05-02T15:37:43Z</time></trkpt><trkpt lat="40.67914561831964" lon="8.77387427054445"><ele>386.0</ele><time>2026-05-02T15:37:44Z</time></trkpt><trkpt lat="40.679322901765225" lon="8.774144321287459"><ele>387.5</ele><time>2026-05-02T15:37:45Z</time></trkpt><trkpt lat="40.679487515832385" lon="8.774425820548304"><ele>389.0</ele><time>2026-05-02T15:37:46Z</time></trkpt><trkpt lat="40.67964114971349" lon="8.774716266321906"><ele>389.0</ele><time>2026-05-02T15:37:47Z</time></trkpt><trkpt lat="40.679787453846345" lon="8.775017470540604"><ele>389.0</ele><time>2026-05-02T15:37:48Z</time></trkpt><trkpt lat="40.67992174480271" lon="8.775328400919367"><ele>391.5</ele><time>2026-05-02T15:37:49Z</time></trkpt><trkpt lat="40.680043514185584" lon="8.77565111836393"><ele>394.0</ele><time>2026-05-02T15:37:50Z</time></trkpt><trkpt lat="40.680151398927244" lon="8.775986116137247"><ele>398.0</ele><time>2026-05-02T15:37:51Z</time></trkpt><trkpt lat="40.68032855403546" lon="8.77667547241464"><ele>398.5</ele><time>2026-05-02T15:37:53Z</time></trkpt><trkpt lat="40.68040068647803" lon="8.777028236183137"><ele>399.0</ele><time>2026-05-02T15:37:54Z</time></trkpt><trkpt lat="40.680457155895546" lon="8.777387996066288"><ele>398.0</ele><time>2026-05-02T15:37:55Z</time></trkpt><trkpt lat="40.68049826457769" lon="8.777749990244462"><ele>397.0</ele><time>2026-05-02T15:37:56Z</time></trkpt><trkpt lat="40.680524455637105" lon="8.778112445669674"><ele>397.0</ele><time>2026-05-02T15:37:57Z</time></trkpt><trkpt lat="40.6805388956113" lon="8.77847509028261"><ele>397.0</ele><time>2026-05-02T15:37:58Z</time></trkpt><trkpt lat="40.68054349339155" lon="8.778840094189599"><ele>395.5</ele><time>2026-05-02T15:37:59Z</time></trkpt><trkpt lat="40.68054600317198" lon="8.779208890069016"><ele>394.0</ele><time>2026-05-02T15:38:00Z</time></trkpt><trkpt lat="40.68055368535295" lon="8.77957862082143"><ele>394.0</ele><time>2026-05-02T15:38:01Z</time></trkpt><trkpt lat="40.680571577346726" lon="8.779949120360051"><ele>394.0</ele><time>2026-05-02T15:38:02Z</time></trkpt><trkpt lat="40.680596900898045" lon="8.780323671884217"><ele>394.5</ele><time>2026-05-02T15:38:03Z</time></trkpt><trkpt lat="40.68062978801865" lon="8.780693897241822"><ele>395.0</ele><time>2026-05-02T15:38:04Z</time></trkpt><trkpt lat="40.68067063806847" lon="8.781056618394192"><ele>392.0</ele><time>2026-05-02T15:38:05Z</time></trkpt><trkpt lat="40.680726143904344" lon="8.781417764983521"><ele>389.0</ele><time>2026-05-02T15:38:06Z</time></trkpt><trkpt lat="40.680793683535114" lon="8.781772116779596"><ele>385.5</ele><time>2026-05-02T15:38:07Z</time></trkpt><trkpt lat="40.68087185754359" lon="8.782124230757084"><ele>382.0</ele><time>2026-05-02T15:38:08Z</time></trkpt><trkpt lat="40.68096021979957" lon="8.782469279942424"><ele>381.0</ele><time>2026-05-02T15:38:09Z</time></trkpt><trkpt lat="40.68105780335475" lon="8.782811367572267"><ele>380.0</ele><time>2026-05-02T15:38:10Z</time></trkpt><trkpt lat="40.68115970608732" lon="8.783149213900854"><ele>380.0</ele><time>2026-05-02T15:38:11Z</time></trkpt><trkpt lat="40.68127325423049" lon="8.783475204212381"><ele>380.0</ele><time>2026-05-02T15:38:12Z</time></trkpt><trkpt lat="40.681397566869606" lon="8.783800755623862"><ele>380.0</ele><time>2026-05-02T15:38:13Z</time></trkpt><trkpt lat="40.6815358049319" lon="8.784121628804082"><ele>380.0</ele><time>2026-05-02T15:38:14Z</time></trkpt><trkpt lat="40.68168229551379" lon="8.784434395210692"><ele>378.5</ele><time>2026-05-02T15:38:15Z</time></trkpt><trkpt lat="40.681838727703095" lon="8.784743732954498"><ele>377.0</ele><time>2026-05-02T15:38:16Z</time></trkpt><trkpt lat="40.68200321918074" lon="8.785044175424888"><ele>378.0</ele><time>2026-05-02T15:38:17Z</time></trkpt><trkpt lat="40.6821742614543" lon="8.785340481428149"><ele>379.0</ele><time>2026-05-02T15:38:18Z</time></trkpt><trkpt lat="40.682356594997636" lon="8.785620074093893"><ele>379.0</ele><time>2026-05-02T15:38:19Z</time></trkpt><trkpt lat="40.68254883746548" lon="8.785886265990044"><ele>379.0</ele><time>2026-05-02T15:38:20Z</time></trkpt><trkpt lat="40.68274697495545" lon="8.786144880377659"><ele>379.5</ele><time>2026-05-02T15:38:21Z</time></trkpt><trkpt lat="40.68295060292065" lon="8.78639316750567"><ele>380.0</ele><time>2026-05-02T15:38:22Z</time></trkpt><trkpt lat="40.68316277958862" lon="8.786631435374204"><ele>378.5</ele><time>2026-05-02T15:38:23Z</time></trkpt><trkpt lat="40.68337642468777" lon="8.786866493030857"><ele>377.0</ele><time>2026-05-02T15:38:24Z</time></trkpt><trkpt lat="40.68359390398547" lon="8.787094602561435"><ele>376.0</ele><time>2026-05-02T15:38:25Z</time></trkpt><trkpt lat="40.683809807695646" lon="8.78732320029315"><ele>375.0</ele><time>2026-05-02T15:38:26Z</time></trkpt><trkpt lat="40.68402321356866" lon="8.78755418121455"><ele>373.5</ele><time>2026-05-02T15:38:27Z</time></trkpt><trkpt lat="40.684238971793484" lon="8.787779490503366"><ele>372.0</ele><time>2026-05-02T15:38:28Z</time></trkpt><trkpt lat="40.684454280025406" lon="8.788006023593011"><ele>370.5</ele><time>2026-05-02T15:38:29Z</time></trkpt><trkpt lat="40.68467240121506" lon="8.788229905836095"><ele>369.0</ele><time>2026-05-02T15:38:30Z</time></trkpt><trkpt lat="40.68488371865298" lon="8.788478528461482"><ele>369.0</ele><time>2026-05-02T15:38:31Z</time></trkpt><trkpt lat="40.6851008087839" lon="8.788706888803757"><ele>369.0</ele><time>2026-05-02T15:38:32Z</time></trkpt><trkpt lat="40.6853229364062" lon="8.7889263321045"><ele>368.5</ele><time>2026-05-02T15:38:33Z</time></trkpt><trkpt lat="40.68555209879733" lon="8.789131143806898"><ele>368.0</ele><time>2026-05-02T15:38:34Z</time></trkpt><trkpt lat="40.685783071327656" lon="8.789331559092554"><ele>368.0</ele><time>2026-05-02T15:38:35Z</time></trkpt><trkpt lat="40.68602424158096" lon="8.789515112434136"><ele>368.0</ele><time>2026-05-02T15:38:36Z</time></trkpt><trkpt lat="40.686271308609676" lon="8.78969144903069"><ele>368.0</ele><time>2026-05-02T15:38:37Z</time></trkpt><trkpt lat="40.68652312259951" lon="8.789856915628205"><ele>368.0</ele><time>2026-05-02T15:38:38Z</time></trkpt><trkpt lat="40.68676982139992" lon="8.790020087592664"><ele>367.5</ele><time>2026-05-02T15:38:39Z</time></trkpt><trkpt lat="40.687028069180634" lon="8.790166473940351"><ele>367.0</ele><time>2026-05-02T15:38:40Z</time></trkpt><trkpt lat="40.68727897189105" lon="8.79030268623298"><ele>368.0</ele><time>2026-05-02T15:38:41Z</time></trkpt><trkpt lat="40.687530847436506" lon="8.790432521452209"><ele>369.0</ele><time>2026-05-02T15:38:42Z</time></trkpt><trkpt lat="40.68778862703131" lon="8.790555740507983"><ele>369.0</ele><time>2026-05-02T15:38:43Z</time></trkpt><trkpt lat="40.68804204549069" lon="8.79067646313099"><ele>369.0</ele><time>2026-05-02T15:38:44Z</time></trkpt><trkpt lat="40.688300381854695" lon="8.790794460376185"><ele>369.0</ele><time>2026-05-02T15:38:45Z</time></trkpt><trkpt lat="40.688554676772455" lon="8.79090604414682"><ele>369.0</ele><time>2026-05-02T15:38:46Z</time></trkpt><trkpt lat="40.68881550532801" lon="8.791023862172905"><ele>368.5</ele><time>2026-05-02T15:38:47Z</time></trkpt><trkpt lat="40.68907041895353" lon="8.791132973614321"><ele>368.0</ele><time>2026-05-02T15:38:48Z</time></trkpt><trkpt lat="40.68933216409636" lon="8.791253937294684"><ele>365.5</ele><time>2026-05-02T15:38:49Z</time></trkpt><trkpt lat="40.68959263168663" lon="8.791374167264637"><ele>363.0</ele><time>2026-05-02T15:38:50Z</time></trkpt><trkpt lat="40.6898561999996" lon="8.791503449109513"><ele>363.0</ele><time>2026-05-02T15:38:51Z</time></trkpt><trkpt lat="40.69013007794106" lon="8.791625720744067"><ele>363.0</ele><time>2026-05-02T15:38:52Z</time></trkpt><trkpt lat="40.69040004220527" lon="8.791755061976405"><ele>362.5</ele><time>2026-05-02T15:38:53Z</time></trkpt><trkpt lat="40.690667933435805" lon="8.79188172942614"><ele>362.0</ele><time>2026-05-02T15:38:54Z</time></trkpt><trkpt lat="40.690934299881135" lon="8.792006303898745"><ele>364.5</ele><time>2026-05-02T15:38:55Z</time></trkpt><trkpt lat="40.691199792042575" lon="8.792131998711955"><ele>367.0</ele><time>2026-05-02T15:38:56Z</time></trkpt><trkpt lat="40.69146578232391" lon="8.792254922020808"><ele>367.0</ele><time>2026-05-02T15:38:57Z</time></trkpt><trkpt lat="40.69173033460414" lon="8.792376772637871"><ele>367.0</ele><time>2026-05-02T15:38:58Z</time></trkpt><trkpt lat="40.69199401065149" lon="8.792498839459945"><ele>367.5</ele><time>2026-05-02T15:38:59Z</time></trkpt><trkpt lat="40.69225801202971" lon="8.792621226268617"><ele>368.0</ele><time>2026-05-02T15:39:00Z</time></trkpt><trkpt lat="40.69252263566051" lon="8.79274778817371"><ele>372.0</ele><time>2026-05-02T15:39:01Z</time></trkpt><trkpt lat="40.6927862333975" lon="8.792869818813623"><ele>376.0</ele><time>2026-05-02T15:39:02Z</time></trkpt><trkpt lat="40.69305060058605" lon="8.792990118204845"><ele>376.0</ele><time>2026-05-02T15:39:03Z</time></trkpt><trkpt lat="40.693313401267666" lon="8.793104843008324"><ele>376.0</ele><time>2026-05-02T15:39:04Z</time></trkpt><trkpt lat="40.693574338359205" lon="8.793226048312292"><ele>382.5</ele><time>2026-05-02T15:39:05Z</time></trkpt><trkpt lat="40.693832616698344" lon="8.793350614321193"><ele>389.0</ele><time>2026-05-02T15:39:06Z</time></trkpt><trkpt lat="40.69409255437504" lon="8.793474662283671"><ele>390.5</ele><time>2026-05-02T15:39:07Z</time></trkpt><trkpt lat="40.69435319546728" lon="8.793598840099097"><ele>392.0</ele><time>2026-05-02T15:39:08Z</time></trkpt><trkpt lat="40.69461568040037" lon="8.793720337975328"><ele>392.0</ele><time>2026-05-02T15:39:09Z</time></trkpt><trkpt lat="40.69487904144824" lon="8.7938381606212"><ele>392.0</ele><time>2026-05-02T15:39:10Z</time></trkpt><trkpt lat="40.695139824477494" lon="8.79395614698149"><ele>394.0</ele><time>2026-05-02T15:39:11Z</time></trkpt><trkpt lat="40.69540057902928" lon="8.794078571043949"><ele>396.0</ele><time>2026-05-02T15:39:12Z</time></trkpt><trkpt lat="40.69566071917482" lon="8.794203096999935"><ele>396.0</ele><time>2026-05-02T15:39:13Z</time></trkpt><trkpt lat="40.695921831303714" lon="8.794328994382846"><ele>396.0</ele><time>2026-05-02T15:39:14Z</time></trkpt><trkpt lat="40.6961863376808" lon="8.794447761569042"><ele>397.5</ele><time>2026-05-02T15:39:15Z</time></trkpt><trkpt lat="40.69644695106278" lon="8.794574079179124"><ele>399.0</ele><time>2026-05-02T15:39:16Z</time></trkpt><trkpt lat="40.69671019882682" lon="8.79469327008565"><ele>401.0</ele><time>2026-05-02T15:39:17Z</time></trkpt><trkpt lat="40.696971677671684" lon="8.794809755282238"><ele>403.0</ele><time>2026-05-02T15:39:18Z</time></trkpt><trkpt lat="40.697230524985464" lon="8.794941668600927"><ele>403.0</ele><time>2026-05-02T15:39:19Z</time></trkpt><trkpt lat="40.69749029302296" lon="8.795063928401191"><ele>403.0</ele><time>2026-05-02T15:39:20Z</time></trkpt><trkpt lat="40.6977515559653" lon="8.795185558368036"><ele>404.5</ele><time>2026-05-02T15:39:21Z</time></trkpt><trkpt lat="40.69801178353145" lon="8.79530512408531"><ele>406.0</ele><time>2026-05-02T15:39:22Z</time></trkpt><trkpt lat="40.698272955169145" lon="8.795420245985312"><ele>406.0</ele><time>2026-05-02T15:39:23Z</time></trkpt><trkpt lat="40.698532900812644" lon="8.795526396591603"><ele>406.0</ele><time>2026-05-02T15:39:24Z</time></trkpt><trkpt lat="40.69880036929519" lon="8.795636499420965"><ele>411.0</ele><time>2026-05-02T15:39:25Z</time></trkpt><trkpt lat="40.69906596305648" lon="8.7957300712998"><ele>416.0</ele><time>2026-05-02T15:39:26Z</time></trkpt><trkpt lat="40.69933193683969" lon="8.795821299195449"><ele>419.0</ele><time>2026-05-02T15:39:27Z</time></trkpt><trkpt lat="40.69960219988371" lon="8.795907550048753"><ele>422.0</ele><time>2026-05-02T15:39:28Z</time></trkpt><trkpt lat="40.69987211682883" lon="8.795986338864793"><ele>422.5</ele><time>2026-05-02T15:39:29Z</time></trkpt><trkpt lat="40.700151741318386" lon="8.796068977794153"><ele>423.0</ele><time>2026-05-02T15:39:30Z</time></trkpt><trkpt lat="40.700414076330006" lon="8.796150512632176"><ele>423.0</ele><time>2026-05-02T15:39:31Z</time></trkpt><trkpt lat="40.700681184880885" lon="8.796231206527764"><ele>423.0</ele><time>2026-05-02T15:39:32Z</time></trkpt><trkpt lat="40.70094526536096" lon="8.796314321394442"><ele>424.0</ele><time>2026-05-02T15:39:33Z</time></trkpt><trkpt lat="40.7012167192078" lon="8.796404131403603"><ele>425.0</ele><time>2026-05-02T15:39:34Z</time></trkpt><trkpt lat="40.70148102720261" lon="8.796480114045595"><ele>425.0</ele><time>2026-05-02T15:39:35Z</time></trkpt><trkpt lat="40.70174362312872" lon="8.796561468562544"><ele>425.0</ele><time>2026-05-02T15:39:36Z</time></trkpt><trkpt lat="40.702008735424556" lon="8.79664024493788"><ele>424.5</ele><time>2026-05-02T15:39:37Z</time></trkpt><trkpt lat="40.70227408071067" lon="8.796721576048876"><ele>424.0</ele><time>2026-05-02T15:39:38Z</time></trkpt><trkpt lat="40.702537252746914" lon="8.79681296814068"><ele>421.5</ele><time>2026-05-02T15:39:39Z</time></trkpt><trkpt lat="40.7027967460913" lon="8.796872349183444"><ele>419.0</ele><time>2026-05-02T15:39:40Z</time></trkpt><trkpt lat="40.70308699261613" lon="8.796970376108805"><ele>419.0</ele><time>2026-05-02T15:39:41Z</time></trkpt><trkpt lat="40.70334432082297" lon="8.797053113008284"><ele>419.0</ele><time>2026-05-02T15:39:42Z</time></trkpt><trkpt lat="40.70362633135635" lon="8.79713457366679"><ele>419.5</ele><time>2026-05-02T15:39:43Z</time></trkpt><trkpt lat="40.70389927091004" lon="8.797220338271114"><ele>420.0</ele><time>2026-05-02T15:39:44Z</time></trkpt><trkpt lat="40.70417392631121" lon="8.797308814390448"><ele>417.5</ele><time>2026-05-02T15:39:45Z</time></trkpt><trkpt lat="40.704446269458046" lon="8.797402875306549"><ele>415.0</ele><time>2026-05-02T15:39:46Z</time></trkpt><trkpt lat="40.70472164277839" lon="8.797502771734228"><ele>415.0</ele><time>2026-05-02T15:39:47Z</time></trkpt><trkpt lat="40.70498797995676" lon="8.797616391637087"><ele>415.0</ele><time>2026-05-02T15:39:48Z</time></trkpt><trkpt lat="40.70525500392933" lon="8.797741566084028"><ele>413.5</ele><time>2026-05-02T15:39:49Z</time></trkpt><trkpt lat="40.705517159697585" lon="8.797879991074767"><ele>412.0</ele><time>2026-05-02T15:39:50Z</time></trkpt><trkpt lat="40.70577058941151" lon="8.798023549643267"><ele>412.0</ele><time>2026-05-02T15:39:51Z</time></trkpt><trkpt lat="40.70602248243902" lon="8.798175701305679"><ele>412.0</ele><time>2026-05-02T15:39:52Z</time></trkpt><trkpt lat="40.70626866755395" lon="8.798334847584712"><ele>414.0</ele><time>2026-05-02T15:39:53Z</time></trkpt><trkpt lat="40.70650701645789" lon="8.798510908617802"><ele>416.0</ele><time>2026-05-02T15:39:54Z</time></trkpt><trkpt lat="40.70674410109071" lon="8.798696526221658"><ele>424.0</ele><time>2026-05-02T15:39:55Z</time></trkpt><trkpt lat="40.70697436255934" lon="8.798895958573567"><ele>432.0</ele><time>2026-05-02T15:39:56Z</time></trkpt><trkpt lat="40.707202259966614" lon="8.799098853293824"><ele>432.0</ele><time>2026-05-02T15:39:57Z</time></trkpt><trkpt lat="40.707420321914796" lon="8.799305894966544"><ele>432.0</ele><time>2026-05-02T15:39:58Z</time></trkpt><trkpt lat="40.707633905947404" lon="8.799515901454333"><ele>436.5</ele><time>2026-05-02T15:39:59Z</time></trkpt><trkpt lat="40.70784047391645" lon="8.799735132929621"><ele>441.0</ele><time>2026-05-02T15:40:00Z</time></trkpt><trkpt lat="40.708042059199215" lon="8.799964898734888"><ele>443.0</ele><time>2026-05-02T15:40:01Z</time></trkpt><trkpt lat="40.70822593593035" lon="8.800219270163227"><ele>445.0</ele><time>2026-05-02T15:40:02Z</time></trkpt><trkpt lat="40.70840008418784" lon="8.800441507797117"><ele>445.0</ele><time>2026-05-02T15:40:03Z</time></trkpt><trkpt lat="40.70855791917937" lon="8.800655929765954"><ele>445.0</ele><time>2026-05-02T15:40:04Z</time></trkpt><trkpt lat="40.70871715285506" lon="8.8008761937853"><ele>446.0</ele><time>2026-05-02T15:40:05Z</time></trkpt><trkpt lat="40.70889047780677" lon="8.801115949673036"><ele>447.0</ele><time>2026-05-02T15:40:06Z</time></trkpt><trkpt lat="40.7090750584308" lon="8.801371493432553"><ele>447.0</ele><time>2026-05-02T15:40:07Z</time></trkpt><trkpt lat="40.709263664014664" lon="8.801632953880375"><ele>447.0</ele><time>2026-05-02T15:40:08Z</time></trkpt><trkpt lat="40.70945232162249" lon="8.80189450179374"><ele>446.5</ele><time>2026-05-02T15:40:09Z</time></trkpt><trkpt lat="40.7096520485631" lon="8.80214930546972"><ele>446.0</ele><time>2026-05-02T15:40:10Z</time></trkpt><trkpt lat="40.709833569269044" lon="8.802419665456274"><ele>446.0</ele><time>2026-05-02T15:40:11Z</time></trkpt><trkpt lat="40.710020772233506" lon="8.802683183594342"><ele>446.0</ele><time>2026-05-02T15:40:12Z</time></trkpt><trkpt lat="40.71020942359623" lon="8.80293568944561"><ele>444.0</ele><time>2026-05-02T15:40:13Z</time></trkpt><trkpt lat="40.71040011117833" lon="8.803185197806991"><ele>442.0</ele><time>2026-05-02T15:40:14Z</time></trkpt><trkpt lat="40.71059206640853" lon="8.803432584260712"><ele>441.5</ele><time>2026-05-02T15:40:15Z</time></trkpt><trkpt lat="40.71078678587697" lon="8.803683892097158"><ele>441.0</ele><time>2026-05-02T15:40:16Z</time></trkpt><trkpt lat="40.710989156262436" lon="8.803902945734501"><ele>439.0</ele><time>2026-05-02T15:40:17Z</time></trkpt><trkpt lat="40.7111895862867" lon="8.804122607510642"><ele>437.0</ele><time>2026-05-02T15:40:18Z</time></trkpt><trkpt lat="40.711387303679096" lon="8.804351864513972"><ele>436.0</ele><time>2026-05-02T15:40:19Z</time></trkpt><trkpt lat="40.71160130803296" lon="8.80458013426023"><ele>435.0</ele><time>2026-05-02T15:40:20Z</time></trkpt><trkpt lat="40.71181337901391" lon="8.804803928523148"><ele>434.0</ele><time>2026-05-02T15:40:21Z</time></trkpt><trkpt lat="40.712027683092884" lon="8.805025544188453"><ele>433.0</ele><time>2026-05-02T15:40:22Z</time></trkpt><trkpt lat="40.71224513631106" lon="8.80524466624625"><ele>431.5</ele><time>2026-05-02T15:40:23Z</time></trkpt><trkpt lat="40.71245566210666" lon="8.805481070420155"><ele>430.0</ele><time>2026-05-02T15:40:24Z</time></trkpt><trkpt lat="40.71267472883346" lon="8.80570443489911"><ele>429.0</ele><time>2026-05-02T15:40:25Z</time></trkpt><trkpt lat="40.71292366037286" lon="8.805880472378329"><ele>428.0</ele><time>2026-05-02T15:40:26Z</time></trkpt><trkpt lat="40.713157118243" lon="8.806082824755395"><ele>428.0</ele><time>2026-05-02T15:40:27Z</time></trkpt><trkpt lat="40.71339216538428" lon="8.806282157037593"><ele>428.0</ele><time>2026-05-02T15:40:28Z</time></trkpt><trkpt lat="40.71363073661674" lon="8.806479845784763"><ele>426.0</ele><time>2026-05-02T15:40:29Z</time></trkpt><trkpt lat="40.71386907084257" lon="8.806673158070126"><ele>424.0</ele><time>2026-05-02T15:40:30Z</time></trkpt><trkpt lat="40.714108662775025" lon="8.806858553265972"><ele>423.5</ele><time>2026-05-02T15:40:31Z</time></trkpt><trkpt lat="40.71435012944507" lon="8.8070374943816"><ele>423.0</ele><time>2026-05-02T15:40:32Z</time></trkpt><trkpt lat="40.714592746927764" lon="8.807209323520196"><ele>422.0</ele><time>2026-05-02T15:40:33Z</time></trkpt><trkpt lat="40.714836682632864" lon="8.807372289744485"><ele>421.0</ele><time>2026-05-02T15:40:34Z</time></trkpt><trkpt lat="40.71508136204148" lon="8.80753477392558"><ele>420.5</ele><time>2026-05-02T15:40:35Z</time></trkpt><trkpt lat="40.71532475475682" lon="8.80769140010008"><ele>420.0</ele><time>2026-05-02T15:40:36Z</time></trkpt><trkpt lat="40.715573337964294" lon="8.807842303419834"><ele>420.0</ele><time>2026-05-02T15:40:37Z</time></trkpt><trkpt lat="40.71582643681287" lon="8.807987533421002"><ele>420.0</ele><time>2026-05-02T15:40:38Z</time></trkpt><trkpt lat="40.71608335089608" lon="8.808129436531402"><ele>420.0</ele><time>2026-05-02T15:40:39Z</time></trkpt><trkpt lat="40.71634225308228" lon="8.808268017674989"><ele>420.0</ele><time>2026-05-02T15:40:40Z</time></trkpt><trkpt lat="40.71660716169636" lon="8.808405558463456"><ele>420.5</ele><time>2026-05-02T15:40:41Z</time></trkpt><trkpt lat="40.71686414122305" lon="8.808512519341754"><ele>421.0</ele><time>2026-05-02T15:40:42Z</time></trkpt><trkpt lat="40.717131998035356" lon="8.808644826707868"><ele>421.0</ele><time>2026-05-02T15:40:43Z</time></trkpt><trkpt lat="40.717393681354146" lon="8.80876027662728"><ele>421.0</ele><time>2026-05-02T15:40:44Z</time></trkpt><trkpt lat="40.717646305460825" lon="8.808868617201956"><ele>416.0</ele><time>2026-05-02T15:40:45Z</time></trkpt><trkpt lat="40.71791668744627" lon="8.80898008163189"><ele>411.0</ele><time>2026-05-02T15:40:46Z</time></trkpt><trkpt lat="40.71817427885491" lon="8.809081616641805"><ele>411.0</ele><time>2026-05-02T15:40:47Z</time></trkpt><trkpt lat="40.71843664989001" lon="8.809181477798898"><ele>411.0</ele><time>2026-05-02T15:40:48Z</time></trkpt><trkpt lat="40.71869984683504" lon="8.809268248007157"><ele>408.0</ele><time>2026-05-02T15:40:49Z</time></trkpt><trkpt lat="40.71896577104149" lon="8.809353342764611"><ele>405.0</ele><time>2026-05-02T15:40:50Z</time></trkpt><trkpt lat="40.71923255168732" lon="8.809426460895505"><ele>403.5</ele><time>2026-05-02T15:40:51Z</time></trkpt><trkpt lat="40.71950300501852" lon="8.809493116152884"><ele>402.0</ele><time>2026-05-02T15:40:52Z</time></trkpt><trkpt lat="40.71977263737536" lon="8.809556607957399"><ele>402.0</ele><time>2026-05-02T15:40:53Z</time></trkpt><trkpt lat="40.720044251964225" lon="8.809618085134323"><ele>402.0</ele><time>2026-05-02T15:40:54Z</time></trkpt><trkpt lat="40.720313552605006" lon="8.80967700925996"><ele>401.0</ele><time>2026-05-02T15:40:55Z</time></trkpt><trkpt lat="40.72058229581181" lon="8.809735705414862"><ele>400.0</ele><time>2026-05-02T15:40:56Z</time></trkpt><trkpt lat="40.72085061207709" lon="8.809790994621073"><ele>400.0</ele><time>2026-05-02T15:40:57Z</time></trkpt><trkpt lat="40.72112184249286" lon="8.809845863278072"><ele>400.0</ele><time>2026-05-02T15:40:58Z</time></trkpt><trkpt lat="40.72139553701239" lon="8.809895917462338"><ele>400.0</ele><time>2026-05-02T15:40:59Z</time></trkpt><trkpt lat="40.721660782539665" lon="8.809957995137713"><ele>400.0</ele><time>2026-05-02T15:41:00Z</time></trkpt><trkpt lat="40.721932021979924" lon="8.810009329400284"><ele>400.0</ele><time>2026-05-02T15:41:01Z</time></trkpt><trkpt lat="40.722207435363124" lon="8.8100722225945"><ele>400.0</ele><time>2026-05-02T15:41:02Z</time></trkpt><trkpt lat="40.7224827805649" lon="8.81012544999108"><ele>396.0</ele><time>2026-05-02T15:41:03Z</time></trkpt><trkpt lat="40.72275858585123" lon="8.81018109826581"><ele>392.0</ele><time>2026-05-02T15:41:04Z</time></trkpt><trkpt lat="40.72303356261406" lon="8.810240398246776"><ele>392.0</ele><time>2026-05-02T15:41:05Z</time></trkpt><trkpt lat="40.723307444462144" lon="8.810300858417103"><ele>392.0</ele><time>2026-05-02T15:41:06Z</time></trkpt><trkpt lat="40.7235803707705" lon="8.810373195023343"><ele>391.5</ele><time>2026-05-02T15:41:07Z</time></trkpt><trkpt lat="40.72385081325065" lon="8.81045657121585"><ele>391.0</ele><time>2026-05-02T15:41:08Z</time></trkpt><trkpt lat="40.72412024998393" lon="8.81054814678516"><ele>391.0</ele><time>2026-05-02T15:41:09Z</time></trkpt><trkpt lat="40.72439003989636" lon="8.81065101348676"><ele>391.0</ele><time>2026-05-02T15:41:10Z</time></trkpt><trkpt lat="40.724655626824955" lon="8.810765241959164"><ele>390.5</ele><time>2026-05-02T15:41:11Z</time></trkpt><trkpt lat="40.724918889703005" lon="8.810893276810663"><ele>390.0</ele><time>2026-05-02T15:41:12Z</time></trkpt><trkpt lat="40.7251812880656" lon="8.811031050268515"><ele>386.0</ele><time>2026-05-02T15:41:13Z</time></trkpt><trkpt lat="40.72544181813568" lon="8.811182527226297"><ele>382.0</ele><time>2026-05-02T15:41:14Z</time></trkpt><trkpt lat="40.725700840253815" lon="8.811344929155954"><ele>382.0</ele><time>2026-05-02T15:41:15Z</time></trkpt><trkpt lat="40.725959201502064" lon="8.811522420633302"><ele>382.0</ele><time>2026-05-02T15:41:16Z</time></trkpt><trkpt lat="40.72621694370407" lon="8.81170969025937"><ele>379.5</ele><time>2026-05-02T15:41:17Z</time></trkpt><trkpt lat="40.72641960752273" lon="8.811850856059081"><ele>377.0</ele><time>2026-05-02T15:41:18Z</time></trkpt><trkpt lat="40.72665381601335" lon="8.812047564666347"><ele>377.0</ele><time>2026-05-02T15:41:19Z</time></trkpt><trkpt lat="40.72688404333577" lon="8.812249393989061"><ele>377.0</ele><time>2026-05-02T15:41:20Z</time></trkpt><trkpt lat="40.72710760716131" lon="8.812461372539836"><ele>377.0</ele><time>2026-05-02T15:41:21Z</time></trkpt><trkpt lat="40.72732650366493" lon="8.81268615461182"><ele>377.0</ele><time>2026-05-02T15:41:22Z</time></trkpt><trkpt lat="40.72754419337192" lon="8.812911496992491"><ele>374.5</ele><time>2026-05-02T15:41:23Z</time></trkpt><trkpt lat="40.72776023470174" lon="8.813138980498262"><ele>372.0</ele><time>2026-05-02T15:41:24Z</time></trkpt><trkpt lat="40.72798316879496" lon="8.81336037712403"><ele>372.0</ele><time>2026-05-02T15:41:25Z</time></trkpt><trkpt lat="40.728209335617" lon="8.813578664250128"><ele>372.0</ele><time>2026-05-02T15:41:26Z</time></trkpt><trkpt lat="40.72843081950072" lon="8.813799092825622"><ele>372.0</ele><time>2026-05-02T15:41:27Z</time></trkpt><trkpt lat="40.72865027258899" lon="8.81401770238027"><ele>372.0</ele><time>2026-05-02T15:41:28Z</time></trkpt><trkpt lat="40.7288691002679" lon="8.814236274506776"><ele>370.5</ele><time>2026-05-02T15:41:29Z</time></trkpt><trkpt lat="40.72908678303721" lon="8.814456775125924"><ele>369.0</ele><time>2026-05-02T15:41:30Z</time></trkpt><trkpt lat="40.729308074081466" lon="8.814675840214944"><ele>369.0</ele><time>2026-05-02T15:41:31Z</time></trkpt><trkpt lat="40.72953049160856" lon="8.814891906168503"><ele>369.0</ele><time>2026-05-02T15:41:32Z</time></trkpt><trkpt lat="40.72975090314822" lon="8.815108619266411"><ele>368.0</ele><time>2026-05-02T15:41:33Z</time></trkpt><trkpt lat="40.729974525471725" lon="8.815324977917756"><ele>367.0</ele><time>2026-05-02T15:41:34Z</time></trkpt><trkpt lat="40.730198031315766" lon="8.815543294953851"><ele>366.5</ele><time>2026-05-02T15:41:35Z</time></trkpt><trkpt lat="40.73042030435798" lon="8.815760233337791"><ele>366.0</ele><time>2026-05-02T15:41:36Z</time></trkpt><trkpt lat="40.7306409837326" lon="8.815976604651297"><ele>364.0</ele><time>2026-05-02T15:41:37Z</time></trkpt><trkpt lat="40.73086191910991" lon="8.816188686660029"><ele>362.0</ele><time>2026-05-02T15:41:38Z</time></trkpt><trkpt lat="40.731086209324594" lon="8.816390953067376"><ele>360.0</ele><time>2026-05-02T15:41:39Z</time></trkpt><trkpt lat="40.7313111912997" lon="8.816582284191629"><ele>358.0</ele><time>2026-05-02T15:41:40Z</time></trkpt><trkpt lat="40.73153997923099" lon="8.81677559281092"><ele>358.0</ele><time>2026-05-02T15:41:41Z</time></trkpt><trkpt lat="40.73176850258912" lon="8.816964976173665"><ele>358.0</ele><time>2026-05-02T15:41:42Z</time></trkpt><trkpt lat="40.731996032685714" lon="8.81715751436874"><ele>357.0</ele><time>2026-05-02T15:41:43Z</time></trkpt><trkpt lat="40.73222239722799" lon="8.81735115426593"><ele>356.0</ele><time>2026-05-02T15:41:44Z</time></trkpt><trkpt lat="40.732447865208506" lon="8.817543383147198"><ele>355.5</ele><time>2026-05-02T15:41:45Z</time></trkpt><trkpt lat="40.732660013231985" lon="8.817723594437481"><ele>355.0</ele><time>2026-05-02T15:41:46Z</time></trkpt><trkpt lat="40.7328586386192" lon="8.81788857923899"><ele>355.0</ele><time>2026-05-02T15:41:47Z</time></trkpt><trkpt lat="40.73304704412943" lon="8.818046385188186"><ele>355.0</ele><time>2026-05-02T15:41:48Z</time></trkpt><trkpt lat="40.73322117474833" lon="8.818200247365958"><ele>355.0</ele><time>2026-05-02T15:41:49Z</time></trkpt><trkpt lat="40.733378057854225" lon="8.818343280533718"><ele>355.0</ele><time>2026-05-02T15:41:50Z</time></trkpt><trkpt lat="40.73352246788837" lon="8.81847638119231"><ele>355.0</ele><time>2026-05-02T15:41:51Z</time></trkpt><trkpt lat="40.73378001472853" lon="8.818699661917009"><ele>354.5</ele><time>2026-05-02T15:41:53Z</time></trkpt><trkpt lat="40.73389194599393" lon="8.818801431176988"><ele>354.0</ele><time>2026-05-02T15:41:54Z</time></trkpt><trkpt lat="40.733978101565036" lon="8.81892844343526"><ele>353.5</ele><time>2026-05-02T15:41:55Z</time></trkpt><trkpt lat="40.73405539960441" lon="8.81902228887805"><ele>353.0</ele><time>2026-05-02T15:41:56Z</time></trkpt><trkpt lat="40.73400260721259" lon="8.819253931270179"><ele>353.25</ele><time>2026-05-02T15:41:57Z</time></trkpt><trkpt lat="40.733972201558" lon="8.819415963010078"><ele>353.5</ele><time>2026-05-02T15:41:58Z</time></trkpt><trkpt lat="40.73391819572416" lon="8.819577754327584"><ele>353.75</ele><time>2026-05-02T15:41:59Z</time></trkpt><trkpt lat="40.733873314172065" lon="8.819762175856868"><ele>354.0</ele><time>2026-05-02T15:42:00Z</time></trkpt><trkpt lat="40.7338203663669" lon="8.819948071068897"><ele>354.0</ele><time>2026-05-02T15:42:01Z</time></trkpt><trkpt lat="40.73379648492244" lon="8.820142746343185"><ele>354.0</ele><time>2026-05-02T15:42:02Z</time></trkpt><trkpt lat="40.733802684965404" lon="8.82033978724329"><ele>354.0</ele><time>2026-05-02T15:42:03Z</time></trkpt><trkpt lat="40.73381967498132" lon="8.820507991293232"><ele>354.0</ele><time>2026-05-02T15:42:04Z</time></trkpt><trkpt lat="40.73384937416069" lon="8.82063119983421"><ele>353.4</ele><time>2026-05-02T15:42:05Z</time></trkpt><trkpt lat="40.7338483201279" lon="8.820715115437455"><ele>352.79999999999995</ele><time>2026-05-02T15:42:06Z</time></trkpt><trkpt lat="40.733976102753665" lon="8.820732006427386"><ele>352.20000000000005</ele><time>2026-05-02T15:42:07Z</time></trkpt><trkpt lat="40.73403736586213" lon="8.820773682256771"><ele>351.6</ele><time>2026-05-02T15:42:09Z</time></trkpt><trkpt lat="40.73413303435948" lon="8.820852403208834"><ele>351.0</ele><time>2026-05-02T15:42:12Z</time></trkpt><trkpt lat="40.734240293196976" lon="8.820757115872428"><ele>351.0</ele><time>2026-05-02T15:42:13Z</time></trkpt><trkpt lat="40.73435230818391" lon="8.820661216572343"><ele>351.0</ele><time>2026-05-02T15:42:14Z</time></trkpt><trkpt lat="40.734468012568534" lon="8.820589181343061"><ele>351.0</ele><time>2026-05-02T15:42:15Z</time></trkpt><trkpt lat="40.73460241945576" lon="8.820532335428377"><ele>351.0</ele><time>2026-05-02T15:42:16Z</time></trkpt><trkpt lat="40.73474658651999" lon="8.82047134122065"><ele>351.0</ele><time>2026-05-02T15:42:17Z</time></trkpt><trkpt lat="40.73490116802677" lon="8.820407055086747"><ele>351.0</ele><time>2026-05-02T15:42:18Z</time></trkpt><trkpt lat="40.73506555488973" lon="8.820345883204068"><ele>351.0</ele><time>2026-05-02T15:42:19Z</time></trkpt><trkpt lat="40.735244105080234" lon="8.820311856674785"><ele>351.3333333333333</ele><time>2026-05-02T15:42:20Z</time></trkpt><trkpt lat="40.73543116049236" lon="8.820289703711158"><ele>351.66666666666663</ele><time>2026-05-02T15:42:21Z</time></trkpt><trkpt lat="40.735628909748144" lon="8.820275454047577"><ele>352.0</ele><time>2026-05-02T15:42:22Z</time></trkpt><trkpt lat="40.73583502389414" lon="8.82026321898251"><ele>352.0</ele><time>2026-05-02T15:42:23Z</time></trkpt><trkpt lat="40.736046887441866" lon="8.820247781220871"><ele>352.0</ele><time>2026-05-02T15:42:24Z</time></trkpt><trkpt lat="40.73626413495706" lon="8.820226568440617"><ele>352.0</ele><time>2026-05-02T15:42:25Z</time></trkpt><trkpt lat="40.73648417123212" lon="8.820204564187653"><ele>352.3333333333333</ele><time>2026-05-02T15:42:26Z</time></trkpt><trkpt lat="40.73670772855224" lon="8.820184006114024"><ele>352.6666666666667</ele><time>2026-05-02T15:42:27Z</time></trkpt><trkpt lat="40.736932518276745" lon="8.820163128010238"><ele>353.0</ele><time>2026-05-02T15:42:28Z</time></trkpt><trkpt lat="40.73716581733802" lon="8.820144250138314"><ele>355.0</ele><time>2026-05-02T15:42:29Z</time></trkpt><trkpt lat="40.73738604796814" lon="8.82012689829658"><ele>357.0</ele><time>2026-05-02T15:42:30Z</time></trkpt><trkpt lat="40.73760829415071" lon="8.820099529871785"><ele>359.0</ele><time>2026-05-02T15:42:31Z</time></trkpt><trkpt lat="40.737823850563395" lon="8.8200589893859"><ele>359.0</ele><time>2026-05-02T15:42:32Z</time></trkpt><trkpt lat="40.738042424628794" lon="8.82001183189131"><ele>359.0</ele><time>2026-05-02T15:42:33Z</time></trkpt><trkpt lat="40.73825576048443" lon="8.819988526515484"><ele>359.0</ele><time>2026-05-02T15:42:34Z</time></trkpt><trkpt lat="40.73846958172964" lon="8.819980129740946"><ele>360.33333333333337</ele><time>2026-05-02T15:42:35Z</time></trkpt><trkpt lat="40.73868378987056" lon="8.819980885143286"><ele>361.6666666666667</ele><time>2026-05-02T15:42:36Z</time></trkpt><trkpt lat="40.738894603508506" lon="8.819989342662465"><ele>363.0</ele><time>2026-05-02T15:42:37Z</time></trkpt><trkpt lat="40.73910352404605" lon="8.820003845322645"><ele>363.0</ele><time>2026-05-02T15:42:38Z</time></trkpt><trkpt lat="40.73931255845404" lon="8.820016859850131"><ele>363.0</ele><time>2026-05-02T15:42:39Z</time></trkpt><trkpt lat="40.739504485090094" lon="8.820022353194362"><ele>363.0</ele><time>2026-05-02T15:42:40Z</time></trkpt><trkpt lat="40.73968160245157" lon="8.820042005405625"><ele>362.6666666666667</ele><time>2026-05-02T15:42:41Z</time></trkpt><trkpt lat="40.73984272681861" lon="8.820113245010429"><ele>362.33333333333337</ele><time>2026-05-02T15:42:42Z</time></trkpt><trkpt lat="40.739988863408165" lon="8.820238300016463"><ele>362.0</ele><time>2026-05-02T15:42:43Z</time></trkpt><trkpt lat="40.74014706200683" lon="8.820400809439343"><ele>367.0</ele><time>2026-05-02T15:42:44Z</time></trkpt><trkpt lat="40.7403071967245" lon="8.820551392064118"><ele>372.0</ele><time>2026-05-02T15:42:45Z</time></trkpt><trkpt lat="40.74047217750646" lon="8.820700483491393"><ele>377.0</ele><time>2026-05-02T15:42:46Z</time></trkpt><trkpt lat="40.74062659006828" lon="8.820862634006874"><ele>377.0</ele><time>2026-05-02T15:42:47Z</time></trkpt><trkpt lat="40.740781709534346" lon="8.820974095328655"><ele>377.0</ele><time>2026-05-02T15:42:48Z</time></trkpt><trkpt lat="40.7409118936526" lon="8.821092591765808"><ele>377.0</ele><time>2026-05-02T15:42:49Z</time></trkpt><trkpt lat="40.741009504107666" lon="8.821237124526485"><ele>380.75</ele><time>2026-05-02T15:42:50Z</time></trkpt><trkpt lat="40.74109251438483" lon="8.821373616820143"><ele>384.5</ele><time>2026-05-02T15:42:51Z</time></trkpt><trkpt lat="40.74115112906471" lon="8.821509597529595"><ele>388.25</ele><time>2026-05-02T15:42:52Z</time></trkpt><trkpt lat="40.74120044490614" lon="8.821668001404632"><ele>392.0</ele><time>2026-05-02T15:42:53Z</time></trkpt><trkpt lat="40.741244254935616" lon="8.821813034817087"><ele>389.0</ele><time>2026-05-02T15:42:54Z</time></trkpt><trkpt lat="40.741300527620666" lon="8.82196354415889"><ele>386.0</ele><time>2026-05-02T15:42:55Z</time></trkpt><trkpt lat="40.74134837245551" lon="8.822118405485895"><ele>383.0</ele><time>2026-05-02T15:42:56Z</time></trkpt><trkpt lat="40.741382054631615" lon="8.822263204944209"><ele>380.0</ele><time>2026-05-02T15:42:57Z</time></trkpt><trkpt lat="40.741440232879" lon="8.822375157253823"><ele>380.0</ele><time>2026-05-02T15:42:58Z</time></trkpt><trkpt lat="40.74148371214536" lon="8.822484068011684"><ele>380.0</ele><time>2026-05-02T15:42:59Z</time></trkpt><trkpt lat="40.74153461094219" lon="8.822583849624397"><ele>380.0</ele><time>2026-05-02T15:43:00Z</time></trkpt><trkpt lat="40.741586986876825" lon="8.822661286320274"><ele>380.0</ele><time>2026-05-02T15:43:01Z</time></trkpt><trkpt lat="40.741634752629146" lon="8.822740859673479"><ele>380.0</ele><time>2026-05-02T15:43:02Z</time></trkpt><trkpt lat="40.741680216601715" lon="8.822820465533336"><ele>380.0</ele><time>2026-05-02T15:43:03Z</time></trkpt><trkpt lat="40.74173079067136" lon="8.822902019171092"><ele>378.1666666666667</ele><time>2026-05-02T15:43:04Z</time></trkpt><trkpt lat="40.741782099726315" lon="8.822990977139973"><ele>376.33333333333337</ele><time>2026-05-02T15:43:05Z</time></trkpt><trkpt lat="40.74184073789201" lon="8.823067674677807"><ele>374.5</ele><time>2026-05-02T15:43:06Z</time></trkpt><trkpt lat="40.741904612982516" lon="8.823134203922944"><ele>372.6666666666667</ele><time>2026-05-02T15:43:07Z</time></trkpt><trkpt lat="40.741978085045965" lon="8.823175788436858"><ele>370.8333333333333</ele><time>2026-05-02T15:43:08Z</time></trkpt><trkpt lat="40.74205859146212" lon="8.82319137977975"><ele>369.0</ele><time>2026-05-02T15:43:09Z</time></trkpt><trkpt lat="40.74213758109115" lon="8.823177745057075"><ele>369.0</ele><time>2026-05-02T15:43:10Z</time></trkpt><trkpt lat="40.74221353687752" lon="8.823144657548527"><ele>369.0</ele><time>2026-05-02T15:43:11Z</time></trkpt><trkpt lat="40.742289527201834" lon="8.823106947976369"><ele>369.0</ele><time>2026-05-02T15:43:12Z</time></trkpt><trkpt lat="40.742363168311726" lon="8.823048324451992"><ele>369.0</ele><time>2026-05-02T15:43:13Z</time></trkpt><trkpt lat="40.7424289934912" lon="8.822979687948726"><ele>369.0</ele><time>2026-05-02T15:43:14Z</time></trkpt><trkpt lat="40.742475585621264" lon="8.822883791578642"><ele>369.0</ele><time>2026-05-02T15:43:15Z</time></trkpt><trkpt lat="40.74249663914454" lon="8.822771306396763"><ele>369.0</ele><time>2026-05-02T15:43:16Z</time></trkpt><trkpt lat="40.74250288163783" lon="8.822652719504125"><ele>369.0</ele><time>2026-05-02T15:43:17Z</time></trkpt><trkpt lat="40.74249896213052" lon="8.822540455215329"><ele>369.0</ele><time>2026-05-02T15:43:18Z</time></trkpt><trkpt lat="40.742477821872974" lon="8.822421189922656"><ele>369.0</ele><time>2026-05-02T15:43:19Z</time></trkpt><trkpt lat="40.742460305548285" lon="8.822312947501933"><ele>369.0</ele><time>2026-05-02T15:43:20Z</time></trkpt><trkpt lat="40.74245923607718" lon="8.822195460226324"><ele>369.0</ele><time>2026-05-02T15:43:21Z</time></trkpt><trkpt lat="40.742499687139365" lon="8.82208651322837"><ele>371.8333333333333</ele><time>2026-05-02T15:43:22Z</time></trkpt><trkpt lat="40.7425877960803" lon="8.822022408640956"><ele>374.66666666666663</ele><time>2026-05-02T15:43:23Z</time></trkpt><trkpt lat="40.74265380834283" lon="8.82199603383685"><ele>377.5</ele><time>2026-05-02T15:43:24Z</time></trkpt><trkpt lat="40.74272482444366" lon="8.822024076926304"><ele>380.3333333333333</ele><time>2026-05-02T15:43:25Z</time></trkpt><trkpt lat="40.742799099734256" lon="8.822075845236279"><ele>383.16666666666663</ele><time>2026-05-02T15:43:27Z</time></trkpt><trkpt lat="40.74286744431467" lon="8.82205913691394"><ele>386.0</ele><time>2026-05-02T15:47:06Z</time></trkpt><trkpt lat="40.74299315237622" lon="8.822104063133253"><ele>388.0</ele><time>2026-05-02T15:47:08Z</time></trkpt><trkpt lat="40.74307586291013" lon="8.82218208134875"><ele>390.0</ele><time>2026-05-02T15:47:09Z</time></trkpt><trkpt lat="40.74315190302182" lon="8.822298438404879"><ele>392.0</ele><time>2026-05-02T15:47:10Z</time></trkpt><trkpt lat="40.74323698932018" lon="8.82242839079536"><ele>394.0</ele><time>2026-05-02T15:47:11Z</time></trkpt><trkpt lat="40.74329660245981" lon="8.822584710394876"><ele>390.75</ele><time>2026-05-02T15:47:12Z</time></trkpt><trkpt lat="40.74337365139827" lon="8.822738695218453"><ele>387.5</ele><time>2026-05-02T15:47:13Z</time></trkpt><trkpt lat="40.74345229028247" lon="8.822895482491063"><ele>384.25</ele><time>2026-05-02T15:47:14Z</time></trkpt><trkpt lat="40.743536700964064" lon="8.823063777489446"><ele>381.0</ele><time>2026-05-02T15:47:15Z</time></trkpt><trkpt lat="40.74362054193218" lon="8.82323871770721"><ele>385.5</ele><time>2026-05-02T15:47:16Z</time></trkpt><trkpt lat="40.74369337897643" lon="8.823424531333746"><ele>390.0</ele><time>2026-05-02T15:47:17Z</time></trkpt><trkpt lat="40.743750756564665" lon="8.823598047700905"><ele>394.5</ele><time>2026-05-02T15:47:18Z</time></trkpt><trkpt lat="40.74379241539339" lon="8.823735127840248"><ele>399.0</ele><time>2026-05-02T15:47:19Z</time></trkpt><trkpt lat="40.74383652403043" lon="8.823879880652132"><ele>399.0</ele><time>2026-05-02T15:47:20Z</time></trkpt><trkpt lat="40.7438902928" lon="8.82399722690798"><ele>399.0</ele><time>2026-05-02T15:47:21Z</time></trkpt><trkpt lat="40.74393775135433" lon="8.824131033827362"><ele>399.0</ele><time>2026-05-02T15:47:22Z</time></trkpt><trkpt lat="40.74398788688115" lon="8.824265113732594"><ele>399.0</ele><time>2026-05-02T15:47:23Z</time></trkpt><trkpt lat="40.7440385334161" lon="8.824401932160987"><ele>399.0</ele><time>2026-05-02T15:47:24Z</time></trkpt><trkpt lat="40.744096268985544" lon="8.824529687217927"><ele>397.75</ele><time>2026-05-02T15:47:25Z</time></trkpt><trkpt lat="40.74416317063157" lon="8.824665586111227"><ele>396.5</ele><time>2026-05-02T15:47:26Z</time></trkpt><trkpt lat="40.74423069001448" lon="8.824793609189708"><ele>395.25</ele><time>2026-05-02T15:47:27Z</time></trkpt><trkpt lat="40.744306251046254" lon="8.824891431655228"><ele>394.0</ele><time>2026-05-02T15:47:28Z</time></trkpt><trkpt lat="40.744397051914554" lon="8.824956459115096"><ele>394.0</ele><time>2026-05-02T15:47:29Z</time></trkpt><trkpt lat="40.74449531160091" lon="8.824955839038"><ele>394.0</ele><time>2026-05-02T15:47:30Z</time></trkpt><trkpt lat="40.74459930590833" lon="8.824894619441022"><ele>394.0</ele><time>2026-05-02T15:47:31Z</time></trkpt><trkpt lat="40.74467299596919" lon="8.82479398159241"><ele>394.0</ele><time>2026-05-02T15:47:32Z</time></trkpt><trkpt lat="40.74471977443596" lon="8.82468332523794"><ele>394.0</ele><time>2026-05-02T15:47:33Z</time></trkpt><trkpt lat="40.74477709081615" lon="8.824547737062229"><ele>394.0</ele><time>2026-05-02T15:47:34Z</time></trkpt><trkpt lat="40.74482666169977" lon="8.824408099013349"><ele>394.0</ele><time>2026-05-02T15:47:35Z</time></trkpt><trkpt lat="40.744893423329806" lon="8.82431078390236"><ele>394.0</ele><time>2026-05-02T15:47:36Z</time></trkpt><trkpt lat="40.744961864036895" lon="8.824263780778464"><ele>394.0</ele><time>2026-05-02T15:47:37Z</time></trkpt><trkpt lat="40.74504593635062" lon="8.824301649346777"><ele>394.0</ele><time>2026-05-02T15:47:38Z</time></trkpt><trkpt lat="40.74513093182838" lon="8.824364615226354"><ele>394.0</ele><time>2026-05-02T15:47:39Z</time></trkpt><trkpt lat="40.745202964284886" lon="8.824479032664438"><ele>394.0</ele><time>2026-05-02T15:47:40Z</time></trkpt><trkpt lat="40.745308797177124" lon="8.824605259047225"><ele>394.0</ele><time>2026-05-02T15:47:41Z</time></trkpt><trkpt lat="40.74541241690063" lon="8.824745460965332"><ele>394.0</ele><time>2026-05-02T15:47:42Z</time></trkpt><trkpt lat="40.74547394765342" lon="8.82489137356817"><ele>400.75</ele><time>2026-05-02T15:47:43Z</time></trkpt><trkpt lat="40.745482031803625" lon="8.825031522378715"><ele>407.5</ele><time>2026-05-02T15:47:44Z</time></trkpt><trkpt lat="40.74544252172638" lon="8.825179789396977"><ele>414.25</ele><time>2026-05-02T15:47:45Z</time></trkpt><trkpt lat="40.74542055405333" lon="8.825381707218849"><ele>421.0</ele><time>2026-05-02T15:47:46Z</time></trkpt><trkpt lat="40.74541576252068" lon="8.825616838636764"><ele>421.0</ele><time>2026-05-02T15:47:47Z</time></trkpt><trkpt lat="40.74545016486786" lon="8.82588392972888"><ele>421.0</ele><time>2026-05-02T15:47:48Z</time></trkpt><trkpt lat="40.74547607901332" lon="8.82617229875278"><ele>421.0</ele><time>2026-05-02T15:47:49Z</time></trkpt><trkpt lat="40.745491639482005" lon="8.826500017331291"><ele>420.0</ele><time>2026-05-02T15:47:50Z</time></trkpt><trkpt lat="40.74552268267647" lon="8.826838033241998"><ele>419.0</ele><time>2026-05-02T15:47:51Z</time></trkpt><trkpt lat="40.74555146837449" lon="8.82716143939033"><ele>419.0</ele><time>2026-05-02T15:47:52Z</time></trkpt><trkpt lat="40.74557723546046" lon="8.827430795214998"><ele>419.0</ele><time>2026-05-02T15:47:53Z</time></trkpt><trkpt lat="40.74563139484744" lon="8.827663261582028"><ele>419.0</ele><time>2026-05-02T15:47:54Z</time></trkpt><trkpt lat="40.745698570291395" lon="8.827873597705024"><ele>416.0</ele><time>2026-05-02T15:47:55Z</time></trkpt><trkpt lat="40.74581083064087" lon="8.828099169893456"><ele>413.0</ele><time>2026-05-02T15:47:56Z</time></trkpt><trkpt lat="40.745917298552754" lon="8.8282991240143"><ele>410.0</ele><time>2026-05-02T15:47:57Z</time></trkpt><trkpt lat="40.745993546203614" lon="8.828441413242848"><ele>410.75</ele><time>2026-05-02T15:47:58Z</time></trkpt><trkpt lat="40.746076867610064" lon="8.828531846347305"><ele>411.5</ele><time>2026-05-02T15:47:59Z</time></trkpt><trkpt lat="40.74617955021929" lon="8.828556393881676"><ele>412.25</ele><time>2026-05-02T15:48:00Z</time></trkpt><trkpt lat="40.746289752621244" lon="8.828500840417584"><ele>413.0</ele><time>2026-05-02T15:48:01Z</time></trkpt><trkpt lat="40.74638924157941" lon="8.828368056895668"><ele>413.0</ele><time>2026-05-02T15:48:02Z</time></trkpt><trkpt lat="40.74650412833555" lon="8.828176578037773"><ele>413.0</ele><time>2026-05-02T15:48:03Z</time></trkpt><trkpt lat="40.746644711321" lon="8.827955689883035"><ele>413.0</ele><time>2026-05-02T15:48:04Z</time></trkpt><trkpt lat="40.746823717050994" lon="8.827729196174479"><ele>418.0</ele><time>2026-05-02T15:48:05Z</time></trkpt><trkpt lat="40.74702815854965" lon="8.827519512740347"><ele>423.0</ele><time>2026-05-02T15:48:06Z</time></trkpt><trkpt lat="40.74725128779721" lon="8.827313159095889"><ele>423.0</ele><time>2026-05-02T15:48:07Z</time></trkpt><trkpt lat="40.747450070723936" lon="8.82715155798427"><ele>423.0</ele><time>2026-05-02T15:48:08Z</time></trkpt><trkpt lat="40.74761280874546" lon="8.827002454950465"><ele>423.0</ele><time>2026-05-02T15:48:09Z</time></trkpt><trkpt lat="40.74775085511394" lon="8.826866834122015"><ele>424.0</ele><time>2026-05-02T15:48:10Z</time></trkpt><trkpt lat="40.7478507804448" lon="8.826769377715054"><ele>425.0</ele><time>2026-05-02T15:48:11Z</time></trkpt><trkpt lat="40.747925580091525" lon="8.826693554421771"><ele>425.99999999999994</ele><time>2026-05-02T15:48:12Z</time></trkpt><trkpt lat="40.74799182098053" lon="8.826625333181259"><ele>427.0</ele><time>2026-05-02T15:48:13Z</time></trkpt><trkpt lat="40.74805900283952" lon="8.826530394215967"><ele>428.0</ele><time>2026-05-02T15:48:15Z</time></trkpt><trkpt lat="40.74818530085148" lon="8.826652313437076"><ele>428.0</ele><time>2026-05-02T15:48:16Z</time></trkpt><trkpt lat="40.748213610558466" lon="8.826773484662262"><ele>428.0</ele><time>2026-05-02T15:48:17Z</time></trkpt><trkpt lat="40.74828135152716" lon="8.82689226378573"><ele>428.0</ele><time>2026-05-02T15:48:18Z</time></trkpt><trkpt lat="40.7483533352886" lon="8.827038746666942"><ele>428.0</ele><time>2026-05-02T15:48:19Z</time></trkpt><trkpt lat="40.748425957233586" lon="8.82717952979634"><ele>428.0</ele><time>2026-05-02T15:48:20Z</time></trkpt><trkpt lat="40.74848543174638" lon="8.827294825692622"><ele>427.99999999999994</ele><time>2026-05-02T15:48:21Z</time></trkpt><trkpt lat="40.748537326481724" lon="8.827395428607613"><ele>427.99999999999994</ele><time>2026-05-02T15:48:22Z</time></trkpt><trkpt lat="40.74858536577433" lon="8.827488556469635"><ele>428.0</ele><time>2026-05-02T15:48:23Z</time></trkpt><trkpt lat="40.74863078559035" lon="8.827578105382072"><ele>428.0</ele><time>2026-05-02T15:48:24Z</time></trkpt><trkpt lat="40.74868716747539" lon="8.827680408839074"><ele>426.5</ele><time>2026-05-02T15:48:25Z</time></trkpt><trkpt lat="40.74873948752985" lon="8.827810747756843"><ele>425.0</ele><time>2026-05-02T15:48:26Z</time></trkpt><trkpt lat="40.748751509268736" lon="8.827974928616008"><ele>423.5</ele><time>2026-05-02T15:48:27Z</time></trkpt><trkpt lat="40.74878918643814" lon="8.828164271506665"><ele>422.0</ele><time>2026-05-02T15:48:28Z</time></trkpt><trkpt lat="40.74882789995412" lon="8.828381956472686"><ele>422.66666666666663</ele><time>2026-05-02T15:48:29Z</time></trkpt><trkpt lat="40.74887011031911" lon="8.828624935422955"><ele>423.33333333333337</ele><time>2026-05-02T15:48:30Z</time></trkpt><trkpt lat="40.74890472467103" lon="8.828833069150532"><ele>424.0</ele><time>2026-05-02T15:48:31Z</time></trkpt><trkpt lat="40.74892987349426" lon="8.82898428729442"><ele>424.00000000000006</ele><time>2026-05-02T15:48:32Z</time></trkpt><trkpt lat="40.74894564266896" lon="8.829079106247068"><ele>424.0</ele><time>2026-05-02T15:48:33Z</time></trkpt><trkpt lat="40.748961361357374" lon="8.829173621640356"><ele>424.0</ele><time>2026-05-02T15:48:34Z</time></trkpt><trkpt lat="40.74897769843875" lon="8.829271855376469"><ele>424.0</ele><time>2026-05-02T15:48:35Z</time></trkpt><trkpt lat="40.74899451842431" lon="8.829372992794353"><ele>424.00000000000006</ele><time>2026-05-02T15:48:36Z</time></trkpt><trkpt lat="40.74901159097488" lon="8.829471700480733"><ele>424.0</ele><time>2026-05-02T15:48:37Z</time></trkpt><trkpt lat="40.74902833388817" lon="8.829567668121134"><ele>423.4</ele><time>2026-05-02T15:48:38Z</time></trkpt><trkpt lat="40.74904313903981" lon="8.829652528827884"><ele>422.79999999999995</ele><time>2026-05-02T15:48:39Z</time></trkpt><trkpt lat="40.749070794989414" lon="8.829811048197055"><ele>422.20000000000005</ele><time>2026-05-02T15:48:41Z</time></trkpt><trkpt lat="40.74909790413178" lon="8.829966433362014"><ele>421.6</ele><time>2026-05-02T15:48:43Z</time></trkpt><trkpt lat="40.74912381413361" lon="8.830114945248193"><ele>421.0</ele><time>2026-05-02T15:48:45Z</time></trkpt><trkpt lat="40.749142777587565" lon="8.830223640663036"><ele>420.6666666666667</ele><time>2026-05-02T15:48:47Z</time></trkpt><trkpt lat="40.74916046845867" lon="8.83032504184018"><ele>420.33333333333337</ele><time>2026-05-02T15:48:49Z</time></trkpt><trkpt lat="40.74917776680559" lon="8.830424193134423"><ele>420.0</ele><time>2026-05-02T15:48:51Z</time></trkpt><trkpt lat="40.74919781392798" lon="8.830539099957852"><ele>419.66666666666663</ele><time>2026-05-02T15:48:53Z</time></trkpt><trkpt lat="40.749214937527256" lon="8.830637249625445"><ele>419.3333333333333</ele><time>2026-05-02T15:48:54Z</time></trkpt><trkpt lat="40.74923457275638" lon="8.830749795544591"><ele>419.0</ele><time>2026-05-02T15:48:55Z</time></trkpt><trkpt lat="40.74925614910911" lon="8.830873467666338"><ele>419.4</ele><time>2026-05-02T15:48:56Z</time></trkpt><trkpt lat="40.74927786783866" lon="8.830997955876546"><ele>419.79999999999995</ele><time>2026-05-02T15:48:57Z</time></trkpt><trkpt lat="40.74929951080735" lon="8.831122009832034"><ele>420.20000000000005</ele><time>2026-05-02T15:48:58Z</time></trkpt><trkpt lat="40.74932092440123" lon="8.83124431598065"><ele>420.6</ele><time>2026-05-02T15:48:59Z</time></trkpt><trkpt lat="40.74934563715164" lon="8.83138544486798"><ele>421.0</ele><time>2026-05-02T15:49:00Z</time></trkpt><trkpt lat="40.74937080029682" lon="8.831529145851214"><ele>419.0</ele><time>2026-05-02T15:49:01Z</time></trkpt><trkpt lat="40.7493973949342" lon="8.831681021767274"><ele>417.0</ele><time>2026-05-02T15:49:02Z</time></trkpt><trkpt lat="40.74942653231929" lon="8.831838813098997"><ele>415.0</ele><time>2026-05-02T15:49:03Z</time></trkpt><trkpt lat="40.74946747968556" lon="8.831998069964854"><ele>413.0</ele><time>2026-05-02T15:49:04Z</time></trkpt><trkpt lat="40.749539213731325" lon="8.832139416414213"><ele>413.0</ele><time>2026-05-02T15:49:05Z</time></trkpt><trkpt lat="40.74963480483622" lon="8.832269975476338"><ele>413.0</ele><time>2026-05-02T15:49:06Z</time></trkpt><trkpt lat="40.74973962727791" lon="8.83239697451484"><ele>413.0</ele><time>2026-05-02T15:49:07Z</time></trkpt><trkpt lat="40.7498366305535" lon="8.832517708098283"><ele>413.0</ele><time>2026-05-02T15:49:08Z</time></trkpt><trkpt lat="40.74989153780866" lon="8.832667575968014"><ele>412.75</ele><time>2026-05-02T15:49:09Z</time></trkpt><trkpt lat="40.749947790192095" lon="8.832826260416807"><ele>412.5</ele><time>2026-05-02T15:49:10Z</time></trkpt><trkpt lat="40.74998646710388" lon="8.832998278424284"><ele>412.25</ele><time>2026-05-02T15:49:11Z</time></trkpt><trkpt lat="40.75000513649819" lon="8.833181006327804"><ele>412.0</ele><time>2026-05-02T15:49:12Z</time></trkpt><trkpt lat="40.74999542441482" lon="8.833384542535011"><ele>409.33333333333337</ele><time>2026-05-02T15:49:13Z</time></trkpt><trkpt lat="40.74997215229667" lon="8.833608244431066"><ele>406.66666666666663</ele><time>2026-05-02T15:49:14Z</time></trkpt><trkpt lat="40.74994790567053" lon="8.833834344786691"><ele>404.0</ele><time>2026-05-02T15:49:15Z</time></trkpt><trkpt lat="40.749935953216536" lon="8.834067121017371"><ele>402.3333333333333</ele><time>2026-05-02T15:49:16Z</time></trkpt><trkpt lat="40.7498978565904" lon="8.834323364757392"><ele>400.66666666666663</ele><time>2026-05-02T15:49:17Z</time></trkpt><trkpt lat="40.74987617581432" lon="8.834582544291427"><ele>399.0</ele><time>2026-05-02T15:49:18Z</time></trkpt><trkpt lat="40.74989170533985" lon="8.83484438913731"><ele>399.0</ele><time>2026-05-02T15:49:19Z</time></trkpt><trkpt lat="40.749908031685024" lon="8.835099773024886"><ele>399.0</ele><time>2026-05-02T15:49:20Z</time></trkpt><trkpt lat="40.74992800517676" lon="8.835337561745003"><ele>399.0</ele><time>2026-05-02T15:49:21Z</time></trkpt><trkpt lat="40.74992730994961" lon="8.835573815719975"><ele>399.0</ele><time>2026-05-02T15:49:22Z</time></trkpt><trkpt lat="40.74993630798132" lon="8.835815882368353"><ele>399.0</ele><time>2026-05-02T15:49:23Z</time></trkpt><trkpt lat="40.74994001674277" lon="8.836058708450892"><ele>399.0</ele><time>2026-05-02T15:49:24Z</time></trkpt><trkpt lat="40.74994246321422" lon="8.836302341883215"><ele>399.0</ele><time>2026-05-02T15:49:25Z</time></trkpt><trkpt lat="40.74994866238851" lon="8.836530071529912"><ele>399.0</ele><time>2026-05-02T15:49:26Z</time></trkpt><trkpt lat="40.7499809262251" lon="8.836738644182136"><ele>399.0</ele><time>2026-05-02T15:49:27Z</time></trkpt><trkpt lat="40.750017450103556" lon="8.836936749862895"><ele>401.66666666666663</ele><time>2026-05-02T15:49:28Z</time></trkpt><trkpt lat="40.75007542514151" lon="8.837124147975244"><ele>404.3333333333333</ele><time>2026-05-02T15:49:29Z</time></trkpt><trkpt lat="40.750159638525034" lon="8.837294533613566"><ele>407.0</ele><time>2026-05-02T15:49:30Z</time></trkpt><trkpt lat="40.75027356780329" lon="8.83744883093642"><ele>401.5</ele><time>2026-05-02T15:49:31Z</time></trkpt><trkpt lat="40.75038747436437" lon="8.837595677049354"><ele>396.0</ele><time>2026-05-02T15:49:32Z</time></trkpt><trkpt lat="40.75047040904076" lon="8.83775133864496"><ele>390.5</ele><time>2026-05-02T15:49:33Z</time></trkpt><trkpt lat="40.75053162596447" lon="8.837896983533343"><ele>385.0</ele><time>2026-05-02T15:49:34Z</time></trkpt><trkpt lat="40.75054753694214" lon="8.838047254293565"><ele>383.0</ele><time>2026-05-02T15:49:35Z</time></trkpt><trkpt lat="40.75051780460578" lon="8.838193262509588"><ele>381.0</ele><time>2026-05-02T15:49:36Z</time></trkpt><trkpt lat="40.75044867308514" lon="8.838333011096971"><ele>379.0</ele><time>2026-05-02T15:49:37Z</time></trkpt><trkpt lat="40.75035750148297" lon="8.83850177481502"><ele>377.0</ele><time>2026-05-02T15:49:38Z</time></trkpt><trkpt lat="40.75025860294677" lon="8.838673282388143"><ele>378.6666666666667</ele><time>2026-05-02T15:49:39Z</time></trkpt><trkpt lat="40.75014467129157" lon="8.838872860927271"><ele>380.3333333333333</ele><time>2026-05-02T15:49:40Z</time></trkpt><trkpt lat="40.750029063514475" lon="8.83906379357413"><ele>382.0</ele><time>2026-05-02T15:49:41Z</time></trkpt><trkpt lat="40.74988471250665" lon="8.839234573932329"><ele>375.3333333333333</ele><time>2026-05-02T15:49:42Z</time></trkpt><trkpt lat="40.74974757354582" lon="8.83941512002167"><ele>368.6666666666667</ele><time>2026-05-02T15:49:43Z</time></trkpt><trkpt lat="40.749610268180106" lon="8.83956276491557"><ele>362.0</ele><time>2026-05-02T15:49:44Z</time></trkpt><trkpt lat="40.7494684205894" lon="8.839703843301372"><ele>365.25</ele><time>2026-05-02T15:49:45Z</time></trkpt><trkpt lat="40.74934413744495" lon="8.839839893078365"><ele>368.5</ele><time>2026-05-02T15:49:46Z</time></trkpt><trkpt lat="40.749250709069926" lon="8.839970550686571"><ele>371.75</ele><time>2026-05-02T15:49:47Z</time></trkpt><trkpt lat="40.74914276857412" lon="8.840046686069774"><ele>375.0</ele><time>2026-05-02T15:49:48Z</time></trkpt><trkpt lat="40.749012895079204" lon="8.840072174900913"><ele>375.0</ele><time>2026-05-02T15:49:49Z</time></trkpt><trkpt lat="40.7488906068691" lon="8.84007142534124"><ele>375.0</ele><time>2026-05-02T15:49:50Z</time></trkpt><trkpt lat="40.748806047258455" lon="8.840094472221647"><ele>375.0</ele><time>2026-05-02T15:49:51Z</time></trkpt><trkpt lat="40.748739341361514" lon="8.840170743778176"><ele>375.0</ele><time>2026-05-02T15:49:52Z</time></trkpt><trkpt lat="40.748705582243765" lon="8.840277730099643"><ele>375.0</ele><time>2026-05-02T15:49:53Z</time></trkpt><trkpt lat="40.748722781950114" lon="8.840401380310942"><ele>370.25</ele><time>2026-05-02T15:49:54Z</time></trkpt><trkpt lat="40.74878929347366" lon="8.840500053258681"><ele>365.5</ele><time>2026-05-02T15:49:55Z</time></trkpt><trkpt lat="40.74888171342547" lon="8.840564903762317"><ele>360.75</ele><time>2026-05-02T15:49:56Z</time></trkpt><trkpt lat="40.749006080309805" lon="8.840521806731854"><ele>356.0</ele><time>2026-05-02T15:49:57Z</time></trkpt><trkpt lat="40.74912316624419" lon="8.840462717452459"><ele>356.0</ele><time>2026-05-02T15:49:58Z</time></trkpt><trkpt lat="40.749241785811634" lon="8.840385511105751"><ele>356.0</ele><time>2026-05-02T15:49:59Z</time></trkpt><trkpt lat="40.74938074548956" lon="8.840302505856448"><ele>356.0</ele><time>2026-05-02T15:50:00Z</time></trkpt><trkpt lat="40.749532833007436" lon="8.840207074823102"><ele>358.0</ele><time>2026-05-02T15:50:01Z</time></trkpt><trkpt lat="40.74968045689015" lon="8.84010515383779"><ele>360.0</ele><time>2026-05-02T15:50:02Z</time></trkpt><trkpt lat="40.74985182160276" lon="8.839998959340523"><ele>362.0</ele><time>2026-05-02T15:50:03Z</time></trkpt><trkpt lat="40.750018182450326" lon="8.839929577416244"><ele>362.0</ele><time>2026-05-02T15:50:04Z</time></trkpt><trkpt lat="40.75017426126065" lon="8.839874329094188"><ele>362.0</ele><time>2026-05-02T15:50:05Z</time></trkpt><trkpt lat="40.7503523081776" lon="8.839842274590463"><ele>362.0</ele><time>2026-05-02T15:50:06Z</time></trkpt><trkpt lat="40.750523323917726" lon="8.83983581040116"><ele>359.5</ele><time>2026-05-02T15:50:07Z</time></trkpt><trkpt lat="40.75067897950879" lon="8.839838907911297"><ele>357.0</ele><time>2026-05-02T15:50:08Z</time></trkpt><trkpt lat="40.750824537870514" lon="8.839860246714224"><ele>354.5</ele><time>2026-05-02T15:50:09Z</time></trkpt><trkpt lat="40.75093472628145" lon="8.839919320392763"><ele>352.0</ele><time>2026-05-02T15:50:10Z</time></trkpt><trkpt lat="40.75103302659106" lon="8.839995778172089"><ele>350.5</ele><time>2026-05-02T15:50:11Z</time></trkpt><trkpt lat="40.75112288590802" lon="8.840082707581466"><ele>349.0</ele><time>2026-05-02T15:50:12Z</time></trkpt><trkpt lat="40.75119480628998" lon="8.840230970745516"><ele>347.5</ele><time>2026-05-02T15:50:13Z</time></trkpt><trkpt lat="40.75125012536968" lon="8.840400203928859"><ele>346.0</ele><time>2026-05-02T15:50:14Z</time></trkpt><trkpt lat="40.75126514632322" lon="8.840583622218029"><ele>346.0</ele><time>2026-05-02T15:50:15Z</time></trkpt><trkpt lat="40.751278405003895" lon="8.840779782340821"><ele>346.0</ele><time>2026-05-02T15:50:16Z</time></trkpt><trkpt lat="40.7512242578665" lon="8.84094522582001"><ele>346.0</ele><time>2026-05-02T15:50:17Z</time></trkpt><trkpt lat="40.75114760659037" lon="8.841103822032611"><ele>346.0</ele><time>2026-05-02T15:50:18Z</time></trkpt><trkpt lat="40.751040342701124" lon="8.841264644162802"><ele>344.3333333333333</ele><time>2026-05-02T15:50:19Z</time></trkpt><trkpt lat="40.75093126951019" lon="8.84144406830264"><ele>342.6666666666667</ele><time>2026-05-02T15:50:20Z</time></trkpt><trkpt lat="40.75081671116259" lon="8.841614609216519"><ele>341.0</ele><time>2026-05-02T15:50:21Z</time></trkpt><trkpt lat="40.75072665849387" lon="8.841781888777085"><ele>340.0</ele><time>2026-05-02T15:50:22Z</time></trkpt><trkpt lat="40.75065757809157" lon="8.841958912983937"><ele>339.0</ele><time>2026-05-02T15:50:23Z</time></trkpt><trkpt lat="40.75061326578953" lon="8.842149126301345"><ele>338.0</ele><time>2026-05-02T15:50:24Z</time></trkpt><trkpt lat="40.750596548842786" lon="8.84234140081769"><ele>337.0</ele><time>2026-05-02T15:50:25Z</time></trkpt><trkpt lat="40.750599107813706" lon="8.8425292370389"><ele>336.75</ele><time>2026-05-02T15:50:26Z</time></trkpt><trkpt lat="40.750626276790754" lon="8.84271840452143"><ele>336.5</ele><time>2026-05-02T15:50:27Z</time></trkpt><trkpt lat="40.7506651671209" lon="8.842904520333903"><ele>336.25</ele><time>2026-05-02T15:50:28Z</time></trkpt><trkpt lat="40.750685496674315" lon="8.84310761701261"><ele>336.0</ele><time>2026-05-02T15:50:29Z</time></trkpt><trkpt lat="40.750724261418426" lon="8.843324873158343"><ele>336.6666666666667</ele><time>2026-05-02T15:50:30Z</time></trkpt><trkpt lat="40.75077903882033" lon="8.84355140818387"><ele>337.33333333333337</ele><time>2026-05-02T15:50:31Z</time></trkpt><trkpt lat="40.75082026540154" lon="8.843785564399084"><ele>338.0</ele><time>2026-05-02T15:50:32Z</time></trkpt><trkpt lat="40.7508624414323" lon="8.844024430371181"><ele>338.0</ele><time>2026-05-02T15:50:33Z</time></trkpt><trkpt lat="40.75089489409766" lon="8.844269030900879"><ele>338.0</ele><time>2026-05-02T15:50:34Z</time></trkpt><trkpt lat="40.750920320327715" lon="8.844532963491774"><ele>338.0</ele><time>2026-05-02T15:50:35Z</time></trkpt><trkpt lat="40.75093316046679" lon="8.84479685522862"><ele>338.25</ele><time>2026-05-02T15:50:36Z</time></trkpt><trkpt lat="40.75093316102232" lon="8.844998714479757"><ele>338.5</ele><time>2026-05-02T15:50:37Z</time></trkpt><trkpt lat="40.750916863105864" lon="8.845168677095884"><ele>338.75</ele><time>2026-05-02T15:50:38Z</time></trkpt><trkpt lat="40.75087511408669" lon="8.84529478826499"><ele>339.0</ele><time>2026-05-02T15:50:39Z</time></trkpt><trkpt lat="40.750880897869166" lon="8.845385475737734"><ele>339.0</ele><time>2026-05-02T15:50:40Z</time></trkpt><trkpt lat="40.75072551228682" lon="8.845439459804528"><ele>339.0</ele><time>2026-05-02T15:50:41Z</time></trkpt><trkpt lat="40.75062537846404" lon="8.84546740334861"><ele>339.0</ele><time>2026-05-02T15:50:42Z</time></trkpt><trkpt lat="40.750511858281214" lon="8.84546081079086"><ele>339.0</ele><time>2026-05-02T15:50:43Z</time></trkpt><trkpt lat="40.7504146762504" lon="8.845400115538062"><ele>339.0</ele><time>2026-05-02T15:50:44Z</time></trkpt><trkpt lat="40.75032478192177" lon="8.845327716954948"><ele>339.0</ele><time>2026-05-02T15:50:45Z</time></trkpt><trkpt lat="40.75025798584882" lon="8.845148422595406"><ele>339.0</ele><time>2026-05-02T15:50:46Z</time></trkpt><trkpt lat="40.75018777222645" lon="8.84497043709459"><ele>339.0</ele><time>2026-05-02T15:50:47Z</time></trkpt><trkpt lat="40.75011333880158" lon="8.844769063555164"><ele>340.0</ele><time>2026-05-02T15:50:48Z</time></trkpt><trkpt lat="40.75004042566363" lon="8.844562378863971"><ele>341.0</ele><time>2026-05-02T15:50:49Z</time></trkpt><trkpt lat="40.74995571284142" lon="8.844371396153326"><ele>342.0</ele><time>2026-05-02T15:50:50Z</time></trkpt><trkpt lat="40.749876334034894" lon="8.844176255303493"><ele>342.0</ele><time>2026-05-02T15:50:51Z</time></trkpt><trkpt lat="40.74979878977681" lon="8.843985624409003"><ele>342.0</ele><time>2026-05-02T15:50:52Z</time></trkpt><trkpt lat="40.749725490685854" lon="8.843805838392159"><ele>342.0</ele><time>2026-05-02T15:50:53Z</time></trkpt><trkpt lat="40.749609229945385" lon="8.843566846105576"><ele>341.6</ele><time>2026-05-02T15:50:55Z</time></trkpt><trkpt lat="40.749559042744536" lon="8.843440486875366"><ele>341.20000000000005</ele><time>2026-05-02T15:50:56Z</time></trkpt><trkpt lat="40.74952103410486" lon="8.843322352349253"><ele>340.8</ele><time>2026-05-02T15:50:57Z</time></trkpt><trkpt lat="40.74951760893064" lon="8.84319533774089"><ele>340.4</ele><time>2026-05-02T15:50:58Z</time></trkpt><trkpt lat="40.749550298531254" lon="8.843065177088944"><ele>340.0</ele><time>2026-05-02T15:50:59Z</time></trkpt><trkpt lat="40.74961861175749" lon="8.842960664938643"><ele>340.0</ele><time>2026-05-02T15:51:00Z</time></trkpt><trkpt lat="40.74973257304202" lon="8.842936784295494"><ele>340.0</ele><time>2026-05-02T15:51:01Z</time></trkpt><trkpt lat="40.74984701937064" lon="8.842930104103687"><ele>340.0</ele><time>2026-05-02T15:51:02Z</time></trkpt><trkpt lat="40.749964363777956" lon="8.84295561247464"><ele>340.0</ele><time>2026-05-02T15:51:03Z</time></trkpt><trkpt lat="40.75009401091274" lon="8.84306127412579"><ele>338.66666666666663</ele><time>2026-05-02T15:51:04Z</time></trkpt><trkpt lat="40.75024901028787" lon="8.843183208584149"><ele>337.3333333333333</ele><time>2026-05-02T15:51:05Z</time></trkpt><trkpt lat="40.75042439124684" lon="8.843306636418507"><ele>336.0</ele><time>2026-05-02T15:51:06Z</time></trkpt><trkpt lat="40.750612059592186" lon="8.843445842243872"><ele>336.6666666666667</ele><time>2026-05-02T15:51:07Z</time></trkpt><trkpt lat="40.75080311076668" lon="8.84359208222075"><ele>337.33333333333337</ele><time>2026-05-02T15:51:08Z</time></trkpt><trkpt lat="40.75099732464721" lon="8.84374384224444"><ele>338.0</ele><time>2026-05-02T15:51:09Z</time></trkpt><trkpt lat="40.751197723892496" lon="8.843894379716158"><ele>333.0</ele><time>2026-05-02T15:51:10Z</time></trkpt><trkpt lat="40.75139557518015" lon="8.844039579979352"><ele>328.0</ele><time>2026-05-02T15:51:11Z</time></trkpt><trkpt lat="40.75159315042491" lon="8.844195684755213"><ele>328.0</ele><time>2026-05-02T15:51:12Z</time></trkpt><trkpt lat="40.75179301600186" lon="8.844366259678255"><ele>328.0</ele><time>2026-05-02T15:51:13Z</time></trkpt><trkpt lat="40.75199955439929" lon="8.84453585526678"><ele>325.5</ele><time>2026-05-02T15:51:14Z</time></trkpt><trkpt lat="40.752209153696356" lon="8.84471315972853"><ele>323.0</ele><time>2026-05-02T15:51:15Z</time></trkpt><trkpt lat="40.752427970718905" lon="8.844893314730072"><ele>323.0</ele><time>2026-05-02T15:51:15.999Z</time></trkpt><trkpt lat="40.75264000185763" lon="8.845072067451477"><ele>323.0</ele><time>2026-05-02T15:51:16.999Z</time></trkpt><trkpt lat="40.75285609669813" lon="8.845252532468946"><ele>320.5</ele><time>2026-05-02T15:51:17.999Z</time></trkpt><trkpt lat="40.75307263616078" lon="8.845436059946723"><ele>318.0</ele><time>2026-05-02T15:51:18.999Z</time></trkpt><trkpt lat="40.75330014910093" lon="8.845613889034668"><ele>318.0</ele><time>2026-05-02T15:51:20Z</time></trkpt><trkpt lat="40.75353213854578" lon="8.845795837793691"><ele>318.0</ele><time>2026-05-02T15:51:21Z</time></trkpt><trkpt lat="40.75376747311212" lon="8.845969908738553"><ele>318.0</ele><time>2026-05-02T15:51:22Z</time></trkpt><trkpt lat="40.75400350006906" lon="8.846137629477688"><ele>318.0</ele><time>2026-05-02T15:51:23Z</time></trkpt><trkpt lat="40.75423870793659" lon="8.846297046017323"><ele>315.0</ele><time>2026-05-02T15:51:24Z</time></trkpt><trkpt lat="40.754474088708115" lon="8.846453839039683"><ele>312.0</ele><time>2026-05-02T15:51:25Z</time></trkpt><trkpt lat="40.754707665972305" lon="8.846608158865283"><ele>312.0</ele><time>2026-05-02T15:51:26Z</time></trkpt><trkpt lat="40.75493969211513" lon="8.846757185278985"><ele>312.0</ele><time>2026-05-02T15:51:27Z</time></trkpt><trkpt lat="40.75517983992644" lon="8.846906363780983"><ele>310.0</ele><time>2026-05-02T15:51:28Z</time></trkpt><trkpt lat="40.75540975309671" lon="8.84705147380511"><ele>308.0</ele><time>2026-05-02T15:51:29Z</time></trkpt><trkpt lat="40.755640943777635" lon="8.847192096156014"><ele>308.0</ele><time>2026-05-02T15:51:30Z</time></trkpt><trkpt lat="40.75587174293305" lon="8.847334230300039"><ele>308.0</ele><time>2026-05-02T15:51:31Z</time></trkpt><trkpt lat="40.75610051824676" lon="8.84747826976755"><ele>305.5</ele><time>2026-05-02T15:51:32Z</time></trkpt><trkpt lat="40.75632802725103" lon="8.847625521080323"><ele>303.0</ele><time>2026-05-02T15:51:33Z</time></trkpt><trkpt lat="40.756556189176344" lon="8.847774999755787"><ele>303.0</ele><time>2026-05-02T15:51:34Z</time></trkpt><trkpt lat="40.75678265499045" lon="8.847930299024666"><ele>303.0</ele><time>2026-05-02T15:51:35Z</time></trkpt><trkpt lat="40.756999208455966" lon="8.848098571355226"><ele>300.0</ele><time>2026-05-02T15:51:36Z</time></trkpt><trkpt lat="40.7572417906774" lon="8.848256109145993"><ele>297.0</ele><time>2026-05-02T15:51:37Z</time></trkpt><trkpt lat="40.757461463122134" lon="8.848419756179494"><ele>299.0</ele><time>2026-05-02T15:51:38Z</time></trkpt><trkpt lat="40.75769073147562" lon="8.848583316662694"><ele>301.0</ele><time>2026-05-02T15:51:39Z</time></trkpt><trkpt lat="40.75792678945017" lon="8.848748683105637"><ele>297.0</ele><time>2026-05-02T15:51:40Z</time></trkpt><trkpt lat="40.75816377369105" lon="8.84891435365327"><ele>293.0</ele><time>2026-05-02T15:51:41Z</time></trkpt><trkpt lat="40.75840031792122" lon="8.849085762268187"><ele>291.5</ele><time>2026-05-02T15:51:42Z</time></trkpt><trkpt lat="40.758641447838166" lon="8.849260516930208"><ele>290.0</ele><time>2026-05-02T15:51:43Z</time></trkpt><trkpt lat="40.75888070991873" lon="8.849438663053776"><ele>290.0</ele><time>2026-05-02T15:51:44Z</time></trkpt><trkpt lat="40.759128786350985" lon="8.849617004299171"><ele>290.0</ele><time>2026-05-02T15:51:45Z</time></trkpt><trkpt lat="40.759369791441344" lon="8.849788277627336"><ele>287.0</ele><time>2026-05-02T15:51:46Z</time></trkpt><trkpt lat="40.759622377479516" lon="8.849974649214248"><ele>284.0</ele><time>2026-05-02T15:51:47Z</time></trkpt><trkpt lat="40.75987084388169" lon="8.85014572761923"><ele>284.0</ele><time>2026-05-02T15:51:48Z</time></trkpt><trkpt lat="40.76011883360046" lon="8.850324953717642"><ele>284.0</ele><time>2026-05-02T15:51:49Z</time></trkpt><trkpt lat="40.76036237510825" lon="8.850526674226339"><ele>280.0</ele><time>2026-05-02T15:51:50Z</time></trkpt><trkpt lat="40.76061567287506" lon="8.85069132555951"><ele>276.0</ele><time>2026-05-02T15:51:51Z</time></trkpt><trkpt lat="40.760857931686516" lon="8.85087709451384"><ele>273.5</ele><time>2026-05-02T15:51:52Z</time></trkpt><trkpt lat="40.76109188753972" lon="8.851046435817087"><ele>271.0</ele><time>2026-05-02T15:51:53Z</time></trkpt><trkpt lat="40.76132203480526" lon="8.851212824016864"><ele>271.0</ele><time>2026-05-02T15:51:54Z</time></trkpt><trkpt lat="40.76155324663735" lon="8.851376021224533"><ele>271.0</ele><time>2026-05-02T15:51:55Z</time></trkpt><trkpt lat="40.76178548147217" lon="8.851545542542292"><ele>268.5</ele><time>2026-05-02T15:51:56Z</time></trkpt><trkpt lat="40.76201831516448" lon="8.851715152897095"><ele>266.0</ele><time>2026-05-02T15:51:57Z</time></trkpt><trkpt lat="40.762252416110506" lon="8.851879774437762"><ele>266.0</ele><time>2026-05-02T15:51:58Z</time></trkpt><trkpt lat="40.76248780470626" lon="8.852042686649634"><ele>266.0</ele><time>2026-05-02T15:51:59Z</time></trkpt><trkpt lat="40.76272318546246" lon="8.852212034204882"><ele>263.5</ele><time>2026-05-02T15:52:00Z</time></trkpt><trkpt lat="40.762958680822706" lon="8.852381573255864"><ele>261.0</ele><time>2026-05-02T15:52:01Z</time></trkpt><trkpt lat="40.7631892375986" lon="8.852559517234136"><ele>260.0</ele><time>2026-05-02T15:52:02Z</time></trkpt><trkpt lat="40.76343064904484" lon="8.852721138257262"><ele>259.0</ele><time>2026-05-02T15:52:03Z</time></trkpt><trkpt lat="40.76366013804453" lon="8.852899316463404"><ele>259.0</ele><time>2026-05-02T15:52:04Z</time></trkpt><trkpt lat="40.76389952686513" lon="8.85307010405994"><ele>259.0</ele><time>2026-05-02T15:52:05Z</time></trkpt><trkpt lat="40.7641398858285" lon="8.853242443463357"><ele>258.0</ele><time>2026-05-02T15:52:06Z</time></trkpt><trkpt lat="40.76438116528841" lon="8.85341655549034"><ele>257.0</ele><time>2026-05-02T15:52:07Z</time></trkpt><trkpt lat="40.76462157293576" lon="8.85359023827495"><ele>256.5</ele><time>2026-05-02T15:52:08Z</time></trkpt><trkpt lat="40.76486023037429" lon="8.853765752512167"><ele>256.0</ele><time>2026-05-02T15:52:09Z</time></trkpt><trkpt lat="40.76510327944744" lon="8.853936654413804"><ele>255.0</ele><time>2026-05-02T15:52:10Z</time></trkpt><trkpt lat="40.765345944883876" lon="8.854111420816627"><ele>254.0</ele><time>2026-05-02T15:52:11Z</time></trkpt><trkpt lat="40.76558985356161" lon="8.854288305642232"><ele>253.5</ele><time>2026-05-02T15:52:12Z</time></trkpt><trkpt lat="40.765832208105614" lon="8.854465574396539"><ele>253.0</ele><time>2026-05-02T15:52:13Z</time></trkpt><trkpt lat="40.766073682924464" lon="8.854642219904424"><ele>251.5</ele><time>2026-05-02T15:52:14Z</time></trkpt><trkpt lat="40.76631486086986" lon="8.854818098214064"><ele>250.0</ele><time>2026-05-02T15:52:15Z</time></trkpt><trkpt lat="40.766561947817486" lon="8.854994235833514"><ele>246.0</ele><time>2026-05-02T15:52:16Z</time></trkpt><trkpt lat="40.76680974527433" lon="8.85516889001799"><ele>242.0</ele><time>2026-05-02T15:52:17Z</time></trkpt><trkpt lat="40.767062621709485" lon="8.855337293540881"><ele>241.5</ele><time>2026-05-02T15:52:18Z</time></trkpt><trkpt lat="40.767319890418094" lon="8.855497972771573"><ele>241.0</ele><time>2026-05-02T15:52:19Z</time></trkpt><trkpt lat="40.76758383353421" lon="8.85564218527076"><ele>240.5</ele><time>2026-05-02T15:52:20Z</time></trkpt><trkpt lat="40.767850552400425" lon="8.855783406783132"><ele>240.0</ele><time>2026-05-02T15:52:21Z</time></trkpt><trkpt lat="40.768116608840415" lon="8.855915339721957"><ele>236.0</ele><time>2026-05-02T15:52:22Z</time></trkpt><trkpt lat="40.76838487472039" lon="8.856035720259209"><ele>232.0</ele><time>2026-05-02T15:52:23Z</time></trkpt><trkpt lat="40.76865507310349" lon="8.856143583836218"><ele>228.0</ele><time>2026-05-02T15:52:24Z</time></trkpt><trkpt lat="40.768927261901695" lon="8.856243451493228"><ele>224.0</ele><time>2026-05-02T15:52:25Z</time></trkpt><trkpt lat="40.76919678660866" lon="8.856346936614036"><ele>220.5</ele><time>2026-05-02T15:52:26Z</time></trkpt><trkpt lat="40.76946394747978" lon="8.856448330546222"><ele>217.0</ele><time>2026-05-02T15:52:27Z</time></trkpt><trkpt lat="40.76972432169456" lon="8.856548838608356"><ele>217.0</ele><time>2026-05-02T15:52:28Z</time></trkpt><trkpt lat="40.769988628103725" lon="8.856645388941754"><ele>217.0</ele><time>2026-05-02T15:52:29Z</time></trkpt><trkpt lat="40.770257517933096" lon="8.856742851320421"><ele>214.5</ele><time>2026-05-02T15:52:30Z</time></trkpt><trkpt lat="40.770528606874784" lon="8.856840957008512"><ele>212.0</ele><time>2026-05-02T15:52:31Z</time></trkpt><trkpt lat="40.77080024333379" lon="8.856939811612435"><ele>210.5</ele><time>2026-05-02T15:52:32Z</time></trkpt><trkpt lat="40.77107193061252" lon="8.857039607277997"><ele>209.0</ele><time>2026-05-02T15:52:33Z</time></trkpt><trkpt lat="40.77134080038013" lon="8.85713572216814"><ele>209.0</ele><time>2026-05-02T15:52:34Z</time></trkpt><trkpt lat="40.771608766202725" lon="8.857231132518574"><ele>209.0</ele><time>2026-05-02T15:52:35Z</time></trkpt><trkpt lat="40.77187655312005" lon="8.85732866328035"><ele>206.0</ele><time>2026-05-02T15:52:36Z</time></trkpt><trkpt lat="40.772143762682006" lon="8.857427556928691"><ele>203.0</ele><time>2026-05-02T15:52:37Z</time></trkpt><trkpt lat="40.77240770079316" lon="8.857527037858302"><ele>202.5</ele><time>2026-05-02T15:52:38Z</time></trkpt><trkpt lat="40.77267339888845" lon="8.857626021682023"><ele>202.0</ele><time>2026-05-02T15:52:39Z</time></trkpt><trkpt lat="40.7729376728953" lon="8.85772297235991"><ele>200.5</ele><time>2026-05-02T15:52:40Z</time></trkpt><trkpt lat="40.7731988568004" lon="8.857820719083659"><ele>199.0</ele><time>2026-05-02T15:52:41Z</time></trkpt><trkpt lat="40.77346399923912" lon="8.857916415168555"><ele>198.5</ele><time>2026-05-02T15:52:42Z</time></trkpt><trkpt lat="40.77372982947602" lon="8.85801402956303"><ele>198.0</ele><time>2026-05-02T15:52:43Z</time></trkpt><trkpt lat="40.77399091439475" lon="8.858123719670093"><ele>198.0</ele><time>2026-05-02T15:52:44Z</time></trkpt><trkpt lat="40.7742516212139" lon="8.858242790386944"><ele>198.0</ele><time>2026-05-02T15:52:45Z</time></trkpt><trkpt lat="40.77451291578622" lon="8.858364823446031"><ele>194.0</ele><time>2026-05-02T15:52:46Z</time></trkpt><trkpt lat="40.77476971925093" lon="8.858492103123467"><ele>190.0</ele><time>2026-05-02T15:52:47Z</time></trkpt><trkpt lat="40.77502906388374" lon="8.858612403850094"><ele>188.0</ele><time>2026-05-02T15:52:48Z</time></trkpt><trkpt lat="40.77528696633892" lon="8.858734608862846"><ele>186.0</ele><time>2026-05-02T15:52:49Z</time></trkpt><trkpt lat="40.775538175031905" lon="8.8588605249404"><ele>186.0</ele><time>2026-05-02T15:52:50Z</time></trkpt><trkpt lat="40.77580040349495" lon="8.858982944396775"><ele>186.0</ele><time>2026-05-02T15:52:51Z</time></trkpt><trkpt lat="40.77605641542467" lon="8.859109950994098"><ele>185.0</ele><time>2026-05-02T15:52:52Z</time></trkpt><trkpt lat="40.776311937102" lon="8.859237947230515"><ele>184.0</ele><time>2026-05-02T15:52:53Z</time></trkpt><trkpt lat="40.77656811462021" lon="8.859362781532301"><ele>184.0</ele><time>2026-05-02T15:52:54Z</time></trkpt><trkpt lat="40.77682470979302" lon="8.859485545566638"><ele>184.0</ele><time>2026-05-02T15:52:55Z</time></trkpt><trkpt lat="40.77707871463481" lon="8.859608871627547"><ele>182.5</ele><time>2026-05-02T15:52:56Z</time></trkpt><trkpt lat="40.77733291564678" lon="8.859730429639537"><ele>181.0</ele><time>2026-05-02T15:52:57Z</time></trkpt><trkpt lat="40.7775831632898" lon="8.859849275733568"><ele>180.0</ele><time>2026-05-02T15:52:58Z</time></trkpt><trkpt lat="40.77783387703457" lon="8.859969269768555"><ele>179.0</ele><time>2026-05-02T15:52:59Z</time></trkpt><trkpt lat="40.77808231311438" lon="8.860089056465466"><ele>179.5</ele><time>2026-05-02T15:53:00Z</time></trkpt><trkpt lat="40.778331012982385" lon="8.860208773588358"><ele>180.0</ele><time>2026-05-02T15:53:01Z</time></trkpt><trkpt lat="40.77858274157163" lon="8.860328830885042"><ele>178.5</ele><time>2026-05-02T15:53:02Z</time></trkpt><trkpt lat="40.77883596097274" lon="8.860450533292141"><ele>177.0</ele><time>2026-05-02T15:53:03Z</time></trkpt><trkpt lat="40.77909154052212" lon="8.860575453033956"><ele>177.0</ele><time>2026-05-02T15:53:04Z</time></trkpt><trkpt lat="40.779348177910116" lon="8.860698506179936"><ele>177.0</ele><time>2026-05-02T15:53:05Z</time></trkpt><trkpt lat="40.77960587900157" lon="8.860823665745547"><ele>175.0</ele><time>2026-05-02T15:53:06Z</time></trkpt><trkpt lat="40.77986550035236" lon="8.860949380436104"><ele>173.0</ele><time>2026-05-02T15:53:07Z</time></trkpt><trkpt lat="40.78013219591226" lon="8.861073017492812"><ele>172.5</ele><time>2026-05-02T15:53:08Z</time></trkpt><trkpt lat="40.78040011002966" lon="8.861202946965394"><ele>172.0</ele><time>2026-05-02T15:53:09Z</time></trkpt><trkpt lat="40.78066668069126" lon="8.861330549342977"><ele>172.0</ele><time>2026-05-02T15:53:10Z</time></trkpt><trkpt lat="40.78093462796311" lon="8.861462197262565"><ele>172.0</ele><time>2026-05-02T15:53:11Z</time></trkpt><trkpt lat="40.781204777999406" lon="8.861588579391915"><ele>172.0</ele><time>2026-05-02T15:53:12Z</time></trkpt><trkpt lat="40.781473736808955" lon="8.861718957902376"><ele>172.0</ele><time>2026-05-02T15:53:13Z</time></trkpt><trkpt lat="40.781742452851" lon="8.861847640083216"><ele>169.5</ele><time>2026-05-02T15:53:14Z</time></trkpt><trkpt lat="40.78201180982107" lon="8.861974317783135"><ele>167.0</ele><time>2026-05-02T15:53:15Z</time></trkpt><trkpt lat="40.782282570112095" lon="8.862099298960223"><ele>167.0</ele><time>2026-05-02T15:53:16Z</time></trkpt><trkpt lat="40.78255088895112" lon="8.86221525706647"><ele>167.0</ele><time>2026-05-02T15:53:17Z</time></trkpt><trkpt lat="40.78282148636082" lon="8.862330365348353"><ele>163.5</ele><time>2026-05-02T15:53:18Z</time></trkpt><trkpt lat="40.78309084772331" lon="8.862444542442727"><ele>160.0</ele><time>2026-05-02T15:53:19Z</time></trkpt><trkpt lat="40.78336031953881" lon="8.862558290079228"><ele>158.0</ele><time>2026-05-02T15:53:20Z</time></trkpt><trkpt lat="40.78362872096044" lon="8.86267222126941"><ele>156.0</ele><time>2026-05-02T15:53:21Z</time></trkpt><trkpt lat="40.783896753001" lon="8.86278435683409"><ele>156.0</ele><time>2026-05-02T15:53:22Z</time></trkpt><trkpt lat="40.78416549714151" lon="8.862896939942974"><ele>156.0</ele><time>2026-05-02T15:53:23Z</time></trkpt><trkpt lat="40.784433934551686" lon="8.86300665924572"><ele>154.0</ele><time>2026-05-02T15:53:24Z</time></trkpt><trkpt lat="40.78469890182092" lon="8.863117979979151"><ele>152.0</ele><time>2026-05-02T15:53:25Z</time></trkpt><trkpt lat="40.78496123913677" lon="8.86323301989371"><ele>151.5</ele><time>2026-05-02T15:53:26Z</time></trkpt><trkpt lat="40.78522157827924" lon="8.863350211153717"><ele>151.0</ele><time>2026-05-02T15:53:27Z</time></trkpt><trkpt lat="40.78548160333137" lon="8.863468712906414"><ele>151.0</ele><time>2026-05-02T15:53:28Z</time></trkpt><trkpt lat="40.78573809467753" lon="8.8635884633934"><ele>151.0</ele><time>2026-05-02T15:53:29Z</time></trkpt><trkpt lat="40.78599372644628" lon="8.863710995654483"><ele>150.5</ele><time>2026-05-02T15:53:30Z</time></trkpt><trkpt lat="40.786245957909536" lon="8.863832015099435"><ele>150.0</ele><time>2026-05-02T15:53:31Z</time></trkpt><trkpt lat="40.786496390016794" lon="8.863952648506423"><ele>150.0</ele><time>2026-05-02T15:53:32Z</time></trkpt><trkpt lat="40.78674547513339" lon="8.86406842371782"><ele>150.0</ele><time>2026-05-02T15:53:33Z</time></trkpt><trkpt lat="40.78699351266932" lon="8.864185663553299"><ele>149.5</ele><time>2026-05-02T15:53:34Z</time></trkpt><trkpt lat="40.78724368157575" lon="8.864301521036216"><ele>149.0</ele><time>2026-05-02T15:53:35Z</time></trkpt><trkpt lat="40.78749763861799" lon="8.86441887669788"><ele>150.0</ele><time>2026-05-02T15:53:36Z</time></trkpt><trkpt lat="40.78775164185203" lon="8.864537413096162"><ele>151.0</ele><time>2026-05-02T15:53:37Z</time></trkpt><trkpt lat="40.78800693916126" lon="8.864658660456422"><ele>151.0</ele><time>2026-05-02T15:53:38Z</time></trkpt><trkpt lat="40.78826122992282" lon="8.864777876866"><ele>151.0</ele><time>2026-05-02T15:53:39Z</time></trkpt><trkpt lat="40.788518787199955" lon="8.864898655502014"><ele>151.5</ele><time>2026-05-02T15:53:40Z</time></trkpt><trkpt lat="40.78877881297192" lon="8.865021817171538"><ele>152.0</ele><time>2026-05-02T15:53:41Z</time></trkpt><trkpt lat="40.7890408061076" lon="8.86514411633789"><ele>152.0</ele><time>2026-05-02T15:53:42Z</time></trkpt><trkpt lat="40.78930323899838" lon="8.865267348059641"><ele>152.0</ele><time>2026-05-02T15:53:43Z</time></trkpt><trkpt lat="40.7895663185078" lon="8.865394506509618"><ele>152.0</ele><time>2026-05-02T15:53:44Z</time></trkpt><trkpt lat="40.789830654750176" lon="8.865521238260921"><ele>152.0</ele><time>2026-05-02T15:53:45Z</time></trkpt><trkpt lat="40.79009673647373" lon="8.865652304378662"><ele>148.0</ele><time>2026-05-02T15:53:46Z</time></trkpt><trkpt lat="40.79036261002056" lon="8.865776230114932"><ele>144.0</ele><time>2026-05-02T15:53:47Z</time></trkpt><trkpt lat="40.7906291346852" lon="8.865902496886381"><ele>144.0</ele><time>2026-05-02T15:53:48Z</time></trkpt><trkpt lat="40.790896343360615" lon="8.86603057645831"><ele>144.0</ele><time>2026-05-02T15:53:49Z</time></trkpt><trkpt lat="40.7911624696578" lon="8.86615519764471"><ele>139.5</ele><time>2026-05-02T15:53:50Z</time></trkpt><trkpt lat="40.79142794206386" lon="8.866280724264461"><ele>135.0</ele><time>2026-05-02T15:53:51Z</time></trkpt><trkpt lat="40.79169330967551" lon="8.866406793877651"><ele>134.0</ele><time>2026-05-02T15:53:52Z</time></trkpt><trkpt lat="40.791957119059994" lon="8.866532758525626"><ele>133.0</ele><time>2026-05-02T15:53:53Z</time></trkpt><trkpt lat="40.792220209069846" lon="8.866658020833869"><ele>130.0</ele><time>2026-05-02T15:53:54Z</time></trkpt><trkpt lat="40.79248194256003" lon="8.866780692025808"><ele>127.0</ele><time>2026-05-02T15:53:55Z</time></trkpt><trkpt lat="40.792744826690296" lon="8.866905421726711"><ele>125.0</ele><time>2026-05-02T15:53:56Z</time></trkpt><trkpt lat="40.79300706300204" lon="8.867030822428946"><ele>123.0</ele><time>2026-05-02T15:53:57Z</time></trkpt><trkpt lat="40.7932667398917" lon="8.86715380410551"><ele>121.0</ele><time>2026-05-02T15:53:58Z</time></trkpt><trkpt lat="40.79352811074435" lon="8.867275033758114"><ele>119.0</ele><time>2026-05-02T15:53:59Z</time></trkpt><trkpt lat="40.7937832989357" lon="8.867394879753911"><ele>119.0</ele><time>2026-05-02T15:54:00Z</time></trkpt><trkpt lat="40.79403918171445" lon="8.867513825360085"><ele>119.0</ele><time>2026-05-02T15:54:01Z</time></trkpt><trkpt lat="40.79429628594951" lon="8.867634984370241"><ele>119.0</ele><time>2026-05-02T15:54:02Z</time></trkpt><trkpt lat="40.7945502807352" lon="8.867756888715022"><ele>119.0</ele><time>2026-05-02T15:54:03Z</time></trkpt><trkpt lat="40.79480328005728" lon="8.867885098422233"><ele>119.0</ele><time>2026-05-02T15:54:04Z</time></trkpt><trkpt lat="40.79505048043748" lon="8.868025973823249"><ele>119.0</ele><time>2026-05-02T15:54:05Z</time></trkpt><trkpt lat="40.79529641552968" lon="8.86817581111991"><ele>120.0</ele><time>2026-05-02T15:54:06Z</time></trkpt><trkpt lat="40.79553955571001" lon="8.868339123868328"><ele>121.0</ele><time>2026-05-02T15:54:07Z</time></trkpt><trkpt lat="40.79577803622724" lon="8.86851756703291"><ele>120.5</ele><time>2026-05-02T15:54:08Z</time></trkpt><trkpt lat="40.79601164401455" lon="8.868712284407117"><ele>120.0</ele><time>2026-05-02T15:54:09Z</time></trkpt><trkpt lat="40.79623787097739" lon="8.868921033424234"><ele>120.0</ele><time>2026-05-02T15:54:10Z</time></trkpt><trkpt lat="40.79645839638026" lon="8.86914469767195"><ele>120.0</ele><time>2026-05-02T15:54:11Z</time></trkpt><trkpt lat="40.796670586349755" lon="8.869381795344218"><ele>116.0</ele><time>2026-05-02T15:54:12Z</time></trkpt><trkpt lat="40.79686668941952" lon="8.869621552494372"><ele>112.0</ele><time>2026-05-02T15:54:13Z</time></trkpt><trkpt lat="40.79705683844413" lon="8.869860113275118"><ele>112.0</ele><time>2026-05-02T15:54:14Z</time></trkpt><trkpt lat="40.79724081243773" lon="8.870103580603189"><ele>112.0</ele><time>2026-05-02T15:54:15Z</time></trkpt><trkpt lat="40.79742273288891" lon="8.870350306650248"><ele>112.0</ele><time>2026-05-02T15:54:16Z</time></trkpt><trkpt lat="40.797605479694354" lon="8.870599037383627"><ele>112.0</ele><time>2026-05-02T15:54:17Z</time></trkpt><trkpt lat="40.797788797441825" lon="8.870848135297352"><ele>109.5</ele><time>2026-05-02T15:54:18Z</time></trkpt><trkpt lat="40.79797641064184" lon="8.871104132770439"><ele>107.0</ele><time>2026-05-02T15:54:19Z</time></trkpt><trkpt lat="40.79816557522827" lon="8.871363567823993"><ele>107.0</ele><time>2026-05-02T15:54:20Z</time></trkpt><trkpt lat="40.79835741109847" lon="8.871627800384648"><ele>107.0</ele><time>2026-05-02T15:54:21Z</time></trkpt><trkpt lat="40.79855089863488" lon="8.871893567579148"><ele>104.0</ele><time>2026-05-02T15:54:22Z</time></trkpt><trkpt lat="40.79874257775527" lon="8.872157440464477"><ele>101.0</ele><time>2026-05-02T15:54:23Z</time></trkpt><trkpt lat="40.798935572639536" lon="8.872423462706287"><ele>99.5</ele><time>2026-05-02T15:54:24Z</time></trkpt><trkpt lat="40.79912655608287" lon="8.872687259276741"><ele>98.0</ele><time>2026-05-02T15:54:25Z</time></trkpt><trkpt lat="40.79931803846103" lon="8.872951449689456"><ele>98.0</ele><time>2026-05-02T15:54:26Z</time></trkpt><trkpt lat="40.799510526773524" lon="8.873213969159366"><ele>98.0</ele><time>2026-05-02T15:54:27Z</time></trkpt><trkpt lat="40.79970412086765" lon="8.87348027530895"><ele>98.0</ele><time>2026-05-02T15:54:28Z</time></trkpt><trkpt lat="40.79989702310494" lon="8.873747096033675"><ele>98.0</ele><time>2026-05-02T15:54:29Z</time></trkpt><trkpt lat="40.800090740998854" lon="8.874012870236218"><ele>94.0</ele><time>2026-05-02T15:54:30Z</time></trkpt><trkpt lat="40.80028484321506" lon="8.874277431652585"><ele>90.0</ele><time>2026-05-02T15:54:31Z</time></trkpt><trkpt lat="40.80047950199692" lon="8.874545804826958"><ele>90.0</ele><time>2026-05-02T15:54:32Z</time></trkpt><trkpt lat="40.80067468686271" lon="8.874815516770457"><ele>90.0</ele><time>2026-05-02T15:54:33Z</time></trkpt><trkpt lat="40.800869078131285" lon="8.87508615513535"><ele>85.5</ele><time>2026-05-02T15:54:34Z</time></trkpt><trkpt lat="40.80106242225314" lon="8.875356367020379"><ele>81.0</ele><time>2026-05-02T15:54:35Z</time></trkpt><trkpt lat="40.80125676134027" lon="8.875625537969052"><ele>81.0</ele><time>2026-05-02T15:54:36Z</time></trkpt><trkpt lat="40.801453634330244" lon="8.875896379609207"><ele>81.0</ele><time>2026-05-02T15:54:37Z</time></trkpt><trkpt lat="40.80165022997119" lon="8.876167437726247"><ele>79.0</ele><time>2026-05-02T15:54:38Z</time></trkpt><trkpt lat="40.8018471497017" lon="8.876438073098093"><ele>77.0</ele><time>2026-05-02T15:54:39Z</time></trkpt><trkpt lat="40.80204513718319" lon="8.87671421913532"><ele>77.0</ele><time>2026-05-02T15:54:40Z</time></trkpt><trkpt lat="40.80224473755648" lon="8.876988977396772"><ele>77.0</ele><time>2026-05-02T15:54:41Z</time></trkpt><trkpt lat="40.80244727755639" lon="8.87726650718274"><ele>77.0</ele><time>2026-05-02T15:54:42Z</time></trkpt><trkpt lat="40.802650470720344" lon="8.8775428826029"><ele>77.0</ele><time>2026-05-02T15:54:43Z</time></trkpt><trkpt lat="40.80285454189241" lon="8.877821241279651"><ele>75.0</ele><time>2026-05-02T15:54:44Z</time></trkpt><trkpt lat="40.803058742362936" lon="8.87810039249558"><ele>73.0</ele><time>2026-05-02T15:54:45Z</time></trkpt><trkpt lat="40.80326223064836" lon="8.878381653430436"><ele>72.0</ele><time>2026-05-02T15:54:46Z</time></trkpt><trkpt lat="40.80346292179692" lon="8.878657308305373"><ele>71.0</ele><time>2026-05-02T15:54:47Z</time></trkpt><trkpt lat="40.80366741537288" lon="8.878932635299165"><ele>71.0</ele><time>2026-05-02T15:54:48Z</time></trkpt><trkpt lat="40.80385957022142" lon="8.879197416795119"><ele>71.0</ele><time>2026-05-02T15:54:49Z</time></trkpt><trkpt lat="40.804051580555054" lon="8.879464044644958"><ele>71.0</ele><time>2026-05-02T15:54:50Z</time></trkpt><trkpt lat="40.804245256601014" lon="8.879732560371876"><ele>71.0</ele><time>2026-05-02T15:54:51Z</time></trkpt><trkpt lat="40.80443985549904" lon="8.879998950533851"><ele>70.5</ele><time>2026-05-02T15:54:52Z</time></trkpt><trkpt lat="40.80463681377166" lon="8.880262896847519"><ele>70.0</ele><time>2026-05-02T15:54:53Z</time></trkpt><trkpt lat="40.804836564043335" lon="8.880524322243453"><ele>70.0</ele><time>2026-05-02T15:54:54Z</time></trkpt><trkpt lat="40.80503732834497" lon="8.880778489798981"><ele>70.0</ele><time>2026-05-02T15:54:55Z</time></trkpt><trkpt lat="40.80524253894134" lon="8.881018980101848"><ele>71.5</ele><time>2026-05-02T15:54:56Z</time></trkpt><trkpt lat="40.805453106550885" lon="8.88124799861042"><ele>73.0</ele><time>2026-05-02T15:54:57Z</time></trkpt><trkpt lat="40.80566488329185" lon="8.881475883856144"><ele>73.0</ele><time>2026-05-02T15:54:58Z</time></trkpt><trkpt lat="40.80588148125245" lon="8.881698964712307"><ele>73.0</ele><time>2026-05-02T15:54:59Z</time></trkpt><trkpt lat="40.8060974303666" lon="8.881925649503623"><ele>72.5</ele><time>2026-05-02T15:55:00Z</time></trkpt><trkpt lat="40.806315246768385" lon="8.88215694868108"><ele>72.0</ele><time>2026-05-02T15:55:01Z</time></trkpt><trkpt lat="40.80653362963514" lon="8.882387719036945"><ele>67.5</ele><time>2026-05-02T15:55:02Z</time></trkpt><trkpt lat="40.80675432797805" lon="8.882619808405792"><ele>63.0</ele><time>2026-05-02T15:55:03Z</time></trkpt><trkpt lat="40.80697733444952" lon="8.882850177085981"><ele>63.0</ele><time>2026-05-02T15:55:04Z</time></trkpt><trkpt lat="40.80719878986568" lon="8.883086002624912"><ele>63.0</ele><time>2026-05-02T15:55:05Z</time></trkpt><trkpt lat="40.807422455165664" lon="8.883322092539464"><ele>62.5</ele><time>2026-05-02T15:55:06Z</time></trkpt><trkpt lat="40.807650129704" lon="8.883555283858575"><ele>62.0</ele><time>2026-05-02T15:55:07Z</time></trkpt><trkpt lat="40.807880509509296" lon="8.883789374021733"><ele>62.0</ele><time>2026-05-02T15:55:08Z</time></trkpt><trkpt lat="40.80810771587278" lon="8.884026491384033"><ele>62.0</ele><time>2026-05-02T15:55:09Z</time></trkpt><trkpt lat="40.80833021722904" lon="8.88426552512762"><ele>64.5</ele><time>2026-05-02T15:55:10Z</time></trkpt><trkpt lat="40.808549306969915" lon="8.884500254620308"><ele>67.0</ele><time>2026-05-02T15:55:11Z</time></trkpt><trkpt lat="40.80876304540339" lon="8.884733666719073"><ele>67.0</ele><time>2026-05-02T15:55:12Z</time></trkpt><trkpt lat="40.80898366228698" lon="8.884948744536759"><ele>67.0</ele><time>2026-05-02T15:55:13Z</time></trkpt><trkpt lat="40.809201098134935" lon="8.885167911861412"><ele>64.5</ele><time>2026-05-02T15:55:14Z</time></trkpt><trkpt lat="40.80942287881291" lon="8.885371603148931"><ele>62.0</ele><time>2026-05-02T15:55:15Z</time></trkpt><trkpt lat="40.80964726796856" lon="8.885565165488956"><ele>62.0</ele><time>2026-05-02T15:55:16Z</time></trkpt><trkpt lat="40.809872423419584" lon="8.885750476061538"><ele>62.0</ele><time>2026-05-02T15:55:17Z</time></trkpt><trkpt lat="40.810097550787575" lon="8.885931381693744"><ele>60.0</ele><time>2026-05-02T15:55:18Z</time></trkpt><trkpt lat="40.810320789982576" lon="8.88611514394141"><ele>58.0</ele><time>2026-05-02T15:55:19Z</time></trkpt><trkpt lat="40.81054213293406" lon="8.886297580041013"><ele>58.0</ele><time>2026-05-02T15:55:20Z</time></trkpt><trkpt lat="40.81076761582961" lon="8.886482942851766"><ele>58.0</ele><time>2026-05-02T15:55:21Z</time></trkpt><trkpt lat="40.81099438494518" lon="8.886668353449831"><ele>56.5</ele><time>2026-05-02T15:55:22Z</time></trkpt><trkpt lat="40.81122144284427" lon="8.886858526614105"><ele>55.0</ele><time>2026-05-02T15:55:23Z</time></trkpt><trkpt lat="40.81145247222402" lon="8.887048051811185"><ele>55.0</ele><time>2026-05-02T15:55:24Z</time></trkpt><trkpt lat="40.811686481221905" lon="8.887234524009301"><ele>55.0</ele><time>2026-05-02T15:55:25Z</time></trkpt><trkpt lat="40.81192498895536" lon="8.887419293093483"><ele>54.5</ele><time>2026-05-02T15:55:26Z</time></trkpt><trkpt lat="40.812164346590464" lon="8.887609128771077"><ele>54.0</ele><time>2026-05-02T15:55:27Z</time></trkpt><trkpt lat="40.81240074729334" lon="8.887802888076031"><ele>54.0</ele><time>2026-05-02T15:55:28Z</time></trkpt><trkpt lat="40.812639940642335" lon="8.887995246920859"><ele>54.0</ele><time>2026-05-02T15:55:29Z</time></trkpt><trkpt lat="40.812876013692794" lon="8.888193065011215"><ele>53.5</ele><time>2026-05-02T15:55:30Z</time></trkpt><trkpt lat="40.813110699862584" lon="8.888388297050296"><ele>53.0</ele><time>2026-05-02T15:55:31Z</time></trkpt><trkpt lat="40.813345405633626" lon="8.888579819253126"><ele>56.0</ele><time>2026-05-02T15:55:32Z</time></trkpt><trkpt lat="40.81357649280493" lon="8.888770339230577"><ele>59.0</ele><time>2026-05-02T15:55:33Z</time></trkpt><trkpt lat="40.81380749094716" lon="8.888956245474704"><ele>59.0</ele><time>2026-05-02T15:55:34Z</time></trkpt><trkpt lat="40.81403523003469" lon="8.889145154490702"><ele>59.0</ele><time>2026-05-02T15:55:35Z</time></trkpt><trkpt lat="40.81426078885005" lon="8.889330562065705"><ele>57.5</ele><time>2026-05-02T15:55:36Z</time></trkpt><trkpt lat="40.81448497535971" lon="8.889513973419232"><ele>56.0</ele><time>2026-05-02T15:55:37Z</time></trkpt><trkpt lat="40.81470520021335" lon="8.889692035184556"><ele>56.0</ele><time>2026-05-02T15:55:38Z</time></trkpt><trkpt lat="40.814924988186426" lon="8.889869381616345"><ele>56.0</ele><time>2026-05-02T15:55:39Z</time></trkpt><trkpt lat="40.81514376755507" lon="8.890045978872736"><ele>55.5</ele><time>2026-05-02T15:55:40Z</time></trkpt><trkpt lat="40.81536254713883" lon="8.890225471712697"><ele>55.0</ele><time>2026-05-02T15:55:41Z</time></trkpt><trkpt lat="40.815583412410106" lon="8.890409354952181"><ele>55.0</ele><time>2026-05-02T15:55:42Z</time></trkpt><trkpt lat="40.815805962690504" lon="8.890587687661435"><ele>55.0</ele><time>2026-05-02T15:55:43Z</time></trkpt><trkpt lat="40.81602973675313" lon="8.890766515116855"><ele>56.0</ele><time>2026-05-02T15:55:44Z</time></trkpt><trkpt lat="40.81625374219723" lon="8.89095142740476"><ele>57.0</ele><time>2026-05-02T15:55:45Z</time></trkpt><trkpt lat="40.8164793555854" lon="8.891133952959853"><ele>57.0</ele><time>2026-05-02T15:55:46Z</time></trkpt><trkpt lat="40.81670217318423" lon="8.891317723880102"><ele>57.0</ele><time>2026-05-02T15:55:47Z</time></trkpt><trkpt lat="40.81692957740297" lon="8.89150261296556"><ele>59.0</ele><time>2026-05-02T15:55:48Z</time></trkpt><trkpt lat="40.81715593663709" lon="8.89168672156331"><ele>61.0</ele><time>2026-05-02T15:55:49Z</time></trkpt><trkpt lat="40.81738342742771" lon="8.891870241838065"><ele>61.0</ele><time>2026-05-02T15:55:50Z</time></trkpt><trkpt lat="40.81760982313594" lon="8.89205794483342"><ele>61.0</ele><time>2026-05-02T15:55:51Z</time></trkpt><trkpt lat="40.8178397851874" lon="8.892245961492943"><ele>62.5</ele><time>2026-05-02T15:55:52Z</time></trkpt><trkpt lat="40.81807725478478" lon="8.892420946748059"><ele>64.0</ele><time>2026-05-02T15:55:53Z</time></trkpt><trkpt lat="40.8183019368265" lon="8.892624608798544"><ele>63.0</ele><time>2026-05-02T15:55:54Z</time></trkpt><trkpt lat="40.81852863941735" lon="8.892806002459624"><ele>62.0</ele><time>2026-05-02T15:55:55Z</time></trkpt><trkpt lat="40.81876814426429" lon="8.892991083187894"><ele>62.0</ele><time>2026-05-02T15:55:56Z</time></trkpt><trkpt lat="40.81900674754354" lon="8.893184646021856"><ele>62.0</ele><time>2026-05-02T15:55:57Z</time></trkpt><trkpt lat="40.81923851438563" lon="8.893375169292492"><ele>58.5</ele><time>2026-05-02T15:55:58Z</time></trkpt><trkpt lat="40.81947461807071" lon="8.893567859006142"><ele>55.0</ele><time>2026-05-02T15:55:59Z</time></trkpt><trkpt lat="40.819714006755746" lon="8.893765617193171"><ele>55.0</ele><time>2026-05-02T15:56:00Z</time></trkpt><trkpt lat="40.81995596833068" lon="8.893962755505276"><ele>55.0</ele><time>2026-05-02T15:56:01Z</time></trkpt><trkpt lat="40.82019891076525" lon="8.894159875782782"><ele>53.0</ele><time>2026-05-02T15:56:02Z</time></trkpt><trkpt lat="40.82044196866533" lon="8.894360493245067"><ele>51.0</ele><time>2026-05-02T15:56:03Z</time></trkpt><trkpt lat="40.820685804408804" lon="8.894562543835177"><ele>51.0</ele><time>2026-05-02T15:56:04Z</time></trkpt><trkpt lat="40.820929047997964" lon="8.894763229842601"><ele>51.0</ele><time>2026-05-02T15:56:05Z</time></trkpt><trkpt lat="40.82117415604498" lon="8.894965907403382"><ele>52.0</ele><time>2026-05-02T15:56:06Z</time></trkpt><trkpt lat="40.821419291478236" lon="8.895162530071547"><ele>53.0</ele><time>2026-05-02T15:56:07Z</time></trkpt><trkpt lat="40.82166440741006" lon="8.895358370269042"><ele>51.5</ele><time>2026-05-02T15:56:08Z</time></trkpt><trkpt lat="40.82190949558775" lon="8.895554791802672"><ele>50.0</ele><time>2026-05-02T15:56:09Z</time></trkpt><trkpt lat="40.82215359596387" lon="8.895753743407257"><ele>50.5</ele><time>2026-05-02T15:56:10Z</time></trkpt><trkpt lat="40.82239615876679" lon="8.895954733853806"><ele>51.0</ele><time>2026-05-02T15:56:11Z</time></trkpt><trkpt lat="40.82263773634621" lon="8.896151656615181"><ele>49.0</ele><time>2026-05-02T15:56:12Z</time></trkpt><trkpt lat="40.82288026093809" lon="8.896347855333097"><ele>47.0</ele><time>2026-05-02T15:56:13Z</time></trkpt><trkpt lat="40.82312194519697" lon="8.896542469286594"><ele>47.0</ele><time>2026-05-02T15:56:14Z</time></trkpt><trkpt lat="40.82336340093892" lon="8.896740176545187"><ele>47.0</ele><time>2026-05-02T15:56:15Z</time></trkpt><trkpt lat="40.82360257358001" lon="8.896936956130594"><ele>46.0</ele><time>2026-05-02T15:56:16Z</time></trkpt><trkpt lat="40.823842575871794" lon="8.897134879935535"><ele>45.0</ele><time>2026-05-02T15:56:17Z</time></trkpt><trkpt lat="40.8240804175428" lon="8.897332826178403"><ele>44.5</ele><time>2026-05-02T15:56:18Z</time></trkpt><trkpt lat="40.82431722694562" lon="8.897535037793851"><ele>44.0</ele><time>2026-05-02T15:56:19Z</time></trkpt><trkpt lat="40.8245534413745" lon="8.897743787585426"><ele>44.0</ele><time>2026-05-02T15:56:20Z</time></trkpt><trkpt lat="40.82478606155656" lon="8.897958451267332"><ele>44.0</ele><time>2026-05-02T15:56:21Z</time></trkpt><trkpt lat="40.82502098019814" lon="8.898174521170466"><ele>42.0</ele><time>2026-05-02T15:56:22Z</time></trkpt><trkpt lat="40.82525434409306" lon="8.898390542972669"><ele>40.0</ele><time>2026-05-02T15:56:23Z</time></trkpt><trkpt lat="40.82548753155766" lon="8.898603149080781"><ele>40.0</ele><time>2026-05-02T15:56:24Z</time></trkpt><trkpt lat="40.82571922947377" lon="8.898814127235523"><ele>40.0</ele><time>2026-05-02T15:56:25Z</time></trkpt><trkpt lat="40.82595012909605" lon="8.899023763584717"><ele>40.0</ele><time>2026-05-02T15:56:26Z</time></trkpt><trkpt lat="40.82617989812627" lon="8.899233503656193"><ele>40.0</ele><time>2026-05-02T15:56:27Z</time></trkpt><trkpt lat="40.82640792441589" lon="8.899443828057922"><ele>39.0</ele><time>2026-05-02T15:56:28Z</time></trkpt><trkpt lat="40.82663828303142" lon="8.89965214349435"><ele>38.0</ele><time>2026-05-02T15:56:29Z</time></trkpt><trkpt lat="40.8268679669478" lon="8.899861054661818"><ele>38.0</ele><time>2026-05-02T15:56:30Z</time></trkpt><trkpt lat="40.82709890909734" lon="8.900071138775528"><ele>38.0</ele><time>2026-05-02T15:56:31Z</time></trkpt><trkpt lat="40.82732995181108" lon="8.900285096254343"><ele>38.5</ele><time>2026-05-02T15:56:32Z</time></trkpt><trkpt lat="40.82756162698999" lon="8.900499311607392"><ele>39.0</ele><time>2026-05-02T15:56:33Z</time></trkpt><trkpt lat="40.82779374655386" lon="8.900712884683275"><ele>38.5</ele><time>2026-05-02T15:56:34Z</time></trkpt><trkpt lat="40.8280245465698" lon="8.900924201600054"><ele>38.0</ele><time>2026-05-02T15:56:35Z</time></trkpt><trkpt lat="40.82825404163366" lon="8.90113185711431"><ele>38.0</ele><time>2026-05-02T15:56:36Z</time></trkpt><trkpt lat="40.82848076937854" lon="8.901339599406171"><ele>38.0</ele><time>2026-05-02T15:56:37Z</time></trkpt><trkpt lat="40.82870810788153" lon="8.901545594956856"><ele>37.0</ele><time>2026-05-02T15:56:38Z</time></trkpt><trkpt lat="40.828934625909305" lon="8.901752859923223"><ele>36.0</ele><time>2026-05-02T15:56:39Z</time></trkpt><trkpt lat="40.82916151397896" lon="8.90195995706584"><ele>36.5</ele><time>2026-05-02T15:56:40Z</time></trkpt><trkpt lat="40.829388245452435" lon="8.902163972763384"><ele>37.0</ele><time>2026-05-02T15:56:41Z</time></trkpt><trkpt lat="40.829613191632134" lon="8.902369465292214"><ele>37.0</ele><time>2026-05-02T15:56:42Z</time></trkpt><trkpt lat="40.82983683805852" lon="8.902575358576305"><ele>37.0</ele><time>2026-05-02T15:56:43Z</time></trkpt><trkpt lat="40.83006224478817" lon="8.90277783527538"><ele>35.5</ele><time>2026-05-02T15:56:44Z</time></trkpt><trkpt lat="40.830285954260475" lon="8.902982302263652"><ele>34.0</ele><time>2026-05-02T15:56:45Z</time></trkpt><trkpt lat="40.8305100594953" lon="8.903188794883835"><ele>34.0</ele><time>2026-05-02T15:56:46Z</time></trkpt><trkpt lat="40.830739578669736" lon="8.903400149129821"><ele>34.0</ele><time>2026-05-02T15:56:47Z</time></trkpt><trkpt lat="40.83097177569888" lon="8.903611836102579"><ele>35.5</ele><time>2026-05-02T15:56:48Z</time></trkpt><trkpt lat="40.831203403584816" lon="8.903819847693315"><ele>37.0</ele><time>2026-05-02T15:56:49Z</time></trkpt><trkpt lat="40.83143545719061" lon="8.904027733737431"><ele>37.0</ele><time>2026-05-02T15:56:50Z</time></trkpt><trkpt lat="40.83166637749845" lon="8.904241671688032"><ele>37.0</ele><time>2026-05-02T15:56:51Z</time></trkpt><trkpt lat="40.8318953633994" lon="8.90445734287566"><ele>35.5</ele><time>2026-05-02T15:56:52Z</time></trkpt><trkpt lat="40.832122303224956" lon="8.904677919084147"><ele>34.0</ele><time>2026-05-02T15:56:53Z</time></trkpt><trkpt lat="40.83234440511461" lon="8.90490994186583"><ele>34.0</ele><time>2026-05-02T15:56:54Z</time></trkpt><trkpt lat="40.83255877934001" lon="8.905149440240113"><ele>34.0</ele><time>2026-05-02T15:56:55Z</time></trkpt><trkpt lat="40.83276275439005" lon="8.905407008669544"><ele>34.5</ele><time>2026-05-02T15:56:56Z</time></trkpt><trkpt lat="40.83295983818153" lon="8.905669713112092"><ele>35.0</ele><time>2026-05-02T15:56:57Z</time></trkpt><trkpt lat="40.83314641601487" lon="8.905941791293378"><ele>35.0</ele><time>2026-05-02T15:56:58Z</time></trkpt><trkpt lat="40.83331385785163" lon="8.906226266802634"><ele>35.0</ele><time>2026-05-02T15:56:59Z</time></trkpt><trkpt lat="40.83349496888019" lon="8.906489854534923"><ele>35.0</ele><time>2026-05-02T15:57:00Z</time></trkpt><trkpt lat="40.83367186643498" lon="8.9067751015261"><ele>35.0</ele><time>2026-05-02T15:57:01Z</time></trkpt><trkpt lat="40.83383998060592" lon="8.907055493587412"><ele>35.0</ele><time>2026-05-02T15:57:02Z</time></trkpt><trkpt lat="40.834013859742434" lon="8.907331532780429"><ele>35.0</ele><time>2026-05-02T15:57:03Z</time></trkpt><trkpt lat="40.834188139560844" lon="8.907622953640278"><ele>38.0</ele><time>2026-05-02T15:57:04Z</time></trkpt><trkpt lat="40.834360038089144" lon="8.90790505251853"><ele>41.0</ele><time>2026-05-02T15:57:05Z</time></trkpt><trkpt lat="40.83453158775489" lon="8.90819351456749"><ele>41.5</ele><time>2026-05-02T15:57:06Z</time></trkpt><trkpt lat="40.834704219130934" lon="8.90847864126995"><ele>42.0</ele><time>2026-05-02T15:57:07Z</time></trkpt><trkpt lat="40.83487795651984" lon="8.908765002236954"><ele>42.0</ele><time>2026-05-02T15:57:08Z</time></trkpt><trkpt lat="40.83504841477301" lon="8.909055877480196"><ele>42.0</ele><time>2026-05-02T15:57:09Z</time></trkpt><trkpt lat="40.83521988928012" lon="8.909337429669371"><ele>45.0</ele><time>2026-05-02T15:57:10Z</time></trkpt><trkpt lat="40.83538577738223" lon="8.909625019505341"><ele>48.0</ele><time>2026-05-02T15:57:11Z</time></trkpt><trkpt lat="40.83554963448216" lon="8.90990576493595"><ele>47.5</ele><time>2026-05-02T15:57:12Z</time></trkpt><trkpt lat="40.835710919230756" lon="8.910165209749714"><ele>47.0</ele><time>2026-05-02T15:57:13Z</time></trkpt><trkpt lat="40.83585152193466" lon="8.910430094994679"><ele>47.0</ele><time>2026-05-02T15:57:14Z</time></trkpt><trkpt lat="40.83599443758" lon="8.91064174942033"><ele>47.0</ele><time>2026-05-02T15:57:15Z</time></trkpt><trkpt lat="40.83613129959858" lon="8.910853678642392"><ele>47.0</ele><time>2026-05-02T15:57:16Z</time></trkpt><trkpt lat="40.83625033584296" lon="8.911067818590158"><ele>47.0</ele><time>2026-05-02T15:57:17Z</time></trkpt><trkpt lat="40.83637094706186" lon="8.911280087527464"><ele>47.0</ele><time>2026-05-02T15:57:18Z</time></trkpt><trkpt lat="40.83649084189685" lon="8.911472598116598"><ele>47.0</ele><time>2026-05-02T15:57:19Z</time></trkpt><trkpt lat="40.83659502602958" lon="8.91164207424087"><ele>47.33333333333333</ele><time>2026-05-02T15:57:20Z</time></trkpt><trkpt lat="40.83670342755186" lon="8.911816520380615"><ele>47.666666666666664</ele><time>2026-05-02T15:57:21Z</time></trkpt><trkpt lat="40.83680037356588" lon="8.912008427596286"><ele>48.0</ele><time>2026-05-02T15:57:22Z</time></trkpt><trkpt lat="40.83690342941227" lon="8.912175125711704"><ele>49.0</ele><time>2026-05-02T15:57:23Z</time></trkpt><trkpt lat="40.83699051113774" lon="8.912327615478445"><ele>50.0</ele><time>2026-05-02T15:57:24Z</time></trkpt><trkpt lat="40.837072167575975" lon="8.912475156560687"><ele>51.0</ele><time>2026-05-02T15:57:25Z</time></trkpt><trkpt lat="40.83710278808148" lon="8.91262681931504"><ele>52.0</ele><time>2026-05-02T15:57:26Z</time></trkpt><trkpt lat="40.83713957467388" lon="8.912714055777217"><ele>52.33333333333333</ele><time>2026-05-02T15:57:27Z</time></trkpt><trkpt lat="40.836981377276636" lon="8.912879083008086"><ele>52.66666666666667</ele><time>2026-05-02T15:57:28Z</time></trkpt><trkpt lat="40.83689596587136" lon="8.91301094623202"><ele>53.0</ele><time>2026-05-02T15:57:29Z</time></trkpt><trkpt lat="40.83675523583366" lon="8.913042869483261"><ele>52.5</ele><time>2026-05-02T15:57:30Z</time></trkpt><trkpt lat="40.83663510284901" lon="8.913052642804177"><ele>52.0</ele><time>2026-05-02T15:57:31Z</time></trkpt><trkpt lat="40.83649609161974" lon="8.912945911443067"><ele>51.5</ele><time>2026-05-02T15:57:32Z</time></trkpt><trkpt lat="40.836340693260496" lon="8.91290047550951"><ele>51.0</ele><time>2026-05-02T15:57:33Z</time></trkpt><trkpt lat="40.83617331933258" lon="8.912851164938559"><ele>51.0</ele><time>2026-05-02T15:57:34Z</time></trkpt><trkpt lat="40.8360102166022" lon="8.912812636040425"><ele>51.0</ele><time>2026-05-02T15:57:35Z</time></trkpt><trkpt lat="40.83586322380994" lon="8.912766294789746"><ele>51.0</ele><time>2026-05-02T15:57:36Z</time></trkpt><trkpt lat="40.83573983531562" lon="8.912672058784022"><ele>50.66666666666667</ele><time>2026-05-02T15:57:37Z</time></trkpt><trkpt lat="40.83561670889228" lon="8.912557099992476"><ele>50.333333333333336</ele><time>2026-05-02T15:57:38Z</time></trkpt><trkpt lat="40.83551395340469" lon="8.912402886659308"><ele>50.0</ele><time>2026-05-02T15:57:39Z</time></trkpt><trkpt lat="40.8354314675305" lon="8.91223896045415"><ele>50.0</ele><time>2026-05-02T15:57:40Z</time></trkpt><trkpt lat="40.83539969753185" lon="8.912050202895866"><ele>50.0</ele><time>2026-05-02T15:57:41Z</time></trkpt><trkpt lat="40.83538972077543" lon="8.911835445750011"><ele>50.0</ele><time>2026-05-02T15:57:42Z</time></trkpt><trkpt lat="40.835414672703315" lon="8.91161463828955"><ele>48.333333333333336</ele><time>2026-05-02T15:57:43Z</time></trkpt><trkpt lat="40.835477748628406" lon="8.911393230161012"><ele>46.66666666666667</ele><time>2026-05-02T15:57:44Z</time></trkpt><trkpt lat="40.835568392046795" lon="8.911175430810061"><ele>45.0</ele><time>2026-05-02T15:57:45Z</time></trkpt><trkpt lat="40.83566549478486" lon="8.91095982184297"><ele>45.666666666666664</ele><time>2026-05-02T15:57:46Z</time></trkpt><trkpt lat="40.83575973541507" lon="8.910725832173005"><ele>46.33333333333333</ele><time>2026-05-02T15:57:47Z</time></trkpt><trkpt lat="40.8358532773894" lon="8.910479555002738"><ele>47.0</ele><time>2026-05-02T15:57:48Z</time></trkpt><trkpt lat="40.835953393649255" lon="8.910234575549072"><ele>46.0</ele><time>2026-05-02T15:57:49Z</time></trkpt><trkpt lat="40.83604233819836" lon="8.910003017634503"><ele>45.0</ele><time>2026-05-02T15:57:50Z</time></trkpt><trkpt lat="40.83612808147245" lon="8.90978238744881"><ele>44.0</ele><time>2026-05-02T15:57:51Z</time></trkpt><trkpt lat="40.83620965813373" lon="8.909569582565103"><ele>44.0</ele><time>2026-05-02T15:57:52Z</time></trkpt><trkpt lat="40.83628969116382" lon="8.909365862156376"><ele>44.0</ele><time>2026-05-02T15:57:53Z</time></trkpt><trkpt lat="40.836366720092606" lon="8.90917658927704"><ele>44.0</ele><time>2026-05-02T15:57:54Z</time></trkpt><trkpt lat="40.83644389023668" lon="8.908966177420126"><ele>44.0</ele><time>2026-05-02T15:57:55Z</time></trkpt><trkpt lat="40.83652258413714" lon="8.908749321874307"><ele>44.0</ele><time>2026-05-02T15:57:56Z</time></trkpt><trkpt lat="40.83660722527302" lon="8.908522244633286"><ele>44.0</ele><time>2026-05-02T15:57:57Z</time></trkpt><trkpt lat="40.83669477120474" lon="8.908283693920138"><ele>44.0</ele><time>2026-05-02T15:57:58Z</time></trkpt><trkpt lat="40.83678246428456" lon="8.908038740764018"><ele>44.0</ele><time>2026-05-02T15:57:59Z</time></trkpt><trkpt lat="40.83686697765635" lon="8.907792384313332"><ele>44.0</ele><time>2026-05-02T15:58:00Z</time></trkpt><trkpt lat="40.8369498142202" lon="8.907520920059943"><ele>40.5</ele><time>2026-05-02T15:58:01Z</time></trkpt><trkpt lat="40.83703912192686" lon="8.907237808361243"><ele>37.0</ele><time>2026-05-02T15:58:02Z</time></trkpt><trkpt lat="40.83713071612841" lon="8.906950925607898"><ele>37.0</ele><time>2026-05-02T15:58:03Z</time></trkpt><trkpt lat="40.837224857898214" lon="8.906659015603497"><ele>37.0</ele><time>2026-05-02T15:58:04Z</time></trkpt><trkpt lat="40.83731850347023" lon="8.906361032187615"><ele>37.0</ele><time>2026-05-02T15:58:05Z</time></trkpt><trkpt lat="40.8374170718851" lon="8.906062746646683"><ele>37.0</ele><time>2026-05-02T15:58:06Z</time></trkpt><trkpt lat="40.83751417427835" lon="8.905763676591233"><ele>37.0</ele><time>2026-05-02T15:58:07Z</time></trkpt><trkpt lat="40.837606883043634" lon="8.905467205399217"><ele>37.0</ele><time>2026-05-02T15:58:08Z</time></trkpt><trkpt lat="40.83769865894751" lon="8.905189446885702"><ele>37.0</ele><time>2026-05-02T15:58:09Z</time></trkpt><trkpt lat="40.837780063970655" lon="8.904933885772056"><ele>37.0</ele><time>2026-05-02T15:58:10Z</time></trkpt><trkpt lat="40.8378507671229" lon="8.904720782837927"><ele>37.0</ele><time>2026-05-02T15:58:11Z</time></trkpt><trkpt lat="40.83791544450952" lon="8.904539645403476"><ele>37.0</ele><time>2026-05-02T15:58:12Z</time></trkpt><trkpt lat="40.837980986679675" lon="8.904391832111255"><ele>37.0</ele><time>2026-05-02T15:58:13Z</time></trkpt><trkpt lat="40.83806972010215" lon="8.904269299249824"><ele>37.0</ele><time>2026-05-02T15:58:14Z</time></trkpt><trkpt lat="40.8381658683847" lon="8.904168298444583"><ele>37.0</ele><time>2026-05-02T15:58:15Z</time></trkpt><trkpt lat="40.83825053231111" lon="8.904086904682204"><ele>36.75</ele><time>2026-05-02T15:58:16Z</time></trkpt><trkpt lat="40.83828763386254" lon="8.904012958855043"><ele>36.5</ele><time>2026-05-02T15:58:17Z</time></trkpt><trkpt lat="40.83834148385858" lon="8.903922004890653"><ele>36.25</ele><time>2026-05-02T15:58:19Z</time></trkpt><trkpt lat="40.838282453821755" lon="8.903716687184502"><ele>36.0</ele><time>2026-05-02T15:58:21Z</time></trkpt><trkpt lat="40.83817298007217" lon="8.903555775197983"><ele>35.666666666666664</ele><time>2026-05-02T15:58:22Z</time></trkpt><trkpt lat="40.838062349244574" lon="8.90339611859637"><ele>35.33333333333333</ele><time>2026-05-02T15:58:23Z</time></trkpt><trkpt lat="40.83793364385136" lon="8.903235989627829"><ele>35.0</ele><time>2026-05-02T15:58:24Z</time></trkpt><trkpt lat="40.83779635359365" lon="8.903068433002261"><ele>35.0</ele><time>2026-05-02T15:58:25Z</time></trkpt><trkpt lat="40.83766244396737" lon="8.902877316675465"><ele>35.0</ele><time>2026-05-02T15:58:26Z</time></trkpt><trkpt lat="40.83751639311943" lon="8.902679822340382"><ele>35.0</ele><time>2026-05-02T15:58:27Z</time></trkpt><trkpt lat="40.83736569774032" lon="8.90247505274748"><ele>34.5</ele><time>2026-05-02T15:58:28Z</time></trkpt><trkpt lat="40.83720654125839" lon="8.902262321287518"><ele>34.0</ele><time>2026-05-02T15:58:29Z</time></trkpt><trkpt lat="40.8370384566702" lon="8.902039418470126"><ele>34.0</ele><time>2026-05-02T15:58:30Z</time></trkpt><trkpt lat="40.83687243542396" lon="8.9018319045613"><ele>34.0</ele><time>2026-05-02T15:58:31Z</time></trkpt><trkpt lat="40.83670644595477" lon="8.901609809746148"><ele>33.66666666666667</ele><time>2026-05-02T15:58:32Z</time></trkpt><trkpt lat="40.83655320499841" lon="8.901414680786871"><ele>33.333333333333336</ele><time>2026-05-02T15:58:33Z</time></trkpt><trkpt lat="40.83640641565597" lon="8.901220171773694"><ele>33.0</ele><time>2026-05-02T15:58:34Z</time></trkpt><trkpt lat="40.836256945431046" lon="8.901022846299732"><ele>33.666666666666664</ele><time>2026-05-02T15:58:35Z</time></trkpt><trkpt lat="40.83610541769859" lon="8.900825740388184"><ele>34.33333333333333</ele><time>2026-05-02T15:58:36Z</time></trkpt><trkpt lat="40.83595391785022" lon="8.900622485647027"><ele>35.0</ele><time>2026-05-02T15:58:37Z</time></trkpt><trkpt lat="40.83580028533793" lon="8.900417561131242"><ele>35.0</ele><time>2026-05-02T15:58:38Z</time></trkpt><trkpt lat="40.83564263345837" lon="8.900207205857905"><ele>35.0</ele><time>2026-05-02T15:58:39Z</time></trkpt><trkpt lat="40.835487392634306" lon="8.900010033843335"><ele>35.0</ele><time>2026-05-02T15:58:40Z</time></trkpt><trkpt lat="40.835348494506015" lon="8.899819779851443"><ele>35.33333333333333</ele><time>2026-05-02T15:58:41Z</time></trkpt><trkpt lat="40.83522171920237" lon="8.899647185672105"><ele>35.666666666666664</ele><time>2026-05-02T15:58:42Z</time></trkpt><trkpt lat="40.835106876985044" lon="8.89948355448289"><ele>36.0</ele><time>2026-05-02T15:58:43Z</time></trkpt><trkpt lat="40.83499733236569" lon="8.899331028825303"><ele>37.25</ele><time>2026-05-02T15:58:44Z</time></trkpt><trkpt lat="40.834895244125185" lon="8.899189659709151"><ele>38.5</ele><time>2026-05-02T15:58:45Z</time></trkpt><trkpt lat="40.83480715510521" lon="8.89904535947618"><ele>39.75</ele><time>2026-05-02T15:58:46Z</time></trkpt><trkpt lat="40.83474186238136" lon="8.898919658133117"><ele>41.0</ele><time>2026-05-02T15:58:47Z</time></trkpt><trkpt lat="40.83476782127404" lon="8.898739481520744"><ele>41.0</ele><time>2026-05-02T15:58:48Z</time></trkpt><trkpt lat="40.834821524675235" lon="8.898612151153976"><ele>41.0</ele><time>2026-05-02T15:58:49Z</time></trkpt><trkpt lat="40.83488954414071" lon="8.898488588408634"><ele>41.0</ele><time>2026-05-02T15:58:50Z</time></trkpt><trkpt lat="40.83502425124427" lon="8.898410187373791"><ele>41.0</ele><time>2026-05-02T15:58:51Z</time></trkpt><trkpt lat="40.83513533668361" lon="8.898380371799984"><ele>42.0</ele><time>2026-05-02T15:58:52Z</time></trkpt><trkpt lat="40.83520713185503" lon="8.89833307106665"><ele>43.0</ele><time>2026-05-02T15:58:53Z</time></trkpt><trkpt lat="40.835283511752884" lon="8.898310245043163"><ele>44.0</ele><time>2026-05-02T15:58:54Z</time></trkpt><trkpt lat="40.83536298731332" lon="8.898292882456436"><ele>45.0</ele><time>2026-05-02T15:58:55Z</time></trkpt><trkpt lat="40.83544063265065" lon="8.89827590989575"><ele>46.0</ele><time>2026-05-02T15:58:56Z</time></trkpt><trkpt lat="40.835544839061875" lon="8.898236116197218"><ele>47.0</ele><time>2026-05-02T15:58:58Z</time></trkpt><trkpt lat="40.835611066073646" lon="8.898199433365194"><ele>47.0</ele><time>2026-05-02T15:58:59Z</time></trkpt><trkpt lat="40.83570671737726" lon="8.89816908242864"><ele>47.0</ele><time>2026-05-02T15:59:00Z</time></trkpt><trkpt lat="40.835817067300106" lon="8.898136836358558"><ele>47.0</ele><time>2026-05-02T15:59:01Z</time></trkpt><trkpt lat="40.83594154407451" lon="8.89809446137555"><ele>47.0</ele><time>2026-05-02T15:59:02Z</time></trkpt><trkpt lat="40.83607539918896" lon="8.898043098651254"><ele>50.33333333333333</ele><time>2026-05-02T15:59:03Z</time></trkpt><trkpt lat="40.83621295408126" lon="8.897988719210229"><ele>53.666666666666664</ele><time>2026-05-02T15:59:04Z</time></trkpt><trkpt lat="40.836363822271366" lon="8.897931156496117"><ele>57.0</ele><time>2026-05-02T15:59:05Z</time></trkpt><trkpt lat="40.83652744456842" lon="8.897864422887546"><ele>57.0</ele><time>2026-05-02T15:59:06Z</time></trkpt><trkpt lat="40.836707151576974" lon="8.897791842697373"><ele>57.0</ele><time>2026-05-02T15:59:07Z</time></trkpt><trkpt lat="40.83689963711803" lon="8.89770734437685"><ele>57.0</ele><time>2026-05-02T15:59:08Z</time></trkpt><trkpt lat="40.837098800612125" lon="8.897634943551033"><ele>59.66666666666667</ele><time>2026-05-02T15:59:09Z</time></trkpt><trkpt lat="40.83730826802627" lon="8.897557129120607"><ele>62.333333333333336</ele><time>2026-05-02T15:59:10Z</time></trkpt><trkpt lat="40.83752366953023" lon="8.897478131212255"><ele>65.0</ele><time>2026-05-02T15:59:11Z</time></trkpt><trkpt lat="40.8377469739446" lon="8.897392734359556"><ele>65.0</ele><time>2026-05-02T15:59:12Z</time></trkpt><trkpt lat="40.837969965359974" lon="8.897311154180022"><ele>65.0</ele><time>2026-05-02T15:59:13Z</time></trkpt><trkpt lat="40.83816474550746" lon="8.897232435687428"><ele>65.0</ele><time>2026-05-02T15:59:14Z</time></trkpt><trkpt lat="40.838343328397016" lon="8.897164938472846"><ele>67.0</ele><time>2026-05-02T15:59:15Z</time></trkpt><trkpt lat="40.83852208926508" lon="8.897098141317986"><ele>69.0</ele><time>2026-05-02T15:59:16Z</time></trkpt><trkpt lat="40.8387017607491" lon="8.897031425608775"><ele>71.0</ele><time>2026-05-02T15:59:17Z</time></trkpt><trkpt lat="40.8388800686757" lon="8.896965254284542"><ele>71.0</ele><time>2026-05-02T15:59:18Z</time></trkpt><trkpt lat="40.83905527253832" lon="8.896899792469924"><ele>71.0</ele><time>2026-05-02T15:59:19Z</time></trkpt><trkpt lat="40.83922584561376" lon="8.896832884663329"><ele>71.0</ele><time>2026-05-02T15:59:20Z</time></trkpt><trkpt lat="40.83938944149545" lon="8.896770244957214"><ele>75.33333333333334</ele><time>2026-05-02T15:59:21Z</time></trkpt><trkpt lat="40.83954730945109" lon="8.896716838246519"><ele>79.66666666666667</ele><time>2026-05-02T15:59:22Z</time></trkpt><trkpt lat="40.83971217282652" lon="8.89666742201831"><ele>84.0</ele><time>2026-05-02T15:59:23Z</time></trkpt><trkpt lat="40.83987638669134" lon="8.896607308791118"><ele>84.0</ele><time>2026-05-02T15:59:24Z</time></trkpt><trkpt lat="40.84004821530925" lon="8.89656599042316"><ele>84.0</ele><time>2026-05-02T15:59:25Z</time></trkpt><trkpt lat="40.840216975616464" lon="8.896520917876078"><ele>84.0</ele><time>2026-05-02T15:59:26Z</time></trkpt><trkpt lat="40.8403879840885" lon="8.896480002644525"><ele>86.0</ele><time>2026-05-02T15:59:27Z</time></trkpt><trkpt lat="40.8405594836179" lon="8.896445165004096"><ele>88.0</ele><time>2026-05-02T15:59:28Z</time></trkpt><trkpt lat="40.84072889305734" lon="8.89641896888397"><ele>90.0</ele><time>2026-05-02T15:59:29Z</time></trkpt><trkpt lat="40.84090357721665" lon="8.896386292994832"><ele>91.0</ele><time>2026-05-02T15:59:30Z</time></trkpt><trkpt lat="40.841079141014625" lon="8.89635528895764"><ele>92.0</ele><time>2026-05-02T15:59:31Z</time></trkpt><trkpt lat="40.84125432862015" lon="8.896320465813535"><ele>93.0</ele><time>2026-05-02T15:59:32Z</time></trkpt><trkpt lat="40.841439016488195" lon="8.89627862593181"><ele>93.0</ele><time>2026-05-02T15:59:33Z</time></trkpt><trkpt lat="40.841635672538956" lon="8.89624033133473"><ele>93.0</ele><time>2026-05-02T15:59:34Z</time></trkpt><trkpt lat="40.841857413028265" lon="8.8961917464012"><ele>93.0</ele><time>2026-05-02T15:59:35Z</time></trkpt><trkpt lat="40.842098156764656" lon="8.896145170666985"><ele>95.0</ele><time>2026-05-02T15:59:36Z</time></trkpt><trkpt lat="40.842342052221746" lon="8.896095489279716"><ele>97.0</ele><time>2026-05-02T15:59:37Z</time></trkpt><trkpt lat="40.84258304646676" lon="8.89604478397293"><ele>97.66666666666667</ele><time>2026-05-02T15:59:38Z</time></trkpt><trkpt lat="40.842803870191716" lon="8.896012748234272"><ele>98.33333333333334</ele><time>2026-05-02T15:59:39Z</time></trkpt><trkpt lat="40.84300713074938" lon="8.895967825252482"><ele>99.0</ele><time>2026-05-02T15:59:40Z</time></trkpt><trkpt lat="40.84320256237565" lon="8.895931169752954"><ele>99.0</ele><time>2026-05-02T15:59:41Z</time></trkpt><trkpt lat="40.84338985032373" lon="8.895894323133717"><ele>99.0</ele><time>2026-05-02T15:59:42Z</time></trkpt><trkpt lat="40.84356995971001" lon="8.89585646804097"><ele>99.0</ele><time>2026-05-02T15:59:43Z</time></trkpt><trkpt lat="40.843759653297816" lon="8.895821884170907"><ele>99.0</ele><time>2026-05-02T15:59:44Z</time></trkpt><trkpt lat="40.843957865676046" lon="8.895778736980661"><ele>99.0</ele><time>2026-05-02T15:59:45Z</time></trkpt><trkpt lat="40.844207682579" lon="8.895716094226177"><ele>101.5</ele><time>2026-05-02T15:59:46Z</time></trkpt><trkpt lat="40.844489568586596" lon="8.895682015643214"><ele>104.0</ele><time>2026-05-02T15:59:47Z</time></trkpt><trkpt lat="40.84478055851184" lon="8.895626480525111"><ele>104.0</ele><time>2026-05-02T15:59:48Z</time></trkpt><trkpt lat="40.845058443204174" lon="8.895573145051284"><ele>104.0</ele><time>2026-05-02T15:59:49Z</time></trkpt><trkpt lat="40.84531958985999" lon="8.895501640671673"><ele>106.0</ele><time>2026-05-02T15:59:50Z</time></trkpt><trkpt lat="40.84559578500261" lon="8.895467676834947"><ele>108.0</ele><time>2026-05-02T15:59:51Z</time></trkpt><trkpt lat="40.84586123007469" lon="8.895422799318709"><ele>107.5</ele><time>2026-05-02T15:59:52Z</time></trkpt><trkpt lat="40.84611445245707" lon="8.895368154901664"><ele>107.0</ele><time>2026-05-02T15:59:53Z</time></trkpt><trkpt lat="40.846346141982835" lon="8.895322220977322"><ele>107.0</ele><time>2026-05-02T15:59:54Z</time></trkpt><trkpt lat="40.84654858085838" lon="8.895287733713374"><ele>107.0</ele><time>2026-05-02T15:59:55Z</time></trkpt><trkpt lat="40.84673935753033" lon="8.895254345975104"><ele>107.0</ele><time>2026-05-02T15:59:56Z</time></trkpt><trkpt lat="40.846921096227476" lon="8.895222681026286"><ele>107.66666666666666</ele><time>2026-05-02T15:59:57Z</time></trkpt><trkpt lat="40.84710141582099" lon="8.895189047075029"><ele>108.33333333333334</ele><time>2026-05-02T15:59:58Z</time></trkpt><trkpt lat="40.84727428273268" lon="8.895155817473718"><ele>109.0</ele><time>2026-05-02T15:59:59Z</time></trkpt><trkpt lat="40.84744933774168" lon="8.895118901479242"><ele>112.0</ele><time>2026-05-02T16:00:00Z</time></trkpt><trkpt lat="40.84763315369244" lon="8.895078919588117"><ele>115.0</ele><time>2026-05-02T16:00:01Z</time></trkpt><trkpt lat="40.847816059871896" lon="8.895041446228321"><ele>118.0</ele><time>2026-05-02T16:00:02Z</time></trkpt><trkpt lat="40.8480031829847" lon="8.895001965884036"><ele>118.0</ele><time>2026-05-02T16:00:03Z</time></trkpt><trkpt lat="40.84819093906921" lon="8.894950582858439"><ele>118.0</ele><time>2026-05-02T16:00:04Z</time></trkpt><trkpt lat="40.84837122808882" lon="8.894881588901725"><ele>118.0</ele><time>2026-05-02T16:00:05Z</time></trkpt><trkpt lat="40.84854256024806" lon="8.894795972207035"><ele>118.0</ele><time>2026-05-02T16:00:06Z</time></trkpt><trkpt lat="40.84869495531246" lon="8.894701172048153"><ele>118.0</ele><time>2026-05-02T16:00:07Z</time></trkpt><trkpt lat="40.848834422577085" lon="8.894601012978006"><ele>118.0</ele><time>2026-05-02T16:00:08Z</time></trkpt><trkpt lat="40.84896382354891" lon="8.8945020358258"><ele>118.0</ele><time>2026-05-02T16:00:09Z</time></trkpt><trkpt lat="40.84909463560914" lon="8.894397983361484"><ele>118.0</ele><time>2026-05-02T16:00:10Z</time></trkpt><trkpt lat="40.84923364013683" lon="8.894286197488777"><ele>118.0</ele><time>2026-05-02T16:00:11Z</time></trkpt><trkpt lat="40.84939008311136" lon="8.894160975723485"><ele>116.0</ele><time>2026-05-02T16:00:12Z</time></trkpt><trkpt lat="40.84956105866838" lon="8.894033579746273"><ele>114.0</ele><time>2026-05-02T16:00:13Z</time></trkpt><trkpt lat="40.84974051502353" lon="8.893913830327289"><ele>112.0</ele><time>2026-05-02T16:00:14Z</time></trkpt><trkpt lat="40.84992636515813" lon="8.89378852159793"><ele>112.0</ele><time>2026-05-02T16:00:15Z</time></trkpt><trkpt lat="40.850113779311634" lon="8.89364882219621"><ele>112.0</ele><time>2026-05-02T16:00:16Z</time></trkpt><trkpt lat="40.85030414667608" lon="8.893503795714208"><ele>112.0</ele><time>2026-05-02T16:00:17Z</time></trkpt><trkpt lat="40.85050069890336" lon="8.893356763102208"><ele>109.5</ele><time>2026-05-02T16:00:18Z</time></trkpt><trkpt lat="40.8506977966578" lon="8.893210278681"><ele>107.0</ele><time>2026-05-02T16:00:19Z</time></trkpt><trkpt lat="40.850895296173086" lon="8.893063690121968"><ele>104.0</ele><time>2026-05-02T16:00:20Z</time></trkpt><trkpt lat="40.85109279517207" lon="8.892917517842818"><ele>101.0</ele><time>2026-05-02T16:00:21Z</time></trkpt><trkpt lat="40.85128881212664" lon="8.892771363027125"><ele>101.0</ele><time>2026-05-02T16:00:22Z</time></trkpt><trkpt lat="40.8514862962761" lon="8.89262500039379"><ele>101.0</ele><time>2026-05-02T16:00:23Z</time></trkpt><trkpt lat="40.851691179064794" lon="8.892471058093395"><ele>101.0</ele><time>2026-05-02T16:00:24Z</time></trkpt><trkpt lat="40.85189357627233" lon="8.892316879580152"><ele>101.0</ele><time>2026-05-02T16:00:25Z</time></trkpt><trkpt lat="40.852099189262624" lon="8.892164686887249"><ele>101.0</ele><time>2026-05-02T16:00:26Z</time></trkpt><trkpt lat="40.85231412031321" lon="8.89201367856312"><ele>101.0</ele><time>2026-05-02T16:00:27Z</time></trkpt><trkpt lat="40.852531378936256" lon="8.891870894796709"><ele>102.5</ele><time>2026-05-02T16:00:28Z</time></trkpt><trkpt lat="40.852756099922" lon="8.891745698612466"><ele>104.0</ele><time>2026-05-02T16:00:29Z</time></trkpt><trkpt lat="40.85297929298094" lon="8.891643415125715"><ele>104.0</ele><time>2026-05-02T16:00:30Z</time></trkpt><trkpt lat="40.8532019977033" lon="8.891555710348637"><ele>104.0</ele><time>2026-05-02T16:00:31Z</time></trkpt><trkpt lat="40.85342597277281" lon="8.891487782202532"><ele>102.0</ele><time>2026-05-02T16:00:32Z</time></trkpt><trkpt lat="40.85365155445408" lon="8.89143846103566"><ele>100.0</ele><time>2026-05-02T16:00:33Z</time></trkpt><trkpt lat="40.85388298080248" lon="8.891409878818346"><ele>100.0</ele><time>2026-05-02T16:00:34Z</time></trkpt><trkpt lat="40.85412460403106" lon="8.89139767589012"><ele>100.0</ele><time>2026-05-02T16:00:35Z</time></trkpt><trkpt lat="40.854367308240704" lon="8.891395930962869"><ele>101.0</ele><time>2026-05-02T16:00:36Z</time></trkpt><trkpt lat="40.85460899885367" lon="8.891407270654518"><ele>102.0</ele><time>2026-05-02T16:00:37Z</time></trkpt><trkpt lat="40.85485460946282" lon="8.891432350339418"><ele>102.0</ele><time>2026-05-02T16:00:38Z</time></trkpt><trkpt lat="40.85510535494826" lon="8.891466031936039"><ele>102.0</ele><time>2026-05-02T16:00:39Z</time></trkpt><trkpt lat="40.85536209194795" lon="8.891503496104972"><ele>105.0</ele><time>2026-05-02T16:00:40Z</time></trkpt><trkpt lat="40.85563122115935" lon="8.891538892900403"><ele>108.0</ele><time>2026-05-02T16:00:41Z</time></trkpt><trkpt lat="40.8559021724305" lon="8.891569693152006"><ele>110.0</ele><time>2026-05-02T16:00:42Z</time></trkpt><trkpt lat="40.8561792511445" lon="8.891601549096041"><ele>112.0</ele><time>2026-05-02T16:00:43Z</time></trkpt><trkpt lat="40.85645477901796" lon="8.89163445390796"><ele>112.0</ele><time>2026-05-02T16:00:44Z</time></trkpt><trkpt lat="40.85672656564303" lon="8.891662255911704"><ele>112.0</ele><time>2026-05-02T16:00:45Z</time></trkpt><trkpt lat="40.856994485128645" lon="8.891714993330158"><ele>112.5</ele><time>2026-05-02T16:00:46Z</time></trkpt><trkpt lat="40.85729468557486" lon="8.891756363088609"><ele>113.0</ele><time>2026-05-02T16:00:47Z</time></trkpt><trkpt lat="40.85756972044515" lon="8.89178602808628"><ele>114.0</ele><time>2026-05-02T16:00:48Z</time></trkpt><trkpt lat="40.85783789066335" lon="8.8918179906944"><ele>115.0</ele><time>2026-05-02T16:00:49Z</time></trkpt><trkpt lat="40.858106414471735" lon="8.891856838553714"><ele>115.0</ele><time>2026-05-02T16:00:50Z</time></trkpt><trkpt lat="40.858371291274494" lon="8.891894744502084"><ele>115.0</ele><time>2026-05-02T16:00:51Z</time></trkpt><trkpt lat="40.8586291497123" lon="8.891936384560161"><ele>115.0</ele><time>2026-05-02T16:00:52Z</time></trkpt><trkpt lat="40.85889273439302" lon="8.891969130644366"><ele>115.0</ele><time>2026-05-02T16:00:53Z</time></trkpt><trkpt lat="40.8591494664283" lon="8.891999856432328"><ele>113.5</ele><time>2026-05-02T16:00:54Z</time></trkpt><trkpt lat="40.859405668099235" lon="8.892026630277964"><ele>112.0</ele><time>2026-05-02T16:00:55Z</time></trkpt><trkpt lat="40.859665681981795" lon="8.892064658032464"><ele>112.0</ele><time>2026-05-02T16:00:56Z</time></trkpt><trkpt lat="40.85992656149033" lon="8.89209909777334"><ele>112.0</ele><time>2026-05-02T16:00:57Z</time></trkpt><trkpt lat="40.86019141975897" lon="8.892131604236962"><ele>111.0</ele><time>2026-05-02T16:00:58Z</time></trkpt><trkpt lat="40.86045916736648" lon="8.89216859107221"><ele>110.0</ele><time>2026-05-02T16:00:59Z</time></trkpt><trkpt lat="40.860730728336286" lon="8.892205224869246"><ele>110.5</ele><time>2026-05-02T16:01:00Z</time></trkpt><trkpt lat="40.86099826111155" lon="8.892241630525"><ele>111.0</ele><time>2026-05-02T16:01:01Z</time></trkpt><trkpt lat="40.861263453969265" lon="8.892272753118688"><ele>111.0</ele><time>2026-05-02T16:01:02Z</time></trkpt><trkpt lat="40.86151971142747" lon="8.892306900922053"><ele>111.0</ele><time>2026-05-02T16:01:03Z</time></trkpt><trkpt lat="40.86176974514009" lon="8.89233861956862"><ele>111.0</ele><time>2026-05-02T16:01:04Z</time></trkpt><trkpt lat="40.86202365560199" lon="8.892369395097509"><ele>111.0</ele><time>2026-05-02T16:01:05Z</time></trkpt><trkpt lat="40.86228652590842" lon="8.892403333353174"><ele>111.0</ele><time>2026-05-02T16:01:06Z</time></trkpt><trkpt lat="40.86255604458214" lon="8.892441221527701"><ele>111.0</ele><time>2026-05-02T16:01:07Z</time></trkpt><trkpt lat="40.8628269804581" lon="8.89248081903694"><ele>111.5</ele><time>2026-05-02T16:01:08Z</time></trkpt><trkpt lat="40.863103996442476" lon="8.892516068464076"><ele>112.0</ele><time>2026-05-02T16:01:09Z</time></trkpt><trkpt lat="40.863377658472565" lon="8.89254636204982"><ele>110.5</ele><time>2026-05-02T16:01:10Z</time></trkpt><trkpt lat="40.863648791026236" lon="8.89257979800016"><ele>109.0</ele><time>2026-05-02T16:01:11Z</time></trkpt><trkpt lat="40.86391892458369" lon="8.892616636341089"><ele>107.5</ele><time>2026-05-02T16:01:12Z</time></trkpt><trkpt lat="40.86418557032319" lon="8.892651369135171"><ele>106.0</ele><time>2026-05-02T16:01:13Z</time></trkpt><trkpt lat="40.86445164197156" lon="8.892686954751579"><ele>103.5</ele><time>2026-05-02T16:01:14Z</time></trkpt><trkpt lat="40.86471728345347" lon="8.892720665540761"><ele>101.0</ele><time>2026-05-02T16:01:15Z</time></trkpt><trkpt lat="40.86497913146102" lon="8.892753684195807"><ele>102.5</ele><time>2026-05-02T16:01:16Z</time></trkpt><trkpt lat="40.86523127088812" lon="8.89278579032528"><ele>104.0</ele><time>2026-05-02T16:01:17Z</time></trkpt><trkpt lat="40.865466843335604" lon="8.892821008667731"><ele>104.0</ele><time>2026-05-02T16:01:18Z</time></trkpt><trkpt lat="40.86570204278864" lon="8.892849980282358"><ele>104.0</ele><time>2026-05-02T16:01:19Z</time></trkpt><trkpt lat="40.86593117422189" lon="8.892880501431426"><ele>103.33333333333333</ele><time>2026-05-02T16:01:20Z</time></trkpt><trkpt lat="40.866146840825515" lon="8.892909177326587"><ele>102.66666666666666</ele><time>2026-05-02T16:01:21Z</time></trkpt><trkpt lat="40.8663542862674" lon="8.89293818025088"><ele>102.0</ele><time>2026-05-02T16:01:22Z</time></trkpt><trkpt lat="40.86656552506996" lon="8.892966544797323"><ele>100.66666666666666</ele><time>2026-05-02T16:01:23Z</time></trkpt><trkpt lat="40.8667851474907" lon="8.892989308615558"><ele>99.33333333333333</ele><time>2026-05-02T16:01:24Z</time></trkpt><trkpt lat="40.86700640446517" lon="8.892991726234177"><ele>98.0</ele><time>2026-05-02T16:01:25Z</time></trkpt><trkpt lat="40.867225884539344" lon="8.892981725458455"><ele>98.0</ele><time>2026-05-02T16:01:26Z</time></trkpt><trkpt lat="40.86744561955314" lon="8.8929201749866"><ele>98.0</ele><time>2026-05-02T16:01:27Z</time></trkpt><trkpt lat="40.8676549385675" lon="8.892820576181363"><ele>98.0</ele><time>2026-05-02T16:01:28Z</time></trkpt><trkpt lat="40.867855532492" lon="8.89268511286051"><ele>95.66666666666666</ele><time>2026-05-02T16:01:29Z</time></trkpt><trkpt lat="40.86803995480797" lon="8.892523872380774"><ele>93.33333333333333</ele><time>2026-05-02T16:01:30Z</time></trkpt><trkpt lat="40.86819953696702" lon="8.892334853061998"><ele>91.0</ele><time>2026-05-02T16:01:31Z</time></trkpt><trkpt lat="40.868351866162925" lon="8.89211449359165"><ele>87.0</ele><time>2026-05-02T16:01:32Z</time></trkpt><trkpt lat="40.86850818365625" lon="8.891876272591475"><ele>83.0</ele><time>2026-05-02T16:01:33Z</time></trkpt><trkpt lat="40.86867171475956" lon="8.891638128817446"><ele>83.0</ele><time>2026-05-02T16:01:34Z</time></trkpt><trkpt lat="40.86883870388756" lon="8.891396831668274"><ele>83.0</ele><time>2026-05-02T16:01:35Z</time></trkpt><trkpt lat="40.86900816465718" lon="8.891153227005852"><ele>84.0</ele><time>2026-05-02T16:01:36Z</time></trkpt><trkpt lat="40.86918040266965" lon="8.890910150460224"><ele>85.0</ele><time>2026-05-02T16:01:37Z</time></trkpt><trkpt lat="40.869340625315736" lon="8.890683857251123"><ele>82.33333333333333</ele><time>2026-05-02T16:01:38Z</time></trkpt><trkpt lat="40.8694917307533" lon="8.890468397996612"><ele>79.66666666666667</ele><time>2026-05-02T16:01:39Z</time></trkpt><trkpt lat="40.86963619443142" lon="8.890257620718879"><ele>77.0</ele><time>2026-05-02T16:01:40Z</time></trkpt><trkpt lat="40.86977705563388" lon="8.890053485979232"><ele>77.0</ele><time>2026-05-02T16:01:41Z</time></trkpt><trkpt lat="40.86991980537288" lon="8.889851246188686"><ele>77.0</ele><time>2026-05-02T16:01:42Z</time></trkpt><trkpt lat="40.87006707548852" lon="8.88964489808656"><ele>77.0</ele><time>2026-05-02T16:01:43Z</time></trkpt><trkpt lat="40.870223787061406" lon="8.889436339903373"><ele>73.66666666666667</ele><time>2026-05-02T16:01:44Z</time></trkpt><trkpt lat="40.87038779691903" lon="8.889262054571855"><ele>70.33333333333333</ele><time>2026-05-02T16:01:45Z</time></trkpt><trkpt lat="40.870569810397555" lon="8.889115407448415"><ele>67.0</ele><time>2026-05-02T16:01:46Z</time></trkpt><trkpt lat="40.870772798559365" lon="8.888988861525497"><ele>65.33333333333333</ele><time>2026-05-02T16:01:47Z</time></trkpt><trkpt lat="40.87097785888745" lon="8.888894621125178"><ele>63.66666666666667</ele><time>2026-05-02T16:01:48Z</time></trkpt><trkpt lat="40.8711848872908" lon="8.888831925460044"><ele>62.0</ele><time>2026-05-02T16:01:49Z</time></trkpt><trkpt lat="40.87140020773137" lon="8.888815803781625"><ele>62.0</ele><time>2026-05-02T16:01:50Z</time></trkpt><trkpt lat="40.87162557534144" lon="8.888843899988688"><ele>62.0</ele><time>2026-05-02T16:01:51Z</time></trkpt><trkpt lat="40.871838905071364" lon="8.888889150682036"><ele>62.0</ele><time>2026-05-02T16:01:52Z</time></trkpt><trkpt lat="40.87204206052409" lon="8.888970680594054"><ele>58.66666666666667</ele><time>2026-05-02T16:01:53Z</time></trkpt><trkpt lat="40.87222313229822" lon="8.889079756340086"><ele>55.33333333333333</ele><time>2026-05-02T16:01:54Z</time></trkpt><trkpt lat="40.87241479676663" lon="8.889227974599077"><ele>52.0</ele><time>2026-05-02T16:01:55Z</time></trkpt><trkpt lat="40.87261141506354" lon="8.88940993254166"><ele>44.5</ele><time>2026-05-02T16:01:56Z</time></trkpt><trkpt lat="40.87281291815015" lon="8.889603341961742"><ele>37.0</ele><time>2026-05-02T16:01:57Z</time></trkpt><trkpt lat="40.873012749907744" lon="8.889797970082691"><ele>37.0</ele><time>2026-05-02T16:01:58Z</time></trkpt><trkpt lat="40.87321014205315" lon="8.889976761636172"><ele>37.0</ele><time>2026-05-02T16:01:59Z</time></trkpt><trkpt lat="40.873408776483544" lon="8.890154424717092"><ele>43.5</ele><time>2026-05-02T16:02:00Z</time></trkpt><trkpt lat="40.87359866792941" lon="8.89032854687339"><ele>50.0</ele><time>2026-05-02T16:02:01Z</time></trkpt><trkpt lat="40.873785497887255" lon="8.890486636280176"><ele>50.0</ele><time>2026-05-02T16:02:02Z</time></trkpt><trkpt lat="40.873945775529734" lon="8.890649352468879"><ele>50.0</ele><time>2026-05-02T16:02:03Z</time></trkpt><trkpt lat="40.87407033724247" lon="8.890813165392531"><ele>50.0</ele><time>2026-05-02T16:02:04Z</time></trkpt><trkpt lat="40.87420518580383" lon="8.89099746299654"><ele>54.66666666666667</ele><time>2026-05-02T16:02:05Z</time></trkpt><trkpt lat="40.874304393702914" lon="8.891211240086593"><ele>59.33333333333333</ele><time>2026-05-02T16:02:06Z</time></trkpt><trkpt lat="40.87436750575527" lon="8.891414616417089"><ele>64.0</ele><time>2026-05-02T16:02:07Z</time></trkpt><trkpt lat="40.87440341797241" lon="8.891623701010008"><ele>64.0</ele><time>2026-05-02T16:02:08Z</time></trkpt><trkpt lat="40.87442337515438" lon="8.891856017747092"><ele>64.0</ele><time>2026-05-02T16:02:09Z</time></trkpt><trkpt lat="40.874428026114" lon="8.892105237338306"><ele>64.0</ele><time>2026-05-02T16:02:10Z</time></trkpt><trkpt lat="40.87442445499189" lon="8.892359801683403"><ele>64.33333333333333</ele><time>2026-05-02T16:02:11Z</time></trkpt><trkpt lat="40.87443469020332" lon="8.892611255992882"><ele>64.66666666666667</ele><time>2026-05-02T16:02:12Z</time></trkpt><trkpt lat="40.87447997895198" lon="8.89287542652791"><ele>65.0</ele><time>2026-05-02T16:02:13Z</time></trkpt><trkpt lat="40.874553515869074" lon="8.893135661804283"><ele>65.0</ele><time>2026-05-02T16:02:14Z</time></trkpt><trkpt lat="40.87464675298657" lon="8.893363629561982"><ele>65.0</ele><time>2026-05-02T16:02:15Z</time></trkpt><trkpt lat="40.87475794409992" lon="8.893581503412795"><ele>65.0</ele><time>2026-05-02T16:02:16Z</time></trkpt><trkpt lat="40.87489138828306" lon="8.893794925416541"><ele>65.33333333333334</ele><time>2026-05-02T16:02:17Z</time></trkpt><trkpt lat="40.875044586847466" lon="8.893993968867829"><ele>65.66666666666667</ele><time>2026-05-02T16:02:18Z</time></trkpt><trkpt lat="40.8752158268312" lon="8.894164238802196"><ele>66.0</ele><time>2026-05-02T16:02:19Z</time></trkpt><trkpt lat="40.87540016455482" lon="8.894306901756234"><ele>65.66666666666667</ele><time>2026-05-02T16:02:20Z</time></trkpt><trkpt lat="40.87558696445773" lon="8.894423531398132"><ele>65.33333333333334</ele><time>2026-05-02T16:02:21Z</time></trkpt><trkpt lat="40.87577512402595" lon="8.894502416801712"><ele>65.0</ele><time>2026-05-02T16:02:22Z</time></trkpt><trkpt lat="40.87596399917108" lon="8.894549334832343"><ele>65.0</ele><time>2026-05-02T16:02:23Z</time></trkpt><trkpt lat="40.87615510325264" lon="8.89456922470722"><ele>65.0</ele><time>2026-05-02T16:02:24Z</time></trkpt><trkpt lat="40.87635602899744" lon="8.894577930836807"><ele>65.0</ele><time>2026-05-02T16:02:25Z</time></trkpt><trkpt lat="40.876561394767194" lon="8.894582492524936"><ele>65.0</ele><time>2026-05-02T16:02:26Z</time></trkpt><trkpt lat="40.876768269756404" lon="8.894579600123624"><ele>65.0</ele><time>2026-05-02T16:02:27Z</time></trkpt><trkpt lat="40.87697757856739" lon="8.89456226492508"><ele>65.0</ele><time>2026-05-02T16:02:28Z</time></trkpt><trkpt lat="40.87719218741426" lon="8.89452657292752"><ele>64.5</ele><time>2026-05-02T16:02:29Z</time></trkpt><trkpt lat="40.877422593103866" lon="8.894468812975738"><ele>64.0</ele><time>2026-05-02T16:02:30Z</time></trkpt><trkpt lat="40.87766371121716" lon="8.89438957284582"><ele>64.0</ele><time>2026-05-02T16:02:31Z</time></trkpt><trkpt lat="40.877888793215426" lon="8.894291949205757"><ele>64.0</ele><time>2026-05-02T16:02:32Z</time></trkpt><trkpt lat="40.878111109110094" lon="8.894161013814118"><ele>69.5</ele><time>2026-05-02T16:02:33Z</time></trkpt><trkpt lat="40.87832736148981" lon="8.893998537352864"><ele>75.0</ele><time>2026-05-02T16:02:34Z</time></trkpt><trkpt lat="40.87853135090679" lon="8.893807475195894"><ele>75.0</ele><time>2026-05-02T16:02:35Z</time></trkpt><trkpt lat="40.87871730604797" lon="8.893590149735132"><ele>75.0</ele><time>2026-05-02T16:02:36Z</time></trkpt><trkpt lat="40.878890452435336" lon="8.893340537608124"><ele>78.5</ele><time>2026-05-02T16:02:37Z</time></trkpt><trkpt lat="40.879044714529314" lon="8.893066297821333"><ele>82.0</ele><time>2026-05-02T16:02:38Z</time></trkpt><trkpt lat="40.87917697405223" lon="8.892777771861168"><ele>80.0</ele><time>2026-05-02T16:02:39Z</time></trkpt><trkpt lat="40.87927966122761" lon="8.892493329975395"><ele>78.0</ele><time>2026-05-02T16:02:40Z</time></trkpt><trkpt lat="40.879362781863556" lon="8.89218198878004"><ele>78.0</ele><time>2026-05-02T16:02:41Z</time></trkpt><trkpt lat="40.87943881121232" lon="8.891858308100602"><ele>78.0</ele><time>2026-05-02T16:02:42Z</time></trkpt><trkpt lat="40.879515155077726" lon="8.89153363652296"><ele>79.5</ele><time>2026-05-02T16:02:43Z</time></trkpt><trkpt lat="40.87959033857647" lon="8.891212537196"><ele>81.0</ele><time>2026-05-02T16:02:44Z</time></trkpt><trkpt lat="40.879671643297975" lon="8.890898154261471"><ele>81.0</ele><time>2026-05-02T16:02:45Z</time></trkpt><trkpt lat="40.8797584344868" lon="8.890582249258014"><ele>81.0</ele><time>2026-05-02T16:02:46Z</time></trkpt><trkpt lat="40.879836735294155" lon="8.890263120022228"><ele>82.5</ele><time>2026-05-02T16:02:47Z</time></trkpt><trkpt lat="40.87991795258499" lon="8.889939892091157"><ele>84.0</ele><time>2026-05-02T16:02:48Z</time></trkpt><trkpt lat="40.87999625333802" lon="8.88962184978263"><ele>84.0</ele><time>2026-05-02T16:02:49Z</time></trkpt><trkpt lat="40.880071875891055" lon="8.889306024091743"><ele>84.0</ele><time>2026-05-02T16:02:50Z</time></trkpt><trkpt lat="40.880147032385146" lon="8.888996945860315"><ele>83.33333333333333</ele><time>2026-05-02T16:02:51Z</time></trkpt><trkpt lat="40.880223483705805" lon="8.888708528285608"><ele>82.66666666666666</ele><time>2026-05-02T16:02:52Z</time></trkpt><trkpt lat="40.88030444486917" lon="8.88844533568138"><ele>82.0</ele><time>2026-05-02T16:02:53Z</time></trkpt><trkpt lat="40.88040193818543" lon="8.888188384679234"><ele>82.0</ele><time>2026-05-02T16:02:54Z</time></trkpt><trkpt lat="40.88052165964531" lon="8.887934549045905"><ele>82.0</ele><time>2026-05-02T16:02:55Z</time></trkpt><trkpt lat="40.88066061339234" lon="8.88769087047179"><ele>84.5</ele><time>2026-05-02T16:02:56Z</time></trkpt><trkpt lat="40.88081867971066" lon="8.887472322004752"><ele>87.0</ele><time>2026-05-02T16:02:57Z</time></trkpt><trkpt lat="40.880990978112" lon="8.88726392053335"><ele>87.0</ele><time>2026-05-02T16:02:58Z</time></trkpt><trkpt lat="40.881173182033336" lon="8.88708305461107"><ele>87.0</ele><time>2026-05-02T16:02:59Z</time></trkpt><trkpt lat="40.88135919382888" lon="8.886920763457674"><ele>87.0</ele><time>2026-05-02T16:03:00Z</time></trkpt><trkpt lat="40.88154921254032" lon="8.886772070577152"><ele>87.0</ele><time>2026-05-02T16:03:01Z</time></trkpt><trkpt lat="40.88175349365553" lon="8.886658932982439"><ele>87.0</ele><time>2026-05-02T16:03:02Z</time></trkpt><trkpt lat="40.8819720300483" lon="8.886571864304834"><ele>93.5</ele><time>2026-05-02T16:03:03Z</time></trkpt><trkpt lat="40.882195308969" lon="8.886503520699991"><ele>100.0</ele><time>2026-05-02T16:03:04Z</time></trkpt><trkpt lat="40.88241699268511" lon="8.886456362707046"><ele>103.5</ele><time>2026-05-02T16:03:05Z</time></trkpt><trkpt lat="40.88263912299661" lon="8.886423085449367"><ele>107.0</ele><time>2026-05-02T16:03:06Z</time></trkpt><trkpt lat="40.88286638463701" lon="8.8863910279453"><ele>107.0</ele><time>2026-05-02T16:03:07Z</time></trkpt><trkpt lat="40.88310025209684" lon="8.886355137330789"><ele>107.0</ele><time>2026-05-02T16:03:08Z</time></trkpt><trkpt lat="40.88333972476591" lon="8.8863161347846"><ele>116.0</ele><time>2026-05-02T16:03:09Z</time></trkpt><trkpt lat="40.883582576340075" lon="8.886277257224535"><ele>125.0</ele><time>2026-05-02T16:03:10Z</time></trkpt><trkpt lat="40.88383140353427" lon="8.886240325361722"><ele>125.0</ele><time>2026-05-02T16:03:11Z</time></trkpt><trkpt lat="40.88408386206111" lon="8.886201099534325"><ele>125.0</ele><time>2026-05-02T16:03:12Z</time></trkpt><trkpt lat="40.884336882403765" lon="8.886157568231999"><ele>124.0</ele><time>2026-05-02T16:03:13Z</time></trkpt><trkpt lat="40.884585596999564" lon="8.886116612216211"><ele>123.0</ele><time>2026-05-02T16:03:14Z</time></trkpt><trkpt lat="40.884811994103906" lon="8.88608162546699"><ele>123.0</ele><time>2026-05-02T16:03:15Z</time></trkpt><trkpt lat="40.88501468128309" lon="8.886050024789371"><ele>123.0</ele><time>2026-05-02T16:03:16Z</time></trkpt><trkpt lat="40.885202174858286" lon="8.886019965313393"><ele>123.0</ele><time>2026-05-02T16:03:17Z</time></trkpt><trkpt lat="40.885374952068325" lon="8.885994480685715"><ele>124.0</ele><time>2026-05-02T16:03:18Z</time></trkpt><trkpt lat="40.88553309377406" lon="8.885977428906282"><ele>125.0</ele><time>2026-05-02T16:03:19Z</time></trkpt><trkpt lat="40.88569634527535" lon="8.885997396149136"><ele>126.0</ele><time>2026-05-02T16:03:20Z</time></trkpt><trkpt lat="40.88585996920514" lon="8.886062423874174"><ele>135.0</ele><time>2026-05-02T16:03:21Z</time></trkpt><trkpt lat="40.88601253238923" lon="8.886150858100748"><ele>144.0</ele><time>2026-05-02T16:03:22Z</time></trkpt><trkpt lat="40.88616368618629" lon="8.886281789174271"><ele>153.0</ele><time>2026-05-02T16:03:23Z</time></trkpt><trkpt lat="40.88628333891038" lon="8.886442173457375"><ele>153.0</ele><time>2026-05-02T16:03:24Z</time></trkpt><trkpt lat="40.886387600319836" lon="8.886642526422769"><ele>153.0</ele><time>2026-05-02T16:03:25Z</time></trkpt><trkpt lat="40.886448554815985" lon="8.886892401553313"><ele>153.0</ele><time>2026-05-02T16:03:26Z</time></trkpt><trkpt lat="40.88649167265961" lon="8.887147805522707"><ele>153.0</ele><time>2026-05-02T16:03:27Z</time></trkpt><trkpt lat="40.88654253661245" lon="8.887416001376323"><ele>153.0</ele><time>2026-05-02T16:03:28Z</time></trkpt><trkpt lat="40.88657608515802" lon="8.887708596964542"><ele>153.0</ele><time>2026-05-02T16:03:29Z</time></trkpt><trkpt lat="40.886620457597814" lon="8.888005778597313"><ele>153.5</ele><time>2026-05-02T16:03:30Z</time></trkpt><trkpt lat="40.88665207243741" lon="8.888324776882072"><ele>154.0</ele><time>2026-05-02T16:03:31Z</time></trkpt><trkpt lat="40.88669614974748" lon="8.888653959960518"><ele>152.0</ele><time>2026-05-02T16:03:32Z</time></trkpt><trkpt lat="40.88673979010765" lon="8.888979879594007"><ele>150.0</ele><time>2026-05-02T16:03:33Z</time></trkpt><trkpt lat="40.88678094617201" lon="8.8892872458344"><ele>174.0</ele><time>2026-05-02T16:03:34Z</time></trkpt><trkpt lat="40.886824343796796" lon="8.88960971866907"><ele>198.0</ele><time>2026-05-02T16:03:35Z</time></trkpt><trkpt lat="40.886881597339034" lon="8.889921187215764"><ele>194.0</ele><time>2026-05-02T16:03:36Z</time></trkpt><trkpt lat="40.88692220473024" lon="8.890222637940413"><ele>190.0</ele><time>2026-05-02T16:03:37Z</time></trkpt><trkpt lat="40.88695854140861" lon="8.890492245312245"><ele>186.0</ele><time>2026-05-02T16:03:38Z</time></trkpt><trkpt lat="40.88699834495746" lon="8.890749403803875"><ele>178.66666666666666</ele><time>2026-05-02T16:03:39Z</time></trkpt><trkpt lat="40.887054698682725" lon="8.891008297206255"><ele>171.33333333333331</ele><time>2026-05-02T16:03:40Z</time></trkpt><trkpt lat="40.8871331451759" lon="8.891257985106083"><ele>164.0</ele><time>2026-05-02T16:03:41Z</time></trkpt><trkpt lat="40.88724095946773" lon="8.891487257340476"><ele>164.0</ele><time>2026-05-02T16:03:42Z</time></trkpt><trkpt lat="40.887382180311235" lon="8.891700374300035"><ele>164.0</ele><time>2026-05-02T16:03:43Z</time></trkpt><trkpt lat="40.88754855582156" lon="8.891900226042207"><ele>164.0</ele><time>2026-05-02T16:03:44Z</time></trkpt><trkpt lat="40.887722498466744" lon="8.892104202340898"><ele>165.66666666666666</ele><time>2026-05-02T16:03:45Z</time></trkpt><trkpt lat="40.88787916883632" lon="8.892285827933982"><ele>167.33333333333334</ele><time>2026-05-02T16:03:46Z</time></trkpt><trkpt lat="40.888036872888776" lon="8.892435066282847"><ele>169.0</ele><time>2026-05-02T16:03:47Z</time></trkpt><trkpt lat="40.88820493294526" lon="8.892555448287727"><ele>160.0</ele><time>2026-05-02T16:03:48Z</time></trkpt><trkpt lat="40.88839568250627" lon="8.892651551219911"><ele>151.0</ele><time>2026-05-02T16:03:49Z</time></trkpt><trkpt lat="40.888595768572394" lon="8.892714218955161"><ele>142.0</ele><time>2026-05-02T16:03:50Z</time></trkpt><trkpt lat="40.888806197933675" lon="8.892741640814698"><ele>142.0</ele><time>2026-05-02T16:03:51Z</time></trkpt><trkpt lat="40.88901210917569" lon="8.8927760307977"><ele>142.0</ele><time>2026-05-02T16:03:52Z</time></trkpt><trkpt lat="40.889216971912084" lon="8.892737995373198"><ele>142.0</ele><time>2026-05-02T16:03:53Z</time></trkpt><trkpt lat="40.88942337190223" lon="8.892688135344867"><ele>141.0</ele><time>2026-05-02T16:03:54Z</time></trkpt><trkpt lat="40.88963653039472" lon="8.892618765859343"><ele>140.0</ele><time>2026-05-02T16:03:55Z</time></trkpt><trkpt lat="40.8898408266792" lon="8.892560442668165"><ele>139.0</ele><time>2026-05-02T16:03:56Z</time></trkpt><trkpt lat="40.89004379125678" lon="8.892513517265046"><ele>149.66666666666669</ele><time>2026-05-02T16:03:57Z</time></trkpt><trkpt lat="40.89025328215319" lon="8.892495184637776"><ele>160.33333333333334</ele><time>2026-05-02T16:03:58Z</time></trkpt><trkpt lat="40.890459895612736" lon="8.892498800173598"><ele>171.0</ele><time>2026-05-02T16:03:59Z</time></trkpt><trkpt lat="40.89066345000881" lon="8.892521791009496"><ele>171.0</ele><time>2026-05-02T16:04:00Z</time></trkpt><trkpt lat="40.89086168734355" lon="8.892566570186833"><ele>171.0</ele><time>2026-05-02T16:04:01Z</time></trkpt><trkpt lat="40.89105762696165" lon="8.892630543578242"><ele>171.0</ele><time>2026-05-02T16:04:02Z</time></trkpt><trkpt lat="40.89123098353474" lon="8.892693093893275"><ele>168.0</ele><time>2026-05-02T16:04:03Z</time></trkpt><trkpt lat="40.89141247865874" lon="8.892691771367225"><ele>165.0</ele><time>2026-05-02T16:04:04Z</time></trkpt><trkpt lat="40.89160842544418" lon="8.892642724804313"><ele>162.0</ele><time>2026-05-02T16:04:05Z</time></trkpt><trkpt lat="40.89180454303997" lon="8.89255300548788"><ele>162.0</ele><time>2026-05-02T16:04:06Z</time></trkpt><trkpt lat="40.89197839063158" lon="8.892425440127651"><ele>162.0</ele><time>2026-05-02T16:04:07Z</time></trkpt><trkpt lat="40.8921275670019" lon="8.8922433142587"><ele>162.0</ele><time>2026-05-02T16:04:08Z</time></trkpt><trkpt lat="40.89227061556169" lon="8.892044985370354"><ele>162.0</ele><time>2026-05-02T16:04:09Z</time></trkpt><trkpt lat="40.892413057850206" lon="8.891825544776736"><ele>162.0</ele><time>2026-05-02T16:04:10Z</time></trkpt><trkpt lat="40.89255333919469" lon="8.891596746779419"><ele>162.0</ele><time>2026-05-02T16:04:11Z</time></trkpt><trkpt lat="40.8927135543393" lon="8.891345639591613"><ele>160.5</ele><time>2026-05-02T16:04:12Z</time></trkpt><trkpt lat="40.89287091463686" lon="8.891088873233112"><ele>159.0</ele><time>2026-05-02T16:04:13Z</time></trkpt><trkpt lat="40.89303305150313" lon="8.890834000915072"><ele>159.0</ele><time>2026-05-02T16:04:14Z</time></trkpt><trkpt lat="40.89319476637505" lon="8.89058547605822"><ele>159.0</ele><time>2026-05-02T16:04:15Z</time></trkpt><trkpt lat="40.89335603727803" lon="8.89034110862667"><ele>153.0</ele><time>2026-05-02T16:04:16Z</time></trkpt><trkpt lat="40.89351811263778" lon="8.890088451230573"><ele>147.0</ele><time>2026-05-02T16:04:17Z</time></trkpt><trkpt lat="40.893682377740845" lon="8.889826908669257"><ele>147.0</ele><time>2026-05-02T16:04:18Z</time></trkpt><trkpt lat="40.89384911908438" lon="8.889567953716378"><ele>147.0</ele><time>2026-05-02T16:04:19Z</time></trkpt><trkpt lat="40.89401549639235" lon="8.889313501863633"><ele>148.5</ele><time>2026-05-02T16:04:20Z</time></trkpt><trkpt lat="40.89417940308157" lon="8.88906138732676"><ele>150.0</ele><time>2026-05-02T16:04:21Z</time></trkpt><trkpt lat="40.89434016577747" lon="8.888808318953352"><ele>145.5</ele><time>2026-05-02T16:04:22Z</time></trkpt><trkpt lat="40.89450047939053" lon="8.888554916429017"><ele>141.0</ele><time>2026-05-02T16:04:23Z</time></trkpt><trkpt lat="40.89466080564447" lon="8.888302418133136"><ele>141.0</ele><time>2026-05-02T16:04:24Z</time></trkpt><trkpt lat="40.89482031772753" lon="8.888057140022429"><ele>141.0</ele><time>2026-05-02T16:04:25Z</time></trkpt><trkpt lat="40.89497103937101" lon="8.887828859555885"><ele>137.0</ele><time>2026-05-02T16:04:26Z</time></trkpt><trkpt lat="40.895113001503944" lon="8.887609880452"><ele>133.0</ele><time>2026-05-02T16:04:27Z</time></trkpt><trkpt lat="40.89525608812214" lon="8.887385507429785"><ele>129.0</ele><time>2026-05-02T16:04:28Z</time></trkpt><trkpt lat="40.895397212836166" lon="8.88715812684826"><ele>129.0</ele><time>2026-05-02T16:04:29Z</time></trkpt><trkpt lat="40.89552912786972" lon="8.886947959112074"><ele>129.0</ele><time>2026-05-02T16:04:30Z</time></trkpt><trkpt lat="40.89566223254309" lon="8.886758103901771"><ele>129.0</ele><time>2026-05-02T16:04:31Z</time></trkpt><trkpt lat="40.895816446802414" lon="8.886590665188756"><ele>130.66666666666666</ele><time>2026-05-02T16:04:32Z</time></trkpt><trkpt lat="40.89599243454907" lon="8.88646349699553"><ele>132.33333333333331</ele><time>2026-05-02T16:04:33Z</time></trkpt><trkpt lat="40.89617881120002" lon="8.886378602535768"><ele>134.0</ele><time>2026-05-02T16:04:34Z</time></trkpt><trkpt lat="40.89637778016896" lon="8.886328903256759"><ele>134.0</ele><time>2026-05-02T16:04:35Z</time></trkpt><trkpt lat="40.896590062017424" lon="8.886317610223376"><ele>134.0</ele><time>2026-05-02T16:04:36Z</time></trkpt><trkpt lat="40.89681344900776" lon="8.886336557599847"><ele>134.0</ele><time>2026-05-02T16:04:37Z</time></trkpt><trkpt lat="40.8970443585545" lon="8.886379166017603"><ele>134.0</ele><time>2026-05-02T16:04:38Z</time></trkpt><trkpt lat="40.897279196682085" lon="8.886426037429867"><ele>134.0</ele><time>2026-05-02T16:04:39Z</time></trkpt><trkpt lat="40.89750780639198" lon="8.88646533644554"><ele>131.66666666666666</ele><time>2026-05-02T16:04:40Z</time></trkpt><trkpt lat="40.8977178309254" lon="8.886488986000648"><ele>129.33333333333334</ele><time>2026-05-02T16:04:41Z</time></trkpt><trkpt lat="40.897917028805615" lon="8.886497110972313"><ele>127.0</ele><time>2026-05-02T16:04:42Z</time></trkpt><trkpt lat="40.89811276266591" lon="8.886476275503169"><ele>127.0</ele><time>2026-05-02T16:04:43Z</time></trkpt><trkpt lat="40.89830803359895" lon="8.88640583691923"><ele>127.0</ele><time>2026-05-02T16:04:44Z</time></trkpt><trkpt lat="40.89850390742405" lon="8.886277469908615"><ele>127.0</ele><time>2026-05-02T16:04:45Z</time></trkpt><trkpt lat="40.89869976513094" lon="8.886103105010992"><ele>125.5</ele><time>2026-05-02T16:04:46Z</time></trkpt><trkpt lat="40.89889235112138" lon="8.885902933121507"><ele>124.0</ele><time>2026-05-02T16:04:47Z</time></trkpt><trkpt lat="40.89909153622196" lon="8.885699214832739"><ele>117.0</ele><time>2026-05-02T16:04:48Z</time></trkpt><trkpt lat="40.8992930126241" lon="8.88550377353756"><ele>110.0</ele><time>2026-05-02T16:04:49Z</time></trkpt><trkpt lat="40.89949281362887" lon="8.88530494268196"><ele>110.0</ele><time>2026-05-02T16:04:50Z</time></trkpt><trkpt lat="40.89968161013764" lon="8.885101491710632"><ele>110.0</ele><time>2026-05-02T16:04:51Z</time></trkpt><trkpt lat="40.89985314572096" lon="8.884898267148499"><ele>112.0</ele><time>2026-05-02T16:04:52Z</time></trkpt><trkpt lat="40.90001844074578" lon="8.88468613456987"><ele>114.0</ele><time>2026-05-02T16:04:53Z</time></trkpt><trkpt lat="40.900184336573325" lon="8.884472507887748"><ele>110.33333333333334</ele><time>2026-05-02T16:04:54Z</time></trkpt><trkpt lat="40.9003352160708" lon="8.88428338578254"><ele>106.66666666666667</ele><time>2026-05-02T16:04:55Z</time></trkpt><trkpt lat="40.900459429683096" lon="8.884122768353217"><ele>103.0</ele><time>2026-05-02T16:04:56Z</time></trkpt><trkpt lat="40.900566819468565" lon="8.883977087698119"><ele>103.0</ele><time>2026-05-02T16:04:57Z</time></trkpt><trkpt lat="40.900657751371874" lon="8.883810677764888"><ele>103.0</ele><time>2026-05-02T16:04:58Z</time></trkpt><trkpt lat="40.90072194645647" lon="8.883603554224337"><ele>103.0</ele><time>2026-05-02T16:04:59Z</time></trkpt><trkpt lat="40.90073787224742" lon="8.88338358552367"><ele>102.66666666666667</ele><time>2026-05-02T16:05:00Z</time></trkpt><trkpt lat="40.900704900286186" lon="8.883172546326733"><ele>102.33333333333334</ele><time>2026-05-02T16:05:01Z</time></trkpt><trkpt lat="40.90062576778906" lon="8.882976068205588"><ele>102.0</ele><time>2026-05-02T16:05:02Z</time></trkpt><trkpt lat="40.900505471252416" lon="8.882817832364031"><ele>102.0</ele><time>2026-05-02T16:05:03Z</time></trkpt><trkpt lat="40.90035402881083" lon="8.882703711389063"><ele>102.0</ele><time>2026-05-02T16:05:04Z</time></trkpt><trkpt lat="40.900204570320255" lon="8.882596205223868"><ele>102.0</ele><time>2026-05-02T16:05:05Z</time></trkpt><trkpt lat="40.90009411912163" lon="8.882467405582133"><ele>104.33333333333334</ele><time>2026-05-02T16:05:06Z</time></trkpt><trkpt lat="40.90003483702299" lon="8.882275255337213"><ele>106.66666666666667</ele><time>2026-05-02T16:05:07Z</time></trkpt><trkpt lat="40.900013929982116" lon="8.882049795862589"><ele>109.0</ele><time>2026-05-02T16:05:08Z</time></trkpt><trkpt lat="40.90004209400899" lon="8.881797756745046"><ele>100.33333333333334</ele><time>2026-05-02T16:05:09Z</time></trkpt><trkpt lat="40.900106692735164" lon="8.881596016821549"><ele>91.66666666666667</ele><time>2026-05-02T16:05:10Z</time></trkpt><trkpt lat="40.900238542152586" lon="8.881457896927259"><ele>83.0</ele><time>2026-05-02T16:05:11Z</time></trkpt><trkpt lat="40.90039060300246" lon="8.881343022145593"><ele>83.0</ele><time>2026-05-02T16:05:12Z</time></trkpt><trkpt lat="40.90056051191281" lon="8.881246137299923"><ele>83.0</ele><time>2026-05-02T16:05:13Z</time></trkpt><trkpt lat="40.9007406194159" lon="8.881206503076617"><ele>83.0</ele><time>2026-05-02T16:05:14Z</time></trkpt><trkpt lat="40.90090053887229" lon="8.88116478907686"><ele>81.66666666666667</ele><time>2026-05-02T16:05:15Z</time></trkpt><trkpt lat="40.90104646753619" lon="8.881098343105094"><ele>80.33333333333333</ele><time>2026-05-02T16:05:16Z</time></trkpt><trkpt lat="40.90116825719049" lon="8.880971989410172"><ele>79.0</ele><time>2026-05-02T16:05:17Z</time></trkpt><trkpt lat="40.901255664751446" lon="8.880777517810936"><ele>79.0</ele><time>2026-05-02T16:05:18Z</time></trkpt><trkpt lat="40.901296460406925" lon="8.880553717451825"><ele>79.0</ele><time>2026-05-02T16:05:19Z</time></trkpt><trkpt lat="40.901327894495864" lon="8.8803157975605"><ele>79.0</ele><time>2026-05-02T16:05:20Z</time></trkpt><trkpt lat="40.90141889422627" lon="8.880108865791183"><ele>79.33333333333333</ele><time>2026-05-02T16:05:21Z</time></trkpt><trkpt lat="40.901519842935336" lon="8.879926379115977"><ele>79.66666666666667</ele><time>2026-05-02T16:05:22Z</time></trkpt><trkpt lat="40.90167417258442" lon="8.87984532526186"><ele>80.0</ele><time>2026-05-02T16:05:23Z</time></trkpt><trkpt lat="40.90181296018032" lon="8.879797361297234"><ele>80.0</ele><time>2026-05-02T16:05:24Z</time></trkpt><trkpt lat="40.90195507090037" lon="8.879798517783676"><ele>80.0</ele><time>2026-05-02T16:05:25Z</time></trkpt><trkpt lat="40.90210738095253" lon="8.879846214392309"><ele>80.0</ele><time>2026-05-02T16:05:26Z</time></trkpt><trkpt lat="40.9022809537887" lon="8.879904922784114"><ele>80.0</ele><time>2026-05-02T16:05:27Z</time></trkpt><trkpt lat="40.90242209232455" lon="8.88004550970476"><ele>80.0</ele><time>2026-05-02T16:05:28Z</time></trkpt><trkpt lat="40.902524165577425" lon="8.880211034310044"><ele>80.0</ele><time>2026-05-02T16:05:29Z</time></trkpt><trkpt lat="40.90259678794641" lon="8.880419937970688"><ele>81.33333333333334</ele><time>2026-05-02T16:05:30Z</time></trkpt><trkpt lat="40.9026739691363" lon="8.880664573840855"><ele>82.66666666666667</ele><time>2026-05-02T16:05:31Z</time></trkpt><trkpt lat="40.90275267026885" lon="8.88091545442453"><ele>84.0</ele><time>2026-05-02T16:05:32Z</time></trkpt><trkpt lat="40.90283930041948" lon="8.881152351984099"><ele>79.66666666666667</ele><time>2026-05-02T16:05:33Z</time></trkpt><trkpt lat="40.902904976641665" lon="8.881395678431002"><ele>75.33333333333334</ele><time>2026-05-02T16:05:34Z</time></trkpt><trkpt lat="40.90297532469916" lon="8.881602127229776"><ele>71.0</ele><time>2026-05-02T16:05:35Z</time></trkpt><trkpt lat="40.90304967732375" lon="8.881834577810276"><ele>67.0</ele><time>2026-05-02T16:05:36Z</time></trkpt><trkpt lat="40.90312042352555" lon="8.88208480472312"><ele>63.0</ele><time>2026-05-02T16:05:37Z</time></trkpt><trkpt lat="40.90320376062604" lon="8.882303982097483"><ele>59.0</ele><time>2026-05-02T16:05:38Z</time></trkpt><trkpt lat="40.90330484622706" lon="8.882490807485869"><ele>57.333333333333336</ele><time>2026-05-02T16:05:39Z</time></trkpt><trkpt lat="40.90343676706446" lon="8.882640427834135"><ele>55.66666666666667</ele><time>2026-05-02T16:05:40Z</time></trkpt><trkpt lat="40.90359394108805" lon="8.882766005829335"><ele>54.0</ele><time>2026-05-02T16:05:41Z</time></trkpt><trkpt lat="40.90377174031905" lon="8.88284110835252"><ele>54.0</ele><time>2026-05-02T16:05:42Z</time></trkpt><trkpt lat="40.90396298494389" lon="8.882863548499534"><ele>54.0</ele><time>2026-05-02T16:05:43Z</time></trkpt><trkpt lat="40.90415567951711" lon="8.882839363847149"><ele>54.0</ele><time>2026-05-02T16:05:44Z</time></trkpt><trkpt lat="40.904333529901" lon="8.882771494257751"><ele>53.0</ele><time>2026-05-02T16:05:45Z</time></trkpt><trkpt lat="40.90448794744281" lon="8.8826636725789"><ele>52.0</ele><time>2026-05-02T16:05:46Z</time></trkpt><trkpt lat="40.90461713064974" lon="8.882516867488537"><ele>51.0</ele><time>2026-05-02T16:05:47Z</time></trkpt><trkpt lat="40.90473177870748" lon="8.882332630720107"><ele>51.0</ele><time>2026-05-02T16:05:48Z</time></trkpt><trkpt lat="40.90482984546415" lon="8.882129817500621"><ele>51.0</ele><time>2026-05-02T16:05:49Z</time></trkpt><trkpt lat="40.904904449006956" lon="8.881925754099017"><ele>51.0</ele><time>2026-05-02T16:05:50Z</time></trkpt><trkpt lat="40.90496387200127" lon="8.881725725602507"><ele>51.66666666666667</ele><time>2026-05-02T16:05:51Z</time></trkpt><trkpt lat="40.905024484562546" lon="8.881536106473922"><ele>52.333333333333336</ele><time>2026-05-02T16:05:52Z</time></trkpt><trkpt lat="40.905082032543" lon="8.881354150306095"><ele>53.0</ele><time>2026-05-02T16:05:53Z</time></trkpt><trkpt lat="40.9051418902429" lon="8.88117717658594"><ele>48.25</ele><time>2026-05-02T16:05:54Z</time></trkpt><trkpt lat="40.90520178435872" lon="8.880997169844402"><ele>43.5</ele><time>2026-05-02T16:05:55Z</time></trkpt><trkpt lat="40.90526028040835" lon="8.880816707989963"><ele>38.75</ele><time>2026-05-02T16:05:56Z</time></trkpt><trkpt lat="40.90531748075995" lon="8.88063907070521"><ele>34.0</ele><time>2026-05-02T16:05:57Z</time></trkpt><trkpt lat="40.905367887999645" lon="8.880462141557928"><ele>33.66666666666667</ele><time>2026-05-02T16:05:58Z</time></trkpt><trkpt lat="40.90539831088966" lon="8.880277005963688"><ele>33.333333333333336</ele><time>2026-05-02T16:05:59Z</time></trkpt><trkpt lat="40.90540222436405" lon="8.880073018044447"><ele>33.0</ele><time>2026-05-02T16:06:00Z</time></trkpt><trkpt lat="40.905376305151385" lon="8.8798632260189"><ele>31.666666666666664</ele><time>2026-05-02T16:06:01Z</time></trkpt><trkpt lat="40.90532104594499" lon="8.879660237343849"><ele>30.333333333333332</ele><time>2026-05-02T16:06:02Z</time></trkpt><trkpt lat="40.905236099817316" lon="8.87947243436963"><ele>29.0</ele><time>2026-05-02T16:06:03Z</time></trkpt><trkpt lat="40.90513451439654" lon="8.8793020072217"><ele>32.666666666666664</ele><time>2026-05-02T16:06:04Z</time></trkpt><trkpt lat="40.905029971050084" lon="8.879140823957739"><ele>36.333333333333336</ele><time>2026-05-02T16:06:05Z</time></trkpt><trkpt lat="40.90493626004446" lon="8.87897869813861"><ele>40.0</ele><time>2026-05-02T16:06:06Z</time></trkpt><trkpt lat="40.9048673163855" lon="8.87880676032042"><ele>40.0</ele><time>2026-05-02T16:06:07Z</time></trkpt><trkpt lat="40.90482486410505" lon="8.8786199849373"><ele>40.0</ele><time>2026-05-02T16:06:08Z</time></trkpt><trkpt lat="40.9048149701446" lon="8.878422669304458"><ele>40.0</ele><time>2026-05-02T16:06:09Z</time></trkpt><trkpt lat="40.90484725261166" lon="8.878232958500819"><ele>40.0</ele><time>2026-05-02T16:06:10Z</time></trkpt><trkpt lat="40.90490864639895" lon="8.878062406967766"><ele>38.5</ele><time>2026-05-02T16:06:11Z</time></trkpt><trkpt lat="40.90497828174054" lon="8.877909095677337"><ele>37.0</ele><time>2026-05-02T16:06:12Z</time></trkpt><trkpt lat="40.90507003071242" lon="8.877775148163803"><ele>35.5</ele><time>2026-05-02T16:06:13Z</time></trkpt><trkpt lat="40.90517213910635" lon="8.877666090222299"><ele>34.0</ele><time>2026-05-02T16:06:14Z</time></trkpt><trkpt lat="40.90528297741868" lon="8.877574678604338"><ele>30.25</ele><time>2026-05-02T16:06:15Z</time></trkpt><trkpt lat="40.905402975483426" lon="8.877509936222042"><ele>26.5</ele><time>2026-05-02T16:06:16Z</time></trkpt><trkpt lat="40.905533112255576" lon="8.877463379335316"><ele>22.75</ele><time>2026-05-02T16:06:17Z</time></trkpt><trkpt lat="40.90566902749297" lon="8.87744205606971"><ele>19.0</ele><time>2026-05-02T16:06:18Z</time></trkpt><trkpt lat="40.905809782159565" lon="8.877458491241669"><ele>18.0</ele><time>2026-05-02T16:06:19Z</time></trkpt><trkpt lat="40.905943477032245" lon="8.877496979452838"><ele>17.0</ele><time>2026-05-02T16:06:20Z</time></trkpt><trkpt lat="40.90606596602924" lon="8.877557821370889"><ele>16.0</ele><time>2026-05-02T16:06:21Z</time></trkpt><trkpt lat="40.90618524589683" lon="8.877650062069531"><ele>15.0</ele><time>2026-05-02T16:06:22Z</time></trkpt><trkpt lat="40.906283886141594" lon="8.877783567207073"><ele>15.0</ele><time>2026-05-02T16:06:23Z</time></trkpt><trkpt lat="40.90640111912423" lon="8.877889787024541"><ele>15.0</ele><time>2026-05-02T16:06:24Z</time></trkpt><trkpt lat="40.9065104223768" lon="8.8779995444421"><ele>15.0</ele><time>2026-05-02T16:06:25Z</time></trkpt><trkpt lat="40.906630149953884" lon="8.878075264537138"><ele>15.0</ele><time>2026-05-02T16:06:26Z</time></trkpt><trkpt lat="40.90676963709172" lon="8.878117259421536"><ele>14.25</ele><time>2026-05-02T16:06:27Z</time></trkpt><trkpt lat="40.90691472528405" lon="8.878132074820401"><ele>13.5</ele><time>2026-05-02T16:06:28Z</time></trkpt><trkpt lat="40.90706336127734" lon="8.878101549328047"><ele>12.75</ele><time>2026-05-02T16:06:29Z</time></trkpt><trkpt lat="40.90719965401249" lon="8.878038396566515"><ele>12.0</ele><time>2026-05-02T16:06:30Z</time></trkpt><trkpt lat="40.90730586642005" lon="8.877969362632948"><ele>12.0</ele><time>2026-05-02T16:06:31Z</time></trkpt><trkpt lat="40.907401007723244" lon="8.877905145417389"><ele>12.0</ele><time>2026-05-02T16:06:32Z</time></trkpt><trkpt lat="40.90747496442442" lon="8.87784088748373"><ele>12.0</ele><time>2026-05-02T16:06:33Z</time></trkpt><trkpt lat="40.90753250850704" lon="8.877769867128261"><ele>12.0</ele><time>2026-05-02T16:06:34Z</time></trkpt><trkpt lat="40.90758691582016" lon="8.87770269247808"><ele>12.0</ele><time>2026-05-02T16:06:35Z</time></trkpt><trkpt lat="40.90763392038443" lon="8.877639837894266"><ele>12.0</ele><time>2026-05-02T16:06:36Z</time></trkpt><trkpt lat="40.907716574928074" lon="8.87757273666088"><ele>11.166666666666666</ele><time>2026-05-02T16:06:38Z</time></trkpt><trkpt lat="40.90779570536624" lon="8.877549524234416"><ele>10.333333333333334</ele><time>2026-05-02T16:06:40Z</time></trkpt><trkpt lat="40.907874954965926" lon="8.877562045736855"><ele>9.5</ele><time>2026-05-02T16:06:42Z</time></trkpt><trkpt lat="40.90795051869151" lon="8.877639268588847"><ele>8.666666666666668</ele><time>2026-05-02T16:06:44Z</time></trkpt><trkpt lat="40.90802321634952" lon="8.877679912269945"><ele>7.833333333333334</ele><time>2026-05-02T16:06:45Z</time></trkpt><trkpt lat="40.90809691898378" lon="8.877703446126175"><ele>7.0</ele><time>2026-05-02T16:06:46Z</time></trkpt><trkpt lat="40.90816343179565" lon="8.877678485527403"><ele>7.0</ele><time>2026-05-02T16:06:47Z</time></trkpt><trkpt lat="40.908212380063745" lon="8.87761120056604"><ele>6.999999999999999</ele><time>2026-05-02T16:06:48Z</time></trkpt><trkpt lat="40.90822002395924" lon="8.87749265450534"><ele>6.999999999999999</ele><time>2026-05-02T16:06:49Z</time></trkpt><trkpt lat="40.90822764404013" lon="8.87736089305718"><ele>7.0</ele><time>2026-05-02T16:06:50Z</time></trkpt><trkpt lat="40.90825672770223" lon="8.8771858954101"><ele>7.0</ele><time>2026-05-02T16:06:51Z</time></trkpt><trkpt lat="40.90825268836288" lon="8.876984328889797"><ele>7.333333333333334</ele><time>2026-05-02T16:06:52Z</time></trkpt><trkpt lat="40.90824300297905" lon="8.876760174222913"><ele>7.666666666666666</ele><time>2026-05-02T16:06:53Z</time></trkpt><trkpt lat="40.90823254320769" lon="8.876511609300533"><ele>8.0</ele><time>2026-05-02T16:06:54Z</time></trkpt><trkpt lat="40.90823223884701" lon="8.876284016430734"><ele>8.0</ele><time>2026-05-02T16:06:55Z</time></trkpt><trkpt lat="40.908250014235165" lon="8.8760790613423"><ele>8.0</ele><time>2026-05-02T16:06:56Z</time></trkpt><trkpt lat="40.90827620264006" lon="8.875878356688125"><ele>8.0</ele><time>2026-05-02T16:06:57Z</time></trkpt><trkpt lat="40.908299535451306" lon="8.875672032288955"><ele>7.333333333333333</ele><time>2026-05-02T16:06:58Z</time></trkpt><trkpt lat="40.908329381009054" lon="8.875441525421607"><ele>6.666666666666666</ele><time>2026-05-02T16:06:59Z</time></trkpt><trkpt lat="40.90836284454693" lon="8.875199129552474"><ele>6.0</ele><time>2026-05-02T16:07:00Z</time></trkpt><trkpt lat="40.908398196124594" lon="8.874968091904076"><ele>5.666666666666667</ele><time>2026-05-02T16:07:01Z</time></trkpt><trkpt lat="40.90844032602811" lon="8.874758996122273"><ele>5.333333333333334</ele><time>2026-05-02T16:07:02Z</time></trkpt><trkpt lat="40.90848087774773" lon="8.874558023621715"><ele>5.0</ele><time>2026-05-02T16:07:03Z</time></trkpt><trkpt lat="40.90852721246715" lon="8.874351531133115"><ele>5.0</ele><time>2026-05-02T16:07:04Z</time></trkpt><trkpt lat="40.908573204432905" lon="8.874136604181459"><ele>5.0</ele><time>2026-05-02T16:07:05Z</time></trkpt><trkpt lat="40.908624813871604" lon="8.873916452494461"><ele>5.0</ele><time>2026-05-02T16:07:06Z</time></trkpt><trkpt lat="40.90868098884256" lon="8.873694294613832"><ele>5.0</ele><time>2026-05-02T16:07:07Z</time></trkpt><trkpt lat="40.90874254096539" lon="8.873476095843914"><ele>5.0</ele><time>2026-05-02T16:07:08Z</time></trkpt><trkpt lat="40.90880293432172" lon="8.873259544824608"><ele>5.0</ele><time>2026-05-02T16:07:09Z</time></trkpt><trkpt lat="40.90886811212019" lon="8.873045245644116"><ele>5.0</ele><time>2026-05-02T16:07:10Z</time></trkpt><trkpt lat="40.9089394543755" lon="8.872830700478291"><ele>5.0</ele><time>2026-05-02T16:07:11Z</time></trkpt><trkpt lat="40.90901378017539" lon="8.872618440188294"><ele>5.0</ele><time>2026-05-02T16:07:12Z</time></trkpt><trkpt lat="40.90908361586652" lon="8.872417086671176"><ele>5.0</ele><time>2026-05-02T16:07:13Z</time></trkpt><trkpt lat="40.90915685129528" lon="8.872208163650948"><ele>5.0</ele><time>2026-05-02T16:07:14Z</time></trkpt><trkpt lat="40.9092390739978" lon="8.871982820507997"><ele>5.0</ele><time>2026-05-02T16:07:15Z</time></trkpt><trkpt lat="40.90932834682674" lon="8.871766485875636"><ele>4.333333333333334</ele><time>2026-05-02T16:07:16Z</time></trkpt><trkpt lat="40.909414976210975" lon="8.871560670970315"><ele>3.666666666666667</ele><time>2026-05-02T16:07:17Z</time></trkpt><trkpt lat="40.909502210499184" lon="8.871357998432005"><ele>3.0</ele><time>2026-05-02T16:07:18Z</time></trkpt><trkpt lat="40.9095920153432" lon="8.871166898230243"><ele>3.0</ele><time>2026-05-02T16:07:19Z</time></trkpt><trkpt lat="40.90969513547146" lon="8.870967759945863"><ele>3.0</ele><time>2026-05-02T16:07:20Z</time></trkpt><trkpt lat="40.909802204560094" lon="8.870763935999175"><ele>3.0</ele><time>2026-05-02T16:07:21Z</time></trkpt><trkpt lat="40.909914579735684" lon="8.87055469068322"><ele>3.333333333333333</ele><time>2026-05-02T16:07:22Z</time></trkpt><trkpt lat="40.91003303840351" lon="8.870343307401741"><ele>3.6666666666666665</ele><time>2026-05-02T16:07:23Z</time></trkpt><trkpt lat="40.91015695780691" lon="8.870131620498858"><ele>4.0</ele><time>2026-05-02T16:07:24Z</time></trkpt><trkpt lat="40.91028954705179" lon="8.869926653920071"><ele>4.333333333333333</ele><time>2026-05-02T16:07:25Z</time></trkpt><trkpt lat="40.91040605058342" lon="8.869726934532318"><ele>4.666666666666667</ele><time>2026-05-02T16:07:26Z</time></trkpt><trkpt lat="40.910502598367806" lon="8.869522498406617"><ele>5.0</ele><time>2026-05-02T16:07:27Z</time></trkpt><trkpt lat="40.91059795788228" lon="8.869328884433433"><ele>5.333333333333334</ele><time>2026-05-02T16:07:28Z</time></trkpt><trkpt lat="40.91064127073053" lon="8.869122709526916"><ele>5.666666666666667</ele><time>2026-05-02T16:07:29Z</time></trkpt><trkpt lat="40.910669023496105" lon="8.868912902664007"><ele>6.0</ele><time>2026-05-02T16:07:30Z</time></trkpt><trkpt lat="40.91067705093805" lon="8.868684833159366"><ele>6.0</ele><time>2026-05-02T16:07:31Z</time></trkpt><trkpt lat="40.910663076183894" lon="8.868462388363843"><ele>6.0</ele><time>2026-05-02T16:07:32Z</time></trkpt><trkpt lat="40.91064135228985" lon="8.868239068508862"><ele>6.0</ele><time>2026-05-02T16:07:33Z</time></trkpt><trkpt lat="40.91062202808637" lon="8.868015508385533"><ele>6.0</ele><time>2026-05-02T16:07:34Z</time></trkpt><trkpt lat="40.91060362231786" lon="8.867799448313715"><ele>6.0</ele><time>2026-05-02T16:07:35Z</time></trkpt><trkpt lat="40.91058765166948" lon="8.867572456086128"><ele>6.0</ele><time>2026-05-02T16:07:36Z</time></trkpt><trkpt lat="40.91057105750856" lon="8.867333939190713"><ele>5.666666666666667</ele><time>2026-05-02T16:07:37Z</time></trkpt><trkpt lat="40.910555355364586" lon="8.867090564458888"><ele>5.333333333333334</ele><time>2026-05-02T16:07:38Z</time></trkpt><trkpt lat="40.91053552643252" lon="8.866837894248443"><ele>5.0</ele><time>2026-05-02T16:07:39Z</time></trkpt><trkpt lat="40.91051272154601" lon="8.86657513355814"><ele>4.666666666666667</ele><time>2026-05-02T16:07:40Z</time></trkpt><trkpt lat="40.91048826362676" lon="8.86630343634198"><ele>4.333333333333333</ele><time>2026-05-02T16:07:41Z</time></trkpt><trkpt lat="40.910469748606" lon="8.86603125448317"><ele>4.0</ele><time>2026-05-02T16:07:42Z</time></trkpt><trkpt lat="40.9104618211997" lon="8.865771125611191"><ele>4.0</ele><time>2026-05-02T16:07:43Z</time></trkpt><trkpt lat="40.91045468052422" lon="8.865535774016706"><ele>4.0</ele><time>2026-05-02T16:07:44Z</time></trkpt><trkpt lat="40.910436724484704" lon="8.865319064126325"><ele>4.0</ele><time>2026-05-02T16:07:45Z</time></trkpt><trkpt lat="40.91041805407664" lon="8.865109586973857"><ele>4.0</ele><time>2026-05-02T16:07:46Z</time></trkpt><trkpt lat="40.91039361574831" lon="8.86489836066619"><ele>4.0</ele><time>2026-05-02T16:07:47Z</time></trkpt><trkpt lat="40.91034904458384" lon="8.864668012903449"><ele>4.0</ele><time>2026-05-02T16:07:48Z</time></trkpt><trkpt lat="40.910287838094426" lon="8.86443507094071"><ele>4.0</ele><time>2026-05-02T16:07:49Z</time></trkpt><trkpt lat="40.910216972443386" lon="8.864213314285697"><ele>4.0</ele><time>2026-05-02T16:07:50Z</time></trkpt><trkpt lat="40.91013884546754" lon="8.86395821103454"><ele>4.0</ele><time>2026-05-02T16:07:51Z</time></trkpt><trkpt lat="40.91001019348171" lon="8.863704269928888"><ele>4.0</ele><time>2026-05-02T16:07:52Z</time></trkpt><trkpt lat="40.90987905287007" lon="8.863441425847068"><ele>4.0</ele><time>2026-05-02T16:07:53Z</time></trkpt><trkpt lat="40.909738099760816" lon="8.863177074442085"><ele>4.0</ele><time>2026-05-02T16:07:54Z</time></trkpt><trkpt lat="40.909629247187915" lon="8.862885187121007"><ele>4.0</ele><time>2026-05-02T16:07:55Z</time></trkpt><trkpt lat="40.90952560793932" lon="8.862600042119755"><ele>3.5</ele><time>2026-05-02T16:07:56Z</time></trkpt><trkpt lat="40.909421929396295" lon="8.862303656491049"><ele>3.0</ele><time>2026-05-02T16:07:57Z</time></trkpt><trkpt lat="40.90931149282744" lon="8.861997476925216"><ele>3.5</ele><time>2026-05-02T16:07:58Z</time></trkpt><trkpt lat="40.90921591769369" lon="8.8616812630433"><ele>4.0</ele><time>2026-05-02T16:07:59Z</time></trkpt><trkpt lat="40.90911337206923" lon="8.861383815638227"><ele>4.0</ele><time>2026-05-02T16:08:00Z</time></trkpt><trkpt lat="40.90901697528696" lon="8.861107700645482"><ele>4.0</ele><time>2026-05-02T16:08:01Z</time></trkpt><trkpt lat="40.90892902172778" lon="8.860856527001179"><ele>4.0</ele><time>2026-05-02T16:08:02Z</time></trkpt><trkpt lat="40.90886180708882" lon="8.8606176021858"><ele>4.666666666666666</ele><time>2026-05-02T16:08:03Z</time></trkpt><trkpt lat="40.90881294307889" lon="8.860381756841322"><ele>5.333333333333333</ele><time>2026-05-02T16:08:04Z</time></trkpt><trkpt lat="40.90876511692064" lon="8.860152761269712"><ele>6.0</ele><time>2026-05-02T16:08:05Z</time></trkpt><trkpt lat="40.90870340106448" lon="8.859923323151431"><ele>6.0</ele><time>2026-05-02T16:08:06Z</time></trkpt><trkpt lat="40.90862930136148" lon="8.859706616718018"><ele>6.0</ele><time>2026-05-02T16:08:07Z</time></trkpt><trkpt lat="40.908545865121496" lon="8.859499779496732"><ele>6.0</ele><time>2026-05-02T16:08:08Z</time></trkpt><trkpt lat="40.90846000387038" lon="8.859313679116324"><ele>6.75</ele><time>2026-05-02T16:08:09Z</time></trkpt><trkpt lat="40.90837954204968" lon="8.859148303245876"><ele>7.5</ele><time>2026-05-02T16:08:10Z</time></trkpt><trkpt lat="40.9083071430269" lon="8.85899891482201"><ele>8.25</ele><time>2026-05-02T16:08:11Z</time></trkpt><trkpt lat="40.90825620277166" lon="8.858865388885759"><ele>9.0</ele><time>2026-05-02T16:08:12Z</time></trkpt><trkpt lat="40.908236152368666" lon="8.858737128806448"><ele>9.0</ele><time>2026-05-02T16:08:13Z</time></trkpt><trkpt lat="40.908245389829624" lon="8.858614660146301"><ele>9.0</ele><time>2026-05-02T16:08:14Z</time></trkpt><trkpt lat="40.90827355724162" lon="8.858519198453315"><ele>9.0</ele><time>2026-05-02T16:08:15Z</time></trkpt><trkpt lat="40.90833276711072" lon="8.858422067091176"><ele>9.0</ele><time>2026-05-02T16:08:17Z</time></trkpt><trkpt lat="40.90841793317939" lon="8.858332558834798"><ele>9.0</ele><time>2026-05-02T16:08:19Z</time></trkpt><trkpt lat="40.90849410505443" lon="8.85826058109731"><ele>8.75</ele><time>2026-05-02T16:08:20Z</time></trkpt><trkpt lat="40.908620676528955" lon="8.858232624074054"><ele>8.5</ele><time>2026-05-02T16:08:21Z</time></trkpt><trkpt lat="40.90875721688706" lon="8.858185143023167"><ele>8.25</ele><time>2026-05-02T16:08:22Z</time></trkpt><trkpt lat="40.90890950389146" lon="8.858135854889413"><ele>8.0</ele><time>2026-05-02T16:08:23Z</time></trkpt><trkpt lat="40.90907162059686" lon="8.858092034076968"><ele>8.0</ele><time>2026-05-02T16:08:24Z</time></trkpt><trkpt lat="40.909228895759504" lon="8.858049883573495"><ele>8.0</ele><time>2026-05-02T16:08:25Z</time></trkpt><trkpt lat="40.909378203384186" lon="8.857996785909359"><ele>8.0</ele><time>2026-05-02T16:08:26Z</time></trkpt><trkpt lat="40.909519060291856" lon="8.857925891481916"><ele>7.666666666666666</ele><time>2026-05-02T16:08:27Z</time></trkpt><trkpt lat="40.90965244678775" lon="8.857832180776365"><ele>7.333333333333334</ele><time>2026-05-02T16:08:28Z</time></trkpt><trkpt lat="40.90977711450733" lon="8.85771088091283"><ele>7.0</ele><time>2026-05-02T16:08:29Z</time></trkpt><trkpt lat="40.90989753424052" lon="8.857576548965238"><ele>7.0</ele><time>2026-05-02T16:08:30Z</time></trkpt><trkpt lat="40.910016053160355" lon="8.857445382562348"><ele>7.0</ele><time>2026-05-02T16:08:31Z</time></trkpt><trkpt lat="40.91013174674027" lon="8.857322126383265"><ele>7.0</ele><time>2026-05-02T16:08:32Z</time></trkpt><trkpt lat="40.91025129268782" lon="8.857196143733402"><ele>6.333333333333334</ele><time>2026-05-02T16:08:33Z</time></trkpt><trkpt lat="40.910373900868514" lon="8.857067309094829"><ele>5.666666666666667</ele><time>2026-05-02T16:08:34Z</time></trkpt><trkpt lat="40.91049414293587" lon="8.856935202257196"><ele>5.0</ele><time>2026-05-02T16:08:35Z</time></trkpt><trkpt lat="40.910616058892934" lon="8.856803717291223"><ele>5.0</ele><time>2026-05-02T16:08:36Z</time></trkpt><trkpt lat="40.91073758652546" lon="8.856676361816817"><ele>5.0</ele><time>2026-05-02T16:08:37Z</time></trkpt><trkpt lat="40.91085691957842" lon="8.856555270354837"><ele>5.0</ele><time>2026-05-02T16:08:38Z</time></trkpt><trkpt lat="40.91097268141467" lon="8.856433825253383"><ele>4.75</ele><time>2026-05-02T16:08:39Z</time></trkpt><trkpt lat="40.91108771600293" lon="8.856314855086696"><ele>4.5</ele><time>2026-05-02T16:08:40Z</time></trkpt><trkpt lat="40.911200857774595" lon="8.8561950077324"><ele>4.25</ele><time>2026-05-02T16:08:41Z</time></trkpt><trkpt lat="40.91131356913941" lon="8.856072333982294"><ele>4.0</ele><time>2026-05-02T16:08:42Z</time></trkpt><trkpt lat="40.91142961176274" lon="8.855946361414716"><ele>3.6666666666666665</ele><time>2026-05-02T16:08:43Z</time></trkpt><trkpt lat="40.91155039380235" lon="8.855816929689395"><ele>3.333333333333333</ele><time>2026-05-02T16:08:44Z</time></trkpt><trkpt lat="40.911675195108245" lon="8.85568658822697"><ele>3.0</ele><time>2026-05-02T16:08:45Z</time></trkpt><trkpt lat="40.911804412987614" lon="8.855549647229918"><ele>3.0</ele><time>2026-05-02T16:08:46Z</time></trkpt><trkpt lat="40.91193370794628" lon="8.855396900648401"><ele>3.0</ele><time>2026-05-02T16:08:47Z</time></trkpt><trkpt lat="40.91204698315972" lon="8.855217458573357"><ele>3.0</ele><time>2026-05-02T16:08:48Z</time></trkpt><trkpt lat="40.91215046330201" lon="8.85500898466626"><ele>3.0</ele><time>2026-05-02T16:08:49Z</time></trkpt><trkpt lat="40.912272961287655" lon="8.854782717278496"><ele>3.0</ele><time>2026-05-02T16:08:50Z</time></trkpt><trkpt lat="40.91242414031196" lon="8.854514326781416"><ele>2.5</ele><time>2026-05-02T16:08:51Z</time></trkpt><trkpt lat="40.91259502719864" lon="8.854218693150834"><ele>2.0</ele><time>2026-05-02T16:08:52Z</time></trkpt><trkpt lat="40.912767606796535" lon="8.853939373911803"><ele>2.0</ele><time>2026-05-02T16:08:53Z</time></trkpt><trkpt lat="40.91291316436387" lon="8.853699535428118"><ele>2.0</ele><time>2026-05-02T16:08:54Z</time></trkpt><trkpt lat="40.91302855176478" lon="8.85350361916272"><ele>2.0</ele><time>2026-05-02T16:08:55Z</time></trkpt><trkpt lat="40.91312598273807" lon="8.85333870139803"><ele>2.2</ele><time>2026-05-02T16:08:56Z</time></trkpt><trkpt lat="40.91320195931016" lon="8.85321800865856"><ele>2.4000000000000004</ele><time>2026-05-02T16:08:57Z</time></trkpt><trkpt lat="40.91326887264912" lon="8.853146630575816"><ele>2.5999999999999996</ele><time>2026-05-02T16:08:58Z</time></trkpt><trkpt lat="40.91335548157298" lon="8.853114385720005"><ele>2.8</ele><time>2026-05-02T16:08:59Z</time></trkpt><trkpt lat="40.91345410299612" lon="8.853123255297847"><ele>3.0</ele><time>2026-05-02T16:09:00Z</time></trkpt><trkpt lat="40.91354599595793" lon="8.853174627259484"><ele>3.0</ele><time>2026-05-02T16:09:01Z</time></trkpt><trkpt lat="40.91364337978084" lon="8.85324620239882"><ele>3.0</ele><time>2026-05-02T16:09:02Z</time></trkpt><trkpt lat="40.913761875502566" lon="8.853344017604206"><ele>3.0</ele><time>2026-05-02T16:09:03Z</time></trkpt><trkpt lat="40.91389044313689" lon="8.853459458819364"><ele>3.0</ele><time>2026-05-02T16:09:04Z</time></trkpt><trkpt lat="40.91402457689555" lon="8.853590438032056"><ele>2.6666666666666665</ele><time>2026-05-02T16:09:05Z</time></trkpt><trkpt lat="40.91416907446041" lon="8.853726406892772"><ele>2.333333333333333</ele><time>2026-05-02T16:09:06Z</time></trkpt><trkpt lat="40.91432177357026" lon="8.85385539059101"><ele>2.0</ele><time>2026-05-02T16:09:07Z</time></trkpt><trkpt lat="40.914480565441664" lon="8.853965746313602"><ele>2.0</ele><time>2026-05-02T16:09:08Z</time></trkpt><trkpt lat="40.914660136275586" lon="8.854042218784093"><ele>2.0</ele><time>2026-05-02T16:09:09Z</time></trkpt><trkpt lat="40.9148753292378" lon="8.854071969432452"><ele>2.0</ele><time>2026-05-02T16:09:10Z</time></trkpt><trkpt lat="40.915115917061854" lon="8.85407181813407"><ele>2.0</ele><time>2026-05-02T16:09:11Z</time></trkpt><trkpt lat="40.91537473412323" lon="8.854069107501761"><ele>2.0</ele><time>2026-05-02T16:09:12Z</time></trkpt><trkpt lat="40.915645204680516" lon="8.854069682769781"><ele>2.0</ele><time>2026-05-02T16:09:13Z</time></trkpt><trkpt lat="40.9159219275634" lon="8.854074585489926"><ele>2.0</ele><time>2026-05-02T16:09:14Z</time></trkpt><trkpt lat="40.91620246695429" lon="8.854082267157672"><ele>2.0</ele><time>2026-05-02T16:09:15Z</time></trkpt><trkpt lat="40.916462621734844" lon="8.854092763602413"><ele>2.0</ele><time>2026-05-02T16:09:16Z</time></trkpt><trkpt lat="40.916697372346974" lon="8.854102168386083"><ele>3.0</ele><time>2026-05-02T16:09:17Z</time></trkpt><trkpt lat="40.9169275311303" lon="8.854106793144322"><ele>4.0</ele><time>2026-05-02T16:09:18Z</time></trkpt><trkpt lat="40.917155529189536" lon="8.854110415870265"><ele>4.0</ele><time>2026-05-02T16:09:19Z</time></trkpt><trkpt lat="40.917376919532586" lon="8.854119753220385"><ele>4.0</ele><time>2026-05-02T16:09:20Z</time></trkpt><trkpt lat="40.91759129991724" lon="8.85412650577438"><ele>4.0</ele><time>2026-05-02T16:09:21Z</time></trkpt><trkpt lat="40.91780254482152" lon="8.854139118261898"><ele>4.0</ele><time>2026-05-02T16:09:22Z</time></trkpt><trkpt lat="40.918015443981915" lon="8.854146913625609"><ele>4.0</ele><time>2026-05-02T16:09:23Z</time></trkpt><trkpt lat="40.91822788193247" lon="8.85415129621992"><ele>4.0</ele><time>2026-05-02T16:09:24Z</time></trkpt><trkpt lat="40.91844198297119" lon="8.85415637580307"><ele>4.0</ele><time>2026-05-02T16:09:25Z</time></trkpt><trkpt lat="40.918662387105336" lon="8.854163479057744"><ele>4.0</ele><time>2026-05-02T16:09:26Z</time></trkpt><trkpt lat="40.91889043352188" lon="8.854170235342337"><ele>4.0</ele><time>2026-05-02T16:09:27Z</time></trkpt><trkpt lat="40.91912728321271" lon="8.854176005112013"><ele>4.0</ele><time>2026-05-02T16:09:28Z</time></trkpt><trkpt lat="40.91937098660686" lon="8.8541961636964"><ele>4.0</ele><time>2026-05-02T16:09:29Z</time></trkpt><trkpt lat="40.91961935999902" lon="8.85424952475608"><ele>3.5</ele><time>2026-05-02T16:09:30Z</time></trkpt><trkpt lat="40.91987119687055" lon="8.85431578696866"><ele>3.0</ele><time>2026-05-02T16:09:31Z</time></trkpt><trkpt lat="40.92012668569462" lon="8.854374791453862"><ele>3.0</ele><time>2026-05-02T16:09:32Z</time></trkpt><trkpt lat="40.92039467745985" lon="8.854433489252258"><ele>3.0</ele><time>2026-05-02T16:09:33Z</time></trkpt><trkpt lat="40.92067451489508" lon="8.854496698483466"><ele>2.5</ele><time>2026-05-02T16:09:34Z</time></trkpt><trkpt lat="40.9209620211355" lon="8.85455906277933"><ele>2.0</ele><time>2026-05-02T16:09:35Z</time></trkpt><trkpt lat="40.92125565125249" lon="8.854623113205115"><ele>2.0</ele><time>2026-05-02T16:09:36Z</time></trkpt><trkpt lat="40.92154136760021" lon="8.85468697537888"><ele>2.0</ele><time>2026-05-02T16:09:37Z</time></trkpt><trkpt lat="40.921793130641895" lon="8.854745496447162"><ele>2.6666666666666665</ele><time>2026-05-02T16:09:38Z</time></trkpt><trkpt lat="40.922013907806786" lon="8.854794464970647"><ele>3.333333333333333</ele><time>2026-05-02T16:09:39Z</time></trkpt><trkpt lat="40.922209565198" lon="8.854823051381397"><ele>4.0</ele><time>2026-05-02T16:09:40Z</time></trkpt><trkpt lat="40.92239304844622" lon="8.854810333935"><ele>3.6666666666666665</ele><time>2026-05-02T16:09:41Z</time></trkpt><trkpt lat="40.92259453425826" lon="8.854750262274429"><ele>3.333333333333333</ele><time>2026-05-02T16:09:42Z</time></trkpt><trkpt lat="40.92280990180204" lon="8.854667885242618"><ele>3.0</ele><time>2026-05-02T16:09:43Z</time></trkpt><trkpt lat="40.923038578816254" lon="8.854578934317145"><ele>3.0</ele><time>2026-05-02T16:09:44Z</time></trkpt><trkpt lat="40.923280144575166" lon="8.854490020416534"><ele>3.0</ele><time>2026-05-02T16:09:45Z</time></trkpt><trkpt lat="40.92351557292659" lon="8.854407095909146"><ele>2.5</ele><time>2026-05-02T16:09:46Z</time></trkpt><trkpt lat="40.92374073953522" lon="8.854350083518062"><ele>2.0</ele><time>2026-05-02T16:09:47Z</time></trkpt><trkpt lat="40.923974241842664" lon="8.854323132317624"><ele>2.0</ele><time>2026-05-02T16:09:48Z</time></trkpt><trkpt lat="40.924215171939196" lon="8.854332240371154"><ele>2.0</ele><time>2026-05-02T16:09:49Z</time></trkpt><trkpt lat="40.92446770157608" lon="8.854357704728823"><ele>2.0</ele><time>2026-05-02T16:09:50Z</time></trkpt><trkpt lat="40.92472946920975" lon="8.854386978565406"><ele>2.0</ele><time>2026-05-02T16:09:51Z</time></trkpt><trkpt lat="40.92500042725738" lon="8.854421759206542"><ele>3.0</ele><time>2026-05-02T16:09:52Z</time></trkpt><trkpt lat="40.925279908759904" lon="8.854456337497563"><ele>4.0</ele><time>2026-05-02T16:09:53Z</time></trkpt><trkpt lat="40.92556061697758" lon="8.854489430510183"><ele>4.0</ele><time>2026-05-02T16:09:54Z</time></trkpt><trkpt lat="40.92583470797135" lon="8.854521218859857"><ele>4.0</ele><time>2026-05-02T16:09:55Z</time></trkpt><trkpt lat="40.92610632286398" lon="8.854553190885518"><ele>3.0</ele><time>2026-05-02T16:09:56Z</time></trkpt><trkpt lat="40.92637686726011" lon="8.854587057861167"><ele>2.0</ele><time>2026-05-02T16:09:57Z</time></trkpt><trkpt lat="40.92664970261171" lon="8.854618856263837"><ele>3.0</ele><time>2026-05-02T16:09:58Z</time></trkpt><trkpt lat="40.926915234475956" lon="8.85465038623777"><ele>4.0</ele><time>2026-05-02T16:09:59Z</time></trkpt><trkpt lat="40.92717732119804" lon="8.854682621018044"><ele>4.0</ele><time>2026-05-02T16:10:00Z</time></trkpt><trkpt lat="40.927417820636386" lon="8.854708785974521"><ele>4.0</ele><time>2026-05-02T16:10:01Z</time></trkpt><trkpt lat="40.92763906673825" lon="8.85473372518613"><ele>3.6666666666666665</ele><time>2026-05-02T16:10:02Z</time></trkpt><trkpt lat="40.92785496450369" lon="8.854756895259696"><ele>3.333333333333333</ele><time>2026-05-02T16:10:03Z</time></trkpt><trkpt lat="40.9280710196396" lon="8.8547881111208"><ele>3.0</ele><time>2026-05-02T16:10:04Z</time></trkpt><trkpt lat="40.92828272694141" lon="8.854886090574876"><ele>3.0</ele><time>2026-05-02T16:10:05Z</time></trkpt><trkpt lat="40.92849072116814" lon="8.855000321453694"><ele>3.0</ele><time>2026-05-02T16:10:06Z</time></trkpt><trkpt lat="40.92869958202627" lon="8.855130301014869"><ele>3.0</ele><time>2026-05-02T16:10:07Z</time></trkpt><trkpt lat="40.92891769790365" lon="8.855248585873174"><ele>3.0</ele><time>2026-05-02T16:10:08Z</time></trkpt><trkpt lat="40.929129003390464" lon="8.855390080293185"><ele>2.5</ele><time>2026-05-02T16:10:09Z</time></trkpt><trkpt lat="40.92934115949701" lon="8.855529853683539"><ele>2.0</ele><time>2026-05-02T16:10:10Z</time></trkpt><trkpt lat="40.929553157333174" lon="8.855669438434333"><ele>2.0</ele><time>2026-05-02T16:10:11Z</time></trkpt><trkpt lat="40.9297421697013" lon="8.855792323311347"><ele>2.0</ele><time>2026-05-02T16:10:12Z</time></trkpt><trkpt lat="40.92991857751314" lon="8.85589703839286"><ele>2.0</ele><time>2026-05-02T16:10:13Z</time></trkpt><trkpt lat="40.93010576474031" lon="8.855983215021812"><ele>2.0</ele><time>2026-05-02T16:10:14Z</time></trkpt><trkpt lat="40.930289492384" lon="8.856010509373256"><ele>2.0</ele><time>2026-05-02T16:10:15Z</time></trkpt><trkpt lat="40.93048186025896" lon="8.855975347908835"><ele>2.0</ele><time>2026-05-02T16:10:16Z</time></trkpt><trkpt lat="40.930695357400154" lon="8.855901320048778"><ele>2.0</ele><time>2026-05-02T16:10:17Z</time></trkpt><trkpt lat="40.93092842405977" lon="8.855824492069242"><ele>2.0</ele><time>2026-05-02T16:10:18Z</time></trkpt><trkpt lat="40.931172662189645" lon="8.855749019960054"><ele>2.0</ele><time>2026-05-02T16:10:19Z</time></trkpt><trkpt lat="40.93141773986948" lon="8.855669958396899"><ele>2.0</ele><time>2026-05-02T16:10:20Z</time></trkpt><trkpt lat="40.931660187490586" lon="8.855589051246262"><ele>2.5</ele><time>2026-05-02T16:10:21Z</time></trkpt><trkpt lat="40.931901599797264" lon="8.855508242888963"><ele>3.0</ele><time>2026-05-02T16:10:22Z</time></trkpt><trkpt lat="40.932134634823896" lon="8.855430234895488"><ele>3.0</ele><time>2026-05-02T16:10:23Z</time></trkpt><trkpt lat="40.932346958754344" lon="8.855363023089092"><ele>3.0</ele><time>2026-05-02T16:10:24Z</time></trkpt><trkpt lat="40.932542358538264" lon="8.8553016533229"><ele>3.0</ele><time>2026-05-02T16:10:25Z</time></trkpt><trkpt lat="40.93271956715113" lon="8.855244502394042"><ele>2.3333333333333335</ele><time>2026-05-02T16:10:26Z</time></trkpt><trkpt lat="40.93288580849195" lon="8.855191593196913"><ele>1.6666666666666665</ele><time>2026-05-02T16:10:27Z</time></trkpt><trkpt lat="40.933037378523004" lon="8.855149415818106"><ele>1.0</ele><time>2026-05-02T16:10:28Z</time></trkpt><trkpt lat="40.933177807347434" lon="8.855125137319297"><ele>1.0</ele><time>2026-05-02T16:10:29Z</time></trkpt><trkpt lat="40.93331074500654" lon="8.85511520794839"><ele>1.0</ele><time>2026-05-02T16:10:30Z</time></trkpt><trkpt lat="40.93343423997532" lon="8.855136099839939"><ele>1.0</ele><time>2026-05-02T16:10:31Z</time></trkpt><trkpt lat="40.93355236416946" lon="8.85519386614896"><ele>1.0</ele><time>2026-05-02T16:10:32Z</time></trkpt><trkpt lat="40.93364499976379" lon="8.855279543189146"><ele>1.0</ele><time>2026-05-02T16:10:33Z</time></trkpt><trkpt lat="40.933711835323955" lon="8.855395738636366"><ele>1.0</ele><time>2026-05-02T16:10:34Z</time></trkpt><trkpt lat="40.9337616662566" lon="8.855530083453298"><ele>1.0</ele><time>2026-05-02T16:10:35Z</time></trkpt><trkpt lat="40.93381051362584" lon="8.855686280211213"><ele>1.0</ele><time>2026-05-02T16:10:36Z</time></trkpt><trkpt lat="40.93387647934017" lon="8.855857191910863"><ele>1.3333333333333333</ele><time>2026-05-02T16:10:37Z</time></trkpt><trkpt lat="40.93394902785699" lon="8.856046716744856"><ele>1.6666666666666665</ele><time>2026-05-02T16:10:38Z</time></trkpt><trkpt lat="40.93403397125827" lon="8.856259974976883"><ele>2.0</ele><time>2026-05-02T16:10:39Z</time></trkpt><trkpt lat="40.93411126328041" lon="8.856500831837034"><ele>2.0</ele><time>2026-05-02T16:10:40Z</time></trkpt><trkpt lat="40.93421686801584" lon="8.856727024359003"><ele>2.0</ele><time>2026-05-02T16:10:41Z</time></trkpt><trkpt lat="40.93430629250718" lon="8.856961024595716"><ele>2.0</ele><time>2026-05-02T16:10:42Z</time></trkpt><trkpt lat="40.93439249774032" lon="8.857186098255484"><ele>2.0</ele><time>2026-05-02T16:10:43Z</time></trkpt><trkpt lat="40.93447407565107" lon="8.857397579779066"><ele>2.0</ele><time>2026-05-02T16:10:44Z</time></trkpt><trkpt lat="40.934553733683636" lon="8.857606383552948"><ele>2.0</ele><time>2026-05-02T16:10:45Z</time></trkpt><trkpt lat="40.93463754413753" lon="8.857816238800241"><ele>2.0</ele><time>2026-05-02T16:10:46Z</time></trkpt><trkpt lat="40.934721271480925" lon="8.858031206683151"><ele>2.0</ele><time>2026-05-02T16:10:47Z</time></trkpt><trkpt lat="40.934808081344016" lon="8.858248736064162"><ele>2.0</ele><time>2026-05-02T16:10:48Z</time></trkpt><trkpt lat="40.93489712643125" lon="8.858471642497168"><ele>2.0</ele><time>2026-05-02T16:10:49Z</time></trkpt><trkpt lat="40.934984155107344" lon="8.85870003009844"><ele>2.0</ele><time>2026-05-02T16:10:50Z</time></trkpt><trkpt lat="40.93507391481974" lon="8.858929832609755"><ele>2.0</ele><time>2026-05-02T16:10:51Z</time></trkpt><trkpt lat="40.93516541327134" lon="8.859163857713181"><ele>2.333333333333333</ele><time>2026-05-02T16:10:52Z</time></trkpt><trkpt lat="40.93525607330576" lon="8.859399374025404"><ele>2.6666666666666665</ele><time>2026-05-02T16:10:53Z</time></trkpt><trkpt lat="40.93535005024667" lon="8.859637092530004"><ele>3.0</ele><time>2026-05-02T16:10:54Z</time></trkpt><trkpt lat="40.93544514917192" lon="8.859877557870359"><ele>3.0</ele><time>2026-05-02T16:10:55Z</time></trkpt><trkpt lat="40.935537874011" lon="8.86012072583303"><ele>3.0</ele><time>2026-05-02T16:10:56Z</time></trkpt><trkpt lat="40.93563376320589" lon="8.860368208107191"><ele>3.0</ele><time>2026-05-02T16:10:57Z</time></trkpt><trkpt lat="40.935732712892445" lon="8.860617551095414"><ele>3.0</ele><time>2026-05-02T16:10:58Z</time></trkpt><trkpt lat="40.93583028629952" lon="8.860870343844015"><ele>3.0</ele><time>2026-05-02T16:10:59Z</time></trkpt><trkpt lat="40.935928904268074" lon="8.861120146091826"><ele>3.0</ele><time>2026-05-02T16:11:00Z</time></trkpt><trkpt lat="40.93601782496651" lon="8.861371713760967"><ele>3.0</ele><time>2026-05-02T16:11:01Z</time></trkpt><trkpt lat="40.93611218356094" lon="8.861615804373425"><ele>3.0</ele><time>2026-05-02T16:11:02Z</time></trkpt><trkpt lat="40.93620572349632" lon="8.861857655771695"><ele>3.0</ele><time>2026-05-02T16:11:03Z</time></trkpt><trkpt lat="40.93630995147331" lon="8.862106502634514"><ele>4.0</ele><time>2026-05-02T16:11:04Z</time></trkpt><trkpt lat="40.93639359927628" lon="8.862323788562772"><ele>5.0</ele><time>2026-05-02T16:11:05Z</time></trkpt><trkpt lat="40.936476561239374" lon="8.86251995890725"><ele>6.0</ele><time>2026-05-02T16:11:06Z</time></trkpt><trkpt lat="40.93657527092393" lon="8.862708304129598"><ele>5.333333333333333</ele><time>2026-05-02T16:11:07Z</time></trkpt><trkpt lat="40.93669382099418" lon="8.862885193794432"><ele>4.666666666666666</ele><time>2026-05-02T16:11:08Z</time></trkpt><trkpt lat="40.936828834569184" lon="8.863038172772324"><ele>4.0</ele><time>2026-05-02T16:11:09Z</time></trkpt><trkpt lat="40.93698076553503" lon="8.863167862165472"><ele>4.0</ele><time>2026-05-02T16:11:10Z</time></trkpt><trkpt lat="40.93715045508536" lon="8.863277808791095"><ele>4.0</ele><time>2026-05-02T16:11:11Z</time></trkpt><trkpt lat="40.93733526020097" lon="8.863385517652144"><ele>4.0</ele><time>2026-05-02T16:11:12Z</time></trkpt><trkpt lat="40.93752478968534" lon="8.863500631094677"><ele>3.0</ele><time>2026-05-02T16:11:13Z</time></trkpt><trkpt lat="40.93771767394476" lon="8.863627894714453"><ele>2.0</ele><time>2026-05-02T16:11:14Z</time></trkpt><trkpt lat="40.937904255638955" lon="8.863753996569761"><ele>1.0</ele><time>2026-05-02T16:11:15Z</time></trkpt><trkpt lat="40.93807440957506" lon="8.863867281378274"><ele>1.0</ele><time>2026-05-02T16:11:16Z</time></trkpt><trkpt lat="40.93823296498238" lon="8.863974031754145"><ele>1.0</ele><time>2026-05-02T16:11:17Z</time></trkpt><trkpt lat="40.93838610049973" lon="8.86407595276229"><ele>1.0</ele><time>2026-05-02T16:11:18Z</time></trkpt><trkpt lat="40.93853757479509" lon="8.864178322759468"><ele>1.6666666666666665</ele><time>2026-05-02T16:11:19Z</time></trkpt><trkpt lat="40.93868540705657" lon="8.864282120479892"><ele>2.3333333333333335</ele><time>2026-05-02T16:11:20Z</time></trkpt><trkpt lat="40.938834362874914" lon="8.864381149373372"><ele>3.0</ele><time>2026-05-02T16:11:21Z</time></trkpt><trkpt lat="40.938986170338765" lon="8.864483092599782"><ele>3.0</ele><time>2026-05-02T16:11:22Z</time></trkpt><trkpt lat="40.93914428856099" lon="8.864587451536295"><ele>3.0</ele><time>2026-05-02T16:11:23Z</time></trkpt><trkpt lat="40.93929293308239" lon="8.864691703406999"><ele>3.0</ele><time>2026-05-02T16:11:24Z</time></trkpt><trkpt lat="40.93942218654075" lon="8.864782536639865"><ele>3.0</ele><time>2026-05-02T16:11:25Z</time></trkpt><trkpt lat="40.93952755997303" lon="8.864853255998328"><ele>3.0</ele><time>2026-05-02T16:11:26Z</time></trkpt><trkpt lat="40.93962326135389" lon="8.864915883982741"><ele>3.0</ele><time>2026-05-02T16:11:27Z</time></trkpt><trkpt lat="40.939704743276735" lon="8.86497104182891"><ele>3.0</ele><time>2026-05-02T16:11:28Z</time></trkpt><trkpt lat="40.93977727139208" lon="8.865021255048735"><ele>3.0</ele><time>2026-05-02T16:11:29Z</time></trkpt><trkpt lat="40.939847576509365" lon="8.865067620859397"><ele>3.0</ele><time>2026-05-02T16:11:30Z</time></trkpt><trkpt lat="40.93992473298139" lon="8.86510414852198"><ele>3.0</ele><time>2026-05-02T16:11:31Z</time></trkpt><trkpt lat="40.940004733290245" lon="8.86511797050497"><ele>3.0</ele><time>2026-05-02T16:11:32Z</time></trkpt><trkpt lat="40.9400831922551" lon="8.865111632267777"><ele>3.0</ele><time>2026-05-02T16:11:33Z</time></trkpt><trkpt lat="40.940146027989094" lon="8.865098477606027"><ele>3.0</ele><time>2026-05-02T16:11:34Z</time></trkpt><trkpt lat="40.94022542443094" lon="8.865137550136067"><ele>3.0</ele><time>2026-05-02T16:11:37Z</time></trkpt><trkpt lat="40.94028730435766" lon="8.865267902021246"><ele>2.8333333333333335</ele><time>2026-05-02T16:11:39Z</time></trkpt><trkpt lat="40.94026732008933" lon="8.86540254617495"><ele>2.6666666666666665</ele><time>2026-05-02T16:11:41Z</time></trkpt><trkpt lat="40.940228555759205" lon="8.8654836836361"><ele>2.5</ele><time>2026-05-02T16:11:42Z</time></trkpt><trkpt lat="40.940182422936054" lon="8.86557832721784"><ele>2.333333333333333</ele><time>2026-05-02T16:11:43Z</time></trkpt><trkpt lat="40.94016491028014" lon="8.86568744146492"><ele>2.1666666666666665</ele><time>2026-05-02T16:11:44Z</time></trkpt><trkpt lat="40.940187836122476" lon="8.865799786681865"><ele>2.0</ele><time>2026-05-02T16:11:45Z</time></trkpt><trkpt lat="40.94024542409134" lon="8.865877546044599"><ele>2.0</ele><time>2026-05-02T16:11:46Z</time></trkpt><trkpt lat="40.940333781765275" lon="8.865928696902541"><ele>2.0</ele><time>2026-05-02T16:11:47Z</time></trkpt><trkpt lat="40.94043694043601" lon="8.865934616354817"><ele>2.0</ele><time>2026-05-02T16:11:48Z</time></trkpt><trkpt lat="40.94052760395363" lon="8.86588918920151"><ele>2.0</ele><time>2026-05-02T16:11:49Z</time></trkpt><trkpt lat="40.940593335248714" lon="8.865820678835105"><ele>2.0</ele><time>2026-05-02T16:11:50Z</time></trkpt><trkpt lat="40.940660370046835" lon="8.865766048568826"><ele>2.0</ele><time>2026-05-02T16:11:51Z</time></trkpt><trkpt lat="40.94073727771732" lon="8.865744706321486"><ele>2.0</ele><time>2026-05-02T16:11:52Z</time></trkpt><trkpt lat="40.94082169404971" lon="8.86573569609299"><ele>2.0</ele><time>2026-05-02T16:11:53Z</time></trkpt><trkpt lat="40.94093330733113" lon="8.865844873631065"><ele>2.0</ele><time>2026-05-02T16:11:54Z</time></trkpt><trkpt lat="40.941074692274945" lon="8.865937879498818"><ele>2.0</ele><time>2026-05-02T16:11:55Z</time></trkpt><trkpt lat="40.941235390201854" lon="8.866046202628175"><ele>2.0</ele><time>2026-05-02T16:11:56Z</time></trkpt><trkpt lat="40.941422887716364" lon="8.866173166904797"><ele>2.0</ele><time>2026-05-02T16:11:57Z</time></trkpt><trkpt lat="40.94163710113508" lon="8.866296785587114"><ele>2.5</ele><time>2026-05-02T16:11:58Z</time></trkpt><trkpt lat="40.9418483060286" lon="8.866461335734737"><ele>3.0</ele><time>2026-05-02T16:11:59Z</time></trkpt><trkpt lat="40.94205298370052" lon="8.866610828582557"><ele>3.0</ele><time>2026-05-02T16:12:00Z</time></trkpt><trkpt lat="40.94224269238535" lon="8.866740030558399"><ele>3.0</ele><time>2026-05-02T16:12:01Z</time></trkpt><trkpt lat="40.94242695510885" lon="8.866866940714443"><ele>3.0</ele><time>2026-05-02T16:12:02Z</time></trkpt><trkpt lat="40.94260340644784" lon="8.8669925431257"><ele>3.666666666666667</ele><time>2026-05-02T16:12:03Z</time></trkpt><trkpt lat="40.94278283041244" lon="8.867120677332824"><ele>4.333333333333334</ele><time>2026-05-02T16:12:04Z</time></trkpt><trkpt lat="40.9429734629144" lon="8.867250154333044"><ele>5.0</ele><time>2026-05-02T16:12:05Z</time></trkpt><trkpt lat="40.94316923071004" lon="8.867380782953107"><ele>5.0</ele><time>2026-05-02T16:12:06Z</time></trkpt><trkpt lat="40.943354954355094" lon="8.867502749033266"><ele>5.0</ele><time>2026-05-02T16:12:07Z</time></trkpt><trkpt lat="40.9435270659804" lon="8.867596047896054"><ele>5.0</ele><time>2026-05-02T16:12:08Z</time></trkpt><trkpt lat="40.94371445186311" lon="8.867661059280824"><ele>6.0</ele><time>2026-05-02T16:12:09Z</time></trkpt><trkpt lat="40.943918552233036" lon="8.867696004654778"><ele>7.0</ele><time>2026-05-02T16:12:10Z</time></trkpt><trkpt lat="40.94412421942059" lon="8.867694862260219"><ele>8.0</ele><time>2026-05-02T16:12:11Z</time></trkpt><trkpt lat="40.94433129122388" lon="8.867667003731212"><ele>8.0</ele><time>2026-05-02T16:12:12Z</time></trkpt><trkpt lat="40.94452158626781" lon="8.867645674507894"><ele>8.0</ele><time>2026-05-02T16:12:13Z</time></trkpt><trkpt lat="40.94470746577463" lon="8.867637318101849"><ele>8.0</ele><time>2026-05-02T16:12:14Z</time></trkpt><trkpt lat="40.94490102417745" lon="8.867639672648334"><ele>8.333333333333332</ele><time>2026-05-02T16:12:15Z</time></trkpt><trkpt lat="40.94511561177023" lon="8.867658278329365"><ele>8.666666666666666</ele><time>2026-05-02T16:12:16Z</time></trkpt><trkpt lat="40.945338582900185" lon="8.867703649645174"><ele>9.0</ele><time>2026-05-02T16:12:17Z</time></trkpt><trkpt lat="40.9455446109089" lon="8.867767725528113"><ele>9.0</ele><time>2026-05-02T16:12:18Z</time></trkpt><trkpt lat="40.945721697965105" lon="8.86784276519356"><ele>9.0</ele><time>2026-05-02T16:12:19Z</time></trkpt><trkpt lat="40.945897805136255" lon="8.867928844542437"><ele>9.0</ele><time>2026-05-02T16:12:20Z</time></trkpt><trkpt lat="40.94608326751484" lon="8.868024872756411"><ele>9.0</ele><time>2026-05-02T16:12:21Z</time></trkpt><trkpt lat="40.94626529931039" lon="8.86812289904761"><ele>9.0</ele><time>2026-05-02T16:12:22Z</time></trkpt><trkpt lat="40.946440247039156" lon="8.868218037428"><ele>9.0</ele><time>2026-05-02T16:12:23Z</time></trkpt><trkpt lat="40.94660565580102" lon="8.868302881417446"><ele>9.333333333333334</ele><time>2026-05-02T16:12:24Z</time></trkpt><trkpt lat="40.94675568173865" lon="8.868378009783505"><ele>9.666666666666668</ele><time>2026-05-02T16:12:25Z</time></trkpt><trkpt lat="40.9469051209628" lon="8.868451614151365"><ele>10.0</ele><time>2026-05-02T16:12:26Z</time></trkpt><trkpt lat="40.94706084390403" lon="8.868528799780364"><ele>10.333333333333334</ele><time>2026-05-02T16:12:27Z</time></trkpt><trkpt lat="40.947213157137206" lon="8.868603852974257"><ele>10.666666666666666</ele><time>2026-05-02T16:12:28Z</time></trkpt><trkpt lat="40.94738574918843" lon="8.868688793205816"><ele>11.0</ele><time>2026-05-02T16:12:29Z</time></trkpt><trkpt lat="40.94759335083733" lon="8.868787230604292"><ele>12.5</ele><time>2026-05-02T16:12:30Z</time></trkpt><trkpt lat="40.947822175788104" lon="8.868891079917704"><ele>14.0</ele><time>2026-05-02T16:12:31Z</time></trkpt><trkpt lat="40.94805166996505" lon="8.869027099193119"><ele>14.0</ele><time>2026-05-02T16:12:32Z</time></trkpt><trkpt lat="40.94829590269279" lon="8.869149510767468"><ele>14.0</ele><time>2026-05-02T16:12:33Z</time></trkpt><trkpt lat="40.94853601430466" lon="8.869255993610228"><ele>15.5</ele><time>2026-05-02T16:12:34Z</time></trkpt><trkpt lat="40.94875659788081" lon="8.869380491438433"><ele>17.0</ele><time>2026-05-02T16:12:35Z</time></trkpt><trkpt lat="40.948973218716574" lon="8.869490036826585"><ele>17.0</ele><time>2026-05-02T16:12:36Z</time></trkpt><trkpt lat="40.94918513063277" lon="8.869593316667695"><ele>17.0</ele><time>2026-05-02T16:12:37Z</time></trkpt><trkpt lat="40.949386128614144" lon="8.869696408870695"><ele>17.0</ele><time>2026-05-02T16:12:38Z</time></trkpt><trkpt lat="40.94957309478264" lon="8.869793812047702"><ele>17.333333333333336</ele><time>2026-05-02T16:12:39Z</time></trkpt><trkpt lat="40.94976408116939" lon="8.869890501661713"><ele>17.666666666666668</ele><time>2026-05-02T16:12:40Z</time></trkpt><trkpt lat="40.949958494260805" lon="8.869988661307206"><ele>18.0</ele><time>2026-05-02T16:12:41Z</time></trkpt><trkpt lat="40.950154061007986" lon="8.870098240507195"><ele>18.333333333333332</ele><time>2026-05-02T16:12:42Z</time></trkpt><trkpt lat="40.95034665671201" lon="8.870224499763486"><ele>18.666666666666664</ele><time>2026-05-02T16:12:43Z</time></trkpt><trkpt lat="40.95053707206443" lon="8.870362716787062"><ele>19.0</ele><time>2026-05-02T16:12:44Z</time></trkpt><trkpt lat="40.95072744977365" lon="8.87050287286359"><ele>18.666666666666664</ele><time>2026-05-02T16:12:45Z</time></trkpt><trkpt lat="40.95091982804987" lon="8.870644337089047"><ele>18.333333333333332</ele><time>2026-05-02T16:12:46Z</time></trkpt><trkpt lat="40.951115280595324" lon="8.870786755064163"><ele>18.0</ele><time>2026-05-02T16:12:47Z</time></trkpt><trkpt lat="40.95131364800436" lon="8.8709320063942"><ele>19.333333333333332</ele><time>2026-05-02T16:12:48Z</time></trkpt><trkpt lat="40.95150930462855" lon="8.87107796705872"><ele>20.666666666666664</ele><time>2026-05-02T16:12:49Z</time></trkpt><trkpt lat="40.95170343269066" lon="8.871226157090579"><ele>22.0</ele><time>2026-05-02T16:12:50Z</time></trkpt><trkpt lat="40.951900972769025" lon="8.871373558344478"><ele>23.5</ele><time>2026-05-02T16:12:51Z</time></trkpt><trkpt lat="40.952101728869145" lon="8.871522463099183"><ele>25.0</ele><time>2026-05-02T16:12:52Z</time></trkpt><trkpt lat="40.9523049799873" lon="8.871671785221027"><ele>25.5</ele><time>2026-05-02T16:12:53Z</time></trkpt><trkpt lat="40.95250439665288" lon="8.871820856477765"><ele>26.0</ele><time>2026-05-02T16:12:54Z</time></trkpt><trkpt lat="40.95270239356897" lon="8.871967100156924"><ele>26.0</ele><time>2026-05-02T16:12:55Z</time></trkpt><trkpt lat="40.9529023746701" lon="8.872107437038876"><ele>26.0</ele><time>2026-05-02T16:12:56Z</time></trkpt><trkpt lat="40.953103503484236" lon="8.872252577927222"><ele>26.0</ele><time>2026-05-02T16:12:57Z</time></trkpt><trkpt lat="40.953305746228544" lon="8.872402542223917"><ele>26.0</ele><time>2026-05-02T16:12:58Z</time></trkpt><trkpt lat="40.95350819262086" lon="8.87255525324375"><ele>25.5</ele><time>2026-05-02T16:12:59Z</time></trkpt><trkpt lat="40.953712539054386" lon="8.872705438817825"><ele>25.0</ele><time>2026-05-02T16:13:00Z</time></trkpt><trkpt lat="40.953917190738615" lon="8.87285359098261"><ele>25.0</ele><time>2026-05-02T16:13:01Z</time></trkpt><trkpt lat="40.95412414144754" lon="8.873000799343941"><ele>25.0</ele><time>2026-05-02T16:13:02Z</time></trkpt><trkpt lat="40.954333675348835" lon="8.873153166584329"><ele>25.0</ele><time>2026-05-02T16:13:03Z</time></trkpt><trkpt lat="40.95454146377782" lon="8.87330974223526"><ele>25.0</ele><time>2026-05-02T16:13:04Z</time></trkpt><trkpt lat="40.95474778295983" lon="8.873463233609472"><ele>25.5</ele><time>2026-05-02T16:13:05Z</time></trkpt><trkpt lat="40.95495492914751" lon="8.873615630049082"><ele>26.0</ele><time>2026-05-02T16:13:06Z</time></trkpt><trkpt lat="40.955164189940504" lon="8.873769708695265"><ele>29.0</ele><time>2026-05-02T16:13:07Z</time></trkpt><trkpt lat="40.95537014533624" lon="8.873917684017385"><ele>32.0</ele><time>2026-05-02T16:13:08Z</time></trkpt><trkpt lat="40.955580983394846" lon="8.874071353599165"><ele>32.0</ele><time>2026-05-02T16:13:09Z</time></trkpt><trkpt lat="40.955781291419356" lon="8.874217964061206"><ele>32.0</ele><time>2026-05-02T16:13:10Z</time></trkpt><trkpt lat="40.9559814624271" lon="8.874370266024318"><ele>37.0</ele><time>2026-05-02T16:13:11Z</time></trkpt><trkpt lat="40.956180398500635" lon="8.874516769132844"><ele>42.0</ele><time>2026-05-02T16:13:12Z</time></trkpt><trkpt lat="40.95637788346214" lon="8.87467308580198"><ele>42.0</ele><time>2026-05-02T16:13:13Z</time></trkpt><trkpt lat="40.95657442044753" lon="8.874832821476371"><ele>42.0</ele><time>2026-05-02T16:13:14Z</time></trkpt><trkpt lat="40.95673711512401" lon="8.875043533698618"><ele>42.5</ele><time>2026-05-02T16:13:15Z</time></trkpt><trkpt lat="40.95688722344077" lon="8.875267698984532"><ele>43.0</ele><time>2026-05-02T16:13:16Z</time></trkpt><trkpt lat="40.95700645957984" lon="8.875524180741397"><ele>43.0</ele><time>2026-05-02T16:13:17Z</time></trkpt><trkpt lat="40.95710629256744" lon="8.875792625572197"><ele>43.0</ele><time>2026-05-02T16:13:18Z</time></trkpt><trkpt lat="40.95720555788248" lon="8.876061945835628"><ele>43.333333333333336</ele><time>2026-05-02T16:13:19Z</time></trkpt><trkpt lat="40.9573087496442" lon="8.876322714487493"><ele>43.666666666666664</ele><time>2026-05-02T16:13:20Z</time></trkpt><trkpt lat="40.95740302783623" lon="8.876584027629091"><ele>44.0</ele><time>2026-05-02T16:13:21Z</time></trkpt><trkpt lat="40.9574973826879" lon="8.876838695512545"><ele>42.0</ele><time>2026-05-02T16:13:22Z</time></trkpt><trkpt lat="40.95758658585968" lon="8.877091304926179"><ele>40.0</ele><time>2026-05-02T16:13:23Z</time></trkpt><trkpt lat="40.95767289731956" lon="8.877340917482522"><ele>38.0</ele><time>2026-05-02T16:13:24Z</time></trkpt><trkpt lat="40.95775710783407" lon="8.877589380276321"><ele>38.666666666666664</ele><time>2026-05-02T16:13:25Z</time></trkpt><trkpt lat="40.957844482063265" lon="8.877841991322168"><ele>39.333333333333336</ele><time>2026-05-02T16:13:26Z</time></trkpt><trkpt lat="40.957932331881935" lon="8.878091271557428"><ele>40.0</ele><time>2026-05-02T16:13:27Z</time></trkpt><trkpt lat="40.95802040985393" lon="8.878336476280364"><ele>41.0</ele><time>2026-05-02T16:13:28Z</time></trkpt><trkpt lat="40.95810908054117" lon="8.878551383800925"><ele>42.0</ele><time>2026-05-02T16:13:29Z</time></trkpt><trkpt lat="40.95820905694963" lon="8.878742530285018"><ele>43.0</ele><time>2026-05-02T16:13:30Z</time></trkpt><trkpt lat="40.95833492357288" lon="8.878911739821252"><ele>42.66666666666667</ele><time>2026-05-02T16:13:31Z</time></trkpt><trkpt lat="40.958491479269995" lon="8.879050945640437"><ele>42.333333333333336</ele><time>2026-05-02T16:13:32Z</time></trkpt><trkpt lat="40.95866974276467" lon="8.879150449522875"><ele>42.0</ele><time>2026-05-02T16:13:33Z</time></trkpt><trkpt lat="40.95885952587065" lon="8.879205276514938"><ele>42.0</ele><time>2026-05-02T16:13:34Z</time></trkpt><trkpt lat="40.959048574581296" lon="8.879218490742057"><ele>42.0</ele><time>2026-05-02T16:13:35Z</time></trkpt><trkpt lat="40.95922583964074" lon="8.879170940300206"><ele>42.0</ele><time>2026-05-02T16:13:36Z</time></trkpt><trkpt lat="40.95938280965849" lon="8.879092001417169"><ele>42.666666666666664</ele><time>2026-05-02T16:13:37Z</time></trkpt><trkpt lat="40.95954859748796" lon="8.879010641109549"><ele>43.33333333333333</ele><time>2026-05-02T16:13:38Z</time></trkpt><trkpt lat="40.95969197406442" lon="8.878945658599223"><ele>44.0</ele><time>2026-05-02T16:13:39Z</time></trkpt><trkpt lat="40.95983229440874" lon="8.878881209502449"><ele>44.0</ele><time>2026-05-02T16:13:40Z</time></trkpt><trkpt lat="40.95996347736928" lon="8.878822868950234"><ele>44.0</ele><time>2026-05-02T16:13:41Z</time></trkpt><trkpt lat="40.96007694565815" lon="8.878775560212283"><ele>44.0</ele><time>2026-05-02T16:13:42Z</time></trkpt><trkpt lat="40.96018446809191" lon="8.878728054825594"><ele>44.0</ele><time>2026-05-02T16:13:43Z</time></trkpt><trkpt lat="40.96030111189572" lon="8.878674857608479"><ele>45.666666666666664</ele><time>2026-05-02T16:13:44Z</time></trkpt><trkpt lat="40.960438287980345" lon="8.878612386213826"><ele>47.33333333333333</ele><time>2026-05-02T16:13:45Z</time></trkpt><trkpt lat="40.96058872178232" lon="8.878544702395338"><ele>49.0</ele><time>2026-05-02T16:13:46Z</time></trkpt><trkpt lat="40.96074943397634" lon="8.878469787977162"><ele>49.33333333333333</ele><time>2026-05-02T16:13:47Z</time></trkpt><trkpt lat="40.9609161344667" lon="8.878383051775037"><ele>49.66666666666667</ele><time>2026-05-02T16:13:48Z</time></trkpt><trkpt lat="40.96109110133239" lon="8.878321151022869"><ele>50.0</ele><time>2026-05-02T16:13:49Z</time></trkpt><trkpt lat="40.961242794971696" lon="8.878253756757049"><ele>50.0</ele><time>2026-05-02T16:13:50Z</time></trkpt><trkpt lat="40.96140180483647" lon="8.878183110279789"><ele>50.0</ele><time>2026-05-02T16:13:51Z</time></trkpt><trkpt lat="40.961539235095074" lon="8.878123659836243"><ele>50.0</ele><time>2026-05-02T16:13:52Z</time></trkpt><trkpt lat="40.96170312312974" lon="8.878056028294248"><ele>50.66666666666667</ele><time>2026-05-02T16:13:53Z</time></trkpt><trkpt lat="40.961891760903356" lon="8.877982212771267"><ele>51.33333333333333</ele><time>2026-05-02T16:13:54Z</time></trkpt><trkpt lat="40.96206517743506" lon="8.877904984181896"><ele>52.0</ele><time>2026-05-02T16:13:55Z</time></trkpt><trkpt lat="40.96223746724473" lon="8.877862035058309"><ele>52.0</ele><time>2026-05-02T16:13:56Z</time></trkpt><trkpt lat="40.962412190634126" lon="8.877822243292867"><ele>52.0</ele><time>2026-05-02T16:13:57Z</time></trkpt><trkpt lat="40.96258130060936" lon="8.877780391834627"><ele>52.0</ele><time>2026-05-02T16:13:58Z</time></trkpt><trkpt lat="40.96275316067328" lon="8.877753981032683"><ele>53.33333333333333</ele><time>2026-05-02T16:13:59Z</time></trkpt><trkpt lat="40.96291842775765" lon="8.877726831948225"><ele>54.66666666666667</ele><time>2026-05-02T16:14:00Z</time></trkpt><trkpt lat="40.963085237950864" lon="8.877694240464882"><ele>56.0</ele><time>2026-05-02T16:14:01Z</time></trkpt><trkpt lat="40.96325100832756" lon="8.877657284559698"><ele>55.66666666666667</ele><time>2026-05-02T16:14:02Z</time></trkpt><trkpt lat="40.96341328370066" lon="8.877616757232127"><ele>55.33333333333333</ele><time>2026-05-02T16:14:03Z</time></trkpt><trkpt lat="40.963583951442445" lon="8.877580043744398"><ele>55.0</ele><time>2026-05-02T16:14:04Z</time></trkpt><trkpt lat="40.96375750688372" lon="8.877535680534377"><ele>55.0</ele><time>2026-05-02T16:14:05Z</time></trkpt><trkpt lat="40.963930669242984" lon="8.877487420760259"><ele>55.0</ele><time>2026-05-02T16:14:06Z</time></trkpt><trkpt lat="40.9640963057284" lon="8.877406450976988"><ele>55.0</ele><time>2026-05-02T16:14:07Z</time></trkpt><trkpt lat="40.964260406560605" lon="8.877298535463614"><ele>58.666666666666664</ele><time>2026-05-02T16:14:08Z</time></trkpt><trkpt lat="40.96441463411431" lon="8.87716840456384"><ele>62.33333333333333</ele><time>2026-05-02T16:14:09Z</time></trkpt><trkpt lat="40.96454423532586" lon="8.87700495431108"><ele>66.0</ele><time>2026-05-02T16:14:10Z</time></trkpt><trkpt lat="40.964672198087506" lon="8.876821207964726"><ele>64.33333333333333</ele><time>2026-05-02T16:14:11Z</time></trkpt><trkpt lat="40.96481062407312" lon="8.876637981430688"><ele>62.666666666666664</ele><time>2026-05-02T16:14:12Z</time></trkpt><trkpt lat="40.96494815856964" lon="8.876459712578555"><ele>61.0</ele><time>2026-05-02T16:14:13Z</time></trkpt><trkpt lat="40.96507766462319" lon="8.876291864360468"><ele>64.0</ele><time>2026-05-02T16:14:14Z</time></trkpt><trkpt lat="40.9651961182559" lon="8.876136922912483"><ele>67.0</ele><time>2026-05-02T16:14:15Z</time></trkpt><trkpt lat="40.96531220884612" lon="8.875993184990106"><ele>70.0</ele><time>2026-05-02T16:14:16Z</time></trkpt><trkpt lat="40.965427493672614" lon="8.875848330436863"><ele>70.0</ele><time>2026-05-02T16:14:17Z</time></trkpt><trkpt lat="40.965545564237445" lon="8.875694152773859"><ele>70.0</ele><time>2026-05-02T16:14:18Z</time></trkpt><trkpt lat="40.965670845487615" lon="8.875539012942452"><ele>70.0</ele><time>2026-05-02T16:14:19Z</time></trkpt><trkpt lat="40.96580592062664" lon="8.875378932240048"><ele>69.66666666666666</ele><time>2026-05-02T16:14:20Z</time></trkpt><trkpt lat="40.96595493993643" lon="8.875230106485906"><ele>69.33333333333333</ele><time>2026-05-02T16:14:21Z</time></trkpt><trkpt lat="40.96610673602991" lon="8.875109603719551"><ele>69.0</ele><time>2026-05-02T16:14:22Z</time></trkpt><trkpt lat="40.96626281549631" lon="8.875013924044024"><ele>69.0</ele><time>2026-05-02T16:14:23Z</time></trkpt><trkpt lat="40.96642624076663" lon="8.874942201716253"><ele>69.0</ele><time>2026-05-02T16:14:24Z</time></trkpt><trkpt lat="40.96659761393573" lon="8.87489607721826"><ele>69.0</ele><time>2026-05-02T16:14:25Z</time></trkpt><trkpt lat="40.966773063111845" lon="8.874876838481223"><ele>70.0</ele><time>2026-05-02T16:14:26Z</time></trkpt><trkpt lat="40.96694852870093" lon="8.874908423475805"><ele>71.0</ele><time>2026-05-02T16:14:27Z</time></trkpt><trkpt lat="40.967126448529896" lon="8.874910526513258"><ele>72.0</ele><time>2026-05-02T16:14:28Z</time></trkpt><trkpt lat="40.96730462787814" lon="8.874938977446432"><ele>72.0</ele><time>2026-05-02T16:14:29Z</time></trkpt><trkpt lat="40.96748472186455" lon="8.874965599578362"><ele>72.0</ele><time>2026-05-02T16:14:30Z</time></trkpt><trkpt lat="40.967666732004574" lon="8.87499161260469"><ele>72.0</ele><time>2026-05-02T16:14:31Z</time></trkpt><trkpt lat="40.96784931072298" lon="8.875016428553474"><ele>74.0</ele><time>2026-05-02T16:14:32Z</time></trkpt><trkpt lat="40.968020870797574" lon="8.875038780335856"><ele>76.0</ele><time>2026-05-02T16:14:33Z</time></trkpt><trkpt lat="40.968169760511735" lon="8.875064082505757"><ele>78.0</ele><time>2026-05-02T16:14:34Z</time></trkpt><trkpt lat="40.96830946764701" lon="8.875106073826784"><ele>79.66666666666667</ele><time>2026-05-02T16:14:35Z</time></trkpt><trkpt lat="40.968440067752184" lon="8.875183809703552"><ele>81.33333333333334</ele><time>2026-05-02T16:14:36Z</time></trkpt><trkpt lat="40.96855239540894" lon="8.875325559560206"><ele>83.0</ele><time>2026-05-02T16:14:37Z</time></trkpt><trkpt lat="40.96868610016097" lon="8.875450507761336"><ele>83.0</ele><time>2026-05-02T16:14:38Z</time></trkpt><trkpt lat="40.96880408555135" lon="8.875597389969201"><ele>83.0</ele><time>2026-05-02T16:14:39Z</time></trkpt><trkpt lat="40.968923102290944" lon="8.87572879029155"><ele>83.0</ele><time>2026-05-02T16:14:40Z</time></trkpt><trkpt lat="40.969040775317836" lon="8.875813925091759"><ele>83.0</ele><time>2026-05-02T16:14:41Z</time></trkpt><trkpt lat="40.96917608828244" lon="8.875859772839359"><ele>83.0</ele><time>2026-05-02T16:14:42Z</time></trkpt><trkpt lat="40.96932063035939" lon="8.87586742199955"><ele>83.0</ele><time>2026-05-02T16:14:43Z</time></trkpt><trkpt lat="40.96946502143762" lon="8.875851158382071"><ele>83.0</ele><time>2026-05-02T16:14:44Z</time></trkpt><trkpt lat="40.96960059942892" lon="8.875831407041664"><ele>83.60000000000001</ele><time>2026-05-02T16:14:45Z</time></trkpt><trkpt lat="40.96971744743359" lon="8.875809837942086"><ele>84.2</ele><time>2026-05-02T16:14:46Z</time></trkpt><trkpt lat="40.96981998446554" lon="8.875778343015174"><ele>84.8</ele><time>2026-05-02T16:14:47Z</time></trkpt><trkpt lat="40.969894008923404" lon="8.875746062013413"><ele>85.4</ele><time>2026-05-02T16:14:48Z</time></trkpt><trkpt lat="40.9700254440947" lon="8.875696255602898"><ele>86.0</ele><time>2026-05-02T16:14:50Z</time></trkpt><trkpt lat="40.970123284726455" lon="8.875675030868903"><ele>87.25</ele><time>2026-05-02T16:14:51Z</time></trkpt><trkpt lat="40.97024204009259" lon="8.875629738518656"><ele>88.5</ele><time>2026-05-02T16:14:52Z</time></trkpt><trkpt lat="40.970364744235475" lon="8.875552301190073"><ele>89.75</ele><time>2026-05-02T16:14:53Z</time></trkpt><trkpt lat="40.97048388259338" lon="8.875433279269936"><ele>91.0</ele><time>2026-05-02T16:14:54Z</time></trkpt><trkpt lat="40.97060953541" lon="8.8753277353031"><ele>91.0</ele><time>2026-05-02T16:14:55Z</time></trkpt><trkpt lat="40.97069972425721" lon="8.875220169143658"><ele>91.0</ele><time>2026-05-02T16:14:56Z</time></trkpt><trkpt lat="40.970867928366886" lon="8.875269556794063"><ele>91.0</ele><time>2026-05-02T16:14:57Z</time></trkpt><trkpt lat="40.97100907207245" lon="8.875360520822506"><ele>86.33333333333333</ele><time>2026-05-02T16:14:58Z</time></trkpt><trkpt lat="40.97114543405134" lon="8.875476899744692"><ele>81.66666666666667</ele><time>2026-05-02T16:14:59Z</time></trkpt><trkpt lat="40.97126426650016" lon="8.875626854663674"><ele>77.0</ele><time>2026-05-02T16:15:00Z</time></trkpt><trkpt lat="40.971373606510085" lon="8.875814339574527"><ele>80.0</ele><time>2026-05-02T16:15:01Z</time></trkpt><trkpt lat="40.9714788205048" lon="8.876033072450603"><ele>83.0</ele><time>2026-05-02T16:15:02Z</time></trkpt><trkpt lat="40.97157671183209" lon="8.87626308264868"><ele>86.0</ele><time>2026-05-02T16:15:03Z</time></trkpt><trkpt lat="40.97165054251768" lon="8.87648721677898"><ele>81.0</ele><time>2026-05-02T16:15:04Z</time></trkpt><trkpt lat="40.97169666156419" lon="8.876717496265647"><ele>76.0</ele><time>2026-05-02T16:15:05Z</time></trkpt><trkpt lat="40.97172355090826" lon="8.876954572091154"><ele>71.0</ele><time>2026-05-02T16:15:06Z</time></trkpt><trkpt lat="40.971728641568184" lon="8.877185931710265"><ele>71.0</ele><time>2026-05-02T16:15:07Z</time></trkpt><trkpt lat="40.97172033633246" lon="8.877407693229635"><ele>71.0</ele><time>2026-05-02T16:15:08Z</time></trkpt><trkpt lat="40.97169181245111" lon="8.87761828094805"><ele>71.0</ele><time>2026-05-02T16:15:09Z</time></trkpt><trkpt lat="40.97165155376572" lon="8.877832272820438"><ele>76.33333333333334</ele><time>2026-05-02T16:15:10Z</time></trkpt><trkpt lat="40.97160985455996" lon="8.87804877011407"><ele>81.66666666666667</ele><time>2026-05-02T16:15:11Z</time></trkpt><trkpt lat="40.971569191461775" lon="8.87826876118717"><ele>87.0</ele><time>2026-05-02T16:15:12Z</time></trkpt><trkpt lat="40.971532498960464" lon="8.878489814986864"><ele>87.33333333333333</ele><time>2026-05-02T16:15:13Z</time></trkpt><trkpt lat="40.971504380633796" lon="8.87871276657118"><ele>87.66666666666666</ele><time>2026-05-02T16:15:14Z</time></trkpt><trkpt lat="40.971479324728136" lon="8.878915437883073"><ele>88.0</ele><time>2026-05-02T16:15:15Z</time></trkpt><trkpt lat="40.97145636962879" lon="8.87910174041665"><ele>89.0</ele><time>2026-05-02T16:15:16Z</time></trkpt><trkpt lat="40.97145610651343" lon="8.879281552738584"><ele>90.0</ele><time>2026-05-02T16:15:17Z</time></trkpt><trkpt lat="40.97150115043898" lon="8.879451198295529"><ele>91.0</ele><time>2026-05-02T16:15:18Z</time></trkpt><trkpt lat="40.971565723343765" lon="8.8796143092827"><ele>92.0</ele><time>2026-05-02T16:15:19Z</time></trkpt><trkpt lat="40.97166006239545" lon="8.879741370458373"><ele>93.75</ele><time>2026-05-02T16:15:20Z</time></trkpt><trkpt lat="40.97177335654884" lon="8.879820405114339"><ele>95.5</ele><time>2026-05-02T16:15:21Z</time></trkpt><trkpt lat="40.97191049263463" lon="8.879851851126043"><ele>97.25</ele><time>2026-05-02T16:15:22Z</time></trkpt><trkpt lat="40.97205868837317" lon="8.87983911756986"><ele>99.0</ele><time>2026-05-02T16:15:23Z</time></trkpt><trkpt lat="40.972192344664386" lon="8.87977203578758"><ele>99.0</ele><time>2026-05-02T16:15:24Z</time></trkpt><trkpt lat="40.972295986760706" lon="8.879660912446026"><ele>99.0</ele><time>2026-05-02T16:15:25Z</time></trkpt><trkpt lat="40.972372036559285" lon="8.879506679379634"><ele>99.0</ele><time>2026-05-02T16:15:26Z</time></trkpt><trkpt lat="40.972429474197774" lon="8.87932533237709"><ele>99.0</ele><time>2026-05-02T16:15:27Z</time></trkpt><trkpt lat="40.972490937905036" lon="8.879140633327504"><ele>96.0</ele><time>2026-05-02T16:15:28Z</time></trkpt><trkpt lat="40.972592756813356" lon="8.878971088990312"><ele>93.0</ele><time>2026-05-02T16:15:29Z</time></trkpt><trkpt lat="40.97272937168441" lon="8.878824527996892"><ele>90.0</ele><time>2026-05-02T16:15:30Z</time></trkpt><trkpt lat="40.97288189895159" lon="8.878696593001973"><ele>90.0</ele><time>2026-05-02T16:15:31Z</time></trkpt><trkpt lat="40.97302804850364" lon="8.8786095928"><ele>90.0</ele><time>2026-05-02T16:15:32Z</time></trkpt><trkpt lat="40.9731694489254" lon="8.8786014577653"><ele>90.0</ele><time>2026-05-02T16:15:33Z</time></trkpt><trkpt lat="40.97329483985773" lon="8.878629402927599"><ele>90.0</ele><time>2026-05-02T16:15:34Z</time></trkpt><trkpt lat="40.97340532289612" lon="8.878706316021285"><ele>87.0</ele><time>2026-05-02T16:15:35Z</time></trkpt><trkpt lat="40.973511345037835" lon="8.878833683164734"><ele>84.0</ele><time>2026-05-02T16:15:36Z</time></trkpt><trkpt lat="40.97358027725667" lon="8.8789963598442"><ele>81.0</ele><time>2026-05-02T16:15:37Z</time></trkpt><trkpt lat="40.97361451664986" lon="8.879188795981808"><ele>78.0</ele><time>2026-05-02T16:15:38Z</time></trkpt><trkpt lat="40.97364937653381" lon="8.879423332804485"><ele>78.0</ele><time>2026-05-02T16:15:39Z</time></trkpt><trkpt lat="40.97369216536386" lon="8.879691207580253"><ele>78.0</ele><time>2026-05-02T16:15:40Z</time></trkpt><trkpt lat="40.97373389219263" lon="8.879947260030214"><ele>78.0</ele><time>2026-05-02T16:15:41Z</time></trkpt><trkpt lat="40.973768099353656" lon="8.880161917855231"><ele>80.0</ele><time>2026-05-02T16:15:42Z</time></trkpt><trkpt lat="40.97379174881301" lon="8.880355313390686"><ele>82.0</ele><time>2026-05-02T16:15:43Z</time></trkpt><trkpt lat="40.97380200989749" lon="8.880551140395148"><ele>84.0</ele><time>2026-05-02T16:15:44Z</time></trkpt><trkpt lat="40.97378837628902" lon="8.880752252500875"><ele>86.0</ele><time>2026-05-02T16:15:45Z</time></trkpt><trkpt lat="40.97375105143979" lon="8.880953895165849"><ele>88.33333333333334</ele><time>2026-05-02T16:15:46Z</time></trkpt><trkpt lat="40.973683790251236" lon="8.881156297398134"><ele>90.66666666666667</ele><time>2026-05-02T16:15:47Z</time></trkpt><trkpt lat="40.97361818932812" lon="8.881378649561482"><ele>93.0</ele><time>2026-05-02T16:15:48Z</time></trkpt><trkpt lat="40.97359711090651" lon="8.881584723201936"><ele>94.75</ele><time>2026-05-02T16:15:49Z</time></trkpt><trkpt lat="40.97358607729139" lon="8.881770098632654"><ele>96.5</ele><time>2026-05-02T16:15:50Z</time></trkpt><trkpt lat="40.9736016227083" lon="8.881951352417197"><ele>98.25</ele><time>2026-05-02T16:15:51Z</time></trkpt><trkpt lat="40.97363684208088" lon="8.882112558642227"><ele>100.0</ele><time>2026-05-02T16:15:52Z</time></trkpt><trkpt lat="40.97370918594128" lon="8.882235961271718"><ele>100.0</ele><time>2026-05-02T16:15:53Z</time></trkpt><trkpt lat="40.97382016269048" lon="8.8823248874273"><ele>100.0</ele><time>2026-05-02T16:15:54Z</time></trkpt><trkpt lat="40.97395075264782" lon="8.882363913854839"><ele>100.0</ele><time>2026-05-02T16:15:55Z</time></trkpt><trkpt lat="40.97408994863691" lon="8.882342615813707"><ele>100.0</ele><time>2026-05-02T16:15:56Z</time></trkpt><trkpt lat="40.97420598299968" lon="8.882258354527822"><ele>100.25</ele><time>2026-05-02T16:15:57Z</time></trkpt><trkpt lat="40.974300729709384" lon="8.882119886033992"><ele>100.5</ele><time>2026-05-02T16:15:58Z</time></trkpt><trkpt lat="40.97436830587133" lon="8.881948369889406"><ele>100.75</ele><time>2026-05-02T16:15:59Z</time></trkpt><trkpt lat="40.974422692347424" lon="8.88176754508381"><ele>101.0</ele><time>2026-05-02T16:16:00Z</time></trkpt><trkpt lat="40.9745134761281" lon="8.881637564144112"><ele>101.0</ele><time>2026-05-02T16:16:01Z</time></trkpt><trkpt lat="40.97462034881924" lon="8.881531691013137"><ele>101.0</ele><time>2026-05-02T16:16:02Z</time></trkpt><trkpt lat="40.97474878933531" lon="8.881412117828608"><ele>101.0</ele><time>2026-05-02T16:16:03Z</time></trkpt><trkpt lat="40.97487198851826" lon="8.881312380248284"><ele>101.0</ele><time>2026-05-02T16:16:04Z</time></trkpt><trkpt lat="40.97499714820272" lon="8.881263443140552"><ele>99.0</ele><time>2026-05-02T16:16:05Z</time></trkpt><trkpt lat="40.975129689547" lon="8.881300982265314"><ele>97.0</ele><time>2026-05-02T16:16:06Z</time></trkpt><trkpt lat="40.97525285513836" lon="8.881364545005551"><ele>95.0</ele><time>2026-05-02T16:16:07Z</time></trkpt><trkpt lat="40.97535270654526" lon="8.881476640079304"><ele>93.0</ele><time>2026-05-02T16:16:08Z</time></trkpt><trkpt lat="40.97543005953805" lon="8.881628360184457"><ele>93.0</ele><time>2026-05-02T16:16:09Z</time></trkpt><trkpt lat="40.975457158921735" lon="8.881808569078105"><ele>93.0</ele><time>2026-05-02T16:16:10Z</time></trkpt><trkpt lat="40.97544992123264" lon="8.881977892413683"><ele>93.0</ele><time>2026-05-02T16:16:11Z</time></trkpt><trkpt lat="40.975402838932055" lon="8.882139226917124"><ele>93.0</ele><time>2026-05-02T16:16:12Z</time></trkpt><trkpt lat="40.97533538116635" lon="8.882320882028992"><ele>93.0</ele><time>2026-05-02T16:16:13Z</time></trkpt><trkpt lat="40.97525387383796" lon="8.882520008657096"><ele>93.0</ele><time>2026-05-02T16:16:14Z</time></trkpt><trkpt lat="40.97516568057076" lon="8.882731092176861"><ele>93.0</ele><time>2026-05-02T16:16:15Z</time></trkpt><trkpt lat="40.97507477235435" lon="8.88294708931286"><ele>96.66666666666666</ele><time>2026-05-02T16:16:16Z</time></trkpt><trkpt lat="40.97500040850575" lon="8.883187481084777"><ele>100.33333333333333</ele><time>2026-05-02T16:16:17Z</time></trkpt><trkpt lat="40.97500479742032" lon="8.883487154904897"><ele>104.0</ele><time>2026-05-02T16:16:18Z</time></trkpt><trkpt lat="40.97504104988797" lon="8.883763544433943"><ele>104.0</ele><time>2026-05-02T16:16:19Z</time></trkpt><trkpt lat="40.97508421420507" lon="8.884041214710367"><ele>104.0</ele><time>2026-05-02T16:16:20Z</time></trkpt><trkpt lat="40.9751315137943" lon="8.884320024158821"><ele>104.0</ele><time>2026-05-02T16:16:21Z</time></trkpt><trkpt lat="40.97517978785187" lon="8.88459217573884"><ele>107.33333333333333</ele><time>2026-05-02T16:16:22Z</time></trkpt><trkpt lat="40.97521819420663" lon="8.884829907875673"><ele>110.66666666666666</ele><time>2026-05-02T16:16:23Z</time></trkpt><trkpt lat="40.97525061224807" lon="8.885043760627486"><ele>114.0</ele><time>2026-05-02T16:16:24Z</time></trkpt><trkpt lat="40.97528403303007" lon="8.885242737057574"><ele>117.0</ele><time>2026-05-02T16:16:25Z</time></trkpt><trkpt lat="40.97536808473624" lon="8.885420036248858"><ele>120.0</ele><time>2026-05-02T16:16:26Z</time></trkpt><trkpt lat="40.97546582420651" lon="8.885579502882733"><ele>123.0</ele><time>2026-05-02T16:16:27Z</time></trkpt><trkpt lat="40.97560507709994" lon="8.885703804555888"><ele>123.0</ele><time>2026-05-02T16:16:28Z</time></trkpt><trkpt lat="40.97576771998233" lon="8.885783052598109"><ele>123.0</ele><time>2026-05-02T16:16:29Z</time></trkpt><trkpt lat="40.97594133730668" lon="8.885835834296227"><ele>123.0</ele><time>2026-05-02T16:16:30Z</time></trkpt><trkpt lat="40.97608165160039" lon="8.885870541972594"><ele>124.33333333333334</ele><time>2026-05-02T16:16:31Z</time></trkpt><trkpt lat="40.976231711693266" lon="8.885807011173496"><ele>125.66666666666667</ele><time>2026-05-02T16:16:32Z</time></trkpt><trkpt lat="40.976394319215316" lon="8.885720362266355"><ele>127.0</ele><time>2026-05-02T16:16:33Z</time></trkpt><trkpt lat="40.976567235209664" lon="8.885641071226265"><ele>131.33333333333334</ele><time>2026-05-02T16:16:34Z</time></trkpt><trkpt lat="40.97674725236428" lon="8.885614284851965"><ele>135.66666666666666</ele><time>2026-05-02T16:16:35Z</time></trkpt><trkpt lat="40.97694063016471" lon="8.885554865098563"><ele>140.0</ele><time>2026-05-02T16:16:36Z</time></trkpt><trkpt lat="40.97712728171968" lon="8.885538536491184"><ele>140.0</ele><time>2026-05-02T16:16:37Z</time></trkpt><trkpt lat="40.97729482134921" lon="8.885488054860577"><ele>140.0</ele><time>2026-05-02T16:16:38Z</time></trkpt><trkpt lat="40.97745539604367" lon="8.885402310812509"><ele>140.0</ele><time>2026-05-02T16:16:39Z</time></trkpt><trkpt lat="40.97757743747947" lon="8.885272889710611"><ele>143.33333333333331</ele><time>2026-05-02T16:16:40Z</time></trkpt><trkpt lat="40.977661005135076" lon="8.885097505673391"><ele>146.66666666666666</ele><time>2026-05-02T16:16:41Z</time></trkpt><trkpt lat="40.977735335573335" lon="8.884910281770942"><ele>150.0</ele><time>2026-05-02T16:16:42Z</time></trkpt><trkpt lat="40.97785496895194" lon="8.884791463075542"><ele>143.0</ele><time>2026-05-02T16:16:43Z</time></trkpt><trkpt lat="40.97800459848595" lon="8.884694515639477"><ele>136.0</ele><time>2026-05-02T16:16:44Z</time></trkpt><trkpt lat="40.978171412473266" lon="8.884596265787295"><ele>129.0</ele><time>2026-05-02T16:16:45Z</time></trkpt><trkpt lat="40.978332525509835" lon="8.88449305473351"><ele>128.66666666666666</ele><time>2026-05-02T16:16:46Z</time></trkpt><trkpt lat="40.97849077769959" lon="8.884410136471708"><ele>128.33333333333331</ele><time>2026-05-02T16:16:47Z</time></trkpt><trkpt lat="40.97864320639451" lon="8.88435894201211"><ele>128.0</ele><time>2026-05-02T16:16:48Z</time></trkpt><trkpt lat="40.97879418483354" lon="8.884351596022647"><ele>128.0</ele><time>2026-05-02T16:16:49Z</time></trkpt><trkpt lat="40.97895110646364" lon="8.884374813513157"><ele>128.0</ele><time>2026-05-02T16:16:50Z</time></trkpt><trkpt lat="40.97910590398263" lon="8.88443029932328"><ele>128.0</ele><time>2026-05-02T16:16:51Z</time></trkpt><trkpt lat="40.97925401114348" lon="8.884515647751542"><ele>122.25</ele><time>2026-05-02T16:16:52Z</time></trkpt><trkpt lat="40.979394986335045" lon="8.88461076097279"><ele>116.5</ele><time>2026-05-02T16:16:53Z</time></trkpt><trkpt lat="40.97947489425715" lon="8.884719647729964"><ele>110.75</ele><time>2026-05-02T16:16:54Z</time></trkpt><trkpt lat="40.97957800849524" lon="8.884888226139337"><ele>105.0</ele><time>2026-05-02T16:16:55Z</time></trkpt><trkpt lat="40.97970071117713" lon="8.885089478732956"><ele>109.66666666666666</ele><time>2026-05-02T16:16:56Z</time></trkpt><trkpt lat="40.97982651420504" lon="8.885285617769323"><ele>114.33333333333333</ele><time>2026-05-02T16:16:57Z</time></trkpt><trkpt lat="40.979914706921264" lon="8.885441519326442"><ele>119.0</ele><time>2026-05-02T16:16:58Z</time></trkpt><trkpt lat="40.97996937465952" lon="8.885609206034863"><ele>115.33333333333333</ele><time>2026-05-02T16:16:59Z</time></trkpt><trkpt lat="40.98001737660659" lon="8.88582555340566"><ele>111.66666666666666</ele><time>2026-05-02T16:17:00Z</time></trkpt><trkpt lat="40.98006478712056" lon="8.886065319670207"><ele>108.0</ele><time>2026-05-02T16:17:01Z</time></trkpt><trkpt lat="40.98011410079429" lon="8.88631697976876"><ele>108.0</ele><time>2026-05-02T16:17:02Z</time></trkpt><trkpt lat="40.980162507456654" lon="8.886566329955388"><ele>108.0</ele><time>2026-05-02T16:17:03Z</time></trkpt><trkpt lat="40.980235029606845" lon="8.886802197030473"><ele>108.0</ele><time>2026-05-02T16:17:04Z</time></trkpt><trkpt lat="40.98034416377861" lon="8.886977676105703"><ele>116.33333333333334</ele><time>2026-05-02T16:17:05Z</time></trkpt><trkpt lat="40.980460592599954" lon="8.887109103999235"><ele>124.66666666666667</ele><time>2026-05-02T16:17:06Z</time></trkpt><trkpt lat="40.98059991417318" lon="8.887184274829771"><ele>133.0</ele><time>2026-05-02T16:17:07Z</time></trkpt><trkpt lat="40.98075505030735" lon="8.887207060083437"><ele>128.0</ele><time>2026-05-02T16:17:08Z</time></trkpt><trkpt lat="40.9809238625212" lon="8.887215439471765"><ele>123.0</ele><time>2026-05-02T16:17:09Z</time></trkpt><trkpt lat="40.98110101483179" lon="8.887229814126941"><ele>118.0</ele><time>2026-05-02T16:17:10Z</time></trkpt><trkpt lat="40.98127264387998" lon="8.887298888569783"><ele>118.0</ele><time>2026-05-02T16:17:11Z</time></trkpt><trkpt lat="40.98143592334435" lon="8.887402130185343"><ele>118.0</ele><time>2026-05-02T16:17:12Z</time></trkpt><trkpt lat="40.981591181604514" lon="8.887526630006796"><ele>118.0</ele><time>2026-05-02T16:17:13Z</time></trkpt><trkpt lat="40.98173873657665" lon="8.887677027348085"><ele>115.66666666666667</ele><time>2026-05-02T16:17:14Z</time></trkpt><trkpt lat="40.98187988664219" lon="8.887848002757051"><ele>113.33333333333334</ele><time>2026-05-02T16:17:15Z</time></trkpt><trkpt lat="40.98201040194712" lon="8.888032749372346"><ele>111.0</ele><time>2026-05-02T16:17:16Z</time></trkpt><trkpt lat="40.982140454365016" lon="8.888229982081985"><ele>111.0</ele><time>2026-05-02T16:17:17Z</time></trkpt><trkpt lat="40.98225176681138" lon="8.888419508515579"><ele>111.0</ele><time>2026-05-02T16:17:18Z</time></trkpt><trkpt lat="40.9823048953965" lon="8.888580864936904"><ele>111.0</ele><time>2026-05-02T16:17:19Z</time></trkpt><trkpt lat="40.98231615678405" lon="8.888722621300802"><ele>111.0</ele><time>2026-05-02T16:17:20Z</time></trkpt><trkpt lat="40.982296384863766" lon="8.888871014862447"><ele>114.0</ele><time>2026-05-02T16:17:21Z</time></trkpt><trkpt lat="40.98225310366896" lon="8.889072514844054"><ele>117.0</ele><time>2026-05-02T16:17:22Z</time></trkpt><trkpt lat="40.98223306512467" lon="8.889293536422267"><ele>120.0</ele><time>2026-05-02T16:17:23Z</time></trkpt><trkpt lat="40.98225028478215" lon="8.889506351948462"><ele>124.75</ele><time>2026-05-02T16:17:24Z</time></trkpt><trkpt lat="40.98231169793056" lon="8.88968693977656"><ele>129.5</ele><time>2026-05-02T16:17:25Z</time></trkpt><trkpt lat="40.98237688101489" lon="8.88984703303797"><ele>134.25</ele><time>2026-05-02T16:17:26Z</time></trkpt><trkpt lat="40.98247255409654" lon="8.889954795816116"><ele>139.0</ele><time>2026-05-02T16:17:27Z</time></trkpt><trkpt lat="40.982601048071714" lon="8.890019142192878"><ele>141.0</ele><time>2026-05-02T16:17:28Z</time></trkpt><trkpt lat="40.982775554222" lon="8.890015260759947"><ele>143.0</ele><time>2026-05-02T16:17:29Z</time></trkpt><trkpt lat="40.98293516833833" lon="8.889984896809324"><ele>145.0</ele><time>2026-05-02T16:17:30Z</time></trkpt><trkpt lat="40.98306823952329" lon="8.889883758402423"><ele>145.0</ele><time>2026-05-02T16:17:31Z</time></trkpt><trkpt lat="40.983190165896666" lon="8.889734310475143"><ele>145.0</ele><time>2026-05-02T16:17:32Z</time></trkpt><trkpt lat="40.98331138326325" lon="8.889573433057103"><ele>145.0</ele><time>2026-05-02T16:17:33Z</time></trkpt><trkpt lat="40.983444376747435" lon="8.889437446995208"><ele>143.0</ele><time>2026-05-02T16:17:34Z</time></trkpt><trkpt lat="40.98357577035786" lon="8.889360680807401"><ele>141.0</ele><time>2026-05-02T16:17:35Z</time></trkpt><trkpt lat="40.98370847779252" lon="8.889392816343708"><ele>139.0</ele><time>2026-05-02T16:17:36Z</time></trkpt><trkpt lat="40.98385464990295" lon="8.889425284883993"><ele>137.0</ele><time>2026-05-02T16:17:37Z</time></trkpt><trkpt lat="40.98399814995977" lon="8.889518117712369"><ele>137.0</ele><time>2026-05-02T16:17:38Z</time></trkpt><trkpt lat="40.984144320042866" lon="8.889647785496976"><ele>137.0</ele><time>2026-05-02T16:17:39Z</time></trkpt><trkpt lat="40.984300228171286" lon="8.8897912984416"><ele>137.0</ele><time>2026-05-02T16:17:40Z</time></trkpt><trkpt lat="40.984472456777745" lon="8.889927154211454"><ele>137.66666666666666</ele><time>2026-05-02T16:17:41Z</time></trkpt><trkpt lat="40.98464380590033" lon="8.890088391396157"><ele>138.33333333333334</ele><time>2026-05-02T16:17:42Z</time></trkpt><trkpt lat="40.98480601841399" lon="8.890242754981056"><ele>139.0</ele><time>2026-05-02T16:17:43Z</time></trkpt><trkpt lat="40.98492545571018" lon="8.89040189840884"><ele>140.33333333333334</ele><time>2026-05-02T16:17:44Z</time></trkpt><trkpt lat="40.98502813962765" lon="8.890556865071872"><ele>141.66666666666666</ele><time>2026-05-02T16:17:45Z</time></trkpt><trkpt lat="40.985105278587696" lon="8.890747206796418"><ele>143.0</ele><time>2026-05-02T16:17:46Z</time></trkpt><trkpt lat="40.985170274693004" lon="8.890963253415633"><ele>143.0</ele><time>2026-05-02T16:17:47Z</time></trkpt><trkpt lat="40.985244656529034" lon="8.891190645160288"><ele>143.0</ele><time>2026-05-02T16:17:48Z</time></trkpt><trkpt lat="40.98534269114468" lon="8.891368251566256"><ele>143.0</ele><time>2026-05-02T16:17:49Z</time></trkpt><trkpt lat="40.98544865509268" lon="8.891502138340787"><ele>143.0</ele><time>2026-05-02T16:17:50Z</time></trkpt><trkpt lat="40.98557633593181" lon="8.891574784642495"><ele>143.0</ele><time>2026-05-02T16:17:51Z</time></trkpt><trkpt lat="40.98572166753997" lon="8.891590200998507"><ele>143.0</ele><time>2026-05-02T16:17:52Z</time></trkpt><trkpt lat="40.98588128060154" lon="8.89160638211797"><ele>143.0</ele><time>2026-05-02T16:17:53Z</time></trkpt><trkpt lat="40.98601416389563" lon="8.89173093766234"><ele>143.66666666666666</ele><time>2026-05-02T16:17:54Z</time></trkpt><trkpt lat="40.98616125173765" lon="8.891878258424889"><ele>144.33333333333334</ele><time>2026-05-02T16:17:55Z</time></trkpt><trkpt lat="40.986318207781146" lon="8.892040186591064"><ele>145.0</ele><time>2026-05-02T16:17:56Z</time></trkpt><trkpt lat="40.98644733517647" lon="8.89219710145072"><ele>145.0</ele><time>2026-05-02T16:17:57Z</time></trkpt><trkpt lat="40.98655815296789" lon="8.892390010843233"><ele>145.0</ele><time>2026-05-02T16:17:58Z</time></trkpt><trkpt lat="40.98666370387326" lon="8.892619336924586"><ele>145.0</ele><time>2026-05-02T16:17:59Z</time></trkpt><trkpt lat="40.98677151764716" lon="8.892844856749283"><ele>144.66666666666669</ele><time>2026-05-02T16:18:00Z</time></trkpt><trkpt lat="40.98686613741568" lon="8.89307679027817"><ele>144.33333333333334</ele><time>2026-05-02T16:18:01Z</time></trkpt><trkpt lat="40.98696002282727" lon="8.893324783734181"><ele>144.0</ele><time>2026-05-02T16:18:02Z</time></trkpt><trkpt lat="40.98705255283016" lon="8.89357964344517"><ele>144.0</ele><time>2026-05-02T16:18:03Z</time></trkpt><trkpt lat="40.98713664455003" lon="8.893810804817782"><ele>144.0</ele><time>2026-05-02T16:18:04Z</time></trkpt><trkpt lat="40.98720652948051" lon="8.894018154581975"><ele>144.0</ele><time>2026-05-02T16:18:05Z</time></trkpt><trkpt lat="40.987245497329255" lon="8.894238700429195"><ele>149.33333333333334</ele><time>2026-05-02T16:18:06Z</time></trkpt><trkpt lat="40.987270489777075" lon="8.894449902816586"><ele>154.66666666666669</ele><time>2026-05-02T16:18:07Z</time></trkpt><trkpt lat="40.98730808395185" lon="8.894643223559859"><ele>160.0</ele><time>2026-05-02T16:18:08Z</time></trkpt><trkpt lat="40.987386301281916" lon="8.894811461715047"><ele>159.33333333333334</ele><time>2026-05-02T16:18:09Z</time></trkpt><trkpt lat="40.987515643483675" lon="8.894938465442968"><ele>158.66666666666666</ele><time>2026-05-02T16:18:10Z</time></trkpt><trkpt lat="40.98767925297252" lon="8.895027155223298"><ele>158.0</ele><time>2026-05-02T16:18:11Z</time></trkpt><trkpt lat="40.98784380326659" lon="8.895118845224072"><ele>158.0</ele><time>2026-05-02T16:18:12Z</time></trkpt><trkpt lat="40.9879350371906" lon="8.895288007224066"><ele>158.0</ele><time>2026-05-02T16:18:13Z</time></trkpt><trkpt lat="40.987998978215906" lon="8.895486898738163"><ele>158.0</ele><time>2026-05-02T16:18:14Z</time></trkpt><trkpt lat="40.98810530932109" lon="8.895679859312848"><ele>158.0</ele><time>2026-05-02T16:18:15Z</time></trkpt><trkpt lat="40.988237877403634" lon="8.89583765177593"><ele>158.0</ele><time>2026-05-02T16:18:16Z</time></trkpt><trkpt lat="40.9884021002402" lon="8.895956763775242"><ele>158.0</ele><time>2026-05-02T16:18:17Z</time></trkpt><trkpt lat="40.988580819735255" lon="8.89605590063254"><ele>164.0</ele><time>2026-05-02T16:18:18Z</time></trkpt><trkpt lat="40.988764016313766" lon="8.89611902024361"><ele>170.0</ele><time>2026-05-02T16:18:19Z</time></trkpt><trkpt lat="40.9889491064699" lon="8.8961467971227"><ele>176.0</ele><time>2026-05-02T16:18:20Z</time></trkpt><trkpt lat="40.98913423205455" lon="8.896199977844375"><ele>169.33333333333331</ele><time>2026-05-02T16:18:21Z</time></trkpt><trkpt lat="40.98930085652105" lon="8.89632948102225"><ele>162.66666666666666</ele><time>2026-05-02T16:18:22Z</time></trkpt><trkpt lat="40.98944350216546" lon="8.896460414392461"><ele>156.0</ele><time>2026-05-02T16:18:23Z</time></trkpt><trkpt lat="40.989554217248994" lon="8.89660348318549"><ele>156.0</ele><time>2026-05-02T16:18:24Z</time></trkpt><trkpt lat="40.989635511453685" lon="8.896751467315415"><ele>156.0</ele><time>2026-05-02T16:18:25Z</time></trkpt><trkpt lat="40.98970794506581" lon="8.896925651440137"><ele>156.0</ele><time>2026-05-02T16:18:26Z</time></trkpt><trkpt lat="40.98978923969171" lon="8.897092558801058"><ele>156.0</ele><time>2026-05-02T16:18:27Z</time></trkpt><trkpt lat="40.98987873673775" lon="8.89722294052805"><ele>158.0</ele><time>2026-05-02T16:18:28Z</time></trkpt><trkpt lat="40.989977687486245" lon="8.897334666670488"><ele>160.0</ele><time>2026-05-02T16:18:29Z</time></trkpt><trkpt lat="40.99009274767129" lon="8.897428958772387"><ele>162.0</ele><time>2026-05-02T16:18:30Z</time></trkpt><trkpt lat="40.99022303548057" lon="8.897485177616872"><ele>164.0</ele><time>2026-05-02T16:18:31Z</time></trkpt><trkpt lat="40.990341552626255" lon="8.897491298866383"><ele>164.0</ele><time>2026-05-02T16:18:32Z</time></trkpt><trkpt lat="40.990459466312196" lon="8.897478493169254"><ele>164.0</ele><time>2026-05-02T16:18:33Z</time></trkpt><trkpt lat="40.990560898142064" lon="8.897548313335482"><ele>164.0</ele><time>2026-05-02T16:18:34Z</time></trkpt><trkpt lat="40.99063027112026" lon="8.897668963369625"><ele>164.0</ele><time>2026-05-02T16:18:35Z</time></trkpt><trkpt lat="40.99065697214195" lon="8.897798571871943"><ele>164.0</ele><time>2026-05-02T16:18:36Z</time></trkpt><trkpt lat="40.990679476449955" lon="8.897954092607486"><ele>167.25</ele><time>2026-05-02T16:18:37Z</time></trkpt><trkpt lat="40.99069899681081" lon="8.898128556010505"><ele>170.5</ele><time>2026-05-02T16:18:38Z</time></trkpt><trkpt lat="40.99073724500354" lon="8.898250207899142"><ele>173.75</ele><time>2026-05-02T16:18:39Z</time></trkpt><trkpt lat="40.99077759865304" lon="8.8983966185008"><ele>177.0</ele><time>2026-05-02T16:18:40Z</time></trkpt><trkpt lat="40.99084427715039" lon="8.898529048268626"><ele>177.25</ele><time>2026-05-02T16:18:41Z</time></trkpt><trkpt lat="40.99092088644043" lon="8.898650039477648"><ele>177.5</ele><time>2026-05-02T16:18:42Z</time></trkpt><trkpt lat="40.9909906571973" lon="8.89875755255012"><ele>177.75</ele><time>2026-05-02T16:18:43Z</time></trkpt><trkpt lat="40.99107377164529" lon="8.898856577133882"><ele>178.0</ele><time>2026-05-02T16:18:44Z</time></trkpt><trkpt lat="40.99119425443168" lon="8.898938438781173"><ele>178.0</ele><time>2026-05-02T16:18:45Z</time></trkpt><trkpt lat="40.991320558383585" lon="8.899013996403408"><ele>178.0</ele><time>2026-05-02T16:18:46Z</time></trkpt><trkpt lat="40.991410427132486" lon="8.899115790450507"><ele>178.0</ele><time>2026-05-02T16:18:47Z</time></trkpt><trkpt lat="40.99148186925498" lon="8.8992354114061"><ele>178.0</ele><time>2026-05-02T16:18:48Z</time></trkpt><trkpt lat="40.99156455518567" lon="8.899375653011981"><ele>181.75</ele><time>2026-05-02T16:18:49Z</time></trkpt><trkpt lat="40.99164936593881" lon="8.89951901107619"><ele>185.5</ele><time>2026-05-02T16:18:50Z</time></trkpt><trkpt lat="40.99171659055815" lon="8.899634859105095"><ele>189.25</ele><time>2026-05-02T16:18:51Z</time></trkpt><trkpt lat="40.99178046536625" lon="8.899744208371317"><ele>193.0</ele><time>2026-05-02T16:18:52Z</time></trkpt><trkpt lat="40.99184280510242" lon="8.899859724696249"><ele>190.2</ele><time>2026-05-02T16:18:53Z</time></trkpt><trkpt lat="40.99189365296536" lon="8.900006875360633"><ele>187.4</ele><time>2026-05-02T16:18:54Z</time></trkpt><trkpt lat="40.991898607253496" lon="8.900167884247246"><ele>184.6</ele><time>2026-05-02T16:18:55Z</time></trkpt><trkpt lat="40.9918658803924" lon="8.90029519783146"><ele>181.79999999999998</ele><time>2026-05-02T16:18:56Z</time></trkpt><trkpt lat="40.9918085023977" lon="8.900410413729468"><ele>179.0</ele><time>2026-05-02T16:18:57Z</time></trkpt><trkpt lat="40.99172508005132" lon="8.90052583502927"><ele>182.6</ele><time>2026-05-02T16:18:58Z</time></trkpt><trkpt lat="40.99165310515436" lon="8.90063511550566"><ele>186.2</ele><time>2026-05-02T16:18:59Z</time></trkpt><trkpt lat="40.99159579919331" lon="8.900734741380546"><ele>189.79999999999998</ele><time>2026-05-02T16:19:00Z</time></trkpt><trkpt lat="40.99157574497408" lon="8.90086527311538"><ele>193.39999999999998</ele><time>2026-05-02T16:19:01Z</time></trkpt><trkpt lat="40.99154077153069" lon="8.900997651434809"><ele>197.0</ele><time>2026-05-02T16:19:02Z</time></trkpt><trkpt lat="40.99156941198789" lon="8.901161014975559"><ele>197.5</ele><time>2026-05-02T16:19:03Z</time></trkpt><trkpt lat="40.99160385255132" lon="8.901315118562156"><ele>198.0</ele><time>2026-05-02T16:19:04Z</time></trkpt><trkpt lat="40.99167420689489" lon="8.901450940059961"><ele>198.5</ele><time>2026-05-02T16:19:05Z</time></trkpt><trkpt lat="40.99177764820351" lon="8.901553861937218"><ele>199.0</ele><time>2026-05-02T16:19:06Z</time></trkpt><trkpt lat="40.991890833826275" lon="8.901625383029833"><ele>199.0</ele><time>2026-05-02T16:19:07Z</time></trkpt><trkpt lat="40.9920127580085" lon="8.90165415123401"><ele>199.0</ele><time>2026-05-02T16:19:08Z</time></trkpt><trkpt lat="40.99214503333443" lon="8.901639507439882"><ele>199.0</ele><time>2026-05-02T16:19:09Z</time></trkpt><trkpt lat="40.99227221427905" lon="8.901608261737719"><ele>199.0</ele><time>2026-05-02T16:19:10Z</time></trkpt><trkpt lat="40.992379723782356" lon="8.9015880647406"><ele>199.0</ele><time>2026-05-02T16:19:11Z</time></trkpt><trkpt lat="40.992504614574" lon="8.90159699010898"><ele>199.0</ele><time>2026-05-02T16:19:12Z</time></trkpt><trkpt lat="40.992605549384024" lon="8.901693538690978"><ele>199.0</ele><time>2026-05-02T16:19:13Z</time></trkpt><trkpt lat="40.9926807207276" lon="8.901802641341993"><ele>199.0</ele><time>2026-05-02T16:19:14Z</time></trkpt><trkpt lat="40.99276501415892" lon="8.901937366366946"><ele>200.0</ele><time>2026-05-02T16:19:15Z</time></trkpt><trkpt lat="40.99286070074728" lon="8.902008042174556"><ele>201.0</ele><time>2026-05-02T16:19:16Z</time></trkpt><trkpt lat="40.99296126531074" lon="8.90206031115594"><ele>202.0</ele><time>2026-05-02T16:19:17Z</time></trkpt><trkpt lat="40.993090023305605" lon="8.902088102605532"><ele>203.0</ele><time>2026-05-02T16:19:18Z</time></trkpt><trkpt lat="40.9932208597848" lon="8.902110138177123"><ele>203.0</ele><time>2026-05-02T16:19:19Z</time></trkpt><trkpt lat="40.993332950004984" lon="8.902180919750808"><ele>203.0</ele><time>2026-05-02T16:19:20Z</time></trkpt><trkpt lat="40.993429147448346" lon="8.902272780872092"><ele>203.0</ele><time>2026-05-02T16:19:21Z</time></trkpt><trkpt lat="40.99348165458782" lon="8.902391969392557"><ele>203.0</ele><time>2026-05-02T16:19:22Z</time></trkpt><trkpt lat="40.99350946404991" lon="8.90251530029028"><ele>203.0</ele><time>2026-05-02T16:19:23Z</time></trkpt><trkpt lat="40.993537599530306" lon="8.902669499783274"><ele>198.60000000000002</ele><time>2026-05-02T16:19:24Z</time></trkpt><trkpt lat="40.99356595529213" lon="8.902839074091478"><ele>194.20000000000002</ele><time>2026-05-02T16:19:25Z</time></trkpt><trkpt lat="40.993584033306966" lon="8.902983797849714"><ele>189.8</ele><time>2026-05-02T16:19:26Z</time></trkpt><trkpt lat="40.993598426874684" lon="8.903121369798376"><ele>185.4</ele><time>2026-05-02T16:19:27Z</time></trkpt><trkpt lat="40.99360998569112" lon="8.903255937872768"><ele>181.0</ele><time>2026-05-02T16:19:28Z</time></trkpt><trkpt lat="40.99362002526651" lon="8.903398718515415"><ele>183.25</ele><time>2026-05-02T16:19:29Z</time></trkpt><trkpt lat="40.9936162246932" lon="8.903546543441184"><ele>185.5</ele><time>2026-05-02T16:19:30Z</time></trkpt><trkpt lat="40.993593907417164" lon="8.903722962394225"><ele>187.75</ele><time>2026-05-02T16:19:31Z</time></trkpt><trkpt lat="40.99356724540181" lon="8.903888234068498"><ele>190.0</ele><time>2026-05-02T16:19:32Z</time></trkpt><trkpt lat="40.99353717670784" lon="8.904064468501446"><ele>190.0</ele><time>2026-05-02T16:19:33Z</time></trkpt><trkpt lat="40.993502408353386" lon="8.904232013918042"><ele>190.0</ele><time>2026-05-02T16:19:34Z</time></trkpt><trkpt lat="40.993456198369906" lon="8.904353612543916"><ele>190.0</ele><time>2026-05-02T16:19:35Z</time></trkpt><trkpt lat="40.993381573918946" lon="8.904449065517277"><ele>190.0</ele><time>2026-05-02T16:19:36Z</time></trkpt><trkpt lat="40.99331600316196" lon="8.90455786006845"><ele>190.0</ele><time>2026-05-02T16:19:37Z</time></trkpt><trkpt lat="40.99325583965318" lon="8.904657682522664"><ele>196.25</ele><time>2026-05-02T16:19:38Z</time></trkpt><trkpt lat="40.993201509865955" lon="8.904795212202327"><ele>202.5</ele><time>2026-05-02T16:19:39Z</time></trkpt><trkpt lat="40.99317556345118" lon="8.90498251024586"><ele>208.75</ele><time>2026-05-02T16:19:40Z</time></trkpt><trkpt lat="40.99319577503593" lon="8.90514948565102"><ele>215.0</ele><time>2026-05-02T16:19:41Z</time></trkpt><trkpt lat="40.99321816737531" lon="8.905307194144378"><ele>215.5</ele><time>2026-05-02T16:19:42Z</time></trkpt><trkpt lat="40.99330731365277" lon="8.90542819855997"><ele>216.0</ele><time>2026-05-02T16:19:43Z</time></trkpt><trkpt lat="40.99340943961873" lon="8.90553820044167"><ele>216.5</ele><time>2026-05-02T16:19:44Z</time></trkpt><trkpt lat="40.99352664689212" lon="8.905619422642648"><ele>217.0</ele><time>2026-05-02T16:19:45Z</time></trkpt><trkpt lat="40.99366341906095" lon="8.905664431211058"><ele>217.0</ele><time>2026-05-02T16:19:46Z</time></trkpt><trkpt lat="40.993806239962986" lon="8.905695044252935"><ele>217.0</ele><time>2026-05-02T16:19:47Z</time></trkpt><trkpt lat="40.993943648818586" lon="8.905707911811266"><ele>217.0</ele><time>2026-05-02T16:19:48Z</time></trkpt><trkpt lat="40.99411479466576" lon="8.905708527013319"><ele>220.25</ele><time>2026-05-02T16:19:49Z</time></trkpt><trkpt lat="40.99426740908204" lon="8.905703014956641"><ele>223.5</ele><time>2026-05-02T16:19:50Z</time></trkpt><trkpt lat="40.994405345761535" lon="8.905654124461673"><ele>226.75</ele><time>2026-05-02T16:19:51Z</time></trkpt><trkpt lat="40.99453063234545" lon="8.905562225588003"><ele>230.0</ele><time>2026-05-02T16:19:52Z</time></trkpt><trkpt lat="40.994656495388014" lon="8.905436473480634"><ele>230.0</ele><time>2026-05-02T16:19:53Z</time></trkpt><trkpt lat="40.994742817378054" lon="8.905281785160312"><ele>230.0</ele><time>2026-05-02T16:19:54Z</time></trkpt><trkpt lat="40.994830917525675" lon="8.90516422907217"><ele>230.0</ele><time>2026-05-02T16:19:55Z</time></trkpt><trkpt lat="40.99493676761078" lon="8.905060333385734"><ele>230.0</ele><time>2026-05-02T16:19:56Z</time></trkpt><trkpt lat="40.995051424992866" lon="8.904984021462699"><ele>225.25</ele><time>2026-05-02T16:19:57Z</time></trkpt><trkpt lat="40.995166934727756" lon="8.904928530081628"><ele>220.5</ele><time>2026-05-02T16:19:58Z</time></trkpt><trkpt lat="40.99528987376759" lon="8.904853987134393"><ele>215.75</ele><time>2026-05-02T16:19:59Z</time></trkpt><trkpt lat="40.99542387783778" lon="8.904770986383328"><ele>211.0</ele><time>2026-05-02T16:20:00Z</time></trkpt><trkpt lat="40.995554862925644" lon="8.904693155837275"><ele>211.0</ele><time>2026-05-02T16:20:01Z</time></trkpt><trkpt lat="40.99568606190605" lon="8.904672524028632"><ele>211.0</ele><time>2026-05-02T16:20:02Z</time></trkpt><trkpt lat="40.99580398183445" lon="8.904685333389205"><ele>211.0</ele><time>2026-05-02T16:20:03Z</time></trkpt><trkpt lat="40.9959072800132" lon="8.904732203770422"><ele>211.0</ele><time>2026-05-02T16:20:04Z</time></trkpt><trkpt lat="40.99599447809256" lon="8.904810367843211"><ele>213.25</ele><time>2026-05-02T16:20:05Z</time></trkpt><trkpt lat="40.996089239211074" lon="8.904909986425707"><ele>215.5</ele><time>2026-05-02T16:20:06Z</time></trkpt><trkpt lat="40.99618073628889" lon="8.905024870663825"><ele>217.75</ele><time>2026-05-02T16:20:07Z</time></trkpt><trkpt lat="40.99628188025121" lon="8.905139143638806"><ele>220.0</ele><time>2026-05-02T16:20:08Z</time></trkpt><trkpt lat="40.99637884545802" lon="8.905242026805837"><ele>220.0</ele><time>2026-05-02T16:20:09Z</time></trkpt><trkpt lat="40.996483883232955" lon="8.905352380609811"><ele>220.0</ele><time>2026-05-02T16:20:10Z</time></trkpt><trkpt lat="40.99657309550777" lon="8.905448598907538"><ele>220.0</ele><time>2026-05-02T16:20:11Z</time></trkpt><trkpt lat="40.996663838197215" lon="8.90552180444404"><ele>220.0</ele><time>2026-05-02T16:20:12Z</time></trkpt><trkpt lat="40.996766489781315" lon="8.905562580592308"><ele>217.49999999999997</ele><time>2026-05-02T16:20:13Z</time></trkpt><trkpt lat="40.99686803812851" lon="8.905594476677443"><ele>215.0</ele><time>2026-05-02T16:20:14Z</time></trkpt><trkpt lat="40.99695969697807" lon="8.905609534937295"><ele>212.5</ele><time>2026-05-02T16:20:15Z</time></trkpt><trkpt lat="40.997036384683575" lon="8.90562600076332"><ele>210.0</ele><time>2026-05-02T16:20:16Z</time></trkpt><trkpt lat="40.99710477807471" lon="8.905652492988715"><ele>207.49999999999997</ele><time>2026-05-02T16:20:17Z</time></trkpt><trkpt lat="40.997167186649094" lon="8.905703399613593"><ele>205.0</ele><time>2026-05-02T16:20:18Z</time></trkpt><trkpt lat="40.997220817336014" lon="8.9057825108322"><ele>204.99999999999997</ele><time>2026-05-02T16:20:19Z</time></trkpt><trkpt lat="40.99728785028143" lon="8.905856363394362"><ele>205.0</ele><time>2026-05-02T16:20:20Z</time></trkpt><trkpt lat="40.99735822302808" lon="8.905898975353644"><ele>205.0</ele><time>2026-05-02T16:20:21Z</time></trkpt><trkpt lat="40.99744017149067" lon="8.905904794519502"><ele>205.0</ele><time>2026-05-02T16:20:22Z</time></trkpt><trkpt lat="40.99751790036103" lon="8.905869020215135"><ele>204.99999999999997</ele><time>2026-05-02T16:20:23Z</time></trkpt><trkpt lat="40.997577667720634" lon="8.90578901672495"><ele>205.0</ele><time>2026-05-02T16:20:24Z</time></trkpt><trkpt lat="40.99763307427028" lon="8.905688336563834"><ele>202.75</ele><time>2026-05-02T16:20:25Z</time></trkpt><trkpt lat="40.997681756472936" lon="8.905571496001611"><ele>200.5</ele><time>2026-05-02T16:20:26Z</time></trkpt><trkpt lat="40.9978015753051" lon="8.905508067326423"><ele>198.25</ele><time>2026-05-02T16:20:27Z</time></trkpt><trkpt lat="40.997932091987686" lon="8.905471956329913"><ele>196.0</ele><time>2026-05-02T16:20:28Z</time></trkpt><trkpt lat="40.998093461342755" lon="8.905422073089191"><ele>196.0</ele><time>2026-05-02T16:20:29Z</time></trkpt><trkpt lat="40.998286771653866" lon="8.905326514592598"><ele>196.0</ele><time>2026-05-02T16:20:30Z</time></trkpt><trkpt lat="40.99850777113196" lon="8.905170299957566"><ele>197.5</ele><time>2026-05-02T16:20:31Z</time></trkpt><trkpt lat="40.99875034183055" lon="8.904984703515215"><ele>199.0</ele><time>2026-05-02T16:20:32Z</time></trkpt><trkpt lat="40.998972753037236" lon="8.904840827450908"><ele>198.66666666666666</ele><time>2026-05-02T16:20:33Z</time></trkpt><trkpt lat="40.999167881724155" lon="8.90471819427689"><ele>198.33333333333331</ele><time>2026-05-02T16:20:34Z</time></trkpt><trkpt lat="40.999335689209474" lon="8.904601441855396"><ele>198.0</ele><time>2026-05-02T16:20:35Z</time></trkpt><trkpt lat="40.999480085835415" lon="8.904479503014043"><ele>198.0</ele><time>2026-05-02T16:20:36Z</time></trkpt><trkpt lat="40.99960306221535" lon="8.904326972909667"><ele>198.0</ele><time>2026-05-02T16:20:37Z</time></trkpt><trkpt lat="40.99971837440801" lon="8.904127634066"><ele>198.0</ele><time>2026-05-02T16:20:38Z</time></trkpt><trkpt lat="40.99982443522874" lon="8.903931919392942"><ele>198.0</ele><time>2026-05-02T16:20:39Z</time></trkpt><trkpt lat="40.99993387064044" lon="8.903736036870665"><ele>198.0</ele><time>2026-05-02T16:20:40Z</time></trkpt><trkpt lat="41.00004156159306" lon="8.903550924236713"><ele>198.0</ele><time>2026-05-02T16:20:41Z</time></trkpt><trkpt lat="41.000129157975856" lon="8.903367364561328"><ele>198.66666666666669</ele><time>2026-05-02T16:20:42Z</time></trkpt><trkpt lat="41.00017616512703" lon="8.903157785238507"><ele>199.33333333333334</ele><time>2026-05-02T16:20:43Z</time></trkpt><trkpt lat="41.00018246827202" lon="8.902919155452444"><ele>200.0</ele><time>2026-05-02T16:20:44Z</time></trkpt><trkpt lat="41.00018179816948" lon="8.902677866120623"><ele>199.0</ele><time>2026-05-02T16:20:45Z</time></trkpt><trkpt lat="41.00019295570454" lon="8.902447543901555"><ele>198.0</ele><time>2026-05-02T16:20:46Z</time></trkpt><trkpt lat="41.00023429155159" lon="8.902228457146878"><ele>197.0</ele><time>2026-05-02T16:20:47Z</time></trkpt><trkpt lat="41.000312379514625" lon="8.902039311926965"><ele>197.0</ele><time>2026-05-02T16:20:48Z</time></trkpt><trkpt lat="41.00042673847812" lon="8.90190486431159"><ele>197.0</ele><time>2026-05-02T16:20:49Z</time></trkpt><trkpt lat="41.000573555030556" lon="8.901839787031061"><ele>197.0</ele><time>2026-05-02T16:20:50Z</time></trkpt><trkpt lat="41.00073124683199" lon="8.901783896948597"><ele>192.66666666666669</ele><time>2026-05-02T16:20:51Z</time></trkpt><trkpt lat="41.000898994444256" lon="8.901716343518688"><ele>188.33333333333334</ele><time>2026-05-02T16:20:52Z</time></trkpt><trkpt lat="41.00107094585635" lon="8.901667664021193"><ele>184.0</ele><time>2026-05-02T16:20:53Z</time></trkpt><trkpt lat="41.00125354335936" lon="8.901614211064718"><ele>184.0</ele><time>2026-05-02T16:20:54Z</time></trkpt><trkpt lat="41.00144318845483" lon="8.90155489337263"><ele>184.0</ele><time>2026-05-02T16:20:55Z</time></trkpt><trkpt lat="41.00161240128367" lon="8.90149856213324"><ele>184.0</ele><time>2026-05-02T16:20:56Z</time></trkpt><trkpt lat="41.001771254164424" lon="8.9014544350178"><ele>183.25</ele><time>2026-05-02T16:20:57Z</time></trkpt><trkpt lat="41.00191965236644" lon="8.901481555346539"><ele>182.5</ele><time>2026-05-02T16:20:58Z</time></trkpt><trkpt lat="41.002056020567096" lon="8.901537249861672"><ele>181.75</ele><time>2026-05-02T16:20:59Z</time></trkpt><trkpt lat="41.002173685282045" lon="8.901647832077584"><ele>181.0</ele><time>2026-05-02T16:21:00Z</time></trkpt><trkpt lat="41.002284688257525" lon="8.901791812637047"><ele>178.66666666666669</ele><time>2026-05-02T16:21:01Z</time></trkpt><trkpt lat="41.00240531118707" lon="8.901960380307678"><ele>176.33333333333334</ele><time>2026-05-02T16:21:02Z</time></trkpt><trkpt lat="41.00252371899995" lon="8.90212854630539"><ele>174.0</ele><time>2026-05-02T16:21:03Z</time></trkpt><trkpt lat="41.00262248234028" lon="8.902286845559674"><ele>174.0</ele><time>2026-05-02T16:21:04Z</time></trkpt><trkpt lat="41.002699125474024" lon="8.902458492383504"><ele>174.0</ele><time>2026-05-02T16:21:05Z</time></trkpt><trkpt lat="41.00274253361578" lon="8.902658174217924"><ele>174.0</ele><time>2026-05-02T16:21:06Z</time></trkpt><trkpt lat="41.00276129760275" lon="8.902878632950983"><ele>173.25</ele><time>2026-05-02T16:21:07Z</time></trkpt><trkpt lat="41.00275368211778" lon="8.903076524156587"><ele>172.5</ele><time>2026-05-02T16:21:08Z</time></trkpt><trkpt lat="41.00271434204556" lon="8.903242959907704"><ele>171.75</ele><time>2026-05-02T16:21:09Z</time></trkpt><trkpt lat="41.002642890486904" lon="8.903380418018108"><ele>171.0</ele><time>2026-05-02T16:21:10Z</time></trkpt><trkpt lat="41.002541260862564" lon="8.903489650446357"><ele>172.5</ele><time>2026-05-02T16:21:11Z</time></trkpt><trkpt lat="41.00245118705434" lon="8.903640359415212"><ele>174.0</ele><time>2026-05-02T16:21:12Z</time></trkpt><trkpt lat="41.00238106415323" lon="8.903772683371647"><ele>175.5</ele><time>2026-05-02T16:21:13Z</time></trkpt><trkpt lat="41.00235907141112" lon="8.903959493293296"><ele>177.0</ele><time>2026-05-02T16:21:14Z</time></trkpt><trkpt lat="41.00239157287193" lon="8.904173092151447"><ele>177.66666666666666</ele><time>2026-05-02T16:21:15Z</time></trkpt><trkpt lat="41.002468171503295" lon="8.904381295576918"><ele>178.33333333333331</ele><time>2026-05-02T16:21:16Z</time></trkpt><trkpt lat="41.00258270937385" lon="8.904549699778974"><ele>179.0</ele><time>2026-05-02T16:21:17Z</time></trkpt><trkpt lat="41.00268713373665" lon="8.904699119195659"><ele>175.75</ele><time>2026-05-02T16:21:18Z</time></trkpt><trkpt lat="41.002740866040206" lon="8.904861978754"><ele>172.5</ele><time>2026-05-02T16:21:19Z</time></trkpt><trkpt lat="41.002728241852694" lon="8.905022149524179"><ele>169.25</ele><time>2026-05-02T16:21:20Z</time></trkpt><trkpt lat="41.00269485065325" lon="8.905170961919499"><ele>166.0</ele><time>2026-05-02T16:21:21Z</time></trkpt><trkpt lat="41.002626153842144" lon="8.90529372769869"><ele>167.5</ele><time>2026-05-02T16:21:22Z</time></trkpt><trkpt lat="41.00251811332194" lon="8.905380909257126"><ele>169.0</ele><time>2026-05-02T16:21:23Z</time></trkpt><trkpt lat="41.00240039808132" lon="8.905514500985227"><ele>170.5</ele><time>2026-05-02T16:21:24Z</time></trkpt><trkpt lat="41.00230009754442" lon="8.905634151410515"><ele>172.0</ele><time>2026-05-02T16:21:25Z</time></trkpt><trkpt lat="41.00224701360105" lon="8.905800509628882"><ele>170.33333333333334</ele><time>2026-05-02T16:21:26Z</time></trkpt><trkpt lat="41.00224375523577" lon="8.905997813074904"><ele>168.66666666666666</ele><time>2026-05-02T16:21:27Z</time></trkpt><trkpt lat="41.00227048607448" lon="8.906206162016634"><ele>167.0</ele><time>2026-05-02T16:21:28Z</time></trkpt><trkpt lat="41.0022937132465" lon="8.906427456719197"><ele>167.0</ele><time>2026-05-02T16:21:29Z</time></trkpt><trkpt lat="41.00235045604869" lon="8.906638635473898"><ele>167.0</ele><time>2026-05-02T16:21:30Z</time></trkpt><trkpt lat="41.00238285589735" lon="8.906841015130572"><ele>167.0</ele><time>2026-05-02T16:21:31Z</time></trkpt><trkpt lat="41.00239525398782" lon="8.90702979271712"><ele>165.75</ele><time>2026-05-02T16:21:32Z</time></trkpt><trkpt lat="41.00237046468361" lon="8.907220152599107"><ele>164.5</ele><time>2026-05-02T16:21:33Z</time></trkpt><trkpt lat="41.00227536157614" lon="8.907387066812058"><ele>163.25</ele><time>2026-05-02T16:21:34Z</time></trkpt><trkpt lat="41.00219869663171" lon="8.90754232290569"><ele>162.0</ele><time>2026-05-02T16:21:35Z</time></trkpt><trkpt lat="41.00209454996466" lon="8.907665091979682"><ele>156.66666666666666</ele><time>2026-05-02T16:21:36Z</time></trkpt><trkpt lat="41.001964279203406" lon="8.907776830034456"><ele>151.33333333333331</ele><time>2026-05-02T16:21:37Z</time></trkpt><trkpt lat="41.00183230032614" lon="8.907914999090346"><ele>146.0</ele><time>2026-05-02T16:21:38Z</time></trkpt><trkpt lat="41.00170047871767" lon="8.908025681931655"><ele>147.75</ele><time>2026-05-02T16:21:39Z</time></trkpt><trkpt lat="41.0016067841152" lon="8.908133934770804"><ele>149.5</ele><time>2026-05-02T16:21:40Z</time></trkpt><trkpt lat="41.001528980948684" lon="8.908267923894556"><ele>151.25</ele><time>2026-05-02T16:21:41Z</time></trkpt><trkpt lat="41.00152955471904" lon="8.908453559423064"><ele>153.0</ele><time>2026-05-02T16:21:42Z</time></trkpt><trkpt lat="41.001559760045645" lon="8.90862636388585"><ele>153.0</ele><time>2026-05-02T16:21:43Z</time></trkpt><trkpt lat="41.00163231326674" lon="8.908776996672605"><ele>153.0</ele><time>2026-05-02T16:21:44Z</time></trkpt><trkpt lat="41.00174441512463" lon="8.90888032255562"><ele>153.0</ele><time>2026-05-02T16:21:45Z</time></trkpt><trkpt lat="41.001886373912754" lon="8.908927197838583"><ele>153.0</ele><time>2026-05-02T16:21:46Z</time></trkpt><trkpt lat="41.002043521341115" lon="8.908913144725469"><ele>153.0</ele><time>2026-05-02T16:21:47Z</time></trkpt><trkpt lat="41.00221559281299" lon="8.908868518655586"><ele>153.0</ele><time>2026-05-02T16:21:48Z</time></trkpt><trkpt lat="41.002408681955" lon="8.908806532290328"><ele>153.0</ele><time>2026-05-02T16:21:49Z</time></trkpt><trkpt lat="41.00261058359332" lon="8.908743347279936"><ele>152.33333333333334</ele><time>2026-05-02T16:21:50Z</time></trkpt><trkpt lat="41.00280008605268" lon="8.90868691488803"><ele>151.66666666666669</ele><time>2026-05-02T16:21:51Z</time></trkpt><trkpt lat="41.00296793355833" lon="8.908684637212232"><ele>151.0</ele><time>2026-05-02T16:21:52Z</time></trkpt><trkpt lat="41.003123158026696" lon="8.908718340511713"><ele>151.0</ele><time>2026-05-02T16:21:53Z</time></trkpt><trkpt lat="41.003294380154784" lon="8.908796828527542"><ele>151.0</ele><time>2026-05-02T16:21:54Z</time></trkpt><trkpt lat="41.00349151502776" lon="8.908886513926383"><ele>151.0</ele><time>2026-05-02T16:21:55Z</time></trkpt><trkpt lat="41.00370849772213" lon="8.908964650504704"><ele>148.66666666666669</ele><time>2026-05-02T16:21:56Z</time></trkpt><trkpt lat="41.00391619323971" lon="8.909065763625053"><ele>146.33333333333334</ele><time>2026-05-02T16:21:57Z</time></trkpt><trkpt lat="41.00412248434744" lon="8.909156754122801"><ele>144.0</ele><time>2026-05-02T16:21:58Z</time></trkpt><trkpt lat="41.00429395664919" lon="8.909232412683465"><ele>142.33333333333334</ele><time>2026-05-02T16:21:59Z</time></trkpt><trkpt lat="41.00444066502637" lon="8.909329231723632"><ele>140.66666666666669</ele><time>2026-05-02T16:22:00Z</time></trkpt><trkpt lat="41.0045778850668" lon="8.909432847233035"><ele>139.0</ele><time>2026-05-02T16:22:01Z</time></trkpt><trkpt lat="41.0046695328625" lon="8.909579374534662"><ele>139.0</ele><time>2026-05-02T16:22:02Z</time></trkpt><trkpt lat="41.004742484956644" lon="8.909756721712395"><ele>139.0</ele><time>2026-05-02T16:22:03Z</time></trkpt><trkpt lat="41.00483028737426" lon="8.909966584488524"><ele>139.0</ele><time>2026-05-02T16:22:04Z</time></trkpt><trkpt lat="41.004922751800606" lon="8.91019349057971"><ele>135.33333333333334</ele><time>2026-05-02T16:22:05Z</time></trkpt><trkpt lat="41.005022287536235" lon="8.910435633176762"><ele>131.66666666666666</ele><time>2026-05-02T16:22:06Z</time></trkpt><trkpt lat="41.00512854207624" lon="8.910689287623718"><ele>128.0</ele><time>2026-05-02T16:22:07Z</time></trkpt><trkpt lat="41.005239264839" lon="8.910954777047941"><ele>127.5</ele><time>2026-05-02T16:22:08Z</time></trkpt><trkpt lat="41.0053571968025" lon="8.911240352789001"><ele>127.0</ele><time>2026-05-02T16:22:09Z</time></trkpt><trkpt lat="41.005468232050326" lon="8.91150922787197"><ele>127.0</ele><time>2026-05-02T16:22:10Z</time></trkpt><trkpt lat="41.005572317001494" lon="8.911761272653779"><ele>127.0</ele><time>2026-05-02T16:22:11Z</time></trkpt><trkpt lat="41.00566394085082" lon="8.911983142514012"><ele>127.0</ele><time>2026-05-02T16:22:12Z</time></trkpt><trkpt lat="41.00575333087677" lon="8.912173695163974"><ele>127.0</ele><time>2026-05-02T16:22:13Z</time></trkpt><trkpt lat="41.005793889713345" lon="8.912378751790081"><ele>127.0</ele><time>2026-05-02T16:22:14Z</time></trkpt><trkpt lat="41.00592112280766" lon="8.912536351340739"><ele>127.0</ele><time>2026-05-02T16:22:15Z</time></trkpt><trkpt lat="41.00613522396126" lon="8.912433169263982"><ele>124.66666666666667</ele><time>2026-05-02T16:22:16Z</time></trkpt><trkpt lat="41.006303556895524" lon="8.91241117520886"><ele>122.33333333333334</ele><time>2026-05-02T16:22:17Z</time></trkpt><trkpt lat="41.00647583375534" lon="8.912341816728361"><ele>120.0</ele><time>2026-05-02T16:22:18Z</time></trkpt><trkpt lat="41.00665320638206" lon="8.91224091555652"><ele>119.0</ele><time>2026-05-02T16:22:19Z</time></trkpt><trkpt lat="41.00684888425407" lon="8.912127530390016"><ele>118.0</ele><time>2026-05-02T16:22:20Z</time></trkpt><trkpt lat="41.00706668428234" lon="8.91202665927194"><ele>117.0</ele><time>2026-05-02T16:22:21Z</time></trkpt><trkpt lat="41.007289319739634" lon="8.911919917864424"><ele>117.33333333333334</ele><time>2026-05-02T16:22:22Z</time></trkpt><trkpt lat="41.00750636167778" lon="8.911810537126463"><ele>117.66666666666667</ele><time>2026-05-02T16:22:23Z</time></trkpt><trkpt lat="41.00770107562143" lon="8.91171793494693"><ele>118.0</ele><time>2026-05-02T16:22:24Z</time></trkpt><trkpt lat="41.007881059665365" lon="8.911633498521145"><ele>116.33333333333334</ele><time>2026-05-02T16:22:25Z</time></trkpt><trkpt lat="41.008062147448555" lon="8.911587447201011"><ele>114.66666666666666</ele><time>2026-05-02T16:22:26Z</time></trkpt><trkpt lat="41.00824339969825" lon="8.911578085971284"><ele>113.0</ele><time>2026-05-02T16:22:27Z</time></trkpt><trkpt lat="41.00841603826841" lon="8.911575828092793"><ele>112.33333333333333</ele><time>2026-05-02T16:22:28Z</time></trkpt><trkpt lat="41.00857720633487" lon="8.911578632405957"><ele>111.66666666666666</ele><time>2026-05-02T16:22:29Z</time></trkpt><trkpt lat="41.00872532651863" lon="8.911616858880913"><ele>111.0</ele><time>2026-05-02T16:22:30Z</time></trkpt><trkpt lat="41.00882638730795" lon="8.91175010990729"><ele>111.0</ele><time>2026-05-02T16:22:31Z</time></trkpt><trkpt lat="41.00891333247543" lon="8.91190328372857"><ele>111.0</ele><time>2026-05-02T16:22:32Z</time></trkpt><trkpt lat="41.00898060268463" lon="8.912109237364769"><ele>111.0</ele><time>2026-05-02T16:22:33Z</time></trkpt><trkpt lat="41.00902810660177" lon="8.91232898914166"><ele>111.0</ele><time>2026-05-02T16:22:34Z</time></trkpt><trkpt lat="41.00907066271221" lon="8.912562981219283"><ele>111.0</ele><time>2026-05-02T16:22:35Z</time></trkpt><trkpt lat="41.0091177233815" lon="8.912819840033974"><ele>111.0</ele><time>2026-05-02T16:22:36Z</time></trkpt><trkpt lat="41.00916751116064" lon="8.913080552718741"><ele>110.0</ele><time>2026-05-02T16:22:37Z</time></trkpt><trkpt lat="41.009214772079524" lon="8.913342466058445"><ele>109.0</ele><time>2026-05-02T16:22:38Z</time></trkpt><trkpt lat="41.00924599984688" lon="8.913598813862185"><ele>108.0</ele><time>2026-05-02T16:22:39Z</time></trkpt><trkpt lat="41.009270458709416" lon="8.913850278873685"><ele>107.66666666666666</ele><time>2026-05-02T16:22:40Z</time></trkpt><trkpt lat="41.00924227035147" lon="8.914121650656485"><ele>107.33333333333333</ele><time>2026-05-02T16:22:41Z</time></trkpt><trkpt lat="41.00920176338986" lon="8.914401601491075"><ele>107.0</ele><time>2026-05-02T16:22:42Z</time></trkpt><trkpt lat="41.00916598834177" lon="8.914698237044941"><ele>107.66666666666666</ele><time>2026-05-02T16:22:43Z</time></trkpt><trkpt lat="41.00910203592965" lon="8.91499241345982"><ele>108.33333333333334</ele><time>2026-05-02T16:22:44Z</time></trkpt><trkpt lat="41.00906866474995" lon="8.915260719598525"><ele>109.0</ele><time>2026-05-02T16:22:45Z</time></trkpt><trkpt lat="41.00903635049464" lon="8.915520527742533"><ele>109.0</ele><time>2026-05-02T16:22:46Z</time></trkpt><trkpt lat="41.00901144106151" lon="8.9157831710901"><ele>109.0</ele><time>2026-05-02T16:22:47Z</time></trkpt><trkpt lat="41.00902543563059" lon="8.916067404598245"><ele>109.0</ele><time>2026-05-02T16:22:48Z</time></trkpt><trkpt lat="41.009066544841865" lon="8.916362969737877"><ele>107.0</ele><time>2026-05-02T16:22:49Z</time></trkpt><trkpt lat="41.009104404160055" lon="8.916670306882962"><ele>105.0</ele><time>2026-05-02T16:22:50Z</time></trkpt><trkpt lat="41.00913974350639" lon="8.916969307906509"><ele>101.0</ele><time>2026-05-02T16:22:51Z</time></trkpt><trkpt lat="41.00916992234341" lon="8.917254536408592"><ele>97.0</ele><time>2026-05-02T16:22:52Z</time></trkpt><trkpt lat="41.00919656785242" lon="8.917522790841241"><ele>93.0</ele><time>2026-05-02T16:22:53Z</time></trkpt><trkpt lat="41.00921793512282" lon="8.917777704537858"><ele>91.33333333333333</ele><time>2026-05-02T16:22:54Z</time></trkpt><trkpt lat="41.00922684196765" lon="8.918021012805385"><ele>89.66666666666666</ele><time>2026-05-02T16:22:55Z</time></trkpt><trkpt lat="41.0091912618234" lon="8.918256314919287"><ele>88.0</ele><time>2026-05-02T16:22:56Z</time></trkpt><trkpt lat="41.009126325549495" lon="8.918490642873396"><ele>87.0</ele><time>2026-05-02T16:22:57Z</time></trkpt><trkpt lat="41.00905508417726" lon="8.918717450356128"><ele>86.0</ele><time>2026-05-02T16:22:58Z</time></trkpt><trkpt lat="41.00898348429191" lon="8.918927954849599"><ele>85.0</ele><time>2026-05-02T16:22:59Z</time></trkpt><trkpt lat="41.00889978064416" lon="8.91911679038891"><ele>81.66666666666666</ele><time>2026-05-02T16:23:00Z</time></trkpt><trkpt lat="41.00878380929541" lon="8.919265797532315"><ele>78.33333333333333</ele><time>2026-05-02T16:23:01Z</time></trkpt><trkpt lat="41.00863381663171" lon="8.919358310090319"><ele>75.0</ele><time>2026-05-02T16:23:02Z</time></trkpt><trkpt lat="41.008452560309536" lon="8.919449162561538"><ele>75.33333333333333</ele><time>2026-05-02T16:23:03Z</time></trkpt><trkpt lat="41.00827010921593" lon="8.91952881944767"><ele>75.66666666666666</ele><time>2026-05-02T16:23:04Z</time></trkpt><trkpt lat="41.008104795070885" lon="8.919579257792343"><ele>76.0</ele><time>2026-05-02T16:23:05Z</time></trkpt><trkpt lat="41.007943765376815" lon="8.919624273192683"><ele>76.0</ele><time>2026-05-02T16:23:06Z</time></trkpt><trkpt lat="41.00778044453254" lon="8.919651872599465"><ele>76.0</ele><time>2026-05-02T16:23:07Z</time></trkpt><trkpt lat="41.00763115493511" lon="8.919677080433559"><ele>76.0</ele><time>2026-05-02T16:23:08Z</time></trkpt><trkpt lat="41.00749406898805" lon="8.919707346002186"><ele>77.25</ele><time>2026-05-02T16:23:09Z</time></trkpt><trkpt lat="41.00736751675097" lon="8.919761293666639"><ele>78.5</ele><time>2026-05-02T16:23:10Z</time></trkpt><trkpt lat="41.00724236141721" lon="8.919834981066936"><ele>79.75</ele><time>2026-05-02T16:23:11Z</time></trkpt><trkpt lat="41.00714952354265" lon="8.919962407544762"><ele>81.0</ele><time>2026-05-02T16:23:12Z</time></trkpt><trkpt lat="41.0070943221212" lon="8.920111674660678"><ele>81.0</ele><time>2026-05-02T16:23:13Z</time></trkpt><trkpt lat="41.00703463296626" lon="8.920258543777631"><ele>81.0</ele><time>2026-05-02T16:23:14Z</time></trkpt><trkpt lat="41.00698938039714" lon="8.920422409698615"><ele>81.0</ele><time>2026-05-02T16:23:15Z</time></trkpt><trkpt lat="41.006976203291806" lon="8.920609477294233"><ele>81.0</ele><time>2026-05-02T16:23:16Z</time></trkpt><trkpt lat="41.006976822603974" lon="8.920798493753928"><ele>84.0</ele><time>2026-05-02T16:23:17Z</time></trkpt><trkpt lat="41.007086551430476" lon="8.92091221001818"><ele>87.0</ele><time>2026-05-02T16:23:18Z</time></trkpt><trkpt lat="41.00717152082731" lon="8.921084572196055"><ele>90.0</ele><time>2026-05-02T16:23:19Z</time></trkpt><trkpt lat="41.00725639984712" lon="8.921254579424904"><ele>93.0</ele><time>2026-05-02T16:23:20Z</time></trkpt><trkpt lat="41.00732271864008" lon="8.921399409063115"><ele>93.0</ele><time>2026-05-02T16:23:21Z</time></trkpt><trkpt lat="41.00738334069368" lon="8.921531072958375"><ele>93.0</ele><time>2026-05-02T16:23:22Z</time></trkpt><trkpt lat="41.007444325767885" lon="8.921667335604777"><ele>93.0</ele><time>2026-05-02T16:23:23Z</time></trkpt><trkpt lat="41.007495096698314" lon="8.921806362506528"><ele>93.0</ele><time>2026-05-02T16:23:24Z</time></trkpt><trkpt lat="41.007557540542315" lon="8.9219470065042"><ele>90.75</ele><time>2026-05-02T16:23:25Z</time></trkpt><trkpt lat="41.0075994202574" lon="8.922119860815625"><ele>88.5</ele><time>2026-05-02T16:23:26Z</time></trkpt><trkpt lat="41.007656117391925" lon="8.922307094753275"><ele>86.25</ele><time>2026-05-02T16:23:27Z</time></trkpt><trkpt lat="41.00770126206993" lon="8.922491535703118"><ele>84.0</ele><time>2026-05-02T16:23:28Z</time></trkpt><trkpt lat="41.00773411911807" lon="8.922687738035911"><ele>84.0</ele><time>2026-05-02T16:23:29Z</time></trkpt><trkpt lat="41.00773554164897" lon="8.92286872897527"><ele>84.0</ele><time>2026-05-02T16:23:30Z</time></trkpt><trkpt lat="41.00769072764212" lon="8.923025909124775"><ele>84.0</ele><time>2026-05-02T16:23:31Z</time></trkpt><trkpt lat="41.00763121220421" lon="8.923183068131364"><ele>84.0</ele><time>2026-05-02T16:23:32Z</time></trkpt><trkpt lat="41.00756975961542" lon="8.923361585247294"><ele>82.0</ele><time>2026-05-02T16:23:33Z</time></trkpt><trkpt lat="41.00753430628171" lon="8.923516810113929"><ele>80.0</ele><time>2026-05-02T16:23:34Z</time></trkpt><trkpt lat="41.00751741638197" lon="8.923662523349442"><ele>78.0</ele><time>2026-05-02T16:23:35Z</time></trkpt><trkpt lat="41.00755611897289" lon="8.923816174938198"><ele>76.0</ele><time>2026-05-02T16:23:36Z</time></trkpt><trkpt lat="41.007601288713694" lon="8.923972356589648"><ele>76.0</ele><time>2026-05-02T16:23:37Z</time></trkpt><trkpt lat="41.00766880866016" lon="8.924140132908935"><ele>76.0</ele><time>2026-05-02T16:23:38Z</time></trkpt><trkpt lat="41.00772959406164" lon="8.924316228207465"><ele>76.0</ele><time>2026-05-02T16:23:39Z</time></trkpt><trkpt lat="41.00779906981059" lon="8.924488106263935"><ele>76.0</ele><time>2026-05-02T16:23:40Z</time></trkpt><trkpt lat="41.007883645143636" lon="8.924641796950066"><ele>75.75</ele><time>2026-05-02T16:23:41Z</time></trkpt><trkpt lat="41.007993342695016" lon="8.92475469511073"><ele>75.5</ele><time>2026-05-02T16:23:42Z</time></trkpt><trkpt lat="41.00812498795083" lon="8.924821681614882"><ele>75.25</ele><time>2026-05-02T16:23:43Z</time></trkpt><trkpt lat="41.00824644295302" lon="8.924856406077316"><ele>75.0</ele><time>2026-05-02T16:23:44Z</time></trkpt><trkpt lat="41.00837122927631" lon="8.92491234126193"><ele>76.5</ele><time>2026-05-02T16:23:45Z</time></trkpt><trkpt lat="41.00846358018122" lon="8.925038350823312"><ele>78.0</ele><time>2026-05-02T16:23:46Z</time></trkpt><trkpt lat="41.00852830717798" lon="8.925195406418496"><ele>79.5</ele><time>2026-05-02T16:23:47Z</time></trkpt><trkpt lat="41.00859865690303" lon="8.92536336042442"><ele>81.0</ele><time>2026-05-02T16:23:48Z</time></trkpt><trkpt lat="41.008675548335624" lon="8.925549016511589"><ele>82.0</ele><time>2026-05-02T16:23:49Z</time></trkpt><trkpt lat="41.00874676188268" lon="8.925721297455176"><ele>83.0</ele><time>2026-05-02T16:23:50Z</time></trkpt><trkpt lat="41.00881772349295" lon="8.925892969293248"><ele>84.0</ele><time>2026-05-02T16:23:51Z</time></trkpt><trkpt lat="41.00889340996353" lon="8.926076071314673"><ele>84.66666666666667</ele><time>2026-05-02T16:23:52Z</time></trkpt><trkpt lat="41.008977026973234" lon="8.926276926587256"><ele>85.33333333333334</ele><time>2026-05-02T16:23:53Z</time></trkpt><trkpt lat="41.009073038992845" lon="8.926493473536091"><ele>86.0</ele><time>2026-05-02T16:23:54Z</time></trkpt><trkpt lat="41.009186515703774" lon="8.926694843348342"><ele>92.66666666666667</ele><time>2026-05-02T16:23:55Z</time></trkpt><trkpt lat="41.00931136033874" lon="8.926891894581415"><ele>99.33333333333334</ele><time>2026-05-02T16:23:56Z</time></trkpt><trkpt lat="41.009446461330974" lon="8.927039910387775"><ele>106.0</ele><time>2026-05-02T16:23:57Z</time></trkpt><trkpt lat="41.009595818823875" lon="8.927180056359175"><ele>106.0</ele><time>2026-05-02T16:23:58Z</time></trkpt><trkpt lat="41.00976161428616" lon="8.927278641713897"><ele>106.0</ele><time>2026-05-02T16:23:59Z</time></trkpt><trkpt lat="41.00990099026555" lon="8.927399863601597"><ele>106.0</ele><time>2026-05-02T16:24:00Z</time></trkpt><trkpt lat="41.01004268257506" lon="8.927525709291707"><ele>108.33333333333334</ele><time>2026-05-02T16:24:01Z</time></trkpt><trkpt lat="41.01017963843669" lon="8.927663366355805"><ele>110.66666666666666</ele><time>2026-05-02T16:24:02Z</time></trkpt><trkpt lat="41.010313072929094" lon="8.927814635521152"><ele>113.0</ele><time>2026-05-02T16:24:03Z</time></trkpt><trkpt lat="41.010454783610776" lon="8.927979790932966"><ele>113.0</ele><time>2026-05-02T16:24:04Z</time></trkpt><trkpt lat="41.01060141049662" lon="8.928154193016608"><ele>113.0</ele><time>2026-05-02T16:24:05Z</time></trkpt><trkpt lat="41.010738738502326" lon="8.9283346005712"><ele>113.0</ele><time>2026-05-02T16:24:06Z</time></trkpt><trkpt lat="41.010867666968224" lon="8.928542689984539"><ele>109.0</ele><time>2026-05-02T16:24:07Z</time></trkpt><trkpt lat="41.011004639057504" lon="8.928789906250545"><ele>105.0</ele><time>2026-05-02T16:24:08Z</time></trkpt><trkpt lat="41.011151894804144" lon="8.92905259506457"><ele>110.0</ele><time>2026-05-02T16:24:09Z</time></trkpt><trkpt lat="41.011316683822784" lon="8.929346421466292"><ele>115.0</ele><time>2026-05-02T16:24:10Z</time></trkpt><trkpt lat="41.011489721870696" lon="8.929658726730592"><ele>110.0</ele><time>2026-05-02T16:24:11Z</time></trkpt><trkpt lat="41.01167035003162" lon="8.929981715282576"><ele>105.0</ele><time>2026-05-02T16:24:12Z</time></trkpt><trkpt lat="41.01185164227424" lon="8.930303797065555"><ele>105.0</ele><time>2026-05-02T16:24:13Z</time></trkpt><trkpt lat="41.01203598650191" lon="8.930630610483181"><ele>105.0</ele><time>2026-05-02T16:24:14Z</time></trkpt><trkpt lat="41.012202482099944" lon="8.930929971898987"><ele>108.5</ele><time>2026-05-02T16:24:15Z</time></trkpt><trkpt lat="41.01234946163649" lon="8.931194498701927"><ele>112.0</ele><time>2026-05-02T16:24:16Z</time></trkpt><trkpt lat="41.012491052516005" lon="8.931447776132137"><ele>112.0</ele><time>2026-05-02T16:24:17Z</time></trkpt><trkpt lat="41.012639047012975" lon="8.931709356319573"><ele>112.0</ele><time>2026-05-02T16:24:18Z</time></trkpt><trkpt lat="41.01279183186926" lon="8.93197935991686"><ele>117.0</ele><time>2026-05-02T16:24:19Z</time></trkpt><trkpt lat="41.012948100487264" lon="8.932255415716378"><ele>122.0</ele><time>2026-05-02T16:24:20Z</time></trkpt><trkpt lat="41.01310791186529" lon="8.932542217133824"><ele>119.0</ele><time>2026-05-02T16:24:21Z</time></trkpt><trkpt lat="41.013265803111885" lon="8.932840145282086"><ele>116.0</ele><time>2026-05-02T16:24:22Z</time></trkpt><trkpt lat="41.013421330957534" lon="8.93314767337118"><ele>120.5</ele><time>2026-05-02T16:24:23Z</time></trkpt><trkpt lat="41.013578189384035" lon="8.93346271981869"><ele>125.0</ele><time>2026-05-02T16:24:24Z</time></trkpt><trkpt lat="41.01372785087812" lon="8.93377184165787"><ele>125.0</ele><time>2026-05-02T16:24:25Z</time></trkpt><trkpt lat="41.013877557060454" lon="8.934077579400173"><ele>125.0</ele><time>2026-05-02T16:24:26Z</time></trkpt><trkpt lat="41.014031057588305" lon="8.934386243301237"><ele>123.5</ele><time>2026-05-02T16:24:27Z</time></trkpt><trkpt lat="41.01418264555258" lon="8.934690263661087"><ele>122.0</ele><time>2026-05-02T16:24:28Z</time></trkpt><trkpt lat="41.01432662709727" lon="8.934982640251041"><ele>125.5</ele><time>2026-05-02T16:24:29Z</time></trkpt><trkpt lat="41.01445998170931" lon="8.93527945314001"><ele>129.0</ele><time>2026-05-02T16:24:30Z</time></trkpt><trkpt lat="41.01455627482595" lon="8.935587076582994"><ele>131.5</ele><time>2026-05-02T16:24:31Z</time></trkpt><trkpt lat="41.01464438399102" lon="8.93590513957775"><ele>134.0</ele><time>2026-05-02T16:24:32Z</time></trkpt><trkpt lat="41.014725409494346" lon="8.936191171118686"><ele>134.0</ele><time>2026-05-02T16:24:33Z</time></trkpt><trkpt lat="41.01479951084115" lon="8.936443983442985"><ele>134.0</ele><time>2026-05-02T16:24:34Z</time></trkpt><trkpt lat="41.014863705323144" lon="8.936689953857428"><ele>134.0</ele><time>2026-05-02T16:24:35Z</time></trkpt><trkpt lat="41.014916729567794" lon="8.936948165370794"><ele>133.66666666666666</ele><time>2026-05-02T16:24:36Z</time></trkpt><trkpt lat="41.01496179744244" lon="8.937220053427298"><ele>133.33333333333334</ele><time>2026-05-02T16:24:37Z</time></trkpt><trkpt lat="41.01500742321" lon="8.937504632115632"><ele>133.0</ele><time>2026-05-02T16:24:38Z</time></trkpt><trkpt lat="41.015062615686766" lon="8.937797834632924"><ele>133.0</ele><time>2026-05-02T16:24:39Z</time></trkpt><trkpt lat="41.01514149179365" lon="8.938080215075829"><ele>133.0</ele><time>2026-05-02T16:24:40Z</time></trkpt><trkpt lat="41.015242703424285" lon="8.938379427081891"><ele>133.0</ele><time>2026-05-02T16:24:41Z</time></trkpt><trkpt lat="41.01534881547126" lon="8.938689017701023"><ele>133.0</ele><time>2026-05-02T16:24:42Z</time></trkpt><trkpt lat="41.01546165533909" lon="8.939015615086724"><ele>133.5</ele><time>2026-05-02T16:24:43Z</time></trkpt><trkpt lat="41.015576088065025" lon="8.939352893513849"><ele>134.0</ele><time>2026-05-02T16:24:44Z</time></trkpt><trkpt lat="41.015691142339634" lon="8.939690401292111"><ele>134.0</ele><time>2026-05-02T16:24:45Z</time></trkpt><trkpt lat="41.01579324885065" lon="8.939988904971033"><ele>134.0</ele><time>2026-05-02T16:24:46Z</time></trkpt><trkpt lat="41.01589346186841" lon="8.940281955302876"><ele>131.0</ele><time>2026-05-02T16:24:47Z</time></trkpt><trkpt lat="41.01599913171399" lon="8.940593019918873"><ele>128.0</ele><time>2026-05-02T16:24:48Z</time></trkpt><trkpt lat="41.01609594668859" lon="8.94087738241909"><ele>127.66666666666666</ele><time>2026-05-02T16:24:49Z</time></trkpt><trkpt lat="41.01618909044482" lon="8.941145146809054"><ele>127.33333333333334</ele><time>2026-05-02T16:24:50Z</time></trkpt><trkpt lat="41.01627783174357" lon="8.941400255451635"><ele>127.0</ele><time>2026-05-02T16:24:51Z</time></trkpt><trkpt lat="41.01635641642115" lon="8.941636682936316"><ele>128.33333333333334</ele><time>2026-05-02T16:24:52Z</time></trkpt><trkpt lat="41.01644007918409" lon="8.941860074908295"><ele>129.66666666666666</ele><time>2026-05-02T16:24:53Z</time></trkpt><trkpt lat="41.01657054164828" lon="8.94205872433593"><ele>131.0</ele><time>2026-05-02T16:24:54Z</time></trkpt><trkpt lat="41.01671701199743" lon="8.942263631201671"><ele>131.0</ele><time>2026-05-02T16:24:55Z</time></trkpt><trkpt lat="41.01687471444631" lon="8.94244859288006"><ele>131.0</ele><time>2026-05-02T16:24:56Z</time></trkpt><trkpt lat="41.01701284970774" lon="8.942597911613495"><ele>131.0</ele><time>2026-05-02T16:24:57Z</time></trkpt><trkpt lat="41.01714780955722" lon="8.94271898856568"><ele>131.0</ele><time>2026-05-02T16:24:58Z</time></trkpt><trkpt lat="41.017311638738015" lon="8.94278773694336"><ele>131.0</ele><time>2026-05-02T16:24:59Z</time></trkpt><trkpt lat="41.01750772780743" lon="8.942821636264116"><ele>131.0</ele><time>2026-05-02T16:25:00Z</time></trkpt><trkpt lat="41.01772823740655" lon="8.942821345076986"><ele>128.0</ele><time>2026-05-02T16:25:01Z</time></trkpt><trkpt lat="41.017962714512294" lon="8.942827192143163"><ele>125.0</ele><time>2026-05-02T16:25:02Z</time></trkpt><trkpt lat="41.01820453916114" lon="8.942831458620033"><ele>124.5</ele><time>2026-05-02T16:25:03Z</time></trkpt><trkpt lat="41.018451583423975" lon="8.942845306267607"><ele>124.0</ele><time>2026-05-02T16:25:04Z</time></trkpt><trkpt lat="41.01869390126731" lon="8.942861424588456"><ele>124.0</ele><time>2026-05-02T16:25:05Z</time></trkpt><trkpt lat="41.0189323230838" lon="8.942879315905115"><ele>124.0</ele><time>2026-05-02T16:25:06Z</time></trkpt><trkpt lat="41.019166234611916" lon="8.942902930202226"><ele>125.5</ele><time>2026-05-02T16:25:07Z</time></trkpt><trkpt lat="41.0194073064174" lon="8.942918886549178"><ele>127.0</ele><time>2026-05-02T16:25:08Z</time></trkpt><trkpt lat="41.01965718691265" lon="8.942931690098849"><ele>127.0</ele><time>2026-05-02T16:25:09Z</time></trkpt><trkpt lat="41.0199156479347" lon="8.942946803599435"><ele>127.0</ele><time>2026-05-02T16:25:10Z</time></trkpt><trkpt lat="41.02018469136048" lon="8.942962800822535"><ele>128.0</ele><time>2026-05-02T16:25:11Z</time></trkpt><trkpt lat="41.02046363886441" lon="8.942981267025077"><ele>129.0</ele><time>2026-05-02T16:25:12Z</time></trkpt><trkpt lat="41.02075147968843" lon="8.943002422300529"><ele>130.5</ele><time>2026-05-02T16:25:13Z</time></trkpt><trkpt lat="41.021050217387206" lon="8.94303329456668"><ele>132.0</ele><time>2026-05-02T16:25:14Z</time></trkpt><trkpt lat="41.02135329277422" lon="8.943075732005283"><ele>133.5</ele><time>2026-05-02T16:25:15Z</time></trkpt><trkpt lat="41.02166146707512" lon="8.943118248677854"><ele>135.0</ele><time>2026-05-02T16:25:16Z</time></trkpt><trkpt lat="41.02197283038619" lon="8.943160897169621"><ele>135.0</ele><time>2026-05-02T16:25:17Z</time></trkpt><trkpt lat="41.0222827799173" lon="8.94319626449479"><ele>135.0</ele><time>2026-05-02T16:25:18Z</time></trkpt><trkpt lat="41.022574035695186" lon="8.943230804912693"><ele>138.5</ele><time>2026-05-02T16:25:19Z</time></trkpt><trkpt lat="41.02285479119788" lon="8.943257571023098"><ele>142.0</ele><time>2026-05-02T16:25:20Z</time></trkpt><trkpt lat="41.02312571082543" lon="8.943279345094897"><ele>146.5</ele><time>2026-05-02T16:25:21Z</time></trkpt><trkpt lat="41.02338487153703" lon="8.943290927887244"><ele>151.0</ele><time>2026-05-02T16:25:22Z</time></trkpt><trkpt lat="41.023633322599096" lon="8.943289680930562"><ele>151.0</ele><time>2026-05-02T16:25:23Z</time></trkpt><trkpt lat="41.023859348925804" lon="8.943293804790622"><ele>151.0</ele><time>2026-05-02T16:25:24Z</time></trkpt><trkpt lat="41.024079016277646" lon="8.943354460456774"><ele>149.0</ele><time>2026-05-02T16:25:25Z</time></trkpt><trkpt lat="41.02431047545239" lon="8.94343617962812"><ele>147.0</ele><time>2026-05-02T16:25:26Z</time></trkpt><trkpt lat="41.02455777126708" lon="8.943507237666362"><ele>147.0</ele><time>2026-05-02T16:25:27Z</time></trkpt><trkpt lat="41.02481016996355" lon="8.9436043763656"><ele>147.0</ele><time>2026-05-02T16:25:28Z</time></trkpt><trkpt lat="41.0250736849748" lon="8.943697125663412"><ele>149.0</ele><time>2026-05-02T16:25:29Z</time></trkpt><trkpt lat="41.025342047294174" lon="8.943792069937945"><ele>151.0</ele><time>2026-05-02T16:25:30Z</time></trkpt><trkpt lat="41.02561337714534" lon="8.9438957984662"><ele>155.0</ele><time>2026-05-02T16:25:31Z</time></trkpt><trkpt lat="41.02586269097413" lon="8.943990893728541"><ele>159.0</ele><time>2026-05-02T16:25:32Z</time></trkpt><trkpt lat="41.026088824538114" lon="8.944073139735195"><ele>159.0</ele><time>2026-05-02T16:25:33Z</time></trkpt><trkpt lat="41.02631538211617" lon="8.944146248964884"><ele>159.0</ele><time>2026-05-02T16:25:34Z</time></trkpt><trkpt lat="41.026515483056485" lon="8.94424188951246"><ele>159.0</ele><time>2026-05-02T16:25:35Z</time></trkpt><trkpt lat="41.026692794877334" lon="8.944338728385377"><ele>159.0</ele><time>2026-05-02T16:25:36Z</time></trkpt><trkpt lat="41.02681268664251" lon="8.944499847782186"><ele>159.0</ele><time>2026-05-02T16:25:37Z</time></trkpt><trkpt lat="41.026921153371255" lon="8.944696015471504"><ele>159.0</ele><time>2026-05-02T16:25:38Z</time></trkpt><trkpt lat="41.0270444961793" lon="8.944925535548062"><ele>157.33333333333334</ele><time>2026-05-02T16:25:39Z</time></trkpt><trkpt lat="41.02718609263988" lon="8.945126235523976"><ele>155.66666666666669</ele><time>2026-05-02T16:25:40Z</time></trkpt><trkpt lat="41.027342626998205" lon="8.945288629581063"><ele>154.0</ele><time>2026-05-02T16:25:41Z</time></trkpt><trkpt lat="41.02753165565421" lon="8.945406809368434"><ele>157.66666666666669</ele><time>2026-05-02T16:25:42Z</time></trkpt><trkpt lat="41.02771425478291" lon="8.945509364899797"><ele>161.33333333333334</ele><time>2026-05-02T16:25:43Z</time></trkpt><trkpt lat="41.027875690773726" lon="8.945622161954622"><ele>165.0</ele><time>2026-05-02T16:25:44Z</time></trkpt><trkpt lat="41.02796808357364" lon="8.945793490580852"><ele>166.0</ele><time>2026-05-02T16:25:45Z</time></trkpt><trkpt lat="41.02802498767399" lon="8.945974223002954"><ele>167.0</ele><time>2026-05-02T16:25:46Z</time></trkpt><trkpt lat="41.02807101210463" lon="8.946193194245247"><ele>168.0</ele><time>2026-05-02T16:25:47Z</time></trkpt><trkpt lat="41.02811016676522" lon="8.946457400268786"><ele>169.0</ele><time>2026-05-02T16:25:48Z</time></trkpt><trkpt lat="41.02811367224804" lon="8.946734408177774"><ele>170.0</ele><time>2026-05-02T16:25:49Z</time></trkpt><trkpt lat="41.02807793135869" lon="8.94703780350289"><ele>171.0</ele><time>2026-05-02T16:25:50Z</time></trkpt><trkpt lat="41.02806272917454" lon="8.947326670769792"><ele>169.0</ele><time>2026-05-02T16:25:51Z</time></trkpt><trkpt lat="41.02809880182486" lon="8.947555543425722"><ele>167.0</ele><time>2026-05-02T16:25:52Z</time></trkpt><trkpt lat="41.028149266498026" lon="8.947810992235034"><ele>165.0</ele><time>2026-05-02T16:25:53Z</time></trkpt><trkpt lat="41.02823980086671" lon="8.94807880148972"><ele>170.0</ele><time>2026-05-02T16:25:54Z</time></trkpt><trkpt lat="41.02833817484109" lon="8.948363718718442"><ele>175.0</ele><time>2026-05-02T16:25:55Z</time></trkpt><trkpt lat="41.02842561300351" lon="8.948666966727103"><ele>175.0</ele><time>2026-05-02T16:25:56Z</time></trkpt><trkpt lat="41.02852430568873" lon="8.948969885561553"><ele>175.0</ele><time>2026-05-02T16:25:57Z</time></trkpt><trkpt lat="41.02860931127199" lon="8.949271476550452"><ele>174.5</ele><time>2026-05-02T16:25:58Z</time></trkpt><trkpt lat="41.02868691441353" lon="8.949564736593754"><ele>174.0</ele><time>2026-05-02T16:25:59Z</time></trkpt><trkpt lat="41.028742149843914" lon="8.949861153258412"><ele>174.5</ele><time>2026-05-02T16:26:00Z</time></trkpt><trkpt lat="41.0287847329444" lon="8.95017932042116"><ele>175.0</ele><time>2026-05-02T16:26:01Z</time></trkpt><trkpt lat="41.02882376661977" lon="8.950508103648234"><ele>175.0</ele><time>2026-05-02T16:26:02Z</time></trkpt><trkpt lat="41.028862089682654" lon="8.950843023376125"><ele>175.0</ele><time>2026-05-02T16:26:03Z</time></trkpt><trkpt lat="41.02889573347003" lon="8.951189186559619"><ele>174.0</ele><time>2026-05-02T16:26:04Z</time></trkpt><trkpt lat="41.02892804015344" lon="8.95154668746053"><ele>173.0</ele><time>2026-05-02T16:26:05Z</time></trkpt><trkpt lat="41.02895976792009" lon="8.951907741455726"><ele>173.0</ele><time>2026-05-02T16:26:06Z</time></trkpt><trkpt lat="41.02898694241936" lon="8.952241835275785"><ele>173.0</ele><time>2026-05-02T16:26:07Z</time></trkpt><trkpt lat="41.02900433412109" lon="8.952548054940397"><ele>175.5</ele><time>2026-05-02T16:26:08Z</time></trkpt><trkpt lat="41.02900261300919" lon="8.952854269571475"><ele>178.0</ele><time>2026-05-02T16:26:09Z</time></trkpt><trkpt lat="41.028983543960024" lon="8.953148748657089"><ele>182.0</ele><time>2026-05-02T16:26:10Z</time></trkpt><trkpt lat="41.02895796198499" lon="8.953447001155622"><ele>186.0</ele><time>2026-05-02T16:26:11Z</time></trkpt><trkpt lat="41.02891903505325" lon="8.95374133985577"><ele>186.0</ele><time>2026-05-02T16:26:12Z</time></trkpt><trkpt lat="41.02886330537477" lon="8.954028291036229"><ele>186.0</ele><time>2026-05-02T16:26:13Z</time></trkpt><trkpt lat="41.0287880072349" lon="8.954314945673692"><ele>187.66666666666666</ele><time>2026-05-02T16:26:14Z</time></trkpt><trkpt lat="41.02871403543054" lon="8.95459428303285"><ele>189.33333333333331</ele><time>2026-05-02T16:26:15Z</time></trkpt><trkpt lat="41.02864261186874" lon="8.954857166285928"><ele>191.0</ele><time>2026-05-02T16:26:16Z</time></trkpt><trkpt lat="41.02858570494974" lon="8.955128833354568"><ele>191.0</ele><time>2026-05-02T16:26:17Z</time></trkpt><trkpt lat="41.02856192310918" lon="8.955426377096414"><ele>191.0</ele><time>2026-05-02T16:26:18Z</time></trkpt><trkpt lat="41.02854729252956" lon="8.955737736622549"><ele>191.5</ele><time>2026-05-02T16:26:19Z</time></trkpt><trkpt lat="41.0285322715614" lon="8.956058009010864"><ele>192.0</ele><time>2026-05-02T16:26:20Z</time></trkpt><trkpt lat="41.02851495998927" lon="8.956390872776643"><ele>191.0</ele><time>2026-05-02T16:26:21Z</time></trkpt><trkpt lat="41.02849825910003" lon="8.956711994358635"><ele>190.0</ele><time>2026-05-02T16:26:22Z</time></trkpt><trkpt lat="41.028482744381385" lon="8.957010308292382"><ele>190.0</ele><time>2026-05-02T16:26:23Z</time></trkpt><trkpt lat="41.02846743286679" lon="8.957290419679934"><ele>190.0</ele><time>2026-05-02T16:26:24Z</time></trkpt><trkpt lat="41.02845248659233" lon="8.957554520101679"><ele>190.0</ele><time>2026-05-02T16:26:25Z</time></trkpt><trkpt lat="41.02843225302666" lon="8.95780097766477"><ele>189.0</ele><time>2026-05-02T16:26:26Z</time></trkpt><trkpt lat="41.02839883306066" lon="8.958039202517188"><ele>188.0</ele><time>2026-05-02T16:26:27Z</time></trkpt><trkpt lat="41.02835529926652" lon="8.958275844618115"><ele>187.0</ele><time>2026-05-02T16:26:28Z</time></trkpt><trkpt lat="41.02831537867939" lon="8.958494055058743"><ele>185.66666666666669</ele><time>2026-05-02T16:26:29Z</time></trkpt><trkpt lat="41.02830024197573" lon="8.958710188867459"><ele>184.33333333333334</ele><time>2026-05-02T16:26:30Z</time></trkpt><trkpt lat="41.02833313468658" lon="8.958912221588957"><ele>183.0</ele><time>2026-05-02T16:26:31Z</time></trkpt><trkpt lat="41.02842777532398" lon="8.959079951963991"><ele>183.0</ele><time>2026-05-02T16:26:32Z</time></trkpt><trkpt lat="41.02854982104105" lon="8.95924846735677"><ele>183.0</ele><time>2026-05-02T16:26:33Z</time></trkpt><trkpt lat="41.02869534872761" lon="8.959410258242906"><ele>183.0</ele><time>2026-05-02T16:26:34Z</time></trkpt><trkpt lat="41.02883521096241" lon="8.959557852569906"><ele>183.0</ele><time>2026-05-02T16:26:35Z</time></trkpt><trkpt lat="41.02896926596218" lon="8.95969310472936"><ele>183.0</ele><time>2026-05-02T16:26:36Z</time></trkpt><trkpt lat="41.029088976833386" lon="8.959794589656907"><ele>183.0</ele><time>2026-05-02T16:26:37Z</time></trkpt><trkpt lat="41.029241416595575" lon="8.95981478994496"><ele>182.0</ele><time>2026-05-02T16:26:38Z</time></trkpt><trkpt lat="41.02941336350356" lon="8.95977532727286"><ele>181.0</ele><time>2026-05-02T16:26:39Z</time></trkpt><trkpt lat="41.02960811516624" lon="8.959709182051338"><ele>180.0</ele><time>2026-05-02T16:26:40Z</time></trkpt><trkpt lat="41.02981960187408" lon="8.959639518344584"><ele>177.66666666666666</ele><time>2026-05-02T16:26:41Z</time></trkpt><trkpt lat="41.0300218576137" lon="8.959578699323751"><ele>175.33333333333331</ele><time>2026-05-02T16:26:42Z</time></trkpt><trkpt lat="41.030169689378006" lon="8.95954321770977"><ele>173.0</ele><time>2026-05-02T16:26:43Z</time></trkpt><trkpt lat="41.030264894288564" lon="8.959605284920501"><ele>173.0</ele><time>2026-05-02T16:26:44Z</time></trkpt><trkpt lat="41.030329798634966" lon="8.95970735375544"><ele>173.0</ele><time>2026-05-02T16:26:45Z</time></trkpt><trkpt lat="41.03037496476663" lon="8.959831594763463"><ele>173.0</ele><time>2026-05-02T16:26:46Z</time></trkpt><trkpt lat="41.030416767748434" lon="8.960010463581375"><ele>173.0</ele><time>2026-05-02T16:26:47Z</time></trkpt><trkpt lat="41.0304441970538" lon="8.960226839866873"><ele>172.0</ele><time>2026-05-02T16:26:48Z</time></trkpt><trkpt lat="41.03041877775626" lon="8.960425537424548"><ele>171.0</ele><time>2026-05-02T16:26:49Z</time></trkpt><trkpt lat="41.03035123273372" lon="8.960627952203994"><ele>170.0</ele><time>2026-05-02T16:26:50Z</time></trkpt><trkpt lat="41.03026209301018" lon="8.96084870640435"><ele>167.0</ele><time>2026-05-02T16:26:51Z</time></trkpt><trkpt lat="41.03015307620171" lon="8.961106936544926"><ele>164.0</ele><time>2026-05-02T16:26:52Z</time></trkpt><trkpt lat="41.03003272745447" lon="8.961393654787225"><ele>163.33333333333331</ele><time>2026-05-02T16:26:53Z</time></trkpt><trkpt lat="41.02992667502863" lon="8.96164889592211"><ele>162.66666666666666</ele><time>2026-05-02T16:26:54Z</time></trkpt><trkpt lat="41.02982403955748" lon="8.961895913208188"><ele>162.0</ele><time>2026-05-02T16:26:55Z</time></trkpt><trkpt lat="41.0297400435983" lon="8.9620933912235"><ele>162.0</ele><time>2026-05-02T16:26:56Z</time></trkpt><trkpt lat="41.029649853928504" lon="8.962282321038247"><ele>162.0</ele><time>2026-05-02T16:26:57Z</time></trkpt><trkpt lat="41.02954827532896" lon="8.962407524736587"><ele>162.0</ele><time>2026-05-02T16:26:58Z</time></trkpt><trkpt lat="41.02942454375305" lon="8.962484961684938"><ele>162.0</ele><time>2026-05-02T16:26:59Z</time></trkpt><trkpt lat="41.029285103361936" lon="8.962495045228566"><ele>164.33333333333334</ele><time>2026-05-02T16:27:00Z</time></trkpt><trkpt lat="41.02911770066608" lon="8.962476825369183"><ele>166.66666666666669</ele><time>2026-05-02T16:27:01Z</time></trkpt><trkpt lat="41.02892367099655" lon="8.962463402800658"><ele>169.0</ele><time>2026-05-02T16:27:02Z</time></trkpt><trkpt lat="41.02876068921618" lon="8.962499854084307"><ele>167.5</ele><time>2026-05-02T16:27:03Z</time></trkpt><trkpt lat="41.028620503996024" lon="8.962573924932473"><ele>166.0</ele><time>2026-05-02T16:27:04Z</time></trkpt><trkpt lat="41.02850426412298" lon="8.962704740573935"><ele>164.5</ele><time>2026-05-02T16:27:05Z</time></trkpt><trkpt lat="41.028426263131934" lon="8.962857666029944"><ele>163.0</ele><time>2026-05-02T16:27:06Z</time></trkpt><trkpt lat="41.02838002603752" lon="8.963027127705374"><ele>163.0</ele><time>2026-05-02T16:27:07Z</time></trkpt><trkpt lat="41.02838631808868" lon="8.963214164549585"><ele>163.0</ele><time>2026-05-02T16:27:08Z</time></trkpt><trkpt lat="41.02843498498495" lon="8.963438973916917"><ele>163.0</ele><time>2026-05-02T16:27:09Z</time></trkpt><trkpt lat="41.028502727097255" lon="8.963700284088093"><ele>163.5</ele><time>2026-05-02T16:27:10Z</time></trkpt><trkpt lat="41.02857137447728" lon="8.963992786219173"><ele>164.0</ele><time>2026-05-02T16:27:11Z</time></trkpt><trkpt lat="41.02864006682878" lon="8.964280770428275"><ele>164.66666666666666</ele><time>2026-05-02T16:27:12Z</time></trkpt><trkpt lat="41.02870917465277" lon="8.964537980180415"><ele>165.33333333333334</ele><time>2026-05-02T16:27:13Z</time></trkpt><trkpt lat="41.02876629769966" lon="8.964809213395302"><ele>166.0</ele><time>2026-05-02T16:27:14Z</time></trkpt><trkpt lat="41.02883855394492" lon="8.965077567221238"><ele>168.66666666666669</ele><time>2026-05-02T16:27:15Z</time></trkpt><trkpt lat="41.028903688868695" lon="8.965349284413508"><ele>171.33333333333334</ele><time>2026-05-02T16:27:16Z</time></trkpt><trkpt lat="41.0289624466966" lon="8.965649081164207"><ele>174.0</ele><time>2026-05-02T16:27:17Z</time></trkpt><trkpt lat="41.02902703103236" lon="8.96598199886796"><ele>175.0</ele><time>2026-05-02T16:27:18Z</time></trkpt><trkpt lat="41.02909499267499" lon="8.966335016256993"><ele>176.0</ele><time>2026-05-02T16:27:19Z</time></trkpt><trkpt lat="41.029158323351034" lon="8.966664103666469"><ele>166.66666666666666</ele><time>2026-05-02T16:27:20Z</time></trkpt><trkpt lat="41.02921300545573" lon="8.9669572446282"><ele>157.33333333333334</ele><time>2026-05-02T16:27:21Z</time></trkpt><trkpt lat="41.02925537166871" lon="8.967233579633001"><ele>148.0</ele><time>2026-05-02T16:27:22Z</time></trkpt><trkpt lat="41.029266019755205" lon="8.967530485100749"><ele>148.0</ele><time>2026-05-02T16:27:23Z</time></trkpt><trkpt lat="41.02926949645868" lon="8.967830541358254"><ele>148.0</ele><time>2026-05-02T16:27:24Z</time></trkpt><trkpt lat="41.02927130902771" lon="8.968092276530124"><ele>148.0</ele><time>2026-05-02T16:27:25Z</time></trkpt><trkpt lat="41.02927478044472" lon="8.968329508454856"><ele>148.66666666666669</ele><time>2026-05-02T16:27:26Z</time></trkpt><trkpt lat="41.02929787131159" lon="8.968547497140612"><ele>149.33333333333334</ele><time>2026-05-02T16:27:27Z</time></trkpt><trkpt lat="41.02933365659803" lon="8.968730518799934"><ele>150.0</ele><time>2026-05-02T16:27:28Z</time></trkpt><trkpt lat="41.02943504140362" lon="8.968905910098652"><ele>150.0</ele><time>2026-05-02T16:27:29Z</time></trkpt><trkpt lat="41.02956187529577" lon="8.969135433483329"><ele>150.0</ele><time>2026-05-02T16:27:30Z</time></trkpt><trkpt lat="41.02970045750256" lon="8.969360162630382"><ele>150.0</ele><time>2026-05-02T16:27:31Z</time></trkpt><trkpt lat="41.02985310528005" lon="8.969587662736547"><ele>146.66666666666666</ele><time>2026-05-02T16:27:32Z</time></trkpt><trkpt lat="41.02999400138196" lon="8.969815966697425"><ele>143.33333333333331</ele><time>2026-05-02T16:27:33Z</time></trkpt><trkpt lat="41.030117476513304" lon="8.970052903808295"><ele>140.0</ele><time>2026-05-02T16:27:34Z</time></trkpt><trkpt lat="41.03025717717811" lon="8.970249266668558"><ele>140.0</ele><time>2026-05-02T16:27:35Z</time></trkpt><trkpt lat="41.03037291749357" lon="8.9704439763165"><ele>140.0</ele><time>2026-05-02T16:27:36Z</time></trkpt><trkpt lat="41.03050598532937" lon="8.970622131547929"><ele>140.0</ele><time>2026-05-02T16:27:37Z</time></trkpt><trkpt lat="41.030663143587354" lon="8.9707627836028"><ele>137.0</ele><time>2026-05-02T16:27:38Z</time></trkpt><trkpt lat="41.03083541977174" lon="8.970866904831128"><ele>134.0</ele><time>2026-05-02T16:27:39Z</time></trkpt><trkpt lat="41.03103300168507" lon="8.970945867078656"><ele>131.0</ele><time>2026-05-02T16:27:40Z</time></trkpt><trkpt lat="41.031246711539275" lon="8.971042509048463"><ele>131.0</ele><time>2026-05-02T16:27:41Z</time></trkpt><trkpt lat="41.03143564467173" lon="8.971138722372077"><ele>131.0</ele><time>2026-05-02T16:27:42Z</time></trkpt><trkpt lat="41.031626426855894" lon="8.971239503456687"><ele>131.0</ele><time>2026-05-02T16:27:43Z</time></trkpt><trkpt lat="41.03176264820589" lon="8.971309562057728"><ele>132.0</ele><time>2026-05-02T16:27:44Z</time></trkpt><trkpt lat="41.03191321602083" lon="8.971383594294066"><ele>133.0</ele><time>2026-05-02T16:27:45Z</time></trkpt><trkpt lat="41.03206511850095" lon="8.971463985560247"><ele>134.0</ele><time>2026-05-02T16:27:46Z</time></trkpt><trkpt lat="41.03222547673476" lon="8.971550710883188"><ele>134.0</ele><time>2026-05-02T16:27:47Z</time></trkpt><trkpt lat="41.032382296610216" lon="8.971654081589017"><ele>134.0</ele><time>2026-05-02T16:27:48Z</time></trkpt><trkpt lat="41.032491268335214" lon="8.971828679918422"><ele>134.0</ele><time>2026-05-02T16:27:49Z</time></trkpt><trkpt lat="41.032603325404935" lon="8.972014794337484"><ele>134.33333333333331</ele><time>2026-05-02T16:27:50Z</time></trkpt><trkpt lat="41.03272453244614" lon="8.972214017159029"><ele>134.66666666666666</ele><time>2026-05-02T16:27:51Z</time></trkpt><trkpt lat="41.03284351317315" lon="8.972408921393207"><ele>135.0</ele><time>2026-05-02T16:27:52Z</time></trkpt><trkpt lat="41.03296273804656" lon="8.972579672393163"><ele>135.33333333333334</ele><time>2026-05-02T16:27:53Z</time></trkpt><trkpt lat="41.033075017686585" lon="8.972754026671359"><ele>135.66666666666669</ele><time>2026-05-02T16:27:54Z</time></trkpt><trkpt lat="41.03315747179944" lon="8.972923222550236"><ele>136.0</ele><time>2026-05-02T16:27:55Z</time></trkpt><trkpt lat="41.03325205515996" lon="8.973078806031017"><ele>135.0</ele><time>2026-05-02T16:27:56Z</time></trkpt><trkpt lat="41.033348826961095" lon="8.973214092975926"><ele>134.0</ele><time>2026-05-02T16:27:57Z</time></trkpt><trkpt lat="41.033457123102885" lon="8.973408149771563"><ele>133.0</ele><time>2026-05-02T16:27:58Z</time></trkpt><trkpt lat="41.03356890650424" lon="8.973584020118906"><ele>133.0</ele><time>2026-05-02T16:27:59Z</time></trkpt><trkpt lat="41.03368301514669" lon="8.973763475391545"><ele>133.0</ele><time>2026-05-02T16:28:00Z</time></trkpt><trkpt lat="41.033807533563674" lon="8.973946869400512"><ele>133.0</ele><time>2026-05-02T16:28:01Z</time></trkpt><trkpt lat="41.033936391972894" lon="8.974135627721513"><ele>133.66666666666669</ele><time>2026-05-02T16:28:02Z</time></trkpt><trkpt lat="41.03406806859553" lon="8.974328767765781"><ele>134.33333333333334</ele><time>2026-05-02T16:28:03Z</time></trkpt><trkpt lat="41.03419925904261" lon="8.974521194660348"><ele>135.0</ele><time>2026-05-02T16:28:04Z</time></trkpt><trkpt lat="41.03432222676327" lon="8.974700757428046"><ele>135.0</ele><time>2026-05-02T16:28:05Z</time></trkpt><trkpt lat="41.034446032217666" lon="8.974880243930249"><ele>135.0</ele><time>2026-05-02T16:28:06Z</time></trkpt><trkpt lat="41.03457792221957" lon="8.975074109399145"><ele>135.0</ele><time>2026-05-02T16:28:07Z</time></trkpt><trkpt lat="41.034673789791846" lon="8.975216947950122"><ele>135.33333333333334</ele><time>2026-05-02T16:28:08Z</time></trkpt><trkpt lat="41.03476836989127" lon="8.975358128338945"><ele>135.66666666666669</ele><time>2026-05-02T16:28:09Z</time></trkpt><trkpt lat="41.034844473173564" lon="8.975478206915218"><ele>136.0</ele><time>2026-05-02T16:28:10Z</time></trkpt><trkpt lat="41.03499683418176" lon="8.975663717717874"><ele>136.8</ele><time>2026-05-02T16:28:12Z</time></trkpt><trkpt lat="41.03505611121773" lon="8.975730418868164"><ele>137.6</ele><time>2026-05-02T16:28:14Z</time></trkpt><trkpt lat="41.03515091249798" lon="8.975546301234328"><ele>138.4</ele><time>2026-05-02T16:28:16Z</time></trkpt><trkpt lat="41.03513021200295" lon="8.975455075569894"><ele>139.2</ele><time>2026-05-02T16:28:17Z</time></trkpt><trkpt lat="41.035105893382514" lon="8.975346201196883"><ele>140.0</ele><time>2026-05-02T16:28:18Z</time></trkpt><trkpt lat="41.035059087473314" lon="8.975195616879642"><ele>140.75</ele><time>2026-05-02T16:28:19Z</time></trkpt><trkpt lat="41.03501233089053" lon="8.975013470357757"><ele>141.5</ele><time>2026-05-02T16:28:20Z</time></trkpt><trkpt lat="41.034975620523106" lon="8.974821916390114"><ele>142.25</ele><time>2026-05-02T16:28:21Z</time></trkpt><trkpt lat="41.03493989559428" lon="8.97464196471319"><ele>143.0</ele><time>2026-05-02T16:28:22Z</time></trkpt><trkpt lat="41.034934901797556" lon="8.974515327487293"><ele>142.25</ele><time>2026-05-02T16:28:23Z</time></trkpt><trkpt lat="41.03493028174586" lon="8.974380929707909"><ele>141.5</ele><time>2026-05-02T16:28:24Z</time></trkpt><trkpt lat="41.034934796263116" lon="8.974213490983045"><ele>140.75</ele><time>2026-05-02T16:28:25Z</time></trkpt><trkpt lat="41.03493713466215" lon="8.974046626329693"><ele>140.0</ele><time>2026-05-02T16:28:26Z</time></trkpt><trkpt lat="41.03495919768413" lon="8.97389273057209"><ele>140.0</ele><time>2026-05-02T16:28:27Z</time></trkpt><trkpt lat="41.0349692006067" lon="8.973672236703942"><ele>140.0</ele><time>2026-05-02T16:28:28Z</time></trkpt><trkpt lat="41.03498791617891" lon="8.973455635619288"><ele>140.0</ele><time>2026-05-02T16:28:29Z</time></trkpt><trkpt lat="41.03501428672282" lon="8.973206904734592"><ele>143.0</ele><time>2026-05-02T16:28:30Z</time></trkpt><trkpt lat="41.03504394737484" lon="8.972917086047273"><ele>146.0</ele><time>2026-05-02T16:28:31Z</time></trkpt><trkpt lat="41.035081288079105" lon="8.972594283209078"><ele>146.0</ele><time>2026-05-02T16:28:32Z</time></trkpt><trkpt lat="41.03512280763565" lon="8.972252920939697"><ele>146.0</ele><time>2026-05-02T16:28:33Z</time></trkpt><trkpt lat="41.03513984118452" lon="8.971871112362198"><ele>146.33333333333331</ele><time>2026-05-02T16:28:34Z</time></trkpt><trkpt lat="41.03515956166026" lon="8.971556435541334"><ele>146.66666666666666</ele><time>2026-05-02T16:28:35Z</time></trkpt><trkpt lat="41.03517539114061" lon="8.971312936711154"><ele>147.0</ele><time>2026-05-02T16:28:36Z</time></trkpt><trkpt lat="41.0351898254302" lon="8.9711195609991"><ele>147.0</ele><time>2026-05-02T16:28:37Z</time></trkpt><trkpt lat="41.03521327188015" lon="8.970947265258896"><ele>147.0</ele><time>2026-05-02T16:28:38Z</time></trkpt><trkpt lat="41.03526682232087" lon="8.970807628977347"><ele>147.0</ele><time>2026-05-02T16:28:39Z</time></trkpt><trkpt lat="41.03536521523076" lon="8.970739128769287"><ele>147.0</ele><time>2026-05-02T16:28:40Z</time></trkpt><trkpt lat="41.03548761427691" lon="8.970664345077719"><ele>148.66666666666666</ele><time>2026-05-02T16:28:41Z</time></trkpt><trkpt lat="41.03564011956957" lon="8.97059831669336"><ele>150.33333333333331</ele><time>2026-05-02T16:28:42Z</time></trkpt><trkpt lat="41.03582553970124" lon="8.970534276657588"><ele>152.0</ele><time>2026-05-02T16:28:43Z</time></trkpt><trkpt lat="41.0360355987326" lon="8.970488075760603"><ele>153.5</ele><time>2026-05-02T16:28:44Z</time></trkpt><trkpt lat="41.036259321731826" lon="8.970478999909062"><ele>155.0</ele><time>2026-05-02T16:28:45Z</time></trkpt><trkpt lat="41.03650593715886" lon="8.970495739533552"><ele>157.5</ele><time>2026-05-02T16:28:46Z</time></trkpt><trkpt lat="41.03676028139145" lon="8.970504436711263"><ele>160.0</ele><time>2026-05-02T16:28:47Z</time></trkpt><trkpt lat="41.03698198270403" lon="8.970526252350323"><ele>160.0</ele><time>2026-05-02T16:28:48Z</time></trkpt><trkpt lat="41.037160237902675" lon="8.97053578812071"><ele>160.0</ele><time>2026-05-02T16:28:49Z</time></trkpt><trkpt lat="41.0372869661495" lon="8.970529561841595"><ele>160.0</ele><time>2026-05-02T16:28:50Z</time></trkpt><trkpt lat="41.037396258207494" lon="8.970474768578462"><ele>160.0</ele><time>2026-05-02T16:28:51Z</time></trkpt><trkpt lat="41.03751783227322" lon="8.970351118735934"><ele>162.66666666666669</ele><time>2026-05-02T16:28:52Z</time></trkpt><trkpt lat="41.03763550522819" lon="8.970202835360963"><ele>165.33333333333334</ele><time>2026-05-02T16:28:53Z</time></trkpt><trkpt lat="41.03777955863495" lon="8.970039302142707"><ele>168.0</ele><time>2026-05-02T16:28:54Z</time></trkpt><trkpt lat="41.03792646017815" lon="8.969882531006348"><ele>168.0</ele><time>2026-05-02T16:28:55Z</time></trkpt><trkpt lat="41.038058410874584" lon="8.969758817533155"><ele>168.0</ele><time>2026-05-02T16:28:56Z</time></trkpt><trkpt lat="41.03819941730976" lon="8.969657439473941"><ele>168.0</ele><time>2026-05-02T16:28:57Z</time></trkpt><trkpt lat="41.03835761093734" lon="8.96961212757759"><ele>168.25</ele><time>2026-05-02T16:28:58Z</time></trkpt><trkpt lat="41.03850799401935" lon="8.96957886348561"><ele>168.5</ele><time>2026-05-02T16:28:59Z</time></trkpt><trkpt lat="41.03863277797192" lon="8.969585926658247"><ele>168.75</ele><time>2026-05-02T16:29:00Z</time></trkpt><trkpt lat="41.03874217036413" lon="8.969659917655587"><ele>169.0</ele><time>2026-05-02T16:29:01Z</time></trkpt><trkpt lat="41.03883930856603" lon="8.96976848211413"><ele>169.0</ele><time>2026-05-02T16:29:02Z</time></trkpt><trkpt lat="41.03893160841305" lon="8.969921393725546"><ele>169.0</ele><time>2026-05-02T16:29:03Z</time></trkpt><trkpt lat="41.039032834868934" lon="8.970096783476798"><ele>169.0</ele><time>2026-05-02T16:29:04Z</time></trkpt><trkpt lat="41.03914254908037" lon="8.970256744419187"><ele>169.5</ele><time>2026-05-02T16:29:05Z</time></trkpt><trkpt lat="41.03924042120654" lon="8.970371627331684"><ele>170.0</ele><time>2026-05-02T16:29:06Z</time></trkpt><trkpt lat="41.03936810960488" lon="8.970453047824918"><ele>170.5</ele><time>2026-05-02T16:29:07Z</time></trkpt><trkpt lat="41.03950301365761" lon="8.970523523188994"><ele>171.0</ele><time>2026-05-02T16:29:08Z</time></trkpt><trkpt lat="41.03965725037925" lon="8.970579039770493"><ele>171.0</ele><time>2026-05-02T16:29:09Z</time></trkpt><trkpt lat="41.03981971179894" lon="8.970624026208844"><ele>171.0</ele><time>2026-05-02T16:29:10Z</time></trkpt><trkpt lat="41.03998435747894" lon="8.970664396388965"><ele>171.0</ele><time>2026-05-02T16:29:11Z</time></trkpt><trkpt lat="41.04013203485326" lon="8.97068360064185"><ele>171.5</ele><time>2026-05-02T16:29:12Z</time></trkpt><trkpt lat="41.04028226404114" lon="8.970679741133697"><ele>172.0</ele><time>2026-05-02T16:29:13Z</time></trkpt><trkpt lat="41.04042985500084" lon="8.970655945857995"><ele>172.5</ele><time>2026-05-02T16:29:14Z</time></trkpt><trkpt lat="41.040564844332394" lon="8.970630311214775"><ele>173.0</ele><time>2026-05-02T16:29:15Z</time></trkpt><trkpt lat="41.040676793182286" lon="8.970645867077323"><ele>173.0</ele><time>2026-05-02T16:29:16Z</time></trkpt><trkpt lat="41.04076957271186" lon="8.970734583728706"><ele>173.0</ele><time>2026-05-02T16:29:17Z</time></trkpt><trkpt lat="41.04087203187752" lon="8.970838346216896"><ele>173.0</ele><time>2026-05-02T16:29:18Z</time></trkpt><trkpt lat="41.04100116027505" lon="8.970915400167884"><ele>173.0</ele><time>2026-05-02T16:29:19Z</time></trkpt><trkpt lat="41.04113140522557" lon="8.97097577507769"><ele>174.75</ele><time>2026-05-02T16:29:20Z</time></trkpt><trkpt lat="41.04125140450809" lon="8.970978284738136"><ele>176.5</ele><time>2026-05-02T16:29:21Z</time></trkpt><trkpt lat="41.04136125757301" lon="8.970962437630192"><ele>178.25</ele><time>2026-05-02T16:29:22Z</time></trkpt><trkpt lat="41.04146893497761" lon="8.970885887598655"><ele>180.0</ele><time>2026-05-02T16:29:23Z</time></trkpt><trkpt lat="41.041572131056284" lon="8.970776633947791"><ele>181.5</ele><time>2026-05-02T16:29:24Z</time></trkpt><trkpt lat="41.04168068755468" lon="8.970672577992474"><ele>183.0</ele><time>2026-05-02T16:29:25Z</time></trkpt><trkpt lat="41.04179408607147" lon="8.970590010777268"><ele>184.5</ele><time>2026-05-02T16:29:26Z</time></trkpt><trkpt lat="41.04191067767137" lon="8.970521829428403"><ele>186.0</ele><time>2026-05-02T16:29:27Z</time></trkpt><trkpt lat="41.042056336028786" lon="8.970475612472443"><ele>186.0</ele><time>2026-05-02T16:29:28Z</time></trkpt><trkpt lat="41.04222280392569" lon="8.970445963534823"><ele>186.0</ele><time>2026-05-02T16:29:29Z</time></trkpt><trkpt lat="41.042398980882204" lon="8.970419324202101"><ele>186.0</ele><time>2026-05-02T16:29:30Z</time></trkpt><trkpt lat="41.042547970736656" lon="8.970423466811571"><ele>186.5</ele><time>2026-05-02T16:29:31Z</time></trkpt><trkpt lat="41.04265344042534" lon="8.970476645220195"><ele>187.0</ele><time>2026-05-02T16:29:32Z</time></trkpt><trkpt lat="41.04275269192049" lon="8.970572616903441"><ele>187.5</ele><time>2026-05-02T16:29:33Z</time></trkpt><trkpt lat="41.04287086775123" lon="8.970703661717382"><ele>188.0</ele><time>2026-05-02T16:29:34Z</time></trkpt><trkpt lat="41.04301058615545" lon="8.970833578844477"><ele>188.25</ele><time>2026-05-02T16:29:35Z</time></trkpt><trkpt lat="41.043127100460346" lon="8.970908286277284"><ele>188.5</ele><time>2026-05-02T16:29:36Z</time></trkpt><trkpt lat="41.04323786916309" lon="8.970907539613313"><ele>188.75</ele><time>2026-05-02T16:29:37Z</time></trkpt><trkpt lat="41.04333110966188" lon="8.970873406651602"><ele>189.0</ele><time>2026-05-02T16:29:38Z</time></trkpt><trkpt lat="41.04341773131654" lon="8.970776886788522"><ele>188.5</ele><time>2026-05-02T16:29:39Z</time></trkpt><trkpt lat="41.04350981994067" lon="8.970684361228686"><ele>188.0</ele><time>2026-05-02T16:29:40Z</time></trkpt><trkpt lat="41.04361716320586" lon="8.97067277624584"><ele>187.5</ele><time>2026-05-02T16:29:41Z</time></trkpt><trkpt lat="41.04374811183406" lon="8.970687893164424"><ele>187.0</ele><time>2026-05-02T16:29:42Z</time></trkpt><trkpt lat="41.043934541855464" lon="8.970711660692807"><ele>187.0</ele><time>2026-05-02T16:29:43Z</time></trkpt><trkpt lat="41.044116755948984" lon="8.97072258804071"><ele>187.0</ele><time>2026-05-02T16:29:44Z</time></trkpt><trkpt lat="41.044280812186955" lon="8.97069731732869"><ele>187.0</ele><time>2026-05-02T16:29:45Z</time></trkpt><trkpt lat="41.044454815576806" lon="8.970621051764473"><ele>188.0</ele><time>2026-05-02T16:29:46Z</time></trkpt><trkpt lat="41.04464603107405" lon="8.970518190597833"><ele>189.0</ele><time>2026-05-02T16:29:47Z</time></trkpt><trkpt lat="41.04482545704239" lon="8.970436226818558"><ele>190.0</ele><time>2026-05-02T16:29:48Z</time></trkpt><trkpt lat="41.04498581039481" lon="8.970359204440493"><ele>190.66666666666669</ele><time>2026-05-02T16:29:49Z</time></trkpt><trkpt lat="41.04513942450086" lon="8.970288553069047"><ele>191.33333333333334</ele><time>2026-05-02T16:29:50Z</time></trkpt><trkpt lat="41.04530427803035" lon="8.970209410566557"><ele>192.0</ele><time>2026-05-02T16:29:51Z</time></trkpt><trkpt lat="41.0454787376893" lon="8.970098881839945"><ele>191.33333333333334</ele><time>2026-05-02T16:29:52Z</time></trkpt><trkpt lat="41.04565996240231" lon="8.96996212920999"><ele>190.66666666666669</ele><time>2026-05-02T16:29:53Z</time></trkpt><trkpt lat="41.045834406286716" lon="8.969822606700507"><ele>190.0</ele><time>2026-05-02T16:29:54Z</time></trkpt><trkpt lat="41.045993530399166" lon="8.969697565772158"><ele>190.0</ele><time>2026-05-02T16:29:55Z</time></trkpt><trkpt lat="41.04614990351489" lon="8.969572184084647"><ele>190.0</ele><time>2026-05-02T16:29:56Z</time></trkpt><trkpt lat="41.04630925437485" lon="8.969444176717865"><ele>190.0</ele><time>2026-05-02T16:29:57Z</time></trkpt><trkpt lat="41.04647877098099" lon="8.969312975530011"><ele>192.0</ele><time>2026-05-02T16:29:58Z</time></trkpt><trkpt lat="41.04664209658603" lon="8.969169297838572"><ele>194.0</ele><time>2026-05-02T16:29:59Z</time></trkpt><trkpt lat="41.046802626282165" lon="8.969045497689969"><ele>196.0</ele><time>2026-05-02T16:30:00Z</time></trkpt><trkpt lat="41.04693899559487" lon="8.96893409988571"><ele>196.0</ele><time>2026-05-02T16:30:01Z</time></trkpt><trkpt lat="41.04707136311808" lon="8.968826497766377"><ele>196.0</ele><time>2026-05-02T16:30:02Z</time></trkpt><trkpt lat="41.047212371096805" lon="8.968696056378452"><ele>196.0</ele><time>2026-05-02T16:30:03Z</time></trkpt><trkpt lat="41.04734638678424" lon="8.968545040912042"><ele>197.33333333333331</ele><time>2026-05-02T16:30:04Z</time></trkpt><trkpt lat="41.04746210590524" lon="8.968390763716352"><ele>198.66666666666669</ele><time>2026-05-02T16:30:05Z</time></trkpt><trkpt lat="41.04756897131928" lon="8.968258221871693"><ele>200.0</ele><time>2026-05-02T16:30:06Z</time></trkpt><trkpt lat="41.04768848001496" lon="8.968144419529748"><ele>200.33333333333334</ele><time>2026-05-02T16:30:07Z</time></trkpt><trkpt lat="41.047835522718394" lon="8.968040279570053"><ele>200.66666666666669</ele><time>2026-05-02T16:30:08Z</time></trkpt><trkpt lat="41.04800526125647" lon="8.967948778981835"><ele>201.0</ele><time>2026-05-02T16:30:09Z</time></trkpt><trkpt lat="41.048186148802586" lon="8.96785499034562"><ele>201.33333333333331</ele><time>2026-05-02T16:30:10Z</time></trkpt><trkpt lat="41.04836670706686" lon="8.96774604084178"><ele>201.66666666666666</ele><time>2026-05-02T16:30:11Z</time></trkpt><trkpt lat="41.048541294097554" lon="8.967634582298976"><ele>202.0</ele><time>2026-05-02T16:30:12Z</time></trkpt><trkpt lat="41.048698377674924" lon="8.967536061456336"><ele>201.33333333333331</ele><time>2026-05-02T16:30:13Z</time></trkpt><trkpt lat="41.04884123371633" lon="8.967435911319027"><ele>200.66666666666669</ele><time>2026-05-02T16:30:14Z</time></trkpt><trkpt lat="41.0489683472427" lon="8.967305640156535"><ele>200.0</ele><time>2026-05-02T16:30:15Z</time></trkpt><trkpt lat="41.04909335060432" lon="8.967133401863803"><ele>200.0</ele><time>2026-05-02T16:30:16Z</time></trkpt><trkpt lat="41.049226116867686" lon="8.96694325681288"><ele>200.0</ele><time>2026-05-02T16:30:17Z</time></trkpt><trkpt lat="41.0493676457661" lon="8.966749503867387"><ele>200.0</ele><time>2026-05-02T16:30:18Z</time></trkpt><trkpt lat="41.0495174458514" lon="8.966552436826"><ele>197.66666666666669</ele><time>2026-05-02T16:30:19Z</time></trkpt><trkpt lat="41.04967058007937" lon="8.966360174311367"><ele>195.33333333333331</ele><time>2026-05-02T16:30:20Z</time></trkpt><trkpt lat="41.04982701235185" lon="8.966174694971759"><ele>193.0</ele><time>2026-05-02T16:30:21Z</time></trkpt><trkpt lat="41.04997720859239" lon="8.966004742698676"><ele>191.0</ele><time>2026-05-02T16:30:22Z</time></trkpt><trkpt lat="41.050107125386575" lon="8.965856495026955"><ele>189.0</ele><time>2026-05-02T16:30:23Z</time></trkpt><trkpt lat="41.050198144837964" lon="8.965750049144775"><ele>187.0</ele><time>2026-05-02T16:30:24Z</time></trkpt><trkpt lat="41.050268399286345" lon="8.965663938604965"><ele>185.0</ele><time>2026-05-02T16:30:25Z</time></trkpt><trkpt lat="41.050344084538345" lon="8.96556170923377"><ele>185.0</ele><time>2026-05-02T16:30:26Z</time></trkpt><trkpt lat="41.0504258903302" lon="8.965451677594203"><ele>185.0</ele><time>2026-05-02T16:30:27Z</time></trkpt><trkpt lat="41.0505179432752" lon="8.965339126555161"><ele>185.0</ele><time>2026-05-02T16:30:28Z</time></trkpt><trkpt lat="41.05061175581149" lon="8.965246592840634"><ele>185.0</ele><time>2026-05-02T16:30:29Z</time></trkpt><trkpt lat="41.05071636377648" lon="8.965206377773534"><ele>184.66666666666666</ele><time>2026-05-02T16:30:30Z</time></trkpt><trkpt lat="41.05081643061912" lon="8.96515978434094"><ele>184.33333333333331</ele><time>2026-05-02T16:30:31Z</time></trkpt><trkpt lat="41.05090752670759" lon="8.965103821123003"><ele>184.0</ele><time>2026-05-02T16:30:32Z</time></trkpt><trkpt lat="41.05098845728299" lon="8.965069629994664"><ele>183.66666666666666</ele><time>2026-05-02T16:30:33Z</time></trkpt><trkpt lat="41.05105762063243" lon="8.965040431111293"><ele>183.33333333333334</ele><time>2026-05-02T16:30:34Z</time></trkpt><trkpt lat="41.05111907880847" lon="8.965004913065195"><ele>183.0</ele><time>2026-05-02T16:30:35Z</time></trkpt><trkpt lat="41.05117987467946" lon="8.96497395883254"><ele>182.16666666666666</ele><time>2026-05-02T16:30:36Z</time></trkpt><trkpt lat="41.05123681553913" lon="8.964934810567597"><ele>181.33333333333334</ele><time>2026-05-02T16:30:37Z</time></trkpt><trkpt lat="41.05131463047004" lon="8.964890325265394"><ele>180.5</ele><time>2026-05-02T16:30:39Z</time></trkpt><trkpt lat="41.05140933720464" lon="8.964836811212352"><ele>179.66666666666669</ele><time>2026-05-02T16:30:41Z</time></trkpt><trkpt lat="41.05148046325113" lon="8.964790040931451"><ele>178.83333333333334</ele><time>2026-05-02T16:30:42Z</time></trkpt><trkpt lat="41.05155976216871" lon="8.96474195026351"><ele>178.0</ele><time>2026-05-02T16:30:43Z</time></trkpt><trkpt lat="41.05163311522258" lon="8.964700936551784"><ele>178.0</ele><time>2026-05-02T16:30:44Z</time></trkpt><trkpt lat="41.05169733492826" lon="8.964656475598126"><ele>178.0</ele><time>2026-05-02T16:30:45Z</time></trkpt><trkpt lat="41.051753389770155" lon="8.964577376749475"><ele>178.0</ele><time>2026-05-02T16:30:47Z</time></trkpt><trkpt lat="41.051807130672515" lon="8.964508137845401"><ele>178.0</ele><time>2026-05-02T16:30:49Z</time></trkpt><trkpt lat="41.05187265787464" lon="8.964421467205371"><ele>178.0</ele><time>2026-05-02T16:30:51Z</time></trkpt><trkpt lat="41.051943660862825" lon="8.964287606229256"><ele>178.0</ele><time>2026-05-02T16:30:53Z</time></trkpt><trkpt lat="41.05200403888419" lon="8.964167367602261"><ele>177.0</ele><time>2026-05-02T16:30:55Z</time></trkpt><trkpt lat="41.052049078677754" lon="8.964065876214514"><ele>176.0</ele><time>2026-05-02T16:30:57Z</time></trkpt><trkpt lat="41.052082780332306" lon="8.963968708486414"><ele>175.0</ele><time>2026-05-02T16:30:59Z</time></trkpt><trkpt lat="41.052130184681" lon="8.963864455267975"><ele>174.0</ele><time>2026-05-02T16:31:01Z</time></trkpt><trkpt lat="41.05216976423464" lon="8.963770864890366"><ele>173.0</ele><time>2026-05-02T16:31:03Z</time></trkpt><trkpt lat="41.05220547717078" lon="8.963665843909647"><ele>172.0</ele><time>2026-05-02T16:31:05Z</time></trkpt><trkpt lat="41.052266586888166" lon="8.96351982513914"><ele>172.0</ele><time>2026-05-02T16:31:07Z</time></trkpt><trkpt lat="41.0523091994441" lon="8.963425515136707"><ele>172.0</ele><time>2026-05-02T16:31:08Z</time></trkpt><trkpt lat="41.0523598789389" lon="8.963308306605041"><ele>172.0</ele><time>2026-05-02T16:31:09Z</time></trkpt><trkpt lat="41.05241245722245" lon="8.963171576918171"><ele>172.0</ele><time>2026-05-02T16:31:10Z</time></trkpt><trkpt lat="41.052469648552126" lon="8.963022931819095"><ele>172.0</ele><time>2026-05-02T16:31:11Z</time></trkpt><trkpt lat="41.052531454099295" lon="8.962872670877351"><ele>170.5</ele><time>2026-05-02T16:31:12Z</time></trkpt><trkpt lat="41.052597509877934" lon="8.962718405259686"><ele>169.0</ele><time>2026-05-02T16:31:13Z</time></trkpt><trkpt lat="41.05266035249267" lon="8.962561003079227"><ele>167.5</ele><time>2026-05-02T16:31:14Z</time></trkpt><trkpt lat="41.05271390775291" lon="8.962393267324043"><ele>166.0</ele><time>2026-05-02T16:31:15Z</time></trkpt><trkpt lat="41.05273971266167" lon="8.962216913520813"><ele>166.0</ele><time>2026-05-02T16:31:16Z</time></trkpt><trkpt lat="41.052736160308285" lon="8.962025253194984"><ele>166.0</ele><time>2026-05-02T16:31:17Z</time></trkpt><trkpt lat="41.05271152038894" lon="8.961836538615309"><ele>166.0</ele><time>2026-05-02T16:31:18Z</time></trkpt><trkpt lat="41.05267644774956" lon="8.961654123077741"><ele>166.0</ele><time>2026-05-02T16:31:19Z</time></trkpt><trkpt lat="41.05264999476684" lon="8.961472542461804"><ele>164.75</ele><time>2026-05-02T16:31:20Z</time></trkpt><trkpt lat="41.05265032034451" lon="8.961291730899696"><ele>163.5</ele><time>2026-05-02T16:31:21Z</time></trkpt><trkpt lat="41.05266691024877" lon="8.961109939230644"><ele>162.25</ele><time>2026-05-02T16:31:22Z</time></trkpt><trkpt lat="41.052696451495024" lon="8.960925214000527"><ele>161.0</ele><time>2026-05-02T16:31:23Z</time></trkpt><trkpt lat="41.052739304265465" lon="8.960735152597687"><ele>158.0</ele><time>2026-05-02T16:31:24Z</time></trkpt><trkpt lat="41.05280213952861" lon="8.960548613904336"><ele>155.0</ele><time>2026-05-02T16:31:25Z</time></trkpt><trkpt lat="41.0528655011843" lon="8.960359751677872"><ele>152.0</ele><time>2026-05-02T16:31:26Z</time></trkpt><trkpt lat="41.05292347068295" lon="8.960162118955656"><ele>149.0</ele><time>2026-05-02T16:31:27Z</time></trkpt><trkpt lat="41.05298643334447" lon="8.959964611051477"><ele>146.0</ele><time>2026-05-02T16:31:28Z</time></trkpt><trkpt lat="41.05304976136827" lon="8.95976949350698"><ele>143.0</ele><time>2026-05-02T16:31:29Z</time></trkpt><trkpt lat="41.053116336630914" lon="8.959574066116614"><ele>143.0</ele><time>2026-05-02T16:31:30Z</time></trkpt><trkpt lat="41.05318446661428" lon="8.959379571330302"><ele>143.0</ele><time>2026-05-02T16:31:31Z</time></trkpt><trkpt lat="41.05325188520591" lon="8.959184303443783"><ele>143.0</ele><time>2026-05-02T16:31:32Z</time></trkpt><trkpt lat="41.05331804011555" lon="8.958988640713704"><ele>143.5</ele><time>2026-05-02T16:31:33Z</time></trkpt><trkpt lat="41.053382751731746" lon="8.958799462637105"><ele>144.0</ele><time>2026-05-02T16:31:34Z</time></trkpt><trkpt lat="41.053443770100934" lon="8.958621087675105"><ele>144.5</ele><time>2026-05-02T16:31:35Z</time></trkpt><trkpt lat="41.053501758740055" lon="8.958459221434738"><ele>145.0</ele><time>2026-05-02T16:31:36Z</time></trkpt><trkpt lat="41.05355767278402" lon="8.958311167707295"><ele>145.0</ele><time>2026-05-02T16:31:37Z</time></trkpt><trkpt lat="41.05361401098845" lon="8.958150687201806"><ele>145.0</ele><time>2026-05-02T16:31:38Z</time></trkpt><trkpt lat="41.053670763554365" lon="8.957981976526176"><ele>145.0</ele><time>2026-05-02T16:31:39Z</time></trkpt><trkpt lat="41.053715973430975" lon="8.95781109793307"><ele>145.0</ele><time>2026-05-02T16:31:40Z</time></trkpt><trkpt lat="41.053729766965546" lon="8.957634536787557"><ele>145.25</ele><time>2026-05-02T16:31:41Z</time></trkpt><trkpt lat="41.05370189644967" lon="8.957457874139536"><ele>145.5</ele><time>2026-05-02T16:31:42Z</time></trkpt><trkpt lat="41.05365270236318" lon="8.957285143352205"><ele>145.75</ele><time>2026-05-02T16:31:43Z</time></trkpt><trkpt lat="41.053606540325305" lon="8.957097215256423"><ele>146.0</ele><time>2026-05-02T16:31:44Z</time></trkpt><trkpt lat="41.05356765578656" lon="8.956908944729536"><ele>146.0</ele><time>2026-05-02T16:31:45Z</time></trkpt><trkpt lat="41.0535295058882" lon="8.956733325890157"><ele>146.0</ele><time>2026-05-02T16:31:46Z</time></trkpt><trkpt lat="41.053461884724875" lon="8.956601680400427"><ele>146.0</ele><time>2026-05-02T16:31:47Z</time></trkpt><trkpt lat="41.05334822485671" lon="8.956503800714145"><ele>146.0</ele><time>2026-05-02T16:31:48Z</time></trkpt><trkpt lat="41.05322270330481" lon="8.956407828617674"><ele>147.0</ele><time>2026-05-02T16:31:49Z</time></trkpt><trkpt lat="41.05311414349377" lon="8.956304469149446"><ele>148.0</ele><time>2026-05-02T16:31:50Z</time></trkpt><trkpt lat="41.053017978543636" lon="8.956181676182778"><ele>149.0</ele><time>2026-05-02T16:31:51Z</time></trkpt><trkpt lat="41.05293384664354" lon="8.956025962883764"><ele>150.0</ele><time>2026-05-02T16:31:52Z</time></trkpt><trkpt lat="41.05283658941607" lon="8.95586897443775"><ele>150.0</ele><time>2026-05-02T16:31:53Z</time></trkpt><trkpt lat="41.0527387297603" lon="8.955689229561283"><ele>150.0</ele><time>2026-05-02T16:31:54Z</time></trkpt><trkpt lat="41.05262838583274" lon="8.955500650653812"><ele>150.0</ele><time>2026-05-02T16:31:55Z</time></trkpt><trkpt lat="41.05251750033944" lon="8.955313741486123"><ele>146.0</ele><time>2026-05-02T16:31:56Z</time></trkpt><trkpt lat="41.05241466507423" lon="8.955140638131592"><ele>142.0</ele><time>2026-05-02T16:31:57Z</time></trkpt><trkpt lat="41.052307779014974" lon="8.954952375827398"><ele>138.0</ele><time>2026-05-02T16:31:58Z</time></trkpt><trkpt lat="41.05219985734483" lon="8.954762647804626"><ele>138.0</ele><time>2026-05-02T16:31:59Z</time></trkpt><trkpt lat="41.052094638431626" lon="8.95458429194584"><ele>138.0</ele><time>2026-05-02T16:32:00Z</time></trkpt><trkpt lat="41.05198813974201" lon="8.95440450036641"><ele>138.0</ele><time>2026-05-02T16:32:01Z</time></trkpt><trkpt lat="41.051878712430906" lon="8.954220923427947"><ele>137.66666666666666</ele><time>2026-05-02T16:32:02Z</time></trkpt><trkpt lat="41.051767706483716" lon="8.954035722697919"><ele>137.33333333333331</ele><time>2026-05-02T16:32:03Z</time></trkpt><trkpt lat="41.05167740484819" lon="8.953830377056223"><ele>137.0</ele><time>2026-05-02T16:32:04Z</time></trkpt><trkpt lat="41.05160220381354" lon="8.95362485888969"><ele>137.0</ele><time>2026-05-02T16:32:05Z</time></trkpt><trkpt lat="41.05153004661382" lon="8.953426733857995"><ele>137.0</ele><time>2026-05-02T16:32:06Z</time></trkpt><trkpt lat="41.05146154280644" lon="8.953230884067501"><ele>137.0</ele><time>2026-05-02T16:32:07Z</time></trkpt><trkpt lat="41.05139450387302" lon="8.953038705413078"><ele>136.33333333333331</ele><time>2026-05-02T16:32:08Z</time></trkpt><trkpt lat="41.05132682662307" lon="8.95284432359993"><ele>135.66666666666666</ele><time>2026-05-02T16:32:09Z</time></trkpt><trkpt lat="41.051260585284155" lon="8.95266018366544"><ele>135.0</ele><time>2026-05-02T16:32:10Z</time></trkpt><trkpt lat="41.051192454633195" lon="8.952482922314411"><ele>135.0</ele><time>2026-05-02T16:32:11Z</time></trkpt><trkpt lat="41.05113246018166" lon="8.952312606754598"><ele>135.0</ele><time>2026-05-02T16:32:12Z</time></trkpt><trkpt lat="41.0510726617949" lon="8.952168091689295"><ele>135.0</ele><time>2026-05-02T16:32:13Z</time></trkpt><trkpt lat="41.051023427715904" lon="8.952025068816559"><ele>135.0</ele><time>2026-05-02T16:32:14Z</time></trkpt><trkpt lat="41.050979127008794" lon="8.951894036356002"><ele>135.0</ele><time>2026-05-02T16:32:15Z</time></trkpt><trkpt lat="41.050938800031325" lon="8.95176701769678"><ele>135.0</ele><time>2026-05-02T16:32:16Z</time></trkpt><trkpt lat="41.05091184454523" lon="8.951635685991894"><ele>135.0</ele><time>2026-05-02T16:32:17Z</time></trkpt><trkpt lat="41.05090458305764" lon="8.95151241690339"><ele>135.0</ele><time>2026-05-02T16:32:18Z</time></trkpt><trkpt lat="41.05091244706693" lon="8.951390243876373"><ele>135.0</ele><time>2026-05-02T16:32:19Z</time></trkpt><trkpt lat="41.05092853491291" lon="8.951272902252065"><ele>134.33333333333334</ele><time>2026-05-02T16:32:20Z</time></trkpt><trkpt lat="41.050960367675806" lon="8.951160469522078"><ele>133.66666666666666</ele><time>2026-05-02T16:32:21Z</time></trkpt><trkpt lat="41.05101198969007" lon="8.951069894371667"><ele>133.0</ele><time>2026-05-02T16:32:22Z</time></trkpt><trkpt lat="41.05106978717566" lon="8.950993328892045"><ele>132.33333333333331</ele><time>2026-05-02T16:32:23Z</time></trkpt><trkpt lat="41.05116750284658" lon="8.950990464927314"><ele>131.66666666666666</ele><time>2026-05-02T16:32:24Z</time></trkpt><trkpt lat="41.05120950277097" lon="8.950916899207627"><ele>131.0</ele><time>2026-05-02T16:32:25Z</time></trkpt><trkpt lat="41.051267302005364" lon="8.95084899818827"><ele>129.83333333333331</ele><time>2026-05-02T16:32:26Z</time></trkpt><trkpt lat="41.05131859790689" lon="8.950783279417065"><ele>128.66666666666666</ele><time>2026-05-02T16:32:27Z</time></trkpt><trkpt lat="41.051369776005785" lon="8.950703897170822"><ele>127.5</ele><time>2026-05-02T16:32:28Z</time></trkpt><trkpt lat="41.0514233214586" lon="8.950633599168661"><ele>126.33333333333334</ele><time>2026-05-02T16:32:29Z</time></trkpt><trkpt lat="41.05146790999674" lon="8.950541371561886"><ele>125.16666666666667</ele><time>2026-05-02T16:32:30Z</time></trkpt><trkpt lat="41.051512852582796" lon="8.95042885791595"><ele>124.0</ele><time>2026-05-02T16:32:31Z</time></trkpt><trkpt lat="41.05158433179763" lon="8.950332474456115"><ele>126.0</ele><time>2026-05-02T16:32:32Z</time></trkpt><trkpt lat="41.05168495147002" lon="8.950248654679235"><ele>128.0</ele><time>2026-05-02T16:32:33Z</time></trkpt><trkpt lat="41.05179067126043" lon="8.950177949562866"><ele>130.0</ele><time>2026-05-02T16:32:34Z</time></trkpt><trkpt lat="41.05188722073445" lon="8.950105103755057"><ele>132.0</ele><time>2026-05-02T16:32:35Z</time></trkpt><trkpt lat="41.05197464732932" lon="8.950034167603048"><ele>132.0</ele><time>2026-05-02T16:32:36Z</time></trkpt><trkpt lat="41.052056819977345" lon="8.94996847563579"><ele>132.0</ele><time>2026-05-02T16:32:37Z</time></trkpt><trkpt lat="41.05213384307062" lon="8.9499061436558"><ele>132.0</ele><time>2026-05-02T16:32:38Z</time></trkpt><trkpt lat="41.05220713740927" lon="8.949847722997061"><ele>132.0</ele><time>2026-05-02T16:32:39Z</time></trkpt><trkpt lat="41.05228671492332" lon="8.949838737461738"><ele>132.0</ele><time>2026-05-02T16:32:40Z</time></trkpt><trkpt lat="41.05240330355594" lon="8.949850082184097"><ele>131.4</ele><time>2026-05-02T16:32:42Z</time></trkpt><trkpt lat="41.05252218385538" lon="8.949882948264424"><ele>130.79999999999998</ele><time>2026-05-02T16:32:44Z</time></trkpt><trkpt lat="41.05262727572845" lon="8.949947699933258"><ele>130.2</ele><time>2026-05-02T16:32:46Z</time></trkpt><trkpt lat="41.05267469458912" lon="8.950005135945197"><ele>129.6</ele><time>2026-05-02T16:32:47Z</time></trkpt><trkpt lat="41.05273308416662" lon="8.95007281575343"><ele>129.0</ele><time>2026-05-02T16:32:48Z</time></trkpt><trkpt lat="41.05279927886782" lon="8.950144701399898"><ele>132.2</ele><time>2026-05-02T16:32:49Z</time></trkpt><trkpt lat="41.05287032157491" lon="8.950219208445358"><ele>135.4</ele><time>2026-05-02T16:32:50Z</time></trkpt><trkpt lat="41.05293955467545" lon="8.950291817627821"><ele>138.6</ele><time>2026-05-02T16:32:51Z</time></trkpt><trkpt lat="41.05300972300381" lon="8.950377993730733"><ele>141.8</ele><time>2026-05-02T16:32:52Z</time></trkpt><trkpt lat="41.05306856147363" lon="8.950479884883471"><ele>145.0</ele><time>2026-05-02T16:32:53Z</time></trkpt><trkpt lat="41.05311497295699" lon="8.950597121772912"><ele>145.0</ele><time>2026-05-02T16:32:54Z</time></trkpt><trkpt lat="41.0531593172338" lon="8.950705398178789"><ele>145.0</ele><time>2026-05-02T16:32:55Z</time></trkpt><trkpt lat="41.05320793857921" lon="8.950803817407357"><ele>145.0</ele><time>2026-05-02T16:32:56Z</time></trkpt><trkpt lat="41.05327131213254" lon="8.95090562206231"><ele>145.0</ele><time>2026-05-02T16:32:57Z</time></trkpt><trkpt lat="41.05333204922287" lon="8.95104002099859"><ele>145.0</ele><time>2026-05-02T16:32:58Z</time></trkpt><trkpt lat="41.053388698002486" lon="8.95119456141491"><ele>141.75</ele><time>2026-05-02T16:32:59Z</time></trkpt><trkpt lat="41.053436651911504" lon="8.951345896317008"><ele>138.5</ele><time>2026-05-02T16:33:00Z</time></trkpt><trkpt lat="41.05347325659069" lon="8.95148614713815"><ele>135.25</ele><time>2026-05-02T16:33:01Z</time></trkpt><trkpt lat="41.05350380463168" lon="8.951626780691813"><ele>132.0</ele><time>2026-05-02T16:33:02Z</time></trkpt><trkpt lat="41.053523411179164" lon="8.95179002644399"><ele>132.0</ele><time>2026-05-02T16:33:03Z</time></trkpt><trkpt lat="41.05353069260407" lon="8.951960633172714"><ele>132.0</ele><time>2026-05-02T16:33:04Z</time></trkpt><trkpt lat="41.05353977515482" lon="8.952123383570378"><ele>132.0</ele><time>2026-05-02T16:33:05Z</time></trkpt><trkpt lat="41.05356672600806" lon="8.952262897467723"><ele>132.0</ele><time>2026-05-02T16:33:06Z</time></trkpt><trkpt lat="41.05361906289727" lon="8.952379726781967"><ele>132.0</ele><time>2026-05-02T16:33:07Z</time></trkpt><trkpt lat="41.05371393359143" lon="8.952443257578253"><ele>132.0</ele><time>2026-05-02T16:33:08Z</time></trkpt><trkpt lat="41.05381917480379" lon="8.952476153021367"><ele>132.0</ele><time>2026-05-02T16:33:09Z</time></trkpt><trkpt lat="41.05394351831876" lon="8.95248103560305"><ele>132.0</ele><time>2026-05-02T16:33:10Z</time></trkpt><trkpt lat="41.054092136185886" lon="8.952509174657749"><ele>135.5</ele><time>2026-05-02T16:33:11Z</time></trkpt><trkpt lat="41.054253507615755" lon="8.952575431771006"><ele>139.0</ele><time>2026-05-02T16:33:12Z</time></trkpt><trkpt lat="41.05439622080145" lon="8.952604844841913"><ele>142.5</ele><time>2026-05-02T16:33:13Z</time></trkpt><trkpt lat="41.054511626496186" lon="8.95264591431767"><ele>146.0</ele><time>2026-05-02T16:33:14Z</time></trkpt><trkpt lat="41.054610996969885" lon="8.95269846445485"><ele>146.0</ele><time>2026-05-02T16:33:15Z</time></trkpt><trkpt lat="41.05470435155657" lon="8.952769648911081"><ele>146.0</ele><time>2026-05-02T16:33:16Z</time></trkpt><trkpt lat="41.054818411696495" lon="8.952841510707712"><ele>146.0</ele><time>2026-05-02T16:33:17Z</time></trkpt><trkpt lat="41.054943482704324" lon="8.952931879855692"><ele>146.0</ele><time>2026-05-02T16:33:18Z</time></trkpt><trkpt lat="41.05504367765826" lon="8.953024836629528"><ele>146.0</ele><time>2026-05-02T16:33:19Z</time></trkpt><trkpt lat="41.05511467029903" lon="8.953128556458793"><ele>146.0</ele><time>2026-05-02T16:33:20Z</time></trkpt><trkpt lat="41.05516829218186" lon="8.95324395259049"><ele>146.0</ele><time>2026-05-02T16:33:21Z</time></trkpt><trkpt lat="41.05523615289769" lon="8.953388577278718"><ele>146.0</ele><time>2026-05-02T16:33:22Z</time></trkpt><trkpt lat="41.05531825195769" lon="8.953549784442252"><ele>146.0</ele><time>2026-05-02T16:33:23Z</time></trkpt><trkpt lat="41.05540089607139" lon="8.953722056228306"><ele>146.0</ele><time>2026-05-02T16:33:24Z</time></trkpt><trkpt lat="41.055464106009126" lon="8.953886723847043"><ele>146.0</ele><time>2026-05-02T16:33:25Z</time></trkpt><trkpt lat="41.0555188494338" lon="8.954065653136684"><ele>146.0</ele><time>2026-05-02T16:33:26Z</time></trkpt><trkpt lat="41.0555733852689" lon="8.954261428200642"><ele>149.25</ele><time>2026-05-02T16:33:27Z</time></trkpt><trkpt lat="41.055620662759516" lon="8.954456219021859"><ele>152.5</ele><time>2026-05-02T16:33:28Z</time></trkpt><trkpt lat="41.05565752099002" lon="8.95462694686544"><ele>155.75</ele><time>2026-05-02T16:33:29Z</time></trkpt><trkpt lat="41.05568963689171" lon="8.954780586884388"><ele>159.0</ele><time>2026-05-02T16:33:30Z</time></trkpt><trkpt lat="41.055721683554154" lon="8.95491875345159"><ele>159.0</ele><time>2026-05-02T16:33:31Z</time></trkpt><trkpt lat="41.055755248654634" lon="8.955022941392436"><ele>159.0</ele><time>2026-05-02T16:33:32Z</time></trkpt><trkpt lat="41.055816040860876" lon="8.955096253844014"><ele>159.0</ele><time>2026-05-02T16:33:33Z</time></trkpt><trkpt lat="41.055911023710735" lon="8.955102313170858"><ele>159.0</ele><time>2026-05-02T16:33:34Z</time></trkpt><trkpt lat="41.056012564155985" lon="8.954998992796119"><ele>159.0</ele><time>2026-05-02T16:33:35Z</time></trkpt><trkpt lat="41.056102712683284" lon="8.954934780147997"><ele>154.0</ele><time>2026-05-02T16:33:36Z</time></trkpt><trkpt lat="41.05617390666809" lon="8.954916943639402"><ele>149.0</ele><time>2026-05-02T16:33:37Z</time></trkpt><trkpt lat="41.05623120432764" lon="8.955095167662403"><ele>144.0</ele><time>2026-05-02T16:33:38Z</time></trkpt><trkpt lat="41.05630114123597" lon="8.955138195681874"><ele>139.0</ele><time>2026-05-02T16:33:40Z</time></trkpt><trkpt lat="41.05636727049535" lon="8.955054564925582"><ele>134.0</ele><time>2026-05-02T16:33:41Z</time></trkpt><trkpt lat="41.05633828214277" lon="8.954859219667194"><ele>130.83333333333331</ele><time>2026-05-02T16:33:43Z</time></trkpt><trkpt lat="41.05627038281286" lon="8.954772277654218"><ele>127.66666666666666</ele><time>2026-05-02T16:33:44Z</time></trkpt><trkpt lat="41.05617382164929" lon="8.954724953497609"><ele>124.5</ele><time>2026-05-02T16:33:45Z</time></trkpt><trkpt lat="41.05608711408762" lon="8.954732232768635"><ele>121.33333333333334</ele><time>2026-05-02T16:33:46Z</time></trkpt><trkpt lat="41.05601413980521" lon="8.954710533190351"><ele>118.16666666666667</ele><time>2026-05-02T16:33:47Z</time></trkpt><trkpt lat="41.05595164388807" lon="8.954624113569809"><ele>115.0</ele><time>2026-05-02T16:33:49Z</time></trkpt><trkpt lat="41.055973683406904" lon="8.954532372777312"><ele>115.00000000000001</ele><time>2026-05-02T16:33:50Z</time></trkpt><trkpt lat="41.056014834205286" lon="8.95444268032423"><ele>115.0</ele><time>2026-05-02T16:33:51Z</time></trkpt><trkpt lat="41.05605564062954" lon="8.954357728382861"><ele>115.0</ele><time>2026-05-02T16:33:52Z</time></trkpt><trkpt lat="41.05609116045909" lon="8.954281740069916"><ele>115.0</ele><time>2026-05-02T16:33:53Z</time></trkpt><trkpt lat="41.056140530489216" lon="8.954160415112854"><ele>115.00000000000001</ele><time>2026-05-02T16:33:55Z</time></trkpt><trkpt lat="41.05613647279127" lon="8.954006444523507"><ele>115.0</ele><time>2026-05-02T16:33:57Z</time></trkpt><trkpt lat="41.05611585077475" lon="8.953904329537258"><ele>113.33333333333334</ele><time>2026-05-02T16:33:58Z</time></trkpt><trkpt lat="41.0560979723176" lon="8.953818631574036"><ele>111.66666666666667</ele><time>2026-05-02T16:33:59Z</time></trkpt><trkpt lat="41.05607415088682" lon="8.953704502284829"><ele>110.0</ele><time>2026-05-02T16:34:01Z</time></trkpt><trkpt lat="41.056056855216134" lon="8.95359648580065"><ele>108.33333333333334</ele><time>2026-05-02T16:34:03Z</time></trkpt><trkpt lat="41.05603944117119" lon="8.953487265307238"><ele>106.66666666666667</ele><time>2026-05-02T16:34:05Z</time></trkpt><trkpt lat="41.0560243154506" lon="8.953390970670858"><ele>105.0</ele><time>2026-05-02T16:34:07Z</time></trkpt><trkpt lat="41.05600580231685" lon="8.953289119239983"><ele>103.6</ele><time>2026-05-02T16:34:09Z</time></trkpt><trkpt lat="41.05598776679825" lon="8.953175114821406"><ele>102.2</ele><time>2026-05-02T16:34:11Z</time></trkpt><trkpt lat="41.055957840303186" lon="8.953040696224283"><ele>100.80000000000001</ele><time>2026-05-02T16:34:13Z</time></trkpt><trkpt lat="41.05598872292535" lon="8.952940420494931"><ele>99.4</ele><time>2026-05-02T16:34:15Z</time></trkpt><trkpt lat="41.0560580674945" lon="8.953017667638013"><ele>98.0</ele><time>2026-05-02T16:34:17Z</time></trkpt><trkpt lat="41.05616558439754" lon="8.953145806037213"><ele>97.99999999999999</ele><time>2026-05-02T16:34:19Z</time></trkpt><trkpt lat="41.05623281740219" lon="8.953226545198454"><ele>98.0</ele><time>2026-05-02T16:34:20Z</time></trkpt><trkpt lat="41.056313285952776" lon="8.95325963603072"><ele>98.0</ele><time>2026-05-02T16:34:21Z</time></trkpt><trkpt lat="41.05637565192203" lon="8.9532832592392"><ele>98.0</ele><time>2026-05-02T16:34:22Z</time></trkpt><trkpt lat="41.05649587625082" lon="8.95324172876774"><ele>97.99999999999999</ele><time>2026-05-02T16:34:24Z</time></trkpt><trkpt lat="41.05654650609849" lon="8.953184960599884"><ele>98.0</ele><time>2026-05-02T16:34:25Z</time></trkpt><trkpt lat="41.05658955335966" lon="8.953112886928857"><ele>96.14285714285714</ele><time>2026-05-02T16:34:26Z</time></trkpt><trkpt lat="41.056625863843415" lon="8.95303082050527"><ele>94.28571428571428</ele><time>2026-05-02T16:34:27Z</time></trkpt><trkpt lat="41.05666024195836" lon="8.952947273669599"><ele>92.42857142857143</ele><time>2026-05-02T16:34:28Z</time></trkpt><trkpt lat="41.05669768982158" lon="8.95286196884795"><ele>90.57142857142857</ele><time>2026-05-02T16:34:29Z</time></trkpt><trkpt lat="41.056726158507466" lon="8.952781551262479"><ele>88.71428571428571</ele><time>2026-05-02T16:34:30Z</time></trkpt><trkpt lat="41.056733066003986" lon="8.952695389675336"><ele>86.85714285714286</ele><time>2026-05-02T16:34:31Z</time></trkpt><trkpt lat="41.05671876246535" lon="8.952603375625463"><ele>85.0</ele><time>2026-05-02T16:34:32Z</time></trkpt><trkpt lat="41.05668087713445" lon="8.952507291963434"><ele>85.5</ele><time>2026-05-02T16:34:33Z</time></trkpt><trkpt lat="41.05664227721894" lon="8.952405436104181"><ele>86.0</ele><time>2026-05-02T16:34:34Z</time></trkpt><trkpt lat="41.05660322968662" lon="8.952299142144032"><ele>86.5</ele><time>2026-05-02T16:34:35Z</time></trkpt><trkpt lat="41.05656518816874" lon="8.952194246736084"><ele>87.0</ele><time>2026-05-02T16:34:36Z</time></trkpt><trkpt lat="41.05652501367649" lon="8.952093368108434"><ele>87.5</ele><time>2026-05-02T16:34:37Z</time></trkpt><trkpt lat="41.05647019965174" lon="8.951999750490604"><ele>88.0</ele><time>2026-05-02T16:34:38Z</time></trkpt><trkpt lat="41.05641541963389" lon="8.951909102696273"><ele>88.0</ele><time>2026-05-02T16:34:39Z</time></trkpt><trkpt lat="41.05635572972297" lon="8.951817979170576"><ele>88.0</ele><time>2026-05-02T16:34:40Z</time></trkpt><trkpt lat="41.0562905976146" lon="8.95173284694649"><ele>88.0</ele><time>2026-05-02T16:34:41Z</time></trkpt><trkpt lat="41.05623213211568" lon="8.951655671482008"><ele>88.0</ele><time>2026-05-02T16:34:42Z</time></trkpt><trkpt lat="41.05617881008264" lon="8.951590033778627"><ele>88.0</ele><time>2026-05-02T16:34:43Z</time></trkpt><trkpt lat="41.0561293707272" lon="8.951518530234335"><ele>88.0</ele><time>2026-05-02T16:34:44Z</time></trkpt><trkpt lat="41.05607565283186" lon="8.951454909725255"><ele>86.0</ele><time>2026-05-02T16:34:45Z</time></trkpt><trkpt lat="41.05603315817457" lon="8.95138480957039"><ele>84.0</ele><time>2026-05-02T16:34:46Z</time></trkpt><trkpt lat="41.05602258460256" lon="8.951297848377076"><ele>82.0</ele><time>2026-05-02T16:34:47Z</time></trkpt><trkpt lat="41.056044939498896" lon="8.951215101475944"><ele>80.0</ele><time>2026-05-02T16:34:48Z</time></trkpt><trkpt lat="41.05607778368186" lon="8.951140986730481"><ele>78.0</ele><time>2026-05-02T16:34:49Z</time></trkpt><trkpt lat="41.056182940653336" lon="8.95105696008323"><ele>76.0</ele><time>2026-05-02T16:34:51Z</time></trkpt><trkpt lat="41.05625979767033" lon="8.951044603944526"><ele>76.0</ele><time>2026-05-02T16:34:52Z</time></trkpt><trkpt lat="41.05634440995164" lon="8.951064697548622"><ele>76.0</ele><time>2026-05-02T16:34:53Z</time></trkpt><trkpt lat="41.05643796672311" lon="8.951082394377998"><ele>76.0</ele><time>2026-05-02T16:34:54Z</time></trkpt><trkpt lat="41.05653605513264" lon="8.951112639210388"><ele>76.0</ele><time>2026-05-02T16:34:55Z</time></trkpt><trkpt lat="41.056636979686296" lon="8.951130792614086"><ele>76.0</ele><time>2026-05-02T16:34:56Z</time></trkpt><trkpt lat="41.05672543753531" lon="8.951170712220257"><ele>75.33333333333333</ele><time>2026-05-02T16:34:57Z</time></trkpt><trkpt lat="41.05681134887866" lon="8.9511863615417"><ele>74.66666666666666</ele><time>2026-05-02T16:34:58Z</time></trkpt><trkpt lat="41.05688719179494" lon="8.951173500720106"><ele>74.0</ele><time>2026-05-02T16:34:59Z</time></trkpt><trkpt lat="41.056948467434665" lon="8.95112377918843"><ele>73.33333333333333</ele><time>2026-05-02T16:35:00Z</time></trkpt><trkpt lat="41.05698204728456" lon="8.95104322809926"><ele>72.66666666666667</ele><time>2026-05-02T16:35:01Z</time></trkpt><trkpt lat="41.05698156110538" lon="8.95094304434024"><ele>72.0</ele><time>2026-05-02T16:35:02Z</time></trkpt><trkpt lat="41.05693676685777" lon="8.950847629926875"><ele>70.4</ele><time>2026-05-02T16:35:03Z</time></trkpt><trkpt lat="41.05687829492641" lon="8.950763241801928"><ele>68.80000000000001</ele><time>2026-05-02T16:35:04Z</time></trkpt><trkpt lat="41.056820346842876" lon="8.950677281317489"><ele>67.2</ele><time>2026-05-02T16:35:05Z</time></trkpt><trkpt lat="41.05676389206037" lon="8.950592719824355"><ele>65.60000000000001</ele><time>2026-05-02T16:35:06Z</time></trkpt><trkpt lat="41.056713427544786" lon="8.950518495069197"><ele>64.0</ele><time>2026-05-02T16:35:07Z</time></trkpt><trkpt lat="41.05661851430909" lon="8.95042504293388"><ele>63.99999999999999</ele><time>2026-05-02T16:35:09Z</time></trkpt><trkpt lat="41.05655505378839" lon="8.950347097789097"><ele>64.0</ele><time>2026-05-02T16:35:11Z</time></trkpt><trkpt lat="41.05665638471738" lon="8.950309200413017"><ele>64.0</ele><time>2026-05-02T16:35:15Z</time></trkpt><trkpt lat="41.05674202017065" lon="8.950328137487197"><ele>64.0</ele><time>2026-05-02T16:35:17Z</time></trkpt><trkpt lat="41.0568335617063" lon="8.95033367390613"><ele>63.99999999999999</ele><time>2026-05-02T16:35:19Z</time></trkpt><trkpt lat="41.0569018886125" lon="8.950370798519762"><ele>64.0</ele><time>2026-05-02T16:35:21Z</time></trkpt><trkpt lat="41.05698218509736" lon="8.950390402540584"><ele>64.0</ele><time>2026-05-02T16:35:24Z</time></trkpt><trkpt lat="41.05653414035871" lon="8.950260559811218"><ele>63.99999999999999</ele><time>2026-05-02T16:36:43Z</time></trkpt><trkpt lat="41.05644333504105" lon="8.950263147691789"><ele>64.0</ele><time>2026-05-02T16:36:45Z</time></trkpt><trkpt lat="41.05631723674879" lon="8.950259396157234"><ele>64.0</ele><time>2026-05-02T16:36:47Z</time></trkpt><trkpt lat="41.05624961888572" lon="8.95026568920047"><ele>64.0</ele><time>2026-05-02T16:36:48Z</time></trkpt><trkpt lat="41.05618008524826" lon="8.950285862548204"><ele>63.99999999999999</ele><time>2026-05-02T16:36:49Z</time></trkpt><trkpt lat="41.05610995697088" lon="8.95031484594316"><ele>64.0</ele><time>2026-05-02T16:36:50Z</time></trkpt><trkpt lat="41.05604314634949" lon="8.950344053247326"><ele>64.0</ele><time>2026-05-02T16:36:51Z</time></trkpt><trkpt lat="41.05598318466544" lon="8.950391434609365"><ele>64.0</ele><time>2026-05-02T16:36:52Z</time></trkpt><trkpt lat="41.05590904129176" lon="8.950460940399363"><ele>64.0</ele><time>2026-05-02T16:36:54Z</time></trkpt><trkpt lat="41.05582976950599" lon="8.95053190810638"><ele>64.0</ele><time>2026-05-02T16:36:56Z</time></trkpt><trkpt lat="41.05577297682673" lon="8.950688894143372"><ele>64.0</ele><time>2026-05-02T16:36:58Z</time></trkpt><trkpt lat="41.05572172234999" lon="8.950755045937068"><ele>65.0</ele><time>2026-05-02T16:36:59Z</time></trkpt><trkpt lat="41.055657255229384" lon="8.950789282477373"><ele>66.0</ele><time>2026-05-02T16:37:00Z</time></trkpt><trkpt lat="41.05554974748261" lon="8.950733161766346"><ele>67.0</ele><time>2026-05-02T16:37:02Z</time></trkpt><trkpt lat="41.05551072047443" lon="8.950660705452643"><ele>68.0</ele><time>2026-05-02T16:37:03Z</time></trkpt><trkpt lat="41.055496956458356" lon="8.950567757085444"><ele>69.0</ele><time>2026-05-02T16:37:04Z</time></trkpt><trkpt lat="41.05551201270637" lon="8.95045968415251"><ele>70.0</ele><time>2026-05-02T16:37:05Z</time></trkpt><trkpt lat="41.05554223072693" lon="8.950340423349182"><ele>70.0</ele><time>2026-05-02T16:37:06Z</time></trkpt><trkpt lat="41.055555142535326" lon="8.950183672345947"><ele>70.0</ele><time>2026-05-02T16:37:07Z</time></trkpt><trkpt lat="41.055600956935415" lon="8.950058823354267"><ele>70.0</ele><time>2026-05-02T16:37:08Z</time></trkpt><trkpt lat="41.05564663824956" lon="8.9499310634595"><ele>70.0</ele><time>2026-05-02T16:37:09Z</time></trkpt><trkpt lat="41.05567958329281" lon="8.949821806121138"><ele>70.0</ele><time>2026-05-02T16:37:10Z</time></trkpt><trkpt lat="41.055700232482366" lon="8.949716913783442"><ele>68.33333333333333</ele><time>2026-05-02T16:37:11Z</time></trkpt><trkpt lat="41.05571024361689" lon="8.94961992539547"><ele>66.66666666666666</ele><time>2026-05-02T16:37:12Z</time></trkpt><trkpt lat="41.055708438275694" lon="8.949526171037645"><ele>65.0</ele><time>2026-05-02T16:37:13Z</time></trkpt><trkpt lat="41.05570819300996" lon="8.949436166101828"><ele>63.33333333333333</ele><time>2026-05-02T16:37:14Z</time></trkpt><trkpt lat="41.05570733654476" lon="8.949350040111236"><ele>61.666666666666664</ele><time>2026-05-02T16:37:15Z</time></trkpt><trkpt lat="41.055717142584975" lon="8.949200962593428"><ele>60.0</ele><time>2026-05-02T16:37:17Z</time></trkpt><trkpt lat="41.05571390063538" lon="8.949057973291378"><ele>58.2</ele><time>2026-05-02T16:37:19Z</time></trkpt><trkpt lat="41.055703499700286" lon="8.948921436867034"><ele>56.4</ele><time>2026-05-02T16:37:21Z</time></trkpt><trkpt lat="41.05566615562594" lon="8.948798196250042"><ele>54.599999999999994</ele><time>2026-05-02T16:37:23Z</time></trkpt><trkpt lat="41.05558395055867" lon="8.948675811643405"><ele>52.8</ele><time>2026-05-02T16:37:25Z</time></trkpt><trkpt lat="41.05551409157368" lon="8.948633329996346"><ele>51.0</ele><time>2026-05-02T16:37:26Z</time></trkpt><trkpt lat="41.055416610085146" lon="8.948603362477314"><ele>51.0</ele><time>2026-05-02T16:37:27Z</time></trkpt><trkpt lat="41.05527628830018" lon="8.948591022948639"><ele>51.0</ele><time>2026-05-02T16:37:28Z</time></trkpt><trkpt lat="41.05516435888224" lon="8.948517727665594"><ele>51.0</ele><time>2026-05-02T16:37:29Z</time></trkpt><trkpt lat="41.05506667932109" lon="8.948444775345886"><ele>51.0</ele><time>2026-05-02T16:37:30Z</time></trkpt><trkpt lat="41.055017199459016" lon="8.948325633696657"><ele>51.8</ele><time>2026-05-02T16:37:31Z</time></trkpt><trkpt lat="41.05495613659277" lon="8.948238282203581"><ele>52.599999999999994</ele><time>2026-05-02T16:37:32Z</time></trkpt><trkpt lat="41.054907920220444" lon="8.948130880457464"><ele>53.4</ele><time>2026-05-02T16:37:33Z</time></trkpt><trkpt lat="41.05484767138545" lon="8.948016186227756"><ele>54.2</ele><time>2026-05-02T16:37:34Z</time></trkpt><trkpt lat="41.05479654807628" lon="8.947890447436974"><ele>55.0</ele><time>2026-05-02T16:37:35Z</time></trkpt><trkpt lat="41.05473703683831" lon="8.947769062915384"><ele>55.0</ele><time>2026-05-02T16:37:36Z</time></trkpt><trkpt lat="41.05466102609863" lon="8.947660336376211"><ele>55.0</ele><time>2026-05-02T16:37:37Z</time></trkpt><trkpt lat="41.05460115322191" lon="8.94752921634648"><ele>55.0</ele><time>2026-05-02T16:37:38Z</time></trkpt><trkpt lat="41.054541691665555" lon="8.947411810218213"><ele>55.0</ele><time>2026-05-02T16:37:39Z</time></trkpt><trkpt lat="41.054491443149175" lon="8.947307381958126"><ele>55.0</ele><time>2026-05-02T16:37:40Z</time></trkpt><trkpt lat="41.054445158875495" lon="8.947213730028498"><ele>53.49999999999999</ele><time>2026-05-02T16:37:41Z</time></trkpt><trkpt lat="41.05440444488023" lon="8.94713075423224"><ele>52.0</ele><time>2026-05-02T16:37:42Z</time></trkpt><trkpt lat="41.05436575704159" lon="8.947052501094882"><ele>50.5</ele><time>2026-05-02T16:37:43Z</time></trkpt><trkpt lat="41.05430409020097" lon="8.946912572249131"><ele>49.0</ele><time>2026-05-02T16:37:45Z</time></trkpt><trkpt lat="41.054270639837846" lon="8.946839789124915"><ele>47.5</ele><time>2026-05-02T16:37:46Z</time></trkpt><trkpt lat="41.05423011993919" lon="8.946760294100715"><ele>46.0</ele><time>2026-05-02T16:37:47Z</time></trkpt><trkpt lat="41.05417975210868" lon="8.946670021944115"><ele>47.0</ele><time>2026-05-02T16:37:48Z</time></trkpt><trkpt lat="41.05412523952714" lon="8.946568619179983"><ele>48.0</ele><time>2026-05-02T16:37:49Z</time></trkpt><trkpt lat="41.05406925338462" lon="8.946460404692518"><ele>49.0</ele><time>2026-05-02T16:37:50Z</time></trkpt><trkpt lat="41.05401377315256" lon="8.946342957075817"><ele>50.0</ele><time>2026-05-02T16:37:51Z</time></trkpt><trkpt lat="41.05395807726849" lon="8.94622099457627"><ele>51.0</ele><time>2026-05-02T16:37:52Z</time></trkpt><trkpt lat="41.053900952063344" lon="8.946091472837388"><ele>51.0</ele><time>2026-05-02T16:37:53Z</time></trkpt><trkpt lat="41.05384964588805" lon="8.945951713965156"><ele>51.0</ele><time>2026-05-02T16:37:54Z</time></trkpt><trkpt lat="41.05380547310259" lon="8.94581493788504"><ele>51.0</ele><time>2026-05-02T16:37:55Z</time></trkpt><trkpt lat="41.053773198954275" lon="8.945675125456235"><ele>51.0</ele><time>2026-05-02T16:37:56Z</time></trkpt><trkpt lat="41.05375889611586" lon="8.94554127900255"><ele>51.0</ele><time>2026-05-02T16:37:57Z</time></trkpt><trkpt lat="41.05374152486712" lon="8.945412227706777"><ele>49.199999999999996</ele><time>2026-05-02T16:37:58Z</time></trkpt><trkpt lat="41.05372218172583" lon="8.945298774613487"><ele>47.4</ele><time>2026-05-02T16:37:59Z</time></trkpt><trkpt lat="41.05369718746094" lon="8.945177530489051"><ele>45.6</ele><time>2026-05-02T16:38:00Z</time></trkpt><trkpt lat="41.05366972587003" lon="8.94503262456841"><ele>43.8</ele><time>2026-05-02T16:38:01Z</time></trkpt><trkpt lat="41.05364778091896" lon="8.944898097450832"><ele>42.0</ele><time>2026-05-02T16:38:02Z</time></trkpt><trkpt lat="41.05362629014198" lon="8.944776527273389"><ele>40.6</ele><time>2026-05-02T16:38:03Z</time></trkpt><trkpt lat="41.053599799120306" lon="8.944661794643176"><ele>39.2</ele><time>2026-05-02T16:38:04Z</time></trkpt><trkpt lat="41.05356877988116" lon="8.944557301287082"><ele>37.8</ele><time>2026-05-02T16:38:05Z</time></trkpt><trkpt lat="41.05356683161208" lon="8.944450517030928"><ele>36.4</ele><time>2026-05-02T16:38:06Z</time></trkpt><trkpt lat="41.05345328447313" lon="8.944370562261167"><ele>35.0</ele><time>2026-05-02T16:38:07Z</time></trkpt><trkpt lat="41.05338391931145" lon="8.944287484077563"><ele>35.0</ele><time>2026-05-02T16:38:08Z</time></trkpt><trkpt lat="41.05329156898753" lon="8.944247782641053"><ele>35.0</ele><time>2026-05-02T16:38:09Z</time></trkpt><trkpt lat="41.05320427951518" lon="8.944199301215013"><ele>35.0</ele><time>2026-05-02T16:38:10Z</time></trkpt><trkpt lat="41.05313275054148" lon="8.944180636582773"><ele>35.0</ele><time>2026-05-02T16:38:11Z</time></trkpt><trkpt lat="41.05310594540891" lon="8.944024984471733"><ele>35.0</ele><time>2026-05-02T16:38:12Z</time></trkpt><trkpt lat="41.05305275619236" lon="8.943923458346303"><ele>36.0</ele><time>2026-05-02T16:38:13Z</time></trkpt><trkpt lat="41.05299738525677" lon="8.943832662624834"><ele>37.0</ele><time>2026-05-02T16:38:14Z</time></trkpt><trkpt lat="41.05295145186823" lon="8.943734872285676"><ele>38.0</ele><time>2026-05-02T16:38:15Z</time></trkpt><trkpt lat="41.05291173573792" lon="8.943647949484054"><ele>39.0</ele><time>2026-05-02T16:38:16Z</time></trkpt><trkpt lat="41.05285680603646" lon="8.943571515675782"><ele>40.0</ele><time>2026-05-02T16:38:17Z</time></trkpt><trkpt lat="41.05279898015346" lon="8.94347758813586"><ele>41.0</ele><time>2026-05-02T16:38:18Z</time></trkpt><trkpt lat="41.052726178742944" lon="8.94338203701714"><ele>41.5</ele><time>2026-05-02T16:38:19Z</time></trkpt><trkpt lat="41.052638100023685" lon="8.943291180554134"><ele>42.0</ele><time>2026-05-02T16:38:20Z</time></trkpt><trkpt lat="41.05253793639015" lon="8.94322112317389"><ele>42.5</ele><time>2026-05-02T16:38:21Z</time></trkpt><trkpt lat="41.05242937571094" lon="8.943153592556449"><ele>43.0</ele><time>2026-05-02T16:38:22Z</time></trkpt><trkpt lat="41.052350590018115" lon="8.943060619820958"><ele>43.0</ele><time>2026-05-02T16:38:23Z</time></trkpt><trkpt lat="41.05227766708092" lon="8.943007072169062"><ele>43.0</ele><time>2026-05-02T16:38:24Z</time></trkpt><trkpt lat="41.05221919773994" lon="8.94291515097819"><ele>43.0</ele><time>2026-05-02T16:38:25Z</time></trkpt><trkpt lat="41.05217821463919" lon="8.94281448162203"><ele>43.0</ele><time>2026-05-02T16:38:26Z</time></trkpt><trkpt lat="41.05215769202249" lon="8.94270542890534"><ele>43.0</ele><time>2026-05-02T16:38:27Z</time></trkpt><trkpt lat="41.05213998439076" lon="8.942614529117597"><ele>43.0</ele><time>2026-05-02T16:38:28Z</time></trkpt><trkpt lat="41.05212288771648" lon="8.942522492034714"><ele>42.0</ele><time>2026-05-02T16:38:29Z</time></trkpt><trkpt lat="41.0521044107985" lon="8.942427429436998"><ele>41.0</ele><time>2026-05-02T16:38:30Z</time></trkpt><trkpt lat="41.0520777452029" lon="8.942332826488453"><ele>40.0</ele><time>2026-05-02T16:38:31Z</time></trkpt><trkpt lat="41.05205080904836" lon="8.942230158435795"><ele>39.0</ele><time>2026-05-02T16:38:32Z</time></trkpt><trkpt lat="41.05201622835275" lon="8.942128043210008"><ele>38.0</ele><time>2026-05-02T16:38:33Z</time></trkpt><trkpt lat="41.05196682368445" lon="8.94203356591314"><ele>37.0</ele><time>2026-05-02T16:38:34Z</time></trkpt><trkpt lat="41.05190591006897" lon="8.941940637328068"><ele>37.0</ele><time>2026-05-02T16:38:35Z</time></trkpt><trkpt lat="41.05183715860551" lon="8.941841083658707"><ele>37.0</ele><time>2026-05-02T16:38:36Z</time></trkpt><trkpt lat="41.051784174467834" lon="8.941778682482173"><ele>37.0</ele><time>2026-05-02T16:38:37Z</time></trkpt><trkpt lat="41.05171447746671" lon="8.941705246061986"><ele>37.0</ele><time>2026-05-02T16:38:39Z</time></trkpt><trkpt lat="41.05173079785485" lon="8.94156842111481"><ele>37.0</ele><time>2026-05-02T16:38:42Z</time></trkpt><trkpt lat="41.051765213398355" lon="8.941487007791617"><ele>37.0</ele><time>2026-05-02T16:38:43Z</time></trkpt><trkpt lat="41.05181181271448" lon="8.941397185277731"><ele>36.0</ele><time>2026-05-02T16:38:44Z</time></trkpt><trkpt lat="41.05185989832598" lon="8.9413052229623"><ele>35.0</ele><time>2026-05-02T16:38:45Z</time></trkpt><trkpt lat="41.05190565723168" lon="8.94121391076061"><ele>34.0</ele><time>2026-05-02T16:38:46Z</time></trkpt><trkpt lat="41.0519394475932" lon="8.94112809095467"><ele>33.0</ele><time>2026-05-02T16:38:47Z</time></trkpt><trkpt lat="41.05197811863463" lon="8.941040023529139"><ele>32.0</ele><time>2026-05-02T16:38:48Z</time></trkpt><trkpt lat="41.052015888568064" lon="8.940954398659912"><ele>31.0</ele><time>2026-05-02T16:38:49Z</time></trkpt><trkpt lat="41.05204575999104" lon="8.940864837422323"><ele>30.200000000000003</ele><time>2026-05-02T16:38:50Z</time></trkpt><trkpt lat="41.0520495646126" lon="8.940764187884447"><ele>29.400000000000002</ele><time>2026-05-02T16:38:51Z</time></trkpt><trkpt lat="41.05202429926701" lon="8.940654741980733"><ele>28.6</ele><time>2026-05-02T16:38:52Z</time></trkpt><trkpt lat="41.05196607887602" lon="8.940535676128805"><ele>27.8</ele><time>2026-05-02T16:38:53Z</time></trkpt><trkpt lat="41.051900872212244" lon="8.94041422358574"><ele>27.0</ele><time>2026-05-02T16:38:54Z</time></trkpt><trkpt lat="41.05183833986021" lon="8.940288237014034"><ele>27.0</ele><time>2026-05-02T16:38:55Z</time></trkpt><trkpt lat="41.05177895429908" lon="8.9401505120838"><ele>27.000000000000004</ele><time>2026-05-02T16:38:56Z</time></trkpt><trkpt lat="41.05171887200222" lon="8.940016368069776"><ele>27.000000000000004</ele><time>2026-05-02T16:38:57Z</time></trkpt><trkpt lat="41.05166437612407" lon="8.939891111319321"><ele>27.0</ele><time>2026-05-02T16:38:58Z</time></trkpt><trkpt lat="41.05161978057506" lon="8.939780712958134"><ele>27.0</ele><time>2026-05-02T16:38:59Z</time></trkpt><trkpt lat="41.05157538615242" lon="8.939682211888861"><ele>27.0</ele><time>2026-05-02T16:39:00Z</time></trkpt><trkpt lat="41.05153623029926" lon="8.939583117540481"><ele>27.0</ele><time>2026-05-02T16:39:01Z</time></trkpt><trkpt lat="41.05149660481888" lon="8.939484883151112"><ele>27.0</ele><time>2026-05-02T16:39:02Z</time></trkpt><trkpt lat="41.05146028068496" lon="8.939384887279646"><ele>27.0</ele><time>2026-05-02T16:39:03Z</time></trkpt><trkpt lat="41.05143254294527" lon="8.939283905902698"><ele>27.0</ele><time>2026-05-02T16:39:04Z</time></trkpt><trkpt lat="41.05140918550449" lon="8.939178218407584"><ele>27.0</ele><time>2026-05-02T16:39:05Z</time></trkpt><trkpt lat="41.05139063872291" lon="8.93908213943352"><ele>27.0</ele><time>2026-05-02T16:39:06Z</time></trkpt><trkpt lat="41.05136963126824" lon="8.938993787290816"><ele>27.0</ele><time>2026-05-02T16:39:07Z</time></trkpt><trkpt lat="41.051342351809105" lon="8.938850253369882"><ele>27.0</ele><time>2026-05-02T16:39:09Z</time></trkpt><trkpt lat="41.05135585940684" lon="8.93872161439554"><ele>27.0</ele><time>2026-05-02T16:39:11Z</time></trkpt><trkpt lat="41.05134139735177" lon="8.938605471192794"><ele>27.0</ele><time>2026-05-02T16:39:13Z</time></trkpt><trkpt lat="41.05130458120801" lon="8.938523560335735"><ele>27.0</ele><time>2026-05-02T16:39:15Z</time></trkpt><trkpt lat="41.05122663564429" lon="8.938545445563383"><ele>27.0</ele><time>2026-05-02T16:39:17Z</time></trkpt><trkpt lat="41.05117039360499" lon="8.938616629789808"><ele>27.0</ele><time>2026-05-02T16:39:20Z</time></trkpt><trkpt lat="41.051115337305475" lon="8.938543927014615"><ele>27.0</ele><time>2026-05-02T16:39:23Z</time></trkpt><trkpt lat="41.05111814138187" lon="8.938458699514218"><ele>27.0</ele><time>2026-05-02T16:39:25Z</time></trkpt><trkpt lat="41.0510574645917" lon="8.93833019979568"><ele>5.0</ele><time>2026-05-02T16:39:28Z</time></trkpt><trkpt lat="41.05098670072379" lon="8.938342280564248"><ele>5.0</ele><time>2026-05-02T16:39:31Z</time></trkpt></trkseg></trk></gpx>